<?xml version="1.0" encoding="UTF-8" standalone="no" ?>
<gpx xmlns="http://www.topografix.com/GPX/1/1" xmlns:xsi="http://www.w3.org/2001/XMLSchema-instance" xsi:schemaLocation="http://www.topografix.com/GPX/1/1 http://www.topografix.com/GPX/1/1/gpx.xsd" version="1.1" creator="VisuGPX - https://www.visugpx.com">
  <metadata>
    <name>New Vernois</name>
    <desc><![CDATA[Nouvel itinéraire roulant et bien sympa]]></desc>
  </metadata>
  <wpt lat="47.49381" lon="6.74697">
    <ele>348</ele>
    <name><![CDATA[Point de cheminement 1]]></name>
    <desc><![CDATA[]]></desc>
  </wpt>
  <wpt lat="47.50915" lon="6.72528">
    <ele>406</ele>
    <name><![CDATA[Point de cheminement 2]]></name>
    <desc><![CDATA[]]></desc>
  </wpt>
  <wpt lat="47.53763" lon="6.72733">
    <ele>358</ele>
    <name><![CDATA[Point de cheminement 3]]></name>
    <desc><![CDATA[]]></desc>
  </wpt>
  <wpt lat="47.55085" lon="6.71435">
    <ele>384</ele>
    <name><![CDATA[Point de cheminement 4]]></name>
    <desc><![CDATA[]]></desc>
  </wpt>
  <wpt lat="47.54691" lon="6.67659">
    <ele>414</ele>
    <name><![CDATA[Point de cheminement 5]]></name>
    <desc><![CDATA[]]></desc>
  </wpt>
  <wpt lat="47.55585" lon="6.67395">
    <ele>472</ele>
    <name><![CDATA[Point de cheminement 6]]></name>
    <desc><![CDATA[]]></desc>
  </wpt>
  <wpt lat="47.55473" lon="6.6674">
    <ele>501</ele>
    <name><![CDATA[Point de cheminement 7]]></name>
    <desc><![CDATA[]]></desc>
  </wpt>
  <wpt lat="47.52739" lon="6.65191">
    <ele>393</ele>
    <name><![CDATA[Point de cheminement 8]]></name>
    <desc><![CDATA[]]></desc>
  </wpt>
  <wpt lat="47.52741" lon="6.71079">
    <ele>357</ele>
    <name><![CDATA[Point de cheminement 9]]></name>
    <desc><![CDATA[]]></desc>
  </wpt>
  <wpt lat="47.51377" lon="6.72577">
    <ele>427</ele>
    <name><![CDATA[Point de cheminement 10]]></name>
    <desc><![CDATA[]]></desc>
  </wpt>
  <wpt lat="47.50168" lon="6.75997">
    <ele>371</ele>
    <name><![CDATA[Point de cheminement 11]]></name>
    <desc><![CDATA[]]></desc>
  </wpt>
  <wpt lat="47.51794" lon="6.77466">
    <ele>388</ele>
    <name><![CDATA[Point de cheminement 12]]></name>
    <desc><![CDATA[]]></desc>
  </wpt>
  <trk>
    <name><![CDATA[Rue Antoine Coysevox]]></name>
    <desc><![CDATA[]]></desc>
    <trkseg>
      <trkpt lat="47.50232" lon="6.76643">
        <ele>401</ele>
        <time>2015-05-25T07:27:18.271Z</time>
      </trkpt>
      <trkpt lat="47.5023" lon="6.7665">
        <ele>401</ele>
        <time>2015-05-25T07:27:19.264Z</time>
      </trkpt>
      <trkpt lat="47.50219" lon="6.76659">
        <ele>401</ele>
        <time>2015-05-25T07:27:20.267Z</time>
      </trkpt>
      <trkpt lat="47.50216" lon="6.76659">
        <ele>401</ele>
        <time>2015-05-25T07:27:21.266Z</time>
      </trkpt>
      <trkpt lat="47.50215" lon="6.76651">
        <ele>402</ele>
        <time>2015-05-25T07:27:22.272Z</time>
      </trkpt>
      <trkpt lat="47.5022" lon="6.76648">
        <ele>401</ele>
        <time>2015-05-25T07:27:23.000Z</time>
      </trkpt>
      <trkpt lat="47.50217" lon="6.76645">
        <ele>402</ele>
        <time>2015-05-25T07:27:48.000Z</time>
      </trkpt>
      <trkpt lat="47.50216" lon="6.76642">
        <ele>402</ele>
        <time>2015-05-25T07:27:49.000Z</time>
      </trkpt>
      <trkpt lat="47.50215" lon="6.76637">
        <ele>402</ele>
        <time>2015-05-25T07:27:50.000Z</time>
      </trkpt>
      <trkpt lat="47.50213" lon="6.76632">
        <ele>402</ele>
        <time>2015-05-25T07:27:51.000Z</time>
      </trkpt>
      <trkpt lat="47.50211" lon="6.76626">
        <ele>402</ele>
        <time>2015-05-25T07:27:52.000Z</time>
      </trkpt>
      <trkpt lat="47.50208" lon="6.7662">
        <ele>402</ele>
        <time>2015-05-25T07:27:53.000Z</time>
      </trkpt>
      <trkpt lat="47.50207" lon="6.76615">
        <ele>402</ele>
        <time>2015-05-25T07:27:54.000Z</time>
      </trkpt>
      <trkpt lat="47.50205" lon="6.76609">
        <ele>402</ele>
        <time>2015-05-25T07:27:55.000Z</time>
      </trkpt>
      <trkpt lat="47.50204" lon="6.76605">
        <ele>402</ele>
        <time>2015-05-25T07:27:56.000Z</time>
      </trkpt>
      <trkpt lat="47.50203" lon="6.76601">
        <ele>402</ele>
        <time>2015-05-25T07:27:57.000Z</time>
      </trkpt>
      <trkpt lat="47.50203" lon="6.76598">
        <ele>403</ele>
        <time>2015-05-25T07:27:58.000Z</time>
      </trkpt>
      <trkpt lat="47.50202" lon="6.76594">
        <ele>403</ele>
        <time>2015-05-25T07:27:59.000Z</time>
      </trkpt>
      <trkpt lat="47.50202" lon="6.76588">
        <ele>403</ele>
        <time>2015-05-25T07:28:01.000Z</time>
      </trkpt>
      <trkpt lat="47.50201" lon="6.76586">
        <ele>403</ele>
        <time>2015-05-25T07:28:02.000Z</time>
      </trkpt>
      <trkpt lat="47.50199" lon="6.7658">
        <ele>402</ele>
        <time>2015-05-25T07:28:04.000Z</time>
      </trkpt>
      <trkpt lat="47.50198" lon="6.76577">
        <ele>402</ele>
        <time>2015-05-25T07:28:05.000Z</time>
      </trkpt>
      <trkpt lat="47.50198" lon="6.76573">
        <ele>402</ele>
        <time>2015-05-25T07:28:06.000Z</time>
      </trkpt>
      <trkpt lat="47.50206" lon="6.7657">
        <ele>401</ele>
        <time>2015-05-25T07:28:07.000Z</time>
      </trkpt>
      <trkpt lat="47.5021" lon="6.76569">
        <ele>401</ele>
        <time>2015-05-25T07:28:08.000Z</time>
      </trkpt>
      <trkpt lat="47.50214" lon="6.76569">
        <ele>401</ele>
        <time>2015-05-25T07:28:09.000Z</time>
      </trkpt>
      <trkpt lat="47.50217" lon="6.76569">
        <ele>401</ele>
        <time>2015-05-25T07:28:10.000Z</time>
      </trkpt>
      <trkpt lat="47.50224" lon="6.7657">
        <ele>400</ele>
        <time>2015-05-25T07:28:11.000Z</time>
      </trkpt>
      <trkpt lat="47.50227" lon="6.76563">
        <ele>400</ele>
        <time>2015-05-25T07:28:12.000Z</time>
      </trkpt>
      <trkpt lat="47.50228" lon="6.7655">
        <ele>400</ele>
        <time>2015-05-25T07:28:13.000Z</time>
      </trkpt>
      <trkpt lat="47.50228" lon="6.7654">
        <ele>399</ele>
        <time>2015-05-25T07:28:14.000Z</time>
      </trkpt>
      <trkpt lat="47.50227" lon="6.76532">
        <ele>399</ele>
        <time>2015-05-25T07:28:15.000Z</time>
      </trkpt>
      <trkpt lat="47.50226" lon="6.76522">
        <ele>399</ele>
        <time>2015-05-25T07:28:16.000Z</time>
      </trkpt>
      <trkpt lat="47.50224" lon="6.76512">
        <ele>398</ele>
        <time>2015-05-25T07:28:17.000Z</time>
      </trkpt>
      <trkpt lat="47.5022" lon="6.76501">
        <ele>399</ele>
        <time>2015-05-25T07:28:18.000Z</time>
      </trkpt>
      <trkpt lat="47.50212" lon="6.7649">
        <ele>396</ele>
        <time>2015-05-25T07:28:19.000Z</time>
      </trkpt>
      <trkpt lat="47.50208" lon="6.7648">
        <ele>396</ele>
        <time>2015-05-25T07:28:20.000Z</time>
      </trkpt>
      <trkpt lat="47.50203" lon="6.76468">
        <ele>396</ele>
        <time>2015-05-25T07:28:21.000Z</time>
      </trkpt>
      <trkpt lat="47.50201" lon="6.76455">
        <ele>396</ele>
        <time>2015-05-25T07:28:22.000Z</time>
      </trkpt>
      <trkpt lat="47.50197" lon="6.76442">
        <ele>396</ele>
        <time>2015-05-25T07:28:23.000Z</time>
      </trkpt>
      <trkpt lat="47.50194" lon="6.7643">
        <ele>396</ele>
        <time>2015-05-25T07:28:24.000Z</time>
      </trkpt>
      <trkpt lat="47.50192" lon="6.76417">
        <ele>392</ele>
        <time>2015-05-25T07:28:25.000Z</time>
      </trkpt>
      <trkpt lat="47.50188" lon="6.76405">
        <ele>392</ele>
        <time>2015-05-25T07:28:26.000Z</time>
      </trkpt>
      <trkpt lat="47.50185" lon="6.76394">
        <ele>392</ele>
        <time>2015-05-25T07:28:27.000Z</time>
      </trkpt>
      <trkpt lat="47.50182" lon="6.76382">
        <ele>391</ele>
        <time>2015-05-25T07:28:28.000Z</time>
      </trkpt>
      <trkpt lat="47.50177" lon="6.76371">
        <ele>391</ele>
        <time>2015-05-25T07:28:29.000Z</time>
      </trkpt>
      <trkpt lat="47.50174" lon="6.76359">
        <ele>390</ele>
        <time>2015-05-25T07:28:30.000Z</time>
      </trkpt>
      <trkpt lat="47.50171" lon="6.76348">
        <ele>390</ele>
        <time>2015-05-25T07:28:31.000Z</time>
      </trkpt>
      <trkpt lat="47.50169" lon="6.76336">
        <ele>391</ele>
        <time>2015-05-25T07:28:32.000Z</time>
      </trkpt>
      <trkpt lat="47.50166" lon="6.76325">
        <ele>393</ele>
        <time>2015-05-25T07:28:33.000Z</time>
      </trkpt>
      <trkpt lat="47.50163" lon="6.76315">
        <ele>394</ele>
        <time>2015-05-25T07:28:34.000Z</time>
      </trkpt>
      <trkpt lat="47.50161" lon="6.76303">
        <ele>394</ele>
        <time>2015-05-25T07:28:35.000Z</time>
      </trkpt>
      <trkpt lat="47.50161" lon="6.76292">
        <ele>394</ele>
        <time>2015-05-25T07:28:36.000Z</time>
      </trkpt>
      <trkpt lat="47.50159" lon="6.76279">
        <ele>393</ele>
        <time>2015-05-25T07:28:37.000Z</time>
      </trkpt>
      <trkpt lat="47.50156" lon="6.76268">
        <ele>392</ele>
        <time>2015-05-25T07:28:38.000Z</time>
      </trkpt>
      <trkpt lat="47.50154" lon="6.76257">
        <ele>391</ele>
        <time>2015-05-25T07:28:39.000Z</time>
      </trkpt>
      <trkpt lat="47.50151" lon="6.76245">
        <ele>388</ele>
        <time>2015-05-25T07:28:40.000Z</time>
      </trkpt>
      <trkpt lat="47.5015" lon="6.76234">
        <ele>389</ele>
        <time>2015-05-25T07:28:41.000Z</time>
      </trkpt>
      <trkpt lat="47.50148" lon="6.76223">
        <ele>389</ele>
        <time>2015-05-25T07:28:42.000Z</time>
      </trkpt>
      <trkpt lat="47.50147" lon="6.76209">
        <ele>388</ele>
        <time>2015-05-25T07:28:43.000Z</time>
      </trkpt>
      <trkpt lat="47.50145" lon="6.76195">
        <ele>387</ele>
        <time>2015-05-25T07:28:44.000Z</time>
      </trkpt>
      <trkpt lat="47.50143" lon="6.76182">
        <ele>386</ele>
        <time>2015-05-25T07:28:45.000Z</time>
      </trkpt>
      <trkpt lat="47.50141" lon="6.76169">
        <ele>386</ele>
        <time>2015-05-25T07:28:46.000Z</time>
      </trkpt>
      <trkpt lat="47.50138" lon="6.76153">
        <ele>383</ele>
        <time>2015-05-25T07:28:47.000Z</time>
      </trkpt>
      <trkpt lat="47.50138" lon="6.7614">
        <ele>383</ele>
        <time>2015-05-25T07:28:48.000Z</time>
      </trkpt>
      <trkpt lat="47.50138" lon="6.76127">
        <ele>383</ele>
        <time>2015-05-25T07:28:49.000Z</time>
      </trkpt>
      <trkpt lat="47.50133" lon="6.76117">
        <ele>383</ele>
        <time>2015-05-25T07:28:50.000Z</time>
      </trkpt>
      <trkpt lat="47.50132" lon="6.76103">
        <ele>383</ele>
        <time>2015-05-25T07:28:51.000Z</time>
      </trkpt>
      <trkpt lat="47.50128" lon="6.76091">
        <ele>383</ele>
        <time>2015-05-25T07:28:52.000Z</time>
      </trkpt>
      <trkpt lat="47.50127" lon="6.76078">
        <ele>379</ele>
        <time>2015-05-25T07:28:53.000Z</time>
      </trkpt>
      <trkpt lat="47.50125" lon="6.76066">
        <ele>379</ele>
        <time>2015-05-25T07:28:54.000Z</time>
      </trkpt>
      <trkpt lat="47.50123" lon="6.76054">
        <ele>379</ele>
        <time>2015-05-25T07:28:55.000Z</time>
      </trkpt>
      <trkpt lat="47.50119" lon="6.76041">
        <ele>379</ele>
        <time>2015-05-25T07:28:56.000Z</time>
      </trkpt>
      <trkpt lat="47.50116" lon="6.76027">
        <ele>379</ele>
        <time>2015-05-25T07:28:57.000Z</time>
      </trkpt>
      <trkpt lat="47.50113" lon="6.76013">
        <ele>378</ele>
        <time>2015-05-25T07:28:58.000Z</time>
      </trkpt>
      <trkpt lat="47.50109" lon="6.75998">
        <ele>375</ele>
        <time>2015-05-25T07:28:59.000Z</time>
      </trkpt>
      <trkpt lat="47.50104" lon="6.75984">
        <ele>375</ele>
        <time>2015-05-25T07:29:00.000Z</time>
      </trkpt>
      <trkpt lat="47.50102" lon="6.75972">
        <ele>374</ele>
        <time>2015-05-25T07:29:01.000Z</time>
      </trkpt>
      <trkpt lat="47.50097" lon="6.75961">
        <ele>374</ele>
        <time>2015-05-25T07:29:02.000Z</time>
      </trkpt>
      <trkpt lat="47.5009" lon="6.75952">
        <ele>373</ele>
        <time>2015-05-25T07:29:03.000Z</time>
      </trkpt>
      <trkpt lat="47.50085" lon="6.7594">
        <ele>373</ele>
        <time>2015-05-25T07:29:04.000Z</time>
      </trkpt>
      <trkpt lat="47.5008" lon="6.75931">
        <ele>376</ele>
        <time>2015-05-25T07:29:05.000Z</time>
      </trkpt>
      <trkpt lat="47.50074" lon="6.75921">
        <ele>376</ele>
        <time>2015-05-25T07:29:06.000Z</time>
      </trkpt>
      <trkpt lat="47.5007" lon="6.75911">
        <ele>375</ele>
        <time>2015-05-25T07:29:07.000Z</time>
      </trkpt>
      <trkpt lat="47.50064" lon="6.759">
        <ele>375</ele>
        <time>2015-05-25T07:29:08.000Z</time>
      </trkpt>
      <trkpt lat="47.50062" lon="6.7589">
        <ele>375</ele>
        <time>2015-05-25T07:29:09.000Z</time>
      </trkpt>
      <trkpt lat="47.50056" lon="6.75881">
        <ele>376</ele>
        <time>2015-05-25T07:29:10.000Z</time>
      </trkpt>
      <trkpt lat="47.50049" lon="6.75871">
        <ele>376</ele>
        <time>2015-05-25T07:29:11.000Z</time>
      </trkpt>
      <trkpt lat="47.50043" lon="6.75862">
        <ele>376</ele>
        <time>2015-05-25T07:29:12.000Z</time>
      </trkpt>
      <trkpt lat="47.50038" lon="6.75853">
        <ele>376</ele>
        <time>2015-05-25T07:29:13.000Z</time>
      </trkpt>
      <trkpt lat="47.50035" lon="6.75841">
        <ele>376</ele>
        <time>2015-05-25T07:29:14.000Z</time>
      </trkpt>
      <trkpt lat="47.50031" lon="6.75831">
        <ele>375</ele>
        <time>2015-05-25T07:29:15.000Z</time>
      </trkpt>
      <trkpt lat="47.50024" lon="6.75821">
        <ele>376</ele>
        <time>2015-05-25T07:29:16.000Z</time>
      </trkpt>
      <trkpt lat="47.50018" lon="6.7581">
        <ele>376</ele>
        <time>2015-05-25T07:29:17.000Z</time>
      </trkpt>
      <trkpt lat="47.50013" lon="6.758">
        <ele>375</ele>
        <time>2015-05-25T07:29:18.000Z</time>
      </trkpt>
      <trkpt lat="47.50009" lon="6.75793">
        <ele>375</ele>
        <time>2015-05-25T07:29:19.000Z</time>
      </trkpt>
      <trkpt lat="47.50003" lon="6.7578">
        <ele>375</ele>
        <time>2015-05-25T07:29:20.000Z</time>
      </trkpt>
      <trkpt lat="47.49998" lon="6.75767">
        <ele>376</ele>
        <time>2015-05-25T07:29:21.000Z</time>
      </trkpt>
      <trkpt lat="47.49992" lon="6.75756">
        <ele>376</ele>
        <time>2015-05-25T07:29:22.000Z</time>
      </trkpt>
      <trkpt lat="47.49985" lon="6.75745">
        <ele>374</ele>
        <time>2015-05-25T07:29:23.000Z</time>
      </trkpt>
      <trkpt lat="47.49975" lon="6.75734">
        <ele>372</ele>
        <time>2015-05-25T07:29:24.000Z</time>
      </trkpt>
      <trkpt lat="47.49967" lon="6.75728">
        <ele>371</ele>
        <time>2015-05-25T07:29:25.000Z</time>
      </trkpt>
      <trkpt lat="47.49959" lon="6.7572">
        <ele>371</ele>
        <time>2015-05-25T07:29:26.000Z</time>
      </trkpt>
      <trkpt lat="47.49951" lon="6.75711">
        <ele>370</ele>
        <time>2015-05-25T07:29:27.000Z</time>
      </trkpt>
      <trkpt lat="47.49943" lon="6.75705">
        <ele>370</ele>
        <time>2015-05-25T07:29:28.000Z</time>
      </trkpt>
      <trkpt lat="47.49934" lon="6.75704">
        <ele>370</ele>
        <time>2015-05-25T07:29:29.000Z</time>
      </trkpt>
      <trkpt lat="47.49925" lon="6.75702">
        <ele>370</ele>
        <time>2015-05-25T07:29:30.000Z</time>
      </trkpt>
      <trkpt lat="47.49914" lon="6.75703">
        <ele>365</ele>
        <time>2015-05-25T07:29:31.000Z</time>
      </trkpt>
      <trkpt lat="47.49903" lon="6.75706">
        <ele>364</ele>
        <time>2015-05-25T07:29:32.000Z</time>
      </trkpt>
      <trkpt lat="47.4989" lon="6.75711">
        <ele>364</ele>
        <time>2015-05-25T07:29:33.000Z</time>
      </trkpt>
      <trkpt lat="47.49878" lon="6.75715">
        <ele>363</ele>
        <time>2015-05-25T07:29:34.000Z</time>
      </trkpt>
      <trkpt lat="47.49867" lon="6.75717">
        <ele>362</ele>
        <time>2015-05-25T07:29:35.000Z</time>
      </trkpt>
      <trkpt lat="47.49856" lon="6.75719">
        <ele>361</ele>
        <time>2015-05-25T07:29:36.000Z</time>
      </trkpt>
      <trkpt lat="47.49846" lon="6.75721">
        <ele>361</ele>
        <time>2015-05-25T07:29:37.000Z</time>
      </trkpt>
      <trkpt lat="47.49834" lon="6.75724">
        <ele>361</ele>
        <time>2015-05-25T07:29:38.000Z</time>
      </trkpt>
      <trkpt lat="47.49823" lon="6.75727">
        <ele>354</ele>
        <time>2015-05-25T07:29:39.000Z</time>
      </trkpt>
      <trkpt lat="47.49812" lon="6.7573">
        <ele>353</ele>
        <time>2015-05-25T07:29:40.000Z</time>
      </trkpt>
      <trkpt lat="47.49803" lon="6.75734">
        <ele>353</ele>
        <time>2015-05-25T07:29:41.000Z</time>
      </trkpt>
      <trkpt lat="47.49786" lon="6.75742">
        <ele>352</ele>
        <time>2015-05-25T07:29:42.000Z</time>
      </trkpt>
      <trkpt lat="47.49776" lon="6.75744">
        <ele>351</ele>
        <time>2015-05-25T07:29:43.000Z</time>
      </trkpt>
      <trkpt lat="47.49764" lon="6.7575">
        <ele>351</ele>
        <time>2015-05-25T07:29:44.000Z</time>
      </trkpt>
      <trkpt lat="47.49754" lon="6.75752">
        <ele>353</ele>
        <time>2015-05-25T07:29:45.000Z</time>
      </trkpt>
      <trkpt lat="47.49744" lon="6.75756">
        <ele>352</ele>
        <time>2015-05-25T07:29:46.000Z</time>
      </trkpt>
      <trkpt lat="47.49734" lon="6.75759">
        <ele>353</ele>
        <time>2015-05-25T07:29:47.000Z</time>
      </trkpt>
      <trkpt lat="47.49725" lon="6.7576">
        <ele>353</ele>
        <time>2015-05-25T07:29:48.000Z</time>
      </trkpt>
      <trkpt lat="47.49716" lon="6.75763">
        <ele>353</ele>
        <time>2015-05-25T07:29:49.000Z</time>
      </trkpt>
      <trkpt lat="47.49707" lon="6.75767">
        <ele>353</ele>
        <time>2015-05-25T07:29:50.000Z</time>
      </trkpt>
      <trkpt lat="47.497" lon="6.75768">
        <ele>352</ele>
        <time>2015-05-25T07:29:51.000Z</time>
      </trkpt>
      <trkpt lat="47.49691" lon="6.7577">
        <ele>352</ele>
        <time>2015-05-25T07:29:52.000Z</time>
      </trkpt>
      <trkpt lat="47.49686" lon="6.7577">
        <ele>351</ele>
        <time>2015-05-25T07:29:53.000Z</time>
      </trkpt>
      <trkpt lat="47.49678" lon="6.75769">
        <ele>350</ele>
        <time>2015-05-25T07:29:54.000Z</time>
      </trkpt>
      <trkpt lat="47.4967" lon="6.75768">
        <ele>350</ele>
        <time>2015-05-25T07:29:55.000Z</time>
      </trkpt>
      <trkpt lat="47.49662" lon="6.75766">
        <ele>345</ele>
        <time>2015-05-25T07:29:56.000Z</time>
      </trkpt>
      <trkpt lat="47.49653" lon="6.75763">
        <ele>345</ele>
        <time>2015-05-25T07:29:57.000Z</time>
      </trkpt>
      <trkpt lat="47.49645" lon="6.75763">
        <ele>345</ele>
        <time>2015-05-25T07:29:58.000Z</time>
      </trkpt>
      <trkpt lat="47.49636" lon="6.75763">
        <ele>345</ele>
        <time>2015-05-25T07:29:59.000Z</time>
      </trkpt>
      <trkpt lat="47.49629" lon="6.75765">
        <ele>344</ele>
        <time>2015-05-25T07:30:00.000Z</time>
      </trkpt>
      <trkpt lat="47.49622" lon="6.75764">
        <ele>344</ele>
        <time>2015-05-25T07:30:01.000Z</time>
      </trkpt>
      <trkpt lat="47.49615" lon="6.75764">
        <ele>343</ele>
        <time>2015-05-25T07:30:02.000Z</time>
      </trkpt>
      <trkpt lat="47.49604" lon="6.75764">
        <ele>342</ele>
        <time>2015-05-25T07:30:03.000Z</time>
      </trkpt>
      <trkpt lat="47.49597" lon="6.75762">
        <ele>340</ele>
        <time>2015-05-25T07:30:04.000Z</time>
      </trkpt>
      <trkpt lat="47.49591" lon="6.75758">
        <ele>339</ele>
        <time>2015-05-25T07:30:05.000Z</time>
      </trkpt>
      <trkpt lat="47.49587" lon="6.75755">
        <ele>337</ele>
        <time>2015-05-25T07:30:06.000Z</time>
      </trkpt>
      <trkpt lat="47.49582" lon="6.75751">
        <ele>334</ele>
        <time>2015-05-25T07:30:07.000Z</time>
      </trkpt>
      <trkpt lat="47.49584" lon="6.75746">
        <ele>334</ele>
        <time>2015-05-25T07:30:13.000Z</time>
      </trkpt>
      <trkpt lat="47.49587" lon="6.75744">
        <ele>333</ele>
        <time>2015-05-25T07:30:14.000Z</time>
      </trkpt>
      <trkpt lat="47.49591" lon="6.75741">
        <ele>333</ele>
        <time>2015-05-25T07:30:15.000Z</time>
      </trkpt>
      <trkpt lat="47.49595" lon="6.75736">
        <ele>333</ele>
        <time>2015-05-25T07:30:16.000Z</time>
      </trkpt>
      <trkpt lat="47.49599" lon="6.75731">
        <ele>332</ele>
        <time>2015-05-25T07:30:17.000Z</time>
      </trkpt>
      <trkpt lat="47.496" lon="6.75722">
        <ele>332</ele>
        <time>2015-05-25T07:30:18.000Z</time>
      </trkpt>
      <trkpt lat="47.49604" lon="6.75715">
        <ele>331</ele>
        <time>2015-05-25T07:30:19.000Z</time>
      </trkpt>
      <trkpt lat="47.49607" lon="6.75708">
        <ele>331</ele>
        <time>2015-05-25T07:30:20.000Z</time>
      </trkpt>
      <trkpt lat="47.49608" lon="6.75699">
        <ele>330</ele>
        <time>2015-05-25T07:30:21.000Z</time>
      </trkpt>
      <trkpt lat="47.49606" lon="6.75691">
        <ele>329</ele>
        <time>2015-05-25T07:30:22.000Z</time>
      </trkpt>
      <trkpt lat="47.49602" lon="6.75684">
        <ele>328</ele>
        <time>2015-05-25T07:30:23.000Z</time>
      </trkpt>
      <trkpt lat="47.49597" lon="6.75678">
        <ele>326</ele>
        <time>2015-05-25T07:30:24.000Z</time>
      </trkpt>
      <trkpt lat="47.49593" lon="6.75672">
        <ele>325</ele>
        <time>2015-05-25T07:30:25.000Z</time>
      </trkpt>
      <trkpt lat="47.49589" lon="6.75666">
        <ele>321</ele>
        <time>2015-05-25T07:30:26.000Z</time>
      </trkpt>
      <trkpt lat="47.49583" lon="6.75664">
        <ele>321</ele>
        <time>2015-05-25T07:30:27.000Z</time>
      </trkpt>
      <trkpt lat="47.49578" lon="6.75668">
        <ele>322</ele>
        <time>2015-05-25T07:30:28.000Z</time>
      </trkpt>
      <trkpt lat="47.49574" lon="6.75673">
        <ele>323</ele>
        <time>2015-05-25T07:30:29.000Z</time>
      </trkpt>
      <trkpt lat="47.4957" lon="6.75678">
        <ele>323</ele>
        <time>2015-05-25T07:30:30.000Z</time>
      </trkpt>
      <trkpt lat="47.49566" lon="6.75683">
        <ele>324</ele>
        <time>2015-05-25T07:30:31.000Z</time>
      </trkpt>
      <trkpt lat="47.49563" lon="6.75689">
        <ele>324</ele>
        <time>2015-05-25T07:30:32.000Z</time>
      </trkpt>
      <trkpt lat="47.49559" lon="6.75695">
        <ele>325</ele>
        <time>2015-05-25T07:30:33.000Z</time>
      </trkpt>
      <trkpt lat="47.49555" lon="6.75699">
        <ele>325</ele>
        <time>2015-05-25T07:30:34.000Z</time>
      </trkpt>
      <trkpt lat="47.4955" lon="6.75702">
        <ele>325</ele>
        <time>2015-05-25T07:30:35.000Z</time>
      </trkpt>
      <trkpt lat="47.49546" lon="6.75705">
        <ele>325</ele>
        <time>2015-05-25T07:30:36.000Z</time>
      </trkpt>
      <trkpt lat="47.49542" lon="6.75709">
        <ele>325</ele>
        <time>2015-05-25T07:30:37.000Z</time>
      </trkpt>
      <trkpt lat="47.49537" lon="6.75711">
        <ele>325</ele>
        <time>2015-05-25T07:30:38.000Z</time>
      </trkpt>
      <trkpt lat="47.49532" lon="6.75715">
        <ele>325</ele>
        <time>2015-05-25T07:30:39.000Z</time>
      </trkpt>
      <trkpt lat="47.49527" lon="6.75718">
        <ele>325</ele>
        <time>2015-05-25T07:30:40.000Z</time>
      </trkpt>
      <trkpt lat="47.49522" lon="6.75721">
        <ele>325</ele>
        <time>2015-05-25T07:30:41.000Z</time>
      </trkpt>
      <trkpt lat="47.49517" lon="6.75724">
        <ele>325</ele>
        <time>2015-05-25T07:30:42.000Z</time>
      </trkpt>
      <trkpt lat="47.49513" lon="6.75726">
        <ele>325</ele>
        <time>2015-05-25T07:30:43.000Z</time>
      </trkpt>
      <trkpt lat="47.49508" lon="6.7573">
        <ele>325</ele>
        <time>2015-05-25T07:30:44.000Z</time>
      </trkpt>
      <trkpt lat="47.49504" lon="6.75731">
        <ele>325</ele>
        <time>2015-05-25T07:30:45.000Z</time>
      </trkpt>
      <trkpt lat="47.495" lon="6.75732">
        <ele>322</ele>
        <time>2015-05-25T07:30:46.000Z</time>
      </trkpt>
      <trkpt lat="47.49495" lon="6.75731">
        <ele>322</ele>
        <time>2015-05-25T07:30:47.000Z</time>
      </trkpt>
      <trkpt lat="47.49492" lon="6.75724">
        <ele>322</ele>
        <time>2015-05-25T07:30:48.000Z</time>
      </trkpt>
      <trkpt lat="47.49491" lon="6.75717">
        <ele>322</ele>
        <time>2015-05-25T07:30:49.000Z</time>
      </trkpt>
      <trkpt lat="47.49489" lon="6.75711">
        <ele>322</ele>
        <time>2015-05-25T07:30:50.000Z</time>
      </trkpt>
      <trkpt lat="47.49487" lon="6.75704">
        <ele>321</ele>
        <time>2015-05-25T07:30:51.000Z</time>
      </trkpt>
      <trkpt lat="47.49484" lon="6.75699">
        <ele>321</ele>
        <time>2015-05-25T07:30:52.000Z</time>
      </trkpt>
      <trkpt lat="47.49481" lon="6.75694">
        <ele>321</ele>
        <time>2015-05-25T07:30:53.000Z</time>
      </trkpt>
      <trkpt lat="47.49477" lon="6.75691">
        <ele>321</ele>
        <time>2015-05-25T07:30:54.000Z</time>
      </trkpt>
      <trkpt lat="47.49474" lon="6.75688">
        <ele>321</ele>
        <time>2015-05-25T07:30:55.000Z</time>
      </trkpt>
      <trkpt lat="47.4947" lon="6.75688">
        <ele>321</ele>
        <time>2015-05-25T07:30:56.000Z</time>
      </trkpt>
      <trkpt lat="47.49465" lon="6.7569">
        <ele>321</ele>
        <time>2015-05-25T07:30:57.000Z</time>
      </trkpt>
      <trkpt lat="47.49461" lon="6.75694">
        <ele>321</ele>
        <time>2015-05-25T07:30:58.000Z</time>
      </trkpt>
      <trkpt lat="47.49457" lon="6.75694">
        <ele>321</ele>
        <time>2015-05-25T07:30:59.000Z</time>
      </trkpt>
      <trkpt lat="47.49455" lon="6.7569">
        <ele>321</ele>
        <time>2015-05-25T07:31:00.000Z</time>
      </trkpt>
      <trkpt lat="47.49451" lon="6.75685">
        <ele>321</ele>
        <time>2015-05-25T07:31:01.000Z</time>
      </trkpt>
      <trkpt lat="47.49449" lon="6.75678">
        <ele>320</ele>
        <time>2015-05-25T07:31:02.000Z</time>
      </trkpt>
      <trkpt lat="47.49446" lon="6.75671">
        <ele>320</ele>
        <time>2015-05-25T07:31:03.000Z</time>
      </trkpt>
      <trkpt lat="47.49443" lon="6.75666">
        <ele>320</ele>
        <time>2015-05-25T07:31:04.000Z</time>
      </trkpt>
      <trkpt lat="47.49439" lon="6.75664">
        <ele>320</ele>
        <time>2015-05-25T07:31:05.000Z</time>
      </trkpt>
      <trkpt lat="47.49434" lon="6.75668">
        <ele>320</ele>
        <time>2015-05-25T07:31:06.000Z</time>
      </trkpt>
      <trkpt lat="47.4943" lon="6.7567">
        <ele>320</ele>
        <time>2015-05-25T07:31:07.000Z</time>
      </trkpt>
      <trkpt lat="47.49428" lon="6.75674">
        <ele>320</ele>
        <time>2015-05-25T07:31:08.000Z</time>
      </trkpt>
      <trkpt lat="47.49424" lon="6.75677">
        <ele>320</ele>
        <time>2015-05-25T07:31:09.000Z</time>
      </trkpt>
      <trkpt lat="47.49419" lon="6.75679">
        <ele>320</ele>
        <time>2015-05-25T07:31:10.000Z</time>
      </trkpt>
      <trkpt lat="47.49414" lon="6.75681">
        <ele>319</ele>
        <time>2015-05-25T07:31:11.000Z</time>
      </trkpt>
      <trkpt lat="47.4941" lon="6.75683">
        <ele>319</ele>
        <time>2015-05-25T07:31:12.000Z</time>
      </trkpt>
      <trkpt lat="47.49407" lon="6.75687">
        <ele>319</ele>
        <time>2015-05-25T07:31:13.000Z</time>
      </trkpt>
      <trkpt lat="47.49402" lon="6.7569">
        <ele>319</ele>
        <time>2015-05-25T07:31:14.000Z</time>
      </trkpt>
      <trkpt lat="47.49398" lon="6.75693">
        <ele>319</ele>
        <time>2015-05-25T07:31:15.000Z</time>
      </trkpt>
      <trkpt lat="47.49394" lon="6.75696">
        <ele>319</ele>
        <time>2015-05-25T07:31:16.000Z</time>
      </trkpt>
      <trkpt lat="47.49391" lon="6.75699">
        <ele>319</ele>
        <time>2015-05-25T07:31:17.000Z</time>
      </trkpt>
      <trkpt lat="47.49388" lon="6.75701">
        <ele>319</ele>
        <time>2015-05-25T07:31:18.000Z</time>
      </trkpt>
      <trkpt lat="47.49384" lon="6.75705">
        <ele>319</ele>
        <time>2015-05-25T07:31:19.000Z</time>
      </trkpt>
      <trkpt lat="47.49382" lon="6.75708">
        <ele>319</ele>
        <time>2015-05-25T07:31:20.000Z</time>
      </trkpt>
      <trkpt lat="47.49377" lon="6.75711">
        <ele>319</ele>
        <time>2015-05-25T07:31:21.000Z</time>
      </trkpt>
      <trkpt lat="47.49374" lon="6.75715">
        <ele>319</ele>
        <time>2015-05-25T07:31:29.000Z</time>
      </trkpt>
      <trkpt lat="47.49372" lon="6.75715">
        <ele>319</ele>
        <time>2015-05-25T07:31:30.000Z</time>
      </trkpt>
      <trkpt lat="47.4937" lon="6.75716">
        <ele>319</ele>
        <time>2015-05-25T07:31:31.000Z</time>
      </trkpt>
      <trkpt lat="47.49367" lon="6.75717">
        <ele>319</ele>
        <time>2015-05-25T07:31:32.000Z</time>
      </trkpt>
      <trkpt lat="47.49363" lon="6.75718">
        <ele>319</ele>
        <time>2015-05-25T07:31:33.000Z</time>
      </trkpt>
      <trkpt lat="47.49359" lon="6.7572">
        <ele>319</ele>
        <time>2015-05-25T07:31:34.000Z</time>
      </trkpt>
      <trkpt lat="47.49355" lon="6.75722">
        <ele>319</ele>
        <time>2015-05-25T07:31:35.000Z</time>
      </trkpt>
      <trkpt lat="47.49346" lon="6.7573">
        <ele>318</ele>
        <time>2015-05-25T07:31:36.000Z</time>
      </trkpt>
      <trkpt lat="47.4934" lon="6.75734">
        <ele>318</ele>
        <time>2015-05-25T07:31:37.000Z</time>
      </trkpt>
      <trkpt lat="47.49335" lon="6.75741">
        <ele>318</ele>
        <time>2015-05-25T07:31:38.000Z</time>
      </trkpt>
      <trkpt lat="47.49331" lon="6.75746">
        <ele>318</ele>
        <time>2015-05-25T07:31:39.000Z</time>
      </trkpt>
      <trkpt lat="47.49326" lon="6.75749">
        <ele>318</ele>
        <time>2015-05-25T07:31:40.000Z</time>
      </trkpt>
      <trkpt lat="47.49321" lon="6.75754">
        <ele>318</ele>
        <time>2015-05-25T07:31:41.000Z</time>
      </trkpt>
      <trkpt lat="47.49318" lon="6.75761">
        <ele>318</ele>
        <time>2015-05-25T07:31:42.000Z</time>
      </trkpt>
      <trkpt lat="47.49315" lon="6.75765">
        <ele>318</ele>
        <time>2015-05-25T07:31:43.000Z</time>
      </trkpt>
      <trkpt lat="47.49311" lon="6.7577">
        <ele>318</ele>
        <time>2015-05-25T07:31:44.000Z</time>
      </trkpt>
      <trkpt lat="47.49306" lon="6.75775">
        <ele>318</ele>
        <time>2015-05-25T07:31:45.000Z</time>
      </trkpt>
      <trkpt lat="47.49302" lon="6.75781">
        <ele>318</ele>
        <time>2015-05-25T07:31:46.000Z</time>
      </trkpt>
      <trkpt lat="47.49296" lon="6.75788">
        <ele>318</ele>
        <time>2015-05-25T07:31:47.000Z</time>
      </trkpt>
      <trkpt lat="47.4929" lon="6.75793">
        <ele>318</ele>
        <time>2015-05-25T07:31:48.000Z</time>
      </trkpt>
      <trkpt lat="47.49285" lon="6.758">
        <ele>318</ele>
        <time>2015-05-25T07:31:49.000Z</time>
      </trkpt>
      <trkpt lat="47.4928" lon="6.75805">
        <ele>317</ele>
        <time>2015-05-25T07:31:50.000Z</time>
      </trkpt>
      <trkpt lat="47.49275" lon="6.75811">
        <ele>317</ele>
        <time>2015-05-25T07:31:51.000Z</time>
      </trkpt>
      <trkpt lat="47.49272" lon="6.7582">
        <ele>317</ele>
        <time>2015-05-25T07:31:52.000Z</time>
      </trkpt>
      <trkpt lat="47.49268" lon="6.75827">
        <ele>316</ele>
        <time>2015-05-25T07:31:53.000Z</time>
      </trkpt>
      <trkpt lat="47.49265" lon="6.75834">
        <ele>316</ele>
        <time>2015-05-25T07:31:54.000Z</time>
      </trkpt>
      <trkpt lat="47.4926" lon="6.75841">
        <ele>316</ele>
        <time>2015-05-25T07:31:55.000Z</time>
      </trkpt>
      <trkpt lat="47.49256" lon="6.7585">
        <ele>317</ele>
        <time>2015-05-25T07:31:56.000Z</time>
      </trkpt>
      <trkpt lat="47.49252" lon="6.75857">
        <ele>317</ele>
        <time>2015-05-25T07:31:57.000Z</time>
      </trkpt>
      <trkpt lat="47.49248" lon="6.75864">
        <ele>317</ele>
        <time>2015-05-25T07:31:58.000Z</time>
      </trkpt>
      <trkpt lat="47.49244" lon="6.75869">
        <ele>318</ele>
        <time>2015-05-25T07:31:59.000Z</time>
      </trkpt>
      <trkpt lat="47.49238" lon="6.75874">
        <ele>318</ele>
        <time>2015-05-25T07:32:00.000Z</time>
      </trkpt>
      <trkpt lat="47.49235" lon="6.7588">
        <ele>318</ele>
        <time>2015-05-25T07:32:01.000Z</time>
      </trkpt>
      <trkpt lat="47.49231" lon="6.75887">
        <ele>318</ele>
        <time>2015-05-25T07:32:02.000Z</time>
      </trkpt>
      <trkpt lat="47.49228" lon="6.75896">
        <ele>318</ele>
        <time>2015-05-25T07:32:03.000Z</time>
      </trkpt>
      <trkpt lat="47.49225" lon="6.75903">
        <ele>318</ele>
        <time>2015-05-25T07:32:04.000Z</time>
      </trkpt>
      <trkpt lat="47.49222" lon="6.75909">
        <ele>319</ele>
        <time>2015-05-25T07:32:05.000Z</time>
      </trkpt>
      <trkpt lat="47.4922" lon="6.75915">
        <ele>319</ele>
        <time>2015-05-25T07:32:06.000Z</time>
      </trkpt>
      <trkpt lat="47.49217" lon="6.75923">
        <ele>320</ele>
        <time>2015-05-25T07:32:07.000Z</time>
      </trkpt>
      <trkpt lat="47.49214" lon="6.75931">
        <ele>320</ele>
        <time>2015-05-25T07:32:08.000Z</time>
      </trkpt>
      <trkpt lat="47.4921" lon="6.75938">
        <ele>320</ele>
        <time>2015-05-25T07:32:09.000Z</time>
      </trkpt>
      <trkpt lat="47.49205" lon="6.75946">
        <ele>320</ele>
        <time>2015-05-25T07:32:10.000Z</time>
      </trkpt>
      <trkpt lat="47.49201" lon="6.75954">
        <ele>320</ele>
        <time>2015-05-25T07:32:11.000Z</time>
      </trkpt>
      <trkpt lat="47.49199" lon="6.75963">
        <ele>320</ele>
        <time>2015-05-25T07:32:12.000Z</time>
      </trkpt>
      <trkpt lat="47.49195" lon="6.7597">
        <ele>320</ele>
        <time>2015-05-25T07:32:13.000Z</time>
      </trkpt>
      <trkpt lat="47.49192" lon="6.75978">
        <ele>320</ele>
        <time>2015-05-25T07:32:14.000Z</time>
      </trkpt>
      <trkpt lat="47.49188" lon="6.75987">
        <ele>320</ele>
        <time>2015-05-25T07:32:15.000Z</time>
      </trkpt>
      <trkpt lat="47.49183" lon="6.75993">
        <ele>320</ele>
        <time>2015-05-25T07:32:16.000Z</time>
      </trkpt>
      <trkpt lat="47.49178" lon="6.75999">
        <ele>320</ele>
        <time>2015-05-25T07:32:17.000Z</time>
      </trkpt>
      <trkpt lat="47.49176" lon="6.76009">
        <ele>320</ele>
        <time>2015-05-25T07:32:18.000Z</time>
      </trkpt>
      <trkpt lat="47.49173" lon="6.76015">
        <ele>320</ele>
        <time>2015-05-25T07:32:19.000Z</time>
      </trkpt>
      <trkpt lat="47.49171" lon="6.76023">
        <ele>320</ele>
        <time>2015-05-25T07:32:20.000Z</time>
      </trkpt>
      <trkpt lat="47.49167" lon="6.76031">
        <ele>320</ele>
        <time>2015-05-25T07:32:21.000Z</time>
      </trkpt>
      <trkpt lat="47.49163" lon="6.7604">
        <ele>322</ele>
        <time>2015-05-25T07:32:22.000Z</time>
      </trkpt>
      <trkpt lat="47.49159" lon="6.76049">
        <ele>322</ele>
        <time>2015-05-25T07:32:23.000Z</time>
      </trkpt>
      <trkpt lat="47.49155" lon="6.76058">
        <ele>322</ele>
        <time>2015-05-25T07:32:24.000Z</time>
      </trkpt>
      <trkpt lat="47.49151" lon="6.76064">
        <ele>322</ele>
        <time>2015-05-25T07:32:25.000Z</time>
      </trkpt>
      <trkpt lat="47.49149" lon="6.76071">
        <ele>322</ele>
        <time>2015-05-25T07:32:26.000Z</time>
      </trkpt>
      <trkpt lat="47.49147" lon="6.76078">
        <ele>322</ele>
        <time>2015-05-25T07:32:27.000Z</time>
      </trkpt>
      <trkpt lat="47.49143" lon="6.76088">
        <ele>321</ele>
        <time>2015-05-25T07:32:28.000Z</time>
      </trkpt>
      <trkpt lat="47.4914" lon="6.76098">
        <ele>321</ele>
        <time>2015-05-25T07:32:29.000Z</time>
      </trkpt>
      <trkpt lat="47.49138" lon="6.76106">
        <ele>322</ele>
        <time>2015-05-25T07:32:30.000Z</time>
      </trkpt>
      <trkpt lat="47.49136" lon="6.76117">
        <ele>322</ele>
        <time>2015-05-25T07:32:31.000Z</time>
      </trkpt>
      <trkpt lat="47.49133" lon="6.76126">
        <ele>322</ele>
        <time>2015-05-25T07:32:32.000Z</time>
      </trkpt>
      <trkpt lat="47.49131" lon="6.76136">
        <ele>322</ele>
        <time>2015-05-25T07:32:33.000Z</time>
      </trkpt>
      <trkpt lat="47.4913" lon="6.76143">
        <ele>322</ele>
        <time>2015-05-25T07:32:34.000Z</time>
      </trkpt>
      <trkpt lat="47.49128" lon="6.76152">
        <ele>322</ele>
        <time>2015-05-25T07:32:35.000Z</time>
      </trkpt>
      <trkpt lat="47.49128" lon="6.76164">
        <ele>322</ele>
        <time>2015-05-25T07:32:36.000Z</time>
      </trkpt>
      <trkpt lat="47.49128" lon="6.76176">
        <ele>321</ele>
        <time>2015-05-25T07:32:37.000Z</time>
      </trkpt>
      <trkpt lat="47.49129" lon="6.76187">
        <ele>321</ele>
        <time>2015-05-25T07:32:38.000Z</time>
      </trkpt>
      <trkpt lat="47.49129" lon="6.76197">
        <ele>321</ele>
        <time>2015-05-25T07:32:39.000Z</time>
      </trkpt>
      <trkpt lat="47.4913" lon="6.76206">
        <ele>321</ele>
        <time>2015-05-25T07:32:40.000Z</time>
      </trkpt>
      <trkpt lat="47.49129" lon="6.76216">
        <ele>321</ele>
        <time>2015-05-25T07:32:41.000Z</time>
      </trkpt>
      <trkpt lat="47.49128" lon="6.76225">
        <ele>321</ele>
        <time>2015-05-25T07:32:41.998Z</time>
      </trkpt>
      <trkpt lat="47.49129" lon="6.76237">
        <ele>321</ele>
        <time>2015-05-25T07:32:43.000Z</time>
      </trkpt>
      <trkpt lat="47.49129" lon="6.76247">
        <ele>321</ele>
        <time>2015-05-25T07:32:44.000Z</time>
      </trkpt>
      <trkpt lat="47.49129" lon="6.76255">
        <ele>320</ele>
        <time>2015-05-25T07:32:45.000Z</time>
      </trkpt>
      <trkpt lat="47.49128" lon="6.76261">
        <ele>320</ele>
        <time>2015-05-25T07:32:46.000Z</time>
      </trkpt>
      <trkpt lat="47.49127" lon="6.76265">
        <ele>320</ele>
        <time>2015-05-25T07:32:47.000Z</time>
      </trkpt>
      <trkpt lat="47.49126" lon="6.76272">
        <ele>320</ele>
        <time>2015-05-25T07:32:48.000Z</time>
      </trkpt>
      <trkpt lat="47.49125" lon="6.76282">
        <ele>320</ele>
        <time>2015-05-25T07:32:49.000Z</time>
      </trkpt>
      <trkpt lat="47.49127" lon="6.7629">
        <ele>319</ele>
        <time>2015-05-25T07:32:50.000Z</time>
      </trkpt>
      <trkpt lat="47.49129" lon="6.76301">
        <ele>319</ele>
        <time>2015-05-25T07:32:51.000Z</time>
      </trkpt>
      <trkpt lat="47.49129" lon="6.76313">
        <ele>319</ele>
        <time>2015-05-25T07:32:52.000Z</time>
      </trkpt>
      <trkpt lat="47.49129" lon="6.76321">
        <ele>319</ele>
        <time>2015-05-25T07:32:53.000Z</time>
      </trkpt>
      <trkpt lat="47.49129" lon="6.76331">
        <ele>319</ele>
        <time>2015-05-25T07:32:54.000Z</time>
      </trkpt>
      <trkpt lat="47.49129" lon="6.76343">
        <ele>318</ele>
        <time>2015-05-25T07:32:55.000Z</time>
      </trkpt>
      <trkpt lat="47.49129" lon="6.76354">
        <ele>318</ele>
        <time>2015-05-25T07:32:56.000Z</time>
      </trkpt>
      <trkpt lat="47.4913" lon="6.76363">
        <ele>318</ele>
        <time>2015-05-25T07:32:57.000Z</time>
      </trkpt>
      <trkpt lat="47.49126" lon="6.76372">
        <ele>318</ele>
        <time>2015-05-25T07:32:58.000Z</time>
      </trkpt>
      <trkpt lat="47.49126" lon="6.76381">
        <ele>318</ele>
        <time>2015-05-25T07:32:59.000Z</time>
      </trkpt>
      <trkpt lat="47.49129" lon="6.7639">
        <ele>317</ele>
        <time>2015-05-25T07:33:00.000Z</time>
      </trkpt>
      <trkpt lat="47.4913" lon="6.76398">
        <ele>317</ele>
        <time>2015-05-25T07:33:01.000Z</time>
      </trkpt>
      <trkpt lat="47.49129" lon="6.76407">
        <ele>317</ele>
        <time>2015-05-25T07:33:02.000Z</time>
      </trkpt>
      <trkpt lat="47.4913" lon="6.76418">
        <ele>317</ele>
        <time>2015-05-25T07:33:03.000Z</time>
      </trkpt>
      <trkpt lat="47.4913" lon="6.76427">
        <ele>317</ele>
        <time>2015-05-25T07:33:04.000Z</time>
      </trkpt>
      <trkpt lat="47.49129" lon="6.76437">
        <ele>317</ele>
        <time>2015-05-25T07:33:05.000Z</time>
      </trkpt>
      <trkpt lat="47.4913" lon="6.76446">
        <ele>317</ele>
        <time>2015-05-25T07:33:06.000Z</time>
      </trkpt>
      <trkpt lat="47.4913" lon="6.76455">
        <ele>317</ele>
        <time>2015-05-25T07:33:07.000Z</time>
      </trkpt>
      <trkpt lat="47.49129" lon="6.76464">
        <ele>317</ele>
        <time>2015-05-25T07:33:08.000Z</time>
      </trkpt>
      <trkpt lat="47.49127" lon="6.76474">
        <ele>317</ele>
        <time>2015-05-25T07:33:09.000Z</time>
      </trkpt>
      <trkpt lat="47.49126" lon="6.76482">
        <ele>317</ele>
        <time>2015-05-25T07:33:10.000Z</time>
      </trkpt>
      <trkpt lat="47.49125" lon="6.76492">
        <ele>317</ele>
        <time>2015-05-25T07:33:11.000Z</time>
      </trkpt>
      <trkpt lat="47.49125" lon="6.76502">
        <ele>316</ele>
        <time>2015-05-25T07:33:12.000Z</time>
      </trkpt>
      <trkpt lat="47.49128" lon="6.76513">
        <ele>316</ele>
        <time>2015-05-25T07:33:13.000Z</time>
      </trkpt>
      <trkpt lat="47.49135" lon="6.76521">
        <ele>316</ele>
        <time>2015-05-25T07:33:14.000Z</time>
      </trkpt>
      <trkpt lat="47.49141" lon="6.76527">
        <ele>315</ele>
        <time>2015-05-25T07:33:15.000Z</time>
      </trkpt>
      <trkpt lat="47.49148" lon="6.76525">
        <ele>315</ele>
        <time>2015-05-25T07:33:16.000Z</time>
      </trkpt>
      <trkpt lat="47.49154" lon="6.76523">
        <ele>315</ele>
        <time>2015-05-25T07:33:17.000Z</time>
      </trkpt>
      <trkpt lat="47.49159" lon="6.76519">
        <ele>314</ele>
        <time>2015-05-25T07:33:18.000Z</time>
      </trkpt>
      <trkpt lat="47.49164" lon="6.76514">
        <ele>314</ele>
        <time>2015-05-25T07:33:19.000Z</time>
      </trkpt>
      <trkpt lat="47.49168" lon="6.76513">
        <ele>314</ele>
        <time>2015-05-25T07:33:20.000Z</time>
      </trkpt>
      <trkpt lat="47.49172" lon="6.76512">
        <ele>315</ele>
        <time>2015-05-25T07:33:21.000Z</time>
      </trkpt>
      <trkpt lat="47.49174" lon="6.7651">
        <ele>315</ele>
        <time>2015-05-25T07:33:22.000Z</time>
      </trkpt>
      <trkpt lat="47.49177" lon="6.76509">
        <ele>315</ele>
        <time>2015-05-25T07:33:23.000Z</time>
      </trkpt>
      <trkpt lat="47.49179" lon="6.76506">
        <ele>315</ele>
        <time>2015-05-25T07:33:24.000Z</time>
      </trkpt>
      <trkpt lat="47.49181" lon="6.76504">
        <ele>315</ele>
        <time>2015-05-25T07:33:25.000Z</time>
      </trkpt>
      <trkpt lat="47.49182" lon="6.765">
        <ele>315</ele>
        <time>2015-05-25T07:33:26.000Z</time>
      </trkpt>
      <trkpt lat="47.49183" lon="6.76496">
        <ele>315</ele>
        <time>2015-05-25T07:33:27.000Z</time>
      </trkpt>
      <trkpt lat="47.49182" lon="6.76492">
        <ele>315</ele>
        <time>2015-05-25T07:33:28.000Z</time>
      </trkpt>
      <trkpt lat="47.49181" lon="6.76489">
        <ele>316</ele>
        <time>2015-05-25T07:33:29.000Z</time>
      </trkpt>
      <trkpt lat="47.49179" lon="6.76484">
        <ele>316</ele>
        <time>2015-05-25T07:33:31.000Z</time>
      </trkpt>
      <trkpt lat="47.49178" lon="6.76482">
        <ele>316</ele>
        <time>2015-05-25T07:33:32.000Z</time>
      </trkpt>
      <trkpt lat="47.49181" lon="6.76478">
        <ele>316</ele>
        <time>2015-05-25T07:35:53.000Z</time>
      </trkpt>
      <trkpt lat="47.49182" lon="6.76478">
        <ele>316</ele>
        <time>2015-05-25T07:35:54.000Z</time>
      </trkpt>
      <trkpt lat="47.49184" lon="6.7648">
        <ele>316</ele>
        <time>2015-05-25T07:35:56.000Z</time>
      </trkpt>
      <trkpt lat="47.49186" lon="6.76483">
        <ele>316</ele>
        <time>2015-05-25T07:35:57.000Z</time>
      </trkpt>
      <trkpt lat="47.49187" lon="6.76486">
        <ele>316</ele>
        <time>2015-05-25T07:35:58.000Z</time>
      </trkpt>
      <trkpt lat="47.49188" lon="6.7649">
        <ele>316</ele>
        <time>2015-05-25T07:35:59.000Z</time>
      </trkpt>
      <trkpt lat="47.49189" lon="6.76494">
        <ele>316</ele>
        <time>2015-05-25T07:36:00.000Z</time>
      </trkpt>
      <trkpt lat="47.49189" lon="6.76497">
        <ele>316</ele>
        <time>2015-05-25T07:36:01.000Z</time>
      </trkpt>
      <trkpt lat="47.49188" lon="6.76503">
        <ele>315</ele>
        <time>2015-05-25T07:36:03.000Z</time>
      </trkpt>
      <trkpt lat="47.49186" lon="6.76505">
        <ele>315</ele>
        <time>2015-05-25T07:36:04.000Z</time>
      </trkpt>
      <trkpt lat="47.49183" lon="6.76507">
        <ele>315</ele>
        <time>2015-05-25T07:36:05.000Z</time>
      </trkpt>
      <trkpt lat="47.4918" lon="6.76508">
        <ele>315</ele>
        <time>2015-05-25T07:36:06.000Z</time>
      </trkpt>
      <trkpt lat="47.49177" lon="6.76509">
        <ele>315</ele>
        <time>2015-05-25T07:36:07.000Z</time>
      </trkpt>
      <trkpt lat="47.49174" lon="6.76511">
        <ele>315</ele>
        <time>2015-05-25T07:36:08.000Z</time>
      </trkpt>
      <trkpt lat="47.4917" lon="6.76513">
        <ele>315</ele>
        <time>2015-05-25T07:36:09.000Z</time>
      </trkpt>
      <trkpt lat="47.49161" lon="6.76516">
        <ele>314</ele>
        <time>2015-05-25T07:36:10.000Z</time>
      </trkpt>
      <trkpt lat="47.49156" lon="6.76519">
        <ele>315</ele>
        <time>2015-05-25T07:36:11.000Z</time>
      </trkpt>
      <trkpt lat="47.4915" lon="6.76521">
        <ele>315</ele>
        <time>2015-05-25T07:36:12.000Z</time>
      </trkpt>
      <trkpt lat="47.49145" lon="6.76522">
        <ele>315</ele>
        <time>2015-05-25T07:36:13.000Z</time>
      </trkpt>
      <trkpt lat="47.49139" lon="6.76522">
        <ele>315</ele>
        <time>2015-05-25T07:36:14.000Z</time>
      </trkpt>
      <trkpt lat="47.49134" lon="6.76522">
        <ele>316</ele>
        <time>2015-05-25T07:36:15.000Z</time>
      </trkpt>
      <trkpt lat="47.49129" lon="6.7652">
        <ele>316</ele>
        <time>2015-05-25T07:36:16.000Z</time>
      </trkpt>
      <trkpt lat="47.49127" lon="6.76512">
        <ele>316</ele>
        <time>2015-05-25T07:36:17.000Z</time>
      </trkpt>
      <trkpt lat="47.49126" lon="6.76506">
        <ele>316</ele>
        <time>2015-05-25T07:36:18.000Z</time>
      </trkpt>
      <trkpt lat="47.49125" lon="6.76499">
        <ele>317</ele>
        <time>2015-05-25T07:36:19.000Z</time>
      </trkpt>
      <trkpt lat="47.49126" lon="6.76492">
        <ele>317</ele>
        <time>2015-05-25T07:36:20.000Z</time>
      </trkpt>
      <trkpt lat="47.49127" lon="6.76486">
        <ele>317</ele>
        <time>2015-05-25T07:36:21.000Z</time>
      </trkpt>
      <trkpt lat="47.49127" lon="6.7648">
        <ele>317</ele>
        <time>2015-05-25T07:36:22.000Z</time>
      </trkpt>
      <trkpt lat="47.49127" lon="6.76473">
        <ele>317</ele>
        <time>2015-05-25T07:36:23.000Z</time>
      </trkpt>
      <trkpt lat="47.49126" lon="6.76466">
        <ele>317</ele>
        <time>2015-05-25T07:36:24.000Z</time>
      </trkpt>
      <trkpt lat="47.49127" lon="6.76461">
        <ele>317</ele>
        <time>2015-05-25T07:36:25.000Z</time>
      </trkpt>
      <trkpt lat="47.49127" lon="6.76454">
        <ele>317</ele>
        <time>2015-05-25T07:36:26.000Z</time>
      </trkpt>
      <trkpt lat="47.49127" lon="6.76449">
        <ele>317</ele>
        <time>2015-05-25T07:36:27.000Z</time>
      </trkpt>
      <trkpt lat="47.49128" lon="6.76445">
        <ele>317</ele>
        <time>2015-05-25T07:36:28.000Z</time>
      </trkpt>
      <trkpt lat="47.49127" lon="6.7644">
        <ele>317</ele>
        <time>2015-05-25T07:36:30.000Z</time>
      </trkpt>
      <trkpt lat="47.49128" lon="6.76436">
        <ele>317</ele>
        <time>2015-05-25T07:36:31.000Z</time>
      </trkpt>
      <trkpt lat="47.49123" lon="6.76432">
        <ele>317</ele>
        <time>2015-05-25T07:36:32.000Z</time>
      </trkpt>
      <trkpt lat="47.49121" lon="6.7643">
        <ele>317</ele>
        <time>2015-05-25T07:36:33.000Z</time>
      </trkpt>
      <trkpt lat="47.49119" lon="6.76428">
        <ele>317</ele>
        <time>2015-05-25T07:36:34.000Z</time>
      </trkpt>
      <trkpt lat="47.49117" lon="6.76427">
        <ele>318</ele>
        <time>2015-05-25T07:36:35.000Z</time>
      </trkpt>
      <trkpt lat="47.49114" lon="6.76427">
        <ele>318</ele>
        <time>2015-05-25T07:36:36.000Z</time>
      </trkpt>
      <trkpt lat="47.49111" lon="6.76426">
        <ele>318</ele>
        <time>2015-05-25T07:36:37.000Z</time>
      </trkpt>
      <trkpt lat="47.49108" lon="6.76425">
        <ele>318</ele>
        <time>2015-05-25T07:36:38.000Z</time>
      </trkpt>
      <trkpt lat="47.49105" lon="6.76424">
        <ele>318</ele>
        <time>2015-05-25T07:36:39.000Z</time>
      </trkpt>
      <trkpt lat="47.49103" lon="6.76421">
        <ele>319</ele>
        <time>2015-05-25T07:36:40.000Z</time>
      </trkpt>
      <trkpt lat="47.49102" lon="6.76417">
        <ele>319</ele>
        <time>2015-05-25T07:36:41.000Z</time>
      </trkpt>
      <trkpt lat="47.49102" lon="6.76412">
        <ele>319</ele>
        <time>2015-05-25T07:36:42.000Z</time>
      </trkpt>
      <trkpt lat="47.49103" lon="6.76406">
        <ele>319</ele>
        <time>2015-05-25T07:36:43.000Z</time>
      </trkpt>
      <trkpt lat="47.49104" lon="6.764">
        <ele>319</ele>
        <time>2015-05-25T07:36:44.000Z</time>
      </trkpt>
      <trkpt lat="47.49105" lon="6.76395">
        <ele>319</ele>
        <time>2015-05-25T07:36:45.000Z</time>
      </trkpt>
      <trkpt lat="47.49106" lon="6.76391">
        <ele>319</ele>
        <time>2015-05-25T07:36:46.000Z</time>
      </trkpt>
      <trkpt lat="47.49106" lon="6.76386">
        <ele>319</ele>
        <time>2015-05-25T07:36:47.000Z</time>
      </trkpt>
      <trkpt lat="47.49106" lon="6.7638">
        <ele>319</ele>
        <time>2015-05-25T07:36:48.000Z</time>
      </trkpt>
      <trkpt lat="47.49105" lon="6.7637">
        <ele>319</ele>
        <time>2015-05-25T07:36:49.000Z</time>
      </trkpt>
      <trkpt lat="47.49104" lon="6.76363">
        <ele>319</ele>
        <time>2015-05-25T07:36:50.000Z</time>
      </trkpt>
      <trkpt lat="47.49106" lon="6.76357">
        <ele>319</ele>
        <time>2015-05-25T07:36:51.000Z</time>
      </trkpt>
      <trkpt lat="47.49106" lon="6.76351">
        <ele>319</ele>
        <time>2015-05-25T07:36:52.000Z</time>
      </trkpt>
      <trkpt lat="47.49106" lon="6.76347">
        <ele>319</ele>
        <time>2015-05-25T07:36:53.000Z</time>
      </trkpt>
      <trkpt lat="47.49106" lon="6.7634">
        <ele>320</ele>
        <time>2015-05-25T07:36:54.000Z</time>
      </trkpt>
      <trkpt lat="47.49105" lon="6.76335">
        <ele>320</ele>
        <time>2015-05-25T07:36:55.000Z</time>
      </trkpt>
      <trkpt lat="47.49103" lon="6.76333">
        <ele>321</ele>
        <time>2015-05-25T07:36:56.000Z</time>
      </trkpt>
      <trkpt lat="47.49103" lon="6.76328">
        <ele>321</ele>
        <time>2015-05-25T07:36:57.000Z</time>
      </trkpt>
      <trkpt lat="47.49102" lon="6.76322">
        <ele>321</ele>
        <time>2015-05-25T07:36:58.000Z</time>
      </trkpt>
      <trkpt lat="47.491" lon="6.76317">
        <ele>321</ele>
        <time>2015-05-25T07:36:59.000Z</time>
      </trkpt>
      <trkpt lat="47.491" lon="6.76311">
        <ele>321</ele>
        <time>2015-05-25T07:37:00.000Z</time>
      </trkpt>
      <trkpt lat="47.49099" lon="6.76304">
        <ele>321</ele>
        <time>2015-05-25T07:37:01.000Z</time>
      </trkpt>
      <trkpt lat="47.49098" lon="6.76296">
        <ele>321</ele>
        <time>2015-05-25T07:37:02.000Z</time>
      </trkpt>
      <trkpt lat="47.49098" lon="6.76288">
        <ele>321</ele>
        <time>2015-05-25T07:37:03.000Z</time>
      </trkpt>
      <trkpt lat="47.49098" lon="6.76281">
        <ele>321</ele>
        <time>2015-05-25T07:37:04.000Z</time>
      </trkpt>
      <trkpt lat="47.49098" lon="6.76273">
        <ele>321</ele>
        <time>2015-05-25T07:37:05.000Z</time>
      </trkpt>
      <trkpt lat="47.49098" lon="6.76267">
        <ele>322</ele>
        <time>2015-05-25T07:37:06.000Z</time>
      </trkpt>
      <trkpt lat="47.49098" lon="6.7626">
        <ele>322</ele>
        <time>2015-05-25T07:37:07.000Z</time>
      </trkpt>
      <trkpt lat="47.49099" lon="6.76253">
        <ele>322</ele>
        <time>2015-05-25T07:37:08.000Z</time>
      </trkpt>
      <trkpt lat="47.49099" lon="6.76245">
        <ele>323</ele>
        <time>2015-05-25T07:37:09.000Z</time>
      </trkpt>
      <trkpt lat="47.49099" lon="6.76238">
        <ele>323</ele>
        <time>2015-05-25T07:37:10.000Z</time>
      </trkpt>
      <trkpt lat="47.491" lon="6.76231">
        <ele>322</ele>
        <time>2015-05-25T07:37:11.000Z</time>
      </trkpt>
      <trkpt lat="47.49096" lon="6.76216">
        <ele>322</ele>
        <time>2015-05-25T07:37:12.000Z</time>
      </trkpt>
      <trkpt lat="47.49094" lon="6.7621">
        <ele>322</ele>
        <time>2015-05-25T07:37:12.998Z</time>
      </trkpt>
      <trkpt lat="47.49091" lon="6.76203">
        <ele>322</ele>
        <time>2015-05-25T07:37:14.000Z</time>
      </trkpt>
      <trkpt lat="47.49091" lon="6.76196">
        <ele>322</ele>
        <time>2015-05-25T07:37:15.000Z</time>
      </trkpt>
      <trkpt lat="47.4909" lon="6.76192">
        <ele>322</ele>
        <time>2015-05-25T07:37:16.000Z</time>
      </trkpt>
      <trkpt lat="47.49091" lon="6.76186">
        <ele>323</ele>
        <time>2015-05-25T07:37:17.000Z</time>
      </trkpt>
      <trkpt lat="47.49093" lon="6.76179">
        <ele>323</ele>
        <time>2015-05-25T07:37:18.000Z</time>
      </trkpt>
      <trkpt lat="47.49094" lon="6.76174">
        <ele>323</ele>
        <time>2015-05-25T07:37:19.000Z</time>
      </trkpt>
      <trkpt lat="47.49094" lon="6.76169">
        <ele>323</ele>
        <time>2015-05-25T07:37:20.000Z</time>
      </trkpt>
      <trkpt lat="47.49094" lon="6.76167">
        <ele>323</ele>
        <time>2015-05-25T07:37:21.000Z</time>
      </trkpt>
      <trkpt lat="47.49094" lon="6.76162">
        <ele>323</ele>
        <time>2015-05-25T07:37:22.000Z</time>
      </trkpt>
      <trkpt lat="47.49094" lon="6.76158">
        <ele>323</ele>
        <time>2015-05-25T07:37:23.000Z</time>
      </trkpt>
      <trkpt lat="47.49094" lon="6.76154">
        <ele>323</ele>
        <time>2015-05-25T07:37:24.000Z</time>
      </trkpt>
      <trkpt lat="47.49094" lon="6.76148">
        <ele>323</ele>
        <time>2015-05-25T07:37:25.000Z</time>
      </trkpt>
      <trkpt lat="47.49094" lon="6.76144">
        <ele>323</ele>
        <time>2015-05-25T07:37:26.000Z</time>
      </trkpt>
      <trkpt lat="47.49094" lon="6.76138">
        <ele>323</ele>
        <time>2015-05-25T07:37:27.000Z</time>
      </trkpt>
      <trkpt lat="47.49095" lon="6.76133">
        <ele>323</ele>
        <time>2015-05-25T07:37:28.000Z</time>
      </trkpt>
      <trkpt lat="47.49096" lon="6.76127">
        <ele>323</ele>
        <time>2015-05-25T07:37:29.000Z</time>
      </trkpt>
      <trkpt lat="47.49097" lon="6.76122">
        <ele>323</ele>
        <time>2015-05-25T07:37:30.000Z</time>
      </trkpt>
      <trkpt lat="47.49098" lon="6.76116">
        <ele>324</ele>
        <time>2015-05-25T07:37:31.000Z</time>
      </trkpt>
      <trkpt lat="47.49099" lon="6.76111">
        <ele>324</ele>
        <time>2015-05-25T07:37:32.000Z</time>
      </trkpt>
      <trkpt lat="47.49099" lon="6.76106">
        <ele>324</ele>
        <time>2015-05-25T07:37:33.000Z</time>
      </trkpt>
      <trkpt lat="47.49099" lon="6.76101">
        <ele>324</ele>
        <time>2015-05-25T07:37:34.000Z</time>
      </trkpt>
      <trkpt lat="47.49101" lon="6.76095">
        <ele>325</ele>
        <time>2015-05-25T07:37:35.000Z</time>
      </trkpt>
      <trkpt lat="47.49101" lon="6.76089">
        <ele>325</ele>
        <time>2015-05-25T07:37:36.000Z</time>
      </trkpt>
      <trkpt lat="47.49101" lon="6.76083">
        <ele>325</ele>
        <time>2015-05-25T07:37:37.000Z</time>
      </trkpt>
      <trkpt lat="47.491" lon="6.76078">
        <ele>326</ele>
        <time>2015-05-25T07:37:38.000Z</time>
      </trkpt>
      <trkpt lat="47.49099" lon="6.76073">
        <ele>326</ele>
        <time>2015-05-25T07:37:39.000Z</time>
      </trkpt>
      <trkpt lat="47.49097" lon="6.76066">
        <ele>326</ele>
        <time>2015-05-25T07:37:40.000Z</time>
      </trkpt>
      <trkpt lat="47.49097" lon="6.7606">
        <ele>326</ele>
        <time>2015-05-25T07:37:41.000Z</time>
      </trkpt>
      <trkpt lat="47.49097" lon="6.76054">
        <ele>326</ele>
        <time>2015-05-25T07:37:42.000Z</time>
      </trkpt>
      <trkpt lat="47.49098" lon="6.76049">
        <ele>326</ele>
        <time>2015-05-25T07:37:43.000Z</time>
      </trkpt>
      <trkpt lat="47.49099" lon="6.76044">
        <ele>326</ele>
        <time>2015-05-25T07:37:44.000Z</time>
      </trkpt>
      <trkpt lat="47.49101" lon="6.7604">
        <ele>326</ele>
        <time>2015-05-25T07:37:45.000Z</time>
      </trkpt>
      <trkpt lat="47.49104" lon="6.76035">
        <ele>326</ele>
        <time>2015-05-25T07:37:46.000Z</time>
      </trkpt>
      <trkpt lat="47.49107" lon="6.7603">
        <ele>326</ele>
        <time>2015-05-25T07:37:47.000Z</time>
      </trkpt>
      <trkpt lat="47.49109" lon="6.76025">
        <ele>326</ele>
        <time>2015-05-25T07:37:48.000Z</time>
      </trkpt>
      <trkpt lat="47.49111" lon="6.76021">
        <ele>326</ele>
        <time>2015-05-25T07:37:49.000Z</time>
      </trkpt>
      <trkpt lat="47.49113" lon="6.76017">
        <ele>326</ele>
        <time>2015-05-25T07:37:50.000Z</time>
      </trkpt>
      <trkpt lat="47.49119" lon="6.76007">
        <ele>326</ele>
        <time>2015-05-25T07:37:51.000Z</time>
      </trkpt>
      <trkpt lat="47.4912" lon="6.76">
        <ele>328</ele>
        <time>2015-05-25T07:37:52.000Z</time>
      </trkpt>
      <trkpt lat="47.49119" lon="6.75995">
        <ele>328</ele>
        <time>2015-05-25T07:37:53.000Z</time>
      </trkpt>
      <trkpt lat="47.49119" lon="6.7599">
        <ele>328</ele>
        <time>2015-05-25T07:37:54.000Z</time>
      </trkpt>
      <trkpt lat="47.49121" lon="6.75985">
        <ele>328</ele>
        <time>2015-05-25T07:37:55.000Z</time>
      </trkpt>
      <trkpt lat="47.49123" lon="6.75979">
        <ele>328</ele>
        <time>2015-05-25T07:37:56.000Z</time>
      </trkpt>
      <trkpt lat="47.49125" lon="6.7597">
        <ele>328</ele>
        <time>2015-05-25T07:37:57.000Z</time>
      </trkpt>
      <trkpt lat="47.49125" lon="6.75963">
        <ele>328</ele>
        <time>2015-05-25T07:37:58.000Z</time>
      </trkpt>
      <trkpt lat="47.49127" lon="6.75958">
        <ele>328</ele>
        <time>2015-05-25T07:37:59.000Z</time>
      </trkpt>
      <trkpt lat="47.49131" lon="6.75955">
        <ele>328</ele>
        <time>2015-05-25T07:38:00.000Z</time>
      </trkpt>
      <trkpt lat="47.49133" lon="6.75951">
        <ele>328</ele>
        <time>2015-05-25T07:38:01.000Z</time>
      </trkpt>
      <trkpt lat="47.49135" lon="6.75948">
        <ele>328</ele>
        <time>2015-05-25T07:38:02.000Z</time>
      </trkpt>
      <trkpt lat="47.49138" lon="6.75944">
        <ele>327</ele>
        <time>2015-05-25T07:38:04.000Z</time>
      </trkpt>
      <trkpt lat="47.4914" lon="6.75942">
        <ele>327</ele>
        <time>2015-05-25T07:38:05.000Z</time>
      </trkpt>
      <trkpt lat="47.49141" lon="6.75937">
        <ele>327</ele>
        <time>2015-05-25T07:38:07.000Z</time>
      </trkpt>
      <trkpt lat="47.49141" lon="6.75931">
        <ele>327</ele>
        <time>2015-05-25T07:38:08.000Z</time>
      </trkpt>
      <trkpt lat="47.49142" lon="6.75925">
        <ele>327</ele>
        <time>2015-05-25T07:38:09.000Z</time>
      </trkpt>
      <trkpt lat="47.49143" lon="6.75919">
        <ele>327</ele>
        <time>2015-05-25T07:38:10.000Z</time>
      </trkpt>
      <trkpt lat="47.49144" lon="6.75913">
        <ele>329</ele>
        <time>2015-05-25T07:38:11.000Z</time>
      </trkpt>
      <trkpt lat="47.49146" lon="6.75907">
        <ele>329</ele>
        <time>2015-05-25T07:38:12.000Z</time>
      </trkpt>
      <trkpt lat="47.49148" lon="6.759">
        <ele>329</ele>
        <time>2015-05-25T07:38:13.000Z</time>
      </trkpt>
      <trkpt lat="47.4915" lon="6.75892">
        <ele>330</ele>
        <time>2015-05-25T07:38:14.000Z</time>
      </trkpt>
      <trkpt lat="47.49153" lon="6.75884">
        <ele>330</ele>
        <time>2015-05-25T07:38:15.000Z</time>
      </trkpt>
      <trkpt lat="47.49155" lon="6.75877">
        <ele>330</ele>
        <time>2015-05-25T07:38:16.000Z</time>
      </trkpt>
      <trkpt lat="47.49162" lon="6.75859">
        <ele>330</ele>
        <time>2015-05-25T07:38:17.000Z</time>
      </trkpt>
      <trkpt lat="47.49165" lon="6.75851">
        <ele>329</ele>
        <time>2015-05-25T07:38:18.000Z</time>
      </trkpt>
      <trkpt lat="47.49167" lon="6.75846">
        <ele>324</ele>
        <time>2015-05-25T07:38:19.000Z</time>
      </trkpt>
      <trkpt lat="47.49169" lon="6.7584">
        <ele>324</ele>
        <time>2015-05-25T07:38:20.000Z</time>
      </trkpt>
      <trkpt lat="47.49171" lon="6.75834">
        <ele>325</ele>
        <time>2015-05-25T07:38:21.000Z</time>
      </trkpt>
      <trkpt lat="47.49174" lon="6.75829">
        <ele>325</ele>
        <time>2015-05-25T07:38:22.000Z</time>
      </trkpt>
      <trkpt lat="47.49176" lon="6.75822">
        <ele>325</ele>
        <time>2015-05-25T07:38:23.000Z</time>
      </trkpt>
      <trkpt lat="47.4918" lon="6.75809">
        <ele>325</ele>
        <time>2015-05-25T07:38:24.000Z</time>
      </trkpt>
      <trkpt lat="47.49183" lon="6.75801">
        <ele>325</ele>
        <time>2015-05-25T07:38:25.000Z</time>
      </trkpt>
      <trkpt lat="47.49186" lon="6.75794">
        <ele>325</ele>
        <time>2015-05-25T07:38:26.000Z</time>
      </trkpt>
      <trkpt lat="47.49188" lon="6.75786">
        <ele>325</ele>
        <time>2015-05-25T07:38:27.000Z</time>
      </trkpt>
      <trkpt lat="47.49189" lon="6.75779">
        <ele>326</ele>
        <time>2015-05-25T07:38:28.000Z</time>
      </trkpt>
      <trkpt lat="47.49192" lon="6.75772">
        <ele>326</ele>
        <time>2015-05-25T07:38:29.000Z</time>
      </trkpt>
      <trkpt lat="47.49194" lon="6.75764">
        <ele>326</ele>
        <time>2015-05-25T07:38:30.000Z</time>
      </trkpt>
      <trkpt lat="47.49195" lon="6.75756">
        <ele>327</ele>
        <time>2015-05-25T07:38:31.000Z</time>
      </trkpt>
      <trkpt lat="47.492" lon="6.75752">
        <ele>326</ele>
        <time>2015-05-25T07:38:32.000Z</time>
      </trkpt>
      <trkpt lat="47.492" lon="6.75746">
        <ele>331</ele>
        <time>2015-05-25T07:38:33.000Z</time>
      </trkpt>
      <trkpt lat="47.49201" lon="6.7574">
        <ele>331</ele>
        <time>2015-05-25T07:38:34.000Z</time>
      </trkpt>
      <trkpt lat="47.49202" lon="6.75736">
        <ele>331</ele>
        <time>2015-05-25T07:38:35.000Z</time>
      </trkpt>
      <trkpt lat="47.49202" lon="6.75732">
        <ele>331</ele>
        <time>2015-05-25T07:38:36.000Z</time>
      </trkpt>
      <trkpt lat="47.49205" lon="6.75726">
        <ele>331</ele>
        <time>2015-05-25T07:38:37.000Z</time>
      </trkpt>
      <trkpt lat="47.49207" lon="6.75722">
        <ele>331</ele>
        <time>2015-05-25T07:38:38.000Z</time>
      </trkpt>
      <trkpt lat="47.49209" lon="6.75717">
        <ele>331</ele>
        <time>2015-05-25T07:38:39.000Z</time>
      </trkpt>
      <trkpt lat="47.49211" lon="6.75709">
        <ele>331</ele>
        <time>2015-05-25T07:38:40.000Z</time>
      </trkpt>
      <trkpt lat="47.49212" lon="6.75703">
        <ele>331</ele>
        <time>2015-05-25T07:38:41.000Z</time>
      </trkpt>
      <trkpt lat="47.49213" lon="6.75697">
        <ele>331</ele>
        <time>2015-05-25T07:38:42.000Z</time>
      </trkpt>
      <trkpt lat="47.49214" lon="6.7569">
        <ele>331</ele>
        <time>2015-05-25T07:38:43.000Z</time>
      </trkpt>
      <trkpt lat="47.49215" lon="6.75684">
        <ele>331</ele>
        <time>2015-05-25T07:38:44.000Z</time>
      </trkpt>
      <trkpt lat="47.49216" lon="6.75677">
        <ele>331</ele>
        <time>2015-05-25T07:38:45.000Z</time>
      </trkpt>
      <trkpt lat="47.49218" lon="6.75672">
        <ele>331</ele>
        <time>2015-05-25T07:38:46.000Z</time>
      </trkpt>
      <trkpt lat="47.4922" lon="6.75666">
        <ele>335</ele>
        <time>2015-05-25T07:38:47.000Z</time>
      </trkpt>
      <trkpt lat="47.49221" lon="6.7566">
        <ele>335</ele>
        <time>2015-05-25T07:38:48.000Z</time>
      </trkpt>
      <trkpt lat="47.49223" lon="6.75654">
        <ele>335</ele>
        <time>2015-05-25T07:38:49.000Z</time>
      </trkpt>
      <trkpt lat="47.49224" lon="6.75649">
        <ele>336</ele>
        <time>2015-05-25T07:38:50.000Z</time>
      </trkpt>
      <trkpt lat="47.49226" lon="6.75642">
        <ele>336</ele>
        <time>2015-05-25T07:38:51.000Z</time>
      </trkpt>
      <trkpt lat="47.49227" lon="6.75636">
        <ele>336</ele>
        <time>2015-05-25T07:38:52.000Z</time>
      </trkpt>
      <trkpt lat="47.49229" lon="6.7563">
        <ele>337</ele>
        <time>2015-05-25T07:38:53.000Z</time>
      </trkpt>
      <trkpt lat="47.49231" lon="6.75624">
        <ele>337</ele>
        <time>2015-05-25T07:38:54.000Z</time>
      </trkpt>
      <trkpt lat="47.49232" lon="6.75618">
        <ele>337</ele>
        <time>2015-05-25T07:38:55.000Z</time>
      </trkpt>
      <trkpt lat="47.49234" lon="6.75611">
        <ele>337</ele>
        <time>2015-05-25T07:38:56.000Z</time>
      </trkpt>
      <trkpt lat="47.49236" lon="6.75604">
        <ele>337</ele>
        <time>2015-05-25T07:38:57.000Z</time>
      </trkpt>
      <trkpt lat="47.49238" lon="6.75597">
        <ele>336</ele>
        <time>2015-05-25T07:38:58.000Z</time>
      </trkpt>
      <trkpt lat="47.4924" lon="6.7559">
        <ele>336</ele>
        <time>2015-05-25T07:38:59.000Z</time>
      </trkpt>
      <trkpt lat="47.49245" lon="6.75576">
        <ele>337</ele>
        <time>2015-05-25T07:39:00.000Z</time>
      </trkpt>
      <trkpt lat="47.49248" lon="6.7557">
        <ele>339</ele>
        <time>2015-05-25T07:39:01.000Z</time>
      </trkpt>
      <trkpt lat="47.4925" lon="6.75562">
        <ele>331</ele>
        <time>2015-05-25T07:39:02.000Z</time>
      </trkpt>
      <trkpt lat="47.49252" lon="6.75554">
        <ele>331</ele>
        <time>2015-05-25T07:39:03.000Z</time>
      </trkpt>
      <trkpt lat="47.49254" lon="6.75543">
        <ele>331</ele>
        <time>2015-05-25T07:39:04.000Z</time>
      </trkpt>
      <trkpt lat="47.49255" lon="6.75534">
        <ele>332</ele>
        <time>2015-05-25T07:39:05.000Z</time>
      </trkpt>
      <trkpt lat="47.49257" lon="6.7553">
        <ele>332</ele>
        <time>2015-05-25T07:39:06.000Z</time>
      </trkpt>
      <trkpt lat="47.49258" lon="6.75526">
        <ele>333</ele>
        <time>2015-05-25T07:39:07.000Z</time>
      </trkpt>
      <trkpt lat="47.49257" lon="6.7552">
        <ele>333</ele>
        <time>2015-05-25T07:39:08.000Z</time>
      </trkpt>
      <trkpt lat="47.49259" lon="6.75515">
        <ele>334</ele>
        <time>2015-05-25T07:39:09.000Z</time>
      </trkpt>
      <trkpt lat="47.4926" lon="6.75512">
        <ele>334</ele>
        <time>2015-05-25T07:39:10.000Z</time>
      </trkpt>
      <trkpt lat="47.49261" lon="6.75504">
        <ele>335</ele>
        <time>2015-05-25T07:39:11.000Z</time>
      </trkpt>
      <trkpt lat="47.49262" lon="6.75498">
        <ele>337</ele>
        <time>2015-05-25T07:39:12.000Z</time>
      </trkpt>
      <trkpt lat="47.49263" lon="6.7549">
        <ele>337</ele>
        <time>2015-05-25T07:39:13.000Z</time>
      </trkpt>
      <trkpt lat="47.49264" lon="6.75483">
        <ele>337</ele>
        <time>2015-05-25T07:39:14.000Z</time>
      </trkpt>
      <trkpt lat="47.49265" lon="6.75478">
        <ele>336</ele>
        <time>2015-05-25T07:39:15.000Z</time>
      </trkpt>
      <trkpt lat="47.49266" lon="6.75473">
        <ele>336</ele>
        <time>2015-05-25T07:39:16.000Z</time>
      </trkpt>
      <trkpt lat="47.49266" lon="6.75467">
        <ele>336</ele>
        <time>2015-05-25T07:39:17.000Z</time>
      </trkpt>
      <trkpt lat="47.49267" lon="6.75462">
        <ele>336</ele>
        <time>2015-05-25T07:39:18.000Z</time>
      </trkpt>
      <trkpt lat="47.49267" lon="6.75456">
        <ele>337</ele>
        <time>2015-05-25T07:39:19.000Z</time>
      </trkpt>
      <trkpt lat="47.49267" lon="6.7545">
        <ele>337</ele>
        <time>2015-05-25T07:39:20.000Z</time>
      </trkpt>
      <trkpt lat="47.49268" lon="6.75445">
        <ele>337</ele>
        <time>2015-05-25T07:39:21.000Z</time>
      </trkpt>
      <trkpt lat="47.49268" lon="6.7544">
        <ele>338</ele>
        <time>2015-05-25T07:39:22.000Z</time>
      </trkpt>
      <trkpt lat="47.49269" lon="6.75436">
        <ele>338</ele>
        <time>2015-05-25T07:39:23.000Z</time>
      </trkpt>
      <trkpt lat="47.49269" lon="6.75432">
        <ele>338</ele>
        <time>2015-05-25T07:39:24.000Z</time>
      </trkpt>
      <trkpt lat="47.4927" lon="6.75428">
        <ele>338</ele>
        <time>2015-05-25T07:39:25.000Z</time>
      </trkpt>
      <trkpt lat="47.49271" lon="6.75424">
        <ele>338</ele>
        <time>2015-05-25T07:39:26.000Z</time>
      </trkpt>
      <trkpt lat="47.49273" lon="6.75421">
        <ele>338</ele>
        <time>2015-05-25T07:39:27.000Z</time>
      </trkpt>
      <trkpt lat="47.49274" lon="6.75417">
        <ele>338</ele>
        <time>2015-05-25T07:39:28.000Z</time>
      </trkpt>
      <trkpt lat="47.49276" lon="6.75412">
        <ele>340</ele>
        <time>2015-05-25T07:39:29.000Z</time>
      </trkpt>
      <trkpt lat="47.49277" lon="6.75406">
        <ele>340</ele>
        <time>2015-05-25T07:39:30.000Z</time>
      </trkpt>
      <trkpt lat="47.49279" lon="6.754">
        <ele>339</ele>
        <time>2015-05-25T07:39:31.000Z</time>
      </trkpt>
      <trkpt lat="47.4928" lon="6.75394">
        <ele>339</ele>
        <time>2015-05-25T07:39:32.000Z</time>
      </trkpt>
      <trkpt lat="47.49281" lon="6.75387">
        <ele>339</ele>
        <time>2015-05-25T07:39:33.000Z</time>
      </trkpt>
      <trkpt lat="47.49282" lon="6.75381">
        <ele>339</ele>
        <time>2015-05-25T07:39:34.000Z</time>
      </trkpt>
      <trkpt lat="47.49283" lon="6.75376">
        <ele>339</ele>
        <time>2015-05-25T07:39:35.000Z</time>
      </trkpt>
      <trkpt lat="47.49284" lon="6.75371">
        <ele>339</ele>
        <time>2015-05-25T07:39:36.000Z</time>
      </trkpt>
      <trkpt lat="47.49284" lon="6.75367">
        <ele>339</ele>
        <time>2015-05-25T07:39:37.000Z</time>
      </trkpt>
      <trkpt lat="47.49285" lon="6.75361">
        <ele>339</ele>
        <time>2015-05-25T07:39:39.000Z</time>
      </trkpt>
      <trkpt lat="47.49286" lon="6.75359">
        <ele>339</ele>
        <time>2015-05-25T07:39:40.000Z</time>
      </trkpt>
      <trkpt lat="47.49288" lon="6.75355">
        <ele>339</ele>
        <time>2015-05-25T07:39:41.000Z</time>
      </trkpt>
      <trkpt lat="47.4929" lon="6.75349">
        <ele>339</ele>
        <time>2015-05-25T07:39:42.000Z</time>
      </trkpt>
      <trkpt lat="47.49292" lon="6.75344">
        <ele>338</ele>
        <time>2015-05-25T07:39:43.000Z</time>
      </trkpt>
      <trkpt lat="47.49293" lon="6.75337">
        <ele>338</ele>
        <time>2015-05-25T07:39:44.000Z</time>
      </trkpt>
      <trkpt lat="47.49295" lon="6.75331">
        <ele>339</ele>
        <time>2015-05-25T07:39:45.000Z</time>
      </trkpt>
      <trkpt lat="47.49296" lon="6.75325">
        <ele>339</ele>
        <time>2015-05-25T07:39:46.000Z</time>
      </trkpt>
      <trkpt lat="47.49298" lon="6.75319">
        <ele>339</ele>
        <time>2015-05-25T07:39:47.000Z</time>
      </trkpt>
      <trkpt lat="47.49299" lon="6.75313">
        <ele>339</ele>
        <time>2015-05-25T07:39:48.000Z</time>
      </trkpt>
      <trkpt lat="47.49299" lon="6.75308">
        <ele>339</ele>
        <time>2015-05-25T07:39:49.000Z</time>
      </trkpt>
      <trkpt lat="47.493" lon="6.75304">
        <ele>339</ele>
        <time>2015-05-25T07:39:50.000Z</time>
      </trkpt>
      <trkpt lat="47.493" lon="6.75299">
        <ele>339</ele>
        <time>2015-05-25T07:39:51.000Z</time>
      </trkpt>
      <trkpt lat="47.493" lon="6.75295">
        <ele>339</ele>
        <time>2015-05-25T07:39:52.000Z</time>
      </trkpt>
      <trkpt lat="47.49301" lon="6.7529">
        <ele>339</ele>
        <time>2015-05-25T07:39:53.000Z</time>
      </trkpt>
      <trkpt lat="47.493" lon="6.75286">
        <ele>339</ele>
        <time>2015-05-25T07:39:54.000Z</time>
      </trkpt>
      <trkpt lat="47.493" lon="6.75282">
        <ele>339</ele>
        <time>2015-05-25T07:39:55.000Z</time>
      </trkpt>
      <trkpt lat="47.49299" lon="6.75278">
        <ele>339</ele>
        <time>2015-05-25T07:39:56.000Z</time>
      </trkpt>
      <trkpt lat="47.49299" lon="6.75275">
        <ele>339</ele>
        <time>2015-05-25T07:39:57.000Z</time>
      </trkpt>
      <trkpt lat="47.49299" lon="6.75271">
        <ele>339</ele>
        <time>2015-05-25T07:39:58.000Z</time>
      </trkpt>
      <trkpt lat="47.493" lon="6.75268">
        <ele>339</ele>
        <time>2015-05-25T07:39:59.000Z</time>
      </trkpt>
      <trkpt lat="47.49301" lon="6.75264">
        <ele>339</ele>
        <time>2015-05-25T07:40:00.000Z</time>
      </trkpt>
      <trkpt lat="47.49302" lon="6.75259">
        <ele>339</ele>
        <time>2015-05-25T07:40:01.000Z</time>
      </trkpt>
      <trkpt lat="47.49303" lon="6.75254">
        <ele>338</ele>
        <time>2015-05-25T07:40:02.000Z</time>
      </trkpt>
      <trkpt lat="47.49304" lon="6.7525">
        <ele>338</ele>
        <time>2015-05-25T07:40:03.000Z</time>
      </trkpt>
      <trkpt lat="47.49305" lon="6.75246">
        <ele>340</ele>
        <time>2015-05-25T07:40:04.000Z</time>
      </trkpt>
      <trkpt lat="47.49305" lon="6.75243">
        <ele>340</ele>
        <time>2015-05-25T07:40:05.000Z</time>
      </trkpt>
      <trkpt lat="47.49304" lon="6.75236">
        <ele>340</ele>
        <time>2015-05-25T07:40:07.000Z</time>
      </trkpt>
      <trkpt lat="47.49303" lon="6.75233">
        <ele>341</ele>
        <time>2015-05-25T07:40:08.000Z</time>
      </trkpt>
      <trkpt lat="47.49303" lon="6.75229">
        <ele>341</ele>
        <time>2015-05-25T07:40:09.000Z</time>
      </trkpt>
      <trkpt lat="47.49303" lon="6.75225">
        <ele>341</ele>
        <time>2015-05-25T07:40:10.000Z</time>
      </trkpt>
      <trkpt lat="47.49303" lon="6.7522">
        <ele>341</ele>
        <time>2015-05-25T07:40:11.000Z</time>
      </trkpt>
      <trkpt lat="47.49303" lon="6.75214">
        <ele>342</ele>
        <time>2015-05-25T07:40:12.000Z</time>
      </trkpt>
      <trkpt lat="47.49303" lon="6.75209">
        <ele>342</ele>
        <time>2015-05-25T07:40:13.000Z</time>
      </trkpt>
      <trkpt lat="47.49304" lon="6.75204">
        <ele>342</ele>
        <time>2015-05-25T07:40:14.000Z</time>
      </trkpt>
      <trkpt lat="47.49305" lon="6.75199">
        <ele>342</ele>
        <time>2015-05-25T07:40:15.000Z</time>
      </trkpt>
      <trkpt lat="47.49305" lon="6.75195">
        <ele>342</ele>
        <time>2015-05-25T07:40:16.000Z</time>
      </trkpt>
      <trkpt lat="47.49306" lon="6.7519">
        <ele>342</ele>
        <time>2015-05-25T07:40:17.000Z</time>
      </trkpt>
      <trkpt lat="47.49306" lon="6.75184">
        <ele>342</ele>
        <time>2015-05-25T07:40:18.000Z</time>
      </trkpt>
      <trkpt lat="47.49305" lon="6.75179">
        <ele>342</ele>
        <time>2015-05-25T07:40:19.000Z</time>
      </trkpt>
      <trkpt lat="47.49305" lon="6.75173">
        <ele>342</ele>
        <time>2015-05-25T07:40:20.000Z</time>
      </trkpt>
      <trkpt lat="47.49304" lon="6.75167">
        <ele>342</ele>
        <time>2015-05-25T07:40:21.000Z</time>
      </trkpt>
      <trkpt lat="47.49303" lon="6.75161">
        <ele>345</ele>
        <time>2015-05-25T07:40:22.000Z</time>
      </trkpt>
      <trkpt lat="47.49303" lon="6.75156">
        <ele>345</ele>
        <time>2015-05-25T07:40:23.000Z</time>
      </trkpt>
      <trkpt lat="47.49302" lon="6.75152">
        <ele>345</ele>
        <time>2015-05-25T07:40:24.000Z</time>
      </trkpt>
      <trkpt lat="47.49301" lon="6.75146">
        <ele>345</ele>
        <time>2015-05-25T07:40:25.000Z</time>
      </trkpt>
      <trkpt lat="47.493" lon="6.75141">
        <ele>346</ele>
        <time>2015-05-25T07:40:26.000Z</time>
      </trkpt>
      <trkpt lat="47.493" lon="6.75135">
        <ele>346</ele>
        <time>2015-05-25T07:40:27.000Z</time>
      </trkpt>
      <trkpt lat="47.493" lon="6.75129">
        <ele>346</ele>
        <time>2015-05-25T07:40:28.000Z</time>
      </trkpt>
      <trkpt lat="47.493" lon="6.75123">
        <ele>346</ele>
        <time>2015-05-25T07:40:29.000Z</time>
      </trkpt>
      <trkpt lat="47.49301" lon="6.75117">
        <ele>346</ele>
        <time>2015-05-25T07:40:30.000Z</time>
      </trkpt>
      <trkpt lat="47.49301" lon="6.75112">
        <ele>346</ele>
        <time>2015-05-25T07:40:31.000Z</time>
      </trkpt>
      <trkpt lat="47.49301" lon="6.75106">
        <ele>346</ele>
        <time>2015-05-25T07:40:32.000Z</time>
      </trkpt>
      <trkpt lat="47.49302" lon="6.75101">
        <ele>346</ele>
        <time>2015-05-25T07:40:33.000Z</time>
      </trkpt>
      <trkpt lat="47.49303" lon="6.75094">
        <ele>346</ele>
        <time>2015-05-25T07:40:34.000Z</time>
      </trkpt>
      <trkpt lat="47.49311" lon="6.75085">
        <ele>344</ele>
        <time>2015-05-25T07:40:35.000Z</time>
      </trkpt>
      <trkpt lat="47.49315" lon="6.7508">
        <ele>345</ele>
        <time>2015-05-25T07:40:36.000Z</time>
      </trkpt>
      <trkpt lat="47.4932" lon="6.75075">
        <ele>344</ele>
        <time>2015-05-25T07:40:37.000Z</time>
      </trkpt>
      <trkpt lat="47.49324" lon="6.75071">
        <ele>344</ele>
        <time>2015-05-25T07:40:38.000Z</time>
      </trkpt>
      <trkpt lat="47.49328" lon="6.75066">
        <ele>344</ele>
        <time>2015-05-25T07:40:39.000Z</time>
      </trkpt>
      <trkpt lat="47.49331" lon="6.75058">
        <ele>345</ele>
        <time>2015-05-25T07:40:40.000Z</time>
      </trkpt>
      <trkpt lat="47.49332" lon="6.75049">
        <ele>346</ele>
        <time>2015-05-25T07:40:41.000Z</time>
      </trkpt>
      <trkpt lat="47.49333" lon="6.75044">
        <ele>347</ele>
        <time>2015-05-25T07:40:42.000Z</time>
      </trkpt>
      <trkpt lat="47.49336" lon="6.75035">
        <ele>339</ele>
        <time>2015-05-25T07:40:43.000Z</time>
      </trkpt>
      <trkpt lat="47.49336" lon="6.7503">
        <ele>340</ele>
        <time>2015-05-25T07:40:44.000Z</time>
      </trkpt>
      <trkpt lat="47.49337" lon="6.75027">
        <ele>340</ele>
        <time>2015-05-25T07:40:45.000Z</time>
      </trkpt>
      <trkpt lat="47.49337" lon="6.75024">
        <ele>340</ele>
        <time>2015-05-25T07:40:46.000Z</time>
      </trkpt>
      <trkpt lat="47.49338" lon="6.7502">
        <ele>340</ele>
        <time>2015-05-25T07:40:47.000Z</time>
      </trkpt>
      <trkpt lat="47.4934" lon="6.75016">
        <ele>341</ele>
        <time>2015-05-25T07:40:49.000Z</time>
      </trkpt>
      <trkpt lat="47.4934" lon="6.75013">
        <ele>341</ele>
        <time>2015-05-25T07:40:50.000Z</time>
      </trkpt>
      <trkpt lat="47.4934" lon="6.75006">
        <ele>341</ele>
        <time>2015-05-25T07:40:52.000Z</time>
      </trkpt>
      <trkpt lat="47.49339" lon="6.75003">
        <ele>342</ele>
        <time>2015-05-25T07:40:53.000Z</time>
      </trkpt>
      <trkpt lat="47.49339" lon="6.74998">
        <ele>342</ele>
        <time>2015-05-25T07:40:55.000Z</time>
      </trkpt>
      <trkpt lat="47.49339" lon="6.74996">
        <ele>342</ele>
        <time>2015-05-25T07:40:56.000Z</time>
      </trkpt>
      <trkpt lat="47.4934" lon="6.7499">
        <ele>342</ele>
        <time>2015-05-25T07:40:58.000Z</time>
      </trkpt>
      <trkpt lat="47.49341" lon="6.74988">
        <ele>342</ele>
        <time>2015-05-25T07:40:59.000Z</time>
      </trkpt>
      <trkpt lat="47.49341" lon="6.74982">
        <ele>342</ele>
        <time>2015-05-25T07:41:02.000Z</time>
      </trkpt>
      <trkpt lat="47.49341" lon="6.7498">
        <ele>342</ele>
        <time>2015-05-25T07:41:03.000Z</time>
      </trkpt>
      <trkpt lat="47.49341" lon="6.74973">
        <ele>342</ele>
        <time>2015-05-25T07:41:06.000Z</time>
      </trkpt>
      <trkpt lat="47.49342" lon="6.7497">
        <ele>342</ele>
        <time>2015-05-25T07:41:07.000Z</time>
      </trkpt>
      <trkpt lat="47.49344" lon="6.74965">
        <ele>342</ele>
        <time>2015-05-25T07:41:09.000Z</time>
      </trkpt>
      <trkpt lat="47.49344" lon="6.74962">
        <ele>342</ele>
        <time>2015-05-25T07:41:10.000Z</time>
      </trkpt>
      <trkpt lat="47.49345" lon="6.74956">
        <ele>342</ele>
        <time>2015-05-25T07:41:12.000Z</time>
      </trkpt>
      <trkpt lat="47.49345" lon="6.74954">
        <ele>342</ele>
        <time>2015-05-25T07:41:13.000Z</time>
      </trkpt>
      <trkpt lat="47.49346" lon="6.74949">
        <ele>342</ele>
        <time>2015-05-25T07:41:15.000Z</time>
      </trkpt>
      <trkpt lat="47.49346" lon="6.74946">
        <ele>342</ele>
        <time>2015-05-25T07:41:16.000Z</time>
      </trkpt>
      <trkpt lat="47.49347" lon="6.74942">
        <ele>343</ele>
        <time>2015-05-25T07:41:18.000Z</time>
      </trkpt>
      <trkpt lat="47.49347" lon="6.74939">
        <ele>343</ele>
        <time>2015-05-25T07:41:19.000Z</time>
      </trkpt>
      <trkpt lat="47.49348" lon="6.74933">
        <ele>343</ele>
        <time>2015-05-25T07:41:21.000Z</time>
      </trkpt>
      <trkpt lat="47.49349" lon="6.7493">
        <ele>343</ele>
        <time>2015-05-25T07:41:22.000Z</time>
      </trkpt>
      <trkpt lat="47.4935" lon="6.74925">
        <ele>344</ele>
        <time>2015-05-25T07:41:24.000Z</time>
      </trkpt>
      <trkpt lat="47.4935" lon="6.74922">
        <ele>344</ele>
        <time>2015-05-25T07:41:25.000Z</time>
      </trkpt>
      <trkpt lat="47.49351" lon="6.74919">
        <ele>344</ele>
        <time>2015-05-25T07:41:26.000Z</time>
      </trkpt>
      <trkpt lat="47.49353" lon="6.74916">
        <ele>344</ele>
        <time>2015-05-25T07:41:27.000Z</time>
      </trkpt>
      <trkpt lat="47.49355" lon="6.74913">
        <ele>344</ele>
        <time>2015-05-25T07:41:28.000Z</time>
      </trkpt>
      <trkpt lat="47.49358" lon="6.7491">
        <ele>343</ele>
        <time>2015-05-25T07:41:29.000Z</time>
      </trkpt>
      <trkpt lat="47.49359" lon="6.74907">
        <ele>343</ele>
        <time>2015-05-25T07:41:30.000Z</time>
      </trkpt>
      <trkpt lat="47.49361" lon="6.74903">
        <ele>343</ele>
        <time>2015-05-25T07:41:31.000Z</time>
      </trkpt>
      <trkpt lat="47.49362" lon="6.749">
        <ele>342</ele>
        <time>2015-05-25T07:41:32.000Z</time>
      </trkpt>
      <trkpt lat="47.49363" lon="6.74896">
        <ele>342</ele>
        <time>2015-05-25T07:41:33.000Z</time>
      </trkpt>
      <trkpt lat="47.49364" lon="6.74892">
        <ele>342</ele>
        <time>2015-05-25T07:41:34.000Z</time>
      </trkpt>
      <trkpt lat="47.49365" lon="6.74888">
        <ele>342</ele>
        <time>2015-05-25T07:41:35.000Z</time>
      </trkpt>
      <trkpt lat="47.49366" lon="6.74884">
        <ele>342</ele>
        <time>2015-05-25T07:41:36.000Z</time>
      </trkpt>
      <trkpt lat="47.49367" lon="6.74881">
        <ele>342</ele>
        <time>2015-05-25T07:41:37.000Z</time>
      </trkpt>
      <trkpt lat="47.49368" lon="6.74876">
        <ele>342</ele>
        <time>2015-05-25T07:41:38.000Z</time>
      </trkpt>
      <trkpt lat="47.4937" lon="6.74871">
        <ele>342</ele>
        <time>2015-05-25T07:41:39.000Z</time>
      </trkpt>
      <trkpt lat="47.49371" lon="6.74866">
        <ele>341</ele>
        <time>2015-05-25T07:41:40.000Z</time>
      </trkpt>
      <trkpt lat="47.49372" lon="6.7486">
        <ele>341</ele>
        <time>2015-05-25T07:41:41.000Z</time>
      </trkpt>
      <trkpt lat="47.49373" lon="6.74854">
        <ele>341</ele>
        <time>2015-05-25T07:41:42.000Z</time>
      </trkpt>
      <trkpt lat="47.49372" lon="6.74848">
        <ele>341</ele>
        <time>2015-05-25T07:41:43.000Z</time>
      </trkpt>
      <trkpt lat="47.49372" lon="6.74843">
        <ele>342</ele>
        <time>2015-05-25T07:41:44.000Z</time>
      </trkpt>
      <trkpt lat="47.49372" lon="6.74836">
        <ele>342</ele>
        <time>2015-05-25T07:41:45.000Z</time>
      </trkpt>
      <trkpt lat="47.49373" lon="6.74829">
        <ele>343</ele>
        <time>2015-05-25T07:41:46.000Z</time>
      </trkpt>
      <trkpt lat="47.49375" lon="6.74823">
        <ele>343</ele>
        <time>2015-05-25T07:41:47.000Z</time>
      </trkpt>
      <trkpt lat="47.49376" lon="6.74817">
        <ele>343</ele>
        <time>2015-05-25T07:41:48.000Z</time>
      </trkpt>
      <trkpt lat="47.49377" lon="6.74811">
        <ele>343</ele>
        <time>2015-05-25T07:41:49.000Z</time>
      </trkpt>
      <trkpt lat="47.49378" lon="6.74806">
        <ele>344</ele>
        <time>2015-05-25T07:41:50.000Z</time>
      </trkpt>
      <trkpt lat="47.49379" lon="6.74801">
        <ele>344</ele>
        <time>2015-05-25T07:41:51.000Z</time>
      </trkpt>
      <trkpt lat="47.4938" lon="6.74796">
        <ele>344</ele>
        <time>2015-05-25T07:41:52.000Z</time>
      </trkpt>
      <trkpt lat="47.4938" lon="6.74792">
        <ele>344</ele>
        <time>2015-05-25T07:41:53.000Z</time>
      </trkpt>
      <trkpt lat="47.4938" lon="6.74787">
        <ele>344</ele>
        <time>2015-05-25T07:41:54.000Z</time>
      </trkpt>
      <trkpt lat="47.4938" lon="6.74782">
        <ele>344</ele>
        <time>2015-05-25T07:41:55.000Z</time>
      </trkpt>
      <trkpt lat="47.49381" lon="6.74776">
        <ele>344</ele>
        <time>2015-05-25T07:41:56.000Z</time>
      </trkpt>
      <trkpt lat="47.49381" lon="6.74771">
        <ele>344</ele>
        <time>2015-05-25T07:41:57.000Z</time>
      </trkpt>
      <trkpt lat="47.49382" lon="6.74765">
        <ele>344</ele>
        <time>2015-05-25T07:41:58.000Z</time>
      </trkpt>
      <trkpt lat="47.49382" lon="6.74759">
        <ele>344</ele>
        <time>2015-05-25T07:41:59.000Z</time>
      </trkpt>
      <trkpt lat="47.49382" lon="6.74753">
        <ele>344</ele>
        <time>2015-05-25T07:42:00.000Z</time>
      </trkpt>
      <trkpt lat="47.49382" lon="6.74746">
        <ele>347</ele>
        <time>2015-05-25T07:42:01.000Z</time>
      </trkpt>
      <trkpt lat="47.49382" lon="6.74739">
        <ele>347</ele>
        <time>2015-05-25T07:42:02.000Z</time>
      </trkpt>
      <trkpt lat="47.49382" lon="6.74732">
        <ele>347</ele>
        <time>2015-05-25T07:42:03.000Z</time>
      </trkpt>
      <trkpt lat="47.49381" lon="6.74726">
        <ele>348</ele>
        <time>2015-05-25T07:42:04.000Z</time>
      </trkpt>
      <trkpt lat="47.49379" lon="6.74722">
        <ele>348</ele>
        <time>2015-05-25T07:42:05.000Z</time>
      </trkpt>
      <trkpt lat="47.49378" lon="6.74718">
        <ele>348</ele>
        <time>2015-05-25T07:42:06.000Z</time>
      </trkpt>
      <trkpt lat="47.49378" lon="6.74714">
        <ele>348</ele>
        <time>2015-05-25T07:42:07.000Z</time>
      </trkpt>
      <trkpt lat="47.49378" lon="6.7471">
        <ele>348</ele>
        <time>2015-05-25T07:42:08.000Z</time>
      </trkpt>
      <trkpt lat="47.49379" lon="6.74706">
        <ele>348</ele>
        <time>2015-05-25T07:42:09.000Z</time>
      </trkpt>
      <trkpt lat="47.49379" lon="6.74701">
        <ele>348</ele>
        <time>2015-05-25T07:42:10.000Z</time>
      </trkpt>
      <trkpt lat="47.49381" lon="6.74697">
        <ele>348</ele>
        <time>2015-05-25T07:42:11.000Z</time>
      </trkpt>
      <trkpt lat="47.49383" lon="6.74693">
        <ele>348</ele>
        <time>2015-05-25T07:42:12.000Z</time>
      </trkpt>
      <trkpt lat="47.49385" lon="6.7469">
        <ele>347</ele>
        <time>2015-05-25T07:42:13.000Z</time>
      </trkpt>
      <trkpt lat="47.49387" lon="6.74688">
        <ele>347</ele>
        <time>2015-05-25T07:42:14.000Z</time>
      </trkpt>
      <trkpt lat="47.49389" lon="6.74685">
        <ele>347</ele>
        <time>2015-05-25T07:42:15.000Z</time>
      </trkpt>
      <trkpt lat="47.4939" lon="6.74679">
        <ele>347</ele>
        <time>2015-05-25T07:42:20.000Z</time>
      </trkpt>
      <trkpt lat="47.4939" lon="6.74678">
        <ele>347</ele>
        <time>2015-05-25T07:42:21.000Z</time>
      </trkpt>
      <trkpt lat="47.49388" lon="6.74673">
        <ele>347</ele>
        <time>2015-05-25T07:42:28.000Z</time>
      </trkpt>
      <trkpt lat="47.49388" lon="6.74672">
        <ele>347</ele>
        <time>2015-05-25T07:42:29.000Z</time>
      </trkpt>
      <trkpt lat="47.49389" lon="6.74665">
        <ele>348</ele>
        <time>2015-05-25T07:42:34.000Z</time>
      </trkpt>
      <trkpt lat="47.49389" lon="6.74664">
        <ele>348</ele>
        <time>2015-05-25T07:42:35.000Z</time>
      </trkpt>
      <trkpt lat="47.4939" lon="6.74658">
        <ele>348</ele>
        <time>2015-05-25T07:42:50.000Z</time>
      </trkpt>
      <trkpt lat="47.4939" lon="6.74657">
        <ele>348</ele>
        <time>2015-05-25T07:42:51.000Z</time>
      </trkpt>
      <trkpt lat="47.49391" lon="6.74652">
        <ele>348</ele>
        <time>2015-05-25T07:42:53.000Z</time>
      </trkpt>
      <trkpt lat="47.49391" lon="6.74649">
        <ele>348</ele>
        <time>2015-05-25T07:42:54.000Z</time>
      </trkpt>
      <trkpt lat="47.49391" lon="6.74646">
        <ele>348</ele>
        <time>2015-05-25T07:42:55.000Z</time>
      </trkpt>
      <trkpt lat="47.49392" lon="6.74641">
        <ele>348</ele>
        <time>2015-05-25T07:42:56.000Z</time>
      </trkpt>
      <trkpt lat="47.49393" lon="6.74636">
        <ele>348</ele>
        <time>2015-05-25T07:42:57.000Z</time>
      </trkpt>
      <trkpt lat="47.49393" lon="6.74631">
        <ele>348</ele>
        <time>2015-05-25T07:42:58.000Z</time>
      </trkpt>
      <trkpt lat="47.49393" lon="6.74625">
        <ele>349</ele>
        <time>2015-05-25T07:42:59.000Z</time>
      </trkpt>
      <trkpt lat="47.49394" lon="6.7462">
        <ele>349</ele>
        <time>2015-05-25T07:43:00.000Z</time>
      </trkpt>
      <trkpt lat="47.49394" lon="6.74616">
        <ele>348</ele>
        <time>2015-05-25T07:43:01.000Z</time>
      </trkpt>
      <trkpt lat="47.49394" lon="6.74611">
        <ele>348</ele>
        <time>2015-05-25T07:43:02.000Z</time>
      </trkpt>
      <trkpt lat="47.49395" lon="6.74607">
        <ele>348</ele>
        <time>2015-05-25T07:43:03.000Z</time>
      </trkpt>
      <trkpt lat="47.49394" lon="6.74602">
        <ele>348</ele>
        <time>2015-05-25T07:43:04.000Z</time>
      </trkpt>
      <trkpt lat="47.49394" lon="6.74596">
        <ele>348</ele>
        <time>2015-05-25T07:43:05.000Z</time>
      </trkpt>
      <trkpt lat="47.49393" lon="6.7459">
        <ele>348</ele>
        <time>2015-05-25T07:43:06.000Z</time>
      </trkpt>
      <trkpt lat="47.49393" lon="6.74584">
        <ele>348</ele>
        <time>2015-05-25T07:43:07.000Z</time>
      </trkpt>
      <trkpt lat="47.49393" lon="6.74579">
        <ele>349</ele>
        <time>2015-05-25T07:43:08.000Z</time>
      </trkpt>
      <trkpt lat="47.49393" lon="6.74574">
        <ele>349</ele>
        <time>2015-05-25T07:43:09.000Z</time>
      </trkpt>
      <trkpt lat="47.49393" lon="6.7457">
        <ele>349</ele>
        <time>2015-05-25T07:43:10.000Z</time>
      </trkpt>
      <trkpt lat="47.49394" lon="6.74567">
        <ele>350</ele>
        <time>2015-05-25T07:43:11.000Z</time>
      </trkpt>
      <trkpt lat="47.49396" lon="6.74563">
        <ele>350</ele>
        <time>2015-05-25T07:43:12.000Z</time>
      </trkpt>
      <trkpt lat="47.49397" lon="6.74559">
        <ele>350</ele>
        <time>2015-05-25T07:43:13.000Z</time>
      </trkpt>
      <trkpt lat="47.49399" lon="6.74555">
        <ele>350</ele>
        <time>2015-05-25T07:43:14.000Z</time>
      </trkpt>
      <trkpt lat="47.494" lon="6.74549">
        <ele>350</ele>
        <time>2015-05-25T07:43:15.000Z</time>
      </trkpt>
      <trkpt lat="47.49402" lon="6.74543">
        <ele>350</ele>
        <time>2015-05-25T07:43:16.000Z</time>
      </trkpt>
      <trkpt lat="47.49403" lon="6.74536">
        <ele>350</ele>
        <time>2015-05-25T07:43:17.000Z</time>
      </trkpt>
      <trkpt lat="47.49403" lon="6.74528">
        <ele>350</ele>
        <time>2015-05-25T07:43:18.000Z</time>
      </trkpt>
      <trkpt lat="47.49404" lon="6.7452">
        <ele>350</ele>
        <time>2015-05-25T07:43:19.000Z</time>
      </trkpt>
      <trkpt lat="47.49404" lon="6.74513">
        <ele>350</ele>
        <time>2015-05-25T07:43:20.000Z</time>
      </trkpt>
      <trkpt lat="47.49404" lon="6.74506">
        <ele>349</ele>
        <time>2015-05-25T07:43:21.000Z</time>
      </trkpt>
      <trkpt lat="47.49404" lon="6.745">
        <ele>350</ele>
        <time>2015-05-25T07:43:22.000Z</time>
      </trkpt>
      <trkpt lat="47.49404" lon="6.74495">
        <ele>350</ele>
        <time>2015-05-25T07:43:23.000Z</time>
      </trkpt>
      <trkpt lat="47.49403" lon="6.7449">
        <ele>351</ele>
        <time>2015-05-25T07:43:24.000Z</time>
      </trkpt>
      <trkpt lat="47.49403" lon="6.74485">
        <ele>351</ele>
        <time>2015-05-25T07:43:25.000Z</time>
      </trkpt>
      <trkpt lat="47.49403" lon="6.74481">
        <ele>352</ele>
        <time>2015-05-25T07:43:26.000Z</time>
      </trkpt>
      <trkpt lat="47.49403" lon="6.74476">
        <ele>352</ele>
        <time>2015-05-25T07:43:27.000Z</time>
      </trkpt>
      <trkpt lat="47.49403" lon="6.74472">
        <ele>352</ele>
        <time>2015-05-25T07:43:28.000Z</time>
      </trkpt>
      <trkpt lat="47.49404" lon="6.74467">
        <ele>352</ele>
        <time>2015-05-25T07:43:29.000Z</time>
      </trkpt>
      <trkpt lat="47.49404" lon="6.74462">
        <ele>352</ele>
        <time>2015-05-25T07:43:30.000Z</time>
      </trkpt>
      <trkpt lat="47.49405" lon="6.74456">
        <ele>352</ele>
        <time>2015-05-25T07:43:31.000Z</time>
      </trkpt>
      <trkpt lat="47.49405" lon="6.74449">
        <ele>352</ele>
        <time>2015-05-25T07:43:32.000Z</time>
      </trkpt>
      <trkpt lat="47.49405" lon="6.74442">
        <ele>352</ele>
        <time>2015-05-25T07:43:33.000Z</time>
      </trkpt>
      <trkpt lat="47.49405" lon="6.74435">
        <ele>351</ele>
        <time>2015-05-25T07:43:34.000Z</time>
      </trkpt>
      <trkpt lat="47.49405" lon="6.74428">
        <ele>350</ele>
        <time>2015-05-25T07:43:35.000Z</time>
      </trkpt>
      <trkpt lat="47.49405" lon="6.74422">
        <ele>350</ele>
        <time>2015-05-25T07:43:36.000Z</time>
      </trkpt>
      <trkpt lat="47.49406" lon="6.74417">
        <ele>349</ele>
        <time>2015-05-25T07:43:37.000Z</time>
      </trkpt>
      <trkpt lat="47.49406" lon="6.74412">
        <ele>350</ele>
        <time>2015-05-25T07:43:38.000Z</time>
      </trkpt>
      <trkpt lat="47.49406" lon="6.74407">
        <ele>350</ele>
        <time>2015-05-25T07:43:39.000Z</time>
      </trkpt>
      <trkpt lat="47.49408" lon="6.74402">
        <ele>351</ele>
        <time>2015-05-25T07:43:40.000Z</time>
      </trkpt>
      <trkpt lat="47.49409" lon="6.74397">
        <ele>351</ele>
        <time>2015-05-25T07:43:41.000Z</time>
      </trkpt>
      <trkpt lat="47.49411" lon="6.74392">
        <ele>351</ele>
        <time>2015-05-25T07:43:42.000Z</time>
      </trkpt>
      <trkpt lat="47.49412" lon="6.74387">
        <ele>352</ele>
        <time>2015-05-25T07:43:43.000Z</time>
      </trkpt>
      <trkpt lat="47.49412" lon="6.74382">
        <ele>352</ele>
        <time>2015-05-25T07:43:44.000Z</time>
      </trkpt>
      <trkpt lat="47.49413" lon="6.74377">
        <ele>352</ele>
        <time>2015-05-25T07:43:45.000Z</time>
      </trkpt>
      <trkpt lat="47.49413" lon="6.74372">
        <ele>352</ele>
        <time>2015-05-25T07:43:46.000Z</time>
      </trkpt>
      <trkpt lat="47.49413" lon="6.74367">
        <ele>352</ele>
        <time>2015-05-25T07:43:47.000Z</time>
      </trkpt>
      <trkpt lat="47.49412" lon="6.74363">
        <ele>351</ele>
        <time>2015-05-25T07:43:48.000Z</time>
      </trkpt>
      <trkpt lat="47.49411" lon="6.74359">
        <ele>351</ele>
        <time>2015-05-25T07:43:49.000Z</time>
      </trkpt>
      <trkpt lat="47.49411" lon="6.74356">
        <ele>351</ele>
        <time>2015-05-25T07:43:50.000Z</time>
      </trkpt>
      <trkpt lat="47.4941" lon="6.74352">
        <ele>350</ele>
        <time>2015-05-25T07:43:51.000Z</time>
      </trkpt>
      <trkpt lat="47.49409" lon="6.74348">
        <ele>350</ele>
        <time>2015-05-25T07:43:52.000Z</time>
      </trkpt>
      <trkpt lat="47.49409" lon="6.74344">
        <ele>349</ele>
        <time>2015-05-25T07:43:53.000Z</time>
      </trkpt>
      <trkpt lat="47.49408" lon="6.74339">
        <ele>349</ele>
        <time>2015-05-25T07:43:54.000Z</time>
      </trkpt>
      <trkpt lat="47.49406" lon="6.74334">
        <ele>349</ele>
        <time>2015-05-25T07:43:55.000Z</time>
      </trkpt>
      <trkpt lat="47.49405" lon="6.74329">
        <ele>349</ele>
        <time>2015-05-25T07:43:56.000Z</time>
      </trkpt>
      <trkpt lat="47.49405" lon="6.74324">
        <ele>350</ele>
        <time>2015-05-25T07:43:57.000Z</time>
      </trkpt>
      <trkpt lat="47.49405" lon="6.74318">
        <ele>351</ele>
        <time>2015-05-25T07:43:58.000Z</time>
      </trkpt>
      <trkpt lat="47.49405" lon="6.74313">
        <ele>352</ele>
        <time>2015-05-25T07:43:59.000Z</time>
      </trkpt>
      <trkpt lat="47.49404" lon="6.74308">
        <ele>352</ele>
        <time>2015-05-25T07:44:00.000Z</time>
      </trkpt>
      <trkpt lat="47.49404" lon="6.74303">
        <ele>353</ele>
        <time>2015-05-25T07:44:01.000Z</time>
      </trkpt>
      <trkpt lat="47.49404" lon="6.74299">
        <ele>353</ele>
        <time>2015-05-25T07:44:02.000Z</time>
      </trkpt>
      <trkpt lat="47.49404" lon="6.74295">
        <ele>353</ele>
        <time>2015-05-25T07:44:03.000Z</time>
      </trkpt>
      <trkpt lat="47.49404" lon="6.74291">
        <ele>353</ele>
        <time>2015-05-25T07:44:04.000Z</time>
      </trkpt>
      <trkpt lat="47.49403" lon="6.74287">
        <ele>353</ele>
        <time>2015-05-25T07:44:05.000Z</time>
      </trkpt>
      <trkpt lat="47.49408" lon="6.74269">
        <ele>351</ele>
        <time>2015-05-25T07:44:06.000Z</time>
      </trkpt>
      <trkpt lat="47.49409" lon="6.7426">
        <ele>349</ele>
        <time>2015-05-25T07:44:07.000Z</time>
      </trkpt>
      <trkpt lat="47.49413" lon="6.74252">
        <ele>346</ele>
        <time>2015-05-25T07:44:08.000Z</time>
      </trkpt>
      <trkpt lat="47.49414" lon="6.74245">
        <ele>347</ele>
        <time>2015-05-25T07:44:09.000Z</time>
      </trkpt>
      <trkpt lat="47.49414" lon="6.74241">
        <ele>348</ele>
        <time>2015-05-25T07:44:11.000Z</time>
      </trkpt>
      <trkpt lat="47.49414" lon="6.74237">
        <ele>349</ele>
        <time>2015-05-25T07:44:12.000Z</time>
      </trkpt>
      <trkpt lat="47.49414" lon="6.74234">
        <ele>350</ele>
        <time>2015-05-25T07:44:13.000Z</time>
      </trkpt>
      <trkpt lat="47.49415" lon="6.74229">
        <ele>351</ele>
        <time>2015-05-25T07:44:14.000Z</time>
      </trkpt>
      <trkpt lat="47.49414" lon="6.74225">
        <ele>352</ele>
        <time>2015-05-25T07:44:15.000Z</time>
      </trkpt>
      <trkpt lat="47.49415" lon="6.74221">
        <ele>352</ele>
        <time>2015-05-25T07:44:16.000Z</time>
      </trkpt>
      <trkpt lat="47.49418" lon="6.74209">
        <ele>349</ele>
        <time>2015-05-25T07:44:17.000Z</time>
      </trkpt>
      <trkpt lat="47.49419" lon="6.74203">
        <ele>349</ele>
        <time>2015-05-25T07:44:18.000Z</time>
      </trkpt>
      <trkpt lat="47.4942" lon="6.74198">
        <ele>349</ele>
        <time>2015-05-25T07:44:19.000Z</time>
      </trkpt>
      <trkpt lat="47.49421" lon="6.74191">
        <ele>349</ele>
        <time>2015-05-25T07:44:20.000Z</time>
      </trkpt>
      <trkpt lat="47.49422" lon="6.74183">
        <ele>348</ele>
        <time>2015-05-25T07:44:21.000Z</time>
      </trkpt>
      <trkpt lat="47.49422" lon="6.74176">
        <ele>348</ele>
        <time>2015-05-25T07:44:22.000Z</time>
      </trkpt>
      <trkpt lat="47.49423" lon="6.74169">
        <ele>347</ele>
        <time>2015-05-25T07:44:23.000Z</time>
      </trkpt>
      <trkpt lat="47.49423" lon="6.74161">
        <ele>347</ele>
        <time>2015-05-25T07:44:24.000Z</time>
      </trkpt>
      <trkpt lat="47.49422" lon="6.74152">
        <ele>348</ele>
        <time>2015-05-25T07:44:25.000Z</time>
      </trkpt>
      <trkpt lat="47.49421" lon="6.74144">
        <ele>349</ele>
        <time>2015-05-25T07:44:26.000Z</time>
      </trkpt>
      <trkpt lat="47.49419" lon="6.74136">
        <ele>349</ele>
        <time>2015-05-25T07:44:27.000Z</time>
      </trkpt>
      <trkpt lat="47.49417" lon="6.74131">
        <ele>350</ele>
        <time>2015-05-25T07:44:28.000Z</time>
      </trkpt>
      <trkpt lat="47.49416" lon="6.74127">
        <ele>353</ele>
        <time>2015-05-25T07:44:29.000Z</time>
      </trkpt>
      <trkpt lat="47.49415" lon="6.74123">
        <ele>353</ele>
        <time>2015-05-25T07:44:30.000Z</time>
      </trkpt>
      <trkpt lat="47.49414" lon="6.7412">
        <ele>353</ele>
        <time>2015-05-25T07:44:31.000Z</time>
      </trkpt>
      <trkpt lat="47.49415" lon="6.74116">
        <ele>353</ele>
        <time>2015-05-25T07:44:32.000Z</time>
      </trkpt>
      <trkpt lat="47.49415" lon="6.74112">
        <ele>353</ele>
        <time>2015-05-25T07:44:33.000Z</time>
      </trkpt>
      <trkpt lat="47.49416" lon="6.74108">
        <ele>353</ele>
        <time>2015-05-25T07:44:34.000Z</time>
      </trkpt>
      <trkpt lat="47.49416" lon="6.74103">
        <ele>352</ele>
        <time>2015-05-25T07:44:35.000Z</time>
      </trkpt>
      <trkpt lat="47.49416" lon="6.741">
        <ele>352</ele>
        <time>2015-05-25T07:44:36.000Z</time>
      </trkpt>
      <trkpt lat="47.49415" lon="6.74096">
        <ele>351</ele>
        <time>2015-05-25T07:44:37.000Z</time>
      </trkpt>
      <trkpt lat="47.49415" lon="6.7409">
        <ele>349</ele>
        <time>2015-05-25T07:44:39.000Z</time>
      </trkpt>
      <trkpt lat="47.49414" lon="6.74085">
        <ele>348</ele>
        <time>2015-05-25T07:44:40.000Z</time>
      </trkpt>
      <trkpt lat="47.49414" lon="6.7408">
        <ele>348</ele>
        <time>2015-05-25T07:44:41.000Z</time>
      </trkpt>
      <trkpt lat="47.49414" lon="6.74075">
        <ele>350</ele>
        <time>2015-05-25T07:44:42.000Z</time>
      </trkpt>
      <trkpt lat="47.49414" lon="6.74069">
        <ele>351</ele>
        <time>2015-05-25T07:44:43.000Z</time>
      </trkpt>
      <trkpt lat="47.49413" lon="6.74065">
        <ele>352</ele>
        <time>2015-05-25T07:44:44.000Z</time>
      </trkpt>
      <trkpt lat="47.49413" lon="6.74061">
        <ele>352</ele>
        <time>2015-05-25T07:44:45.000Z</time>
      </trkpt>
      <trkpt lat="47.49413" lon="6.74057">
        <ele>353</ele>
        <time>2015-05-25T07:44:46.000Z</time>
      </trkpt>
      <trkpt lat="47.49413" lon="6.74052">
        <ele>353</ele>
        <time>2015-05-25T07:44:47.000Z</time>
      </trkpt>
      <trkpt lat="47.49414" lon="6.74048">
        <ele>353</ele>
        <time>2015-05-25T07:44:48.000Z</time>
      </trkpt>
      <trkpt lat="47.49415" lon="6.74044">
        <ele>353</ele>
        <time>2015-05-25T07:44:49.000Z</time>
      </trkpt>
      <trkpt lat="47.49416" lon="6.7404">
        <ele>353</ele>
        <time>2015-05-25T07:44:50.000Z</time>
      </trkpt>
      <trkpt lat="47.49417" lon="6.74035">
        <ele>350</ele>
        <time>2015-05-25T07:44:51.000Z</time>
      </trkpt>
      <trkpt lat="47.49419" lon="6.74031">
        <ele>350</ele>
        <time>2015-05-25T07:44:52.000Z</time>
      </trkpt>
      <trkpt lat="47.49427" lon="6.74021">
        <ele>350</ele>
        <time>2015-05-25T07:44:53.000Z</time>
      </trkpt>
      <trkpt lat="47.4943" lon="6.74015">
        <ele>350</ele>
        <time>2015-05-25T07:44:54.000Z</time>
      </trkpt>
      <trkpt lat="47.49433" lon="6.74008">
        <ele>350</ele>
        <time>2015-05-25T07:44:55.000Z</time>
      </trkpt>
      <trkpt lat="47.49433" lon="6.74">
        <ele>350</ele>
        <time>2015-05-25T07:44:56.000Z</time>
      </trkpt>
      <trkpt lat="47.49433" lon="6.73992">
        <ele>348</ele>
        <time>2015-05-25T07:44:57.000Z</time>
      </trkpt>
      <trkpt lat="47.49433" lon="6.73984">
        <ele>348</ele>
        <time>2015-05-25T07:44:58.000Z</time>
      </trkpt>
      <trkpt lat="47.49435" lon="6.73978">
        <ele>348</ele>
        <time>2015-05-25T07:44:59.000Z</time>
      </trkpt>
      <trkpt lat="47.49437" lon="6.73971">
        <ele>348</ele>
        <time>2015-05-25T07:45:00.000Z</time>
      </trkpt>
      <trkpt lat="47.49438" lon="6.73965">
        <ele>347</ele>
        <time>2015-05-25T07:45:01.000Z</time>
      </trkpt>
      <trkpt lat="47.49438" lon="6.73961">
        <ele>347</ele>
        <time>2015-05-25T07:45:02.000Z</time>
      </trkpt>
      <trkpt lat="47.49438" lon="6.73954">
        <ele>347</ele>
        <time>2015-05-25T07:45:03.000Z</time>
      </trkpt>
      <trkpt lat="47.49439" lon="6.73947">
        <ele>347</ele>
        <time>2015-05-25T07:45:04.000Z</time>
      </trkpt>
      <trkpt lat="47.4944" lon="6.73941">
        <ele>347</ele>
        <time>2015-05-25T07:45:05.000Z</time>
      </trkpt>
      <trkpt lat="47.49439" lon="6.73936">
        <ele>346</ele>
        <time>2015-05-25T07:45:06.000Z</time>
      </trkpt>
      <trkpt lat="47.49439" lon="6.7393">
        <ele>346</ele>
        <time>2015-05-25T07:45:07.000Z</time>
      </trkpt>
      <trkpt lat="47.49438" lon="6.73923">
        <ele>346</ele>
        <time>2015-05-25T07:45:08.000Z</time>
      </trkpt>
      <trkpt lat="47.49437" lon="6.73916">
        <ele>344</ele>
        <time>2015-05-25T07:45:09.000Z</time>
      </trkpt>
      <trkpt lat="47.49436" lon="6.73909">
        <ele>343</ele>
        <time>2015-05-25T07:45:10.000Z</time>
      </trkpt>
      <trkpt lat="47.49431" lon="6.73897">
        <ele>343</ele>
        <time>2015-05-25T07:45:11.000Z</time>
      </trkpt>
      <trkpt lat="47.4943" lon="6.73891">
        <ele>343</ele>
        <time>2015-05-25T07:45:12.000Z</time>
      </trkpt>
      <trkpt lat="47.49428" lon="6.73883">
        <ele>343</ele>
        <time>2015-05-25T07:45:13.000Z</time>
      </trkpt>
      <trkpt lat="47.49429" lon="6.73876">
        <ele>342</ele>
        <time>2015-05-25T07:45:14.000Z</time>
      </trkpt>
      <trkpt lat="47.49429" lon="6.7387">
        <ele>342</ele>
        <time>2015-05-25T07:45:15.000Z</time>
      </trkpt>
      <trkpt lat="47.4943" lon="6.73864">
        <ele>342</ele>
        <time>2015-05-25T07:45:16.000Z</time>
      </trkpt>
      <trkpt lat="47.49431" lon="6.73858">
        <ele>342</ele>
        <time>2015-05-25T07:45:17.000Z</time>
      </trkpt>
      <trkpt lat="47.49432" lon="6.73851">
        <ele>342</ele>
        <time>2015-05-25T07:45:18.000Z</time>
      </trkpt>
      <trkpt lat="47.49433" lon="6.73845">
        <ele>342</ele>
        <time>2015-05-25T07:45:19.000Z</time>
      </trkpt>
      <trkpt lat="47.49434" lon="6.7384">
        <ele>342</ele>
        <time>2015-05-25T07:45:20.000Z</time>
      </trkpt>
      <trkpt lat="47.49435" lon="6.73834">
        <ele>342</ele>
        <time>2015-05-25T07:45:21.000Z</time>
      </trkpt>
      <trkpt lat="47.49437" lon="6.73825">
        <ele>341</ele>
        <time>2015-05-25T07:45:22.000Z</time>
      </trkpt>
      <trkpt lat="47.49437" lon="6.73819">
        <ele>340</ele>
        <time>2015-05-25T07:45:23.000Z</time>
      </trkpt>
      <trkpt lat="47.49438" lon="6.73813">
        <ele>340</ele>
        <time>2015-05-25T07:45:24.000Z</time>
      </trkpt>
      <trkpt lat="47.49439" lon="6.73807">
        <ele>340</ele>
        <time>2015-05-25T07:45:25.000Z</time>
      </trkpt>
      <trkpt lat="47.49439" lon="6.73802">
        <ele>340</ele>
        <time>2015-05-25T07:45:26.000Z</time>
      </trkpt>
      <trkpt lat="47.4944" lon="6.73797">
        <ele>340</ele>
        <time>2015-05-25T07:45:26.997Z</time>
      </trkpt>
      <trkpt lat="47.49441" lon="6.73792">
        <ele>339</ele>
        <time>2015-05-25T07:45:28.000Z</time>
      </trkpt>
      <trkpt lat="47.49442" lon="6.73787">
        <ele>339</ele>
        <time>2015-05-25T07:45:29.000Z</time>
      </trkpt>
      <trkpt lat="47.49444" lon="6.73782">
        <ele>339</ele>
        <time>2015-05-25T07:45:30.000Z</time>
      </trkpt>
      <trkpt lat="47.49445" lon="6.73776">
        <ele>339</ele>
        <time>2015-05-25T07:45:31.000Z</time>
      </trkpt>
      <trkpt lat="47.49447" lon="6.73771">
        <ele>339</ele>
        <time>2015-05-25T07:45:32.000Z</time>
      </trkpt>
      <trkpt lat="47.49447" lon="6.73767">
        <ele>339</ele>
        <time>2015-05-25T07:45:33.000Z</time>
      </trkpt>
      <trkpt lat="47.49448" lon="6.73764">
        <ele>339</ele>
        <time>2015-05-25T07:45:34.000Z</time>
      </trkpt>
      <trkpt lat="47.49449" lon="6.73759">
        <ele>339</ele>
        <time>2015-05-25T07:47:19.000Z</time>
      </trkpt>
      <trkpt lat="47.4945" lon="6.73758">
        <ele>339</ele>
        <time>2015-05-25T07:47:20.000Z</time>
      </trkpt>
      <trkpt lat="47.49453" lon="6.73755">
        <ele>339</ele>
        <time>2015-05-25T07:47:22.000Z</time>
      </trkpt>
      <trkpt lat="47.49456" lon="6.73751">
        <ele>338</ele>
        <time>2015-05-25T07:47:23.000Z</time>
      </trkpt>
      <trkpt lat="47.49458" lon="6.73747">
        <ele>338</ele>
        <time>2015-05-25T07:47:24.000Z</time>
      </trkpt>
      <trkpt lat="47.49461" lon="6.73742">
        <ele>338</ele>
        <time>2015-05-25T07:47:25.000Z</time>
      </trkpt>
      <trkpt lat="47.49463" lon="6.73738">
        <ele>338</ele>
        <time>2015-05-25T07:47:25.958Z</time>
      </trkpt>
      <trkpt lat="47.49467" lon="6.7373">
        <ele>337</ele>
        <time>2015-05-25T07:47:27.000Z</time>
      </trkpt>
      <trkpt lat="47.4947" lon="6.73723">
        <ele>337</ele>
        <time>2015-05-25T07:47:28.000Z</time>
      </trkpt>
      <trkpt lat="47.49472" lon="6.73717">
        <ele>337</ele>
        <time>2015-05-25T07:47:29.000Z</time>
      </trkpt>
      <trkpt lat="47.49474" lon="6.7371">
        <ele>337</ele>
        <time>2015-05-25T07:47:30.000Z</time>
      </trkpt>
      <trkpt lat="47.49477" lon="6.73704">
        <ele>337</ele>
        <time>2015-05-25T07:47:31.000Z</time>
      </trkpt>
      <trkpt lat="47.49479" lon="6.73697">
        <ele>337</ele>
        <time>2015-05-25T07:47:32.000Z</time>
      </trkpt>
      <trkpt lat="47.49481" lon="6.7369">
        <ele>336</ele>
        <time>2015-05-25T07:47:33.000Z</time>
      </trkpt>
      <trkpt lat="47.49484" lon="6.73684">
        <ele>336</ele>
        <time>2015-05-25T07:47:34.000Z</time>
      </trkpt>
      <trkpt lat="47.49486" lon="6.73678">
        <ele>335</ele>
        <time>2015-05-25T07:47:35.000Z</time>
      </trkpt>
      <trkpt lat="47.49488" lon="6.73672">
        <ele>334</ele>
        <time>2015-05-25T07:47:36.000Z</time>
      </trkpt>
      <trkpt lat="47.49491" lon="6.73666">
        <ele>334</ele>
        <time>2015-05-25T07:47:37.000Z</time>
      </trkpt>
      <trkpt lat="47.49493" lon="6.73661">
        <ele>334</ele>
        <time>2015-05-25T07:47:38.000Z</time>
      </trkpt>
      <trkpt lat="47.49495" lon="6.73655">
        <ele>334</ele>
        <time>2015-05-25T07:47:39.000Z</time>
      </trkpt>
      <trkpt lat="47.49498" lon="6.73649">
        <ele>335</ele>
        <time>2015-05-25T07:47:40.000Z</time>
      </trkpt>
      <trkpt lat="47.495" lon="6.73644">
        <ele>336</ele>
        <time>2015-05-25T07:47:41.000Z</time>
      </trkpt>
      <trkpt lat="47.49502" lon="6.73637">
        <ele>332</ele>
        <time>2015-05-25T07:47:42.000Z</time>
      </trkpt>
      <trkpt lat="47.49505" lon="6.73632">
        <ele>332</ele>
        <time>2015-05-25T07:47:43.000Z</time>
      </trkpt>
      <trkpt lat="47.49509" lon="6.73628">
        <ele>332</ele>
        <time>2015-05-25T07:47:44.000Z</time>
      </trkpt>
      <trkpt lat="47.49512" lon="6.73623">
        <ele>332</ele>
        <time>2015-05-25T07:47:45.000Z</time>
      </trkpt>
      <trkpt lat="47.49515" lon="6.73619">
        <ele>332</ele>
        <time>2015-05-25T07:47:46.000Z</time>
      </trkpt>
      <trkpt lat="47.49519" lon="6.73615">
        <ele>332</ele>
        <time>2015-05-25T07:47:47.000Z</time>
      </trkpt>
      <trkpt lat="47.49521" lon="6.73612">
        <ele>332</ele>
        <time>2015-05-25T07:47:48.000Z</time>
      </trkpt>
      <trkpt lat="47.49524" lon="6.73607">
        <ele>332</ele>
        <time>2015-05-25T07:47:49.000Z</time>
      </trkpt>
      <trkpt lat="47.49527" lon="6.73603">
        <ele>332</ele>
        <time>2015-05-25T07:47:50.000Z</time>
      </trkpt>
      <trkpt lat="47.4953" lon="6.73598">
        <ele>332</ele>
        <time>2015-05-25T07:47:51.000Z</time>
      </trkpt>
      <trkpt lat="47.49533" lon="6.73594">
        <ele>332</ele>
        <time>2015-05-25T07:47:52.000Z</time>
      </trkpt>
      <trkpt lat="47.49536" lon="6.73591">
        <ele>332</ele>
        <time>2015-05-25T07:47:53.000Z</time>
      </trkpt>
      <trkpt lat="47.4954" lon="6.73587">
        <ele>332</ele>
        <time>2015-05-25T07:47:54.000Z</time>
      </trkpt>
      <trkpt lat="47.49543" lon="6.73583">
        <ele>333</ele>
        <time>2015-05-25T07:47:55.000Z</time>
      </trkpt>
      <trkpt lat="47.49546" lon="6.73579">
        <ele>333</ele>
        <time>2015-05-25T07:47:56.000Z</time>
      </trkpt>
      <trkpt lat="47.4955" lon="6.73575">
        <ele>333</ele>
        <time>2015-05-25T07:47:57.000Z</time>
      </trkpt>
      <trkpt lat="47.49553" lon="6.73572">
        <ele>333</ele>
        <time>2015-05-25T07:47:58.000Z</time>
      </trkpt>
      <trkpt lat="47.49557" lon="6.73568">
        <ele>333</ele>
        <time>2015-05-25T07:47:59.000Z</time>
      </trkpt>
      <trkpt lat="47.49562" lon="6.73564">
        <ele>333</ele>
        <time>2015-05-25T07:48:00.000Z</time>
      </trkpt>
      <trkpt lat="47.49566" lon="6.7356">
        <ele>333</ele>
        <time>2015-05-25T07:48:01.000Z</time>
      </trkpt>
      <trkpt lat="47.4957" lon="6.73557">
        <ele>333</ele>
        <time>2015-05-25T07:48:02.000Z</time>
      </trkpt>
      <trkpt lat="47.49574" lon="6.73553">
        <ele>333</ele>
        <time>2015-05-25T07:48:03.000Z</time>
      </trkpt>
      <trkpt lat="47.49577" lon="6.73551">
        <ele>333</ele>
        <time>2015-05-25T07:48:04.000Z</time>
      </trkpt>
      <trkpt lat="47.49581" lon="6.73548">
        <ele>333</ele>
        <time>2015-05-25T07:48:05.000Z</time>
      </trkpt>
      <trkpt lat="47.49584" lon="6.73545">
        <ele>331</ele>
        <time>2015-05-25T07:48:06.000Z</time>
      </trkpt>
      <trkpt lat="47.49588" lon="6.73543">
        <ele>331</ele>
        <time>2015-05-25T07:48:07.000Z</time>
      </trkpt>
      <trkpt lat="47.49591" lon="6.73539">
        <ele>332</ele>
        <time>2015-05-25T07:48:08.000Z</time>
      </trkpt>
      <trkpt lat="47.49595" lon="6.73536">
        <ele>332</ele>
        <time>2015-05-25T07:48:09.000Z</time>
      </trkpt>
      <trkpt lat="47.49598" lon="6.73533">
        <ele>332</ele>
        <time>2015-05-25T07:48:10.000Z</time>
      </trkpt>
      <trkpt lat="47.49601" lon="6.73529">
        <ele>332</ele>
        <time>2015-05-25T07:48:11.000Z</time>
      </trkpt>
      <trkpt lat="47.49605" lon="6.73526">
        <ele>332</ele>
        <time>2015-05-25T07:48:12.000Z</time>
      </trkpt>
      <trkpt lat="47.49608" lon="6.73523">
        <ele>332</ele>
        <time>2015-05-25T07:48:13.000Z</time>
      </trkpt>
      <trkpt lat="47.49611" lon="6.73519">
        <ele>332</ele>
        <time>2015-05-25T07:48:14.000Z</time>
      </trkpt>
      <trkpt lat="47.49615" lon="6.73516">
        <ele>332</ele>
        <time>2015-05-25T07:48:15.000Z</time>
      </trkpt>
      <trkpt lat="47.49618" lon="6.73512">
        <ele>332</ele>
        <time>2015-05-25T07:48:16.000Z</time>
      </trkpt>
      <trkpt lat="47.49621" lon="6.73508">
        <ele>332</ele>
        <time>2015-05-25T07:48:17.000Z</time>
      </trkpt>
      <trkpt lat="47.49624" lon="6.73505">
        <ele>332</ele>
        <time>2015-05-25T07:48:18.000Z</time>
      </trkpt>
      <trkpt lat="47.49627" lon="6.73501">
        <ele>332</ele>
        <time>2015-05-25T07:48:19.000Z</time>
      </trkpt>
      <trkpt lat="47.4963" lon="6.73496">
        <ele>333</ele>
        <time>2015-05-25T07:48:20.000Z</time>
      </trkpt>
      <trkpt lat="47.49633" lon="6.73492">
        <ele>333</ele>
        <time>2015-05-25T07:48:21.000Z</time>
      </trkpt>
      <trkpt lat="47.49636" lon="6.73488">
        <ele>333</ele>
        <time>2015-05-25T07:48:22.000Z</time>
      </trkpt>
      <trkpt lat="47.49639" lon="6.73483">
        <ele>333</ele>
        <time>2015-05-25T07:48:23.000Z</time>
      </trkpt>
      <trkpt lat="47.49642" lon="6.73479">
        <ele>333</ele>
        <time>2015-05-25T07:48:24.000Z</time>
      </trkpt>
      <trkpt lat="47.49645" lon="6.73475">
        <ele>333</ele>
        <time>2015-05-25T07:48:25.000Z</time>
      </trkpt>
      <trkpt lat="47.49648" lon="6.73471">
        <ele>333</ele>
        <time>2015-05-25T07:48:26.000Z</time>
      </trkpt>
      <trkpt lat="47.49651" lon="6.73467">
        <ele>334</ele>
        <time>2015-05-25T07:48:27.000Z</time>
      </trkpt>
      <trkpt lat="47.49654" lon="6.73463">
        <ele>334</ele>
        <time>2015-05-25T07:48:28.000Z</time>
      </trkpt>
      <trkpt lat="47.49657" lon="6.73458">
        <ele>334</ele>
        <time>2015-05-25T07:48:29.000Z</time>
      </trkpt>
      <trkpt lat="47.4966" lon="6.73454">
        <ele>334</ele>
        <time>2015-05-25T07:48:30.000Z</time>
      </trkpt>
      <trkpt lat="47.49663" lon="6.7345">
        <ele>334</ele>
        <time>2015-05-25T07:48:31.000Z</time>
      </trkpt>
      <trkpt lat="47.49666" lon="6.73446">
        <ele>334</ele>
        <time>2015-05-25T07:48:32.000Z</time>
      </trkpt>
      <trkpt lat="47.49669" lon="6.73442">
        <ele>333</ele>
        <time>2015-05-25T07:48:33.000Z</time>
      </trkpt>
      <trkpt lat="47.49672" lon="6.73438">
        <ele>333</ele>
        <time>2015-05-25T07:48:34.000Z</time>
      </trkpt>
      <trkpt lat="47.49675" lon="6.73433">
        <ele>333</ele>
        <time>2015-05-25T07:48:35.000Z</time>
      </trkpt>
      <trkpt lat="47.49677" lon="6.73429">
        <ele>333</ele>
        <time>2015-05-25T07:48:36.000Z</time>
      </trkpt>
      <trkpt lat="47.4968" lon="6.73425">
        <ele>333</ele>
        <time>2015-05-25T07:48:37.000Z</time>
      </trkpt>
      <trkpt lat="47.49683" lon="6.73421">
        <ele>333</ele>
        <time>2015-05-25T07:48:38.000Z</time>
      </trkpt>
      <trkpt lat="47.49686" lon="6.73418">
        <ele>333</ele>
        <time>2015-05-25T07:48:39.000Z</time>
      </trkpt>
      <trkpt lat="47.49689" lon="6.73414">
        <ele>334</ele>
        <time>2015-05-25T07:48:40.000Z</time>
      </trkpt>
      <trkpt lat="47.49692" lon="6.7341">
        <ele>334</ele>
        <time>2015-05-25T07:48:41.000Z</time>
      </trkpt>
      <trkpt lat="47.49695" lon="6.73405">
        <ele>334</ele>
        <time>2015-05-25T07:48:42.000Z</time>
      </trkpt>
      <trkpt lat="47.49698" lon="6.73401">
        <ele>334</ele>
        <time>2015-05-25T07:48:43.000Z</time>
      </trkpt>
      <trkpt lat="47.49701" lon="6.73397">
        <ele>334</ele>
        <time>2015-05-25T07:48:44.000Z</time>
      </trkpt>
      <trkpt lat="47.49704" lon="6.73393">
        <ele>334</ele>
        <time>2015-05-25T07:48:45.000Z</time>
      </trkpt>
      <trkpt lat="47.49707" lon="6.73388">
        <ele>334</ele>
        <time>2015-05-25T07:48:46.000Z</time>
      </trkpt>
      <trkpt lat="47.4971" lon="6.73384">
        <ele>334</ele>
        <time>2015-05-25T07:48:47.000Z</time>
      </trkpt>
      <trkpt lat="47.49713" lon="6.7338">
        <ele>334</ele>
        <time>2015-05-25T07:48:48.000Z</time>
      </trkpt>
      <trkpt lat="47.49716" lon="6.73376">
        <ele>334</ele>
        <time>2015-05-25T07:48:49.000Z</time>
      </trkpt>
      <trkpt lat="47.49719" lon="6.73371">
        <ele>334</ele>
        <time>2015-05-25T07:48:50.000Z</time>
      </trkpt>
      <trkpt lat="47.49722" lon="6.73366">
        <ele>334</ele>
        <time>2015-05-25T07:48:51.000Z</time>
      </trkpt>
      <trkpt lat="47.49726" lon="6.73362">
        <ele>334</ele>
        <time>2015-05-25T07:48:52.000Z</time>
      </trkpt>
      <trkpt lat="47.49728" lon="6.73357">
        <ele>334</ele>
        <time>2015-05-25T07:48:53.000Z</time>
      </trkpt>
      <trkpt lat="47.49731" lon="6.73352">
        <ele>333</ele>
        <time>2015-05-25T07:48:54.000Z</time>
      </trkpt>
      <trkpt lat="47.49734" lon="6.73348">
        <ele>333</ele>
        <time>2015-05-25T07:48:55.000Z</time>
      </trkpt>
      <trkpt lat="47.49737" lon="6.73344">
        <ele>333</ele>
        <time>2015-05-25T07:48:56.000Z</time>
      </trkpt>
      <trkpt lat="47.4974" lon="6.73339">
        <ele>333</ele>
        <time>2015-05-25T07:48:57.000Z</time>
      </trkpt>
      <trkpt lat="47.49743" lon="6.73335">
        <ele>333</ele>
        <time>2015-05-25T07:48:58.000Z</time>
      </trkpt>
      <trkpt lat="47.49746" lon="6.7333">
        <ele>333</ele>
        <time>2015-05-25T07:48:59.000Z</time>
      </trkpt>
      <trkpt lat="47.49749" lon="6.73326">
        <ele>333</ele>
        <time>2015-05-25T07:49:00.000Z</time>
      </trkpt>
      <trkpt lat="47.49752" lon="6.73322">
        <ele>333</ele>
        <time>2015-05-25T07:49:01.000Z</time>
      </trkpt>
      <trkpt lat="47.49755" lon="6.73318">
        <ele>333</ele>
        <time>2015-05-25T07:49:02.000Z</time>
      </trkpt>
      <trkpt lat="47.49758" lon="6.73314">
        <ele>333</ele>
        <time>2015-05-25T07:49:03.000Z</time>
      </trkpt>
      <trkpt lat="47.49761" lon="6.73309">
        <ele>333</ele>
        <time>2015-05-25T07:49:04.000Z</time>
      </trkpt>
      <trkpt lat="47.49764" lon="6.73304">
        <ele>334</ele>
        <time>2015-05-25T07:49:05.000Z</time>
      </trkpt>
      <trkpt lat="47.49767" lon="6.73299">
        <ele>334</ele>
        <time>2015-05-25T07:49:06.000Z</time>
      </trkpt>
      <trkpt lat="47.49769" lon="6.73294">
        <ele>334</ele>
        <time>2015-05-25T07:49:07.000Z</time>
      </trkpt>
      <trkpt lat="47.49772" lon="6.73289">
        <ele>334</ele>
        <time>2015-05-25T07:49:08.000Z</time>
      </trkpt>
      <trkpt lat="47.49775" lon="6.73284">
        <ele>334</ele>
        <time>2015-05-25T07:49:09.000Z</time>
      </trkpt>
      <trkpt lat="47.49778" lon="6.73279">
        <ele>334</ele>
        <time>2015-05-25T07:49:10.000Z</time>
      </trkpt>
      <trkpt lat="47.49781" lon="6.73274">
        <ele>335</ele>
        <time>2015-05-25T07:49:11.000Z</time>
      </trkpt>
      <trkpt lat="47.49783" lon="6.73269">
        <ele>335</ele>
        <time>2015-05-25T07:49:12.000Z</time>
      </trkpt>
      <trkpt lat="47.49786" lon="6.73264">
        <ele>335</ele>
        <time>2015-05-25T07:49:13.000Z</time>
      </trkpt>
      <trkpt lat="47.49788" lon="6.73259">
        <ele>335</ele>
        <time>2015-05-25T07:49:14.000Z</time>
      </trkpt>
      <trkpt lat="47.49791" lon="6.73254">
        <ele>335</ele>
        <time>2015-05-25T07:49:15.000Z</time>
      </trkpt>
      <trkpt lat="47.49793" lon="6.73248">
        <ele>337</ele>
        <time>2015-05-25T07:49:16.000Z</time>
      </trkpt>
      <trkpt lat="47.49796" lon="6.73243">
        <ele>337</ele>
        <time>2015-05-25T07:49:17.000Z</time>
      </trkpt>
      <trkpt lat="47.49798" lon="6.73238">
        <ele>337</ele>
        <time>2015-05-25T07:49:18.000Z</time>
      </trkpt>
      <trkpt lat="47.498" lon="6.73232">
        <ele>337</ele>
        <time>2015-05-25T07:49:19.000Z</time>
      </trkpt>
      <trkpt lat="47.49802" lon="6.73227">
        <ele>337</ele>
        <time>2015-05-25T07:49:20.000Z</time>
      </trkpt>
      <trkpt lat="47.49804" lon="6.73221">
        <ele>337</ele>
        <time>2015-05-25T07:49:21.000Z</time>
      </trkpt>
      <trkpt lat="47.49806" lon="6.73215">
        <ele>337</ele>
        <time>2015-05-25T07:49:22.000Z</time>
      </trkpt>
      <trkpt lat="47.49808" lon="6.73209">
        <ele>337</ele>
        <time>2015-05-25T07:49:23.000Z</time>
      </trkpt>
      <trkpt lat="47.49809" lon="6.73204">
        <ele>337</ele>
        <time>2015-05-25T07:49:24.000Z</time>
      </trkpt>
      <trkpt lat="47.49811" lon="6.73198">
        <ele>337</ele>
        <time>2015-05-25T07:49:25.000Z</time>
      </trkpt>
      <trkpt lat="47.49812" lon="6.73192">
        <ele>337</ele>
        <time>2015-05-25T07:49:26.000Z</time>
      </trkpt>
      <trkpt lat="47.49814" lon="6.73186">
        <ele>337</ele>
        <time>2015-05-25T07:49:27.000Z</time>
      </trkpt>
      <trkpt lat="47.49815" lon="6.73181">
        <ele>337</ele>
        <time>2015-05-25T07:49:28.000Z</time>
      </trkpt>
      <trkpt lat="47.49817" lon="6.73175">
        <ele>337</ele>
        <time>2015-05-25T07:49:29.000Z</time>
      </trkpt>
      <trkpt lat="47.49818" lon="6.73169">
        <ele>337</ele>
        <time>2015-05-25T07:49:30.000Z</time>
      </trkpt>
      <trkpt lat="47.49819" lon="6.73164">
        <ele>338</ele>
        <time>2015-05-25T07:49:31.000Z</time>
      </trkpt>
      <trkpt lat="47.4982" lon="6.73158">
        <ele>338</ele>
        <time>2015-05-25T07:49:32.000Z</time>
      </trkpt>
      <trkpt lat="47.49822" lon="6.73153">
        <ele>338</ele>
        <time>2015-05-25T07:49:33.000Z</time>
      </trkpt>
      <trkpt lat="47.49823" lon="6.73148">
        <ele>338</ele>
        <time>2015-05-25T07:49:34.000Z</time>
      </trkpt>
      <trkpt lat="47.49824" lon="6.73142">
        <ele>339</ele>
        <time>2015-05-25T07:49:35.000Z</time>
      </trkpt>
      <trkpt lat="47.49826" lon="6.73137">
        <ele>339</ele>
        <time>2015-05-25T07:49:36.000Z</time>
      </trkpt>
      <trkpt lat="47.49827" lon="6.73132">
        <ele>339</ele>
        <time>2015-05-25T07:49:37.000Z</time>
      </trkpt>
      <trkpt lat="47.49829" lon="6.73126">
        <ele>339</ele>
        <time>2015-05-25T07:49:38.000Z</time>
      </trkpt>
      <trkpt lat="47.4983" lon="6.73121">
        <ele>339</ele>
        <time>2015-05-25T07:49:39.000Z</time>
      </trkpt>
      <trkpt lat="47.49831" lon="6.73116">
        <ele>339</ele>
        <time>2015-05-25T07:49:40.000Z</time>
      </trkpt>
      <trkpt lat="47.49832" lon="6.73112">
        <ele>339</ele>
        <time>2015-05-25T07:49:41.000Z</time>
      </trkpt>
      <trkpt lat="47.49833" lon="6.73107">
        <ele>339</ele>
        <time>2015-05-25T07:49:42.000Z</time>
      </trkpt>
      <trkpt lat="47.49835" lon="6.73103">
        <ele>339</ele>
        <time>2015-05-25T07:49:43.000Z</time>
      </trkpt>
      <trkpt lat="47.49836" lon="6.73098">
        <ele>339</ele>
        <time>2015-05-25T07:49:44.000Z</time>
      </trkpt>
      <trkpt lat="47.49837" lon="6.73093">
        <ele>339</ele>
        <time>2015-05-25T07:49:45.000Z</time>
      </trkpt>
      <trkpt lat="47.49839" lon="6.73089">
        <ele>339</ele>
        <time>2015-05-25T07:49:46.000Z</time>
      </trkpt>
      <trkpt lat="47.4984" lon="6.73083">
        <ele>339</ele>
        <time>2015-05-25T07:49:47.000Z</time>
      </trkpt>
      <trkpt lat="47.49842" lon="6.73078">
        <ele>340</ele>
        <time>2015-05-25T07:49:48.000Z</time>
      </trkpt>
      <trkpt lat="47.49844" lon="6.73073">
        <ele>340</ele>
        <time>2015-05-25T07:49:49.000Z</time>
      </trkpt>
      <trkpt lat="47.49845" lon="6.73067">
        <ele>340</ele>
        <time>2015-05-25T07:49:50.000Z</time>
      </trkpt>
      <trkpt lat="47.49848" lon="6.73062">
        <ele>340</ele>
        <time>2015-05-25T07:49:51.000Z</time>
      </trkpt>
      <trkpt lat="47.4985" lon="6.73056">
        <ele>340</ele>
        <time>2015-05-25T07:49:52.000Z</time>
      </trkpt>
      <trkpt lat="47.49852" lon="6.73051">
        <ele>340</ele>
        <time>2015-05-25T07:49:53.000Z</time>
      </trkpt>
      <trkpt lat="47.49854" lon="6.73045">
        <ele>340</ele>
        <time>2015-05-25T07:49:54.000Z</time>
      </trkpt>
      <trkpt lat="47.49856" lon="6.7304">
        <ele>340</ele>
        <time>2015-05-25T07:49:55.000Z</time>
      </trkpt>
      <trkpt lat="47.49859" lon="6.73035">
        <ele>340</ele>
        <time>2015-05-25T07:49:56.000Z</time>
      </trkpt>
      <trkpt lat="47.49861" lon="6.73029">
        <ele>340</ele>
        <time>2015-05-25T07:49:57.000Z</time>
      </trkpt>
      <trkpt lat="47.49863" lon="6.73023">
        <ele>341</ele>
        <time>2015-05-25T07:49:58.000Z</time>
      </trkpt>
      <trkpt lat="47.49865" lon="6.73017">
        <ele>341</ele>
        <time>2015-05-25T07:49:59.000Z</time>
      </trkpt>
      <trkpt lat="47.49868" lon="6.73012">
        <ele>341</ele>
        <time>2015-05-25T07:50:00.000Z</time>
      </trkpt>
      <trkpt lat="47.4987" lon="6.73006">
        <ele>341</ele>
        <time>2015-05-25T07:50:01.000Z</time>
      </trkpt>
      <trkpt lat="47.49872" lon="6.73001">
        <ele>340</ele>
        <time>2015-05-25T07:50:02.000Z</time>
      </trkpt>
      <trkpt lat="47.49874" lon="6.72996">
        <ele>342</ele>
        <time>2015-05-25T07:50:03.000Z</time>
      </trkpt>
      <trkpt lat="47.49876" lon="6.7299">
        <ele>342</ele>
        <time>2015-05-25T07:50:04.000Z</time>
      </trkpt>
      <trkpt lat="47.49879" lon="6.72985">
        <ele>342</ele>
        <time>2015-05-25T07:50:05.000Z</time>
      </trkpt>
      <trkpt lat="47.4988" lon="6.7298">
        <ele>342</ele>
        <time>2015-05-25T07:50:06.000Z</time>
      </trkpt>
      <trkpt lat="47.49882" lon="6.72975">
        <ele>342</ele>
        <time>2015-05-25T07:50:07.000Z</time>
      </trkpt>
      <trkpt lat="47.49884" lon="6.72969">
        <ele>342</ele>
        <time>2015-05-25T07:50:08.000Z</time>
      </trkpt>
      <trkpt lat="47.49886" lon="6.72963">
        <ele>342</ele>
        <time>2015-05-25T07:50:09.000Z</time>
      </trkpt>
      <trkpt lat="47.49889" lon="6.72958">
        <ele>342</ele>
        <time>2015-05-25T07:50:10.000Z</time>
      </trkpt>
      <trkpt lat="47.49891" lon="6.72953">
        <ele>342</ele>
        <time>2015-05-25T07:50:11.000Z</time>
      </trkpt>
      <trkpt lat="47.49894" lon="6.72948">
        <ele>342</ele>
        <time>2015-05-25T07:50:12.000Z</time>
      </trkpt>
      <trkpt lat="47.499" lon="6.72946">
        <ele>342</ele>
        <time>2015-05-25T07:50:13.000Z</time>
      </trkpt>
      <trkpt lat="47.49905" lon="6.72946">
        <ele>342</ele>
        <time>2015-05-25T07:50:14.000Z</time>
      </trkpt>
      <trkpt lat="47.49909" lon="6.72951">
        <ele>341</ele>
        <time>2015-05-25T07:50:15.000Z</time>
      </trkpt>
      <trkpt lat="47.49914" lon="6.72954">
        <ele>341</ele>
        <time>2015-05-25T07:50:16.000Z</time>
      </trkpt>
      <trkpt lat="47.49919" lon="6.72957">
        <ele>339</ele>
        <time>2015-05-25T07:50:17.000Z</time>
      </trkpt>
      <trkpt lat="47.49925" lon="6.72959">
        <ele>339</ele>
        <time>2015-05-25T07:50:18.000Z</time>
      </trkpt>
      <trkpt lat="47.49931" lon="6.72962">
        <ele>339</ele>
        <time>2015-05-25T07:50:19.000Z</time>
      </trkpt>
      <trkpt lat="47.49939" lon="6.72966">
        <ele>339</ele>
        <time>2015-05-25T07:50:20.000Z</time>
      </trkpt>
      <trkpt lat="47.49945" lon="6.72969">
        <ele>339</ele>
        <time>2015-05-25T07:50:21.000Z</time>
      </trkpt>
      <trkpt lat="47.49952" lon="6.72971">
        <ele>339</ele>
        <time>2015-05-25T07:50:22.000Z</time>
      </trkpt>
      <trkpt lat="47.49959" lon="6.72975">
        <ele>339</ele>
        <time>2015-05-25T07:50:23.000Z</time>
      </trkpt>
      <trkpt lat="47.49965" lon="6.72974">
        <ele>339</ele>
        <time>2015-05-25T07:50:24.000Z</time>
      </trkpt>
      <trkpt lat="47.4997" lon="6.72973">
        <ele>338</ele>
        <time>2015-05-25T07:50:25.000Z</time>
      </trkpt>
      <trkpt lat="47.49976" lon="6.72976">
        <ele>338</ele>
        <time>2015-05-25T07:50:26.000Z</time>
      </trkpt>
      <trkpt lat="47.49982" lon="6.72981">
        <ele>338</ele>
        <time>2015-05-25T07:50:27.000Z</time>
      </trkpt>
      <trkpt lat="47.49987" lon="6.72988">
        <ele>338</ele>
        <time>2015-05-25T07:50:28.000Z</time>
      </trkpt>
      <trkpt lat="47.49992" lon="6.72995">
        <ele>338</ele>
        <time>2015-05-25T07:50:29.000Z</time>
      </trkpt>
      <trkpt lat="47.49998" lon="6.73002">
        <ele>337</ele>
        <time>2015-05-25T07:50:30.000Z</time>
      </trkpt>
      <trkpt lat="47.50003" lon="6.73009">
        <ele>337</ele>
        <time>2015-05-25T07:50:31.000Z</time>
      </trkpt>
      <trkpt lat="47.50007" lon="6.73017">
        <ele>337</ele>
        <time>2015-05-25T07:50:32.000Z</time>
      </trkpt>
      <trkpt lat="47.50011" lon="6.73024">
        <ele>337</ele>
        <time>2015-05-25T07:50:33.000Z</time>
      </trkpt>
      <trkpt lat="47.50015" lon="6.73031">
        <ele>337</ele>
        <time>2015-05-25T07:50:34.000Z</time>
      </trkpt>
      <trkpt lat="47.50019" lon="6.73037">
        <ele>337</ele>
        <time>2015-05-25T07:50:35.000Z</time>
      </trkpt>
      <trkpt lat="47.50024" lon="6.73044">
        <ele>337</ele>
        <time>2015-05-25T07:50:36.000Z</time>
      </trkpt>
      <trkpt lat="47.50029" lon="6.7305">
        <ele>337</ele>
        <time>2015-05-25T07:50:37.000Z</time>
      </trkpt>
      <trkpt lat="47.50033" lon="6.73056">
        <ele>337</ele>
        <time>2015-05-25T07:50:38.000Z</time>
      </trkpt>
      <trkpt lat="47.50039" lon="6.73061">
        <ele>337</ele>
        <time>2015-05-25T07:50:39.000Z</time>
      </trkpt>
      <trkpt lat="47.50043" lon="6.73066">
        <ele>337</ele>
        <time>2015-05-25T07:50:40.000Z</time>
      </trkpt>
      <trkpt lat="47.50048" lon="6.73071">
        <ele>337</ele>
        <time>2015-05-25T07:50:41.000Z</time>
      </trkpt>
      <trkpt lat="47.50052" lon="6.73077">
        <ele>337</ele>
        <time>2015-05-25T07:50:42.000Z</time>
      </trkpt>
      <trkpt lat="47.50057" lon="6.73083">
        <ele>337</ele>
        <time>2015-05-25T07:50:43.000Z</time>
      </trkpt>
      <trkpt lat="47.50061" lon="6.73086">
        <ele>337</ele>
        <time>2015-05-25T07:50:44.000Z</time>
      </trkpt>
      <trkpt lat="47.50065" lon="6.73091">
        <ele>337</ele>
        <time>2015-05-25T07:50:45.000Z</time>
      </trkpt>
      <trkpt lat="47.50069" lon="6.73096">
        <ele>337</ele>
        <time>2015-05-25T07:50:46.000Z</time>
      </trkpt>
      <trkpt lat="47.50075" lon="6.73101">
        <ele>337</ele>
        <time>2015-05-25T07:50:47.000Z</time>
      </trkpt>
      <trkpt lat="47.5008" lon="6.73106">
        <ele>337</ele>
        <time>2015-05-25T07:50:48.000Z</time>
      </trkpt>
      <trkpt lat="47.50085" lon="6.7311">
        <ele>339</ele>
        <time>2015-05-25T07:50:49.000Z</time>
      </trkpt>
      <trkpt lat="47.5009" lon="6.73115">
        <ele>339</ele>
        <time>2015-05-25T07:50:50.000Z</time>
      </trkpt>
      <trkpt lat="47.50095" lon="6.73119">
        <ele>339</ele>
        <time>2015-05-25T07:50:51.000Z</time>
      </trkpt>
      <trkpt lat="47.50101" lon="6.7312">
        <ele>339</ele>
        <time>2015-05-25T07:50:52.000Z</time>
      </trkpt>
      <trkpt lat="47.50107" lon="6.73122">
        <ele>339</ele>
        <time>2015-05-25T07:50:53.000Z</time>
      </trkpt>
      <trkpt lat="47.50112" lon="6.73124">
        <ele>339</ele>
        <time>2015-05-25T07:50:54.000Z</time>
      </trkpt>
      <trkpt lat="47.50116" lon="6.73125">
        <ele>339</ele>
        <time>2015-05-25T07:50:55.000Z</time>
      </trkpt>
      <trkpt lat="47.50121" lon="6.73126">
        <ele>339</ele>
        <time>2015-05-25T07:50:56.000Z</time>
      </trkpt>
      <trkpt lat="47.50125" lon="6.73126">
        <ele>340</ele>
        <time>2015-05-25T07:50:57.000Z</time>
      </trkpt>
      <trkpt lat="47.50129" lon="6.73127">
        <ele>340</ele>
        <time>2015-05-25T07:50:58.000Z</time>
      </trkpt>
      <trkpt lat="47.50132" lon="6.73127">
        <ele>340</ele>
        <time>2015-05-25T07:50:59.000Z</time>
      </trkpt>
      <trkpt lat="47.50136" lon="6.73126">
        <ele>340</ele>
        <time>2015-05-25T07:51:00.000Z</time>
      </trkpt>
      <trkpt lat="47.50139" lon="6.73126">
        <ele>340</ele>
        <time>2015-05-25T07:51:01.000Z</time>
      </trkpt>
      <trkpt lat="47.50143" lon="6.73125">
        <ele>340</ele>
        <time>2015-05-25T07:51:02.000Z</time>
      </trkpt>
      <trkpt lat="47.50146" lon="6.73125">
        <ele>340</ele>
        <time>2015-05-25T07:51:03.000Z</time>
      </trkpt>
      <trkpt lat="47.5015" lon="6.73125">
        <ele>340</ele>
        <time>2015-05-25T07:51:04.000Z</time>
      </trkpt>
      <trkpt lat="47.50154" lon="6.73126">
        <ele>340</ele>
        <time>2015-05-25T07:51:05.000Z</time>
      </trkpt>
      <trkpt lat="47.50158" lon="6.73126">
        <ele>340</ele>
        <time>2015-05-25T07:51:06.000Z</time>
      </trkpt>
      <trkpt lat="47.50161" lon="6.73127">
        <ele>340</ele>
        <time>2015-05-25T07:51:07.000Z</time>
      </trkpt>
      <trkpt lat="47.50165" lon="6.73128">
        <ele>340</ele>
        <time>2015-05-25T07:51:08.000Z</time>
      </trkpt>
      <trkpt lat="47.50168" lon="6.7313">
        <ele>341</ele>
        <time>2015-05-25T07:51:09.000Z</time>
      </trkpt>
      <trkpt lat="47.50171" lon="6.73132">
        <ele>341</ele>
        <time>2015-05-25T07:51:10.000Z</time>
      </trkpt>
      <trkpt lat="47.50174" lon="6.73135">
        <ele>341</ele>
        <time>2015-05-25T07:51:11.000Z</time>
      </trkpt>
      <trkpt lat="47.50176" lon="6.73138">
        <ele>341</ele>
        <time>2015-05-25T07:51:12.000Z</time>
      </trkpt>
      <trkpt lat="47.50178" lon="6.73141">
        <ele>341</ele>
        <time>2015-05-25T07:51:13.000Z</time>
      </trkpt>
      <trkpt lat="47.5018" lon="6.73142">
        <ele>341</ele>
        <time>2015-05-25T07:51:14.000Z</time>
      </trkpt>
      <trkpt lat="47.50183" lon="6.73142">
        <ele>341</ele>
        <time>2015-05-25T07:51:15.000Z</time>
      </trkpt>
      <trkpt lat="47.50185" lon="6.73141">
        <ele>341</ele>
        <time>2015-05-25T07:51:16.000Z</time>
      </trkpt>
      <trkpt lat="47.50188" lon="6.73139">
        <ele>341</ele>
        <time>2015-05-25T07:51:17.000Z</time>
      </trkpt>
      <trkpt lat="47.50192" lon="6.73125">
        <ele>341</ele>
        <time>2015-05-25T07:51:18.000Z</time>
      </trkpt>
      <trkpt lat="47.50196" lon="6.73119">
        <ele>341</ele>
        <time>2015-05-25T07:51:19.000Z</time>
      </trkpt>
      <trkpt lat="47.50199" lon="6.73112">
        <ele>341</ele>
        <time>2015-05-25T07:51:20.000Z</time>
      </trkpt>
      <trkpt lat="47.50202" lon="6.73105">
        <ele>341</ele>
        <time>2015-05-25T07:51:21.000Z</time>
      </trkpt>
      <trkpt lat="47.50204" lon="6.73099">
        <ele>341</ele>
        <time>2015-05-25T07:51:22.000Z</time>
      </trkpt>
      <trkpt lat="47.50207" lon="6.73091">
        <ele>341</ele>
        <time>2015-05-25T07:51:23.000Z</time>
      </trkpt>
      <trkpt lat="47.50209" lon="6.73084">
        <ele>341</ele>
        <time>2015-05-25T07:51:24.000Z</time>
      </trkpt>
      <trkpt lat="47.50212" lon="6.73077">
        <ele>341</ele>
        <time>2015-05-25T07:51:25.000Z</time>
      </trkpt>
      <trkpt lat="47.50215" lon="6.7307">
        <ele>341</ele>
        <time>2015-05-25T07:51:26.000Z</time>
      </trkpt>
      <trkpt lat="47.50217" lon="6.73063">
        <ele>341</ele>
        <time>2015-05-25T07:51:27.000Z</time>
      </trkpt>
      <trkpt lat="47.5022" lon="6.73056">
        <ele>341</ele>
        <time>2015-05-25T07:51:28.000Z</time>
      </trkpt>
      <trkpt lat="47.50223" lon="6.73048">
        <ele>341</ele>
        <time>2015-05-25T07:51:29.000Z</time>
      </trkpt>
      <trkpt lat="47.50227" lon="6.73042">
        <ele>341</ele>
        <time>2015-05-25T07:51:30.000Z</time>
      </trkpt>
      <trkpt lat="47.5023" lon="6.73035">
        <ele>341</ele>
        <time>2015-05-25T07:51:31.000Z</time>
      </trkpt>
      <trkpt lat="47.50233" lon="6.73029">
        <ele>341</ele>
        <time>2015-05-25T07:51:32.000Z</time>
      </trkpt>
      <trkpt lat="47.50236" lon="6.73022">
        <ele>341</ele>
        <time>2015-05-25T07:51:33.000Z</time>
      </trkpt>
      <trkpt lat="47.50239" lon="6.73015">
        <ele>341</ele>
        <time>2015-05-25T07:51:34.000Z</time>
      </trkpt>
      <trkpt lat="47.50241" lon="6.73008">
        <ele>341</ele>
        <time>2015-05-25T07:51:35.000Z</time>
      </trkpt>
      <trkpt lat="47.50244" lon="6.73">
        <ele>341</ele>
        <time>2015-05-25T07:51:36.000Z</time>
      </trkpt>
      <trkpt lat="47.50246" lon="6.72994">
        <ele>341</ele>
        <time>2015-05-25T07:51:37.000Z</time>
      </trkpt>
      <trkpt lat="47.5025" lon="6.72988">
        <ele>341</ele>
        <time>2015-05-25T07:51:38.000Z</time>
      </trkpt>
      <trkpt lat="47.50252" lon="6.72982">
        <ele>341</ele>
        <time>2015-05-25T07:51:39.000Z</time>
      </trkpt>
      <trkpt lat="47.50255" lon="6.72976">
        <ele>342</ele>
        <time>2015-05-25T07:51:40.000Z</time>
      </trkpt>
      <trkpt lat="47.50258" lon="6.72969">
        <ele>342</ele>
        <time>2015-05-25T07:51:41.000Z</time>
      </trkpt>
      <trkpt lat="47.5026" lon="6.72963">
        <ele>342</ele>
        <time>2015-05-25T07:51:42.000Z</time>
      </trkpt>
      <trkpt lat="47.50263" lon="6.72956">
        <ele>342</ele>
        <time>2015-05-25T07:51:43.000Z</time>
      </trkpt>
      <trkpt lat="47.50265" lon="6.72951">
        <ele>341</ele>
        <time>2015-05-25T07:51:44.000Z</time>
      </trkpt>
      <trkpt lat="47.50268" lon="6.72946">
        <ele>341</ele>
        <time>2015-05-25T07:51:45.000Z</time>
      </trkpt>
      <trkpt lat="47.5027" lon="6.7294">
        <ele>341</ele>
        <time>2015-05-25T07:51:46.000Z</time>
      </trkpt>
      <trkpt lat="47.50272" lon="6.72933">
        <ele>341</ele>
        <time>2015-05-25T07:51:47.000Z</time>
      </trkpt>
      <trkpt lat="47.50275" lon="6.72927">
        <ele>341</ele>
        <time>2015-05-25T07:51:48.000Z</time>
      </trkpt>
      <trkpt lat="47.50276" lon="6.72919">
        <ele>341</ele>
        <time>2015-05-25T07:51:49.000Z</time>
      </trkpt>
      <trkpt lat="47.50278" lon="6.72914">
        <ele>341</ele>
        <time>2015-05-25T07:51:50.000Z</time>
      </trkpt>
      <trkpt lat="47.50281" lon="6.72909">
        <ele>341</ele>
        <time>2015-05-25T07:51:51.000Z</time>
      </trkpt>
      <trkpt lat="47.50282" lon="6.72902">
        <ele>341</ele>
        <time>2015-05-25T07:51:52.000Z</time>
      </trkpt>
      <trkpt lat="47.50284" lon="6.72898">
        <ele>341</ele>
        <time>2015-05-25T07:51:53.000Z</time>
      </trkpt>
      <trkpt lat="47.50288" lon="6.72896">
        <ele>341</ele>
        <time>2015-05-25T07:51:54.000Z</time>
      </trkpt>
      <trkpt lat="47.50293" lon="6.72897">
        <ele>342</ele>
        <time>2015-05-25T07:51:55.000Z</time>
      </trkpt>
      <trkpt lat="47.50298" lon="6.72899">
        <ele>342</ele>
        <time>2015-05-25T07:51:56.000Z</time>
      </trkpt>
      <trkpt lat="47.50301" lon="6.72901">
        <ele>342</ele>
        <time>2015-05-25T07:51:57.000Z</time>
      </trkpt>
      <trkpt lat="47.50305" lon="6.72903">
        <ele>342</ele>
        <time>2015-05-25T07:51:58.000Z</time>
      </trkpt>
      <trkpt lat="47.50307" lon="6.72907">
        <ele>342</ele>
        <time>2015-05-25T07:51:59.000Z</time>
      </trkpt>
      <trkpt lat="47.50312" lon="6.72909">
        <ele>342</ele>
        <time>2015-05-25T07:52:00.000Z</time>
      </trkpt>
      <trkpt lat="47.50315" lon="6.72909">
        <ele>342</ele>
        <time>2015-05-25T07:52:01.000Z</time>
      </trkpt>
      <trkpt lat="47.50318" lon="6.72911">
        <ele>342</ele>
        <time>2015-05-25T07:52:02.000Z</time>
      </trkpt>
      <trkpt lat="47.50322" lon="6.72912">
        <ele>342</ele>
        <time>2015-05-25T07:52:03.000Z</time>
      </trkpt>
      <trkpt lat="47.50325" lon="6.72914">
        <ele>343</ele>
        <time>2015-05-25T07:52:04.000Z</time>
      </trkpt>
      <trkpt lat="47.50329" lon="6.72916">
        <ele>343</ele>
        <time>2015-05-25T07:52:05.000Z</time>
      </trkpt>
      <trkpt lat="47.50332" lon="6.72918">
        <ele>343</ele>
        <time>2015-05-25T07:52:06.000Z</time>
      </trkpt>
      <trkpt lat="47.50336" lon="6.7292">
        <ele>344</ele>
        <time>2015-05-25T07:52:07.000Z</time>
      </trkpt>
      <trkpt lat="47.5034" lon="6.72922">
        <ele>344</ele>
        <time>2015-05-25T07:52:08.000Z</time>
      </trkpt>
      <trkpt lat="47.50343" lon="6.72923">
        <ele>344</ele>
        <time>2015-05-25T07:52:09.000Z</time>
      </trkpt>
      <trkpt lat="47.50346" lon="6.72924">
        <ele>345</ele>
        <time>2015-05-25T07:52:10.000Z</time>
      </trkpt>
      <trkpt lat="47.50349" lon="6.72925">
        <ele>345</ele>
        <time>2015-05-25T07:52:11.000Z</time>
      </trkpt>
      <trkpt lat="47.50352" lon="6.72925">
        <ele>345</ele>
        <time>2015-05-25T07:52:12.000Z</time>
      </trkpt>
      <trkpt lat="47.50354" lon="6.72925">
        <ele>345</ele>
        <time>2015-05-25T07:52:13.000Z</time>
      </trkpt>
      <trkpt lat="47.50357" lon="6.72926">
        <ele>345</ele>
        <time>2015-05-25T07:52:14.000Z</time>
      </trkpt>
      <trkpt lat="47.50359" lon="6.72926">
        <ele>345</ele>
        <time>2015-05-25T07:52:15.000Z</time>
      </trkpt>
      <trkpt lat="47.50362" lon="6.72927">
        <ele>345</ele>
        <time>2015-05-25T07:52:16.000Z</time>
      </trkpt>
      <trkpt lat="47.50365" lon="6.72927">
        <ele>346</ele>
        <time>2015-05-25T07:52:17.000Z</time>
      </trkpt>
      <trkpt lat="47.50368" lon="6.72928">
        <ele>346</ele>
        <time>2015-05-25T07:52:18.000Z</time>
      </trkpt>
      <trkpt lat="47.50371" lon="6.72929">
        <ele>346</ele>
        <time>2015-05-25T07:52:19.000Z</time>
      </trkpt>
      <trkpt lat="47.50374" lon="6.7293">
        <ele>346</ele>
        <time>2015-05-25T07:52:20.000Z</time>
      </trkpt>
      <trkpt lat="47.50377" lon="6.72931">
        <ele>346</ele>
        <time>2015-05-25T07:52:21.000Z</time>
      </trkpt>
      <trkpt lat="47.5038" lon="6.72932">
        <ele>346</ele>
        <time>2015-05-25T07:52:22.000Z</time>
      </trkpt>
      <trkpt lat="47.50383" lon="6.72934">
        <ele>347</ele>
        <time>2015-05-25T07:52:23.000Z</time>
      </trkpt>
      <trkpt lat="47.50386" lon="6.72935">
        <ele>347</ele>
        <time>2015-05-25T07:52:24.000Z</time>
      </trkpt>
      <trkpt lat="47.50389" lon="6.72936">
        <ele>347</ele>
        <time>2015-05-25T07:52:25.000Z</time>
      </trkpt>
      <trkpt lat="47.50392" lon="6.72936">
        <ele>347</ele>
        <time>2015-05-25T07:52:26.000Z</time>
      </trkpt>
      <trkpt lat="47.50395" lon="6.72937">
        <ele>347</ele>
        <time>2015-05-25T07:52:27.000Z</time>
      </trkpt>
      <trkpt lat="47.50397" lon="6.72937">
        <ele>347</ele>
        <time>2015-05-25T07:52:28.000Z</time>
      </trkpt>
      <trkpt lat="47.50399" lon="6.72938">
        <ele>347</ele>
        <time>2015-05-25T07:52:29.000Z</time>
      </trkpt>
      <trkpt lat="47.50402" lon="6.72938">
        <ele>347</ele>
        <time>2015-05-25T07:52:30.000Z</time>
      </trkpt>
      <trkpt lat="47.50404" lon="6.72939">
        <ele>347</ele>
        <time>2015-05-25T07:52:31.000Z</time>
      </trkpt>
      <trkpt lat="47.50407" lon="6.7294">
        <ele>347</ele>
        <time>2015-05-25T07:52:32.000Z</time>
      </trkpt>
      <trkpt lat="47.5041" lon="6.7294">
        <ele>347</ele>
        <time>2015-05-25T07:52:33.000Z</time>
      </trkpt>
      <trkpt lat="47.50413" lon="6.72941">
        <ele>347</ele>
        <time>2015-05-25T07:52:34.000Z</time>
      </trkpt>
      <trkpt lat="47.50415" lon="6.72941">
        <ele>347</ele>
        <time>2015-05-25T07:52:35.000Z</time>
      </trkpt>
      <trkpt lat="47.50418" lon="6.72941">
        <ele>351</ele>
        <time>2015-05-25T07:52:36.000Z</time>
      </trkpt>
      <trkpt lat="47.50421" lon="6.72942">
        <ele>352</ele>
        <time>2015-05-25T07:52:37.000Z</time>
      </trkpt>
      <trkpt lat="47.50424" lon="6.72942">
        <ele>352</ele>
        <time>2015-05-25T07:52:38.000Z</time>
      </trkpt>
      <trkpt lat="47.50427" lon="6.72943">
        <ele>352</ele>
        <time>2015-05-25T07:52:39.000Z</time>
      </trkpt>
      <trkpt lat="47.50429" lon="6.72944">
        <ele>352</ele>
        <time>2015-05-25T07:52:40.000Z</time>
      </trkpt>
      <trkpt lat="47.50431" lon="6.72944">
        <ele>352</ele>
        <time>2015-05-25T07:52:41.000Z</time>
      </trkpt>
      <trkpt lat="47.50434" lon="6.72944">
        <ele>352</ele>
        <time>2015-05-25T07:52:42.000Z</time>
      </trkpt>
      <trkpt lat="47.50438" lon="6.72945">
        <ele>352</ele>
        <time>2015-05-25T07:52:44.000Z</time>
      </trkpt>
      <trkpt lat="47.5044" lon="6.72946">
        <ele>352</ele>
        <time>2015-05-25T07:52:45.000Z</time>
      </trkpt>
      <trkpt lat="47.50444" lon="6.72947">
        <ele>353</ele>
        <time>2015-05-25T07:52:47.000Z</time>
      </trkpt>
      <trkpt lat="47.50446" lon="6.72947">
        <ele>353</ele>
        <time>2015-05-25T07:52:48.000Z</time>
      </trkpt>
      <trkpt lat="47.5045" lon="6.72947">
        <ele>353</ele>
        <time>2015-05-25T07:52:50.000Z</time>
      </trkpt>
      <trkpt lat="47.50452" lon="6.72946">
        <ele>353</ele>
        <time>2015-05-25T07:52:51.000Z</time>
      </trkpt>
      <trkpt lat="47.50456" lon="6.72944">
        <ele>353</ele>
        <time>2015-05-25T07:52:53.000Z</time>
      </trkpt>
      <trkpt lat="47.50458" lon="6.72943">
        <ele>353</ele>
        <time>2015-05-25T07:52:54.000Z</time>
      </trkpt>
      <trkpt lat="47.5046" lon="6.72942">
        <ele>353</ele>
        <time>2015-05-25T07:52:55.000Z</time>
      </trkpt>
      <trkpt lat="47.50462" lon="6.7294">
        <ele>354</ele>
        <time>2015-05-25T07:52:56.000Z</time>
      </trkpt>
      <trkpt lat="47.50465" lon="6.72936">
        <ele>354</ele>
        <time>2015-05-25T07:52:58.000Z</time>
      </trkpt>
      <trkpt lat="47.50467" lon="6.72934">
        <ele>354</ele>
        <time>2015-05-25T07:52:59.000Z</time>
      </trkpt>
      <trkpt lat="47.50468" lon="6.72931">
        <ele>354</ele>
        <time>2015-05-25T07:53:00.000Z</time>
      </trkpt>
      <trkpt lat="47.5047" lon="6.72929">
        <ele>354</ele>
        <time>2015-05-25T07:53:01.000Z</time>
      </trkpt>
      <trkpt lat="47.50471" lon="6.72926">
        <ele>354</ele>
        <time>2015-05-25T07:53:02.000Z</time>
      </trkpt>
      <trkpt lat="47.50473" lon="6.72924">
        <ele>354</ele>
        <time>2015-05-25T07:53:03.000Z</time>
      </trkpt>
      <trkpt lat="47.50475" lon="6.72922">
        <ele>355</ele>
        <time>2015-05-25T07:53:04.000Z</time>
      </trkpt>
      <trkpt lat="47.50477" lon="6.72919">
        <ele>355</ele>
        <time>2015-05-25T07:53:05.000Z</time>
      </trkpt>
      <trkpt lat="47.50479" lon="6.72917">
        <ele>354</ele>
        <time>2015-05-25T07:53:06.000Z</time>
      </trkpt>
      <trkpt lat="47.50481" lon="6.72914">
        <ele>354</ele>
        <time>2015-05-25T07:53:07.000Z</time>
      </trkpt>
      <trkpt lat="47.50482" lon="6.72912">
        <ele>355</ele>
        <time>2015-05-25T07:53:08.000Z</time>
      </trkpt>
      <trkpt lat="47.50484" lon="6.72909">
        <ele>355</ele>
        <time>2015-05-25T07:53:09.000Z</time>
      </trkpt>
      <trkpt lat="47.50486" lon="6.72904">
        <ele>355</ele>
        <time>2015-05-25T07:53:11.000Z</time>
      </trkpt>
      <trkpt lat="47.50487" lon="6.72902">
        <ele>355</ele>
        <time>2015-05-25T07:53:12.000Z</time>
      </trkpt>
      <trkpt lat="47.5049" lon="6.729">
        <ele>355</ele>
        <time>2015-05-25T07:53:14.000Z</time>
      </trkpt>
      <trkpt lat="47.50492" lon="6.729">
        <ele>355</ele>
        <time>2015-05-25T07:53:15.000Z</time>
      </trkpt>
      <trkpt lat="47.50495" lon="6.72897">
        <ele>355</ele>
        <time>2015-05-25T07:53:17.000Z</time>
      </trkpt>
      <trkpt lat="47.50497" lon="6.72895">
        <ele>355</ele>
        <time>2015-05-25T07:53:18.000Z</time>
      </trkpt>
      <trkpt lat="47.50499" lon="6.72892">
        <ele>355</ele>
        <time>2015-05-25T07:53:19.000Z</time>
      </trkpt>
      <trkpt lat="47.50501" lon="6.72889">
        <ele>362</ele>
        <time>2015-05-25T07:53:20.000Z</time>
      </trkpt>
      <trkpt lat="47.50503" lon="6.72886">
        <ele>362</ele>
        <time>2015-05-25T07:53:21.000Z</time>
      </trkpt>
      <trkpt lat="47.50505" lon="6.72883">
        <ele>362</ele>
        <time>2015-05-25T07:53:22.000Z</time>
      </trkpt>
      <trkpt lat="47.50507" lon="6.72878">
        <ele>363</ele>
        <time>2015-05-25T07:53:24.000Z</time>
      </trkpt>
      <trkpt lat="47.50508" lon="6.72877">
        <ele>363</ele>
        <time>2015-05-25T07:53:25.000Z</time>
      </trkpt>
      <trkpt lat="47.50512" lon="6.72873">
        <ele>363</ele>
        <time>2015-05-25T07:53:27.000Z</time>
      </trkpt>
      <trkpt lat="47.50513" lon="6.72871">
        <ele>363</ele>
        <time>2015-05-25T07:53:28.000Z</time>
      </trkpt>
      <trkpt lat="47.50516" lon="6.72869">
        <ele>363</ele>
        <time>2015-05-25T07:53:29.000Z</time>
      </trkpt>
      <trkpt lat="47.50518" lon="6.72867">
        <ele>363</ele>
        <time>2015-05-25T07:53:30.000Z</time>
      </trkpt>
      <trkpt lat="47.5052" lon="6.72865">
        <ele>363</ele>
        <time>2015-05-25T07:53:31.000Z</time>
      </trkpt>
      <trkpt lat="47.50522" lon="6.72863">
        <ele>363</ele>
        <time>2015-05-25T07:53:32.000Z</time>
      </trkpt>
      <trkpt lat="47.50524" lon="6.72862">
        <ele>363</ele>
        <time>2015-05-25T07:53:33.000Z</time>
      </trkpt>
      <trkpt lat="47.50526" lon="6.7286">
        <ele>364</ele>
        <time>2015-05-25T07:53:34.000Z</time>
      </trkpt>
      <trkpt lat="47.50528" lon="6.72858">
        <ele>364</ele>
        <time>2015-05-25T07:53:35.000Z</time>
      </trkpt>
      <trkpt lat="47.5053" lon="6.72857">
        <ele>364</ele>
        <time>2015-05-25T07:53:36.000Z</time>
      </trkpt>
      <trkpt lat="47.50532" lon="6.72855">
        <ele>364</ele>
        <time>2015-05-25T07:53:37.000Z</time>
      </trkpt>
      <trkpt lat="47.50534" lon="6.72854">
        <ele>364</ele>
        <time>2015-05-25T07:53:38.000Z</time>
      </trkpt>
      <trkpt lat="47.50536" lon="6.72852">
        <ele>364</ele>
        <time>2015-05-25T07:53:39.000Z</time>
      </trkpt>
      <trkpt lat="47.50538" lon="6.7285">
        <ele>365</ele>
        <time>2015-05-25T07:53:40.000Z</time>
      </trkpt>
      <trkpt lat="47.5054" lon="6.72848">
        <ele>365</ele>
        <time>2015-05-25T07:53:41.000Z</time>
      </trkpt>
      <trkpt lat="47.50542" lon="6.72846">
        <ele>365</ele>
        <time>2015-05-25T07:53:42.000Z</time>
      </trkpt>
      <trkpt lat="47.50546" lon="6.72842">
        <ele>366</ele>
        <time>2015-05-25T07:53:44.000Z</time>
      </trkpt>
      <trkpt lat="47.50547" lon="6.72841">
        <ele>366</ele>
        <time>2015-05-25T07:53:45.000Z</time>
      </trkpt>
      <trkpt lat="47.50551" lon="6.7284">
        <ele>366</ele>
        <time>2015-05-25T07:53:47.000Z</time>
      </trkpt>
      <trkpt lat="47.50553" lon="6.72838">
        <ele>366</ele>
        <time>2015-05-25T07:53:48.000Z</time>
      </trkpt>
      <trkpt lat="47.50557" lon="6.72836">
        <ele>367</ele>
        <time>2015-05-25T07:53:50.000Z</time>
      </trkpt>
      <trkpt lat="47.50559" lon="6.72835">
        <ele>367</ele>
        <time>2015-05-25T07:53:51.000Z</time>
      </trkpt>
      <trkpt lat="47.50562" lon="6.72832">
        <ele>366</ele>
        <time>2015-05-25T07:53:53.000Z</time>
      </trkpt>
      <trkpt lat="47.50564" lon="6.72831">
        <ele>366</ele>
        <time>2015-05-25T07:53:54.000Z</time>
      </trkpt>
      <trkpt lat="47.50568" lon="6.72829">
        <ele>367</ele>
        <time>2015-05-25T07:53:56.000Z</time>
      </trkpt>
      <trkpt lat="47.5057" lon="6.72828">
        <ele>367</ele>
        <time>2015-05-25T07:53:57.000Z</time>
      </trkpt>
      <trkpt lat="47.50574" lon="6.72825">
        <ele>368</ele>
        <time>2015-05-25T07:53:59.000Z</time>
      </trkpt>
      <trkpt lat="47.50576" lon="6.72824">
        <ele>368</ele>
        <time>2015-05-25T07:54:00.000Z</time>
      </trkpt>
      <trkpt lat="47.50579" lon="6.72821">
        <ele>368</ele>
        <time>2015-05-25T07:54:02.000Z</time>
      </trkpt>
      <trkpt lat="47.5058" lon="6.72819">
        <ele>368</ele>
        <time>2015-05-25T07:54:03.000Z</time>
      </trkpt>
      <trkpt lat="47.50583" lon="6.72817">
        <ele>375</ele>
        <time>2015-05-25T07:54:05.000Z</time>
      </trkpt>
      <trkpt lat="47.50585" lon="6.72816">
        <ele>375</ele>
        <time>2015-05-25T07:54:06.000Z</time>
      </trkpt>
      <trkpt lat="47.50588" lon="6.72813">
        <ele>375</ele>
        <time>2015-05-25T07:54:08.000Z</time>
      </trkpt>
      <trkpt lat="47.50589" lon="6.72812">
        <ele>376</ele>
        <time>2015-05-25T07:54:09.000Z</time>
      </trkpt>
      <trkpt lat="47.50593" lon="6.72809">
        <ele>376</ele>
        <time>2015-05-25T07:54:12.000Z</time>
      </trkpt>
      <trkpt lat="47.50594" lon="6.72809">
        <ele>376</ele>
        <time>2015-05-25T07:54:13.000Z</time>
      </trkpt>
      <trkpt lat="47.50597" lon="6.72805">
        <ele>377</ele>
        <time>2015-05-25T07:54:16.000Z</time>
      </trkpt>
      <trkpt lat="47.50598" lon="6.72803">
        <ele>377</ele>
        <time>2015-05-25T07:54:17.000Z</time>
      </trkpt>
      <trkpt lat="47.50601" lon="6.72799">
        <ele>377</ele>
        <time>2015-05-25T07:54:19.000Z</time>
      </trkpt>
      <trkpt lat="47.50603" lon="6.72797">
        <ele>377</ele>
        <time>2015-05-25T07:54:20.000Z</time>
      </trkpt>
      <trkpt lat="47.50607" lon="6.72795">
        <ele>378</ele>
        <time>2015-05-25T07:54:22.000Z</time>
      </trkpt>
      <trkpt lat="47.50609" lon="6.72795">
        <ele>378</ele>
        <time>2015-05-25T07:54:23.000Z</time>
      </trkpt>
      <trkpt lat="47.50612" lon="6.72795">
        <ele>378</ele>
        <time>2015-05-25T07:54:25.000Z</time>
      </trkpt>
      <trkpt lat="47.50614" lon="6.72795">
        <ele>379</ele>
        <time>2015-05-25T07:54:26.000Z</time>
      </trkpt>
      <trkpt lat="47.50617" lon="6.72794">
        <ele>379</ele>
        <time>2015-05-25T07:54:28.000Z</time>
      </trkpt>
      <trkpt lat="47.50618" lon="6.72792">
        <ele>379</ele>
        <time>2015-05-25T07:54:29.000Z</time>
      </trkpt>
      <trkpt lat="47.50621" lon="6.72789">
        <ele>379</ele>
        <time>2015-05-25T07:54:31.000Z</time>
      </trkpt>
      <trkpt lat="47.50623" lon="6.72788">
        <ele>379</ele>
        <time>2015-05-25T07:54:32.000Z</time>
      </trkpt>
      <trkpt lat="47.50626" lon="6.72785">
        <ele>380</ele>
        <time>2015-05-25T07:54:34.000Z</time>
      </trkpt>
      <trkpt lat="47.50627" lon="6.72784">
        <ele>380</ele>
        <time>2015-05-25T07:54:35.000Z</time>
      </trkpt>
      <trkpt lat="47.50629" lon="6.72781">
        <ele>380</ele>
        <time>2015-05-25T07:54:37.000Z</time>
      </trkpt>
      <trkpt lat="47.50631" lon="6.7278">
        <ele>380</ele>
        <time>2015-05-25T07:54:38.000Z</time>
      </trkpt>
      <trkpt lat="47.50635" lon="6.72777">
        <ele>381</ele>
        <time>2015-05-25T07:54:40.000Z</time>
      </trkpt>
      <trkpt lat="47.50636" lon="6.72776">
        <ele>381</ele>
        <time>2015-05-25T07:54:41.000Z</time>
      </trkpt>
      <trkpt lat="47.50639" lon="6.72773">
        <ele>381</ele>
        <time>2015-05-25T07:54:43.000Z</time>
      </trkpt>
      <trkpt lat="47.5064" lon="6.72771">
        <ele>382</ele>
        <time>2015-05-25T07:54:44.000Z</time>
      </trkpt>
      <trkpt lat="47.50644" lon="6.72769">
        <ele>382</ele>
        <time>2015-05-25T07:54:46.000Z</time>
      </trkpt>
      <trkpt lat="47.50645" lon="6.72767">
        <ele>382</ele>
        <time>2015-05-25T07:54:47.000Z</time>
      </trkpt>
      <trkpt lat="47.50647" lon="6.72763">
        <ele>383</ele>
        <time>2015-05-25T07:54:49.000Z</time>
      </trkpt>
      <trkpt lat="47.50649" lon="6.72761">
        <ele>383</ele>
        <time>2015-05-25T07:54:50.000Z</time>
      </trkpt>
      <trkpt lat="47.50652" lon="6.72758">
        <ele>384</ele>
        <time>2015-05-25T07:54:52.000Z</time>
      </trkpt>
      <trkpt lat="47.50654" lon="6.72756">
        <ele>384</ele>
        <time>2015-05-25T07:54:53.000Z</time>
      </trkpt>
      <trkpt lat="47.50658" lon="6.72752">
        <ele>385</ele>
        <time>2015-05-25T07:54:55.000Z</time>
      </trkpt>
      <trkpt lat="47.50659" lon="6.72751">
        <ele>386</ele>
        <time>2015-05-25T07:54:56.000Z</time>
      </trkpt>
      <trkpt lat="47.50661" lon="6.72747">
        <ele>385</ele>
        <time>2015-05-25T07:55:00.000Z</time>
      </trkpt>
      <trkpt lat="47.50662" lon="6.72745">
        <ele>385</ele>
        <time>2015-05-25T07:55:01.000Z</time>
      </trkpt>
      <trkpt lat="47.50665" lon="6.72741">
        <ele>384</ele>
        <time>2015-05-25T07:55:03.000Z</time>
      </trkpt>
      <trkpt lat="47.50666" lon="6.72739">
        <ele>384</ele>
        <time>2015-05-25T07:55:04.000Z</time>
      </trkpt>
      <trkpt lat="47.50669" lon="6.72736">
        <ele>390</ele>
        <time>2015-05-25T07:55:06.000Z</time>
      </trkpt>
      <trkpt lat="47.5067" lon="6.72734">
        <ele>390</ele>
        <time>2015-05-25T07:55:07.000Z</time>
      </trkpt>
      <trkpt lat="47.50673" lon="6.72729">
        <ele>390</ele>
        <time>2015-05-25T07:55:09.000Z</time>
      </trkpt>
      <trkpt lat="47.50675" lon="6.72727">
        <ele>390</ele>
        <time>2015-05-25T07:55:10.000Z</time>
      </trkpt>
      <trkpt lat="47.50677" lon="6.72724">
        <ele>390</ele>
        <time>2015-05-25T07:55:11.000Z</time>
      </trkpt>
      <trkpt lat="47.50679" lon="6.72721">
        <ele>390</ele>
        <time>2015-05-25T07:55:12.000Z</time>
      </trkpt>
      <trkpt lat="47.50681" lon="6.72719">
        <ele>390</ele>
        <time>2015-05-25T07:55:13.000Z</time>
      </trkpt>
      <trkpt lat="47.50683" lon="6.72718">
        <ele>390</ele>
        <time>2015-05-25T07:55:14.000Z</time>
      </trkpt>
      <trkpt lat="47.50687" lon="6.72716">
        <ele>391</ele>
        <time>2015-05-25T07:55:16.000Z</time>
      </trkpt>
      <trkpt lat="47.50689" lon="6.72714">
        <ele>391</ele>
        <time>2015-05-25T07:55:17.000Z</time>
      </trkpt>
      <trkpt lat="47.50692" lon="6.72711">
        <ele>391</ele>
        <time>2015-05-25T07:55:19.000Z</time>
      </trkpt>
      <trkpt lat="47.50694" lon="6.72709">
        <ele>391</ele>
        <time>2015-05-25T07:55:20.000Z</time>
      </trkpt>
      <trkpt lat="47.50697" lon="6.72706">
        <ele>391</ele>
        <time>2015-05-25T07:55:22.000Z</time>
      </trkpt>
      <trkpt lat="47.50698" lon="6.72704">
        <ele>391</ele>
        <time>2015-05-25T07:55:23.000Z</time>
      </trkpt>
      <trkpt lat="47.50701" lon="6.72699">
        <ele>391</ele>
        <time>2015-05-25T07:55:25.000Z</time>
      </trkpt>
      <trkpt lat="47.50702" lon="6.72698">
        <ele>391</ele>
        <time>2015-05-25T07:55:26.000Z</time>
      </trkpt>
      <trkpt lat="47.50705" lon="6.72695">
        <ele>391</ele>
        <time>2015-05-25T07:55:29.000Z</time>
      </trkpt>
      <trkpt lat="47.50706" lon="6.72694">
        <ele>391</ele>
        <time>2015-05-25T07:55:30.000Z</time>
      </trkpt>
      <trkpt lat="47.5071" lon="6.72693">
        <ele>392</ele>
        <time>2015-05-25T07:55:32.000Z</time>
      </trkpt>
      <trkpt lat="47.50712" lon="6.72692">
        <ele>392</ele>
        <time>2015-05-25T07:55:33.000Z</time>
      </trkpt>
      <trkpt lat="47.50715" lon="6.72691">
        <ele>392</ele>
        <time>2015-05-25T07:55:34.000Z</time>
      </trkpt>
      <trkpt lat="47.50716" lon="6.72689">
        <ele>392</ele>
        <time>2015-05-25T07:55:35.000Z</time>
      </trkpt>
      <trkpt lat="47.50718" lon="6.72686">
        <ele>393</ele>
        <time>2015-05-25T07:55:36.000Z</time>
      </trkpt>
      <trkpt lat="47.5072" lon="6.72684">
        <ele>393</ele>
        <time>2015-05-25T07:55:37.000Z</time>
      </trkpt>
      <trkpt lat="47.50722" lon="6.72681">
        <ele>393</ele>
        <time>2015-05-25T07:55:39.000Z</time>
      </trkpt>
      <trkpt lat="47.50723" lon="6.72679">
        <ele>393</ele>
        <time>2015-05-25T07:55:40.000Z</time>
      </trkpt>
      <trkpt lat="47.50726" lon="6.72675">
        <ele>393</ele>
        <time>2015-05-25T07:55:42.000Z</time>
      </trkpt>
      <trkpt lat="47.50728" lon="6.72672">
        <ele>394</ele>
        <time>2015-05-25T07:55:43.000Z</time>
      </trkpt>
      <trkpt lat="47.5073" lon="6.72669">
        <ele>394</ele>
        <time>2015-05-25T07:55:44.000Z</time>
      </trkpt>
      <trkpt lat="47.50732" lon="6.72667">
        <ele>391</ele>
        <time>2015-05-25T07:55:45.000Z</time>
      </trkpt>
      <trkpt lat="47.50734" lon="6.72664">
        <ele>391</ele>
        <time>2015-05-25T07:55:46.000Z</time>
      </trkpt>
      <trkpt lat="47.50736" lon="6.72662">
        <ele>391</ele>
        <time>2015-05-25T07:55:47.000Z</time>
      </trkpt>
      <trkpt lat="47.50737" lon="6.72659">
        <ele>392</ele>
        <time>2015-05-25T07:55:48.000Z</time>
      </trkpt>
      <trkpt lat="47.50739" lon="6.72657">
        <ele>391</ele>
        <time>2015-05-25T07:55:49.000Z</time>
      </trkpt>
      <trkpt lat="47.50741" lon="6.72654">
        <ele>391</ele>
        <time>2015-05-25T07:55:50.000Z</time>
      </trkpt>
      <trkpt lat="47.50744" lon="6.7265">
        <ele>391</ele>
        <time>2015-05-25T07:55:51.000Z</time>
      </trkpt>
      <trkpt lat="47.50746" lon="6.72646">
        <ele>390</ele>
        <time>2015-05-25T07:55:52.000Z</time>
      </trkpt>
      <trkpt lat="47.50749" lon="6.72642">
        <ele>390</ele>
        <time>2015-05-25T07:55:53.000Z</time>
      </trkpt>
      <trkpt lat="47.50752" lon="6.72638">
        <ele>398</ele>
        <time>2015-05-25T07:55:54.000Z</time>
      </trkpt>
      <trkpt lat="47.50754" lon="6.72635">
        <ele>398</ele>
        <time>2015-05-25T07:55:55.000Z</time>
      </trkpt>
      <trkpt lat="47.50756" lon="6.72632">
        <ele>398</ele>
        <time>2015-05-25T07:55:56.000Z</time>
      </trkpt>
      <trkpt lat="47.50758" lon="6.72629">
        <ele>398</ele>
        <time>2015-05-25T07:55:57.000Z</time>
      </trkpt>
      <trkpt lat="47.5076" lon="6.72626">
        <ele>398</ele>
        <time>2015-05-25T07:55:58.000Z</time>
      </trkpt>
      <trkpt lat="47.50762" lon="6.72624">
        <ele>398</ele>
        <time>2015-05-25T07:55:59.000Z</time>
      </trkpt>
      <trkpt lat="47.50764" lon="6.72622">
        <ele>398</ele>
        <time>2015-05-25T07:56:00.000Z</time>
      </trkpt>
      <trkpt lat="47.50766" lon="6.7262">
        <ele>398</ele>
        <time>2015-05-25T07:56:01.000Z</time>
      </trkpt>
      <trkpt lat="47.50769" lon="6.72618">
        <ele>398</ele>
        <time>2015-05-25T07:56:02.000Z</time>
      </trkpt>
      <trkpt lat="47.50771" lon="6.72617">
        <ele>398</ele>
        <time>2015-05-25T07:56:03.000Z</time>
      </trkpt>
      <trkpt lat="47.50774" lon="6.72615">
        <ele>398</ele>
        <time>2015-05-25T07:56:04.000Z</time>
      </trkpt>
      <trkpt lat="47.50776" lon="6.72614">
        <ele>398</ele>
        <time>2015-05-25T07:56:05.000Z</time>
      </trkpt>
      <trkpt lat="47.50779" lon="6.72612">
        <ele>398</ele>
        <time>2015-05-25T07:56:06.000Z</time>
      </trkpt>
      <trkpt lat="47.50781" lon="6.7261">
        <ele>399</ele>
        <time>2015-05-25T07:56:07.000Z</time>
      </trkpt>
      <trkpt lat="47.50784" lon="6.72608">
        <ele>399</ele>
        <time>2015-05-25T07:56:08.000Z</time>
      </trkpt>
      <trkpt lat="47.50786" lon="6.72606">
        <ele>399</ele>
        <time>2015-05-25T07:56:09.000Z</time>
      </trkpt>
      <trkpt lat="47.50789" lon="6.72603">
        <ele>399</ele>
        <time>2015-05-25T07:56:11.000Z</time>
      </trkpt>
      <trkpt lat="47.50791" lon="6.72601">
        <ele>399</ele>
        <time>2015-05-25T07:56:12.000Z</time>
      </trkpt>
      <trkpt lat="47.50793" lon="6.72599">
        <ele>399</ele>
        <time>2015-05-25T07:56:13.000Z</time>
      </trkpt>
      <trkpt lat="47.50795" lon="6.72596">
        <ele>399</ele>
        <time>2015-05-25T07:56:14.000Z</time>
      </trkpt>
      <trkpt lat="47.50797" lon="6.72594">
        <ele>400</ele>
        <time>2015-05-25T07:56:15.000Z</time>
      </trkpt>
      <trkpt lat="47.50799" lon="6.72592">
        <ele>400</ele>
        <time>2015-05-25T07:56:16.000Z</time>
      </trkpt>
      <trkpt lat="47.508" lon="6.72589">
        <ele>400</ele>
        <time>2015-05-25T07:56:17.000Z</time>
      </trkpt>
      <trkpt lat="47.50802" lon="6.72587">
        <ele>400</ele>
        <time>2015-05-25T07:56:18.000Z</time>
      </trkpt>
      <trkpt lat="47.50805" lon="6.72585">
        <ele>400</ele>
        <time>2015-05-25T07:56:19.000Z</time>
      </trkpt>
      <trkpt lat="47.50807" lon="6.72583">
        <ele>394</ele>
        <time>2015-05-25T07:56:20.000Z</time>
      </trkpt>
      <trkpt lat="47.50809" lon="6.72581">
        <ele>395</ele>
        <time>2015-05-25T07:56:21.000Z</time>
      </trkpt>
      <trkpt lat="47.50811" lon="6.72579">
        <ele>395</ele>
        <time>2015-05-25T07:56:22.000Z</time>
      </trkpt>
      <trkpt lat="47.50814" lon="6.72576">
        <ele>395</ele>
        <time>2015-05-25T07:56:23.000Z</time>
      </trkpt>
      <trkpt lat="47.50817" lon="6.72573">
        <ele>396</ele>
        <time>2015-05-25T07:56:24.000Z</time>
      </trkpt>
      <trkpt lat="47.5082" lon="6.7257">
        <ele>396</ele>
        <time>2015-05-25T07:56:25.000Z</time>
      </trkpt>
      <trkpt lat="47.50823" lon="6.72566">
        <ele>395</ele>
        <time>2015-05-25T07:56:26.000Z</time>
      </trkpt>
      <trkpt lat="47.50825" lon="6.72564">
        <ele>395</ele>
        <time>2015-05-25T07:56:27.000Z</time>
      </trkpt>
      <trkpt lat="47.50827" lon="6.72561">
        <ele>395</ele>
        <time>2015-05-25T07:56:28.000Z</time>
      </trkpt>
      <trkpt lat="47.5083" lon="6.72559">
        <ele>395</ele>
        <time>2015-05-25T07:56:29.000Z</time>
      </trkpt>
      <trkpt lat="47.50833" lon="6.72558">
        <ele>395</ele>
        <time>2015-05-25T07:56:30.000Z</time>
      </trkpt>
      <trkpt lat="47.50836" lon="6.72557">
        <ele>403</ele>
        <time>2015-05-25T07:56:31.000Z</time>
      </trkpt>
      <trkpt lat="47.50838" lon="6.72556">
        <ele>403</ele>
        <time>2015-05-25T07:56:32.000Z</time>
      </trkpt>
      <trkpt lat="47.50841" lon="6.72554">
        <ele>403</ele>
        <time>2015-05-25T07:56:34.000Z</time>
      </trkpt>
      <trkpt lat="47.50842" lon="6.72553">
        <ele>403</ele>
        <time>2015-05-25T07:56:35.000Z</time>
      </trkpt>
      <trkpt lat="47.50844" lon="6.72551">
        <ele>403</ele>
        <time>2015-05-25T07:56:37.000Z</time>
      </trkpt>
      <trkpt lat="47.50846" lon="6.72549">
        <ele>403</ele>
        <time>2015-05-25T07:56:38.000Z</time>
      </trkpt>
      <trkpt lat="47.50848" lon="6.72548">
        <ele>403</ele>
        <time>2015-05-25T07:56:39.000Z</time>
      </trkpt>
      <trkpt lat="47.50851" lon="6.72547">
        <ele>403</ele>
        <time>2015-05-25T07:56:40.000Z</time>
      </trkpt>
      <trkpt lat="47.50853" lon="6.72546">
        <ele>403</ele>
        <time>2015-05-25T07:56:41.000Z</time>
      </trkpt>
      <trkpt lat="47.50855" lon="6.72545">
        <ele>403</ele>
        <time>2015-05-25T07:56:42.000Z</time>
      </trkpt>
      <trkpt lat="47.5086" lon="6.72544">
        <ele>403</ele>
        <time>2015-05-25T07:56:44.000Z</time>
      </trkpt>
      <trkpt lat="47.50862" lon="6.72544">
        <ele>403</ele>
        <time>2015-05-25T07:56:45.000Z</time>
      </trkpt>
      <trkpt lat="47.50865" lon="6.72544">
        <ele>404</ele>
        <time>2015-05-25T07:56:46.000Z</time>
      </trkpt>
      <trkpt lat="47.50868" lon="6.72544">
        <ele>404</ele>
        <time>2015-05-25T07:56:47.000Z</time>
      </trkpt>
      <trkpt lat="47.5087" lon="6.72544">
        <ele>404</ele>
        <time>2015-05-25T07:56:48.000Z</time>
      </trkpt>
      <trkpt lat="47.50872" lon="6.72543">
        <ele>404</ele>
        <time>2015-05-25T07:56:49.000Z</time>
      </trkpt>
      <trkpt lat="47.50876" lon="6.72541">
        <ele>405</ele>
        <time>2015-05-25T07:56:51.000Z</time>
      </trkpt>
      <trkpt lat="47.50878" lon="6.7254">
        <ele>405</ele>
        <time>2015-05-25T07:56:52.000Z</time>
      </trkpt>
      <trkpt lat="47.50881" lon="6.72537">
        <ele>405</ele>
        <time>2015-05-25T07:56:54.000Z</time>
      </trkpt>
      <trkpt lat="47.50882" lon="6.72536">
        <ele>405</ele>
        <time>2015-05-25T07:56:55.000Z</time>
      </trkpt>
      <trkpt lat="47.50886" lon="6.72535">
        <ele>405</ele>
        <time>2015-05-25T07:56:58.000Z</time>
      </trkpt>
      <trkpt lat="47.50888" lon="6.72535">
        <ele>405</ele>
        <time>2015-05-25T07:56:59.000Z</time>
      </trkpt>
      <trkpt lat="47.50893" lon="6.72534">
        <ele>406</ele>
        <time>2015-05-25T07:57:01.000Z</time>
      </trkpt>
      <trkpt lat="47.50895" lon="6.72533">
        <ele>406</ele>
        <time>2015-05-25T07:57:02.000Z</time>
      </trkpt>
      <trkpt lat="47.50897" lon="6.72532">
        <ele>406</ele>
        <time>2015-05-25T07:57:03.000Z</time>
      </trkpt>
      <trkpt lat="47.50899" lon="6.72531">
        <ele>406</ele>
        <time>2015-05-25T07:57:04.000Z</time>
      </trkpt>
      <trkpt lat="47.50902" lon="6.72531">
        <ele>406</ele>
        <time>2015-05-25T07:57:05.000Z</time>
      </trkpt>
      <trkpt lat="47.50904" lon="6.7253">
        <ele>406</ele>
        <time>2015-05-25T07:57:06.000Z</time>
      </trkpt>
      <trkpt lat="47.50907" lon="6.72529">
        <ele>406</ele>
        <time>2015-05-25T07:57:07.000Z</time>
      </trkpt>
      <trkpt lat="47.50909" lon="6.72528">
        <ele>406</ele>
        <time>2015-05-25T07:57:08.000Z</time>
      </trkpt>
      <trkpt lat="47.50913" lon="6.72528">
        <ele>406</ele>
        <time>2015-05-25T07:57:10.000Z</time>
      </trkpt>
      <trkpt lat="47.50915" lon="6.72528">
        <ele>406</ele>
        <time>2015-05-25T07:57:11.000Z</time>
      </trkpt>
      <trkpt lat="47.50918" lon="6.7253">
        <ele>414</ele>
        <time>2015-05-25T07:57:14.000Z</time>
      </trkpt>
      <trkpt lat="47.50919" lon="6.7253">
        <ele>414</ele>
        <time>2015-05-25T07:57:15.000Z</time>
      </trkpt>
      <trkpt lat="47.50923" lon="6.72531">
        <ele>414</ele>
        <time>2015-05-25T07:57:17.000Z</time>
      </trkpt>
      <trkpt lat="47.50925" lon="6.72531">
        <ele>414</ele>
        <time>2015-05-25T07:57:18.000Z</time>
      </trkpt>
      <trkpt lat="47.50929" lon="6.7253">
        <ele>414</ele>
        <time>2015-05-25T07:57:20.000Z</time>
      </trkpt>
      <trkpt lat="47.50931" lon="6.7253">
        <ele>414</ele>
        <time>2015-05-25T07:57:21.000Z</time>
      </trkpt>
      <trkpt lat="47.50936" lon="6.72529">
        <ele>415</ele>
        <time>2015-05-25T07:57:23.000Z</time>
      </trkpt>
      <trkpt lat="47.50938" lon="6.72529">
        <ele>415</ele>
        <time>2015-05-25T07:57:24.000Z</time>
      </trkpt>
      <trkpt lat="47.50941" lon="6.72527">
        <ele>415</ele>
        <time>2015-05-25T07:57:26.000Z</time>
      </trkpt>
      <trkpt lat="47.50942" lon="6.72527">
        <ele>415</ele>
        <time>2015-05-25T07:57:27.000Z</time>
      </trkpt>
      <trkpt lat="47.50945" lon="6.72525">
        <ele>415</ele>
        <time>2015-05-25T07:57:29.000Z</time>
      </trkpt>
      <trkpt lat="47.50948" lon="6.72524">
        <ele>415</ele>
        <time>2015-05-25T07:57:30.000Z</time>
      </trkpt>
      <trkpt lat="47.5095" lon="6.72522">
        <ele>415</ele>
        <time>2015-05-25T07:57:31.000Z</time>
      </trkpt>
      <trkpt lat="47.50953" lon="6.72521">
        <ele>415</ele>
        <time>2015-05-25T07:57:32.000Z</time>
      </trkpt>
      <trkpt lat="47.50956" lon="6.7252">
        <ele>415</ele>
        <time>2015-05-25T07:57:33.000Z</time>
      </trkpt>
      <trkpt lat="47.50958" lon="6.72519">
        <ele>416</ele>
        <time>2015-05-25T07:57:34.000Z</time>
      </trkpt>
      <trkpt lat="47.50962" lon="6.72518">
        <ele>416</ele>
        <time>2015-05-25T07:57:36.000Z</time>
      </trkpt>
      <trkpt lat="47.50964" lon="6.72518">
        <ele>416</ele>
        <time>2015-05-25T07:57:37.000Z</time>
      </trkpt>
      <trkpt lat="47.50966" lon="6.72519">
        <ele>416</ele>
        <time>2015-05-25T07:57:38.000Z</time>
      </trkpt>
      <trkpt lat="47.50969" lon="6.7252">
        <ele>416</ele>
        <time>2015-05-25T07:57:39.000Z</time>
      </trkpt>
      <trkpt lat="47.50971" lon="6.72521">
        <ele>416</ele>
        <time>2015-05-25T07:57:40.000Z</time>
      </trkpt>
      <trkpt lat="47.50974" lon="6.72521">
        <ele>417</ele>
        <time>2015-05-25T07:57:41.000Z</time>
      </trkpt>
      <trkpt lat="47.50976" lon="6.72522">
        <ele>417</ele>
        <time>2015-05-25T07:57:42.000Z</time>
      </trkpt>
      <trkpt lat="47.50979" lon="6.72522">
        <ele>417</ele>
        <time>2015-05-25T07:57:43.000Z</time>
      </trkpt>
      <trkpt lat="47.50983" lon="6.72522">
        <ele>417</ele>
        <time>2015-05-25T07:57:45.000Z</time>
      </trkpt>
      <trkpt lat="47.50985" lon="6.72521">
        <ele>417</ele>
        <time>2015-05-25T07:57:46.000Z</time>
      </trkpt>
      <trkpt lat="47.50989" lon="6.72522">
        <ele>417</ele>
        <time>2015-05-25T07:57:48.000Z</time>
      </trkpt>
      <trkpt lat="47.50992" lon="6.72522">
        <ele>417</ele>
        <time>2015-05-25T07:57:49.000Z</time>
      </trkpt>
      <trkpt lat="47.50994" lon="6.72522">
        <ele>417</ele>
        <time>2015-05-25T07:57:50.000Z</time>
      </trkpt>
      <trkpt lat="47.50996" lon="6.72522">
        <ele>417</ele>
        <time>2015-05-25T07:57:51.000Z</time>
      </trkpt>
      <trkpt lat="47.51" lon="6.72521">
        <ele>417</ele>
        <time>2015-05-25T07:57:53.000Z</time>
      </trkpt>
      <trkpt lat="47.51001" lon="6.72521">
        <ele>422</ele>
        <time>2015-05-25T07:57:54.000Z</time>
      </trkpt>
      <trkpt lat="47.51005" lon="6.7252">
        <ele>422</ele>
        <time>2015-05-25T07:57:57.000Z</time>
      </trkpt>
      <trkpt lat="47.51007" lon="6.72519">
        <ele>422</ele>
        <time>2015-05-25T07:57:58.000Z</time>
      </trkpt>
      <trkpt lat="47.5101" lon="6.72519">
        <ele>422</ele>
        <time>2015-05-25T07:57:59.000Z</time>
      </trkpt>
      <trkpt lat="47.51013" lon="6.7252">
        <ele>422</ele>
        <time>2015-05-25T07:58:00.000Z</time>
      </trkpt>
      <trkpt lat="47.51016" lon="6.72521">
        <ele>423</ele>
        <time>2015-05-25T07:58:01.000Z</time>
      </trkpt>
      <trkpt lat="47.51018" lon="6.72522">
        <ele>423</ele>
        <time>2015-05-25T07:58:02.000Z</time>
      </trkpt>
      <trkpt lat="47.51021" lon="6.72523">
        <ele>423</ele>
        <time>2015-05-25T07:58:04.000Z</time>
      </trkpt>
      <trkpt lat="47.51023" lon="6.72523">
        <ele>424</ele>
        <time>2015-05-25T07:58:05.000Z</time>
      </trkpt>
      <trkpt lat="47.51026" lon="6.72525">
        <ele>424</ele>
        <time>2015-05-25T07:58:07.000Z</time>
      </trkpt>
      <trkpt lat="47.51028" lon="6.72526">
        <ele>424</ele>
        <time>2015-05-25T07:58:08.000Z</time>
      </trkpt>
      <trkpt lat="47.5103" lon="6.72527">
        <ele>424</ele>
        <time>2015-05-25T07:58:09.000Z</time>
      </trkpt>
      <trkpt lat="47.51033" lon="6.72528">
        <ele>425</ele>
        <time>2015-05-25T07:58:10.000Z</time>
      </trkpt>
      <trkpt lat="47.51036" lon="6.72528">
        <ele>425</ele>
        <time>2015-05-25T07:58:11.000Z</time>
      </trkpt>
      <trkpt lat="47.51038" lon="6.72529">
        <ele>425</ele>
        <time>2015-05-25T07:58:12.000Z</time>
      </trkpt>
      <trkpt lat="47.5104" lon="6.72529">
        <ele>425</ele>
        <time>2015-05-25T07:58:13.000Z</time>
      </trkpt>
      <trkpt lat="47.51043" lon="6.72531">
        <ele>425</ele>
        <time>2015-05-25T07:58:14.000Z</time>
      </trkpt>
      <trkpt lat="47.51046" lon="6.72532">
        <ele>426</ele>
        <time>2015-05-25T07:58:15.000Z</time>
      </trkpt>
      <trkpt lat="47.51048" lon="6.72533">
        <ele>426</ele>
        <time>2015-05-25T07:58:16.000Z</time>
      </trkpt>
      <trkpt lat="47.51051" lon="6.72534">
        <ele>426</ele>
        <time>2015-05-25T07:58:17.000Z</time>
      </trkpt>
      <trkpt lat="47.51053" lon="6.72533">
        <ele>426</ele>
        <time>2015-05-25T07:58:18.000Z</time>
      </trkpt>
      <trkpt lat="47.51057" lon="6.72533">
        <ele>426</ele>
        <time>2015-05-25T07:58:20.000Z</time>
      </trkpt>
      <trkpt lat="47.51059" lon="6.72533">
        <ele>426</ele>
        <time>2015-05-25T07:58:21.000Z</time>
      </trkpt>
      <trkpt lat="47.51063" lon="6.72534">
        <ele>427</ele>
        <time>2015-05-25T07:58:23.000Z</time>
      </trkpt>
      <trkpt lat="47.51065" lon="6.72535">
        <ele>427</ele>
        <time>2015-05-25T07:58:24.000Z</time>
      </trkpt>
      <trkpt lat="47.51068" lon="6.72536">
        <ele>427</ele>
        <time>2015-05-25T07:58:26.000Z</time>
      </trkpt>
      <trkpt lat="47.5107" lon="6.72536">
        <ele>427</ele>
        <time>2015-05-25T07:58:27.000Z</time>
      </trkpt>
      <trkpt lat="47.51073" lon="6.72538">
        <ele>427</ele>
        <time>2015-05-25T07:58:29.000Z</time>
      </trkpt>
      <trkpt lat="47.51075" lon="6.72538">
        <ele>427</ele>
        <time>2015-05-25T07:58:30.000Z</time>
      </trkpt>
      <trkpt lat="47.51079" lon="6.72539">
        <ele>427</ele>
        <time>2015-05-25T07:58:33.000Z</time>
      </trkpt>
      <trkpt lat="47.5108" lon="6.7254">
        <ele>427</ele>
        <time>2015-05-25T07:58:34.000Z</time>
      </trkpt>
      <trkpt lat="47.51084" lon="6.72542">
        <ele>430</ele>
        <time>2015-05-25T07:58:36.000Z</time>
      </trkpt>
      <trkpt lat="47.51086" lon="6.72544">
        <ele>430</ele>
        <time>2015-05-25T07:58:37.000Z</time>
      </trkpt>
      <trkpt lat="47.51089" lon="6.72547">
        <ele>430</ele>
        <time>2015-05-25T07:58:38.000Z</time>
      </trkpt>
      <trkpt lat="47.51091" lon="6.72549">
        <ele>430</ele>
        <time>2015-05-25T07:58:39.000Z</time>
      </trkpt>
      <trkpt lat="47.51093" lon="6.7255">
        <ele>430</ele>
        <time>2015-05-25T07:58:40.000Z</time>
      </trkpt>
      <trkpt lat="47.51095" lon="6.72552">
        <ele>430</ele>
        <time>2015-05-25T07:58:41.000Z</time>
      </trkpt>
      <trkpt lat="47.51099" lon="6.72554">
        <ele>430</ele>
        <time>2015-05-25T07:58:43.000Z</time>
      </trkpt>
      <trkpt lat="47.51101" lon="6.72556">
        <ele>430</ele>
        <time>2015-05-25T07:58:44.000Z</time>
      </trkpt>
      <trkpt lat="47.51103" lon="6.72558">
        <ele>430</ele>
        <time>2015-05-25T07:58:46.000Z</time>
      </trkpt>
      <trkpt lat="47.51104" lon="6.72559">
        <ele>430</ele>
        <time>2015-05-25T07:58:47.000Z</time>
      </trkpt>
      <trkpt lat="47.51108" lon="6.72562">
        <ele>430</ele>
        <time>2015-05-25T07:58:49.000Z</time>
      </trkpt>
      <trkpt lat="47.5111" lon="6.72563">
        <ele>430</ele>
        <time>2015-05-25T07:58:50.000Z</time>
      </trkpt>
      <trkpt lat="47.51113" lon="6.72564">
        <ele>430</ele>
        <time>2015-05-25T07:58:52.000Z</time>
      </trkpt>
      <trkpt lat="47.51115" lon="6.72565">
        <ele>430</ele>
        <time>2015-05-25T07:58:53.000Z</time>
      </trkpt>
      <trkpt lat="47.51119" lon="6.72565">
        <ele>430</ele>
        <time>2015-05-25T07:58:55.000Z</time>
      </trkpt>
      <trkpt lat="47.51122" lon="6.72564">
        <ele>430</ele>
        <time>2015-05-25T07:58:56.000Z</time>
      </trkpt>
      <trkpt lat="47.51125" lon="6.72563">
        <ele>430</ele>
        <time>2015-05-25T07:58:57.000Z</time>
      </trkpt>
      <trkpt lat="47.51128" lon="6.72562">
        <ele>430</ele>
        <time>2015-05-25T07:58:58.000Z</time>
      </trkpt>
      <trkpt lat="47.51132" lon="6.72562">
        <ele>430</ele>
        <time>2015-05-25T07:58:59.000Z</time>
      </trkpt>
      <trkpt lat="47.51135" lon="6.72562">
        <ele>430</ele>
        <time>2015-05-25T07:59:00.000Z</time>
      </trkpt>
      <trkpt lat="47.51137" lon="6.72562">
        <ele>430</ele>
        <time>2015-05-25T07:59:01.000Z</time>
      </trkpt>
      <trkpt lat="47.5114" lon="6.72563">
        <ele>430</ele>
        <time>2015-05-25T07:59:02.000Z</time>
      </trkpt>
      <trkpt lat="47.51144" lon="6.72562">
        <ele>430</ele>
        <time>2015-05-25T07:59:07.000Z</time>
      </trkpt>
      <trkpt lat="47.51145" lon="6.72562">
        <ele>430</ele>
        <time>2015-05-25T07:59:08.000Z</time>
      </trkpt>
      <trkpt lat="47.51146" lon="6.72555">
        <ele>430</ele>
        <time>2015-05-25T07:59:14.000Z</time>
      </trkpt>
      <trkpt lat="47.51147" lon="6.72555">
        <ele>430</ele>
        <time>2015-05-25T07:59:15.000Z</time>
      </trkpt>
      <trkpt lat="47.5115" lon="6.72551">
        <ele>430</ele>
        <time>2015-05-25T07:59:24.000Z</time>
      </trkpt>
      <trkpt lat="47.51151" lon="6.72551">
        <ele>430</ele>
        <time>2015-05-25T07:59:25.000Z</time>
      </trkpt>
      <trkpt lat="47.51147" lon="6.72548">
        <ele>430</ele>
        <time>2015-05-25T08:01:20.000Z</time>
      </trkpt>
      <trkpt lat="47.51147" lon="6.72547">
        <ele>430</ele>
        <time>2015-05-25T08:01:21.000Z</time>
      </trkpt>
      <trkpt lat="47.51151" lon="6.72549">
        <ele>430</ele>
        <time>2015-05-25T08:02:11.000Z</time>
      </trkpt>
      <trkpt lat="47.51151" lon="6.72549">
        <ele>430</ele>
        <time>2015-05-25T08:02:12.000Z</time>
      </trkpt>
      <trkpt lat="47.51155" lon="6.72551">
        <ele>430</ele>
        <time>2015-05-25T08:02:43.000Z</time>
      </trkpt>
      <trkpt lat="47.51156" lon="6.7255">
        <ele>430</ele>
        <time>2015-05-25T08:02:44.000Z</time>
      </trkpt>
      <trkpt lat="47.51159" lon="6.72549">
        <ele>430</ele>
        <time>2015-05-25T08:02:45.000Z</time>
      </trkpt>
      <trkpt lat="47.51161" lon="6.72548">
        <ele>430</ele>
        <time>2015-05-25T08:02:46.000Z</time>
      </trkpt>
      <trkpt lat="47.51164" lon="6.72548">
        <ele>430</ele>
        <time>2015-05-25T08:02:47.000Z</time>
      </trkpt>
      <trkpt lat="47.51167" lon="6.72548">
        <ele>430</ele>
        <time>2015-05-25T08:02:48.000Z</time>
      </trkpt>
      <trkpt lat="47.5117" lon="6.72548">
        <ele>430</ele>
        <time>2015-05-25T08:02:49.000Z</time>
      </trkpt>
      <trkpt lat="47.51172" lon="6.72548">
        <ele>430</ele>
        <time>2015-05-25T08:02:50.000Z</time>
      </trkpt>
      <trkpt lat="47.51175" lon="6.72549">
        <ele>430</ele>
        <time>2015-05-25T08:02:51.000Z</time>
      </trkpt>
      <trkpt lat="47.51177" lon="6.72551">
        <ele>430</ele>
        <time>2015-05-25T08:02:52.000Z</time>
      </trkpt>
      <trkpt lat="47.51179" lon="6.72555">
        <ele>430</ele>
        <time>2015-05-25T08:02:53.000Z</time>
      </trkpt>
      <trkpt lat="47.51182" lon="6.72559">
        <ele>430</ele>
        <time>2015-05-25T08:02:54.000Z</time>
      </trkpt>
      <trkpt lat="47.51185" lon="6.72562">
        <ele>430</ele>
        <time>2015-05-25T08:02:55.000Z</time>
      </trkpt>
      <trkpt lat="47.51188" lon="6.72566">
        <ele>430</ele>
        <time>2015-05-25T08:02:56.000Z</time>
      </trkpt>
      <trkpt lat="47.51191" lon="6.72568">
        <ele>430</ele>
        <time>2015-05-25T08:02:57.000Z</time>
      </trkpt>
      <trkpt lat="47.51195" lon="6.72569">
        <ele>430</ele>
        <time>2015-05-25T08:02:58.000Z</time>
      </trkpt>
      <trkpt lat="47.51198" lon="6.72571">
        <ele>429</ele>
        <time>2015-05-25T08:02:59.000Z</time>
      </trkpt>
      <trkpt lat="47.51202" lon="6.72573">
        <ele>429</ele>
        <time>2015-05-25T08:03:00.000Z</time>
      </trkpt>
      <trkpt lat="47.51205" lon="6.72575">
        <ele>429</ele>
        <time>2015-05-25T08:03:01.000Z</time>
      </trkpt>
      <trkpt lat="47.51209" lon="6.72576">
        <ele>429</ele>
        <time>2015-05-25T08:03:02.000Z</time>
      </trkpt>
      <trkpt lat="47.51213" lon="6.72578">
        <ele>429</ele>
        <time>2015-05-25T08:03:03.000Z</time>
      </trkpt>
      <trkpt lat="47.51217" lon="6.72579">
        <ele>429</ele>
        <time>2015-05-25T08:03:04.000Z</time>
      </trkpt>
      <trkpt lat="47.51222" lon="6.7258">
        <ele>429</ele>
        <time>2015-05-25T08:03:05.000Z</time>
      </trkpt>
      <trkpt lat="47.51228" lon="6.72582">
        <ele>428</ele>
        <time>2015-05-25T08:03:06.000Z</time>
      </trkpt>
      <trkpt lat="47.51234" lon="6.72584">
        <ele>425</ele>
        <time>2015-05-25T08:03:07.000Z</time>
      </trkpt>
      <trkpt lat="47.5124" lon="6.72586">
        <ele>425</ele>
        <time>2015-05-25T08:03:08.000Z</time>
      </trkpt>
      <trkpt lat="47.51246" lon="6.72588">
        <ele>425</ele>
        <time>2015-05-25T08:03:09.000Z</time>
      </trkpt>
      <trkpt lat="47.51252" lon="6.72589">
        <ele>425</ele>
        <time>2015-05-25T08:03:10.000Z</time>
      </trkpt>
      <trkpt lat="47.51258" lon="6.72592">
        <ele>425</ele>
        <time>2015-05-25T08:03:11.000Z</time>
      </trkpt>
      <trkpt lat="47.51264" lon="6.72594">
        <ele>424</ele>
        <time>2015-05-25T08:03:12.000Z</time>
      </trkpt>
      <trkpt lat="47.5127" lon="6.72597">
        <ele>424</ele>
        <time>2015-05-25T08:03:13.000Z</time>
      </trkpt>
      <trkpt lat="47.51275" lon="6.726">
        <ele>424</ele>
        <time>2015-05-25T08:03:14.000Z</time>
      </trkpt>
      <trkpt lat="47.51281" lon="6.72604">
        <ele>424</ele>
        <time>2015-05-25T08:03:15.000Z</time>
      </trkpt>
      <trkpt lat="47.51287" lon="6.72607">
        <ele>423</ele>
        <time>2015-05-25T08:03:16.000Z</time>
      </trkpt>
      <trkpt lat="47.51305" lon="6.72615">
        <ele>423</ele>
        <time>2015-05-25T08:03:17.000Z</time>
      </trkpt>
      <trkpt lat="47.51313" lon="6.72622">
        <ele>423</ele>
        <time>2015-05-25T08:03:18.000Z</time>
      </trkpt>
      <trkpt lat="47.51319" lon="6.72631">
        <ele>423</ele>
        <time>2015-05-25T08:03:19.000Z</time>
      </trkpt>
      <trkpt lat="47.51326" lon="6.72637">
        <ele>423</ele>
        <time>2015-05-25T08:03:20.000Z</time>
      </trkpt>
      <trkpt lat="47.51331" lon="6.72641">
        <ele>423</ele>
        <time>2015-05-25T08:03:21.000Z</time>
      </trkpt>
      <trkpt lat="47.51335" lon="6.72645">
        <ele>425</ele>
        <time>2015-05-25T08:03:22.000Z</time>
      </trkpt>
      <trkpt lat="47.51341" lon="6.72651">
        <ele>425</ele>
        <time>2015-05-25T08:03:23.000Z</time>
      </trkpt>
      <trkpt lat="47.51344" lon="6.72658">
        <ele>425</ele>
        <time>2015-05-25T08:03:24.000Z</time>
      </trkpt>
      <trkpt lat="47.51346" lon="6.72663">
        <ele>425</ele>
        <time>2015-05-25T08:03:25.000Z</time>
      </trkpt>
      <trkpt lat="47.51351" lon="6.72661">
        <ele>425</ele>
        <time>2015-05-25T08:03:26.000Z</time>
      </trkpt>
      <trkpt lat="47.51352" lon="6.72663">
        <ele>425</ele>
        <time>2015-05-25T08:03:27.000Z</time>
      </trkpt>
      <trkpt lat="47.51353" lon="6.72669">
        <ele>424</ele>
        <time>2015-05-25T08:03:28.000Z</time>
      </trkpt>
      <trkpt lat="47.51353" lon="6.72674">
        <ele>424</ele>
        <time>2015-05-25T08:03:29.000Z</time>
      </trkpt>
      <trkpt lat="47.51357" lon="6.72682">
        <ele>424</ele>
        <time>2015-05-25T08:03:30.000Z</time>
      </trkpt>
      <trkpt lat="47.5136" lon="6.72691">
        <ele>425</ele>
        <time>2015-05-25T08:03:31.000Z</time>
      </trkpt>
      <trkpt lat="47.51363" lon="6.72696">
        <ele>425</ele>
        <time>2015-05-25T08:03:32.000Z</time>
      </trkpt>
      <trkpt lat="47.51368" lon="6.72702">
        <ele>425</ele>
        <time>2015-05-25T08:03:33.000Z</time>
      </trkpt>
      <trkpt lat="47.51371" lon="6.72708">
        <ele>425</ele>
        <time>2015-05-25T08:03:34.000Z</time>
      </trkpt>
      <trkpt lat="47.51374" lon="6.72713">
        <ele>425</ele>
        <time>2015-05-25T08:03:35.000Z</time>
      </trkpt>
      <trkpt lat="47.51377" lon="6.72718">
        <ele>425</ele>
        <time>2015-05-25T08:03:36.000Z</time>
      </trkpt>
      <trkpt lat="47.5138" lon="6.72723">
        <ele>425</ele>
        <time>2015-05-25T08:03:37.000Z</time>
      </trkpt>
      <trkpt lat="47.51383" lon="6.72726">
        <ele>425</ele>
        <time>2015-05-25T08:03:38.000Z</time>
      </trkpt>
      <trkpt lat="47.51385" lon="6.72729">
        <ele>425</ele>
        <time>2015-05-25T08:03:39.000Z</time>
      </trkpt>
      <trkpt lat="47.51388" lon="6.72731">
        <ele>425</ele>
        <time>2015-05-25T08:03:40.000Z</time>
      </trkpt>
      <trkpt lat="47.51392" lon="6.72733">
        <ele>426</ele>
        <time>2015-05-25T08:03:42.000Z</time>
      </trkpt>
      <trkpt lat="47.51393" lon="6.72734">
        <ele>426</ele>
        <time>2015-05-25T08:03:43.000Z</time>
      </trkpt>
      <trkpt lat="47.51396" lon="6.72734">
        <ele>426</ele>
        <time>2015-05-25T08:03:48.000Z</time>
      </trkpt>
      <trkpt lat="47.51398" lon="6.72734">
        <ele>426</ele>
        <time>2015-05-25T08:03:49.000Z</time>
      </trkpt>
      <trkpt lat="47.51401" lon="6.72735">
        <ele>426</ele>
        <time>2015-05-25T08:03:52.000Z</time>
      </trkpt>
      <trkpt lat="47.51402" lon="6.72736">
        <ele>426</ele>
        <time>2015-05-25T08:03:53.000Z</time>
      </trkpt>
      <trkpt lat="47.51404" lon="6.72738">
        <ele>426</ele>
        <time>2015-05-25T08:04:34.000Z</time>
      </trkpt>
      <trkpt lat="47.51407" lon="6.72739">
        <ele>427</ele>
        <time>2015-05-25T08:04:35.000Z</time>
      </trkpt>
      <trkpt lat="47.51411" lon="6.7274">
        <ele>427</ele>
        <time>2015-05-25T08:04:37.000Z</time>
      </trkpt>
      <trkpt lat="47.51415" lon="6.72741">
        <ele>427</ele>
        <time>2015-05-25T08:04:38.000Z</time>
      </trkpt>
      <trkpt lat="47.51418" lon="6.72742">
        <ele>428</ele>
        <time>2015-05-25T08:04:39.000Z</time>
      </trkpt>
      <trkpt lat="47.51422" lon="6.72743">
        <ele>428</ele>
        <time>2015-05-25T08:04:40.000Z</time>
      </trkpt>
      <trkpt lat="47.51425" lon="6.72744">
        <ele>428</ele>
        <time>2015-05-25T08:04:41.000Z</time>
      </trkpt>
      <trkpt lat="47.51428" lon="6.72745">
        <ele>428</ele>
        <time>2015-05-25T08:04:42.000Z</time>
      </trkpt>
      <trkpt lat="47.51431" lon="6.72746">
        <ele>428</ele>
        <time>2015-05-25T08:04:43.000Z</time>
      </trkpt>
      <trkpt lat="47.51434" lon="6.72748">
        <ele>428</ele>
        <time>2015-05-25T08:04:44.000Z</time>
      </trkpt>
      <trkpt lat="47.51438" lon="6.72749">
        <ele>428</ele>
        <time>2015-05-25T08:04:45.000Z</time>
      </trkpt>
      <trkpt lat="47.51441" lon="6.72751">
        <ele>427</ele>
        <time>2015-05-25T08:04:46.000Z</time>
      </trkpt>
      <trkpt lat="47.51445" lon="6.72753">
        <ele>427</ele>
        <time>2015-05-25T08:04:47.000Z</time>
      </trkpt>
      <trkpt lat="47.51449" lon="6.72756">
        <ele>427</ele>
        <time>2015-05-25T08:04:48.000Z</time>
      </trkpt>
      <trkpt lat="47.51453" lon="6.72757">
        <ele>427</ele>
        <time>2015-05-25T08:04:49.000Z</time>
      </trkpt>
      <trkpt lat="47.51456" lon="6.72758">
        <ele>427</ele>
        <time>2015-05-25T08:04:50.000Z</time>
      </trkpt>
      <trkpt lat="47.5146" lon="6.72759">
        <ele>427</ele>
        <time>2015-05-25T08:04:51.000Z</time>
      </trkpt>
      <trkpt lat="47.51464" lon="6.72759">
        <ele>427</ele>
        <time>2015-05-25T08:04:52.000Z</time>
      </trkpt>
      <trkpt lat="47.51468" lon="6.7276">
        <ele>427</ele>
        <time>2015-05-25T08:04:53.000Z</time>
      </trkpt>
      <trkpt lat="47.51473" lon="6.7276">
        <ele>427</ele>
        <time>2015-05-25T08:04:54.000Z</time>
      </trkpt>
      <trkpt lat="47.51477" lon="6.72761">
        <ele>427</ele>
        <time>2015-05-25T08:04:55.000Z</time>
      </trkpt>
      <trkpt lat="47.51481" lon="6.72761">
        <ele>427</ele>
        <time>2015-05-25T08:04:56.000Z</time>
      </trkpt>
      <trkpt lat="47.5149" lon="6.72761">
        <ele>427</ele>
        <time>2015-05-25T08:04:57.000Z</time>
      </trkpt>
      <trkpt lat="47.51494" lon="6.72763">
        <ele>427</ele>
        <time>2015-05-25T08:04:58.000Z</time>
      </trkpt>
      <trkpt lat="47.51497" lon="6.72764">
        <ele>427</ele>
        <time>2015-05-25T08:04:59.000Z</time>
      </trkpt>
      <trkpt lat="47.51503" lon="6.72766">
        <ele>426</ele>
        <time>2015-05-25T08:05:00.000Z</time>
      </trkpt>
      <trkpt lat="47.51508" lon="6.72767">
        <ele>426</ele>
        <time>2015-05-25T08:05:01.000Z</time>
      </trkpt>
      <trkpt lat="47.51512" lon="6.72769">
        <ele>426</ele>
        <time>2015-05-25T08:05:02.000Z</time>
      </trkpt>
      <trkpt lat="47.51517" lon="6.72771">
        <ele>425</ele>
        <time>2015-05-25T08:05:03.000Z</time>
      </trkpt>
      <trkpt lat="47.51521" lon="6.72774">
        <ele>425</ele>
        <time>2015-05-25T08:05:04.000Z</time>
      </trkpt>
      <trkpt lat="47.51525" lon="6.72777">
        <ele>425</ele>
        <time>2015-05-25T08:05:05.000Z</time>
      </trkpt>
      <trkpt lat="47.51533" lon="6.72779">
        <ele>424</ele>
        <time>2015-05-25T08:05:06.000Z</time>
      </trkpt>
      <trkpt lat="47.51545" lon="6.72777">
        <ele>424</ele>
        <time>2015-05-25T08:05:07.000Z</time>
      </trkpt>
      <trkpt lat="47.51553" lon="6.72779">
        <ele>424</ele>
        <time>2015-05-25T08:05:08.000Z</time>
      </trkpt>
      <trkpt lat="47.5156" lon="6.72779">
        <ele>423</ele>
        <time>2015-05-25T08:05:09.000Z</time>
      </trkpt>
      <trkpt lat="47.51565" lon="6.72782">
        <ele>423</ele>
        <time>2015-05-25T08:05:10.000Z</time>
      </trkpt>
      <trkpt lat="47.51571" lon="6.72785">
        <ele>423</ele>
        <time>2015-05-25T08:05:11.000Z</time>
      </trkpt>
      <trkpt lat="47.51577" lon="6.7279">
        <ele>423</ele>
        <time>2015-05-25T08:05:12.000Z</time>
      </trkpt>
      <trkpt lat="47.51584" lon="6.72793">
        <ele>419</ele>
        <time>2015-05-25T08:05:13.000Z</time>
      </trkpt>
      <trkpt lat="47.51591" lon="6.72798">
        <ele>419</ele>
        <time>2015-05-25T08:05:14.000Z</time>
      </trkpt>
      <trkpt lat="47.51597" lon="6.728">
        <ele>419</ele>
        <time>2015-05-25T08:05:15.000Z</time>
      </trkpt>
      <trkpt lat="47.51604" lon="6.72803">
        <ele>418</ele>
        <time>2015-05-25T08:05:16.000Z</time>
      </trkpt>
      <trkpt lat="47.51611" lon="6.72806">
        <ele>418</ele>
        <time>2015-05-25T08:05:17.000Z</time>
      </trkpt>
      <trkpt lat="47.51621" lon="6.7281">
        <ele>418</ele>
        <time>2015-05-25T08:05:18.000Z</time>
      </trkpt>
      <trkpt lat="47.51629" lon="6.72811">
        <ele>418</ele>
        <time>2015-05-25T08:05:19.000Z</time>
      </trkpt>
      <trkpt lat="47.5164" lon="6.72814">
        <ele>417</ele>
        <time>2015-05-25T08:05:20.000Z</time>
      </trkpt>
      <trkpt lat="47.51649" lon="6.72815">
        <ele>417</ele>
        <time>2015-05-25T08:05:21.000Z</time>
      </trkpt>
      <trkpt lat="47.51658" lon="6.72814">
        <ele>416</ele>
        <time>2015-05-25T08:05:22.000Z</time>
      </trkpt>
      <trkpt lat="47.5167" lon="6.7281">
        <ele>413</ele>
        <time>2015-05-25T08:05:23.000Z</time>
      </trkpt>
      <trkpt lat="47.51682" lon="6.72808">
        <ele>412</ele>
        <time>2015-05-25T08:05:24.000Z</time>
      </trkpt>
      <trkpt lat="47.51693" lon="6.72801">
        <ele>411</ele>
        <time>2015-05-25T08:05:25.000Z</time>
      </trkpt>
      <trkpt lat="47.51705" lon="6.72798">
        <ele>411</ele>
        <time>2015-05-25T08:05:26.000Z</time>
      </trkpt>
      <trkpt lat="47.51714" lon="6.72799">
        <ele>410</ele>
        <time>2015-05-25T08:05:27.000Z</time>
      </trkpt>
      <trkpt lat="47.5172" lon="6.72799">
        <ele>410</ele>
        <time>2015-05-25T08:05:28.000Z</time>
      </trkpt>
      <trkpt lat="47.51725" lon="6.72802">
        <ele>410</ele>
        <time>2015-05-25T08:05:29.000Z</time>
      </trkpt>
      <trkpt lat="47.51732" lon="6.72804">
        <ele>409</ele>
        <time>2015-05-25T08:05:30.000Z</time>
      </trkpt>
      <trkpt lat="47.5174" lon="6.72803">
        <ele>409</ele>
        <time>2015-05-25T08:05:31.000Z</time>
      </trkpt>
      <trkpt lat="47.51744" lon="6.72804">
        <ele>409</ele>
        <time>2015-05-25T08:05:32.000Z</time>
      </trkpt>
      <trkpt lat="47.51752" lon="6.72803">
        <ele>404</ele>
        <time>2015-05-25T08:05:33.000Z</time>
      </trkpt>
      <trkpt lat="47.51759" lon="6.72803">
        <ele>404</ele>
        <time>2015-05-25T08:05:34.000Z</time>
      </trkpt>
      <trkpt lat="47.51769" lon="6.72803">
        <ele>404</ele>
        <time>2015-05-25T08:05:35.000Z</time>
      </trkpt>
      <trkpt lat="47.51778" lon="6.72801">
        <ele>403</ele>
        <time>2015-05-25T08:05:36.000Z</time>
      </trkpt>
      <trkpt lat="47.51788" lon="6.72799">
        <ele>403</ele>
        <time>2015-05-25T08:05:37.000Z</time>
      </trkpt>
      <trkpt lat="47.51798" lon="6.72797">
        <ele>403</ele>
        <time>2015-05-25T08:05:38.000Z</time>
      </trkpt>
      <trkpt lat="47.51806" lon="6.72804">
        <ele>402</ele>
        <time>2015-05-25T08:05:39.000Z</time>
      </trkpt>
      <trkpt lat="47.51815" lon="6.72808">
        <ele>401</ele>
        <time>2015-05-25T08:05:40.000Z</time>
      </trkpt>
      <trkpt lat="47.51823" lon="6.72809">
        <ele>401</ele>
        <time>2015-05-25T08:05:41.000Z</time>
      </trkpt>
      <trkpt lat="47.51832" lon="6.72816">
        <ele>400</ele>
        <time>2015-05-25T08:05:42.000Z</time>
      </trkpt>
      <trkpt lat="47.51842" lon="6.7282">
        <ele>397</ele>
        <time>2015-05-25T08:05:43.000Z</time>
      </trkpt>
      <trkpt lat="47.5185" lon="6.72824">
        <ele>397</ele>
        <time>2015-05-25T08:05:44.000Z</time>
      </trkpt>
      <trkpt lat="47.51858" lon="6.72828">
        <ele>397</ele>
        <time>2015-05-25T08:05:45.000Z</time>
      </trkpt>
      <trkpt lat="47.51865" lon="6.72832">
        <ele>396</ele>
        <time>2015-05-25T08:05:46.000Z</time>
      </trkpt>
      <trkpt lat="47.51874" lon="6.72834">
        <ele>393</ele>
        <time>2015-05-25T08:05:47.000Z</time>
      </trkpt>
      <trkpt lat="47.51883" lon="6.72835">
        <ele>392</ele>
        <time>2015-05-25T08:05:48.000Z</time>
      </trkpt>
      <trkpt lat="47.51893" lon="6.72833">
        <ele>395</ele>
        <time>2015-05-25T08:05:49.000Z</time>
      </trkpt>
      <trkpt lat="47.51902" lon="6.72833">
        <ele>395</ele>
        <time>2015-05-25T08:05:50.000Z</time>
      </trkpt>
      <trkpt lat="47.51912" lon="6.72832">
        <ele>394</ele>
        <time>2015-05-25T08:05:51.000Z</time>
      </trkpt>
      <trkpt lat="47.51921" lon="6.72832">
        <ele>393</ele>
        <time>2015-05-25T08:05:52.000Z</time>
      </trkpt>
      <trkpt lat="47.51932" lon="6.72832">
        <ele>392</ele>
        <time>2015-05-25T08:05:53.000Z</time>
      </trkpt>
      <trkpt lat="47.51942" lon="6.72833">
        <ele>392</ele>
        <time>2015-05-25T08:05:54.000Z</time>
      </trkpt>
      <trkpt lat="47.51953" lon="6.72834">
        <ele>389</ele>
        <time>2015-05-25T08:05:55.000Z</time>
      </trkpt>
      <trkpt lat="47.51964" lon="6.72835">
        <ele>388</ele>
        <time>2015-05-25T08:05:56.000Z</time>
      </trkpt>
      <trkpt lat="47.51975" lon="6.72837">
        <ele>388</ele>
        <time>2015-05-25T08:05:57.000Z</time>
      </trkpt>
      <trkpt lat="47.51984" lon="6.72838">
        <ele>388</ele>
        <time>2015-05-25T08:05:58.000Z</time>
      </trkpt>
      <trkpt lat="47.51993" lon="6.72837">
        <ele>388</ele>
        <time>2015-05-25T08:05:59.000Z</time>
      </trkpt>
      <trkpt lat="47.52001" lon="6.72835">
        <ele>388</ele>
        <time>2015-05-25T08:06:00.000Z</time>
      </trkpt>
      <trkpt lat="47.5201" lon="6.72832">
        <ele>388</ele>
        <time>2015-05-25T08:06:01.000Z</time>
      </trkpt>
      <trkpt lat="47.52019" lon="6.72831">
        <ele>387</ele>
        <time>2015-05-25T08:06:02.000Z</time>
      </trkpt>
      <trkpt lat="47.52033" lon="6.7283">
        <ele>386</ele>
        <time>2015-05-25T08:06:03.000Z</time>
      </trkpt>
      <trkpt lat="47.52043" lon="6.72829">
        <ele>386</ele>
        <time>2015-05-25T08:06:04.000Z</time>
      </trkpt>
      <trkpt lat="47.52054" lon="6.72829">
        <ele>385</ele>
        <time>2015-05-25T08:06:05.000Z</time>
      </trkpt>
      <trkpt lat="47.52062" lon="6.72832">
        <ele>384</ele>
        <time>2015-05-25T08:06:06.000Z</time>
      </trkpt>
      <trkpt lat="47.52072" lon="6.72834">
        <ele>382</ele>
        <time>2015-05-25T08:06:07.000Z</time>
      </trkpt>
      <trkpt lat="47.5208" lon="6.7284">
        <ele>382</ele>
        <time>2015-05-25T08:06:08.000Z</time>
      </trkpt>
      <trkpt lat="47.52089" lon="6.72843">
        <ele>380</ele>
        <time>2015-05-25T08:06:09.000Z</time>
      </trkpt>
      <trkpt lat="47.521" lon="6.72843">
        <ele>379</ele>
        <time>2015-05-25T08:06:10.000Z</time>
      </trkpt>
      <trkpt lat="47.5211" lon="6.72842">
        <ele>378</ele>
        <time>2015-05-25T08:06:11.000Z</time>
      </trkpt>
      <trkpt lat="47.52121" lon="6.72845">
        <ele>377</ele>
        <time>2015-05-25T08:06:12.000Z</time>
      </trkpt>
      <trkpt lat="47.52131" lon="6.72845">
        <ele>376</ele>
        <time>2015-05-25T08:06:13.000Z</time>
      </trkpt>
      <trkpt lat="47.5214" lon="6.72847">
        <ele>375</ele>
        <time>2015-05-25T08:06:14.000Z</time>
      </trkpt>
      <trkpt lat="47.52149" lon="6.72851">
        <ele>374</ele>
        <time>2015-05-25T08:06:15.000Z</time>
      </trkpt>
      <trkpt lat="47.52157" lon="6.72849">
        <ele>374</ele>
        <time>2015-05-25T08:06:16.000Z</time>
      </trkpt>
      <trkpt lat="47.52167" lon="6.7285">
        <ele>368</ele>
        <time>2015-05-25T08:06:17.000Z</time>
      </trkpt>
      <trkpt lat="47.52179" lon="6.72851">
        <ele>367</ele>
        <time>2015-05-25T08:06:18.000Z</time>
      </trkpt>
      <trkpt lat="47.52187" lon="6.7285">
        <ele>366</ele>
        <time>2015-05-25T08:06:19.000Z</time>
      </trkpt>
      <trkpt lat="47.52194" lon="6.72853">
        <ele>365</ele>
        <time>2015-05-25T08:06:20.000Z</time>
      </trkpt>
      <trkpt lat="47.52202" lon="6.72852">
        <ele>364</ele>
        <time>2015-05-25T08:06:21.000Z</time>
      </trkpt>
      <trkpt lat="47.52216" lon="6.72854">
        <ele>362</ele>
        <time>2015-05-25T08:06:22.000Z</time>
      </trkpt>
      <trkpt lat="47.52227" lon="6.72856">
        <ele>361</ele>
        <time>2015-05-25T08:06:23.000Z</time>
      </trkpt>
      <trkpt lat="47.52235" lon="6.72856">
        <ele>360</ele>
        <time>2015-05-25T08:06:24.000Z</time>
      </trkpt>
      <trkpt lat="47.5224" lon="6.72857">
        <ele>360</ele>
        <time>2015-05-25T08:06:25.000Z</time>
      </trkpt>
      <trkpt lat="47.52246" lon="6.72857">
        <ele>359</ele>
        <time>2015-05-25T08:06:26.000Z</time>
      </trkpt>
      <trkpt lat="47.5225" lon="6.72858">
        <ele>359</ele>
        <time>2015-05-25T08:06:27.000Z</time>
      </trkpt>
      <trkpt lat="47.52254" lon="6.72852">
        <ele>355</ele>
        <time>2015-05-25T08:06:28.000Z</time>
      </trkpt>
      <trkpt lat="47.52258" lon="6.72846">
        <ele>355</ele>
        <time>2015-05-25T08:06:29.000Z</time>
      </trkpt>
      <trkpt lat="47.52262" lon="6.72841">
        <ele>355</ele>
        <time>2015-05-25T08:06:30.000Z</time>
      </trkpt>
      <trkpt lat="47.52267" lon="6.72838">
        <ele>355</ele>
        <time>2015-05-25T08:06:31.000Z</time>
      </trkpt>
      <trkpt lat="47.52271" lon="6.72836">
        <ele>355</ele>
        <time>2015-05-25T08:06:32.000Z</time>
      </trkpt>
      <trkpt lat="47.52277" lon="6.72832">
        <ele>356</ele>
        <time>2015-05-25T08:06:33.000Z</time>
      </trkpt>
      <trkpt lat="47.5228" lon="6.72832">
        <ele>357</ele>
        <time>2015-05-25T08:06:34.000Z</time>
      </trkpt>
      <trkpt lat="47.52284" lon="6.72832">
        <ele>357</ele>
        <time>2015-05-25T08:06:35.000Z</time>
      </trkpt>
      <trkpt lat="47.52287" lon="6.72834">
        <ele>355</ele>
        <time>2015-05-25T08:06:51.000Z</time>
      </trkpt>
      <trkpt lat="47.52288" lon="6.72835">
        <ele>355</ele>
        <time>2015-05-25T08:06:52.000Z</time>
      </trkpt>
      <trkpt lat="47.52291" lon="6.72838">
        <ele>355</ele>
        <time>2015-05-25T08:06:54.000Z</time>
      </trkpt>
      <trkpt lat="47.52292" lon="6.72839">
        <ele>355</ele>
        <time>2015-05-25T08:06:55.000Z</time>
      </trkpt>
      <trkpt lat="47.52296" lon="6.72841">
        <ele>355</ele>
        <time>2015-05-25T08:06:57.000Z</time>
      </trkpt>
      <trkpt lat="47.52299" lon="6.72841">
        <ele>355</ele>
        <time>2015-05-25T08:06:58.000Z</time>
      </trkpt>
      <trkpt lat="47.52302" lon="6.72842">
        <ele>355</ele>
        <time>2015-05-25T08:06:59.000Z</time>
      </trkpt>
      <trkpt lat="47.52304" lon="6.72842">
        <ele>355</ele>
        <time>2015-05-25T08:07:00.000Z</time>
      </trkpt>
      <trkpt lat="47.52307" lon="6.72844">
        <ele>355</ele>
        <time>2015-05-25T08:07:01.000Z</time>
      </trkpt>
      <trkpt lat="47.5231" lon="6.72846">
        <ele>356</ele>
        <time>2015-05-25T08:07:02.000Z</time>
      </trkpt>
      <trkpt lat="47.52316" lon="6.72852">
        <ele>356</ele>
        <time>2015-05-25T08:07:03.000Z</time>
      </trkpt>
      <trkpt lat="47.52321" lon="6.72854">
        <ele>356</ele>
        <time>2015-05-25T08:07:04.000Z</time>
      </trkpt>
      <trkpt lat="47.52325" lon="6.72854">
        <ele>356</ele>
        <time>2015-05-25T08:07:05.000Z</time>
      </trkpt>
      <trkpt lat="47.52329" lon="6.72854">
        <ele>356</ele>
        <time>2015-05-25T08:07:06.000Z</time>
      </trkpt>
      <trkpt lat="47.52333" lon="6.72855">
        <ele>356</ele>
        <time>2015-05-25T08:07:07.000Z</time>
      </trkpt>
      <trkpt lat="47.52336" lon="6.72855">
        <ele>355</ele>
        <time>2015-05-25T08:07:08.000Z</time>
      </trkpt>
      <trkpt lat="47.5234" lon="6.72855">
        <ele>355</ele>
        <time>2015-05-25T08:07:09.000Z</time>
      </trkpt>
      <trkpt lat="47.52344" lon="6.72855">
        <ele>355</ele>
        <time>2015-05-25T08:07:10.000Z</time>
      </trkpt>
      <trkpt lat="47.52347" lon="6.72856">
        <ele>355</ele>
        <time>2015-05-25T08:07:11.000Z</time>
      </trkpt>
      <trkpt lat="47.52351" lon="6.72856">
        <ele>355</ele>
        <time>2015-05-25T08:07:12.000Z</time>
      </trkpt>
      <trkpt lat="47.52355" lon="6.72856">
        <ele>355</ele>
        <time>2015-05-25T08:07:13.000Z</time>
      </trkpt>
      <trkpt lat="47.52359" lon="6.72856">
        <ele>355</ele>
        <time>2015-05-25T08:07:14.000Z</time>
      </trkpt>
      <trkpt lat="47.52362" lon="6.72857">
        <ele>355</ele>
        <time>2015-05-25T08:07:15.000Z</time>
      </trkpt>
      <trkpt lat="47.52366" lon="6.72858">
        <ele>354</ele>
        <time>2015-05-25T08:07:16.000Z</time>
      </trkpt>
      <trkpt lat="47.52372" lon="6.72857">
        <ele>354</ele>
        <time>2015-05-25T08:07:17.000Z</time>
      </trkpt>
      <trkpt lat="47.52377" lon="6.72857">
        <ele>354</ele>
        <time>2015-05-25T08:07:18.000Z</time>
      </trkpt>
      <trkpt lat="47.52381" lon="6.72858">
        <ele>354</ele>
        <time>2015-05-25T08:07:19.000Z</time>
      </trkpt>
      <trkpt lat="47.52386" lon="6.72859">
        <ele>354</ele>
        <time>2015-05-25T08:07:20.000Z</time>
      </trkpt>
      <trkpt lat="47.52392" lon="6.72858">
        <ele>354</ele>
        <time>2015-05-25T08:07:21.000Z</time>
      </trkpt>
      <trkpt lat="47.52396" lon="6.72856">
        <ele>354</ele>
        <time>2015-05-25T08:07:22.000Z</time>
      </trkpt>
      <trkpt lat="47.52401" lon="6.72857">
        <ele>354</ele>
        <time>2015-05-25T08:07:23.000Z</time>
      </trkpt>
      <trkpt lat="47.52406" lon="6.72856">
        <ele>354</ele>
        <time>2015-05-25T08:07:24.000Z</time>
      </trkpt>
      <trkpt lat="47.52411" lon="6.72857">
        <ele>354</ele>
        <time>2015-05-25T08:07:25.000Z</time>
      </trkpt>
      <trkpt lat="47.52417" lon="6.72857">
        <ele>352</ele>
        <time>2015-05-25T08:07:26.000Z</time>
      </trkpt>
      <trkpt lat="47.52423" lon="6.72858">
        <ele>352</ele>
        <time>2015-05-25T08:07:27.000Z</time>
      </trkpt>
      <trkpt lat="47.52428" lon="6.72859">
        <ele>352</ele>
        <time>2015-05-25T08:07:28.000Z</time>
      </trkpt>
      <trkpt lat="47.52435" lon="6.72859">
        <ele>352</ele>
        <time>2015-05-25T08:07:29.000Z</time>
      </trkpt>
      <trkpt lat="47.52441" lon="6.7286">
        <ele>351</ele>
        <time>2015-05-25T08:07:30.000Z</time>
      </trkpt>
      <trkpt lat="47.52447" lon="6.72859">
        <ele>351</ele>
        <time>2015-05-25T08:07:31.000Z</time>
      </trkpt>
      <trkpt lat="47.52453" lon="6.72858">
        <ele>351</ele>
        <time>2015-05-25T08:07:32.000Z</time>
      </trkpt>
      <trkpt lat="47.52459" lon="6.72858">
        <ele>351</ele>
        <time>2015-05-25T08:07:33.000Z</time>
      </trkpt>
      <trkpt lat="47.52466" lon="6.72856">
        <ele>350</ele>
        <time>2015-05-25T08:07:34.000Z</time>
      </trkpt>
      <trkpt lat="47.52472" lon="6.72856">
        <ele>350</ele>
        <time>2015-05-25T08:07:35.000Z</time>
      </trkpt>
      <trkpt lat="47.52478" lon="6.72854">
        <ele>350</ele>
        <time>2015-05-25T08:07:36.000Z</time>
      </trkpt>
      <trkpt lat="47.52484" lon="6.72853">
        <ele>350</ele>
        <time>2015-05-25T08:07:37.000Z</time>
      </trkpt>
      <trkpt lat="47.52489" lon="6.72851">
        <ele>350</ele>
        <time>2015-05-25T08:07:38.000Z</time>
      </trkpt>
      <trkpt lat="47.52495" lon="6.72848">
        <ele>350</ele>
        <time>2015-05-25T08:07:39.000Z</time>
      </trkpt>
      <trkpt lat="47.525" lon="6.72843">
        <ele>347</ele>
        <time>2015-05-25T08:07:40.000Z</time>
      </trkpt>
      <trkpt lat="47.52506" lon="6.72838">
        <ele>347</ele>
        <time>2015-05-25T08:07:41.000Z</time>
      </trkpt>
      <trkpt lat="47.52511" lon="6.72831">
        <ele>348</ele>
        <time>2015-05-25T08:07:42.000Z</time>
      </trkpt>
      <trkpt lat="47.52516" lon="6.72826">
        <ele>348</ele>
        <time>2015-05-25T08:07:43.000Z</time>
      </trkpt>
      <trkpt lat="47.52522" lon="6.7282">
        <ele>348</ele>
        <time>2015-05-25T08:07:44.000Z</time>
      </trkpt>
      <trkpt lat="47.52527" lon="6.72813">
        <ele>348</ele>
        <time>2015-05-25T08:07:45.000Z</time>
      </trkpt>
      <trkpt lat="47.52532" lon="6.72806">
        <ele>347</ele>
        <time>2015-05-25T08:07:46.000Z</time>
      </trkpt>
      <trkpt lat="47.52539" lon="6.728">
        <ele>347</ele>
        <time>2015-05-25T08:07:47.000Z</time>
      </trkpt>
      <trkpt lat="47.52545" lon="6.72792">
        <ele>347</ele>
        <time>2015-05-25T08:07:48.000Z</time>
      </trkpt>
      <trkpt lat="47.52551" lon="6.72787">
        <ele>347</ele>
        <time>2015-05-25T08:07:49.000Z</time>
      </trkpt>
      <trkpt lat="47.52558" lon="6.72781">
        <ele>347</ele>
        <time>2015-05-25T08:07:50.000Z</time>
      </trkpt>
      <trkpt lat="47.52565" lon="6.72778">
        <ele>347</ele>
        <time>2015-05-25T08:07:51.000Z</time>
      </trkpt>
      <trkpt lat="47.52573" lon="6.72776">
        <ele>347</ele>
        <time>2015-05-25T08:07:52.000Z</time>
      </trkpt>
      <trkpt lat="47.5258" lon="6.72772">
        <ele>347</ele>
        <time>2015-05-25T08:07:53.000Z</time>
      </trkpt>
      <trkpt lat="47.52588" lon="6.7277">
        <ele>345</ele>
        <time>2015-05-25T08:07:54.000Z</time>
      </trkpt>
      <trkpt lat="47.52595" lon="6.72772">
        <ele>344</ele>
        <time>2015-05-25T08:07:55.000Z</time>
      </trkpt>
      <trkpt lat="47.52604" lon="6.72772">
        <ele>344</ele>
        <time>2015-05-25T08:07:56.000Z</time>
      </trkpt>
      <trkpt lat="47.52611" lon="6.72772">
        <ele>343</ele>
        <time>2015-05-25T08:07:57.000Z</time>
      </trkpt>
      <trkpt lat="47.52618" lon="6.72775">
        <ele>343</ele>
        <time>2015-05-25T08:07:58.000Z</time>
      </trkpt>
      <trkpt lat="47.52627" lon="6.72778">
        <ele>342</ele>
        <time>2015-05-25T08:07:59.000Z</time>
      </trkpt>
      <trkpt lat="47.52635" lon="6.72779">
        <ele>342</ele>
        <time>2015-05-25T08:08:00.000Z</time>
      </trkpt>
      <trkpt lat="47.52643" lon="6.7278">
        <ele>342</ele>
        <time>2015-05-25T08:08:01.000Z</time>
      </trkpt>
      <trkpt lat="47.5265" lon="6.72784">
        <ele>342</ele>
        <time>2015-05-25T08:08:02.000Z</time>
      </trkpt>
      <trkpt lat="47.52658" lon="6.72789">
        <ele>341</ele>
        <time>2015-05-25T08:08:03.000Z</time>
      </trkpt>
      <trkpt lat="47.5266" lon="6.72798">
        <ele>341</ele>
        <time>2015-05-25T08:08:04.000Z</time>
      </trkpt>
      <trkpt lat="47.52661" lon="6.72806">
        <ele>341</ele>
        <time>2015-05-25T08:08:05.000Z</time>
      </trkpt>
      <trkpt lat="47.52662" lon="6.72811">
        <ele>340</ele>
        <time>2015-05-25T08:08:06.000Z</time>
      </trkpt>
      <trkpt lat="47.52663" lon="6.72818">
        <ele>340</ele>
        <time>2015-05-25T08:08:07.000Z</time>
      </trkpt>
      <trkpt lat="47.52666" lon="6.72824">
        <ele>339</ele>
        <time>2015-05-25T08:08:08.000Z</time>
      </trkpt>
      <trkpt lat="47.52669" lon="6.72828">
        <ele>338</ele>
        <time>2015-05-25T08:08:09.000Z</time>
      </trkpt>
      <trkpt lat="47.52672" lon="6.72833">
        <ele>338</ele>
        <time>2015-05-25T08:08:10.000Z</time>
      </trkpt>
      <trkpt lat="47.52674" lon="6.72842">
        <ele>338</ele>
        <time>2015-05-25T08:08:11.000Z</time>
      </trkpt>
      <trkpt lat="47.52677" lon="6.72846">
        <ele>337</ele>
        <time>2015-05-25T08:08:12.000Z</time>
      </trkpt>
      <trkpt lat="47.52682" lon="6.7285">
        <ele>337</ele>
        <time>2015-05-25T08:08:13.000Z</time>
      </trkpt>
      <trkpt lat="47.52691" lon="6.72848">
        <ele>337</ele>
        <time>2015-05-25T08:08:14.000Z</time>
      </trkpt>
      <trkpt lat="47.52697" lon="6.72849">
        <ele>337</ele>
        <time>2015-05-25T08:08:15.000Z</time>
      </trkpt>
      <trkpt lat="47.52704" lon="6.72848">
        <ele>337</ele>
        <time>2015-05-25T08:08:16.000Z</time>
      </trkpt>
      <trkpt lat="47.5271" lon="6.72848">
        <ele>337</ele>
        <time>2015-05-25T08:08:17.000Z</time>
      </trkpt>
      <trkpt lat="47.52716" lon="6.72845">
        <ele>337</ele>
        <time>2015-05-25T08:08:18.000Z</time>
      </trkpt>
      <trkpt lat="47.52721" lon="6.72841">
        <ele>337</ele>
        <time>2015-05-25T08:08:19.000Z</time>
      </trkpt>
      <trkpt lat="47.52725" lon="6.72836">
        <ele>337</ele>
        <time>2015-05-25T08:08:20.000Z</time>
      </trkpt>
      <trkpt lat="47.5273" lon="6.72833">
        <ele>337</ele>
        <time>2015-05-25T08:08:21.000Z</time>
      </trkpt>
      <trkpt lat="47.52734" lon="6.72828">
        <ele>337</ele>
        <time>2015-05-25T08:08:22.000Z</time>
      </trkpt>
      <trkpt lat="47.52738" lon="6.72826">
        <ele>337</ele>
        <time>2015-05-25T08:08:23.000Z</time>
      </trkpt>
      <trkpt lat="47.52742" lon="6.72823">
        <ele>337</ele>
        <time>2015-05-25T08:08:24.000Z</time>
      </trkpt>
      <trkpt lat="47.52746" lon="6.72819">
        <ele>337</ele>
        <time>2015-05-25T08:08:25.000Z</time>
      </trkpt>
      <trkpt lat="47.5275" lon="6.72815">
        <ele>337</ele>
        <time>2015-05-25T08:08:26.000Z</time>
      </trkpt>
      <trkpt lat="47.52754" lon="6.72811">
        <ele>336</ele>
        <time>2015-05-25T08:08:27.000Z</time>
      </trkpt>
      <trkpt lat="47.52759" lon="6.72806">
        <ele>336</ele>
        <time>2015-05-25T08:08:28.000Z</time>
      </trkpt>
      <trkpt lat="47.52764" lon="6.72801">
        <ele>337</ele>
        <time>2015-05-25T08:08:29.000Z</time>
      </trkpt>
      <trkpt lat="47.52768" lon="6.72798">
        <ele>337</ele>
        <time>2015-05-25T08:08:30.000Z</time>
      </trkpt>
      <trkpt lat="47.52773" lon="6.72794">
        <ele>337</ele>
        <time>2015-05-25T08:08:31.000Z</time>
      </trkpt>
      <trkpt lat="47.52778" lon="6.7279">
        <ele>337</ele>
        <time>2015-05-25T08:08:32.000Z</time>
      </trkpt>
      <trkpt lat="47.52783" lon="6.72787">
        <ele>337</ele>
        <time>2015-05-25T08:08:33.000Z</time>
      </trkpt>
      <trkpt lat="47.52787" lon="6.72782">
        <ele>337</ele>
        <time>2015-05-25T08:08:34.000Z</time>
      </trkpt>
      <trkpt lat="47.52792" lon="6.72779">
        <ele>337</ele>
        <time>2015-05-25T08:08:35.000Z</time>
      </trkpt>
      <trkpt lat="47.52797" lon="6.72774">
        <ele>337</ele>
        <time>2015-05-25T08:08:36.000Z</time>
      </trkpt>
      <trkpt lat="47.52802" lon="6.7277">
        <ele>337</ele>
        <time>2015-05-25T08:08:37.000Z</time>
      </trkpt>
      <trkpt lat="47.52807" lon="6.72765">
        <ele>337</ele>
        <time>2015-05-25T08:08:38.000Z</time>
      </trkpt>
      <trkpt lat="47.52812" lon="6.72762">
        <ele>337</ele>
        <time>2015-05-25T08:08:39.000Z</time>
      </trkpt>
      <trkpt lat="47.52819" lon="6.72759">
        <ele>337</ele>
        <time>2015-05-25T08:08:40.000Z</time>
      </trkpt>
      <trkpt lat="47.52824" lon="6.72757">
        <ele>337</ele>
        <time>2015-05-25T08:08:41.000Z</time>
      </trkpt>
      <trkpt lat="47.52831" lon="6.72756">
        <ele>337</ele>
        <time>2015-05-25T08:08:42.000Z</time>
      </trkpt>
      <trkpt lat="47.52837" lon="6.72757">
        <ele>337</ele>
        <time>2015-05-25T08:08:43.000Z</time>
      </trkpt>
      <trkpt lat="47.52843" lon="6.72759">
        <ele>336</ele>
        <time>2015-05-25T08:08:44.000Z</time>
      </trkpt>
      <trkpt lat="47.52848" lon="6.72761">
        <ele>336</ele>
        <time>2015-05-25T08:08:45.000Z</time>
      </trkpt>
      <trkpt lat="47.52854" lon="6.72765">
        <ele>336</ele>
        <time>2015-05-25T08:08:46.000Z</time>
      </trkpt>
      <trkpt lat="47.52859" lon="6.7277">
        <ele>336</ele>
        <time>2015-05-25T08:08:47.000Z</time>
      </trkpt>
      <trkpt lat="47.52865" lon="6.72775">
        <ele>336</ele>
        <time>2015-05-25T08:08:48.000Z</time>
      </trkpt>
      <trkpt lat="47.5287" lon="6.7278">
        <ele>336</ele>
        <time>2015-05-25T08:08:49.000Z</time>
      </trkpt>
      <trkpt lat="47.52875" lon="6.72786">
        <ele>336</ele>
        <time>2015-05-25T08:08:50.000Z</time>
      </trkpt>
      <trkpt lat="47.52881" lon="6.72791">
        <ele>336</ele>
        <time>2015-05-25T08:08:51.000Z</time>
      </trkpt>
      <trkpt lat="47.52887" lon="6.72795">
        <ele>336</ele>
        <time>2015-05-25T08:08:52.000Z</time>
      </trkpt>
      <trkpt lat="47.52893" lon="6.72798">
        <ele>336</ele>
        <time>2015-05-25T08:08:53.000Z</time>
      </trkpt>
      <trkpt lat="47.52898" lon="6.72801">
        <ele>336</ele>
        <time>2015-05-25T08:08:54.000Z</time>
      </trkpt>
      <trkpt lat="47.52904" lon="6.72802">
        <ele>336</ele>
        <time>2015-05-25T08:08:55.000Z</time>
      </trkpt>
      <trkpt lat="47.5291" lon="6.72803">
        <ele>336</ele>
        <time>2015-05-25T08:08:56.000Z</time>
      </trkpt>
      <trkpt lat="47.52916" lon="6.72804">
        <ele>336</ele>
        <time>2015-05-25T08:08:57.000Z</time>
      </trkpt>
      <trkpt lat="47.52922" lon="6.72804">
        <ele>337</ele>
        <time>2015-05-25T08:08:58.000Z</time>
      </trkpt>
      <trkpt lat="47.52929" lon="6.72802">
        <ele>337</ele>
        <time>2015-05-25T08:08:59.000Z</time>
      </trkpt>
      <trkpt lat="47.52935" lon="6.72801">
        <ele>337</ele>
        <time>2015-05-25T08:09:00.000Z</time>
      </trkpt>
      <trkpt lat="47.52942" lon="6.728">
        <ele>338</ele>
        <time>2015-05-25T08:09:01.000Z</time>
      </trkpt>
      <trkpt lat="47.52948" lon="6.72797">
        <ele>338</ele>
        <time>2015-05-25T08:09:02.000Z</time>
      </trkpt>
      <trkpt lat="47.52954" lon="6.72794">
        <ele>338</ele>
        <time>2015-05-25T08:09:03.000Z</time>
      </trkpt>
      <trkpt lat="47.5296" lon="6.72791">
        <ele>338</ele>
        <time>2015-05-25T08:09:04.000Z</time>
      </trkpt>
      <trkpt lat="47.52966" lon="6.72789">
        <ele>338</ele>
        <time>2015-05-25T08:09:05.000Z</time>
      </trkpt>
      <trkpt lat="47.52971" lon="6.72789">
        <ele>338</ele>
        <time>2015-05-25T08:09:06.000Z</time>
      </trkpt>
      <trkpt lat="47.52977" lon="6.72786">
        <ele>338</ele>
        <time>2015-05-25T08:09:07.000Z</time>
      </trkpt>
      <trkpt lat="47.52982" lon="6.72781">
        <ele>338</ele>
        <time>2015-05-25T08:09:08.000Z</time>
      </trkpt>
      <trkpt lat="47.52988" lon="6.72778">
        <ele>338</ele>
        <time>2015-05-25T08:09:09.000Z</time>
      </trkpt>
      <trkpt lat="47.52994" lon="6.72775">
        <ele>338</ele>
        <time>2015-05-25T08:09:10.000Z</time>
      </trkpt>
      <trkpt lat="47.53" lon="6.72773">
        <ele>338</ele>
        <time>2015-05-25T08:09:11.000Z</time>
      </trkpt>
      <trkpt lat="47.53005" lon="6.72771">
        <ele>340</ele>
        <time>2015-05-25T08:09:12.000Z</time>
      </trkpt>
      <trkpt lat="47.53011" lon="6.72769">
        <ele>340</ele>
        <time>2015-05-25T08:09:13.000Z</time>
      </trkpt>
      <trkpt lat="47.53016" lon="6.72768">
        <ele>340</ele>
        <time>2015-05-25T08:09:14.000Z</time>
      </trkpt>
      <trkpt lat="47.53021" lon="6.72767">
        <ele>340</ele>
        <time>2015-05-25T08:09:15.000Z</time>
      </trkpt>
      <trkpt lat="47.53026" lon="6.72767">
        <ele>340</ele>
        <time>2015-05-25T08:09:16.000Z</time>
      </trkpt>
      <trkpt lat="47.53031" lon="6.72766">
        <ele>340</ele>
        <time>2015-05-25T08:09:17.000Z</time>
      </trkpt>
      <trkpt lat="47.53036" lon="6.72765">
        <ele>340</ele>
        <time>2015-05-25T08:09:18.000Z</time>
      </trkpt>
      <trkpt lat="47.53042" lon="6.72763">
        <ele>340</ele>
        <time>2015-05-25T08:09:19.000Z</time>
      </trkpt>
      <trkpt lat="47.53047" lon="6.72762">
        <ele>340</ele>
        <time>2015-05-25T08:09:20.000Z</time>
      </trkpt>
      <trkpt lat="47.53053" lon="6.7276">
        <ele>340</ele>
        <time>2015-05-25T08:09:21.000Z</time>
      </trkpt>
      <trkpt lat="47.53059" lon="6.72758">
        <ele>340</ele>
        <time>2015-05-25T08:09:22.000Z</time>
      </trkpt>
      <trkpt lat="47.53064" lon="6.72757">
        <ele>340</ele>
        <time>2015-05-25T08:09:23.000Z</time>
      </trkpt>
      <trkpt lat="47.53069" lon="6.72756">
        <ele>339</ele>
        <time>2015-05-25T08:09:24.000Z</time>
      </trkpt>
      <trkpt lat="47.53074" lon="6.72755">
        <ele>339</ele>
        <time>2015-05-25T08:09:25.000Z</time>
      </trkpt>
      <trkpt lat="47.53079" lon="6.72753">
        <ele>339</ele>
        <time>2015-05-25T08:09:26.000Z</time>
      </trkpt>
      <trkpt lat="47.53085" lon="6.72754">
        <ele>339</ele>
        <time>2015-05-25T08:09:27.000Z</time>
      </trkpt>
      <trkpt lat="47.5309" lon="6.72753">
        <ele>339</ele>
        <time>2015-05-25T08:09:28.000Z</time>
      </trkpt>
      <trkpt lat="47.53095" lon="6.72752">
        <ele>340</ele>
        <time>2015-05-25T08:09:29.000Z</time>
      </trkpt>
      <trkpt lat="47.53101" lon="6.72751">
        <ele>340</ele>
        <time>2015-05-25T08:09:30.000Z</time>
      </trkpt>
      <trkpt lat="47.53106" lon="6.7275">
        <ele>339</ele>
        <time>2015-05-25T08:09:31.000Z</time>
      </trkpt>
      <trkpt lat="47.5311" lon="6.72749">
        <ele>340</ele>
        <time>2015-05-25T08:09:32.000Z</time>
      </trkpt>
      <trkpt lat="47.53116" lon="6.72748">
        <ele>340</ele>
        <time>2015-05-25T08:09:33.000Z</time>
      </trkpt>
      <trkpt lat="47.53121" lon="6.72746">
        <ele>340</ele>
        <time>2015-05-25T08:09:34.000Z</time>
      </trkpt>
      <trkpt lat="47.53126" lon="6.72744">
        <ele>340</ele>
        <time>2015-05-25T08:09:35.000Z</time>
      </trkpt>
      <trkpt lat="47.53131" lon="6.72742">
        <ele>340</ele>
        <time>2015-05-25T08:09:36.000Z</time>
      </trkpt>
      <trkpt lat="47.53136" lon="6.7274">
        <ele>340</ele>
        <time>2015-05-25T08:09:37.000Z</time>
      </trkpt>
      <trkpt lat="47.53141" lon="6.72738">
        <ele>340</ele>
        <time>2015-05-25T08:09:38.000Z</time>
      </trkpt>
      <trkpt lat="47.53146" lon="6.72735">
        <ele>340</ele>
        <time>2015-05-25T08:09:39.000Z</time>
      </trkpt>
      <trkpt lat="47.53151" lon="6.72733">
        <ele>340</ele>
        <time>2015-05-25T08:09:40.000Z</time>
      </trkpt>
      <trkpt lat="47.53156" lon="6.7273">
        <ele>340</ele>
        <time>2015-05-25T08:09:41.000Z</time>
      </trkpt>
      <trkpt lat="47.53162" lon="6.72727">
        <ele>341</ele>
        <time>2015-05-25T08:09:42.000Z</time>
      </trkpt>
      <trkpt lat="47.53167" lon="6.72725">
        <ele>341</ele>
        <time>2015-05-25T08:09:43.000Z</time>
      </trkpt>
      <trkpt lat="47.53172" lon="6.72722">
        <ele>341</ele>
        <time>2015-05-25T08:09:44.000Z</time>
      </trkpt>
      <trkpt lat="47.53177" lon="6.7272">
        <ele>342</ele>
        <time>2015-05-25T08:09:45.000Z</time>
      </trkpt>
      <trkpt lat="47.53182" lon="6.72718">
        <ele>342</ele>
        <time>2015-05-25T08:09:46.000Z</time>
      </trkpt>
      <trkpt lat="47.53186" lon="6.72715">
        <ele>342</ele>
        <time>2015-05-25T08:09:47.000Z</time>
      </trkpt>
      <trkpt lat="47.5319" lon="6.72713">
        <ele>342</ele>
        <time>2015-05-25T08:09:48.000Z</time>
      </trkpt>
      <trkpt lat="47.53195" lon="6.7271">
        <ele>342</ele>
        <time>2015-05-25T08:09:49.000Z</time>
      </trkpt>
      <trkpt lat="47.53199" lon="6.72707">
        <ele>342</ele>
        <time>2015-05-25T08:09:50.000Z</time>
      </trkpt>
      <trkpt lat="47.53203" lon="6.72704">
        <ele>342</ele>
        <time>2015-05-25T08:09:51.000Z</time>
      </trkpt>
      <trkpt lat="47.53207" lon="6.72701">
        <ele>342</ele>
        <time>2015-05-25T08:09:52.000Z</time>
      </trkpt>
      <trkpt lat="47.53211" lon="6.72697">
        <ele>342</ele>
        <time>2015-05-25T08:09:53.000Z</time>
      </trkpt>
      <trkpt lat="47.53215" lon="6.72695">
        <ele>342</ele>
        <time>2015-05-25T08:09:54.000Z</time>
      </trkpt>
      <trkpt lat="47.5322" lon="6.72691">
        <ele>342</ele>
        <time>2015-05-25T08:09:55.000Z</time>
      </trkpt>
      <trkpt lat="47.53224" lon="6.72686">
        <ele>342</ele>
        <time>2015-05-25T08:09:56.000Z</time>
      </trkpt>
      <trkpt lat="47.53228" lon="6.72683">
        <ele>342</ele>
        <time>2015-05-25T08:09:57.000Z</time>
      </trkpt>
      <trkpt lat="47.53232" lon="6.7268">
        <ele>342</ele>
        <time>2015-05-25T08:09:58.000Z</time>
      </trkpt>
      <trkpt lat="47.53236" lon="6.72676">
        <ele>341</ele>
        <time>2015-05-25T08:09:59.000Z</time>
      </trkpt>
      <trkpt lat="47.5324" lon="6.72673">
        <ele>341</ele>
        <time>2015-05-25T08:10:00.000Z</time>
      </trkpt>
      <trkpt lat="47.53244" lon="6.7267">
        <ele>341</ele>
        <time>2015-05-25T08:10:01.000Z</time>
      </trkpt>
      <trkpt lat="47.53248" lon="6.72665">
        <ele>341</ele>
        <time>2015-05-25T08:10:02.000Z</time>
      </trkpt>
      <trkpt lat="47.53252" lon="6.72662">
        <ele>341</ele>
        <time>2015-05-25T08:10:03.000Z</time>
      </trkpt>
      <trkpt lat="47.53256" lon="6.72659">
        <ele>342</ele>
        <time>2015-05-25T08:10:04.000Z</time>
      </trkpt>
      <trkpt lat="47.53261" lon="6.72656">
        <ele>342</ele>
        <time>2015-05-25T08:10:05.000Z</time>
      </trkpt>
      <trkpt lat="47.53265" lon="6.72652">
        <ele>342</ele>
        <time>2015-05-25T08:10:06.000Z</time>
      </trkpt>
      <trkpt lat="47.5327" lon="6.72649">
        <ele>342</ele>
        <time>2015-05-25T08:10:07.000Z</time>
      </trkpt>
      <trkpt lat="47.53276" lon="6.72647">
        <ele>342</ele>
        <time>2015-05-25T08:10:08.000Z</time>
      </trkpt>
      <trkpt lat="47.5328" lon="6.72645">
        <ele>342</ele>
        <time>2015-05-25T08:10:09.000Z</time>
      </trkpt>
      <trkpt lat="47.53285" lon="6.72643">
        <ele>342</ele>
        <time>2015-05-25T08:10:10.000Z</time>
      </trkpt>
      <trkpt lat="47.5329" lon="6.7264">
        <ele>343</ele>
        <time>2015-05-25T08:10:11.000Z</time>
      </trkpt>
      <trkpt lat="47.53295" lon="6.72639">
        <ele>343</ele>
        <time>2015-05-25T08:10:12.000Z</time>
      </trkpt>
      <trkpt lat="47.53299" lon="6.72637">
        <ele>343</ele>
        <time>2015-05-25T08:10:13.000Z</time>
      </trkpt>
      <trkpt lat="47.53303" lon="6.72635">
        <ele>343</ele>
        <time>2015-05-25T08:10:14.000Z</time>
      </trkpt>
      <trkpt lat="47.53307" lon="6.72634">
        <ele>343</ele>
        <time>2015-05-25T08:10:15.000Z</time>
      </trkpt>
      <trkpt lat="47.53311" lon="6.72634">
        <ele>343</ele>
        <time>2015-05-25T08:10:16.000Z</time>
      </trkpt>
      <trkpt lat="47.53314" lon="6.72635">
        <ele>342</ele>
        <time>2015-05-25T08:10:17.000Z</time>
      </trkpt>
      <trkpt lat="47.53318" lon="6.72634">
        <ele>342</ele>
        <time>2015-05-25T08:10:18.000Z</time>
      </trkpt>
      <trkpt lat="47.53323" lon="6.72633">
        <ele>342</ele>
        <time>2015-05-25T08:10:19.000Z</time>
      </trkpt>
      <trkpt lat="47.53327" lon="6.72633">
        <ele>342</ele>
        <time>2015-05-25T08:10:20.000Z</time>
      </trkpt>
      <trkpt lat="47.53331" lon="6.72634">
        <ele>342</ele>
        <time>2015-05-25T08:10:21.000Z</time>
      </trkpt>
      <trkpt lat="47.53335" lon="6.72634">
        <ele>342</ele>
        <time>2015-05-25T08:10:22.000Z</time>
      </trkpt>
      <trkpt lat="47.5334" lon="6.72634">
        <ele>342</ele>
        <time>2015-05-25T08:10:23.000Z</time>
      </trkpt>
      <trkpt lat="47.53344" lon="6.72635">
        <ele>343</ele>
        <time>2015-05-25T08:10:24.000Z</time>
      </trkpt>
      <trkpt lat="47.53348" lon="6.72636">
        <ele>343</ele>
        <time>2015-05-25T08:10:25.000Z</time>
      </trkpt>
      <trkpt lat="47.53353" lon="6.72637">
        <ele>343</ele>
        <time>2015-05-25T08:10:26.000Z</time>
      </trkpt>
      <trkpt lat="47.53357" lon="6.72637">
        <ele>343</ele>
        <time>2015-05-25T08:10:27.000Z</time>
      </trkpt>
      <trkpt lat="47.53361" lon="6.72638">
        <ele>343</ele>
        <time>2015-05-25T08:10:28.000Z</time>
      </trkpt>
      <trkpt lat="47.53365" lon="6.72639">
        <ele>343</ele>
        <time>2015-05-25T08:10:29.000Z</time>
      </trkpt>
      <trkpt lat="47.53369" lon="6.7264">
        <ele>343</ele>
        <time>2015-05-25T08:10:30.000Z</time>
      </trkpt>
      <trkpt lat="47.53373" lon="6.72641">
        <ele>343</ele>
        <time>2015-05-25T08:10:31.000Z</time>
      </trkpt>
      <trkpt lat="47.53377" lon="6.72643">
        <ele>343</ele>
        <time>2015-05-25T08:10:32.000Z</time>
      </trkpt>
      <trkpt lat="47.5338" lon="6.72643">
        <ele>343</ele>
        <time>2015-05-25T08:10:33.000Z</time>
      </trkpt>
      <trkpt lat="47.53383" lon="6.72646">
        <ele>343</ele>
        <time>2015-05-25T08:10:34.000Z</time>
      </trkpt>
      <trkpt lat="47.53387" lon="6.72648">
        <ele>343</ele>
        <time>2015-05-25T08:10:35.000Z</time>
      </trkpt>
      <trkpt lat="47.53391" lon="6.7265">
        <ele>343</ele>
        <time>2015-05-25T08:10:36.000Z</time>
      </trkpt>
      <trkpt lat="47.53395" lon="6.72652">
        <ele>343</ele>
        <time>2015-05-25T08:10:37.000Z</time>
      </trkpt>
      <trkpt lat="47.53399" lon="6.72653">
        <ele>343</ele>
        <time>2015-05-25T08:10:38.000Z</time>
      </trkpt>
      <trkpt lat="47.53403" lon="6.72655">
        <ele>343</ele>
        <time>2015-05-25T08:10:39.000Z</time>
      </trkpt>
      <trkpt lat="47.53406" lon="6.72656">
        <ele>343</ele>
        <time>2015-05-25T08:10:40.000Z</time>
      </trkpt>
      <trkpt lat="47.5341" lon="6.72657">
        <ele>344</ele>
        <time>2015-05-25T08:10:41.000Z</time>
      </trkpt>
      <trkpt lat="47.53414" lon="6.72658">
        <ele>344</ele>
        <time>2015-05-25T08:10:42.000Z</time>
      </trkpt>
      <trkpt lat="47.53417" lon="6.7266">
        <ele>344</ele>
        <time>2015-05-25T08:10:43.000Z</time>
      </trkpt>
      <trkpt lat="47.53421" lon="6.72661">
        <ele>344</ele>
        <time>2015-05-25T08:10:44.000Z</time>
      </trkpt>
      <trkpt lat="47.53425" lon="6.72663">
        <ele>344</ele>
        <time>2015-05-25T08:10:45.000Z</time>
      </trkpt>
      <trkpt lat="47.53429" lon="6.72664">
        <ele>344</ele>
        <time>2015-05-25T08:10:46.000Z</time>
      </trkpt>
      <trkpt lat="47.53434" lon="6.72667">
        <ele>346</ele>
        <time>2015-05-25T08:10:47.000Z</time>
      </trkpt>
      <trkpt lat="47.53438" lon="6.72668">
        <ele>346</ele>
        <time>2015-05-25T08:10:48.000Z</time>
      </trkpt>
      <trkpt lat="47.53443" lon="6.7267">
        <ele>346</ele>
        <time>2015-05-25T08:10:49.000Z</time>
      </trkpt>
      <trkpt lat="47.53447" lon="6.72671">
        <ele>346</ele>
        <time>2015-05-25T08:10:50.000Z</time>
      </trkpt>
      <trkpt lat="47.53452" lon="6.72672">
        <ele>346</ele>
        <time>2015-05-25T08:10:51.000Z</time>
      </trkpt>
      <trkpt lat="47.53457" lon="6.72675">
        <ele>346</ele>
        <time>2015-05-25T08:10:52.000Z</time>
      </trkpt>
      <trkpt lat="47.53462" lon="6.72676">
        <ele>347</ele>
        <time>2015-05-25T08:10:53.000Z</time>
      </trkpt>
      <trkpt lat="47.53466" lon="6.72677">
        <ele>347</ele>
        <time>2015-05-25T08:10:54.000Z</time>
      </trkpt>
      <trkpt lat="47.53471" lon="6.7268">
        <ele>347</ele>
        <time>2015-05-25T08:10:55.000Z</time>
      </trkpt>
      <trkpt lat="47.53476" lon="6.72682">
        <ele>347</ele>
        <time>2015-05-25T08:10:56.000Z</time>
      </trkpt>
      <trkpt lat="47.5348" lon="6.72683">
        <ele>347</ele>
        <time>2015-05-25T08:10:57.000Z</time>
      </trkpt>
      <trkpt lat="47.53485" lon="6.72685">
        <ele>347</ele>
        <time>2015-05-25T08:10:58.000Z</time>
      </trkpt>
      <trkpt lat="47.53489" lon="6.72687">
        <ele>347</ele>
        <time>2015-05-25T08:10:59.000Z</time>
      </trkpt>
      <trkpt lat="47.53494" lon="6.72688">
        <ele>347</ele>
        <time>2015-05-25T08:11:00.000Z</time>
      </trkpt>
      <trkpt lat="47.53499" lon="6.72689">
        <ele>347</ele>
        <time>2015-05-25T08:11:01.000Z</time>
      </trkpt>
      <trkpt lat="47.53503" lon="6.7269">
        <ele>349</ele>
        <time>2015-05-25T08:11:02.000Z</time>
      </trkpt>
      <trkpt lat="47.53507" lon="6.72691">
        <ele>349</ele>
        <time>2015-05-25T08:11:03.000Z</time>
      </trkpt>
      <trkpt lat="47.5351" lon="6.72691">
        <ele>349</ele>
        <time>2015-05-25T08:11:04.000Z</time>
      </trkpt>
      <trkpt lat="47.53515" lon="6.72691">
        <ele>349</ele>
        <time>2015-05-25T08:11:05.000Z</time>
      </trkpt>
      <trkpt lat="47.53518" lon="6.72691">
        <ele>349</ele>
        <time>2015-05-25T08:11:06.000Z</time>
      </trkpt>
      <trkpt lat="47.53522" lon="6.72692">
        <ele>350</ele>
        <time>2015-05-25T08:11:07.000Z</time>
      </trkpt>
      <trkpt lat="47.53525" lon="6.72692">
        <ele>350</ele>
        <time>2015-05-25T08:11:08.000Z</time>
      </trkpt>
      <trkpt lat="47.53529" lon="6.72692">
        <ele>350</ele>
        <time>2015-05-25T08:11:09.000Z</time>
      </trkpt>
      <trkpt lat="47.53533" lon="6.72691">
        <ele>350</ele>
        <time>2015-05-25T08:11:10.000Z</time>
      </trkpt>
      <trkpt lat="47.53537" lon="6.72691">
        <ele>350</ele>
        <time>2015-05-25T08:11:11.000Z</time>
      </trkpt>
      <trkpt lat="47.5354" lon="6.7269">
        <ele>350</ele>
        <time>2015-05-25T08:11:12.000Z</time>
      </trkpt>
      <trkpt lat="47.53544" lon="6.7269">
        <ele>350</ele>
        <time>2015-05-25T08:11:13.000Z</time>
      </trkpt>
      <trkpt lat="47.53548" lon="6.7269">
        <ele>351</ele>
        <time>2015-05-25T08:11:14.000Z</time>
      </trkpt>
      <trkpt lat="47.53551" lon="6.72689">
        <ele>351</ele>
        <time>2015-05-25T08:11:15.000Z</time>
      </trkpt>
      <trkpt lat="47.53554" lon="6.72689">
        <ele>351</ele>
        <time>2015-05-25T08:11:16.000Z</time>
      </trkpt>
      <trkpt lat="47.53557" lon="6.7269">
        <ele>351</ele>
        <time>2015-05-25T08:11:17.000Z</time>
      </trkpt>
      <trkpt lat="47.5356" lon="6.72691">
        <ele>351</ele>
        <time>2015-05-25T08:11:18.000Z</time>
      </trkpt>
      <trkpt lat="47.53563" lon="6.72693">
        <ele>351</ele>
        <time>2015-05-25T08:11:19.000Z</time>
      </trkpt>
      <trkpt lat="47.53565" lon="6.72695">
        <ele>351</ele>
        <time>2015-05-25T08:11:20.000Z</time>
      </trkpt>
      <trkpt lat="47.53567" lon="6.72697">
        <ele>351</ele>
        <time>2015-05-25T08:11:21.000Z</time>
      </trkpt>
      <trkpt lat="47.53571" lon="6.72699">
        <ele>351</ele>
        <time>2015-05-25T08:11:23.000Z</time>
      </trkpt>
      <trkpt lat="47.53573" lon="6.72699">
        <ele>352</ele>
        <time>2015-05-25T08:11:24.000Z</time>
      </trkpt>
      <trkpt lat="47.53576" lon="6.72699">
        <ele>352</ele>
        <time>2015-05-25T08:11:26.000Z</time>
      </trkpt>
      <trkpt lat="47.53578" lon="6.72699">
        <ele>352</ele>
        <time>2015-05-25T08:11:27.000Z</time>
      </trkpt>
      <trkpt lat="47.53581" lon="6.72699">
        <ele>352</ele>
        <time>2015-05-25T08:11:28.000Z</time>
      </trkpt>
      <trkpt lat="47.53584" lon="6.727">
        <ele>353</ele>
        <time>2015-05-25T08:11:29.000Z</time>
      </trkpt>
      <trkpt lat="47.53587" lon="6.727">
        <ele>353</ele>
        <time>2015-05-25T08:11:30.000Z</time>
      </trkpt>
      <trkpt lat="47.53589" lon="6.727">
        <ele>353</ele>
        <time>2015-05-25T08:11:31.000Z</time>
      </trkpt>
      <trkpt lat="47.53592" lon="6.72701">
        <ele>353</ele>
        <time>2015-05-25T08:11:32.000Z</time>
      </trkpt>
      <trkpt lat="47.53596" lon="6.72701">
        <ele>353</ele>
        <time>2015-05-25T08:11:33.000Z</time>
      </trkpt>
      <trkpt lat="47.53599" lon="6.72701">
        <ele>353</ele>
        <time>2015-05-25T08:11:34.000Z</time>
      </trkpt>
      <trkpt lat="47.53603" lon="6.72701">
        <ele>353</ele>
        <time>2015-05-25T08:11:35.000Z</time>
      </trkpt>
      <trkpt lat="47.53606" lon="6.727">
        <ele>353</ele>
        <time>2015-05-25T08:11:36.000Z</time>
      </trkpt>
      <trkpt lat="47.53609" lon="6.72699">
        <ele>352</ele>
        <time>2015-05-25T08:11:37.000Z</time>
      </trkpt>
      <trkpt lat="47.53612" lon="6.72699">
        <ele>352</ele>
        <time>2015-05-25T08:11:38.000Z</time>
      </trkpt>
      <trkpt lat="47.53615" lon="6.72699">
        <ele>352</ele>
        <time>2015-05-25T08:11:39.000Z</time>
      </trkpt>
      <trkpt lat="47.53619" lon="6.72699">
        <ele>352</ele>
        <time>2015-05-25T08:11:40.000Z</time>
      </trkpt>
      <trkpt lat="47.53623" lon="6.72699">
        <ele>352</ele>
        <time>2015-05-25T08:11:41.000Z</time>
      </trkpt>
      <trkpt lat="47.53627" lon="6.72698">
        <ele>352</ele>
        <time>2015-05-25T08:11:42.000Z</time>
      </trkpt>
      <trkpt lat="47.53631" lon="6.72698">
        <ele>352</ele>
        <time>2015-05-25T08:11:43.000Z</time>
      </trkpt>
      <trkpt lat="47.53635" lon="6.72697">
        <ele>352</ele>
        <time>2015-05-25T08:11:44.000Z</time>
      </trkpt>
      <trkpt lat="47.53638" lon="6.72698">
        <ele>352</ele>
        <time>2015-05-25T08:11:45.000Z</time>
      </trkpt>
      <trkpt lat="47.53642" lon="6.727">
        <ele>352</ele>
        <time>2015-05-25T08:11:46.000Z</time>
      </trkpt>
      <trkpt lat="47.53646" lon="6.72702">
        <ele>352</ele>
        <time>2015-05-25T08:11:47.000Z</time>
      </trkpt>
      <trkpt lat="47.5365" lon="6.72707">
        <ele>352</ele>
        <time>2015-05-25T08:11:48.000Z</time>
      </trkpt>
      <trkpt lat="47.5366" lon="6.72722">
        <ele>353</ele>
        <time>2015-05-25T08:11:49.000Z</time>
      </trkpt>
      <trkpt lat="47.53665" lon="6.72726">
        <ele>353</ele>
        <time>2015-05-25T08:11:50.000Z</time>
      </trkpt>
      <trkpt lat="47.53671" lon="6.72728">
        <ele>353</ele>
        <time>2015-05-25T08:11:51.000Z</time>
      </trkpt>
      <trkpt lat="47.53677" lon="6.7273">
        <ele>353</ele>
        <time>2015-05-25T08:11:52.000Z</time>
      </trkpt>
      <trkpt lat="47.53684" lon="6.7273">
        <ele>353</ele>
        <time>2015-05-25T08:11:53.000Z</time>
      </trkpt>
      <trkpt lat="47.53691" lon="6.7273">
        <ele>353</ele>
        <time>2015-05-25T08:11:54.000Z</time>
      </trkpt>
      <trkpt lat="47.53697" lon="6.72728">
        <ele>353</ele>
        <time>2015-05-25T08:11:55.000Z</time>
      </trkpt>
      <trkpt lat="47.53704" lon="6.72727">
        <ele>353</ele>
        <time>2015-05-25T08:11:56.000Z</time>
      </trkpt>
      <trkpt lat="47.53711" lon="6.72724">
        <ele>353</ele>
        <time>2015-05-25T08:11:57.000Z</time>
      </trkpt>
      <trkpt lat="47.53718" lon="6.72723">
        <ele>353</ele>
        <time>2015-05-25T08:11:58.000Z</time>
      </trkpt>
      <trkpt lat="47.53725" lon="6.72722">
        <ele>353</ele>
        <time>2015-05-25T08:11:59.000Z</time>
      </trkpt>
      <trkpt lat="47.53731" lon="6.72719">
        <ele>353</ele>
        <time>2015-05-25T08:12:00.000Z</time>
      </trkpt>
      <trkpt lat="47.53735" lon="6.72717">
        <ele>353</ele>
        <time>2015-05-25T08:12:01.000Z</time>
      </trkpt>
      <trkpt lat="47.53739" lon="6.72717">
        <ele>353</ele>
        <time>2015-05-25T08:12:02.000Z</time>
      </trkpt>
      <trkpt lat="47.53742" lon="6.72717">
        <ele>353</ele>
        <time>2015-05-25T08:12:03.000Z</time>
      </trkpt>
      <trkpt lat="47.53746" lon="6.72717">
        <ele>353</ele>
        <time>2015-05-25T08:12:04.000Z</time>
      </trkpt>
      <trkpt lat="47.53749" lon="6.72718">
        <ele>353</ele>
        <time>2015-05-25T08:12:05.000Z</time>
      </trkpt>
      <trkpt lat="47.53751" lon="6.7272">
        <ele>357</ele>
        <time>2015-05-25T08:12:06.000Z</time>
      </trkpt>
      <trkpt lat="47.53753" lon="6.72721">
        <ele>357</ele>
        <time>2015-05-25T08:12:07.000Z</time>
      </trkpt>
      <trkpt lat="47.53756" lon="6.72724">
        <ele>357</ele>
        <time>2015-05-25T08:12:08.000Z</time>
      </trkpt>
      <trkpt lat="47.53759" lon="6.72727">
        <ele>357</ele>
        <time>2015-05-25T08:12:09.000Z</time>
      </trkpt>
      <trkpt lat="47.53762" lon="6.72731">
        <ele>358</ele>
        <time>2015-05-25T08:12:11.000Z</time>
      </trkpt>
      <trkpt lat="47.53763" lon="6.72733">
        <ele>358</ele>
        <time>2015-05-25T08:12:12.000Z</time>
      </trkpt>
      <trkpt lat="47.53766" lon="6.72736">
        <ele>358</ele>
        <time>2015-05-25T08:12:14.000Z</time>
      </trkpt>
      <trkpt lat="47.53768" lon="6.72738">
        <ele>358</ele>
        <time>2015-05-25T08:12:15.000Z</time>
      </trkpt>
      <trkpt lat="47.53772" lon="6.7274">
        <ele>358</ele>
        <time>2015-05-25T08:12:17.000Z</time>
      </trkpt>
      <trkpt lat="47.53774" lon="6.72741">
        <ele>358</ele>
        <time>2015-05-25T08:12:18.000Z</time>
      </trkpt>
      <trkpt lat="47.53778" lon="6.7274">
        <ele>359</ele>
        <time>2015-05-25T08:12:23.000Z</time>
      </trkpt>
      <trkpt lat="47.53779" lon="6.72739">
        <ele>359</ele>
        <time>2015-05-25T08:12:24.000Z</time>
      </trkpt>
      <trkpt lat="47.53783" lon="6.72739">
        <ele>359</ele>
        <time>2015-05-25T08:12:26.000Z</time>
      </trkpt>
      <trkpt lat="47.53785" lon="6.72739">
        <ele>359</ele>
        <time>2015-05-25T08:12:27.000Z</time>
      </trkpt>
      <trkpt lat="47.53787" lon="6.72739">
        <ele>359</ele>
        <time>2015-05-25T08:12:28.000Z</time>
      </trkpt>
      <trkpt lat="47.5379" lon="6.72739">
        <ele>360</ele>
        <time>2015-05-25T08:12:29.000Z</time>
      </trkpt>
      <trkpt lat="47.53793" lon="6.72738">
        <ele>360</ele>
        <time>2015-05-25T08:12:30.000Z</time>
      </trkpt>
      <trkpt lat="47.53795" lon="6.72737">
        <ele>360</ele>
        <time>2015-05-25T08:12:31.000Z</time>
      </trkpt>
      <trkpt lat="47.53798" lon="6.72736">
        <ele>360</ele>
        <time>2015-05-25T08:12:33.000Z</time>
      </trkpt>
      <trkpt lat="47.53799" lon="6.72736">
        <ele>361</ele>
        <time>2015-05-25T08:12:34.000Z</time>
      </trkpt>
      <trkpt lat="47.53803" lon="6.72736">
        <ele>361</ele>
        <time>2015-05-25T08:12:36.000Z</time>
      </trkpt>
      <trkpt lat="47.53805" lon="6.72735">
        <ele>361</ele>
        <time>2015-05-25T08:12:37.000Z</time>
      </trkpt>
      <trkpt lat="47.53807" lon="6.72734">
        <ele>362</ele>
        <time>2015-05-25T08:12:38.000Z</time>
      </trkpt>
      <trkpt lat="47.5381" lon="6.72734">
        <ele>362</ele>
        <time>2015-05-25T08:12:39.000Z</time>
      </trkpt>
      <trkpt lat="47.53814" lon="6.72733">
        <ele>362</ele>
        <time>2015-05-25T08:12:40.000Z</time>
      </trkpt>
      <trkpt lat="47.53817" lon="6.72732">
        <ele>363</ele>
        <time>2015-05-25T08:12:41.000Z</time>
      </trkpt>
      <trkpt lat="47.53821" lon="6.72732">
        <ele>363</ele>
        <time>2015-05-25T08:12:42.000Z</time>
      </trkpt>
      <trkpt lat="47.53824" lon="6.72731">
        <ele>363</ele>
        <time>2015-05-25T08:12:43.000Z</time>
      </trkpt>
      <trkpt lat="47.53827" lon="6.72731">
        <ele>364</ele>
        <time>2015-05-25T08:12:44.000Z</time>
      </trkpt>
      <trkpt lat="47.53831" lon="6.72732">
        <ele>364</ele>
        <time>2015-05-25T08:12:45.000Z</time>
      </trkpt>
      <trkpt lat="47.53834" lon="6.72732">
        <ele>369</ele>
        <time>2015-05-25T08:12:46.000Z</time>
      </trkpt>
      <trkpt lat="47.53838" lon="6.72731">
        <ele>369</ele>
        <time>2015-05-25T08:12:47.000Z</time>
      </trkpt>
      <trkpt lat="47.53841" lon="6.72731">
        <ele>369</ele>
        <time>2015-05-25T08:12:48.000Z</time>
      </trkpt>
      <trkpt lat="47.53844" lon="6.72731">
        <ele>369</ele>
        <time>2015-05-25T08:12:49.000Z</time>
      </trkpt>
      <trkpt lat="47.53846" lon="6.7273">
        <ele>369</ele>
        <time>2015-05-25T08:12:50.000Z</time>
      </trkpt>
      <trkpt lat="47.53849" lon="6.7273">
        <ele>369</ele>
        <time>2015-05-25T08:12:51.000Z</time>
      </trkpt>
      <trkpt lat="47.53852" lon="6.7273">
        <ele>369</ele>
        <time>2015-05-25T08:12:52.000Z</time>
      </trkpt>
      <trkpt lat="47.53855" lon="6.7273">
        <ele>369</ele>
        <time>2015-05-25T08:12:53.000Z</time>
      </trkpt>
      <trkpt lat="47.53858" lon="6.72729">
        <ele>369</ele>
        <time>2015-05-25T08:12:54.000Z</time>
      </trkpt>
      <trkpt lat="47.53861" lon="6.72728">
        <ele>369</ele>
        <time>2015-05-25T08:12:55.000Z</time>
      </trkpt>
      <trkpt lat="47.53864" lon="6.72726">
        <ele>369</ele>
        <time>2015-05-25T08:12:56.000Z</time>
      </trkpt>
      <trkpt lat="47.53867" lon="6.72725">
        <ele>369</ele>
        <time>2015-05-25T08:12:57.000Z</time>
      </trkpt>
      <trkpt lat="47.53871" lon="6.72721">
        <ele>369</ele>
        <time>2015-05-25T08:12:59.000Z</time>
      </trkpt>
      <trkpt lat="47.53872" lon="6.7272">
        <ele>369</ele>
        <time>2015-05-25T08:13:00.000Z</time>
      </trkpt>
      <trkpt lat="47.53874" lon="6.72718">
        <ele>369</ele>
        <time>2015-05-25T08:13:02.000Z</time>
      </trkpt>
      <trkpt lat="47.53876" lon="6.72719">
        <ele>370</ele>
        <time>2015-05-25T08:13:03.000Z</time>
      </trkpt>
      <trkpt lat="47.53879" lon="6.72721">
        <ele>370</ele>
        <time>2015-05-25T08:13:04.000Z</time>
      </trkpt>
      <trkpt lat="47.53882" lon="6.72723">
        <ele>370</ele>
        <time>2015-05-25T08:13:05.000Z</time>
      </trkpt>
      <trkpt lat="47.53884" lon="6.72725">
        <ele>370</ele>
        <time>2015-05-25T08:13:06.000Z</time>
      </trkpt>
      <trkpt lat="47.53888" lon="6.72727">
        <ele>371</ele>
        <time>2015-05-25T08:13:07.000Z</time>
      </trkpt>
      <trkpt lat="47.53891" lon="6.72729">
        <ele>371</ele>
        <time>2015-05-25T08:13:08.000Z</time>
      </trkpt>
      <trkpt lat="47.53894" lon="6.7273">
        <ele>372</ele>
        <time>2015-05-25T08:13:09.000Z</time>
      </trkpt>
      <trkpt lat="47.53897" lon="6.72732">
        <ele>372</ele>
        <time>2015-05-25T08:13:10.000Z</time>
      </trkpt>
      <trkpt lat="47.539" lon="6.72734">
        <ele>373</ele>
        <time>2015-05-25T08:13:11.000Z</time>
      </trkpt>
      <trkpt lat="47.53903" lon="6.72735">
        <ele>373</ele>
        <time>2015-05-25T08:13:12.000Z</time>
      </trkpt>
      <trkpt lat="47.53906" lon="6.72736">
        <ele>374</ele>
        <time>2015-05-25T08:13:13.000Z</time>
      </trkpt>
      <trkpt lat="47.53909" lon="6.72737">
        <ele>374</ele>
        <time>2015-05-25T08:13:14.000Z</time>
      </trkpt>
      <trkpt lat="47.53912" lon="6.72738">
        <ele>374</ele>
        <time>2015-05-25T08:13:15.000Z</time>
      </trkpt>
      <trkpt lat="47.53915" lon="6.72739">
        <ele>375</ele>
        <time>2015-05-25T08:13:16.000Z</time>
      </trkpt>
      <trkpt lat="47.53918" lon="6.72741">
        <ele>377</ele>
        <time>2015-05-25T08:13:17.000Z</time>
      </trkpt>
      <trkpt lat="47.53921" lon="6.72742">
        <ele>377</ele>
        <time>2015-05-25T08:13:18.000Z</time>
      </trkpt>
      <trkpt lat="47.53923" lon="6.72744">
        <ele>377</ele>
        <time>2015-05-25T08:13:19.000Z</time>
      </trkpt>
      <trkpt lat="47.53926" lon="6.72746">
        <ele>377</ele>
        <time>2015-05-25T08:13:20.000Z</time>
      </trkpt>
      <trkpt lat="47.53928" lon="6.72748">
        <ele>377</ele>
        <time>2015-05-25T08:13:21.000Z</time>
      </trkpt>
      <trkpt lat="47.53931" lon="6.72749">
        <ele>377</ele>
        <time>2015-05-25T08:13:22.000Z</time>
      </trkpt>
      <trkpt lat="47.53933" lon="6.7275">
        <ele>379</ele>
        <time>2015-05-25T08:13:23.000Z</time>
      </trkpt>
      <trkpt lat="47.53935" lon="6.72752">
        <ele>379</ele>
        <time>2015-05-25T08:13:24.000Z</time>
      </trkpt>
      <trkpt lat="47.53937" lon="6.72753">
        <ele>379</ele>
        <time>2015-05-25T08:13:25.000Z</time>
      </trkpt>
      <trkpt lat="47.53941" lon="6.72756">
        <ele>379</ele>
        <time>2015-05-25T08:13:27.000Z</time>
      </trkpt>
      <trkpt lat="47.53943" lon="6.72757">
        <ele>379</ele>
        <time>2015-05-25T08:13:28.000Z</time>
      </trkpt>
      <trkpt lat="47.53946" lon="6.72759">
        <ele>379</ele>
        <time>2015-05-25T08:13:29.000Z</time>
      </trkpt>
      <trkpt lat="47.53948" lon="6.7276">
        <ele>380</ele>
        <time>2015-05-25T08:13:30.000Z</time>
      </trkpt>
      <trkpt lat="47.53951" lon="6.72762">
        <ele>380</ele>
        <time>2015-05-25T08:13:31.000Z</time>
      </trkpt>
      <trkpt lat="47.53953" lon="6.72764">
        <ele>380</ele>
        <time>2015-05-25T08:13:32.000Z</time>
      </trkpt>
      <trkpt lat="47.53955" lon="6.72766">
        <ele>380</ele>
        <time>2015-05-25T08:13:33.000Z</time>
      </trkpt>
      <trkpt lat="47.53958" lon="6.72767">
        <ele>380</ele>
        <time>2015-05-25T08:13:34.000Z</time>
      </trkpt>
      <trkpt lat="47.5396" lon="6.72769">
        <ele>380</ele>
        <time>2015-05-25T08:13:35.000Z</time>
      </trkpt>
      <trkpt lat="47.53963" lon="6.72772">
        <ele>380</ele>
        <time>2015-05-25T08:13:36.000Z</time>
      </trkpt>
      <trkpt lat="47.53967" lon="6.72775">
        <ele>380</ele>
        <time>2015-05-25T08:13:37.000Z</time>
      </trkpt>
      <trkpt lat="47.5397" lon="6.72778">
        <ele>380</ele>
        <time>2015-05-25T08:13:38.000Z</time>
      </trkpt>
      <trkpt lat="47.53974" lon="6.72781">
        <ele>380</ele>
        <time>2015-05-25T08:13:39.000Z</time>
      </trkpt>
      <trkpt lat="47.53978" lon="6.72784">
        <ele>380</ele>
        <time>2015-05-25T08:13:40.000Z</time>
      </trkpt>
      <trkpt lat="47.53981" lon="6.72788">
        <ele>380</ele>
        <time>2015-05-25T08:13:41.000Z</time>
      </trkpt>
      <trkpt lat="47.53985" lon="6.72791">
        <ele>380</ele>
        <time>2015-05-25T08:13:42.000Z</time>
      </trkpt>
      <trkpt lat="47.53989" lon="6.72795">
        <ele>381</ele>
        <time>2015-05-25T08:13:43.000Z</time>
      </trkpt>
      <trkpt lat="47.53992" lon="6.72798">
        <ele>381</ele>
        <time>2015-05-25T08:13:44.000Z</time>
      </trkpt>
      <trkpt lat="47.53995" lon="6.72801">
        <ele>381</ele>
        <time>2015-05-25T08:13:45.000Z</time>
      </trkpt>
      <trkpt lat="47.53998" lon="6.72805">
        <ele>381</ele>
        <time>2015-05-25T08:13:46.000Z</time>
      </trkpt>
      <trkpt lat="47.54001" lon="6.7281">
        <ele>382</ele>
        <time>2015-05-25T08:13:47.000Z</time>
      </trkpt>
      <trkpt lat="47.54003" lon="6.72815">
        <ele>382</ele>
        <time>2015-05-25T08:13:48.000Z</time>
      </trkpt>
      <trkpt lat="47.54005" lon="6.7282">
        <ele>382</ele>
        <time>2015-05-25T08:13:49.000Z</time>
      </trkpt>
      <trkpt lat="47.54007" lon="6.72825">
        <ele>382</ele>
        <time>2015-05-25T08:13:50.000Z</time>
      </trkpt>
      <trkpt lat="47.54008" lon="6.7283">
        <ele>383</ele>
        <time>2015-05-25T08:13:51.000Z</time>
      </trkpt>
      <trkpt lat="47.5401" lon="6.72835">
        <ele>384</ele>
        <time>2015-05-25T08:13:52.000Z</time>
      </trkpt>
      <trkpt lat="47.54012" lon="6.7284">
        <ele>384</ele>
        <time>2015-05-25T08:13:53.000Z</time>
      </trkpt>
      <trkpt lat="47.54013" lon="6.72847">
        <ele>384</ele>
        <time>2015-05-25T08:13:54.000Z</time>
      </trkpt>
      <trkpt lat="47.54016" lon="6.72853">
        <ele>385</ele>
        <time>2015-05-25T08:13:55.000Z</time>
      </trkpt>
      <trkpt lat="47.54021" lon="6.72865">
        <ele>385</ele>
        <time>2015-05-25T08:13:56.000Z</time>
      </trkpt>
      <trkpt lat="47.54024" lon="6.72872">
        <ele>385</ele>
        <time>2015-05-25T08:13:57.000Z</time>
      </trkpt>
      <trkpt lat="47.54027" lon="6.72879">
        <ele>385</ele>
        <time>2015-05-25T08:13:58.000Z</time>
      </trkpt>
      <trkpt lat="47.54032" lon="6.72882">
        <ele>385</ele>
        <time>2015-05-25T08:13:59.000Z</time>
      </trkpt>
      <trkpt lat="47.54035" lon="6.72887">
        <ele>385</ele>
        <time>2015-05-25T08:14:00.000Z</time>
      </trkpt>
      <trkpt lat="47.54038" lon="6.72892">
        <ele>385</ele>
        <time>2015-05-25T08:14:01.000Z</time>
      </trkpt>
      <trkpt lat="47.54041" lon="6.72896">
        <ele>385</ele>
        <time>2015-05-25T08:14:02.000Z</time>
      </trkpt>
      <trkpt lat="47.54044" lon="6.72901">
        <ele>386</ele>
        <time>2015-05-25T08:14:03.000Z</time>
      </trkpt>
      <trkpt lat="47.54048" lon="6.72905">
        <ele>386</ele>
        <time>2015-05-25T08:14:04.000Z</time>
      </trkpt>
      <trkpt lat="47.54051" lon="6.72908">
        <ele>386</ele>
        <time>2015-05-25T08:14:05.000Z</time>
      </trkpt>
      <trkpt lat="47.54054" lon="6.72912">
        <ele>386</ele>
        <time>2015-05-25T08:14:06.000Z</time>
      </trkpt>
      <trkpt lat="47.54057" lon="6.72916">
        <ele>386</ele>
        <time>2015-05-25T08:14:07.000Z</time>
      </trkpt>
      <trkpt lat="47.54059" lon="6.72921">
        <ele>387</ele>
        <time>2015-05-25T08:14:08.000Z</time>
      </trkpt>
      <trkpt lat="47.54063" lon="6.72924">
        <ele>387</ele>
        <time>2015-05-25T08:14:09.000Z</time>
      </trkpt>
      <trkpt lat="47.54066" lon="6.72928">
        <ele>387</ele>
        <time>2015-05-25T08:14:10.000Z</time>
      </trkpt>
      <trkpt lat="47.54069" lon="6.72932">
        <ele>387</ele>
        <time>2015-05-25T08:14:11.000Z</time>
      </trkpt>
      <trkpt lat="47.54071" lon="6.72936">
        <ele>387</ele>
        <time>2015-05-25T08:14:12.000Z</time>
      </trkpt>
      <trkpt lat="47.54074" lon="6.7294">
        <ele>387</ele>
        <time>2015-05-25T08:14:13.000Z</time>
      </trkpt>
      <trkpt lat="47.54076" lon="6.72944">
        <ele>387</ele>
        <time>2015-05-25T08:14:14.000Z</time>
      </trkpt>
      <trkpt lat="47.54079" lon="6.72947">
        <ele>387</ele>
        <time>2015-05-25T08:14:15.000Z</time>
      </trkpt>
      <trkpt lat="47.54081" lon="6.72951">
        <ele>387</ele>
        <time>2015-05-25T08:14:16.000Z</time>
      </trkpt>
      <trkpt lat="47.54083" lon="6.72954">
        <ele>387</ele>
        <time>2015-05-25T08:14:17.000Z</time>
      </trkpt>
      <trkpt lat="47.54085" lon="6.72956">
        <ele>390</ele>
        <time>2015-05-25T08:14:18.000Z</time>
      </trkpt>
      <trkpt lat="47.54087" lon="6.72958">
        <ele>390</ele>
        <time>2015-05-25T08:14:19.000Z</time>
      </trkpt>
      <trkpt lat="47.54089" lon="6.7296">
        <ele>390</ele>
        <time>2015-05-25T08:14:20.000Z</time>
      </trkpt>
      <trkpt lat="47.54092" lon="6.72962">
        <ele>390</ele>
        <time>2015-05-25T08:14:21.000Z</time>
      </trkpt>
      <trkpt lat="47.54094" lon="6.72965">
        <ele>390</ele>
        <time>2015-05-25T08:14:22.000Z</time>
      </trkpt>
      <trkpt lat="47.54096" lon="6.72969">
        <ele>390</ele>
        <time>2015-05-25T08:14:23.000Z</time>
      </trkpt>
      <trkpt lat="47.54098" lon="6.72973">
        <ele>390</ele>
        <time>2015-05-25T08:14:24.000Z</time>
      </trkpt>
      <trkpt lat="47.541" lon="6.72977">
        <ele>390</ele>
        <time>2015-05-25T08:14:25.000Z</time>
      </trkpt>
      <trkpt lat="47.54103" lon="6.7298">
        <ele>390</ele>
        <time>2015-05-25T08:14:26.000Z</time>
      </trkpt>
      <trkpt lat="47.54106" lon="6.72982">
        <ele>390</ele>
        <time>2015-05-25T08:14:27.000Z</time>
      </trkpt>
      <trkpt lat="47.5411" lon="6.72983">
        <ele>390</ele>
        <time>2015-05-25T08:14:28.000Z</time>
      </trkpt>
      <trkpt lat="47.54114" lon="6.72985">
        <ele>391</ele>
        <time>2015-05-25T08:14:29.000Z</time>
      </trkpt>
      <trkpt lat="47.54118" lon="6.72986">
        <ele>391</ele>
        <time>2015-05-25T08:14:30.000Z</time>
      </trkpt>
      <trkpt lat="47.54122" lon="6.72988">
        <ele>391</ele>
        <time>2015-05-25T08:14:31.000Z</time>
      </trkpt>
      <trkpt lat="47.54125" lon="6.72989">
        <ele>391</ele>
        <time>2015-05-25T08:14:32.000Z</time>
      </trkpt>
      <trkpt lat="47.54128" lon="6.72991">
        <ele>391</ele>
        <time>2015-05-25T08:14:33.000Z</time>
      </trkpt>
      <trkpt lat="47.54131" lon="6.72992">
        <ele>392</ele>
        <time>2015-05-25T08:14:34.000Z</time>
      </trkpt>
      <trkpt lat="47.54133" lon="6.72994">
        <ele>392</ele>
        <time>2015-05-25T08:14:35.000Z</time>
      </trkpt>
      <trkpt lat="47.54136" lon="6.72997">
        <ele>392</ele>
        <time>2015-05-25T08:14:36.000Z</time>
      </trkpt>
      <trkpt lat="47.54138" lon="6.73">
        <ele>392</ele>
        <time>2015-05-25T08:14:37.000Z</time>
      </trkpt>
      <trkpt lat="47.5414" lon="6.73002">
        <ele>392</ele>
        <time>2015-05-25T08:14:38.000Z</time>
      </trkpt>
      <trkpt lat="47.54142" lon="6.73005">
        <ele>392</ele>
        <time>2015-05-25T08:14:39.000Z</time>
      </trkpt>
      <trkpt lat="47.54144" lon="6.73007">
        <ele>393</ele>
        <time>2015-05-25T08:14:40.000Z</time>
      </trkpt>
      <trkpt lat="47.54145" lon="6.7301">
        <ele>393</ele>
        <time>2015-05-25T08:14:41.000Z</time>
      </trkpt>
      <trkpt lat="47.54148" lon="6.73013">
        <ele>393</ele>
        <time>2015-05-25T08:14:42.000Z</time>
      </trkpt>
      <trkpt lat="47.5415" lon="6.73016">
        <ele>393</ele>
        <time>2015-05-25T08:14:43.000Z</time>
      </trkpt>
      <trkpt lat="47.54152" lon="6.73018">
        <ele>393</ele>
        <time>2015-05-25T08:14:44.000Z</time>
      </trkpt>
      <trkpt lat="47.54154" lon="6.7302">
        <ele>393</ele>
        <time>2015-05-25T08:14:45.000Z</time>
      </trkpt>
      <trkpt lat="47.54156" lon="6.73021">
        <ele>393</ele>
        <time>2015-05-25T08:14:46.000Z</time>
      </trkpt>
      <trkpt lat="47.5416" lon="6.73024">
        <ele>393</ele>
        <time>2015-05-25T08:14:48.000Z</time>
      </trkpt>
      <trkpt lat="47.54162" lon="6.73025">
        <ele>393</ele>
        <time>2015-05-25T08:14:49.000Z</time>
      </trkpt>
      <trkpt lat="47.54164" lon="6.73026">
        <ele>393</ele>
        <time>2015-05-25T08:14:50.000Z</time>
      </trkpt>
      <trkpt lat="47.54167" lon="6.73027">
        <ele>396</ele>
        <time>2015-05-25T08:14:51.000Z</time>
      </trkpt>
      <trkpt lat="47.5417" lon="6.73027">
        <ele>396</ele>
        <time>2015-05-25T08:14:52.000Z</time>
      </trkpt>
      <trkpt lat="47.54173" lon="6.73029">
        <ele>396</ele>
        <time>2015-05-25T08:14:53.000Z</time>
      </trkpt>
      <trkpt lat="47.54175" lon="6.7303">
        <ele>396</ele>
        <time>2015-05-25T08:14:54.000Z</time>
      </trkpt>
      <trkpt lat="47.54177" lon="6.73031">
        <ele>396</ele>
        <time>2015-05-25T08:14:55.000Z</time>
      </trkpt>
      <trkpt lat="47.5418" lon="6.73032">
        <ele>396</ele>
        <time>2015-05-25T08:14:56.000Z</time>
      </trkpt>
      <trkpt lat="47.54182" lon="6.73032">
        <ele>396</ele>
        <time>2015-05-25T08:14:57.000Z</time>
      </trkpt>
      <trkpt lat="47.54184" lon="6.73031">
        <ele>396</ele>
        <time>2015-05-25T08:14:58.000Z</time>
      </trkpt>
      <trkpt lat="47.54187" lon="6.73031">
        <ele>396</ele>
        <time>2015-05-25T08:14:59.000Z</time>
      </trkpt>
      <trkpt lat="47.54189" lon="6.73033">
        <ele>396</ele>
        <time>2015-05-25T08:15:00.000Z</time>
      </trkpt>
      <trkpt lat="47.54192" lon="6.73035">
        <ele>396</ele>
        <time>2015-05-25T08:15:01.000Z</time>
      </trkpt>
      <trkpt lat="47.54195" lon="6.73037">
        <ele>397</ele>
        <time>2015-05-25T08:15:02.000Z</time>
      </trkpt>
      <trkpt lat="47.54198" lon="6.7304">
        <ele>397</ele>
        <time>2015-05-25T08:15:03.000Z</time>
      </trkpt>
      <trkpt lat="47.54202" lon="6.73041">
        <ele>397</ele>
        <time>2015-05-25T08:15:04.000Z</time>
      </trkpt>
      <trkpt lat="47.54205" lon="6.73043">
        <ele>397</ele>
        <time>2015-05-25T08:15:05.000Z</time>
      </trkpt>
      <trkpt lat="47.54207" lon="6.73044">
        <ele>397</ele>
        <time>2015-05-25T08:15:06.000Z</time>
      </trkpt>
      <trkpt lat="47.5421" lon="6.73045">
        <ele>397</ele>
        <time>2015-05-25T08:15:07.000Z</time>
      </trkpt>
      <trkpt lat="47.54213" lon="6.73047">
        <ele>397</ele>
        <time>2015-05-25T08:15:08.000Z</time>
      </trkpt>
      <trkpt lat="47.54216" lon="6.73048">
        <ele>397</ele>
        <time>2015-05-25T08:15:09.000Z</time>
      </trkpt>
      <trkpt lat="47.54219" lon="6.73049">
        <ele>397</ele>
        <time>2015-05-25T08:15:10.000Z</time>
      </trkpt>
      <trkpt lat="47.54221" lon="6.73051">
        <ele>397</ele>
        <time>2015-05-25T08:15:11.000Z</time>
      </trkpt>
      <trkpt lat="47.54224" lon="6.73051">
        <ele>397</ele>
        <time>2015-05-25T08:15:12.000Z</time>
      </trkpt>
      <trkpt lat="47.54228" lon="6.73052">
        <ele>397</ele>
        <time>2015-05-25T08:15:13.000Z</time>
      </trkpt>
      <trkpt lat="47.54232" lon="6.73052">
        <ele>397</ele>
        <time>2015-05-25T08:15:14.000Z</time>
      </trkpt>
      <trkpt lat="47.54235" lon="6.73051">
        <ele>397</ele>
        <time>2015-05-25T08:15:15.000Z</time>
      </trkpt>
      <trkpt lat="47.54239" lon="6.73051">
        <ele>397</ele>
        <time>2015-05-25T08:15:16.000Z</time>
      </trkpt>
      <trkpt lat="47.54242" lon="6.7305">
        <ele>397</ele>
        <time>2015-05-25T08:15:17.000Z</time>
      </trkpt>
      <trkpt lat="47.54246" lon="6.7305">
        <ele>397</ele>
        <time>2015-05-25T08:15:18.000Z</time>
      </trkpt>
      <trkpt lat="47.54249" lon="6.7305">
        <ele>397</ele>
        <time>2015-05-25T08:15:19.000Z</time>
      </trkpt>
      <trkpt lat="47.54253" lon="6.73051">
        <ele>400</ele>
        <time>2015-05-25T08:15:20.000Z</time>
      </trkpt>
      <trkpt lat="47.54255" lon="6.73052">
        <ele>400</ele>
        <time>2015-05-25T08:15:21.000Z</time>
      </trkpt>
      <trkpt lat="47.54258" lon="6.73053">
        <ele>400</ele>
        <time>2015-05-25T08:15:22.000Z</time>
      </trkpt>
      <trkpt lat="47.5426" lon="6.73053">
        <ele>400</ele>
        <time>2015-05-25T08:15:23.000Z</time>
      </trkpt>
      <trkpt lat="47.54263" lon="6.73054">
        <ele>400</ele>
        <time>2015-05-25T08:15:24.000Z</time>
      </trkpt>
      <trkpt lat="47.54266" lon="6.73055">
        <ele>400</ele>
        <time>2015-05-25T08:15:25.000Z</time>
      </trkpt>
      <trkpt lat="47.54268" lon="6.73056">
        <ele>400</ele>
        <time>2015-05-25T08:15:26.000Z</time>
      </trkpt>
      <trkpt lat="47.54271" lon="6.73057">
        <ele>400</ele>
        <time>2015-05-25T08:15:27.000Z</time>
      </trkpt>
      <trkpt lat="47.54273" lon="6.73058">
        <ele>400</ele>
        <time>2015-05-25T08:15:28.000Z</time>
      </trkpt>
      <trkpt lat="47.54276" lon="6.73059">
        <ele>400</ele>
        <time>2015-05-25T08:15:29.000Z</time>
      </trkpt>
      <trkpt lat="47.54278" lon="6.73059">
        <ele>400</ele>
        <time>2015-05-25T08:15:30.000Z</time>
      </trkpt>
      <trkpt lat="47.54281" lon="6.7306">
        <ele>400</ele>
        <time>2015-05-25T08:15:31.000Z</time>
      </trkpt>
      <trkpt lat="47.54283" lon="6.73061">
        <ele>400</ele>
        <time>2015-05-25T08:15:32.000Z</time>
      </trkpt>
      <trkpt lat="47.54286" lon="6.73063">
        <ele>400</ele>
        <time>2015-05-25T08:15:33.000Z</time>
      </trkpt>
      <trkpt lat="47.5429" lon="6.73064">
        <ele>401</ele>
        <time>2015-05-25T08:15:34.000Z</time>
      </trkpt>
      <trkpt lat="47.54293" lon="6.73066">
        <ele>401</ele>
        <time>2015-05-25T08:15:35.000Z</time>
      </trkpt>
      <trkpt lat="47.54295" lon="6.73067">
        <ele>401</ele>
        <time>2015-05-25T08:15:36.000Z</time>
      </trkpt>
      <trkpt lat="47.54298" lon="6.73068">
        <ele>401</ele>
        <time>2015-05-25T08:15:37.000Z</time>
      </trkpt>
      <trkpt lat="47.543" lon="6.73069">
        <ele>401</ele>
        <time>2015-05-25T08:15:38.000Z</time>
      </trkpt>
      <trkpt lat="47.54302" lon="6.7307">
        <ele>401</ele>
        <time>2015-05-25T08:15:39.000Z</time>
      </trkpt>
      <trkpt lat="47.54305" lon="6.73071">
        <ele>401</ele>
        <time>2015-05-25T08:15:40.000Z</time>
      </trkpt>
      <trkpt lat="47.54307" lon="6.73072">
        <ele>401</ele>
        <time>2015-05-25T08:15:41.000Z</time>
      </trkpt>
      <trkpt lat="47.5431" lon="6.73073">
        <ele>402</ele>
        <time>2015-05-25T08:15:42.000Z</time>
      </trkpt>
      <trkpt lat="47.54312" lon="6.73074">
        <ele>402</ele>
        <time>2015-05-25T08:15:43.000Z</time>
      </trkpt>
      <trkpt lat="47.54315" lon="6.73074">
        <ele>402</ele>
        <time>2015-05-25T08:15:44.000Z</time>
      </trkpt>
      <trkpt lat="47.54318" lon="6.73074">
        <ele>402</ele>
        <time>2015-05-25T08:15:45.000Z</time>
      </trkpt>
      <trkpt lat="47.54321" lon="6.73074">
        <ele>402</ele>
        <time>2015-05-25T08:15:46.000Z</time>
      </trkpt>
      <trkpt lat="47.54324" lon="6.73075">
        <ele>403</ele>
        <time>2015-05-25T08:15:47.000Z</time>
      </trkpt>
      <trkpt lat="47.54327" lon="6.73075">
        <ele>403</ele>
        <time>2015-05-25T08:15:48.000Z</time>
      </trkpt>
      <trkpt lat="47.5433" lon="6.73075">
        <ele>403</ele>
        <time>2015-05-25T08:15:49.000Z</time>
      </trkpt>
      <trkpt lat="47.54333" lon="6.73076">
        <ele>403</ele>
        <time>2015-05-25T08:15:50.000Z</time>
      </trkpt>
      <trkpt lat="47.54336" lon="6.73077">
        <ele>404</ele>
        <time>2015-05-25T08:15:51.000Z</time>
      </trkpt>
      <trkpt lat="47.54339" lon="6.73078">
        <ele>404</ele>
        <time>2015-05-25T08:15:52.000Z</time>
      </trkpt>
      <trkpt lat="47.54343" lon="6.73079">
        <ele>405</ele>
        <time>2015-05-25T08:15:53.000Z</time>
      </trkpt>
      <trkpt lat="47.54346" lon="6.7308">
        <ele>405</ele>
        <time>2015-05-25T08:15:54.000Z</time>
      </trkpt>
      <trkpt lat="47.54349" lon="6.73081">
        <ele>405</ele>
        <time>2015-05-25T08:15:55.000Z</time>
      </trkpt>
      <trkpt lat="47.54352" lon="6.73081">
        <ele>405</ele>
        <time>2015-05-25T08:15:56.000Z</time>
      </trkpt>
      <trkpt lat="47.54356" lon="6.73082">
        <ele>405</ele>
        <time>2015-05-25T08:15:57.000Z</time>
      </trkpt>
      <trkpt lat="47.54359" lon="6.73082">
        <ele>405</ele>
        <time>2015-05-25T08:15:58.000Z</time>
      </trkpt>
      <trkpt lat="47.54362" lon="6.73083">
        <ele>406</ele>
        <time>2015-05-25T08:15:59.000Z</time>
      </trkpt>
      <trkpt lat="47.54365" lon="6.73083">
        <ele>406</ele>
        <time>2015-05-25T08:16:00.000Z</time>
      </trkpt>
      <trkpt lat="47.54368" lon="6.73084">
        <ele>406</ele>
        <time>2015-05-25T08:16:01.000Z</time>
      </trkpt>
      <trkpt lat="47.54371" lon="6.73084">
        <ele>406</ele>
        <time>2015-05-25T08:16:02.000Z</time>
      </trkpt>
      <trkpt lat="47.54374" lon="6.73085">
        <ele>406</ele>
        <time>2015-05-25T08:16:03.000Z</time>
      </trkpt>
      <trkpt lat="47.54376" lon="6.73086">
        <ele>406</ele>
        <time>2015-05-25T08:16:04.000Z</time>
      </trkpt>
      <trkpt lat="47.54379" lon="6.73087">
        <ele>407</ele>
        <time>2015-05-25T08:16:05.000Z</time>
      </trkpt>
      <trkpt lat="47.54381" lon="6.73088">
        <ele>407</ele>
        <time>2015-05-25T08:16:06.000Z</time>
      </trkpt>
      <trkpt lat="47.54383" lon="6.73089">
        <ele>407</ele>
        <time>2015-05-25T08:16:07.000Z</time>
      </trkpt>
      <trkpt lat="47.54386" lon="6.7309">
        <ele>407</ele>
        <time>2015-05-25T08:16:08.000Z</time>
      </trkpt>
      <trkpt lat="47.54388" lon="6.73092">
        <ele>407</ele>
        <time>2015-05-25T08:16:09.000Z</time>
      </trkpt>
      <trkpt lat="47.5439" lon="6.73092">
        <ele>407</ele>
        <time>2015-05-25T08:16:10.000Z</time>
      </trkpt>
      <trkpt lat="47.54393" lon="6.73094">
        <ele>407</ele>
        <time>2015-05-25T08:16:11.000Z</time>
      </trkpt>
      <trkpt lat="47.54396" lon="6.73097">
        <ele>407</ele>
        <time>2015-05-25T08:16:13.000Z</time>
      </trkpt>
      <trkpt lat="47.54398" lon="6.73098">
        <ele>408</ele>
        <time>2015-05-25T08:16:14.000Z</time>
      </trkpt>
      <trkpt lat="47.544" lon="6.73099">
        <ele>408</ele>
        <time>2015-05-25T08:16:15.000Z</time>
      </trkpt>
      <trkpt lat="47.54403" lon="6.73099">
        <ele>408</ele>
        <time>2015-05-25T08:16:16.000Z</time>
      </trkpt>
      <trkpt lat="47.54406" lon="6.73098">
        <ele>408</ele>
        <time>2015-05-25T08:16:17.000Z</time>
      </trkpt>
      <trkpt lat="47.54409" lon="6.73098">
        <ele>408</ele>
        <time>2015-05-25T08:16:18.000Z</time>
      </trkpt>
      <trkpt lat="47.54413" lon="6.73098">
        <ele>408</ele>
        <time>2015-05-25T08:16:20.000Z</time>
      </trkpt>
      <trkpt lat="47.54414" lon="6.73099">
        <ele>408</ele>
        <time>2015-05-25T08:16:21.000Z</time>
      </trkpt>
      <trkpt lat="47.54417" lon="6.73103">
        <ele>411</ele>
        <time>2015-05-25T08:16:24.000Z</time>
      </trkpt>
      <trkpt lat="47.54418" lon="6.73103">
        <ele>411</ele>
        <time>2015-05-25T08:16:25.000Z</time>
      </trkpt>
      <trkpt lat="47.54421" lon="6.73105">
        <ele>411</ele>
        <time>2015-05-25T08:16:27.000Z</time>
      </trkpt>
      <trkpt lat="47.54423" lon="6.73106">
        <ele>412</ele>
        <time>2015-05-25T08:16:28.000Z</time>
      </trkpt>
      <trkpt lat="47.54427" lon="6.73109">
        <ele>412</ele>
        <time>2015-05-25T08:16:30.000Z</time>
      </trkpt>
      <trkpt lat="47.54428" lon="6.7311">
        <ele>412</ele>
        <time>2015-05-25T08:16:31.000Z</time>
      </trkpt>
      <trkpt lat="47.54432" lon="6.73111">
        <ele>412</ele>
        <time>2015-05-25T08:16:33.000Z</time>
      </trkpt>
      <trkpt lat="47.54434" lon="6.73112">
        <ele>412</ele>
        <time>2015-05-25T08:16:34.000Z</time>
      </trkpt>
      <trkpt lat="47.54437" lon="6.73114">
        <ele>412</ele>
        <time>2015-05-25T08:16:36.000Z</time>
      </trkpt>
      <trkpt lat="47.54438" lon="6.73116">
        <ele>412</ele>
        <time>2015-05-25T08:16:37.000Z</time>
      </trkpt>
      <trkpt lat="47.54441" lon="6.73118">
        <ele>412</ele>
        <time>2015-05-25T08:16:39.000Z</time>
      </trkpt>
      <trkpt lat="47.54443" lon="6.73119">
        <ele>412</ele>
        <time>2015-05-25T08:16:40.000Z</time>
      </trkpt>
      <trkpt lat="47.54447" lon="6.73121">
        <ele>412</ele>
        <time>2015-05-25T08:16:42.000Z</time>
      </trkpt>
      <trkpt lat="47.54448" lon="6.73121">
        <ele>413</ele>
        <time>2015-05-25T08:16:43.000Z</time>
      </trkpt>
      <trkpt lat="47.54451" lon="6.73122">
        <ele>413</ele>
        <time>2015-05-25T08:16:45.000Z</time>
      </trkpt>
      <trkpt lat="47.54453" lon="6.73122">
        <ele>413</ele>
        <time>2015-05-25T08:16:46.000Z</time>
      </trkpt>
      <trkpt lat="47.54455" lon="6.73122">
        <ele>413</ele>
        <time>2015-05-25T08:16:47.000Z</time>
      </trkpt>
      <trkpt lat="47.54458" lon="6.73123">
        <ele>413</ele>
        <time>2015-05-25T08:16:48.000Z</time>
      </trkpt>
      <trkpt lat="47.5446" lon="6.73124">
        <ele>413</ele>
        <time>2015-05-25T08:16:49.000Z</time>
      </trkpt>
      <trkpt lat="47.54463" lon="6.73124">
        <ele>413</ele>
        <time>2015-05-25T08:16:50.000Z</time>
      </trkpt>
      <trkpt lat="47.54467" lon="6.73125">
        <ele>413</ele>
        <time>2015-05-25T08:16:51.000Z</time>
      </trkpt>
      <trkpt lat="47.5447" lon="6.73124">
        <ele>414</ele>
        <time>2015-05-25T08:16:52.000Z</time>
      </trkpt>
      <trkpt lat="47.54473" lon="6.73124">
        <ele>414</ele>
        <time>2015-05-25T08:16:53.000Z</time>
      </trkpt>
      <trkpt lat="47.54477" lon="6.73123">
        <ele>414</ele>
        <time>2015-05-25T08:16:54.000Z</time>
      </trkpt>
      <trkpt lat="47.5448" lon="6.73121">
        <ele>414</ele>
        <time>2015-05-25T08:16:55.000Z</time>
      </trkpt>
      <trkpt lat="47.54482" lon="6.7312">
        <ele>414</ele>
        <time>2015-05-25T08:16:56.000Z</time>
      </trkpt>
      <trkpt lat="47.54486" lon="6.73118">
        <ele>414</ele>
        <time>2015-05-25T08:16:57.000Z</time>
      </trkpt>
      <trkpt lat="47.54489" lon="6.73117">
        <ele>414</ele>
        <time>2015-05-25T08:16:58.000Z</time>
      </trkpt>
      <trkpt lat="47.54493" lon="6.73116">
        <ele>414</ele>
        <time>2015-05-25T08:16:59.000Z</time>
      </trkpt>
      <trkpt lat="47.54497" lon="6.73115">
        <ele>415</ele>
        <time>2015-05-25T08:17:00.000Z</time>
      </trkpt>
      <trkpt lat="47.545" lon="6.73114">
        <ele>415</ele>
        <time>2015-05-25T08:17:01.000Z</time>
      </trkpt>
      <trkpt lat="47.54502" lon="6.73114">
        <ele>417</ele>
        <time>2015-05-25T08:17:02.000Z</time>
      </trkpt>
      <trkpt lat="47.54506" lon="6.73114">
        <ele>417</ele>
        <time>2015-05-25T08:17:04.000Z</time>
      </trkpt>
      <trkpt lat="47.54508" lon="6.73115">
        <ele>417</ele>
        <time>2015-05-25T08:17:05.000Z</time>
      </trkpt>
      <trkpt lat="47.5451" lon="6.73115">
        <ele>417</ele>
        <time>2015-05-25T08:17:06.000Z</time>
      </trkpt>
      <trkpt lat="47.54513" lon="6.73114">
        <ele>417</ele>
        <time>2015-05-25T08:17:07.000Z</time>
      </trkpt>
      <trkpt lat="47.54517" lon="6.73115">
        <ele>417</ele>
        <time>2015-05-25T08:17:08.998Z</time>
      </trkpt>
      <trkpt lat="47.54521" lon="6.73116">
        <ele>417</ele>
        <time>2015-05-25T08:17:10.000Z</time>
      </trkpt>
      <trkpt lat="47.54524" lon="6.73116">
        <ele>417</ele>
        <time>2015-05-25T08:17:11.000Z</time>
      </trkpt>
      <trkpt lat="47.54526" lon="6.73117">
        <ele>417</ele>
        <time>2015-05-25T08:17:12.000Z</time>
      </trkpt>
      <trkpt lat="47.5453" lon="6.73119">
        <ele>417</ele>
        <time>2015-05-25T08:17:14.000Z</time>
      </trkpt>
      <trkpt lat="47.54533" lon="6.73119">
        <ele>417</ele>
        <time>2015-05-25T08:17:15.000Z</time>
      </trkpt>
      <trkpt lat="47.54536" lon="6.73119">
        <ele>417</ele>
        <time>2015-05-25T08:17:16.000Z</time>
      </trkpt>
      <trkpt lat="47.54539" lon="6.73116">
        <ele>417</ele>
        <time>2015-05-25T08:17:17.000Z</time>
      </trkpt>
      <trkpt lat="47.54543" lon="6.73113">
        <ele>418</ele>
        <time>2015-05-25T08:17:18.000Z</time>
      </trkpt>
      <trkpt lat="47.54547" lon="6.73108">
        <ele>418</ele>
        <time>2015-05-25T08:17:19.000Z</time>
      </trkpt>
      <trkpt lat="47.5455" lon="6.73103">
        <ele>418</ele>
        <time>2015-05-25T08:17:20.000Z</time>
      </trkpt>
      <trkpt lat="47.54554" lon="6.73099">
        <ele>418</ele>
        <time>2015-05-25T08:17:21.000Z</time>
      </trkpt>
      <trkpt lat="47.54557" lon="6.73095">
        <ele>418</ele>
        <time>2015-05-25T08:17:22.000Z</time>
      </trkpt>
      <trkpt lat="47.5456" lon="6.73092">
        <ele>418</ele>
        <time>2015-05-25T08:17:23.000Z</time>
      </trkpt>
      <trkpt lat="47.54564" lon="6.7309">
        <ele>418</ele>
        <time>2015-05-25T08:17:24.000Z</time>
      </trkpt>
      <trkpt lat="47.54568" lon="6.73089">
        <ele>418</ele>
        <time>2015-05-25T08:17:25.000Z</time>
      </trkpt>
      <trkpt lat="47.54571" lon="6.73087">
        <ele>418</ele>
        <time>2015-05-25T08:17:26.000Z</time>
      </trkpt>
      <trkpt lat="47.54575" lon="6.73085">
        <ele>418</ele>
        <time>2015-05-25T08:17:27.000Z</time>
      </trkpt>
      <trkpt lat="47.54578" lon="6.73083">
        <ele>418</ele>
        <time>2015-05-25T08:17:28.000Z</time>
      </trkpt>
      <trkpt lat="47.54581" lon="6.7308">
        <ele>418</ele>
        <time>2015-05-25T08:17:29.000Z</time>
      </trkpt>
      <trkpt lat="47.54584" lon="6.73077">
        <ele>417</ele>
        <time>2015-05-25T08:17:30.000Z</time>
      </trkpt>
      <trkpt lat="47.54586" lon="6.73074">
        <ele>417</ele>
        <time>2015-05-25T08:17:31.000Z</time>
      </trkpt>
      <trkpt lat="47.54589" lon="6.73071">
        <ele>416</ele>
        <time>2015-05-25T08:17:32.000Z</time>
      </trkpt>
      <trkpt lat="47.54593" lon="6.73069">
        <ele>416</ele>
        <time>2015-05-25T08:17:34.000Z</time>
      </trkpt>
      <trkpt lat="47.54595" lon="6.73068">
        <ele>416</ele>
        <time>2015-05-25T08:17:35.000Z</time>
      </trkpt>
      <trkpt lat="47.54598" lon="6.73068">
        <ele>415</ele>
        <time>2015-05-25T08:17:36.000Z</time>
      </trkpt>
      <trkpt lat="47.54602" lon="6.73068">
        <ele>415</ele>
        <time>2015-05-25T08:17:37.000Z</time>
      </trkpt>
      <trkpt lat="47.54605" lon="6.73068">
        <ele>415</ele>
        <time>2015-05-25T08:17:38.000Z</time>
      </trkpt>
      <trkpt lat="47.54608" lon="6.73068">
        <ele>415</ele>
        <time>2015-05-25T08:17:39.000Z</time>
      </trkpt>
      <trkpt lat="47.5461" lon="6.73068">
        <ele>415</ele>
        <time>2015-05-25T08:17:40.000Z</time>
      </trkpt>
      <trkpt lat="47.54613" lon="6.73069">
        <ele>415</ele>
        <time>2015-05-25T08:17:41.000Z</time>
      </trkpt>
      <trkpt lat="47.54617" lon="6.73069">
        <ele>414</ele>
        <time>2015-05-25T08:17:42.000Z</time>
      </trkpt>
      <trkpt lat="47.5462" lon="6.7307">
        <ele>414</ele>
        <time>2015-05-25T08:17:43.000Z</time>
      </trkpt>
      <trkpt lat="47.54623" lon="6.73071">
        <ele>414</ele>
        <time>2015-05-25T08:17:44.000Z</time>
      </trkpt>
      <trkpt lat="47.54625" lon="6.73071">
        <ele>414</ele>
        <time>2015-05-25T08:17:45.000Z</time>
      </trkpt>
      <trkpt lat="47.54629" lon="6.73074">
        <ele>414</ele>
        <time>2015-05-25T08:17:47.000Z</time>
      </trkpt>
      <trkpt lat="47.5463" lon="6.73076">
        <ele>414</ele>
        <time>2015-05-25T08:17:48.000Z</time>
      </trkpt>
      <trkpt lat="47.54633" lon="6.73079">
        <ele>414</ele>
        <time>2015-05-25T08:17:50.000Z</time>
      </trkpt>
      <trkpt lat="47.54635" lon="6.7308">
        <ele>414</ele>
        <time>2015-05-25T08:17:51.000Z</time>
      </trkpt>
      <trkpt lat="47.54637" lon="6.73082">
        <ele>413</ele>
        <time>2015-05-25T08:17:52.000Z</time>
      </trkpt>
      <trkpt lat="47.5464" lon="6.73083">
        <ele>413</ele>
        <time>2015-05-25T08:17:53.000Z</time>
      </trkpt>
      <trkpt lat="47.54643" lon="6.73084">
        <ele>414</ele>
        <time>2015-05-25T08:17:54.000Z</time>
      </trkpt>
      <trkpt lat="47.54646" lon="6.73086">
        <ele>414</ele>
        <time>2015-05-25T08:17:55.000Z</time>
      </trkpt>
      <trkpt lat="47.54649" lon="6.73087">
        <ele>414</ele>
        <time>2015-05-25T08:17:56.000Z</time>
      </trkpt>
      <trkpt lat="47.54653" lon="6.73088">
        <ele>414</ele>
        <time>2015-05-25T08:17:57.000Z</time>
      </trkpt>
      <trkpt lat="47.54657" lon="6.73089">
        <ele>413</ele>
        <time>2015-05-25T08:17:58.000Z</time>
      </trkpt>
      <trkpt lat="47.54661" lon="6.73089">
        <ele>413</ele>
        <time>2015-05-25T08:17:59.000Z</time>
      </trkpt>
      <trkpt lat="47.54666" lon="6.7309">
        <ele>413</ele>
        <time>2015-05-25T08:18:00.000Z</time>
      </trkpt>
      <trkpt lat="47.5467" lon="6.73091">
        <ele>411</ele>
        <time>2015-05-25T08:18:01.000Z</time>
      </trkpt>
      <trkpt lat="47.54674" lon="6.73092">
        <ele>411</ele>
        <time>2015-05-25T08:18:02.000Z</time>
      </trkpt>
      <trkpt lat="47.54678" lon="6.73094">
        <ele>411</ele>
        <time>2015-05-25T08:18:03.000Z</time>
      </trkpt>
      <trkpt lat="47.54682" lon="6.73096">
        <ele>411</ele>
        <time>2015-05-25T08:18:04.000Z</time>
      </trkpt>
      <trkpt lat="47.54686" lon="6.73099">
        <ele>411</ele>
        <time>2015-05-25T08:18:05.000Z</time>
      </trkpt>
      <trkpt lat="47.54689" lon="6.73101">
        <ele>411</ele>
        <time>2015-05-25T08:18:06.000Z</time>
      </trkpt>
      <trkpt lat="47.54692" lon="6.73103">
        <ele>410</ele>
        <time>2015-05-25T08:18:07.000Z</time>
      </trkpt>
      <trkpt lat="47.54695" lon="6.73105">
        <ele>410</ele>
        <time>2015-05-25T08:18:08.000Z</time>
      </trkpt>
      <trkpt lat="47.54696" lon="6.73105">
        <ele>410</ele>
        <time>2015-05-25T08:18:09.000Z</time>
      </trkpt>
      <trkpt lat="47.54701" lon="6.73103">
        <ele>410</ele>
        <time>2015-05-25T08:18:16.000Z</time>
      </trkpt>
      <trkpt lat="47.54701" lon="6.73103">
        <ele>410</ele>
        <time>2015-05-25T08:18:17.000Z</time>
      </trkpt>
      <trkpt lat="47.54705" lon="6.73106">
        <ele>410</ele>
        <time>2015-05-25T08:19:55.000Z</time>
      </trkpt>
      <trkpt lat="47.54706" lon="6.73107">
        <ele>410</ele>
        <time>2015-05-25T08:19:56.000Z</time>
      </trkpt>
      <trkpt lat="47.5471" lon="6.73108">
        <ele>410</ele>
        <time>2015-05-25T08:19:58.000Z</time>
      </trkpt>
      <trkpt lat="47.54713" lon="6.73109">
        <ele>409</ele>
        <time>2015-05-25T08:19:59.000Z</time>
      </trkpt>
      <trkpt lat="47.54716" lon="6.7311">
        <ele>409</ele>
        <time>2015-05-25T08:20:00.000Z</time>
      </trkpt>
      <trkpt lat="47.54719" lon="6.73111">
        <ele>409</ele>
        <time>2015-05-25T08:20:01.000Z</time>
      </trkpt>
      <trkpt lat="47.54722" lon="6.73112">
        <ele>409</ele>
        <time>2015-05-25T08:20:02.000Z</time>
      </trkpt>
      <trkpt lat="47.54725" lon="6.73114">
        <ele>409</ele>
        <time>2015-05-25T08:20:03.000Z</time>
      </trkpt>
      <trkpt lat="47.54727" lon="6.73115">
        <ele>409</ele>
        <time>2015-05-25T08:20:04.000Z</time>
      </trkpt>
      <trkpt lat="47.5473" lon="6.73116">
        <ele>409</ele>
        <time>2015-05-25T08:20:05.000Z</time>
      </trkpt>
      <trkpt lat="47.54733" lon="6.73117">
        <ele>409</ele>
        <time>2015-05-25T08:20:06.000Z</time>
      </trkpt>
      <trkpt lat="47.54735" lon="6.73118">
        <ele>409</ele>
        <time>2015-05-25T08:20:07.000Z</time>
      </trkpt>
      <trkpt lat="47.54739" lon="6.73119">
        <ele>409</ele>
        <time>2015-05-25T08:20:09.000Z</time>
      </trkpt>
      <trkpt lat="47.5474" lon="6.7312">
        <ele>409</ele>
        <time>2015-05-25T08:20:10.000Z</time>
      </trkpt>
      <trkpt lat="47.54744" lon="6.73118">
        <ele>409</ele>
        <time>2015-05-25T08:20:27.000Z</time>
      </trkpt>
      <trkpt lat="47.54746" lon="6.73119">
        <ele>409</ele>
        <time>2015-05-25T08:20:28.000Z</time>
      </trkpt>
      <trkpt lat="47.5475" lon="6.73121">
        <ele>409</ele>
        <time>2015-05-25T08:20:30.000Z</time>
      </trkpt>
      <trkpt lat="47.54753" lon="6.73122">
        <ele>403</ele>
        <time>2015-05-25T08:20:31.000Z</time>
      </trkpt>
      <trkpt lat="47.54756" lon="6.73123">
        <ele>403</ele>
        <time>2015-05-25T08:20:32.000Z</time>
      </trkpt>
      <trkpt lat="47.54759" lon="6.73125">
        <ele>403</ele>
        <time>2015-05-25T08:20:33.000Z</time>
      </trkpt>
      <trkpt lat="47.54763" lon="6.73127">
        <ele>403</ele>
        <time>2015-05-25T08:20:34.000Z</time>
      </trkpt>
      <trkpt lat="47.54767" lon="6.73129">
        <ele>403</ele>
        <time>2015-05-25T08:20:35.000Z</time>
      </trkpt>
      <trkpt lat="47.54771" lon="6.73131">
        <ele>403</ele>
        <time>2015-05-25T08:20:36.000Z</time>
      </trkpt>
      <trkpt lat="47.54775" lon="6.73133">
        <ele>403</ele>
        <time>2015-05-25T08:20:37.000Z</time>
      </trkpt>
      <trkpt lat="47.5478" lon="6.73136">
        <ele>402</ele>
        <time>2015-05-25T08:20:38.000Z</time>
      </trkpt>
      <trkpt lat="47.54789" lon="6.73137">
        <ele>402</ele>
        <time>2015-05-25T08:20:39.000Z</time>
      </trkpt>
      <trkpt lat="47.54795" lon="6.73139">
        <ele>401</ele>
        <time>2015-05-25T08:20:40.000Z</time>
      </trkpt>
      <trkpt lat="47.54799" lon="6.7314">
        <ele>401</ele>
        <time>2015-05-25T08:20:41.000Z</time>
      </trkpt>
      <trkpt lat="47.54804" lon="6.73141">
        <ele>401</ele>
        <time>2015-05-25T08:20:42.000Z</time>
      </trkpt>
      <trkpt lat="47.54809" lon="6.73142">
        <ele>400</ele>
        <time>2015-05-25T08:20:43.000Z</time>
      </trkpt>
      <trkpt lat="47.54814" lon="6.73144">
        <ele>400</ele>
        <time>2015-05-25T08:20:44.000Z</time>
      </trkpt>
      <trkpt lat="47.54819" lon="6.73146">
        <ele>399</ele>
        <time>2015-05-25T08:20:45.000Z</time>
      </trkpt>
      <trkpt lat="47.54825" lon="6.73147">
        <ele>399</ele>
        <time>2015-05-25T08:20:46.000Z</time>
      </trkpt>
      <trkpt lat="47.54831" lon="6.73147">
        <ele>399</ele>
        <time>2015-05-25T08:20:47.000Z</time>
      </trkpt>
      <trkpt lat="47.54837" lon="6.73148">
        <ele>394</ele>
        <time>2015-05-25T08:20:48.000Z</time>
      </trkpt>
      <trkpt lat="47.54844" lon="6.73149">
        <ele>393</ele>
        <time>2015-05-25T08:20:49.000Z</time>
      </trkpt>
      <trkpt lat="47.5485" lon="6.73149">
        <ele>393</ele>
        <time>2015-05-25T08:20:50.000Z</time>
      </trkpt>
      <trkpt lat="47.54856" lon="6.73149">
        <ele>392</ele>
        <time>2015-05-25T08:20:51.000Z</time>
      </trkpt>
      <trkpt lat="47.54863" lon="6.73151">
        <ele>392</ele>
        <time>2015-05-25T08:20:52.000Z</time>
      </trkpt>
      <trkpt lat="47.5487" lon="6.73151">
        <ele>391</ele>
        <time>2015-05-25T08:20:53.000Z</time>
      </trkpt>
      <trkpt lat="47.54878" lon="6.73151">
        <ele>391</ele>
        <time>2015-05-25T08:20:54.000Z</time>
      </trkpt>
      <trkpt lat="47.54885" lon="6.73152">
        <ele>390</ele>
        <time>2015-05-25T08:20:55.000Z</time>
      </trkpt>
      <trkpt lat="47.54892" lon="6.73153">
        <ele>389</ele>
        <time>2015-05-25T08:20:56.000Z</time>
      </trkpt>
      <trkpt lat="47.54898" lon="6.73155">
        <ele>389</ele>
        <time>2015-05-25T08:20:57.000Z</time>
      </trkpt>
      <trkpt lat="47.54904" lon="6.73158">
        <ele>389</ele>
        <time>2015-05-25T08:20:58.000Z</time>
      </trkpt>
      <trkpt lat="47.54911" lon="6.73161">
        <ele>388</ele>
        <time>2015-05-25T08:20:59.000Z</time>
      </trkpt>
      <trkpt lat="47.54917" lon="6.73167">
        <ele>387</ele>
        <time>2015-05-25T08:21:00.000Z</time>
      </trkpt>
      <trkpt lat="47.54923" lon="6.73174">
        <ele>385</ele>
        <time>2015-05-25T08:21:01.000Z</time>
      </trkpt>
      <trkpt lat="47.5493" lon="6.73181">
        <ele>384</ele>
        <time>2015-05-25T08:21:02.000Z</time>
      </trkpt>
      <trkpt lat="47.54936" lon="6.73187">
        <ele>384</ele>
        <time>2015-05-25T08:21:03.000Z</time>
      </trkpt>
      <trkpt lat="47.54942" lon="6.73193">
        <ele>383</ele>
        <time>2015-05-25T08:21:04.000Z</time>
      </trkpt>
      <trkpt lat="47.5495" lon="6.73198">
        <ele>382</ele>
        <time>2015-05-25T08:21:05.000Z</time>
      </trkpt>
      <trkpt lat="47.54957" lon="6.73203">
        <ele>382</ele>
        <time>2015-05-25T08:21:06.000Z</time>
      </trkpt>
      <trkpt lat="47.54962" lon="6.73213">
        <ele>382</ele>
        <time>2015-05-25T08:21:07.000Z</time>
      </trkpt>
      <trkpt lat="47.54967" lon="6.73224">
        <ele>382</ele>
        <time>2015-05-25T08:21:08.000Z</time>
      </trkpt>
      <trkpt lat="47.54971" lon="6.73235">
        <ele>381</ele>
        <time>2015-05-25T08:21:09.000Z</time>
      </trkpt>
      <trkpt lat="47.54973" lon="6.73245">
        <ele>381</ele>
        <time>2015-05-25T08:21:10.000Z</time>
      </trkpt>
      <trkpt lat="47.54976" lon="6.73254">
        <ele>382</ele>
        <time>2015-05-25T08:21:11.000Z</time>
      </trkpt>
      <trkpt lat="47.5498" lon="6.73259">
        <ele>381</ele>
        <time>2015-05-25T08:21:12.000Z</time>
      </trkpt>
      <trkpt lat="47.54984" lon="6.73263">
        <ele>381</ele>
        <time>2015-05-25T08:21:13.000Z</time>
      </trkpt>
      <trkpt lat="47.54988" lon="6.73264">
        <ele>381</ele>
        <time>2015-05-25T08:21:14.000Z</time>
      </trkpt>
      <trkpt lat="47.54995" lon="6.73251">
        <ele>379</ele>
        <time>2015-05-25T08:21:15.000Z</time>
      </trkpt>
      <trkpt lat="47.55001" lon="6.73244">
        <ele>378</ele>
        <time>2015-05-25T08:21:16.000Z</time>
      </trkpt>
      <trkpt lat="47.55007" lon="6.73238">
        <ele>377</ele>
        <time>2015-05-25T08:21:17.000Z</time>
      </trkpt>
      <trkpt lat="47.55013" lon="6.73233">
        <ele>377</ele>
        <time>2015-05-25T08:21:18.000Z</time>
      </trkpt>
      <trkpt lat="47.55019" lon="6.7323">
        <ele>377</ele>
        <time>2015-05-25T08:21:19.000Z</time>
      </trkpt>
      <trkpt lat="47.55025" lon="6.73227">
        <ele>377</ele>
        <time>2015-05-25T08:21:20.000Z</time>
      </trkpt>
      <trkpt lat="47.55031" lon="6.73225">
        <ele>376</ele>
        <time>2015-05-25T08:21:21.000Z</time>
      </trkpt>
      <trkpt lat="47.55038" lon="6.73224">
        <ele>376</ele>
        <time>2015-05-25T08:21:22.000Z</time>
      </trkpt>
      <trkpt lat="47.55043" lon="6.73224">
        <ele>376</ele>
        <time>2015-05-25T08:21:23.000Z</time>
      </trkpt>
      <trkpt lat="47.55048" lon="6.73226">
        <ele>376</ele>
        <time>2015-05-25T08:21:24.000Z</time>
      </trkpt>
      <trkpt lat="47.55053" lon="6.73228">
        <ele>376</ele>
        <time>2015-05-25T08:21:25.000Z</time>
      </trkpt>
      <trkpt lat="47.55057" lon="6.7323">
        <ele>376</ele>
        <time>2015-05-25T08:21:26.000Z</time>
      </trkpt>
      <trkpt lat="47.5506" lon="6.73234">
        <ele>376</ele>
        <time>2015-05-25T08:21:27.000Z</time>
      </trkpt>
      <trkpt lat="47.55064" lon="6.73235">
        <ele>376</ele>
        <time>2015-05-25T08:21:28.000Z</time>
      </trkpt>
      <trkpt lat="47.55068" lon="6.73232">
        <ele>376</ele>
        <time>2015-05-25T08:21:29.000Z</time>
      </trkpt>
      <trkpt lat="47.55071" lon="6.73228">
        <ele>376</ele>
        <time>2015-05-25T08:21:30.000Z</time>
      </trkpt>
      <trkpt lat="47.55074" lon="6.73224">
        <ele>376</ele>
        <time>2015-05-25T08:21:31.000Z</time>
      </trkpt>
      <trkpt lat="47.55077" lon="6.7322">
        <ele>376</ele>
        <time>2015-05-25T08:21:32.000Z</time>
      </trkpt>
      <trkpt lat="47.5508" lon="6.73216">
        <ele>376</ele>
        <time>2015-05-25T08:21:33.000Z</time>
      </trkpt>
      <trkpt lat="47.55083" lon="6.73211">
        <ele>376</ele>
        <time>2015-05-25T08:21:34.000Z</time>
      </trkpt>
      <trkpt lat="47.55086" lon="6.73207">
        <ele>376</ele>
        <time>2015-05-25T08:21:35.000Z</time>
      </trkpt>
      <trkpt lat="47.55089" lon="6.73202">
        <ele>376</ele>
        <time>2015-05-25T08:21:36.000Z</time>
      </trkpt>
      <trkpt lat="47.55093" lon="6.73196">
        <ele>376</ele>
        <time>2015-05-25T08:21:37.000Z</time>
      </trkpt>
      <trkpt lat="47.55097" lon="6.73191">
        <ele>376</ele>
        <time>2015-05-25T08:21:38.000Z</time>
      </trkpt>
      <trkpt lat="47.55101" lon="6.73185">
        <ele>376</ele>
        <time>2015-05-25T08:21:39.000Z</time>
      </trkpt>
      <trkpt lat="47.55104" lon="6.73179">
        <ele>375</ele>
        <time>2015-05-25T08:21:40.000Z</time>
      </trkpt>
      <trkpt lat="47.55107" lon="6.73175">
        <ele>375</ele>
        <time>2015-05-25T08:21:41.000Z</time>
      </trkpt>
      <trkpt lat="47.55111" lon="6.73169">
        <ele>376</ele>
        <time>2015-05-25T08:21:42.000Z</time>
      </trkpt>
      <trkpt lat="47.55114" lon="6.73164">
        <ele>373</ele>
        <time>2015-05-25T08:21:43.000Z</time>
      </trkpt>
      <trkpt lat="47.55118" lon="6.73158">
        <ele>373</ele>
        <time>2015-05-25T08:21:44.000Z</time>
      </trkpt>
      <trkpt lat="47.55121" lon="6.73152">
        <ele>373</ele>
        <time>2015-05-25T08:21:45.000Z</time>
      </trkpt>
      <trkpt lat="47.55125" lon="6.73146">
        <ele>373</ele>
        <time>2015-05-25T08:21:46.000Z</time>
      </trkpt>
      <trkpt lat="47.5513" lon="6.7314">
        <ele>373</ele>
        <time>2015-05-25T08:21:47.000Z</time>
      </trkpt>
      <trkpt lat="47.55134" lon="6.73134">
        <ele>373</ele>
        <time>2015-05-25T08:21:48.000Z</time>
      </trkpt>
      <trkpt lat="47.55139" lon="6.73128">
        <ele>373</ele>
        <time>2015-05-25T08:21:49.000Z</time>
      </trkpt>
      <trkpt lat="47.55143" lon="6.73122">
        <ele>373</ele>
        <time>2015-05-25T08:21:50.000Z</time>
      </trkpt>
      <trkpt lat="47.55147" lon="6.73116">
        <ele>373</ele>
        <time>2015-05-25T08:21:51.000Z</time>
      </trkpt>
      <trkpt lat="47.55151" lon="6.7311">
        <ele>373</ele>
        <time>2015-05-25T08:21:52.000Z</time>
      </trkpt>
      <trkpt lat="47.55156" lon="6.73104">
        <ele>373</ele>
        <time>2015-05-25T08:21:53.000Z</time>
      </trkpt>
      <trkpt lat="47.55161" lon="6.73097">
        <ele>372</ele>
        <time>2015-05-25T08:21:54.000Z</time>
      </trkpt>
      <trkpt lat="47.55165" lon="6.73091">
        <ele>372</ele>
        <time>2015-05-25T08:21:55.000Z</time>
      </trkpt>
      <trkpt lat="47.55169" lon="6.73085">
        <ele>372</ele>
        <time>2015-05-25T08:21:56.000Z</time>
      </trkpt>
      <trkpt lat="47.55173" lon="6.73078">
        <ele>372</ele>
        <time>2015-05-25T08:21:57.000Z</time>
      </trkpt>
      <trkpt lat="47.55178" lon="6.73071">
        <ele>372</ele>
        <time>2015-05-25T08:21:58.000Z</time>
      </trkpt>
      <trkpt lat="47.55182" lon="6.73065">
        <ele>373</ele>
        <time>2015-05-25T08:21:59.000Z</time>
      </trkpt>
      <trkpt lat="47.55187" lon="6.73059">
        <ele>373</ele>
        <time>2015-05-25T08:22:00.000Z</time>
      </trkpt>
      <trkpt lat="47.55191" lon="6.73053">
        <ele>373</ele>
        <time>2015-05-25T08:22:01.000Z</time>
      </trkpt>
      <trkpt lat="47.55195" lon="6.73047">
        <ele>373</ele>
        <time>2015-05-25T08:22:02.000Z</time>
      </trkpt>
      <trkpt lat="47.55199" lon="6.7304">
        <ele>373</ele>
        <time>2015-05-25T08:22:03.000Z</time>
      </trkpt>
      <trkpt lat="47.55203" lon="6.73034">
        <ele>373</ele>
        <time>2015-05-25T08:22:04.000Z</time>
      </trkpt>
      <trkpt lat="47.55205" lon="6.73027">
        <ele>373</ele>
        <time>2015-05-25T08:22:05.000Z</time>
      </trkpt>
      <trkpt lat="47.55208" lon="6.7302">
        <ele>373</ele>
        <time>2015-05-25T08:22:06.000Z</time>
      </trkpt>
      <trkpt lat="47.55209" lon="6.73012">
        <ele>373</ele>
        <time>2015-05-25T08:22:07.000Z</time>
      </trkpt>
      <trkpt lat="47.55211" lon="6.73004">
        <ele>373</ele>
        <time>2015-05-25T08:22:08.000Z</time>
      </trkpt>
      <trkpt lat="47.55213" lon="6.72997">
        <ele>373</ele>
        <time>2015-05-25T08:22:09.000Z</time>
      </trkpt>
      <trkpt lat="47.55214" lon="6.7299">
        <ele>373</ele>
        <time>2015-05-25T08:22:10.000Z</time>
      </trkpt>
      <trkpt lat="47.55216" lon="6.72982">
        <ele>373</ele>
        <time>2015-05-25T08:22:11.000Z</time>
      </trkpt>
      <trkpt lat="47.55218" lon="6.72975">
        <ele>373</ele>
        <time>2015-05-25T08:22:12.000Z</time>
      </trkpt>
      <trkpt lat="47.55219" lon="6.72966">
        <ele>373</ele>
        <time>2015-05-25T08:22:13.000Z</time>
      </trkpt>
      <trkpt lat="47.55222" lon="6.7296">
        <ele>373</ele>
        <time>2015-05-25T08:22:14.000Z</time>
      </trkpt>
      <trkpt lat="47.55223" lon="6.72954">
        <ele>373</ele>
        <time>2015-05-25T08:22:15.000Z</time>
      </trkpt>
      <trkpt lat="47.55226" lon="6.72948">
        <ele>373</ele>
        <time>2015-05-25T08:22:16.000Z</time>
      </trkpt>
      <trkpt lat="47.55229" lon="6.72943">
        <ele>373</ele>
        <time>2015-05-25T08:22:17.000Z</time>
      </trkpt>
      <trkpt lat="47.55232" lon="6.72938">
        <ele>373</ele>
        <time>2015-05-25T08:22:18.000Z</time>
      </trkpt>
      <trkpt lat="47.55235" lon="6.72932">
        <ele>374</ele>
        <time>2015-05-25T08:22:19.000Z</time>
      </trkpt>
      <trkpt lat="47.55238" lon="6.72926">
        <ele>374</ele>
        <time>2015-05-25T08:22:20.000Z</time>
      </trkpt>
      <trkpt lat="47.55241" lon="6.72922">
        <ele>375</ele>
        <time>2015-05-25T08:22:21.000Z</time>
      </trkpt>
      <trkpt lat="47.55244" lon="6.72917">
        <ele>375</ele>
        <time>2015-05-25T08:22:22.000Z</time>
      </trkpt>
      <trkpt lat="47.55247" lon="6.72913">
        <ele>375</ele>
        <time>2015-05-25T08:22:23.000Z</time>
      </trkpt>
      <trkpt lat="47.5525" lon="6.72909">
        <ele>375</ele>
        <time>2015-05-25T08:22:24.000Z</time>
      </trkpt>
      <trkpt lat="47.55253" lon="6.72907">
        <ele>376</ele>
        <time>2015-05-25T08:22:25.000Z</time>
      </trkpt>
      <trkpt lat="47.55256" lon="6.72906">
        <ele>377</ele>
        <time>2015-05-25T08:22:26.000Z</time>
      </trkpt>
      <trkpt lat="47.55259" lon="6.72902">
        <ele>377</ele>
        <time>2015-05-25T08:22:27.000Z</time>
      </trkpt>
      <trkpt lat="47.55262" lon="6.72899">
        <ele>377</ele>
        <time>2015-05-25T08:22:28.000Z</time>
      </trkpt>
      <trkpt lat="47.55265" lon="6.72897">
        <ele>377</ele>
        <time>2015-05-25T08:22:29.000Z</time>
      </trkpt>
      <trkpt lat="47.55268" lon="6.72895">
        <ele>377</ele>
        <time>2015-05-25T08:22:30.000Z</time>
      </trkpt>
      <trkpt lat="47.55272" lon="6.72892">
        <ele>377</ele>
        <time>2015-05-25T08:22:31.000Z</time>
      </trkpt>
      <trkpt lat="47.55275" lon="6.7289">
        <ele>377</ele>
        <time>2015-05-25T08:22:32.000Z</time>
      </trkpt>
      <trkpt lat="47.55279" lon="6.72888">
        <ele>377</ele>
        <time>2015-05-25T08:22:33.000Z</time>
      </trkpt>
      <trkpt lat="47.55282" lon="6.72887">
        <ele>377</ele>
        <time>2015-05-25T08:22:34.000Z</time>
      </trkpt>
      <trkpt lat="47.55286" lon="6.72885">
        <ele>377</ele>
        <time>2015-05-25T08:22:35.000Z</time>
      </trkpt>
      <trkpt lat="47.55289" lon="6.72884">
        <ele>377</ele>
        <time>2015-05-25T08:22:36.000Z</time>
      </trkpt>
      <trkpt lat="47.55293" lon="6.72882">
        <ele>378</ele>
        <time>2015-05-25T08:22:37.000Z</time>
      </trkpt>
      <trkpt lat="47.55296" lon="6.7288">
        <ele>378</ele>
        <time>2015-05-25T08:22:38.000Z</time>
      </trkpt>
      <trkpt lat="47.553" lon="6.72877">
        <ele>378</ele>
        <time>2015-05-25T08:22:39.000Z</time>
      </trkpt>
      <trkpt lat="47.55304" lon="6.72874">
        <ele>378</ele>
        <time>2015-05-25T08:22:40.000Z</time>
      </trkpt>
      <trkpt lat="47.55307" lon="6.72871">
        <ele>378</ele>
        <time>2015-05-25T08:22:41.000Z</time>
      </trkpt>
      <trkpt lat="47.55311" lon="6.72868">
        <ele>378</ele>
        <time>2015-05-25T08:22:42.000Z</time>
      </trkpt>
      <trkpt lat="47.55313" lon="6.72865">
        <ele>378</ele>
        <time>2015-05-25T08:22:43.000Z</time>
      </trkpt>
      <trkpt lat="47.55316" lon="6.72861">
        <ele>378</ele>
        <time>2015-05-25T08:22:44.000Z</time>
      </trkpt>
      <trkpt lat="47.55319" lon="6.72858">
        <ele>378</ele>
        <time>2015-05-25T08:22:45.000Z</time>
      </trkpt>
      <trkpt lat="47.55322" lon="6.72855">
        <ele>378</ele>
        <time>2015-05-25T08:22:46.000Z</time>
      </trkpt>
      <trkpt lat="47.55325" lon="6.72852">
        <ele>378</ele>
        <time>2015-05-25T08:22:47.000Z</time>
      </trkpt>
      <trkpt lat="47.55328" lon="6.72849">
        <ele>378</ele>
        <time>2015-05-25T08:22:48.000Z</time>
      </trkpt>
      <trkpt lat="47.55331" lon="6.72846">
        <ele>378</ele>
        <time>2015-05-25T08:22:49.000Z</time>
      </trkpt>
      <trkpt lat="47.55333" lon="6.72844">
        <ele>379</ele>
        <time>2015-05-25T08:22:50.000Z</time>
      </trkpt>
      <trkpt lat="47.55336" lon="6.72841">
        <ele>379</ele>
        <time>2015-05-25T08:22:51.000Z</time>
      </trkpt>
      <trkpt lat="47.55338" lon="6.72839">
        <ele>379</ele>
        <time>2015-05-25T08:22:52.000Z</time>
      </trkpt>
      <trkpt lat="47.55341" lon="6.72836">
        <ele>379</ele>
        <time>2015-05-25T08:22:53.000Z</time>
      </trkpt>
      <trkpt lat="47.55344" lon="6.72833">
        <ele>379</ele>
        <time>2015-05-25T08:22:54.000Z</time>
      </trkpt>
      <trkpt lat="47.55347" lon="6.7283">
        <ele>379</ele>
        <time>2015-05-25T08:22:55.000Z</time>
      </trkpt>
      <trkpt lat="47.5535" lon="6.72827">
        <ele>378</ele>
        <time>2015-05-25T08:22:56.000Z</time>
      </trkpt>
      <trkpt lat="47.55353" lon="6.72824">
        <ele>378</ele>
        <time>2015-05-25T08:22:57.000Z</time>
      </trkpt>
      <trkpt lat="47.55356" lon="6.72821">
        <ele>378</ele>
        <time>2015-05-25T08:22:58.000Z</time>
      </trkpt>
      <trkpt lat="47.55359" lon="6.72817">
        <ele>378</ele>
        <time>2015-05-25T08:22:59.000Z</time>
      </trkpt>
      <trkpt lat="47.55362" lon="6.72814">
        <ele>378</ele>
        <time>2015-05-25T08:23:00.000Z</time>
      </trkpt>
      <trkpt lat="47.55365" lon="6.72811">
        <ele>378</ele>
        <time>2015-05-25T08:23:01.000Z</time>
      </trkpt>
      <trkpt lat="47.55368" lon="6.72807">
        <ele>378</ele>
        <time>2015-05-25T08:23:02.000Z</time>
      </trkpt>
      <trkpt lat="47.55372" lon="6.72803">
        <ele>378</ele>
        <time>2015-05-25T08:23:03.000Z</time>
      </trkpt>
      <trkpt lat="47.55375" lon="6.728">
        <ele>378</ele>
        <time>2015-05-25T08:23:04.000Z</time>
      </trkpt>
      <trkpt lat="47.55378" lon="6.72796">
        <ele>378</ele>
        <time>2015-05-25T08:23:05.000Z</time>
      </trkpt>
      <trkpt lat="47.55381" lon="6.72792">
        <ele>378</ele>
        <time>2015-05-25T08:23:06.000Z</time>
      </trkpt>
      <trkpt lat="47.55385" lon="6.72788">
        <ele>378</ele>
        <time>2015-05-25T08:23:07.000Z</time>
      </trkpt>
      <trkpt lat="47.55389" lon="6.72781">
        <ele>377</ele>
        <time>2015-05-25T08:23:08.000Z</time>
      </trkpt>
      <trkpt lat="47.55393" lon="6.72777">
        <ele>377</ele>
        <time>2015-05-25T08:23:09.000Z</time>
      </trkpt>
      <trkpt lat="47.55397" lon="6.72772">
        <ele>377</ele>
        <time>2015-05-25T08:23:10.000Z</time>
      </trkpt>
      <trkpt lat="47.55401" lon="6.72767">
        <ele>377</ele>
        <time>2015-05-25T08:23:11.000Z</time>
      </trkpt>
      <trkpt lat="47.55405" lon="6.72762">
        <ele>376</ele>
        <time>2015-05-25T08:23:12.000Z</time>
      </trkpt>
      <trkpt lat="47.5541" lon="6.72758">
        <ele>376</ele>
        <time>2015-05-25T08:23:13.000Z</time>
      </trkpt>
      <trkpt lat="47.55415" lon="6.72755">
        <ele>376</ele>
        <time>2015-05-25T08:23:14.000Z</time>
      </trkpt>
      <trkpt lat="47.5542" lon="6.72752">
        <ele>375</ele>
        <time>2015-05-25T08:23:15.000Z</time>
      </trkpt>
      <trkpt lat="47.55425" lon="6.7275">
        <ele>376</ele>
        <time>2015-05-25T08:23:16.000Z</time>
      </trkpt>
      <trkpt lat="47.5543" lon="6.72748">
        <ele>375</ele>
        <time>2015-05-25T08:23:17.000Z</time>
      </trkpt>
      <trkpt lat="47.55436" lon="6.72746">
        <ele>375</ele>
        <time>2015-05-25T08:23:18.000Z</time>
      </trkpt>
      <trkpt lat="47.55442" lon="6.72745">
        <ele>375</ele>
        <time>2015-05-25T08:23:19.000Z</time>
      </trkpt>
      <trkpt lat="47.55448" lon="6.72743">
        <ele>375</ele>
        <time>2015-05-25T08:23:20.000Z</time>
      </trkpt>
      <trkpt lat="47.55454" lon="6.72742">
        <ele>375</ele>
        <time>2015-05-25T08:23:21.000Z</time>
      </trkpt>
      <trkpt lat="47.5546" lon="6.72739">
        <ele>375</ele>
        <time>2015-05-25T08:23:22.000Z</time>
      </trkpt>
      <trkpt lat="47.55467" lon="6.72735">
        <ele>375</ele>
        <time>2015-05-25T08:23:23.000Z</time>
      </trkpt>
      <trkpt lat="47.55471" lon="6.72725">
        <ele>375</ele>
        <time>2015-05-25T08:23:24.000Z</time>
      </trkpt>
      <trkpt lat="47.55475" lon="6.72717">
        <ele>375</ele>
        <time>2015-05-25T08:23:25.000Z</time>
      </trkpt>
      <trkpt lat="47.55478" lon="6.72708">
        <ele>375</ele>
        <time>2015-05-25T08:23:26.000Z</time>
      </trkpt>
      <trkpt lat="47.55481" lon="6.72698">
        <ele>374</ele>
        <time>2015-05-25T08:23:27.000Z</time>
      </trkpt>
      <trkpt lat="47.55484" lon="6.72689">
        <ele>374</ele>
        <time>2015-05-25T08:23:28.000Z</time>
      </trkpt>
      <trkpt lat="47.55485" lon="6.72679">
        <ele>374</ele>
        <time>2015-05-25T08:23:29.000Z</time>
      </trkpt>
      <trkpt lat="47.55487" lon="6.72671">
        <ele>374</ele>
        <time>2015-05-25T08:23:30.000Z</time>
      </trkpt>
      <trkpt lat="47.55489" lon="6.72662">
        <ele>373</ele>
        <time>2015-05-25T08:23:31.000Z</time>
      </trkpt>
      <trkpt lat="47.5549" lon="6.72653">
        <ele>373</ele>
        <time>2015-05-25T08:23:32.000Z</time>
      </trkpt>
      <trkpt lat="47.55492" lon="6.72645">
        <ele>373</ele>
        <time>2015-05-25T08:23:33.000Z</time>
      </trkpt>
      <trkpt lat="47.55494" lon="6.72638">
        <ele>373</ele>
        <time>2015-05-25T08:23:34.000Z</time>
      </trkpt>
      <trkpt lat="47.55496" lon="6.72631">
        <ele>373</ele>
        <time>2015-05-25T08:23:35.000Z</time>
      </trkpt>
      <trkpt lat="47.55498" lon="6.72624">
        <ele>373</ele>
        <time>2015-05-25T08:23:36.000Z</time>
      </trkpt>
      <trkpt lat="47.55498" lon="6.72616">
        <ele>372</ele>
        <time>2015-05-25T08:23:37.000Z</time>
      </trkpt>
      <trkpt lat="47.55496" lon="6.72609">
        <ele>372</ele>
        <time>2015-05-25T08:23:38.000Z</time>
      </trkpt>
      <trkpt lat="47.55492" lon="6.72603">
        <ele>372</ele>
        <time>2015-05-25T08:23:39.000Z</time>
      </trkpt>
      <trkpt lat="47.55487" lon="6.72598">
        <ele>372</ele>
        <time>2015-05-25T08:23:40.000Z</time>
      </trkpt>
      <trkpt lat="47.55482" lon="6.72594">
        <ele>372</ele>
        <time>2015-05-25T08:23:41.000Z</time>
      </trkpt>
      <trkpt lat="47.55477" lon="6.7259">
        <ele>372</ele>
        <time>2015-05-25T08:23:42.000Z</time>
      </trkpt>
      <trkpt lat="47.55471" lon="6.72587">
        <ele>372</ele>
        <time>2015-05-25T08:23:43.000Z</time>
      </trkpt>
      <trkpt lat="47.55465" lon="6.72582">
        <ele>372</ele>
        <time>2015-05-25T08:23:44.000Z</time>
      </trkpt>
      <trkpt lat="47.55459" lon="6.72578">
        <ele>372</ele>
        <time>2015-05-25T08:23:45.000Z</time>
      </trkpt>
      <trkpt lat="47.55454" lon="6.72573">
        <ele>371</ele>
        <time>2015-05-25T08:23:46.000Z</time>
      </trkpt>
      <trkpt lat="47.55448" lon="6.72569">
        <ele>371</ele>
        <time>2015-05-25T08:23:47.000Z</time>
      </trkpt>
      <trkpt lat="47.55442" lon="6.72564">
        <ele>371</ele>
        <time>2015-05-25T08:23:48.000Z</time>
      </trkpt>
      <trkpt lat="47.55436" lon="6.7256">
        <ele>371</ele>
        <time>2015-05-25T08:23:49.000Z</time>
      </trkpt>
      <trkpt lat="47.55431" lon="6.72556">
        <ele>371</ele>
        <time>2015-05-25T08:23:50.000Z</time>
      </trkpt>
      <trkpt lat="47.55425" lon="6.72551">
        <ele>371</ele>
        <time>2015-05-25T08:23:51.000Z</time>
      </trkpt>
      <trkpt lat="47.55419" lon="6.72546">
        <ele>371</ele>
        <time>2015-05-25T08:23:52.000Z</time>
      </trkpt>
      <trkpt lat="47.55414" lon="6.72542">
        <ele>370</ele>
        <time>2015-05-25T08:23:53.000Z</time>
      </trkpt>
      <trkpt lat="47.55409" lon="6.72538">
        <ele>370</ele>
        <time>2015-05-25T08:23:54.000Z</time>
      </trkpt>
      <trkpt lat="47.55403" lon="6.72534">
        <ele>370</ele>
        <time>2015-05-25T08:23:55.000Z</time>
      </trkpt>
      <trkpt lat="47.55397" lon="6.7253">
        <ele>370</ele>
        <time>2015-05-25T08:23:56.000Z</time>
      </trkpt>
      <trkpt lat="47.55391" lon="6.72527">
        <ele>370</ele>
        <time>2015-05-25T08:23:57.000Z</time>
      </trkpt>
      <trkpt lat="47.55385" lon="6.72522">
        <ele>370</ele>
        <time>2015-05-25T08:23:58.000Z</time>
      </trkpt>
      <trkpt lat="47.55378" lon="6.72518">
        <ele>370</ele>
        <time>2015-05-25T08:23:59.000Z</time>
      </trkpt>
      <trkpt lat="47.55372" lon="6.72513">
        <ele>370</ele>
        <time>2015-05-25T08:24:00.000Z</time>
      </trkpt>
      <trkpt lat="47.55366" lon="6.72509">
        <ele>370</ele>
        <time>2015-05-25T08:24:01.000Z</time>
      </trkpt>
      <trkpt lat="47.5536" lon="6.72505">
        <ele>370</ele>
        <time>2015-05-25T08:24:02.000Z</time>
      </trkpt>
      <trkpt lat="47.55355" lon="6.725">
        <ele>371</ele>
        <time>2015-05-25T08:24:03.000Z</time>
      </trkpt>
      <trkpt lat="47.55349" lon="6.72495">
        <ele>371</ele>
        <time>2015-05-25T08:24:04.000Z</time>
      </trkpt>
      <trkpt lat="47.55343" lon="6.72491">
        <ele>371</ele>
        <time>2015-05-25T08:24:05.000Z</time>
      </trkpt>
      <trkpt lat="47.55338" lon="6.72486">
        <ele>371</ele>
        <time>2015-05-25T08:24:06.000Z</time>
      </trkpt>
      <trkpt lat="47.55332" lon="6.72482">
        <ele>370</ele>
        <time>2015-05-25T08:24:07.000Z</time>
      </trkpt>
      <trkpt lat="47.55327" lon="6.72476">
        <ele>370</ele>
        <time>2015-05-25T08:24:08.000Z</time>
      </trkpt>
      <trkpt lat="47.55322" lon="6.72471">
        <ele>370</ele>
        <time>2015-05-25T08:24:09.000Z</time>
      </trkpt>
      <trkpt lat="47.55315" lon="6.72466">
        <ele>370</ele>
        <time>2015-05-25T08:24:10.000Z</time>
      </trkpt>
      <trkpt lat="47.5531" lon="6.7246">
        <ele>370</ele>
        <time>2015-05-25T08:24:11.000Z</time>
      </trkpt>
      <trkpt lat="47.55306" lon="6.72454">
        <ele>370</ele>
        <time>2015-05-25T08:24:12.000Z</time>
      </trkpt>
      <trkpt lat="47.55301" lon="6.72448">
        <ele>370</ele>
        <time>2015-05-25T08:24:13.000Z</time>
      </trkpt>
      <trkpt lat="47.55295" lon="6.72442">
        <ele>370</ele>
        <time>2015-05-25T08:24:14.000Z</time>
      </trkpt>
      <trkpt lat="47.55291" lon="6.72437">
        <ele>370</ele>
        <time>2015-05-25T08:24:15.000Z</time>
      </trkpt>
      <trkpt lat="47.55285" lon="6.72431">
        <ele>370</ele>
        <time>2015-05-25T08:24:16.000Z</time>
      </trkpt>
      <trkpt lat="47.55281" lon="6.72425">
        <ele>370</ele>
        <time>2015-05-25T08:24:17.000Z</time>
      </trkpt>
      <trkpt lat="47.55275" lon="6.7242">
        <ele>370</ele>
        <time>2015-05-25T08:24:18.000Z</time>
      </trkpt>
      <trkpt lat="47.55271" lon="6.72414">
        <ele>370</ele>
        <time>2015-05-25T08:24:19.000Z</time>
      </trkpt>
      <trkpt lat="47.55266" lon="6.72409">
        <ele>370</ele>
        <time>2015-05-25T08:24:20.000Z</time>
      </trkpt>
      <trkpt lat="47.55262" lon="6.72402">
        <ele>370</ele>
        <time>2015-05-25T08:24:21.000Z</time>
      </trkpt>
      <trkpt lat="47.55257" lon="6.72397">
        <ele>370</ele>
        <time>2015-05-25T08:24:22.000Z</time>
      </trkpt>
      <trkpt lat="47.55251" lon="6.72391">
        <ele>370</ele>
        <time>2015-05-25T08:24:23.000Z</time>
      </trkpt>
      <trkpt lat="47.55247" lon="6.72386">
        <ele>369</ele>
        <time>2015-05-25T08:24:24.000Z</time>
      </trkpt>
      <trkpt lat="47.55242" lon="6.7238">
        <ele>369</ele>
        <time>2015-05-25T08:24:25.000Z</time>
      </trkpt>
      <trkpt lat="47.55237" lon="6.72373">
        <ele>369</ele>
        <time>2015-05-25T08:24:26.000Z</time>
      </trkpt>
      <trkpt lat="47.55232" lon="6.72368">
        <ele>369</ele>
        <time>2015-05-25T08:24:27.000Z</time>
      </trkpt>
      <trkpt lat="47.55228" lon="6.72361">
        <ele>369</ele>
        <time>2015-05-25T08:24:28.000Z</time>
      </trkpt>
      <trkpt lat="47.55223" lon="6.72354">
        <ele>369</ele>
        <time>2015-05-25T08:24:29.000Z</time>
      </trkpt>
      <trkpt lat="47.55218" lon="6.72347">
        <ele>368</ele>
        <time>2015-05-25T08:24:30.000Z</time>
      </trkpt>
      <trkpt lat="47.55214" lon="6.72341">
        <ele>368</ele>
        <time>2015-05-25T08:24:31.000Z</time>
      </trkpt>
      <trkpt lat="47.5521" lon="6.72334">
        <ele>368</ele>
        <time>2015-05-25T08:24:32.000Z</time>
      </trkpt>
      <trkpt lat="47.55206" lon="6.72327">
        <ele>368</ele>
        <time>2015-05-25T08:24:33.000Z</time>
      </trkpt>
      <trkpt lat="47.55201" lon="6.7232">
        <ele>368</ele>
        <time>2015-05-25T08:24:34.000Z</time>
      </trkpt>
      <trkpt lat="47.55197" lon="6.72313">
        <ele>368</ele>
        <time>2015-05-25T08:24:35.000Z</time>
      </trkpt>
      <trkpt lat="47.55193" lon="6.72305">
        <ele>368</ele>
        <time>2015-05-25T08:24:36.000Z</time>
      </trkpt>
      <trkpt lat="47.55189" lon="6.72298">
        <ele>368</ele>
        <time>2015-05-25T08:24:37.000Z</time>
      </trkpt>
      <trkpt lat="47.55185" lon="6.7229">
        <ele>367</ele>
        <time>2015-05-25T08:24:38.000Z</time>
      </trkpt>
      <trkpt lat="47.55181" lon="6.72283">
        <ele>367</ele>
        <time>2015-05-25T08:24:39.000Z</time>
      </trkpt>
      <trkpt lat="47.55178" lon="6.72275">
        <ele>367</ele>
        <time>2015-05-25T08:24:40.000Z</time>
      </trkpt>
      <trkpt lat="47.55173" lon="6.72266">
        <ele>367</ele>
        <time>2015-05-25T08:24:41.000Z</time>
      </trkpt>
      <trkpt lat="47.55169" lon="6.72259">
        <ele>367</ele>
        <time>2015-05-25T08:24:42.000Z</time>
      </trkpt>
      <trkpt lat="47.55165" lon="6.72251">
        <ele>366</ele>
        <time>2015-05-25T08:24:43.000Z</time>
      </trkpt>
      <trkpt lat="47.55161" lon="6.72244">
        <ele>366</ele>
        <time>2015-05-25T08:24:44.000Z</time>
      </trkpt>
      <trkpt lat="47.55157" lon="6.72236">
        <ele>366</ele>
        <time>2015-05-25T08:24:45.000Z</time>
      </trkpt>
      <trkpt lat="47.55154" lon="6.72228">
        <ele>366</ele>
        <time>2015-05-25T08:24:46.000Z</time>
      </trkpt>
      <trkpt lat="47.5515" lon="6.72221">
        <ele>365</ele>
        <time>2015-05-25T08:24:47.000Z</time>
      </trkpt>
      <trkpt lat="47.55146" lon="6.72212">
        <ele>365</ele>
        <time>2015-05-25T08:24:48.000Z</time>
      </trkpt>
      <trkpt lat="47.55142" lon="6.72203">
        <ele>365</ele>
        <time>2015-05-25T08:24:49.000Z</time>
      </trkpt>
      <trkpt lat="47.55137" lon="6.72194">
        <ele>365</ele>
        <time>2015-05-25T08:24:50.000Z</time>
      </trkpt>
      <trkpt lat="47.55132" lon="6.72184">
        <ele>365</ele>
        <time>2015-05-25T08:24:51.000Z</time>
      </trkpt>
      <trkpt lat="47.55128" lon="6.72174">
        <ele>365</ele>
        <time>2015-05-25T08:24:52.000Z</time>
      </trkpt>
      <trkpt lat="47.55123" lon="6.72164">
        <ele>363</ele>
        <time>2015-05-25T08:24:53.000Z</time>
      </trkpt>
      <trkpt lat="47.55119" lon="6.72153">
        <ele>363</ele>
        <time>2015-05-25T08:24:54.000Z</time>
      </trkpt>
      <trkpt lat="47.55115" lon="6.72143">
        <ele>363</ele>
        <time>2015-05-25T08:24:55.000Z</time>
      </trkpt>
      <trkpt lat="47.55111" lon="6.72132">
        <ele>363</ele>
        <time>2015-05-25T08:24:56.000Z</time>
      </trkpt>
      <trkpt lat="47.55109" lon="6.7212">
        <ele>363</ele>
        <time>2015-05-25T08:24:57.000Z</time>
      </trkpt>
      <trkpt lat="47.55107" lon="6.72108">
        <ele>364</ele>
        <time>2015-05-25T08:24:58.000Z</time>
      </trkpt>
      <trkpt lat="47.55105" lon="6.72096">
        <ele>364</ele>
        <time>2015-05-25T08:24:59.000Z</time>
      </trkpt>
      <trkpt lat="47.55103" lon="6.72086">
        <ele>364</ele>
        <time>2015-05-25T08:25:00.000Z</time>
      </trkpt>
      <trkpt lat="47.55101" lon="6.72076">
        <ele>364</ele>
        <time>2015-05-25T08:25:01.000Z</time>
      </trkpt>
      <trkpt lat="47.551" lon="6.72066">
        <ele>364</ele>
        <time>2015-05-25T08:25:02.000Z</time>
      </trkpt>
      <trkpt lat="47.55098" lon="6.72057">
        <ele>365</ele>
        <time>2015-05-25T08:25:03.000Z</time>
      </trkpt>
      <trkpt lat="47.55097" lon="6.72049">
        <ele>365</ele>
        <time>2015-05-25T08:25:04.000Z</time>
      </trkpt>
      <trkpt lat="47.55095" lon="6.72041">
        <ele>365</ele>
        <time>2015-05-25T08:25:05.000Z</time>
      </trkpt>
      <trkpt lat="47.55093" lon="6.72034">
        <ele>365</ele>
        <time>2015-05-25T08:25:06.000Z</time>
      </trkpt>
      <trkpt lat="47.55092" lon="6.72027">
        <ele>365</ele>
        <time>2015-05-25T08:25:07.000Z</time>
      </trkpt>
      <trkpt lat="47.5509" lon="6.72021">
        <ele>366</ele>
        <time>2015-05-25T08:25:08.000Z</time>
      </trkpt>
      <trkpt lat="47.5509" lon="6.72015">
        <ele>366</ele>
        <time>2015-05-25T08:25:09.000Z</time>
      </trkpt>
      <trkpt lat="47.55087" lon="6.72008">
        <ele>366</ele>
        <time>2015-05-25T08:25:10.000Z</time>
      </trkpt>
      <trkpt lat="47.55086" lon="6.72002">
        <ele>367</ele>
        <time>2015-05-25T08:25:11.000Z</time>
      </trkpt>
      <trkpt lat="47.55084" lon="6.71997">
        <ele>367</ele>
        <time>2015-05-25T08:25:12.000Z</time>
      </trkpt>
      <trkpt lat="47.55083" lon="6.71991">
        <ele>367</ele>
        <time>2015-05-25T08:25:13.000Z</time>
      </trkpt>
      <trkpt lat="47.55082" lon="6.71985">
        <ele>369</ele>
        <time>2015-05-25T08:25:14.000Z</time>
      </trkpt>
      <trkpt lat="47.5508" lon="6.7198">
        <ele>369</ele>
        <time>2015-05-25T08:25:15.000Z</time>
      </trkpt>
      <trkpt lat="47.55078" lon="6.71975">
        <ele>369</ele>
        <time>2015-05-25T08:25:16.000Z</time>
      </trkpt>
      <trkpt lat="47.55078" lon="6.71969">
        <ele>369</ele>
        <time>2015-05-25T08:25:17.000Z</time>
      </trkpt>
      <trkpt lat="47.55077" lon="6.71964">
        <ele>370</ele>
        <time>2015-05-25T08:25:18.000Z</time>
      </trkpt>
      <trkpt lat="47.55076" lon="6.71959">
        <ele>370</ele>
        <time>2015-05-25T08:25:19.000Z</time>
      </trkpt>
      <trkpt lat="47.55075" lon="6.71954">
        <ele>370</ele>
        <time>2015-05-25T08:25:20.000Z</time>
      </trkpt>
      <trkpt lat="47.55074" lon="6.71949">
        <ele>370</ele>
        <time>2015-05-25T08:25:21.000Z</time>
      </trkpt>
      <trkpt lat="47.55073" lon="6.71943">
        <ele>370</ele>
        <time>2015-05-25T08:25:22.000Z</time>
      </trkpt>
      <trkpt lat="47.55072" lon="6.71938">
        <ele>370</ele>
        <time>2015-05-25T08:25:23.000Z</time>
      </trkpt>
      <trkpt lat="47.55071" lon="6.71932">
        <ele>370</ele>
        <time>2015-05-25T08:25:24.000Z</time>
      </trkpt>
      <trkpt lat="47.5507" lon="6.71927">
        <ele>370</ele>
        <time>2015-05-25T08:25:25.000Z</time>
      </trkpt>
      <trkpt lat="47.55069" lon="6.71922">
        <ele>370</ele>
        <time>2015-05-25T08:25:26.000Z</time>
      </trkpt>
      <trkpt lat="47.55069" lon="6.71916">
        <ele>371</ele>
        <time>2015-05-25T08:25:27.000Z</time>
      </trkpt>
      <trkpt lat="47.55068" lon="6.71911">
        <ele>371</ele>
        <time>2015-05-25T08:25:28.000Z</time>
      </trkpt>
      <trkpt lat="47.55066" lon="6.71905">
        <ele>371</ele>
        <time>2015-05-25T08:25:29.000Z</time>
      </trkpt>
      <trkpt lat="47.55065" lon="6.71899">
        <ele>371</ele>
        <time>2015-05-25T08:25:30.000Z</time>
      </trkpt>
      <trkpt lat="47.55064" lon="6.71894">
        <ele>372</ele>
        <time>2015-05-25T08:25:31.000Z</time>
      </trkpt>
      <trkpt lat="47.55063" lon="6.71888">
        <ele>372</ele>
        <time>2015-05-25T08:25:32.000Z</time>
      </trkpt>
      <trkpt lat="47.55062" lon="6.71883">
        <ele>372</ele>
        <time>2015-05-25T08:25:33.000Z</time>
      </trkpt>
      <trkpt lat="47.5506" lon="6.71878">
        <ele>372</ele>
        <time>2015-05-25T08:25:34.000Z</time>
      </trkpt>
      <trkpt lat="47.55059" lon="6.71873">
        <ele>372</ele>
        <time>2015-05-25T08:25:35.000Z</time>
      </trkpt>
      <trkpt lat="47.55058" lon="6.71868">
        <ele>372</ele>
        <time>2015-05-25T08:25:36.000Z</time>
      </trkpt>
      <trkpt lat="47.55056" lon="6.71864">
        <ele>372</ele>
        <time>2015-05-25T08:25:37.000Z</time>
      </trkpt>
      <trkpt lat="47.55055" lon="6.71859">
        <ele>372</ele>
        <time>2015-05-25T08:25:38.000Z</time>
      </trkpt>
      <trkpt lat="47.55054" lon="6.71854">
        <ele>372</ele>
        <time>2015-05-25T08:25:39.000Z</time>
      </trkpt>
      <trkpt lat="47.55053" lon="6.7185">
        <ele>372</ele>
        <time>2015-05-25T08:25:40.000Z</time>
      </trkpt>
      <trkpt lat="47.55051" lon="6.71845">
        <ele>372</ele>
        <time>2015-05-25T08:25:41.000Z</time>
      </trkpt>
      <trkpt lat="47.5505" lon="6.7184">
        <ele>372</ele>
        <time>2015-05-25T08:25:42.000Z</time>
      </trkpt>
      <trkpt lat="47.55048" lon="6.71836">
        <ele>372</ele>
        <time>2015-05-25T08:25:43.000Z</time>
      </trkpt>
      <trkpt lat="47.55047" lon="6.71831">
        <ele>372</ele>
        <time>2015-05-25T08:25:44.000Z</time>
      </trkpt>
      <trkpt lat="47.55045" lon="6.71827">
        <ele>372</ele>
        <time>2015-05-25T08:25:45.000Z</time>
      </trkpt>
      <trkpt lat="47.55044" lon="6.71822">
        <ele>372</ele>
        <time>2015-05-25T08:25:46.000Z</time>
      </trkpt>
      <trkpt lat="47.55043" lon="6.71818">
        <ele>372</ele>
        <time>2015-05-25T08:25:47.000Z</time>
      </trkpt>
      <trkpt lat="47.55043" lon="6.71813">
        <ele>372</ele>
        <time>2015-05-25T08:25:48.000Z</time>
      </trkpt>
      <trkpt lat="47.55042" lon="6.71808">
        <ele>372</ele>
        <time>2015-05-25T08:25:49.000Z</time>
      </trkpt>
      <trkpt lat="47.55044" lon="6.71799">
        <ele>372</ele>
        <time>2015-05-25T08:25:50.000Z</time>
      </trkpt>
      <trkpt lat="47.55045" lon="6.71793">
        <ele>372</ele>
        <time>2015-05-25T08:25:51.001Z</time>
      </trkpt>
      <trkpt lat="47.55046" lon="6.71787">
        <ele>372</ele>
        <time>2015-05-25T08:25:52.000Z</time>
      </trkpt>
      <trkpt lat="47.55046" lon="6.71781">
        <ele>372</ele>
        <time>2015-05-25T08:25:53.000Z</time>
      </trkpt>
      <trkpt lat="47.55047" lon="6.71774">
        <ele>372</ele>
        <time>2015-05-25T08:25:54.000Z</time>
      </trkpt>
      <trkpt lat="47.55047" lon="6.71768">
        <ele>372</ele>
        <time>2015-05-25T08:25:55.000Z</time>
      </trkpt>
      <trkpt lat="47.55048" lon="6.71762">
        <ele>372</ele>
        <time>2015-05-25T08:25:56.000Z</time>
      </trkpt>
      <trkpt lat="47.55048" lon="6.71755">
        <ele>372</ele>
        <time>2015-05-25T08:25:57.000Z</time>
      </trkpt>
      <trkpt lat="47.55047" lon="6.71749">
        <ele>372</ele>
        <time>2015-05-25T08:25:58.000Z</time>
      </trkpt>
      <trkpt lat="47.55048" lon="6.71743">
        <ele>372</ele>
        <time>2015-05-25T08:25:59.000Z</time>
      </trkpt>
      <trkpt lat="47.55048" lon="6.71738">
        <ele>372</ele>
        <time>2015-05-25T08:26:00.000Z</time>
      </trkpt>
      <trkpt lat="47.55048" lon="6.71732">
        <ele>372</ele>
        <time>2015-05-25T08:26:01.000Z</time>
      </trkpt>
      <trkpt lat="47.55048" lon="6.71726">
        <ele>372</ele>
        <time>2015-05-25T08:26:01.999Z</time>
      </trkpt>
      <trkpt lat="47.55048" lon="6.71721">
        <ele>372</ele>
        <time>2015-05-25T08:26:03.000Z</time>
      </trkpt>
      <trkpt lat="47.55048" lon="6.71716">
        <ele>372</ele>
        <time>2015-05-25T08:26:04.000Z</time>
      </trkpt>
      <trkpt lat="47.55048" lon="6.7171">
        <ele>372</ele>
        <time>2015-05-25T08:26:05.000Z</time>
      </trkpt>
      <trkpt lat="47.55048" lon="6.71705">
        <ele>372</ele>
        <time>2015-05-25T08:26:06.000Z</time>
      </trkpt>
      <trkpt lat="47.55049" lon="6.71699">
        <ele>372</ele>
        <time>2015-05-25T08:26:07.000Z</time>
      </trkpt>
      <trkpt lat="47.55049" lon="6.71694">
        <ele>372</ele>
        <time>2015-05-25T08:26:08.000Z</time>
      </trkpt>
      <trkpt lat="47.55049" lon="6.71689">
        <ele>372</ele>
        <time>2015-05-25T08:26:09.000Z</time>
      </trkpt>
      <trkpt lat="47.5505" lon="6.71684">
        <ele>372</ele>
        <time>2015-05-25T08:26:10.000Z</time>
      </trkpt>
      <trkpt lat="47.5505" lon="6.71679">
        <ele>372</ele>
        <time>2015-05-25T08:26:11.000Z</time>
      </trkpt>
      <trkpt lat="47.5505" lon="6.71674">
        <ele>372</ele>
        <time>2015-05-25T08:26:12.000Z</time>
      </trkpt>
      <trkpt lat="47.5505" lon="6.7167">
        <ele>372</ele>
        <time>2015-05-25T08:26:13.000Z</time>
      </trkpt>
      <trkpt lat="47.5505" lon="6.71665">
        <ele>373</ele>
        <time>2015-05-25T08:26:14.000Z</time>
      </trkpt>
      <trkpt lat="47.5505" lon="6.7166">
        <ele>373</ele>
        <time>2015-05-25T08:26:15.000Z</time>
      </trkpt>
      <trkpt lat="47.5505" lon="6.71655">
        <ele>373</ele>
        <time>2015-05-25T08:26:16.000Z</time>
      </trkpt>
      <trkpt lat="47.5505" lon="6.7165">
        <ele>373</ele>
        <time>2015-05-25T08:26:17.000Z</time>
      </trkpt>
      <trkpt lat="47.55051" lon="6.71645">
        <ele>373</ele>
        <time>2015-05-25T08:26:18.000Z</time>
      </trkpt>
      <trkpt lat="47.55051" lon="6.7164">
        <ele>373</ele>
        <time>2015-05-25T08:26:19.000Z</time>
      </trkpt>
      <trkpt lat="47.55051" lon="6.71635">
        <ele>373</ele>
        <time>2015-05-25T08:26:20.000Z</time>
      </trkpt>
      <trkpt lat="47.55051" lon="6.71631">
        <ele>373</ele>
        <time>2015-05-25T08:26:21.000Z</time>
      </trkpt>
      <trkpt lat="47.55052" lon="6.71626">
        <ele>373</ele>
        <time>2015-05-25T08:26:22.000Z</time>
      </trkpt>
      <trkpt lat="47.55052" lon="6.71622">
        <ele>373</ele>
        <time>2015-05-25T08:26:23.000Z</time>
      </trkpt>
      <trkpt lat="47.55053" lon="6.71617">
        <ele>373</ele>
        <time>2015-05-25T08:26:24.000Z</time>
      </trkpt>
      <trkpt lat="47.55053" lon="6.71613">
        <ele>373</ele>
        <time>2015-05-25T08:26:25.000Z</time>
      </trkpt>
      <trkpt lat="47.55054" lon="6.71608">
        <ele>373</ele>
        <time>2015-05-25T08:26:26.000Z</time>
      </trkpt>
      <trkpt lat="47.55054" lon="6.71604">
        <ele>374</ele>
        <time>2015-05-25T08:26:27.000Z</time>
      </trkpt>
      <trkpt lat="47.55054" lon="6.71599">
        <ele>374</ele>
        <time>2015-05-25T08:26:28.000Z</time>
      </trkpt>
      <trkpt lat="47.55054" lon="6.71595">
        <ele>374</ele>
        <time>2015-05-25T08:26:29.000Z</time>
      </trkpt>
      <trkpt lat="47.55054" lon="6.7159">
        <ele>374</ele>
        <time>2015-05-25T08:26:30.000Z</time>
      </trkpt>
      <trkpt lat="47.55055" lon="6.71586">
        <ele>374</ele>
        <time>2015-05-25T08:26:31.000Z</time>
      </trkpt>
      <trkpt lat="47.55055" lon="6.71581">
        <ele>376</ele>
        <time>2015-05-25T08:26:32.000Z</time>
      </trkpt>
      <trkpt lat="47.55055" lon="6.71577">
        <ele>376</ele>
        <time>2015-05-25T08:26:33.000Z</time>
      </trkpt>
      <trkpt lat="47.55055" lon="6.71573">
        <ele>376</ele>
        <time>2015-05-25T08:26:34.000Z</time>
      </trkpt>
      <trkpt lat="47.55056" lon="6.71568">
        <ele>376</ele>
        <time>2015-05-25T08:26:35.000Z</time>
      </trkpt>
      <trkpt lat="47.55056" lon="6.71564">
        <ele>376</ele>
        <time>2015-05-25T08:26:36.000Z</time>
      </trkpt>
      <trkpt lat="47.55056" lon="6.71559">
        <ele>376</ele>
        <time>2015-05-25T08:26:37.000Z</time>
      </trkpt>
      <trkpt lat="47.55057" lon="6.71555">
        <ele>376</ele>
        <time>2015-05-25T08:26:38.000Z</time>
      </trkpt>
      <trkpt lat="47.55057" lon="6.71551">
        <ele>377</ele>
        <time>2015-05-25T08:26:39.000Z</time>
      </trkpt>
      <trkpt lat="47.55058" lon="6.71547">
        <ele>377</ele>
        <time>2015-05-25T08:26:40.000Z</time>
      </trkpt>
      <trkpt lat="47.55058" lon="6.71543">
        <ele>377</ele>
        <time>2015-05-25T08:26:41.000Z</time>
      </trkpt>
      <trkpt lat="47.55058" lon="6.7154">
        <ele>377</ele>
        <time>2015-05-25T08:26:42.000Z</time>
      </trkpt>
      <trkpt lat="47.55059" lon="6.71536">
        <ele>377</ele>
        <time>2015-05-25T08:26:43.000Z</time>
      </trkpt>
      <trkpt lat="47.55059" lon="6.71532">
        <ele>377</ele>
        <time>2015-05-25T08:26:44.000Z</time>
      </trkpt>
      <trkpt lat="47.5506" lon="6.71529">
        <ele>377</ele>
        <time>2015-05-25T08:26:45.000Z</time>
      </trkpt>
      <trkpt lat="47.5506" lon="6.71525">
        <ele>378</ele>
        <time>2015-05-25T08:26:46.000Z</time>
      </trkpt>
      <trkpt lat="47.55061" lon="6.71521">
        <ele>378</ele>
        <time>2015-05-25T08:26:47.000Z</time>
      </trkpt>
      <trkpt lat="47.55062" lon="6.71517">
        <ele>378</ele>
        <time>2015-05-25T08:26:48.000Z</time>
      </trkpt>
      <trkpt lat="47.55062" lon="6.71514">
        <ele>378</ele>
        <time>2015-05-25T08:26:49.000Z</time>
      </trkpt>
      <trkpt lat="47.55063" lon="6.7151">
        <ele>378</ele>
        <time>2015-05-25T08:26:50.000Z</time>
      </trkpt>
      <trkpt lat="47.55064" lon="6.71506">
        <ele>379</ele>
        <time>2015-05-25T08:26:51.000Z</time>
      </trkpt>
      <trkpt lat="47.55064" lon="6.71502">
        <ele>379</ele>
        <time>2015-05-25T08:26:52.000Z</time>
      </trkpt>
      <trkpt lat="47.55065" lon="6.71498">
        <ele>381</ele>
        <time>2015-05-25T08:26:53.000Z</time>
      </trkpt>
      <trkpt lat="47.55066" lon="6.71494">
        <ele>381</ele>
        <time>2015-05-25T08:26:54.000Z</time>
      </trkpt>
      <trkpt lat="47.55068" lon="6.71489">
        <ele>381</ele>
        <time>2015-05-25T08:26:55.000Z</time>
      </trkpt>
      <trkpt lat="47.55069" lon="6.71485">
        <ele>381</ele>
        <time>2015-05-25T08:26:56.000Z</time>
      </trkpt>
      <trkpt lat="47.5507" lon="6.71481">
        <ele>381</ele>
        <time>2015-05-25T08:26:57.000Z</time>
      </trkpt>
      <trkpt lat="47.55071" lon="6.71477">
        <ele>381</ele>
        <time>2015-05-25T08:26:58.000Z</time>
      </trkpt>
      <trkpt lat="47.55072" lon="6.71474">
        <ele>381</ele>
        <time>2015-05-25T08:26:59.000Z</time>
      </trkpt>
      <trkpt lat="47.55073" lon="6.71472">
        <ele>381</ele>
        <time>2015-05-25T08:27:00.000Z</time>
      </trkpt>
      <trkpt lat="47.55074" lon="6.71469">
        <ele>381</ele>
        <time>2015-05-25T08:27:01.000Z</time>
      </trkpt>
      <trkpt lat="47.55076" lon="6.71466">
        <ele>381</ele>
        <time>2015-05-25T08:27:02.000Z</time>
      </trkpt>
      <trkpt lat="47.55077" lon="6.71462">
        <ele>381</ele>
        <time>2015-05-25T08:27:03.000Z</time>
      </trkpt>
      <trkpt lat="47.55078" lon="6.71459">
        <ele>381</ele>
        <time>2015-05-25T08:27:04.000Z</time>
      </trkpt>
      <trkpt lat="47.55079" lon="6.71455">
        <ele>381</ele>
        <time>2015-05-25T08:27:05.000Z</time>
      </trkpt>
      <trkpt lat="47.5508" lon="6.71451">
        <ele>381</ele>
        <time>2015-05-25T08:27:06.000Z</time>
      </trkpt>
      <trkpt lat="47.55081" lon="6.71448">
        <ele>382</ele>
        <time>2015-05-25T08:27:07.000Z</time>
      </trkpt>
      <trkpt lat="47.55081" lon="6.71445">
        <ele>382</ele>
        <time>2015-05-25T08:27:08.000Z</time>
      </trkpt>
      <trkpt lat="47.55083" lon="6.71442">
        <ele>382</ele>
        <time>2015-05-25T08:27:09.000Z</time>
      </trkpt>
      <trkpt lat="47.55083" lon="6.71438">
        <ele>384</ele>
        <time>2015-05-25T08:27:10.000Z</time>
      </trkpt>
      <trkpt lat="47.55085" lon="6.71435">
        <ele>384</ele>
        <time>2015-05-25T08:27:11.000Z</time>
      </trkpt>
      <trkpt lat="47.55086" lon="6.71432">
        <ele>384</ele>
        <time>2015-05-25T08:27:12.000Z</time>
      </trkpt>
      <trkpt lat="47.55087" lon="6.71429">
        <ele>384</ele>
        <time>2015-05-25T08:27:13.000Z</time>
      </trkpt>
      <trkpt lat="47.55088" lon="6.71426">
        <ele>384</ele>
        <time>2015-05-25T08:27:14.000Z</time>
      </trkpt>
      <trkpt lat="47.55089" lon="6.71423">
        <ele>384</ele>
        <time>2015-05-25T08:27:15.000Z</time>
      </trkpt>
      <trkpt lat="47.55092" lon="6.71417">
        <ele>384</ele>
        <time>2015-05-25T08:27:17.000Z</time>
      </trkpt>
      <trkpt lat="47.55093" lon="6.71415">
        <ele>386</ele>
        <time>2015-05-25T08:27:18.000Z</time>
      </trkpt>
      <trkpt lat="47.55096" lon="6.71409">
        <ele>386</ele>
        <time>2015-05-25T08:27:20.000Z</time>
      </trkpt>
      <trkpt lat="47.55097" lon="6.71407">
        <ele>387</ele>
        <time>2015-05-25T08:27:21.000Z</time>
      </trkpt>
      <trkpt lat="47.55099" lon="6.71404">
        <ele>387</ele>
        <time>2015-05-25T08:27:22.000Z</time>
      </trkpt>
      <trkpt lat="47.551" lon="6.71401">
        <ele>387</ele>
        <time>2015-05-25T08:27:23.000Z</time>
      </trkpt>
      <trkpt lat="47.55102" lon="6.71398">
        <ele>388</ele>
        <time>2015-05-25T08:27:24.000Z</time>
      </trkpt>
      <trkpt lat="47.55103" lon="6.71396">
        <ele>388</ele>
        <time>2015-05-25T08:27:25.000Z</time>
      </trkpt>
      <trkpt lat="47.55105" lon="6.71393">
        <ele>388</ele>
        <time>2015-05-25T08:27:26.000Z</time>
      </trkpt>
      <trkpt lat="47.55106" lon="6.7139">
        <ele>388</ele>
        <time>2015-05-25T08:27:27.000Z</time>
      </trkpt>
      <trkpt lat="47.55107" lon="6.71387">
        <ele>388</ele>
        <time>2015-05-25T08:27:28.000Z</time>
      </trkpt>
      <trkpt lat="47.55109" lon="6.71383">
        <ele>389</ele>
        <time>2015-05-25T08:27:29.000Z</time>
      </trkpt>
      <trkpt lat="47.5511" lon="6.7138">
        <ele>389</ele>
        <time>2015-05-25T08:27:30.000Z</time>
      </trkpt>
      <trkpt lat="47.55111" lon="6.71377">
        <ele>389</ele>
        <time>2015-05-25T08:27:31.000Z</time>
      </trkpt>
      <trkpt lat="47.55112" lon="6.71374">
        <ele>389</ele>
        <time>2015-05-25T08:27:32.000Z</time>
      </trkpt>
      <trkpt lat="47.55114" lon="6.71371">
        <ele>389</ele>
        <time>2015-05-25T08:27:33.000Z</time>
      </trkpt>
      <trkpt lat="47.55115" lon="6.71368">
        <ele>389</ele>
        <time>2015-05-25T08:27:34.000Z</time>
      </trkpt>
      <trkpt lat="47.55117" lon="6.71365">
        <ele>390</ele>
        <time>2015-05-25T08:27:35.000Z</time>
      </trkpt>
      <trkpt lat="47.55118" lon="6.71362">
        <ele>390</ele>
        <time>2015-05-25T08:27:36.000Z</time>
      </trkpt>
      <trkpt lat="47.5512" lon="6.71359">
        <ele>390</ele>
        <time>2015-05-25T08:27:37.000Z</time>
      </trkpt>
      <trkpt lat="47.55121" lon="6.71356">
        <ele>390</ele>
        <time>2015-05-25T08:27:38.000Z</time>
      </trkpt>
      <trkpt lat="47.55122" lon="6.71353">
        <ele>390</ele>
        <time>2015-05-25T08:27:39.000Z</time>
      </trkpt>
      <trkpt lat="47.55124" lon="6.7135">
        <ele>390</ele>
        <time>2015-05-25T08:27:40.000Z</time>
      </trkpt>
      <trkpt lat="47.55125" lon="6.71347">
        <ele>390</ele>
        <time>2015-05-25T08:27:41.000Z</time>
      </trkpt>
      <trkpt lat="47.55126" lon="6.71344">
        <ele>391</ele>
        <time>2015-05-25T08:27:42.000Z</time>
      </trkpt>
      <trkpt lat="47.55127" lon="6.7134">
        <ele>391</ele>
        <time>2015-05-25T08:27:43.000Z</time>
      </trkpt>
      <trkpt lat="47.55128" lon="6.71337">
        <ele>391</ele>
        <time>2015-05-25T08:27:44.000Z</time>
      </trkpt>
      <trkpt lat="47.55129" lon="6.71333">
        <ele>393</ele>
        <time>2015-05-25T08:27:45.000Z</time>
      </trkpt>
      <trkpt lat="47.55129" lon="6.7133">
        <ele>393</ele>
        <time>2015-05-25T08:27:46.000Z</time>
      </trkpt>
      <trkpt lat="47.5513" lon="6.71326">
        <ele>393</ele>
        <time>2015-05-25T08:27:47.000Z</time>
      </trkpt>
      <trkpt lat="47.5513" lon="6.71322">
        <ele>393</ele>
        <time>2015-05-25T08:27:48.000Z</time>
      </trkpt>
      <trkpt lat="47.5513" lon="6.71318">
        <ele>393</ele>
        <time>2015-05-25T08:27:49.000Z</time>
      </trkpt>
      <trkpt lat="47.5513" lon="6.71314">
        <ele>393</ele>
        <time>2015-05-25T08:27:50.000Z</time>
      </trkpt>
      <trkpt lat="47.5513" lon="6.7131">
        <ele>393</ele>
        <time>2015-05-25T08:27:51.000Z</time>
      </trkpt>
      <trkpt lat="47.5513" lon="6.71306">
        <ele>393</ele>
        <time>2015-05-25T08:27:52.000Z</time>
      </trkpt>
      <trkpt lat="47.55129" lon="6.71302">
        <ele>393</ele>
        <time>2015-05-25T08:27:53.000Z</time>
      </trkpt>
      <trkpt lat="47.55129" lon="6.71298">
        <ele>393</ele>
        <time>2015-05-25T08:27:54.000Z</time>
      </trkpt>
      <trkpt lat="47.55129" lon="6.71294">
        <ele>393</ele>
        <time>2015-05-25T08:27:55.000Z</time>
      </trkpt>
      <trkpt lat="47.55129" lon="6.71291">
        <ele>393</ele>
        <time>2015-05-25T08:27:56.000Z</time>
      </trkpt>
      <trkpt lat="47.55128" lon="6.71287">
        <ele>393</ele>
        <time>2015-05-25T08:27:57.000Z</time>
      </trkpt>
      <trkpt lat="47.55127" lon="6.71284">
        <ele>393</ele>
        <time>2015-05-25T08:27:58.000Z</time>
      </trkpt>
      <trkpt lat="47.55125" lon="6.71281">
        <ele>393</ele>
        <time>2015-05-25T08:27:59.000Z</time>
      </trkpt>
      <trkpt lat="47.55123" lon="6.71278">
        <ele>393</ele>
        <time>2015-05-25T08:28:00.000Z</time>
      </trkpt>
      <trkpt lat="47.55121" lon="6.71276">
        <ele>393</ele>
        <time>2015-05-25T08:28:01.000Z</time>
      </trkpt>
      <trkpt lat="47.55118" lon="6.71273">
        <ele>393</ele>
        <time>2015-05-25T08:28:02.000Z</time>
      </trkpt>
      <trkpt lat="47.55116" lon="6.71271">
        <ele>393</ele>
        <time>2015-05-25T08:28:03.000Z</time>
      </trkpt>
      <trkpt lat="47.55113" lon="6.71269">
        <ele>393</ele>
        <time>2015-05-25T08:28:04.000Z</time>
      </trkpt>
      <trkpt lat="47.55111" lon="6.71268">
        <ele>393</ele>
        <time>2015-05-25T08:28:05.000Z</time>
      </trkpt>
      <trkpt lat="47.55108" lon="6.71266">
        <ele>393</ele>
        <time>2015-05-25T08:28:07.000Z</time>
      </trkpt>
      <trkpt lat="47.55107" lon="6.71265">
        <ele>393</ele>
        <time>2015-05-25T08:28:08.000Z</time>
      </trkpt>
      <trkpt lat="47.55103" lon="6.71262">
        <ele>393</ele>
        <time>2015-05-25T08:28:11.000Z</time>
      </trkpt>
      <trkpt lat="47.55102" lon="6.71261">
        <ele>393</ele>
        <time>2015-05-25T08:28:12.000Z</time>
      </trkpt>
      <trkpt lat="47.55098" lon="6.71259">
        <ele>392</ele>
        <time>2015-05-25T08:28:14.000Z</time>
      </trkpt>
      <trkpt lat="47.55097" lon="6.71257">
        <ele>392</ele>
        <time>2015-05-25T08:28:15.000Z</time>
      </trkpt>
      <trkpt lat="47.55094" lon="6.71255">
        <ele>392</ele>
        <time>2015-05-25T08:28:16.000Z</time>
      </trkpt>
      <trkpt lat="47.55092" lon="6.71252">
        <ele>392</ele>
        <time>2015-05-25T08:28:17.000Z</time>
      </trkpt>
      <trkpt lat="47.55089" lon="6.7125">
        <ele>392</ele>
        <time>2015-05-25T08:28:18.000Z</time>
      </trkpt>
      <trkpt lat="47.55086" lon="6.71247">
        <ele>392</ele>
        <time>2015-05-25T08:28:19.000Z</time>
      </trkpt>
      <trkpt lat="47.55083" lon="6.71244">
        <ele>392</ele>
        <time>2015-05-25T08:28:20.000Z</time>
      </trkpt>
      <trkpt lat="47.5508" lon="6.71241">
        <ele>392</ele>
        <time>2015-05-25T08:28:21.000Z</time>
      </trkpt>
      <trkpt lat="47.55077" lon="6.71238">
        <ele>391</ele>
        <time>2015-05-25T08:28:22.000Z</time>
      </trkpt>
      <trkpt lat="47.55073" lon="6.71234">
        <ele>391</ele>
        <time>2015-05-25T08:28:23.000Z</time>
      </trkpt>
      <trkpt lat="47.5507" lon="6.71231">
        <ele>391</ele>
        <time>2015-05-25T08:28:24.000Z</time>
      </trkpt>
      <trkpt lat="47.55066" lon="6.71227">
        <ele>391</ele>
        <time>2015-05-25T08:28:25.000Z</time>
      </trkpt>
      <trkpt lat="47.55062" lon="6.71224">
        <ele>391</ele>
        <time>2015-05-25T08:28:26.000Z</time>
      </trkpt>
      <trkpt lat="47.55058" lon="6.7122">
        <ele>391</ele>
        <time>2015-05-25T08:28:27.000Z</time>
      </trkpt>
      <trkpt lat="47.55054" lon="6.71216">
        <ele>391</ele>
        <time>2015-05-25T08:28:28.000Z</time>
      </trkpt>
      <trkpt lat="47.5505" lon="6.71211">
        <ele>391</ele>
        <time>2015-05-25T08:28:29.000Z</time>
      </trkpt>
      <trkpt lat="47.55046" lon="6.71207">
        <ele>391</ele>
        <time>2015-05-25T08:28:30.000Z</time>
      </trkpt>
      <trkpt lat="47.55043" lon="6.71203">
        <ele>391</ele>
        <time>2015-05-25T08:28:31.000Z</time>
      </trkpt>
      <trkpt lat="47.55039" lon="6.71199">
        <ele>391</ele>
        <time>2015-05-25T08:28:32.000Z</time>
      </trkpt>
      <trkpt lat="47.55035" lon="6.71195">
        <ele>391</ele>
        <time>2015-05-25T08:28:33.000Z</time>
      </trkpt>
      <trkpt lat="47.55032" lon="6.71191">
        <ele>391</ele>
        <time>2015-05-25T08:28:34.000Z</time>
      </trkpt>
      <trkpt lat="47.55029" lon="6.71186">
        <ele>391</ele>
        <time>2015-05-25T08:28:35.000Z</time>
      </trkpt>
      <trkpt lat="47.55025" lon="6.71182">
        <ele>391</ele>
        <time>2015-05-25T08:28:36.000Z</time>
      </trkpt>
      <trkpt lat="47.55021" lon="6.71177">
        <ele>391</ele>
        <time>2015-05-25T08:28:37.000Z</time>
      </trkpt>
      <trkpt lat="47.55017" lon="6.71173">
        <ele>390</ele>
        <time>2015-05-25T08:28:38.000Z</time>
      </trkpt>
      <trkpt lat="47.55014" lon="6.71168">
        <ele>390</ele>
        <time>2015-05-25T08:28:39.000Z</time>
      </trkpt>
      <trkpt lat="47.5501" lon="6.71164">
        <ele>390</ele>
        <time>2015-05-25T08:28:40.000Z</time>
      </trkpt>
      <trkpt lat="47.55005" lon="6.71158">
        <ele>390</ele>
        <time>2015-05-25T08:28:41.000Z</time>
      </trkpt>
      <trkpt lat="47.55002" lon="6.71153">
        <ele>391</ele>
        <time>2015-05-25T08:28:42.000Z</time>
      </trkpt>
      <trkpt lat="47.54998" lon="6.71147">
        <ele>391</ele>
        <time>2015-05-25T08:28:43.000Z</time>
      </trkpt>
      <trkpt lat="47.54995" lon="6.71141">
        <ele>391</ele>
        <time>2015-05-25T08:28:44.000Z</time>
      </trkpt>
      <trkpt lat="47.54991" lon="6.71136">
        <ele>392</ele>
        <time>2015-05-25T08:28:45.000Z</time>
      </trkpt>
      <trkpt lat="47.54988" lon="6.71132">
        <ele>392</ele>
        <time>2015-05-25T08:28:46.000Z</time>
      </trkpt>
      <trkpt lat="47.54984" lon="6.71127">
        <ele>392</ele>
        <time>2015-05-25T08:28:47.000Z</time>
      </trkpt>
      <trkpt lat="47.54981" lon="6.71121">
        <ele>392</ele>
        <time>2015-05-25T08:28:48.000Z</time>
      </trkpt>
      <trkpt lat="47.54977" lon="6.71116">
        <ele>392</ele>
        <time>2015-05-25T08:28:49.000Z</time>
      </trkpt>
      <trkpt lat="47.54973" lon="6.71111">
        <ele>392</ele>
        <time>2015-05-25T08:28:50.000Z</time>
      </trkpt>
      <trkpt lat="47.5497" lon="6.71107">
        <ele>392</ele>
        <time>2015-05-25T08:28:51.000Z</time>
      </trkpt>
      <trkpt lat="47.54966" lon="6.71102">
        <ele>392</ele>
        <time>2015-05-25T08:28:52.000Z</time>
      </trkpt>
      <trkpt lat="47.54963" lon="6.71096">
        <ele>392</ele>
        <time>2015-05-25T08:28:53.000Z</time>
      </trkpt>
      <trkpt lat="47.54959" lon="6.71091">
        <ele>393</ele>
        <time>2015-05-25T08:28:54.000Z</time>
      </trkpt>
      <trkpt lat="47.54955" lon="6.71085">
        <ele>393</ele>
        <time>2015-05-25T08:28:55.000Z</time>
      </trkpt>
      <trkpt lat="47.54952" lon="6.71079">
        <ele>393</ele>
        <time>2015-05-25T08:28:56.000Z</time>
      </trkpt>
      <trkpt lat="47.54948" lon="6.71074">
        <ele>393</ele>
        <time>2015-05-25T08:28:57.000Z</time>
      </trkpt>
      <trkpt lat="47.54944" lon="6.71068">
        <ele>393</ele>
        <time>2015-05-25T08:28:58.000Z</time>
      </trkpt>
      <trkpt lat="47.54939" lon="6.71062">
        <ele>393</ele>
        <time>2015-05-25T08:28:59.000Z</time>
      </trkpt>
      <trkpt lat="47.54936" lon="6.71057">
        <ele>393</ele>
        <time>2015-05-25T08:29:00.000Z</time>
      </trkpt>
      <trkpt lat="47.54932" lon="6.71051">
        <ele>393</ele>
        <time>2015-05-25T08:29:01.000Z</time>
      </trkpt>
      <trkpt lat="47.54929" lon="6.71046">
        <ele>393</ele>
        <time>2015-05-25T08:29:02.000Z</time>
      </trkpt>
      <trkpt lat="47.54926" lon="6.71041">
        <ele>393</ele>
        <time>2015-05-25T08:29:03.000Z</time>
      </trkpt>
      <trkpt lat="47.54923" lon="6.71035">
        <ele>393</ele>
        <time>2015-05-25T08:29:04.000Z</time>
      </trkpt>
      <trkpt lat="47.54922" lon="6.71027">
        <ele>393</ele>
        <time>2015-05-25T08:29:05.000Z</time>
      </trkpt>
      <trkpt lat="47.5492" lon="6.71019">
        <ele>394</ele>
        <time>2015-05-25T08:29:06.000Z</time>
      </trkpt>
      <trkpt lat="47.54921" lon="6.71009">
        <ele>394</ele>
        <time>2015-05-25T08:29:07.000Z</time>
      </trkpt>
      <trkpt lat="47.54922" lon="6.71002">
        <ele>394</ele>
        <time>2015-05-25T08:29:08.000Z</time>
      </trkpt>
      <trkpt lat="47.54925" lon="6.70995">
        <ele>394</ele>
        <time>2015-05-25T08:29:09.000Z</time>
      </trkpt>
      <trkpt lat="47.54927" lon="6.70986">
        <ele>393</ele>
        <time>2015-05-25T08:29:10.000Z</time>
      </trkpt>
      <trkpt lat="47.54928" lon="6.70976">
        <ele>392</ele>
        <time>2015-05-25T08:29:11.000Z</time>
      </trkpt>
      <trkpt lat="47.54929" lon="6.70966">
        <ele>392</ele>
        <time>2015-05-25T08:29:12.000Z</time>
      </trkpt>
      <trkpt lat="47.54926" lon="6.70957">
        <ele>392</ele>
        <time>2015-05-25T08:29:13.000Z</time>
      </trkpt>
      <trkpt lat="47.54919" lon="6.70949">
        <ele>392</ele>
        <time>2015-05-25T08:29:14.000Z</time>
      </trkpt>
      <trkpt lat="47.54911" lon="6.70941">
        <ele>393</ele>
        <time>2015-05-25T08:29:15.000Z</time>
      </trkpt>
      <trkpt lat="47.54906" lon="6.70932">
        <ele>393</ele>
        <time>2015-05-25T08:29:16.000Z</time>
      </trkpt>
      <trkpt lat="47.54902" lon="6.70922">
        <ele>392</ele>
        <time>2015-05-25T08:29:17.000Z</time>
      </trkpt>
      <trkpt lat="47.54898" lon="6.70911">
        <ele>392</ele>
        <time>2015-05-25T08:29:18.000Z</time>
      </trkpt>
      <trkpt lat="47.54891" lon="6.70903">
        <ele>392</ele>
        <time>2015-05-25T08:29:19.000Z</time>
      </trkpt>
      <trkpt lat="47.54887" lon="6.70894">
        <ele>392</ele>
        <time>2015-05-25T08:29:20.000Z</time>
      </trkpt>
      <trkpt lat="47.54882" lon="6.70884">
        <ele>393</ele>
        <time>2015-05-25T08:29:21.000Z</time>
      </trkpt>
      <trkpt lat="47.54876" lon="6.70875">
        <ele>393</ele>
        <time>2015-05-25T08:29:22.000Z</time>
      </trkpt>
      <trkpt lat="47.54869" lon="6.70865">
        <ele>393</ele>
        <time>2015-05-25T08:29:23.000Z</time>
      </trkpt>
      <trkpt lat="47.54864" lon="6.70855">
        <ele>393</ele>
        <time>2015-05-25T08:29:24.000Z</time>
      </trkpt>
      <trkpt lat="47.54858" lon="6.70848">
        <ele>393</ele>
        <time>2015-05-25T08:29:25.000Z</time>
      </trkpt>
      <trkpt lat="47.54851" lon="6.70847">
        <ele>393</ele>
        <time>2015-05-25T08:29:26.000Z</time>
      </trkpt>
      <trkpt lat="47.54844" lon="6.70847">
        <ele>393</ele>
        <time>2015-05-25T08:29:27.000Z</time>
      </trkpt>
      <trkpt lat="47.54838" lon="6.70844">
        <ele>393</ele>
        <time>2015-05-25T08:29:28.000Z</time>
      </trkpt>
      <trkpt lat="47.54832" lon="6.70843">
        <ele>393</ele>
        <time>2015-05-25T08:29:29.000Z</time>
      </trkpt>
      <trkpt lat="47.54826" lon="6.7084">
        <ele>393</ele>
        <time>2015-05-25T08:29:30.000Z</time>
      </trkpt>
      <trkpt lat="47.54819" lon="6.70837">
        <ele>393</ele>
        <time>2015-05-25T08:29:31.000Z</time>
      </trkpt>
      <trkpt lat="47.54813" lon="6.70837">
        <ele>393</ele>
        <time>2015-05-25T08:29:32.000Z</time>
      </trkpt>
      <trkpt lat="47.54808" lon="6.70833">
        <ele>395</ele>
        <time>2015-05-25T08:29:33.000Z</time>
      </trkpt>
      <trkpt lat="47.54803" lon="6.70828">
        <ele>396</ele>
        <time>2015-05-25T08:29:34.000Z</time>
      </trkpt>
      <trkpt lat="47.54797" lon="6.70824">
        <ele>396</ele>
        <time>2015-05-25T08:29:35.000Z</time>
      </trkpt>
      <trkpt lat="47.54793" lon="6.7082">
        <ele>396</ele>
        <time>2015-05-25T08:29:36.000Z</time>
      </trkpt>
      <trkpt lat="47.54788" lon="6.70817">
        <ele>396</ele>
        <time>2015-05-25T08:29:37.000Z</time>
      </trkpt>
      <trkpt lat="47.54782" lon="6.70813">
        <ele>396</ele>
        <time>2015-05-25T08:29:38.000Z</time>
      </trkpt>
      <trkpt lat="47.54776" lon="6.7081">
        <ele>396</ele>
        <time>2015-05-25T08:29:39.000Z</time>
      </trkpt>
      <trkpt lat="47.54769" lon="6.70805">
        <ele>396</ele>
        <time>2015-05-25T08:29:40.000Z</time>
      </trkpt>
      <trkpt lat="47.54763" lon="6.70799">
        <ele>396</ele>
        <time>2015-05-25T08:29:41.000Z</time>
      </trkpt>
      <trkpt lat="47.54757" lon="6.70796">
        <ele>396</ele>
        <time>2015-05-25T08:29:42.000Z</time>
      </trkpt>
      <trkpt lat="47.5475" lon="6.7079">
        <ele>396</ele>
        <time>2015-05-25T08:29:43.000Z</time>
      </trkpt>
      <trkpt lat="47.54743" lon="6.70785">
        <ele>394</ele>
        <time>2015-05-25T08:29:44.000Z</time>
      </trkpt>
      <trkpt lat="47.54737" lon="6.70781">
        <ele>394</ele>
        <time>2015-05-25T08:29:45.000Z</time>
      </trkpt>
      <trkpt lat="47.5473" lon="6.70777">
        <ele>394</ele>
        <time>2015-05-25T08:29:46.000Z</time>
      </trkpt>
      <trkpt lat="47.54724" lon="6.70772">
        <ele>394</ele>
        <time>2015-05-25T08:29:47.000Z</time>
      </trkpt>
      <trkpt lat="47.54718" lon="6.70766">
        <ele>394</ele>
        <time>2015-05-25T08:29:48.000Z</time>
      </trkpt>
      <trkpt lat="47.54714" lon="6.70757">
        <ele>394</ele>
        <time>2015-05-25T08:29:49.000Z</time>
      </trkpt>
      <trkpt lat="47.54711" lon="6.70746">
        <ele>392</ele>
        <time>2015-05-25T08:29:50.000Z</time>
      </trkpt>
      <trkpt lat="47.54707" lon="6.70738">
        <ele>392</ele>
        <time>2015-05-25T08:29:51.000Z</time>
      </trkpt>
      <trkpt lat="47.54704" lon="6.70729">
        <ele>391</ele>
        <time>2015-05-25T08:29:52.000Z</time>
      </trkpt>
      <trkpt lat="47.54704" lon="6.70717">
        <ele>391</ele>
        <time>2015-05-25T08:29:53.000Z</time>
      </trkpt>
      <trkpt lat="47.54704" lon="6.70707">
        <ele>391</ele>
        <time>2015-05-25T08:29:54.000Z</time>
      </trkpt>
      <trkpt lat="47.54706" lon="6.70698">
        <ele>391</ele>
        <time>2015-05-25T08:29:55.000Z</time>
      </trkpt>
      <trkpt lat="47.54708" lon="6.70687">
        <ele>390</ele>
        <time>2015-05-25T08:29:56.000Z</time>
      </trkpt>
      <trkpt lat="47.5471" lon="6.70677">
        <ele>390</ele>
        <time>2015-05-25T08:29:57.000Z</time>
      </trkpt>
      <trkpt lat="47.54713" lon="6.70667">
        <ele>390</ele>
        <time>2015-05-25T08:29:58.000Z</time>
      </trkpt>
      <trkpt lat="47.54717" lon="6.70657">
        <ele>387</ele>
        <time>2015-05-25T08:29:59.000Z</time>
      </trkpt>
      <trkpt lat="47.5472" lon="6.70648">
        <ele>386</ele>
        <time>2015-05-25T08:30:00.000Z</time>
      </trkpt>
      <trkpt lat="47.54723" lon="6.70641">
        <ele>386</ele>
        <time>2015-05-25T08:30:01.000Z</time>
      </trkpt>
      <trkpt lat="47.54727" lon="6.70632">
        <ele>386</ele>
        <time>2015-05-25T08:30:02.000Z</time>
      </trkpt>
      <trkpt lat="47.5473" lon="6.70622">
        <ele>385</ele>
        <time>2015-05-25T08:30:03.000Z</time>
      </trkpt>
      <trkpt lat="47.54734" lon="6.70614">
        <ele>385</ele>
        <time>2015-05-25T08:30:04.000Z</time>
      </trkpt>
      <trkpt lat="47.54738" lon="6.70606">
        <ele>385</ele>
        <time>2015-05-25T08:30:05.000Z</time>
      </trkpt>
      <trkpt lat="47.5474" lon="6.70599">
        <ele>385</ele>
        <time>2015-05-25T08:30:06.000Z</time>
      </trkpt>
      <trkpt lat="47.54742" lon="6.7059">
        <ele>385</ele>
        <time>2015-05-25T08:30:07.000Z</time>
      </trkpt>
      <trkpt lat="47.54745" lon="6.70581">
        <ele>383</ele>
        <time>2015-05-25T08:30:08.000Z</time>
      </trkpt>
      <trkpt lat="47.54746" lon="6.70572">
        <ele>382</ele>
        <time>2015-05-25T08:30:09.000Z</time>
      </trkpt>
      <trkpt lat="47.54748" lon="6.70564">
        <ele>380</ele>
        <time>2015-05-25T08:30:10.000Z</time>
      </trkpt>
      <trkpt lat="47.54751" lon="6.70558">
        <ele>383</ele>
        <time>2015-05-25T08:30:11.000Z</time>
      </trkpt>
      <trkpt lat="47.54752" lon="6.7055">
        <ele>382</ele>
        <time>2015-05-25T08:30:12.000Z</time>
      </trkpt>
      <trkpt lat="47.54751" lon="6.70544">
        <ele>382</ele>
        <time>2015-05-25T08:30:13.000Z</time>
      </trkpt>
      <trkpt lat="47.54752" lon="6.70539">
        <ele>381</ele>
        <time>2015-05-25T08:30:14.000Z</time>
      </trkpt>
      <trkpt lat="47.54751" lon="6.70534">
        <ele>381</ele>
        <time>2015-05-25T08:30:15.000Z</time>
      </trkpt>
      <trkpt lat="47.54752" lon="6.70528">
        <ele>380</ele>
        <time>2015-05-25T08:30:16.000Z</time>
      </trkpt>
      <trkpt lat="47.54752" lon="6.70522">
        <ele>379</ele>
        <time>2015-05-25T08:30:17.000Z</time>
      </trkpt>
      <trkpt lat="47.54748" lon="6.70515">
        <ele>375</ele>
        <time>2015-05-25T08:30:18.000Z</time>
      </trkpt>
      <trkpt lat="47.54747" lon="6.70509">
        <ele>375</ele>
        <time>2015-05-25T08:30:19.000Z</time>
      </trkpt>
      <trkpt lat="47.54744" lon="6.705">
        <ele>373</ele>
        <time>2015-05-25T08:30:20.000Z</time>
      </trkpt>
      <trkpt lat="47.54741" lon="6.70492">
        <ele>372</ele>
        <time>2015-05-25T08:30:21.000Z</time>
      </trkpt>
      <trkpt lat="47.54741" lon="6.70485">
        <ele>371</ele>
        <time>2015-05-25T08:30:22.000Z</time>
      </trkpt>
      <trkpt lat="47.54739" lon="6.7048">
        <ele>370</ele>
        <time>2015-05-25T08:30:23.000Z</time>
      </trkpt>
      <trkpt lat="47.54738" lon="6.70475">
        <ele>370</ele>
        <time>2015-05-25T08:30:24.000Z</time>
      </trkpt>
      <trkpt lat="47.54739" lon="6.70473">
        <ele>369</ele>
        <time>2015-05-25T08:30:25.000Z</time>
      </trkpt>
      <trkpt lat="47.54742" lon="6.70474">
        <ele>370</ele>
        <time>2015-05-25T08:30:26.000Z</time>
      </trkpt>
      <trkpt lat="47.54744" lon="6.70474">
        <ele>370</ele>
        <time>2015-05-25T08:30:27.000Z</time>
      </trkpt>
      <trkpt lat="47.54747" lon="6.70474">
        <ele>370</ele>
        <time>2015-05-25T08:30:28.000Z</time>
      </trkpt>
      <trkpt lat="47.54751" lon="6.70472">
        <ele>371</ele>
        <time>2015-05-25T08:30:29.000Z</time>
      </trkpt>
      <trkpt lat="47.54755" lon="6.7047">
        <ele>371</ele>
        <time>2015-05-25T08:30:30.000Z</time>
      </trkpt>
      <trkpt lat="47.5476" lon="6.70461">
        <ele>370</ele>
        <time>2015-05-25T08:30:31.000Z</time>
      </trkpt>
      <trkpt lat="47.54765" lon="6.70452">
        <ele>370</ele>
        <time>2015-05-25T08:30:32.000Z</time>
      </trkpt>
      <trkpt lat="47.54768" lon="6.70442">
        <ele>369</ele>
        <time>2015-05-25T08:30:33.000Z</time>
      </trkpt>
      <trkpt lat="47.5477" lon="6.70431">
        <ele>368</ele>
        <time>2015-05-25T08:30:34.000Z</time>
      </trkpt>
      <trkpt lat="47.54774" lon="6.70423">
        <ele>368</ele>
        <time>2015-05-25T08:30:35.000Z</time>
      </trkpt>
      <trkpt lat="47.54778" lon="6.70414">
        <ele>363</ele>
        <time>2015-05-25T08:30:36.000Z</time>
      </trkpt>
      <trkpt lat="47.54779" lon="6.70405">
        <ele>363</ele>
        <time>2015-05-25T08:30:37.000Z</time>
      </trkpt>
      <trkpt lat="47.54781" lon="6.70397">
        <ele>363</ele>
        <time>2015-05-25T08:30:38.000Z</time>
      </trkpt>
      <trkpt lat="47.54784" lon="6.7039">
        <ele>363</ele>
        <time>2015-05-25T08:30:39.000Z</time>
      </trkpt>
      <trkpt lat="47.54787" lon="6.70385">
        <ele>362</ele>
        <time>2015-05-25T08:30:40.000Z</time>
      </trkpt>
      <trkpt lat="47.54789" lon="6.70381">
        <ele>362</ele>
        <time>2015-05-25T08:30:41.000Z</time>
      </trkpt>
      <trkpt lat="47.54792" lon="6.70377">
        <ele>362</ele>
        <time>2015-05-25T08:30:42.000Z</time>
      </trkpt>
      <trkpt lat="47.54794" lon="6.70374">
        <ele>362</ele>
        <time>2015-05-25T08:30:44.000Z</time>
      </trkpt>
      <trkpt lat="47.54796" lon="6.70373">
        <ele>362</ele>
        <time>2015-05-25T08:30:45.000Z</time>
      </trkpt>
      <trkpt lat="47.54798" lon="6.70371">
        <ele>362</ele>
        <time>2015-05-25T08:30:46.000Z</time>
      </trkpt>
      <trkpt lat="47.54801" lon="6.70367">
        <ele>362</ele>
        <time>2015-05-25T08:30:47.000Z</time>
      </trkpt>
      <trkpt lat="47.54804" lon="6.70364">
        <ele>362</ele>
        <time>2015-05-25T08:30:48.000Z</time>
      </trkpt>
      <trkpt lat="47.54807" lon="6.70362">
        <ele>362</ele>
        <time>2015-05-25T08:30:49.000Z</time>
      </trkpt>
      <trkpt lat="47.5481" lon="6.70359">
        <ele>362</ele>
        <time>2015-05-25T08:30:50.000Z</time>
      </trkpt>
      <trkpt lat="47.54814" lon="6.70357">
        <ele>361</ele>
        <time>2015-05-25T08:30:51.000Z</time>
      </trkpt>
      <trkpt lat="47.54818" lon="6.70354">
        <ele>361</ele>
        <time>2015-05-25T08:30:52.000Z</time>
      </trkpt>
      <trkpt lat="47.54822" lon="6.70352">
        <ele>361</ele>
        <time>2015-05-25T08:30:53.000Z</time>
      </trkpt>
      <trkpt lat="47.54826" lon="6.70349">
        <ele>361</ele>
        <time>2015-05-25T08:30:54.000Z</time>
      </trkpt>
      <trkpt lat="47.5483" lon="6.70346">
        <ele>360</ele>
        <time>2015-05-25T08:30:55.000Z</time>
      </trkpt>
      <trkpt lat="47.54834" lon="6.70343">
        <ele>360</ele>
        <time>2015-05-25T08:30:56.000Z</time>
      </trkpt>
      <trkpt lat="47.54838" lon="6.70339">
        <ele>360</ele>
        <time>2015-05-25T08:30:57.000Z</time>
      </trkpt>
      <trkpt lat="47.54842" lon="6.70335">
        <ele>360</ele>
        <time>2015-05-25T08:30:58.000Z</time>
      </trkpt>
      <trkpt lat="47.54846" lon="6.7033">
        <ele>359</ele>
        <time>2015-05-25T08:30:59.000Z</time>
      </trkpt>
      <trkpt lat="47.54849" lon="6.70325">
        <ele>358</ele>
        <time>2015-05-25T08:31:00.000Z</time>
      </trkpt>
      <trkpt lat="47.54853" lon="6.70321">
        <ele>358</ele>
        <time>2015-05-25T08:31:01.000Z</time>
      </trkpt>
      <trkpt lat="47.54855" lon="6.70316">
        <ele>358</ele>
        <time>2015-05-25T08:31:02.000Z</time>
      </trkpt>
      <trkpt lat="47.54858" lon="6.70312">
        <ele>358</ele>
        <time>2015-05-25T08:31:03.000Z</time>
      </trkpt>
      <trkpt lat="47.5486" lon="6.70308">
        <ele>358</ele>
        <time>2015-05-25T08:31:04.000Z</time>
      </trkpt>
      <trkpt lat="47.54861" lon="6.70303">
        <ele>358</ele>
        <time>2015-05-25T08:31:05.000Z</time>
      </trkpt>
      <trkpt lat="47.54862" lon="6.70297">
        <ele>358</ele>
        <time>2015-05-25T08:31:06.000Z</time>
      </trkpt>
      <trkpt lat="47.54863" lon="6.70291">
        <ele>358</ele>
        <time>2015-05-25T08:31:07.000Z</time>
      </trkpt>
      <trkpt lat="47.54864" lon="6.70285">
        <ele>358</ele>
        <time>2015-05-25T08:31:08.000Z</time>
      </trkpt>
      <trkpt lat="47.54864" lon="6.70279">
        <ele>358</ele>
        <time>2015-05-25T08:31:09.000Z</time>
      </trkpt>
      <trkpt lat="47.54865" lon="6.70273">
        <ele>358</ele>
        <time>2015-05-25T08:31:10.000Z</time>
      </trkpt>
      <trkpt lat="47.54866" lon="6.70267">
        <ele>358</ele>
        <time>2015-05-25T08:31:11.000Z</time>
      </trkpt>
      <trkpt lat="47.54867" lon="6.70261">
        <ele>358</ele>
        <time>2015-05-25T08:31:12.000Z</time>
      </trkpt>
      <trkpt lat="47.54866" lon="6.70252">
        <ele>358</ele>
        <time>2015-05-25T08:31:13.000Z</time>
      </trkpt>
      <trkpt lat="47.54866" lon="6.70245">
        <ele>356</ele>
        <time>2015-05-25T08:31:14.000Z</time>
      </trkpt>
      <trkpt lat="47.54865" lon="6.70237">
        <ele>356</ele>
        <time>2015-05-25T08:31:15.000Z</time>
      </trkpt>
      <trkpt lat="47.54863" lon="6.70228">
        <ele>356</ele>
        <time>2015-05-25T08:31:16.000Z</time>
      </trkpt>
      <trkpt lat="47.54862" lon="6.7022">
        <ele>356</ele>
        <time>2015-05-25T08:31:17.000Z</time>
      </trkpt>
      <trkpt lat="47.5486" lon="6.70212">
        <ele>355</ele>
        <time>2015-05-25T08:31:18.000Z</time>
      </trkpt>
      <trkpt lat="47.54857" lon="6.70203">
        <ele>355</ele>
        <time>2015-05-25T08:31:19.000Z</time>
      </trkpt>
      <trkpt lat="47.54856" lon="6.70194">
        <ele>355</ele>
        <time>2015-05-25T08:31:20.000Z</time>
      </trkpt>
      <trkpt lat="47.54854" lon="6.70186">
        <ele>355</ele>
        <time>2015-05-25T08:31:21.000Z</time>
      </trkpt>
      <trkpt lat="47.54852" lon="6.70178">
        <ele>355</ele>
        <time>2015-05-25T08:31:22.000Z</time>
      </trkpt>
      <trkpt lat="47.54849" lon="6.70169">
        <ele>355</ele>
        <time>2015-05-25T08:31:23.000Z</time>
      </trkpt>
      <trkpt lat="47.54847" lon="6.70163">
        <ele>354</ele>
        <time>2015-05-25T08:31:24.000Z</time>
      </trkpt>
      <trkpt lat="47.54845" lon="6.70155">
        <ele>354</ele>
        <time>2015-05-25T08:31:25.000Z</time>
      </trkpt>
      <trkpt lat="47.54844" lon="6.70147">
        <ele>353</ele>
        <time>2015-05-25T08:31:26.000Z</time>
      </trkpt>
      <trkpt lat="47.54843" lon="6.70139">
        <ele>353</ele>
        <time>2015-05-25T08:31:27.000Z</time>
      </trkpt>
      <trkpt lat="47.54842" lon="6.70133">
        <ele>353</ele>
        <time>2015-05-25T08:31:28.000Z</time>
      </trkpt>
      <trkpt lat="47.54841" lon="6.70125">
        <ele>353</ele>
        <time>2015-05-25T08:31:29.000Z</time>
      </trkpt>
      <trkpt lat="47.5484" lon="6.70117">
        <ele>352</ele>
        <time>2015-05-25T08:31:30.000Z</time>
      </trkpt>
      <trkpt lat="47.5484" lon="6.7011">
        <ele>352</ele>
        <time>2015-05-25T08:31:31.000Z</time>
      </trkpt>
      <trkpt lat="47.5484" lon="6.70103">
        <ele>352</ele>
        <time>2015-05-25T08:31:32.000Z</time>
      </trkpt>
      <trkpt lat="47.54839" lon="6.70097">
        <ele>352</ele>
        <time>2015-05-25T08:31:33.000Z</time>
      </trkpt>
      <trkpt lat="47.54839" lon="6.7009">
        <ele>352</ele>
        <time>2015-05-25T08:31:34.000Z</time>
      </trkpt>
      <trkpt lat="47.54839" lon="6.70083">
        <ele>352</ele>
        <time>2015-05-25T08:31:35.000Z</time>
      </trkpt>
      <trkpt lat="47.5484" lon="6.70078">
        <ele>352</ele>
        <time>2015-05-25T08:31:36.000Z</time>
      </trkpt>
      <trkpt lat="47.54841" lon="6.70074">
        <ele>351</ele>
        <time>2015-05-25T08:31:37.000Z</time>
      </trkpt>
      <trkpt lat="47.5484" lon="6.70071">
        <ele>351</ele>
        <time>2015-05-25T08:31:38.000Z</time>
      </trkpt>
      <trkpt lat="47.54838" lon="6.70067">
        <ele>351</ele>
        <time>2015-05-25T08:31:39.000Z</time>
      </trkpt>
      <trkpt lat="47.54837" lon="6.70065">
        <ele>351</ele>
        <time>2015-05-25T08:31:40.000Z</time>
      </trkpt>
      <trkpt lat="47.54834" lon="6.70062">
        <ele>351</ele>
        <time>2015-05-25T08:31:41.000Z</time>
      </trkpt>
      <trkpt lat="47.5483" lon="6.7006">
        <ele>352</ele>
        <time>2015-05-25T08:31:42.000Z</time>
      </trkpt>
      <trkpt lat="47.54826" lon="6.70057">
        <ele>352</ele>
        <time>2015-05-25T08:31:43.000Z</time>
      </trkpt>
      <trkpt lat="47.54823" lon="6.70054">
        <ele>352</ele>
        <time>2015-05-25T08:31:44.000Z</time>
      </trkpt>
      <trkpt lat="47.5482" lon="6.70051">
        <ele>352</ele>
        <time>2015-05-25T08:31:45.000Z</time>
      </trkpt>
      <trkpt lat="47.54817" lon="6.70048">
        <ele>352</ele>
        <time>2015-05-25T08:31:46.000Z</time>
      </trkpt>
      <trkpt lat="47.54814" lon="6.70044">
        <ele>352</ele>
        <time>2015-05-25T08:31:47.000Z</time>
      </trkpt>
      <trkpt lat="47.54811" lon="6.7004">
        <ele>352</ele>
        <time>2015-05-25T08:31:48.000Z</time>
      </trkpt>
      <trkpt lat="47.54809" lon="6.70035">
        <ele>352</ele>
        <time>2015-05-25T08:31:49.000Z</time>
      </trkpt>
      <trkpt lat="47.54808" lon="6.70029">
        <ele>351</ele>
        <time>2015-05-25T08:31:50.000Z</time>
      </trkpt>
      <trkpt lat="47.54811" lon="6.7002">
        <ele>351</ele>
        <time>2015-05-25T08:31:51.000Z</time>
      </trkpt>
      <trkpt lat="47.54811" lon="6.70013">
        <ele>351</ele>
        <time>2015-05-25T08:31:52.000Z</time>
      </trkpt>
      <trkpt lat="47.54812" lon="6.70006">
        <ele>351</ele>
        <time>2015-05-25T08:31:53.000Z</time>
      </trkpt>
      <trkpt lat="47.54811" lon="6.69999">
        <ele>350</ele>
        <time>2015-05-25T08:31:54.000Z</time>
      </trkpt>
      <trkpt lat="47.54809" lon="6.69993">
        <ele>350</ele>
        <time>2015-05-25T08:31:55.000Z</time>
      </trkpt>
      <trkpt lat="47.54807" lon="6.69987">
        <ele>350</ele>
        <time>2015-05-25T08:31:56.000Z</time>
      </trkpt>
      <trkpt lat="47.54804" lon="6.69982">
        <ele>350</ele>
        <time>2015-05-25T08:31:57.000Z</time>
      </trkpt>
      <trkpt lat="47.54801" lon="6.69977">
        <ele>350</ele>
        <time>2015-05-25T08:31:58.000Z</time>
      </trkpt>
      <trkpt lat="47.54799" lon="6.69972">
        <ele>350</ele>
        <time>2015-05-25T08:31:59.000Z</time>
      </trkpt>
      <trkpt lat="47.54797" lon="6.69966">
        <ele>350</ele>
        <time>2015-05-25T08:32:00.000Z</time>
      </trkpt>
      <trkpt lat="47.54796" lon="6.6996">
        <ele>350</ele>
        <time>2015-05-25T08:32:01.000Z</time>
      </trkpt>
      <trkpt lat="47.54795" lon="6.69955">
        <ele>350</ele>
        <time>2015-05-25T08:32:02.000Z</time>
      </trkpt>
      <trkpt lat="47.54795" lon="6.6995">
        <ele>350</ele>
        <time>2015-05-25T08:32:03.000Z</time>
      </trkpt>
      <trkpt lat="47.54797" lon="6.69944">
        <ele>350</ele>
        <time>2015-05-25T08:32:04.000Z</time>
      </trkpt>
      <trkpt lat="47.54797" lon="6.69939">
        <ele>350</ele>
        <time>2015-05-25T08:32:05.000Z</time>
      </trkpt>
      <trkpt lat="47.54798" lon="6.69934">
        <ele>350</ele>
        <time>2015-05-25T08:32:06.000Z</time>
      </trkpt>
      <trkpt lat="47.548" lon="6.69928">
        <ele>350</ele>
        <time>2015-05-25T08:32:07.000Z</time>
      </trkpt>
      <trkpt lat="47.54802" lon="6.69923">
        <ele>350</ele>
        <time>2015-05-25T08:32:08.000Z</time>
      </trkpt>
      <trkpt lat="47.54803" lon="6.69917">
        <ele>350</ele>
        <time>2015-05-25T08:32:09.000Z</time>
      </trkpt>
      <trkpt lat="47.54804" lon="6.69911">
        <ele>350</ele>
        <time>2015-05-25T08:32:10.000Z</time>
      </trkpt>
      <trkpt lat="47.54805" lon="6.69905">
        <ele>349</ele>
        <time>2015-05-25T08:32:11.000Z</time>
      </trkpt>
      <trkpt lat="47.54806" lon="6.69898">
        <ele>349</ele>
        <time>2015-05-25T08:32:12.000Z</time>
      </trkpt>
      <trkpt lat="47.54807" lon="6.69892">
        <ele>349</ele>
        <time>2015-05-25T08:32:13.000Z</time>
      </trkpt>
      <trkpt lat="47.54807" lon="6.69885">
        <ele>349</ele>
        <time>2015-05-25T08:32:14.000Z</time>
      </trkpt>
      <trkpt lat="47.54808" lon="6.69879">
        <ele>349</ele>
        <time>2015-05-25T08:32:15.000Z</time>
      </trkpt>
      <trkpt lat="47.54808" lon="6.69872">
        <ele>350</ele>
        <time>2015-05-25T08:32:16.000Z</time>
      </trkpt>
      <trkpt lat="47.54808" lon="6.69862">
        <ele>350</ele>
        <time>2015-05-25T08:32:17.000Z</time>
      </trkpt>
      <trkpt lat="47.54809" lon="6.69854">
        <ele>350</ele>
        <time>2015-05-25T08:32:18.000Z</time>
      </trkpt>
      <trkpt lat="47.54809" lon="6.69847">
        <ele>350</ele>
        <time>2015-05-25T08:32:19.000Z</time>
      </trkpt>
      <trkpt lat="47.5481" lon="6.69841">
        <ele>350</ele>
        <time>2015-05-25T08:32:20.000Z</time>
      </trkpt>
      <trkpt lat="47.54811" lon="6.69834">
        <ele>350</ele>
        <time>2015-05-25T08:32:21.000Z</time>
      </trkpt>
      <trkpt lat="47.54812" lon="6.69828">
        <ele>349</ele>
        <time>2015-05-25T08:32:22.000Z</time>
      </trkpt>
      <trkpt lat="47.54813" lon="6.69822">
        <ele>349</ele>
        <time>2015-05-25T08:32:23.000Z</time>
      </trkpt>
      <trkpt lat="47.54813" lon="6.69814">
        <ele>349</ele>
        <time>2015-05-25T08:32:24.000Z</time>
      </trkpt>
      <trkpt lat="47.54814" lon="6.69807">
        <ele>349</ele>
        <time>2015-05-25T08:32:25.000Z</time>
      </trkpt>
      <trkpt lat="47.54815" lon="6.698">
        <ele>349</ele>
        <time>2015-05-25T08:32:26.000Z</time>
      </trkpt>
      <trkpt lat="47.54815" lon="6.69793">
        <ele>349</ele>
        <time>2015-05-25T08:32:27.000Z</time>
      </trkpt>
      <trkpt lat="47.54815" lon="6.69787">
        <ele>349</ele>
        <time>2015-05-25T08:32:28.000Z</time>
      </trkpt>
      <trkpt lat="47.54816" lon="6.69781">
        <ele>349</ele>
        <time>2015-05-25T08:32:29.000Z</time>
      </trkpt>
      <trkpt lat="47.54816" lon="6.69774">
        <ele>350</ele>
        <time>2015-05-25T08:32:30.000Z</time>
      </trkpt>
      <trkpt lat="47.54819" lon="6.69767">
        <ele>350</ele>
        <time>2015-05-25T08:32:31.000Z</time>
      </trkpt>
      <trkpt lat="47.5482" lon="6.69762">
        <ele>350</ele>
        <time>2015-05-25T08:32:32.000Z</time>
      </trkpt>
      <trkpt lat="47.54821" lon="6.69756">
        <ele>350</ele>
        <time>2015-05-25T08:32:33.000Z</time>
      </trkpt>
      <trkpt lat="47.54823" lon="6.6975">
        <ele>350</ele>
        <time>2015-05-25T08:32:34.000Z</time>
      </trkpt>
      <trkpt lat="47.54825" lon="6.69745">
        <ele>350</ele>
        <time>2015-05-25T08:32:35.000Z</time>
      </trkpt>
      <trkpt lat="47.54826" lon="6.69739">
        <ele>350</ele>
        <time>2015-05-25T08:32:36.000Z</time>
      </trkpt>
      <trkpt lat="47.54826" lon="6.69734">
        <ele>350</ele>
        <time>2015-05-25T08:32:37.000Z</time>
      </trkpt>
      <trkpt lat="47.54826" lon="6.69728">
        <ele>350</ele>
        <time>2015-05-25T08:32:38.000Z</time>
      </trkpt>
      <trkpt lat="47.54824" lon="6.69722">
        <ele>350</ele>
        <time>2015-05-25T08:32:39.000Z</time>
      </trkpt>
      <trkpt lat="47.54823" lon="6.69716">
        <ele>350</ele>
        <time>2015-05-25T08:32:40.000Z</time>
      </trkpt>
      <trkpt lat="47.54821" lon="6.69711">
        <ele>350</ele>
        <time>2015-05-25T08:32:41.000Z</time>
      </trkpt>
      <trkpt lat="47.54819" lon="6.69706">
        <ele>350</ele>
        <time>2015-05-25T08:32:42.000Z</time>
      </trkpt>
      <trkpt lat="47.54816" lon="6.69701">
        <ele>350</ele>
        <time>2015-05-25T08:32:43.000Z</time>
      </trkpt>
      <trkpt lat="47.54813" lon="6.69696">
        <ele>350</ele>
        <time>2015-05-25T08:32:44.000Z</time>
      </trkpt>
      <trkpt lat="47.5481" lon="6.69691">
        <ele>350</ele>
        <time>2015-05-25T08:32:45.000Z</time>
      </trkpt>
      <trkpt lat="47.54808" lon="6.69685">
        <ele>350</ele>
        <time>2015-05-25T08:32:46.000Z</time>
      </trkpt>
      <trkpt lat="47.54806" lon="6.6968">
        <ele>350</ele>
        <time>2015-05-25T08:32:47.000Z</time>
      </trkpt>
      <trkpt lat="47.54806" lon="6.69674">
        <ele>350</ele>
        <time>2015-05-25T08:32:48.000Z</time>
      </trkpt>
      <trkpt lat="47.54806" lon="6.69668">
        <ele>350</ele>
        <time>2015-05-25T08:32:49.000Z</time>
      </trkpt>
      <trkpt lat="47.54808" lon="6.69662">
        <ele>351</ele>
        <time>2015-05-25T08:32:50.000Z</time>
      </trkpt>
      <trkpt lat="47.5481" lon="6.69657">
        <ele>351</ele>
        <time>2015-05-25T08:32:51.000Z</time>
      </trkpt>
      <trkpt lat="47.54812" lon="6.69652">
        <ele>351</ele>
        <time>2015-05-25T08:32:52.000Z</time>
      </trkpt>
      <trkpt lat="47.54815" lon="6.69646">
        <ele>351</ele>
        <time>2015-05-25T08:32:53.000Z</time>
      </trkpt>
      <trkpt lat="47.54818" lon="6.69641">
        <ele>351</ele>
        <time>2015-05-25T08:32:54.000Z</time>
      </trkpt>
      <trkpt lat="47.5482" lon="6.69636">
        <ele>351</ele>
        <time>2015-05-25T08:32:55.000Z</time>
      </trkpt>
      <trkpt lat="47.54823" lon="6.6963">
        <ele>351</ele>
        <time>2015-05-25T08:32:56.000Z</time>
      </trkpt>
      <trkpt lat="47.54825" lon="6.69625">
        <ele>351</ele>
        <time>2015-05-25T08:32:57.000Z</time>
      </trkpt>
      <trkpt lat="47.54827" lon="6.69619">
        <ele>351</ele>
        <time>2015-05-25T08:32:58.000Z</time>
      </trkpt>
      <trkpt lat="47.54829" lon="6.69614">
        <ele>351</ele>
        <time>2015-05-25T08:32:59.000Z</time>
      </trkpt>
      <trkpt lat="47.54831" lon="6.69609">
        <ele>352</ele>
        <time>2015-05-25T08:33:00.000Z</time>
      </trkpt>
      <trkpt lat="47.54834" lon="6.69604">
        <ele>352</ele>
        <time>2015-05-25T08:33:01.000Z</time>
      </trkpt>
      <trkpt lat="47.54836" lon="6.69599">
        <ele>352</ele>
        <time>2015-05-25T08:33:02.000Z</time>
      </trkpt>
      <trkpt lat="47.54838" lon="6.69594">
        <ele>352</ele>
        <time>2015-05-25T08:33:03.000Z</time>
      </trkpt>
      <trkpt lat="47.5484" lon="6.69589">
        <ele>352</ele>
        <time>2015-05-25T08:33:04.000Z</time>
      </trkpt>
      <trkpt lat="47.54843" lon="6.69584">
        <ele>352</ele>
        <time>2015-05-25T08:33:05.000Z</time>
      </trkpt>
      <trkpt lat="47.54845" lon="6.6958">
        <ele>353</ele>
        <time>2015-05-25T08:33:06.000Z</time>
      </trkpt>
      <trkpt lat="47.54847" lon="6.69576">
        <ele>353</ele>
        <time>2015-05-25T08:33:07.000Z</time>
      </trkpt>
      <trkpt lat="47.5485" lon="6.69573">
        <ele>353</ele>
        <time>2015-05-25T08:33:08.000Z</time>
      </trkpt>
      <trkpt lat="47.54852" lon="6.6957">
        <ele>353</ele>
        <time>2015-05-25T08:33:09.000Z</time>
      </trkpt>
      <trkpt lat="47.54854" lon="6.69567">
        <ele>353</ele>
        <time>2015-05-25T08:33:10.000Z</time>
      </trkpt>
      <trkpt lat="47.54856" lon="6.69565">
        <ele>353</ele>
        <time>2015-05-25T08:33:11.000Z</time>
      </trkpt>
      <trkpt lat="47.54859" lon="6.69562">
        <ele>353</ele>
        <time>2015-05-25T08:33:13.000Z</time>
      </trkpt>
      <trkpt lat="47.5486" lon="6.69561">
        <ele>353</ele>
        <time>2015-05-25T08:33:14.000Z</time>
      </trkpt>
      <trkpt lat="47.54862" lon="6.69556">
        <ele>353</ele>
        <time>2015-05-25T08:33:17.000Z</time>
      </trkpt>
      <trkpt lat="47.54862" lon="6.69554">
        <ele>353</ele>
        <time>2015-05-25T08:33:18.000Z</time>
      </trkpt>
      <trkpt lat="47.54864" lon="6.69548">
        <ele>354</ele>
        <time>2015-05-25T08:33:20.000Z</time>
      </trkpt>
      <trkpt lat="47.54865" lon="6.69545">
        <ele>354</ele>
        <time>2015-05-25T08:33:21.000Z</time>
      </trkpt>
      <trkpt lat="47.54866" lon="6.69542">
        <ele>354</ele>
        <time>2015-05-25T08:33:22.000Z</time>
      </trkpt>
      <trkpt lat="47.54868" lon="6.69539">
        <ele>354</ele>
        <time>2015-05-25T08:33:23.000Z</time>
      </trkpt>
      <trkpt lat="47.5487" lon="6.69533">
        <ele>354</ele>
        <time>2015-05-25T08:33:25.000Z</time>
      </trkpt>
      <trkpt lat="47.54871" lon="6.69531">
        <ele>354</ele>
        <time>2015-05-25T08:33:26.000Z</time>
      </trkpt>
      <trkpt lat="47.54873" lon="6.69526">
        <ele>354</ele>
        <time>2015-05-25T08:33:28.000Z</time>
      </trkpt>
      <trkpt lat="47.54874" lon="6.69523">
        <ele>354</ele>
        <time>2015-05-25T08:33:29.000Z</time>
      </trkpt>
      <trkpt lat="47.54876" lon="6.6952">
        <ele>354</ele>
        <time>2015-05-25T08:33:30.000Z</time>
      </trkpt>
      <trkpt lat="47.54877" lon="6.69517">
        <ele>354</ele>
        <time>2015-05-25T08:33:31.000Z</time>
      </trkpt>
      <trkpt lat="47.54879" lon="6.69514">
        <ele>354</ele>
        <time>2015-05-25T08:33:32.000Z</time>
      </trkpt>
      <trkpt lat="47.54882" lon="6.69511">
        <ele>354</ele>
        <time>2015-05-25T08:33:33.000Z</time>
      </trkpt>
      <trkpt lat="47.54884" lon="6.69508">
        <ele>354</ele>
        <time>2015-05-25T08:33:34.000Z</time>
      </trkpt>
      <trkpt lat="47.54886" lon="6.69505">
        <ele>354</ele>
        <time>2015-05-25T08:33:35.000Z</time>
      </trkpt>
      <trkpt lat="47.54889" lon="6.69503">
        <ele>354</ele>
        <time>2015-05-25T08:33:36.000Z</time>
      </trkpt>
      <trkpt lat="47.54891" lon="6.695">
        <ele>354</ele>
        <time>2015-05-25T08:33:37.000Z</time>
      </trkpt>
      <trkpt lat="47.54894" lon="6.69498">
        <ele>357</ele>
        <time>2015-05-25T08:33:38.000Z</time>
      </trkpt>
      <trkpt lat="47.54896" lon="6.69496">
        <ele>357</ele>
        <time>2015-05-25T08:33:39.000Z</time>
      </trkpt>
      <trkpt lat="47.54899" lon="6.69493">
        <ele>357</ele>
        <time>2015-05-25T08:33:40.000Z</time>
      </trkpt>
      <trkpt lat="47.54901" lon="6.69491">
        <ele>357</ele>
        <time>2015-05-25T08:33:41.000Z</time>
      </trkpt>
      <trkpt lat="47.54903" lon="6.69487">
        <ele>357</ele>
        <time>2015-05-25T08:33:42.000Z</time>
      </trkpt>
      <trkpt lat="47.54905" lon="6.69483">
        <ele>357</ele>
        <time>2015-05-25T08:33:43.000Z</time>
      </trkpt>
      <trkpt lat="47.54907" lon="6.69479">
        <ele>357</ele>
        <time>2015-05-25T08:33:44.000Z</time>
      </trkpt>
      <trkpt lat="47.54908" lon="6.69474">
        <ele>357</ele>
        <time>2015-05-25T08:33:45.000Z</time>
      </trkpt>
      <trkpt lat="47.5491" lon="6.6947">
        <ele>357</ele>
        <time>2015-05-25T08:33:46.000Z</time>
      </trkpt>
      <trkpt lat="47.54912" lon="6.69465">
        <ele>358</ele>
        <time>2015-05-25T08:33:47.000Z</time>
      </trkpt>
      <trkpt lat="47.54913" lon="6.69461">
        <ele>358</ele>
        <time>2015-05-25T08:33:48.000Z</time>
      </trkpt>
      <trkpt lat="47.54915" lon="6.69457">
        <ele>358</ele>
        <time>2015-05-25T08:33:49.000Z</time>
      </trkpt>
      <trkpt lat="47.54917" lon="6.69453">
        <ele>358</ele>
        <time>2015-05-25T08:33:50.000Z</time>
      </trkpt>
      <trkpt lat="47.54918" lon="6.69448">
        <ele>358</ele>
        <time>2015-05-25T08:33:51.000Z</time>
      </trkpt>
      <trkpt lat="47.5492" lon="6.69444">
        <ele>359</ele>
        <time>2015-05-25T08:33:52.000Z</time>
      </trkpt>
      <trkpt lat="47.54922" lon="6.69439">
        <ele>359</ele>
        <time>2015-05-25T08:33:53.000Z</time>
      </trkpt>
      <trkpt lat="47.54924" lon="6.69434">
        <ele>359</ele>
        <time>2015-05-25T08:33:54.000Z</time>
      </trkpt>
      <trkpt lat="47.54925" lon="6.69428">
        <ele>359</ele>
        <time>2015-05-25T08:33:55.000Z</time>
      </trkpt>
      <trkpt lat="47.54926" lon="6.69422">
        <ele>359</ele>
        <time>2015-05-25T08:33:56.000Z</time>
      </trkpt>
      <trkpt lat="47.54926" lon="6.69417">
        <ele>360</ele>
        <time>2015-05-25T08:33:57.000Z</time>
      </trkpt>
      <trkpt lat="47.54926" lon="6.69411">
        <ele>360</ele>
        <time>2015-05-25T08:33:58.000Z</time>
      </trkpt>
      <trkpt lat="47.54927" lon="6.69405">
        <ele>360</ele>
        <time>2015-05-25T08:33:59.000Z</time>
      </trkpt>
      <trkpt lat="47.54927" lon="6.694">
        <ele>360</ele>
        <time>2015-05-25T08:34:00.000Z</time>
      </trkpt>
      <trkpt lat="47.54927" lon="6.69395">
        <ele>360</ele>
        <time>2015-05-25T08:34:01.000Z</time>
      </trkpt>
      <trkpt lat="47.54928" lon="6.69389">
        <ele>359</ele>
        <time>2015-05-25T08:34:02.000Z</time>
      </trkpt>
      <trkpt lat="47.54928" lon="6.69384">
        <ele>359</ele>
        <time>2015-05-25T08:34:03.000Z</time>
      </trkpt>
      <trkpt lat="47.54929" lon="6.69378">
        <ele>359</ele>
        <time>2015-05-25T08:34:04.000Z</time>
      </trkpt>
      <trkpt lat="47.54929" lon="6.69373">
        <ele>359</ele>
        <time>2015-05-25T08:34:05.000Z</time>
      </trkpt>
      <trkpt lat="47.5493" lon="6.69367">
        <ele>360</ele>
        <time>2015-05-25T08:34:06.000Z</time>
      </trkpt>
      <trkpt lat="47.5493" lon="6.69362">
        <ele>360</ele>
        <time>2015-05-25T08:34:07.000Z</time>
      </trkpt>
      <trkpt lat="47.5493" lon="6.69356">
        <ele>360</ele>
        <time>2015-05-25T08:34:08.000Z</time>
      </trkpt>
      <trkpt lat="47.54929" lon="6.69351">
        <ele>360</ele>
        <time>2015-05-25T08:34:09.000Z</time>
      </trkpt>
      <trkpt lat="47.54929" lon="6.69346">
        <ele>360</ele>
        <time>2015-05-25T08:34:10.000Z</time>
      </trkpt>
      <trkpt lat="47.54928" lon="6.69341">
        <ele>360</ele>
        <time>2015-05-25T08:34:11.000Z</time>
      </trkpt>
      <trkpt lat="47.54928" lon="6.69336">
        <ele>360</ele>
        <time>2015-05-25T08:34:12.000Z</time>
      </trkpt>
      <trkpt lat="47.54928" lon="6.69331">
        <ele>360</ele>
        <time>2015-05-25T08:34:13.000Z</time>
      </trkpt>
      <trkpt lat="47.54928" lon="6.69326">
        <ele>360</ele>
        <time>2015-05-25T08:34:14.000Z</time>
      </trkpt>
      <trkpt lat="47.54928" lon="6.6932">
        <ele>360</ele>
        <time>2015-05-25T08:34:15.000Z</time>
      </trkpt>
      <trkpt lat="47.54928" lon="6.69315">
        <ele>360</ele>
        <time>2015-05-25T08:34:16.000Z</time>
      </trkpt>
      <trkpt lat="47.54928" lon="6.6931">
        <ele>359</ele>
        <time>2015-05-25T08:34:17.000Z</time>
      </trkpt>
      <trkpt lat="47.54928" lon="6.69305">
        <ele>359</ele>
        <time>2015-05-25T08:34:18.000Z</time>
      </trkpt>
      <trkpt lat="47.54928" lon="6.693">
        <ele>359</ele>
        <time>2015-05-25T08:34:19.000Z</time>
      </trkpt>
      <trkpt lat="47.54928" lon="6.69295">
        <ele>359</ele>
        <time>2015-05-25T08:34:20.000Z</time>
      </trkpt>
      <trkpt lat="47.54927" lon="6.6929">
        <ele>359</ele>
        <time>2015-05-25T08:34:21.000Z</time>
      </trkpt>
      <trkpt lat="47.54926" lon="6.69285">
        <ele>359</ele>
        <time>2015-05-25T08:34:22.000Z</time>
      </trkpt>
      <trkpt lat="47.54925" lon="6.6928">
        <ele>360</ele>
        <time>2015-05-25T08:34:23.000Z</time>
      </trkpt>
      <trkpt lat="47.54925" lon="6.69275">
        <ele>360</ele>
        <time>2015-05-25T08:34:24.000Z</time>
      </trkpt>
      <trkpt lat="47.54924" lon="6.6927">
        <ele>360</ele>
        <time>2015-05-25T08:34:25.000Z</time>
      </trkpt>
      <trkpt lat="47.54922" lon="6.69265">
        <ele>360</ele>
        <time>2015-05-25T08:34:26.000Z</time>
      </trkpt>
      <trkpt lat="47.54921" lon="6.6926">
        <ele>361</ele>
        <time>2015-05-25T08:34:27.000Z</time>
      </trkpt>
      <trkpt lat="47.54919" lon="6.69255">
        <ele>361</ele>
        <time>2015-05-25T08:34:28.000Z</time>
      </trkpt>
      <trkpt lat="47.54917" lon="6.6925">
        <ele>362</ele>
        <time>2015-05-25T08:34:29.000Z</time>
      </trkpt>
      <trkpt lat="47.54916" lon="6.69246">
        <ele>363</ele>
        <time>2015-05-25T08:34:30.000Z</time>
      </trkpt>
      <trkpt lat="47.54914" lon="6.69241">
        <ele>363</ele>
        <time>2015-05-25T08:34:31.000Z</time>
      </trkpt>
      <trkpt lat="47.54912" lon="6.69237">
        <ele>364</ele>
        <time>2015-05-25T08:34:32.000Z</time>
      </trkpt>
      <trkpt lat="47.54911" lon="6.69233">
        <ele>364</ele>
        <time>2015-05-25T08:34:33.000Z</time>
      </trkpt>
      <trkpt lat="47.54909" lon="6.69229">
        <ele>364</ele>
        <time>2015-05-25T08:34:34.000Z</time>
      </trkpt>
      <trkpt lat="47.54907" lon="6.69225">
        <ele>364</ele>
        <time>2015-05-25T08:34:35.000Z</time>
      </trkpt>
      <trkpt lat="47.54906" lon="6.69221">
        <ele>365</ele>
        <time>2015-05-25T08:34:36.000Z</time>
      </trkpt>
      <trkpt lat="47.54904" lon="6.69218">
        <ele>365</ele>
        <time>2015-05-25T08:34:37.000Z</time>
      </trkpt>
      <trkpt lat="47.54902" lon="6.69215">
        <ele>365</ele>
        <time>2015-05-25T08:34:38.000Z</time>
      </trkpt>
      <trkpt lat="47.549" lon="6.69212">
        <ele>365</ele>
        <time>2015-05-25T08:34:39.000Z</time>
      </trkpt>
      <trkpt lat="47.54898" lon="6.69208">
        <ele>365</ele>
        <time>2015-05-25T08:34:40.000Z</time>
      </trkpt>
      <trkpt lat="47.54897" lon="6.69205">
        <ele>365</ele>
        <time>2015-05-25T08:34:41.000Z</time>
      </trkpt>
      <trkpt lat="47.54896" lon="6.69202">
        <ele>365</ele>
        <time>2015-05-25T08:34:42.000Z</time>
      </trkpt>
      <trkpt lat="47.54894" lon="6.69199">
        <ele>365</ele>
        <time>2015-05-25T08:34:43.000Z</time>
      </trkpt>
      <trkpt lat="47.54893" lon="6.69196">
        <ele>365</ele>
        <time>2015-05-25T08:34:44.000Z</time>
      </trkpt>
      <trkpt lat="47.54891" lon="6.69194">
        <ele>365</ele>
        <time>2015-05-25T08:34:45.000Z</time>
      </trkpt>
      <trkpt lat="47.54888" lon="6.69191">
        <ele>365</ele>
        <time>2015-05-25T08:34:46.000Z</time>
      </trkpt>
      <trkpt lat="47.54886" lon="6.69189">
        <ele>366</ele>
        <time>2015-05-25T08:34:47.000Z</time>
      </trkpt>
      <trkpt lat="47.54883" lon="6.69187">
        <ele>366</ele>
        <time>2015-05-25T08:34:48.000Z</time>
      </trkpt>
      <trkpt lat="47.5488" lon="6.69185">
        <ele>366</ele>
        <time>2015-05-25T08:34:49.000Z</time>
      </trkpt>
      <trkpt lat="47.54878" lon="6.69183">
        <ele>366</ele>
        <time>2015-05-25T08:34:50.000Z</time>
      </trkpt>
      <trkpt lat="47.54876" lon="6.69182">
        <ele>366</ele>
        <time>2015-05-25T08:34:51.000Z</time>
      </trkpt>
      <trkpt lat="47.54874" lon="6.69179">
        <ele>366</ele>
        <time>2015-05-25T08:34:52.000Z</time>
      </trkpt>
      <trkpt lat="47.54872" lon="6.69177">
        <ele>366</ele>
        <time>2015-05-25T08:34:53.000Z</time>
      </trkpt>
      <trkpt lat="47.5487" lon="6.69175">
        <ele>366</ele>
        <time>2015-05-25T08:34:54.000Z</time>
      </trkpt>
      <trkpt lat="47.54868" lon="6.69173">
        <ele>367</ele>
        <time>2015-05-25T08:34:55.000Z</time>
      </trkpt>
      <trkpt lat="47.54866" lon="6.69171">
        <ele>367</ele>
        <time>2015-05-25T08:34:56.000Z</time>
      </trkpt>
      <trkpt lat="47.54864" lon="6.69168">
        <ele>367</ele>
        <time>2015-05-25T08:34:57.000Z</time>
      </trkpt>
      <trkpt lat="47.54862" lon="6.69166">
        <ele>367</ele>
        <time>2015-05-25T08:34:58.000Z</time>
      </trkpt>
      <trkpt lat="47.5486" lon="6.69163">
        <ele>367</ele>
        <time>2015-05-25T08:34:59.000Z</time>
      </trkpt>
      <trkpt lat="47.54858" lon="6.69161">
        <ele>367</ele>
        <time>2015-05-25T08:35:00.000Z</time>
      </trkpt>
      <trkpt lat="47.54856" lon="6.69158">
        <ele>368</ele>
        <time>2015-05-25T08:35:01.000Z</time>
      </trkpt>
      <trkpt lat="47.54853" lon="6.69156">
        <ele>368</ele>
        <time>2015-05-25T08:35:02.000Z</time>
      </trkpt>
      <trkpt lat="47.54851" lon="6.69154">
        <ele>368</ele>
        <time>2015-05-25T08:35:03.000Z</time>
      </trkpt>
      <trkpt lat="47.54849" lon="6.69152">
        <ele>368</ele>
        <time>2015-05-25T08:35:04.000Z</time>
      </trkpt>
      <trkpt lat="47.54847" lon="6.69149">
        <ele>368</ele>
        <time>2015-05-25T08:35:05.000Z</time>
      </trkpt>
      <trkpt lat="47.54845" lon="6.69147">
        <ele>368</ele>
        <time>2015-05-25T08:35:06.000Z</time>
      </trkpt>
      <trkpt lat="47.54843" lon="6.69144">
        <ele>368</ele>
        <time>2015-05-25T08:35:07.000Z</time>
      </trkpt>
      <trkpt lat="47.54841" lon="6.69142">
        <ele>368</ele>
        <time>2015-05-25T08:35:08.000Z</time>
      </trkpt>
      <trkpt lat="47.54839" lon="6.69139">
        <ele>368</ele>
        <time>2015-05-25T08:35:09.000Z</time>
      </trkpt>
      <trkpt lat="47.54837" lon="6.69137">
        <ele>368</ele>
        <time>2015-05-25T08:35:10.000Z</time>
      </trkpt>
      <trkpt lat="47.54835" lon="6.69134">
        <ele>368</ele>
        <time>2015-05-25T08:35:11.000Z</time>
      </trkpt>
      <trkpt lat="47.54833" lon="6.69132">
        <ele>371</ele>
        <time>2015-05-25T08:35:12.000Z</time>
      </trkpt>
      <trkpt lat="47.54831" lon="6.6913">
        <ele>371</ele>
        <time>2015-05-25T08:35:13.000Z</time>
      </trkpt>
      <trkpt lat="47.54828" lon="6.69126">
        <ele>371</ele>
        <time>2015-05-25T08:35:15.000Z</time>
      </trkpt>
      <trkpt lat="47.54826" lon="6.69124">
        <ele>371</ele>
        <time>2015-05-25T08:35:16.000Z</time>
      </trkpt>
      <trkpt lat="47.54823" lon="6.6912">
        <ele>371</ele>
        <time>2015-05-25T08:35:18.000Z</time>
      </trkpt>
      <trkpt lat="47.54821" lon="6.69118">
        <ele>371</ele>
        <time>2015-05-25T08:35:19.000Z</time>
      </trkpt>
      <trkpt lat="47.54819" lon="6.69112">
        <ele>371</ele>
        <time>2015-05-25T08:35:21.000Z</time>
      </trkpt>
      <trkpt lat="47.54818" lon="6.69109">
        <ele>371</ele>
        <time>2015-05-25T08:35:22.000Z</time>
      </trkpt>
      <trkpt lat="47.54817" lon="6.69106">
        <ele>371</ele>
        <time>2015-05-25T08:35:23.000Z</time>
      </trkpt>
      <trkpt lat="47.54816" lon="6.69103">
        <ele>371</ele>
        <time>2015-05-25T08:35:24.000Z</time>
      </trkpt>
      <trkpt lat="47.54815" lon="6.69099">
        <ele>371</ele>
        <time>2015-05-25T08:35:25.000Z</time>
      </trkpt>
      <trkpt lat="47.54814" lon="6.69096">
        <ele>371</ele>
        <time>2015-05-25T08:35:26.000Z</time>
      </trkpt>
      <trkpt lat="47.54813" lon="6.69092">
        <ele>371</ele>
        <time>2015-05-25T08:35:27.000Z</time>
      </trkpt>
      <trkpt lat="47.54812" lon="6.69088">
        <ele>371</ele>
        <time>2015-05-25T08:35:28.086Z</time>
      </trkpt>
      <trkpt lat="47.54811" lon="6.69084">
        <ele>371</ele>
        <time>2015-05-25T08:35:29.000Z</time>
      </trkpt>
      <trkpt lat="47.5481" lon="6.6908">
        <ele>371</ele>
        <time>2015-05-25T08:35:30.000Z</time>
      </trkpt>
      <trkpt lat="47.54809" lon="6.69076">
        <ele>372</ele>
        <time>2015-05-25T08:35:31.000Z</time>
      </trkpt>
      <trkpt lat="47.54808" lon="6.69072">
        <ele>372</ele>
        <time>2015-05-25T08:35:32.000Z</time>
      </trkpt>
      <trkpt lat="47.54806" lon="6.69068">
        <ele>372</ele>
        <time>2015-05-25T08:35:33.000Z</time>
      </trkpt>
      <trkpt lat="47.54805" lon="6.69064">
        <ele>372</ele>
        <time>2015-05-25T08:35:34.000Z</time>
      </trkpt>
      <trkpt lat="47.54803" lon="6.6906">
        <ele>372</ele>
        <time>2015-05-25T08:35:35.000Z</time>
      </trkpt>
      <trkpt lat="47.54802" lon="6.69055">
        <ele>372</ele>
        <time>2015-05-25T08:35:36.000Z</time>
      </trkpt>
      <trkpt lat="47.54801" lon="6.69051">
        <ele>372</ele>
        <time>2015-05-25T08:35:37.000Z</time>
      </trkpt>
      <trkpt lat="47.548" lon="6.69046">
        <ele>372</ele>
        <time>2015-05-25T08:35:38.000Z</time>
      </trkpt>
      <trkpt lat="47.54798" lon="6.69041">
        <ele>372</ele>
        <time>2015-05-25T08:35:39.000Z</time>
      </trkpt>
      <trkpt lat="47.54797" lon="6.69036">
        <ele>372</ele>
        <time>2015-05-25T08:35:40.000Z</time>
      </trkpt>
      <trkpt lat="47.54795" lon="6.69031">
        <ele>372</ele>
        <time>2015-05-25T08:35:41.000Z</time>
      </trkpt>
      <trkpt lat="47.54794" lon="6.69027">
        <ele>372</ele>
        <time>2015-05-25T08:35:42.000Z</time>
      </trkpt>
      <trkpt lat="47.54792" lon="6.69022">
        <ele>372</ele>
        <time>2015-05-25T08:35:43.000Z</time>
      </trkpt>
      <trkpt lat="47.54791" lon="6.69017">
        <ele>372</ele>
        <time>2015-05-25T08:35:44.000Z</time>
      </trkpt>
      <trkpt lat="47.54789" lon="6.69012">
        <ele>372</ele>
        <time>2015-05-25T08:35:45.000Z</time>
      </trkpt>
      <trkpt lat="47.54787" lon="6.69006">
        <ele>372</ele>
        <time>2015-05-25T08:35:46.000Z</time>
      </trkpt>
      <trkpt lat="47.54783" lon="6.69">
        <ele>373</ele>
        <time>2015-05-25T08:35:47.000Z</time>
      </trkpt>
      <trkpt lat="47.54781" lon="6.68993">
        <ele>373</ele>
        <time>2015-05-25T08:35:48.000Z</time>
      </trkpt>
      <trkpt lat="47.5478" lon="6.68987">
        <ele>373</ele>
        <time>2015-05-25T08:35:49.000Z</time>
      </trkpt>
      <trkpt lat="47.54778" lon="6.68981">
        <ele>373</ele>
        <time>2015-05-25T08:35:50.000Z</time>
      </trkpt>
      <trkpt lat="47.54777" lon="6.68975">
        <ele>373</ele>
        <time>2015-05-25T08:35:51.000Z</time>
      </trkpt>
      <trkpt lat="47.54775" lon="6.68969">
        <ele>373</ele>
        <time>2015-05-25T08:35:52.000Z</time>
      </trkpt>
      <trkpt lat="47.54773" lon="6.68963">
        <ele>373</ele>
        <time>2015-05-25T08:35:53.000Z</time>
      </trkpt>
      <trkpt lat="47.54772" lon="6.68957">
        <ele>373</ele>
        <time>2015-05-25T08:35:54.000Z</time>
      </trkpt>
      <trkpt lat="47.54769" lon="6.68952">
        <ele>374</ele>
        <time>2015-05-25T08:35:55.000Z</time>
      </trkpt>
      <trkpt lat="47.54768" lon="6.68947">
        <ele>374</ele>
        <time>2015-05-25T08:35:56.000Z</time>
      </trkpt>
      <trkpt lat="47.54766" lon="6.6894">
        <ele>374</ele>
        <time>2015-05-25T08:35:57.000Z</time>
      </trkpt>
      <trkpt lat="47.54765" lon="6.68933">
        <ele>374</ele>
        <time>2015-05-25T08:35:58.000Z</time>
      </trkpt>
      <trkpt lat="47.54763" lon="6.68927">
        <ele>374</ele>
        <time>2015-05-25T08:35:59.000Z</time>
      </trkpt>
      <trkpt lat="47.54761" lon="6.68921">
        <ele>375</ele>
        <time>2015-05-25T08:36:00.000Z</time>
      </trkpt>
      <trkpt lat="47.5476" lon="6.68915">
        <ele>376</ele>
        <time>2015-05-25T08:36:01.000Z</time>
      </trkpt>
      <trkpt lat="47.54758" lon="6.68909">
        <ele>376</ele>
        <time>2015-05-25T08:36:02.000Z</time>
      </trkpt>
      <trkpt lat="47.54756" lon="6.68904">
        <ele>376</ele>
        <time>2015-05-25T08:36:03.000Z</time>
      </trkpt>
      <trkpt lat="47.54755" lon="6.68898">
        <ele>376</ele>
        <time>2015-05-25T08:36:04.000Z</time>
      </trkpt>
      <trkpt lat="47.54754" lon="6.68894">
        <ele>376</ele>
        <time>2015-05-25T08:36:05.000Z</time>
      </trkpt>
      <trkpt lat="47.54752" lon="6.6889">
        <ele>376</ele>
        <time>2015-05-25T08:36:06.000Z</time>
      </trkpt>
      <trkpt lat="47.54751" lon="6.68886">
        <ele>376</ele>
        <time>2015-05-25T08:36:07.000Z</time>
      </trkpt>
      <trkpt lat="47.54749" lon="6.68882">
        <ele>378</ele>
        <time>2015-05-25T08:36:08.000Z</time>
      </trkpt>
      <trkpt lat="47.54748" lon="6.68877">
        <ele>378</ele>
        <time>2015-05-25T08:36:09.000Z</time>
      </trkpt>
      <trkpt lat="47.54746" lon="6.68873">
        <ele>378</ele>
        <time>2015-05-25T08:36:10.000Z</time>
      </trkpt>
      <trkpt lat="47.54745" lon="6.68869">
        <ele>378</ele>
        <time>2015-05-25T08:36:10.999Z</time>
      </trkpt>
      <trkpt lat="47.54742" lon="6.68865">
        <ele>378</ele>
        <time>2015-05-25T08:36:12.000Z</time>
      </trkpt>
      <trkpt lat="47.5474" lon="6.68861">
        <ele>378</ele>
        <time>2015-05-25T08:36:13.000Z</time>
      </trkpt>
      <trkpt lat="47.54737" lon="6.68857">
        <ele>378</ele>
        <time>2015-05-25T08:36:14.000Z</time>
      </trkpt>
      <trkpt lat="47.54735" lon="6.68854">
        <ele>378</ele>
        <time>2015-05-25T08:36:15.000Z</time>
      </trkpt>
      <trkpt lat="47.54733" lon="6.6885">
        <ele>378</ele>
        <time>2015-05-25T08:36:16.000Z</time>
      </trkpt>
      <trkpt lat="47.54731" lon="6.68846">
        <ele>378</ele>
        <time>2015-05-25T08:36:17.000Z</time>
      </trkpt>
      <trkpt lat="47.54728" lon="6.68842">
        <ele>378</ele>
        <time>2015-05-25T08:36:18.000Z</time>
      </trkpt>
      <trkpt lat="47.54726" lon="6.68839">
        <ele>378</ele>
        <time>2015-05-25T08:36:19.000Z</time>
      </trkpt>
      <trkpt lat="47.54725" lon="6.68833">
        <ele>378</ele>
        <time>2015-05-25T08:36:20.000Z</time>
      </trkpt>
      <trkpt lat="47.54723" lon="6.68829">
        <ele>378</ele>
        <time>2015-05-25T08:36:21.000Z</time>
      </trkpt>
      <trkpt lat="47.54721" lon="6.68824">
        <ele>378</ele>
        <time>2015-05-25T08:36:22.000Z</time>
      </trkpt>
      <trkpt lat="47.54719" lon="6.6882">
        <ele>378</ele>
        <time>2015-05-25T08:36:23.000Z</time>
      </trkpt>
      <trkpt lat="47.54717" lon="6.68816">
        <ele>378</ele>
        <time>2015-05-25T08:36:24.000Z</time>
      </trkpt>
      <trkpt lat="47.54714" lon="6.68812">
        <ele>378</ele>
        <time>2015-05-25T08:36:25.000Z</time>
      </trkpt>
      <trkpt lat="47.54712" lon="6.68808">
        <ele>378</ele>
        <time>2015-05-25T08:36:26.000Z</time>
      </trkpt>
      <trkpt lat="47.5471" lon="6.68804">
        <ele>378</ele>
        <time>2015-05-25T08:36:27.000Z</time>
      </trkpt>
      <trkpt lat="47.54707" lon="6.68801">
        <ele>379</ele>
        <time>2015-05-25T08:36:28.000Z</time>
      </trkpt>
      <trkpt lat="47.54705" lon="6.68797">
        <ele>379</ele>
        <time>2015-05-25T08:36:29.000Z</time>
      </trkpt>
      <trkpt lat="47.54702" lon="6.68793">
        <ele>379</ele>
        <time>2015-05-25T08:36:30.000Z</time>
      </trkpt>
      <trkpt lat="47.547" lon="6.6879">
        <ele>379</ele>
        <time>2015-05-25T08:36:31.000Z</time>
      </trkpt>
      <trkpt lat="47.54697" lon="6.68786">
        <ele>379</ele>
        <time>2015-05-25T08:36:32.000Z</time>
      </trkpt>
      <trkpt lat="47.54695" lon="6.68782">
        <ele>379</ele>
        <time>2015-05-25T08:36:33.000Z</time>
      </trkpt>
      <trkpt lat="47.54692" lon="6.68778">
        <ele>379</ele>
        <time>2015-05-25T08:36:34.000Z</time>
      </trkpt>
      <trkpt lat="47.5469" lon="6.68774">
        <ele>379</ele>
        <time>2015-05-25T08:36:35.000Z</time>
      </trkpt>
      <trkpt lat="47.54687" lon="6.68771">
        <ele>379</ele>
        <time>2015-05-25T08:36:36.000Z</time>
      </trkpt>
      <trkpt lat="47.54685" lon="6.68767">
        <ele>379</ele>
        <time>2015-05-25T08:36:37.000Z</time>
      </trkpt>
      <trkpt lat="47.54683" lon="6.68763">
        <ele>380</ele>
        <time>2015-05-25T08:36:38.000Z</time>
      </trkpt>
      <trkpt lat="47.5468" lon="6.68759">
        <ele>380</ele>
        <time>2015-05-25T08:36:39.000Z</time>
      </trkpt>
      <trkpt lat="47.54677" lon="6.68755">
        <ele>380</ele>
        <time>2015-05-25T08:36:40.000Z</time>
      </trkpt>
      <trkpt lat="47.54675" lon="6.68751">
        <ele>380</ele>
        <time>2015-05-25T08:36:41.000Z</time>
      </trkpt>
      <trkpt lat="47.54672" lon="6.68747">
        <ele>381</ele>
        <time>2015-05-25T08:36:42.000Z</time>
      </trkpt>
      <trkpt lat="47.5467" lon="6.68743">
        <ele>381</ele>
        <time>2015-05-25T08:36:43.000Z</time>
      </trkpt>
      <trkpt lat="47.54667" lon="6.68739">
        <ele>381</ele>
        <time>2015-05-25T08:36:44.000Z</time>
      </trkpt>
      <trkpt lat="47.54665" lon="6.68735">
        <ele>382</ele>
        <time>2015-05-25T08:36:45.000Z</time>
      </trkpt>
      <trkpt lat="47.54663" lon="6.68731">
        <ele>382</ele>
        <time>2015-05-25T08:36:46.000Z</time>
      </trkpt>
      <trkpt lat="47.54661" lon="6.68728">
        <ele>382</ele>
        <time>2015-05-25T08:36:47.000Z</time>
      </trkpt>
      <trkpt lat="47.54659" lon="6.68724">
        <ele>383</ele>
        <time>2015-05-25T08:36:48.000Z</time>
      </trkpt>
      <trkpt lat="47.54657" lon="6.68721">
        <ele>383</ele>
        <time>2015-05-25T08:36:49.000Z</time>
      </trkpt>
      <trkpt lat="47.54655" lon="6.68718">
        <ele>383</ele>
        <time>2015-05-25T08:36:50.000Z</time>
      </trkpt>
      <trkpt lat="47.54653" lon="6.68715">
        <ele>383</ele>
        <time>2015-05-25T08:36:51.000Z</time>
      </trkpt>
      <trkpt lat="47.5465" lon="6.68712">
        <ele>383</ele>
        <time>2015-05-25T08:36:52.000Z</time>
      </trkpt>
      <trkpt lat="47.54648" lon="6.6871">
        <ele>383</ele>
        <time>2015-05-25T08:36:53.000Z</time>
      </trkpt>
      <trkpt lat="47.54646" lon="6.68708">
        <ele>383</ele>
        <time>2015-05-25T08:36:54.000Z</time>
      </trkpt>
      <trkpt lat="47.54643" lon="6.68705">
        <ele>383</ele>
        <time>2015-05-25T08:36:55.000Z</time>
      </trkpt>
      <trkpt lat="47.54641" lon="6.68703">
        <ele>383</ele>
        <time>2015-05-25T08:36:56.000Z</time>
      </trkpt>
      <trkpt lat="47.5464" lon="6.68701">
        <ele>383</ele>
        <time>2015-05-25T08:36:57.000Z</time>
      </trkpt>
      <trkpt lat="47.54638" lon="6.68698">
        <ele>383</ele>
        <time>2015-05-25T08:36:58.000Z</time>
      </trkpt>
      <trkpt lat="47.54636" lon="6.68695">
        <ele>383</ele>
        <time>2015-05-25T08:36:59.000Z</time>
      </trkpt>
      <trkpt lat="47.54634" lon="6.68692">
        <ele>383</ele>
        <time>2015-05-25T08:37:00.000Z</time>
      </trkpt>
      <trkpt lat="47.54632" lon="6.68689">
        <ele>383</ele>
        <time>2015-05-25T08:37:01.000Z</time>
      </trkpt>
      <trkpt lat="47.5463" lon="6.68687">
        <ele>383</ele>
        <time>2015-05-25T08:37:02.000Z</time>
      </trkpt>
      <trkpt lat="47.54627" lon="6.68684">
        <ele>383</ele>
        <time>2015-05-25T08:37:03.000Z</time>
      </trkpt>
      <trkpt lat="47.54624" lon="6.68681">
        <ele>383</ele>
        <time>2015-05-25T08:37:04.000Z</time>
      </trkpt>
      <trkpt lat="47.54621" lon="6.68679">
        <ele>383</ele>
        <time>2015-05-25T08:37:05.000Z</time>
      </trkpt>
      <trkpt lat="47.54617" lon="6.68676">
        <ele>384</ele>
        <time>2015-05-25T08:37:06.001Z</time>
      </trkpt>
      <trkpt lat="47.54614" lon="6.68673">
        <ele>384</ele>
        <time>2015-05-25T08:37:07.000Z</time>
      </trkpt>
      <trkpt lat="47.5461" lon="6.68671">
        <ele>384</ele>
        <time>2015-05-25T08:37:08.000Z</time>
      </trkpt>
      <trkpt lat="47.54607" lon="6.68669">
        <ele>384</ele>
        <time>2015-05-25T08:37:09.000Z</time>
      </trkpt>
      <trkpt lat="47.54604" lon="6.68667">
        <ele>384</ele>
        <time>2015-05-25T08:37:10.000Z</time>
      </trkpt>
      <trkpt lat="47.546" lon="6.68665">
        <ele>384</ele>
        <time>2015-05-25T08:37:11.000Z</time>
      </trkpt>
      <trkpt lat="47.54597" lon="6.68663">
        <ele>384</ele>
        <time>2015-05-25T08:37:12.000Z</time>
      </trkpt>
      <trkpt lat="47.54594" lon="6.68662">
        <ele>384</ele>
        <time>2015-05-25T08:37:13.000Z</time>
      </trkpt>
      <trkpt lat="47.54591" lon="6.6866">
        <ele>384</ele>
        <time>2015-05-25T08:37:14.000Z</time>
      </trkpt>
      <trkpt lat="47.54588" lon="6.68658">
        <ele>384</ele>
        <time>2015-05-25T08:37:15.000Z</time>
      </trkpt>
      <trkpt lat="47.54585" lon="6.68654">
        <ele>384</ele>
        <time>2015-05-25T08:37:16.000Z</time>
      </trkpt>
      <trkpt lat="47.54581" lon="6.68652">
        <ele>384</ele>
        <time>2015-05-25T08:37:17.000Z</time>
      </trkpt>
      <trkpt lat="47.54578" lon="6.68649">
        <ele>384</ele>
        <time>2015-05-25T08:37:18.000Z</time>
      </trkpt>
      <trkpt lat="47.54575" lon="6.68647">
        <ele>384</ele>
        <time>2015-05-25T08:37:19.000Z</time>
      </trkpt>
      <trkpt lat="47.54572" lon="6.68645">
        <ele>384</ele>
        <time>2015-05-25T08:37:20.000Z</time>
      </trkpt>
      <trkpt lat="47.54568" lon="6.68642">
        <ele>384</ele>
        <time>2015-05-25T08:37:21.000Z</time>
      </trkpt>
      <trkpt lat="47.54565" lon="6.6864">
        <ele>384</ele>
        <time>2015-05-25T08:37:22.000Z</time>
      </trkpt>
      <trkpt lat="47.54562" lon="6.68638">
        <ele>384</ele>
        <time>2015-05-25T08:37:23.000Z</time>
      </trkpt>
      <trkpt lat="47.54558" lon="6.68636">
        <ele>384</ele>
        <time>2015-05-25T08:37:24.000Z</time>
      </trkpt>
      <trkpt lat="47.54555" lon="6.68633">
        <ele>384</ele>
        <time>2015-05-25T08:37:25.000Z</time>
      </trkpt>
      <trkpt lat="47.54551" lon="6.68631">
        <ele>384</ele>
        <time>2015-05-25T08:37:26.000Z</time>
      </trkpt>
      <trkpt lat="47.54548" lon="6.6863">
        <ele>384</ele>
        <time>2015-05-25T08:37:27.000Z</time>
      </trkpt>
      <trkpt lat="47.54545" lon="6.68628">
        <ele>384</ele>
        <time>2015-05-25T08:37:28.000Z</time>
      </trkpt>
      <trkpt lat="47.54541" lon="6.68626">
        <ele>384</ele>
        <time>2015-05-25T08:37:29.000Z</time>
      </trkpt>
      <trkpt lat="47.54538" lon="6.68624">
        <ele>384</ele>
        <time>2015-05-25T08:37:30.000Z</time>
      </trkpt>
      <trkpt lat="47.54534" lon="6.68622">
        <ele>384</ele>
        <time>2015-05-25T08:37:31.000Z</time>
      </trkpt>
      <trkpt lat="47.54531" lon="6.68621">
        <ele>384</ele>
        <time>2015-05-25T08:37:32.000Z</time>
      </trkpt>
      <trkpt lat="47.54527" lon="6.68619">
        <ele>384</ele>
        <time>2015-05-25T08:37:33.000Z</time>
      </trkpt>
      <trkpt lat="47.54524" lon="6.68618">
        <ele>384</ele>
        <time>2015-05-25T08:37:34.000Z</time>
      </trkpt>
      <trkpt lat="47.5452" lon="6.68616">
        <ele>384</ele>
        <time>2015-05-25T08:37:35.000Z</time>
      </trkpt>
      <trkpt lat="47.54516" lon="6.68615">
        <ele>384</ele>
        <time>2015-05-25T08:37:36.000Z</time>
      </trkpt>
      <trkpt lat="47.54512" lon="6.68613">
        <ele>384</ele>
        <time>2015-05-25T08:37:37.000Z</time>
      </trkpt>
      <trkpt lat="47.54508" lon="6.68612">
        <ele>384</ele>
        <time>2015-05-25T08:37:38.000Z</time>
      </trkpt>
      <trkpt lat="47.54504" lon="6.6861">
        <ele>384</ele>
        <time>2015-05-25T08:37:39.000Z</time>
      </trkpt>
      <trkpt lat="47.545" lon="6.68609">
        <ele>383</ele>
        <time>2015-05-25T08:37:40.000Z</time>
      </trkpt>
      <trkpt lat="47.54496" lon="6.68607">
        <ele>383</ele>
        <time>2015-05-25T08:37:41.000Z</time>
      </trkpt>
      <trkpt lat="47.54491" lon="6.68603">
        <ele>383</ele>
        <time>2015-05-25T08:37:42.000Z</time>
      </trkpt>
      <trkpt lat="47.54487" lon="6.686">
        <ele>383</ele>
        <time>2015-05-25T08:37:43.000Z</time>
      </trkpt>
      <trkpt lat="47.54483" lon="6.68597">
        <ele>383</ele>
        <time>2015-05-25T08:37:44.000Z</time>
      </trkpt>
      <trkpt lat="47.54479" lon="6.68594">
        <ele>383</ele>
        <time>2015-05-25T08:37:45.000Z</time>
      </trkpt>
      <trkpt lat="47.54476" lon="6.6859">
        <ele>383</ele>
        <time>2015-05-25T08:37:46.000Z</time>
      </trkpt>
      <trkpt lat="47.54474" lon="6.68585">
        <ele>382</ele>
        <time>2015-05-25T08:37:47.000Z</time>
      </trkpt>
      <trkpt lat="47.54476" lon="6.68577">
        <ele>382</ele>
        <time>2015-05-25T08:37:48.000Z</time>
      </trkpt>
      <trkpt lat="47.54476" lon="6.68571">
        <ele>381</ele>
        <time>2015-05-25T08:37:49.000Z</time>
      </trkpt>
      <trkpt lat="47.54477" lon="6.68565">
        <ele>381</ele>
        <time>2015-05-25T08:37:50.000Z</time>
      </trkpt>
      <trkpt lat="47.54478" lon="6.68558">
        <ele>381</ele>
        <time>2015-05-25T08:37:51.000Z</time>
      </trkpt>
      <trkpt lat="47.54479" lon="6.68551">
        <ele>381</ele>
        <time>2015-05-25T08:37:52.000Z</time>
      </trkpt>
      <trkpt lat="47.54479" lon="6.68545">
        <ele>381</ele>
        <time>2015-05-25T08:37:53.000Z</time>
      </trkpt>
      <trkpt lat="47.5448" lon="6.68539">
        <ele>381</ele>
        <time>2015-05-25T08:37:54.000Z</time>
      </trkpt>
      <trkpt lat="47.54481" lon="6.68532">
        <ele>381</ele>
        <time>2015-05-25T08:37:55.000Z</time>
      </trkpt>
      <trkpt lat="47.54483" lon="6.68526">
        <ele>381</ele>
        <time>2015-05-25T08:37:56.000Z</time>
      </trkpt>
      <trkpt lat="47.54484" lon="6.68519">
        <ele>381</ele>
        <time>2015-05-25T08:37:57.000Z</time>
      </trkpt>
      <trkpt lat="47.54485" lon="6.68514">
        <ele>381</ele>
        <time>2015-05-25T08:37:58.000Z</time>
      </trkpt>
      <trkpt lat="47.54485" lon="6.68506">
        <ele>381</ele>
        <time>2015-05-25T08:37:59.000Z</time>
      </trkpt>
      <trkpt lat="47.54486" lon="6.685">
        <ele>381</ele>
        <time>2015-05-25T08:38:00.000Z</time>
      </trkpt>
      <trkpt lat="47.54487" lon="6.68494">
        <ele>381</ele>
        <time>2015-05-25T08:38:01.000Z</time>
      </trkpt>
      <trkpt lat="47.54488" lon="6.68487">
        <ele>381</ele>
        <time>2015-05-25T08:38:02.000Z</time>
      </trkpt>
      <trkpt lat="47.54489" lon="6.68481">
        <ele>381</ele>
        <time>2015-05-25T08:38:03.000Z</time>
      </trkpt>
      <trkpt lat="47.54491" lon="6.68475">
        <ele>381</ele>
        <time>2015-05-25T08:38:04.000Z</time>
      </trkpt>
      <trkpt lat="47.54492" lon="6.68469">
        <ele>381</ele>
        <time>2015-05-25T08:38:05.000Z</time>
      </trkpt>
      <trkpt lat="47.54493" lon="6.68462">
        <ele>381</ele>
        <time>2015-05-25T08:38:06.000Z</time>
      </trkpt>
      <trkpt lat="47.54494" lon="6.68456">
        <ele>381</ele>
        <time>2015-05-25T08:38:07.000Z</time>
      </trkpt>
      <trkpt lat="47.54496" lon="6.6845">
        <ele>381</ele>
        <time>2015-05-25T08:38:08.000Z</time>
      </trkpt>
      <trkpt lat="47.54497" lon="6.68443">
        <ele>381</ele>
        <time>2015-05-25T08:38:09.000Z</time>
      </trkpt>
      <trkpt lat="47.54497" lon="6.68436">
        <ele>381</ele>
        <time>2015-05-25T08:38:10.000Z</time>
      </trkpt>
      <trkpt lat="47.54498" lon="6.6843">
        <ele>381</ele>
        <time>2015-05-25T08:38:11.000Z</time>
      </trkpt>
      <trkpt lat="47.54499" lon="6.68423">
        <ele>382</ele>
        <time>2015-05-25T08:38:12.000Z</time>
      </trkpt>
      <trkpt lat="47.54499" lon="6.68416">
        <ele>382</ele>
        <time>2015-05-25T08:38:13.000Z</time>
      </trkpt>
      <trkpt lat="47.54501" lon="6.6841">
        <ele>383</ele>
        <time>2015-05-25T08:38:14.000Z</time>
      </trkpt>
      <trkpt lat="47.54502" lon="6.68403">
        <ele>384</ele>
        <time>2015-05-25T08:38:15.000Z</time>
      </trkpt>
      <trkpt lat="47.54505" lon="6.68397">
        <ele>384</ele>
        <time>2015-05-25T08:38:16.000Z</time>
      </trkpt>
      <trkpt lat="47.54507" lon="6.68391">
        <ele>384</ele>
        <time>2015-05-25T08:38:17.000Z</time>
      </trkpt>
      <trkpt lat="47.54509" lon="6.68385">
        <ele>385</ele>
        <time>2015-05-25T08:38:18.000Z</time>
      </trkpt>
      <trkpt lat="47.54513" lon="6.6838">
        <ele>385</ele>
        <time>2015-05-25T08:38:19.000Z</time>
      </trkpt>
      <trkpt lat="47.54514" lon="6.68375">
        <ele>385</ele>
        <time>2015-05-25T08:38:20.000Z</time>
      </trkpt>
      <trkpt lat="47.54515" lon="6.6837">
        <ele>385</ele>
        <time>2015-05-25T08:38:21.000Z</time>
      </trkpt>
      <trkpt lat="47.54516" lon="6.68365">
        <ele>385</ele>
        <time>2015-05-25T08:38:22.000Z</time>
      </trkpt>
      <trkpt lat="47.54517" lon="6.68359">
        <ele>385</ele>
        <time>2015-05-25T08:38:23.000Z</time>
      </trkpt>
      <trkpt lat="47.54517" lon="6.68355">
        <ele>385</ele>
        <time>2015-05-25T08:38:24.000Z</time>
      </trkpt>
      <trkpt lat="47.54517" lon="6.68351">
        <ele>385</ele>
        <time>2015-05-25T08:38:25.000Z</time>
      </trkpt>
      <trkpt lat="47.54515" lon="6.68345">
        <ele>385</ele>
        <time>2015-05-25T08:38:30.000Z</time>
      </trkpt>
      <trkpt lat="47.54515" lon="6.68344">
        <ele>385</ele>
        <time>2015-05-25T08:38:31.000Z</time>
      </trkpt>
      <trkpt lat="47.54517" lon="6.6834">
        <ele>385</ele>
        <time>2015-05-25T08:39:11.000Z</time>
      </trkpt>
      <trkpt lat="47.54517" lon="6.68338">
        <ele>385</ele>
        <time>2015-05-25T08:39:12.000Z</time>
      </trkpt>
      <trkpt lat="47.54518" lon="6.68335">
        <ele>385</ele>
        <time>2015-05-25T08:39:13.000Z</time>
      </trkpt>
      <trkpt lat="47.54519" lon="6.68332">
        <ele>387</ele>
        <time>2015-05-25T08:39:14.000Z</time>
      </trkpt>
      <trkpt lat="47.5452" lon="6.68328">
        <ele>387</ele>
        <time>2015-05-25T08:39:15.000Z</time>
      </trkpt>
      <trkpt lat="47.5452" lon="6.68323">
        <ele>387</ele>
        <time>2015-05-25T08:39:16.000Z</time>
      </trkpt>
      <trkpt lat="47.54521" lon="6.68318">
        <ele>387</ele>
        <time>2015-05-25T08:39:17.000Z</time>
      </trkpt>
      <trkpt lat="47.54521" lon="6.68313">
        <ele>387</ele>
        <time>2015-05-25T08:39:18.000Z</time>
      </trkpt>
      <trkpt lat="47.54522" lon="6.68308">
        <ele>387</ele>
        <time>2015-05-25T08:39:19.000Z</time>
      </trkpt>
      <trkpt lat="47.54523" lon="6.68303">
        <ele>387</ele>
        <time>2015-05-25T08:39:20.000Z</time>
      </trkpt>
      <trkpt lat="47.54525" lon="6.68298">
        <ele>388</ele>
        <time>2015-05-25T08:39:21.000Z</time>
      </trkpt>
      <trkpt lat="47.54526" lon="6.68293">
        <ele>388</ele>
        <time>2015-05-25T08:39:22.000Z</time>
      </trkpt>
      <trkpt lat="47.54527" lon="6.68288">
        <ele>388</ele>
        <time>2015-05-25T08:39:23.000Z</time>
      </trkpt>
      <trkpt lat="47.54528" lon="6.68284">
        <ele>388</ele>
        <time>2015-05-25T08:39:24.000Z</time>
      </trkpt>
      <trkpt lat="47.54529" lon="6.6828">
        <ele>388</ele>
        <time>2015-05-25T08:39:25.000Z</time>
      </trkpt>
      <trkpt lat="47.5453" lon="6.68276">
        <ele>388</ele>
        <time>2015-05-25T08:39:26.000Z</time>
      </trkpt>
      <trkpt lat="47.54531" lon="6.68271">
        <ele>388</ele>
        <time>2015-05-25T08:39:27.000Z</time>
      </trkpt>
      <trkpt lat="47.54531" lon="6.68266">
        <ele>388</ele>
        <time>2015-05-25T08:39:28.000Z</time>
      </trkpt>
      <trkpt lat="47.54532" lon="6.68262">
        <ele>388</ele>
        <time>2015-05-25T08:39:29.000Z</time>
      </trkpt>
      <trkpt lat="47.54533" lon="6.68257">
        <ele>388</ele>
        <time>2015-05-25T08:39:30.000Z</time>
      </trkpt>
      <trkpt lat="47.54534" lon="6.68251">
        <ele>388</ele>
        <time>2015-05-25T08:39:31.000Z</time>
      </trkpt>
      <trkpt lat="47.54535" lon="6.68246">
        <ele>389</ele>
        <time>2015-05-25T08:39:32.000Z</time>
      </trkpt>
      <trkpt lat="47.54536" lon="6.68241">
        <ele>389</ele>
        <time>2015-05-25T08:39:33.000Z</time>
      </trkpt>
      <trkpt lat="47.54537" lon="6.68236">
        <ele>389</ele>
        <time>2015-05-25T08:39:34.000Z</time>
      </trkpt>
      <trkpt lat="47.54538" lon="6.68231">
        <ele>389</ele>
        <time>2015-05-25T08:39:35.000Z</time>
      </trkpt>
      <trkpt lat="47.54538" lon="6.68226">
        <ele>390</ele>
        <time>2015-05-25T08:39:36.000Z</time>
      </trkpt>
      <trkpt lat="47.54539" lon="6.68221">
        <ele>390</ele>
        <time>2015-05-25T08:39:37.000Z</time>
      </trkpt>
      <trkpt lat="47.5454" lon="6.68216">
        <ele>390</ele>
        <time>2015-05-25T08:39:38.000Z</time>
      </trkpt>
      <trkpt lat="47.54542" lon="6.68212">
        <ele>390</ele>
        <time>2015-05-25T08:39:39.000Z</time>
      </trkpt>
      <trkpt lat="47.54543" lon="6.68208">
        <ele>390</ele>
        <time>2015-05-25T08:39:40.000Z</time>
      </trkpt>
      <trkpt lat="47.54545" lon="6.68203">
        <ele>390</ele>
        <time>2015-05-25T08:39:41.000Z</time>
      </trkpt>
      <trkpt lat="47.54546" lon="6.68198">
        <ele>390</ele>
        <time>2015-05-25T08:39:42.000Z</time>
      </trkpt>
      <trkpt lat="47.54547" lon="6.68193">
        <ele>390</ele>
        <time>2015-05-25T08:39:43.000Z</time>
      </trkpt>
      <trkpt lat="47.54549" lon="6.68188">
        <ele>390</ele>
        <time>2015-05-25T08:39:44.000Z</time>
      </trkpt>
      <trkpt lat="47.5455" lon="6.68183">
        <ele>390</ele>
        <time>2015-05-25T08:39:45.000Z</time>
      </trkpt>
      <trkpt lat="47.54551" lon="6.68177">
        <ele>390</ele>
        <time>2015-05-25T08:39:46.000Z</time>
      </trkpt>
      <trkpt lat="47.54552" lon="6.68172">
        <ele>390</ele>
        <time>2015-05-25T08:39:47.000Z</time>
      </trkpt>
      <trkpt lat="47.54553" lon="6.68168">
        <ele>391</ele>
        <time>2015-05-25T08:39:48.000Z</time>
      </trkpt>
      <trkpt lat="47.54555" lon="6.68163">
        <ele>391</ele>
        <time>2015-05-25T08:39:49.000Z</time>
      </trkpt>
      <trkpt lat="47.54556" lon="6.68158">
        <ele>391</ele>
        <time>2015-05-25T08:39:50.000Z</time>
      </trkpt>
      <trkpt lat="47.54558" lon="6.68154">
        <ele>391</ele>
        <time>2015-05-25T08:39:51.000Z</time>
      </trkpt>
      <trkpt lat="47.54559" lon="6.6815">
        <ele>392</ele>
        <time>2015-05-25T08:39:52.000Z</time>
      </trkpt>
      <trkpt lat="47.5456" lon="6.68146">
        <ele>392</ele>
        <time>2015-05-25T08:39:53.000Z</time>
      </trkpt>
      <trkpt lat="47.54562" lon="6.68142">
        <ele>392</ele>
        <time>2015-05-25T08:39:54.000Z</time>
      </trkpt>
      <trkpt lat="47.54563" lon="6.68138">
        <ele>392</ele>
        <time>2015-05-25T08:39:55.000Z</time>
      </trkpt>
      <trkpt lat="47.54565" lon="6.68134">
        <ele>392</ele>
        <time>2015-05-25T08:39:56.000Z</time>
      </trkpt>
      <trkpt lat="47.54566" lon="6.6813">
        <ele>392</ele>
        <time>2015-05-25T08:39:57.000Z</time>
      </trkpt>
      <trkpt lat="47.54567" lon="6.68126">
        <ele>392</ele>
        <time>2015-05-25T08:39:58.000Z</time>
      </trkpt>
      <trkpt lat="47.54568" lon="6.68122">
        <ele>392</ele>
        <time>2015-05-25T08:39:59.000Z</time>
      </trkpt>
      <trkpt lat="47.54569" lon="6.68118">
        <ele>392</ele>
        <time>2015-05-25T08:40:00.000Z</time>
      </trkpt>
      <trkpt lat="47.54571" lon="6.68114">
        <ele>392</ele>
        <time>2015-05-25T08:40:01.000Z</time>
      </trkpt>
      <trkpt lat="47.54572" lon="6.68111">
        <ele>392</ele>
        <time>2015-05-25T08:40:02.000Z</time>
      </trkpt>
      <trkpt lat="47.54573" lon="6.68107">
        <ele>392</ele>
        <time>2015-05-25T08:40:03.000Z</time>
      </trkpt>
      <trkpt lat="47.54574" lon="6.68102">
        <ele>392</ele>
        <time>2015-05-25T08:40:04.000Z</time>
      </trkpt>
      <trkpt lat="47.54574" lon="6.68098">
        <ele>393</ele>
        <time>2015-05-25T08:40:05.000Z</time>
      </trkpt>
      <trkpt lat="47.54575" lon="6.68094">
        <ele>393</ele>
        <time>2015-05-25T08:40:06.000Z</time>
      </trkpt>
      <trkpt lat="47.54575" lon="6.68089">
        <ele>393</ele>
        <time>2015-05-25T08:40:07.000Z</time>
      </trkpt>
      <trkpt lat="47.54576" lon="6.68084">
        <ele>393</ele>
        <time>2015-05-25T08:40:08.000Z</time>
      </trkpt>
      <trkpt lat="47.54578" lon="6.6808">
        <ele>394</ele>
        <time>2015-05-25T08:40:09.000Z</time>
      </trkpt>
      <trkpt lat="47.54579" lon="6.68075">
        <ele>394</ele>
        <time>2015-05-25T08:40:10.000Z</time>
      </trkpt>
      <trkpt lat="47.5458" lon="6.68069">
        <ele>394</ele>
        <time>2015-05-25T08:40:11.000Z</time>
      </trkpt>
      <trkpt lat="47.54581" lon="6.68064">
        <ele>394</ele>
        <time>2015-05-25T08:40:12.000Z</time>
      </trkpt>
      <trkpt lat="47.54582" lon="6.6806">
        <ele>394</ele>
        <time>2015-05-25T08:40:13.000Z</time>
      </trkpt>
      <trkpt lat="47.54583" lon="6.68056">
        <ele>394</ele>
        <time>2015-05-25T08:40:14.000Z</time>
      </trkpt>
      <trkpt lat="47.54583" lon="6.68052">
        <ele>394</ele>
        <time>2015-05-25T08:40:15.000Z</time>
      </trkpt>
      <trkpt lat="47.54584" lon="6.68048">
        <ele>397</ele>
        <time>2015-05-25T08:40:16.000Z</time>
      </trkpt>
      <trkpt lat="47.54585" lon="6.68044">
        <ele>397</ele>
        <time>2015-05-25T08:40:17.000Z</time>
      </trkpt>
      <trkpt lat="47.54586" lon="6.6804">
        <ele>397</ele>
        <time>2015-05-25T08:40:18.000Z</time>
      </trkpt>
      <trkpt lat="47.54587" lon="6.68036">
        <ele>397</ele>
        <time>2015-05-25T08:40:19.000Z</time>
      </trkpt>
      <trkpt lat="47.54588" lon="6.68031">
        <ele>397</ele>
        <time>2015-05-25T08:40:20.000Z</time>
      </trkpt>
      <trkpt lat="47.54588" lon="6.68027">
        <ele>397</ele>
        <time>2015-05-25T08:40:21.000Z</time>
      </trkpt>
      <trkpt lat="47.54589" lon="6.68023">
        <ele>397</ele>
        <time>2015-05-25T08:40:22.000Z</time>
      </trkpt>
      <trkpt lat="47.54589" lon="6.68019">
        <ele>397</ele>
        <time>2015-05-25T08:40:23.000Z</time>
      </trkpt>
      <trkpt lat="47.54589" lon="6.68015">
        <ele>397</ele>
        <time>2015-05-25T08:40:24.000Z</time>
      </trkpt>
      <trkpt lat="47.5459" lon="6.68011">
        <ele>397</ele>
        <time>2015-05-25T08:40:25.000Z</time>
      </trkpt>
      <trkpt lat="47.54591" lon="6.68007">
        <ele>397</ele>
        <time>2015-05-25T08:40:26.000Z</time>
      </trkpt>
      <trkpt lat="47.54592" lon="6.68002">
        <ele>397</ele>
        <time>2015-05-25T08:40:27.000Z</time>
      </trkpt>
      <trkpt lat="47.54593" lon="6.67998">
        <ele>398</ele>
        <time>2015-05-25T08:40:28.000Z</time>
      </trkpt>
      <trkpt lat="47.54594" lon="6.67994">
        <ele>398</ele>
        <time>2015-05-25T08:40:29.000Z</time>
      </trkpt>
      <trkpt lat="47.54594" lon="6.67989">
        <ele>399</ele>
        <time>2015-05-25T08:40:30.000Z</time>
      </trkpt>
      <trkpt lat="47.54595" lon="6.67985">
        <ele>399</ele>
        <time>2015-05-25T08:40:31.000Z</time>
      </trkpt>
      <trkpt lat="47.54596" lon="6.67981">
        <ele>399</ele>
        <time>2015-05-25T08:40:32.000Z</time>
      </trkpt>
      <trkpt lat="47.54596" lon="6.67978">
        <ele>400</ele>
        <time>2015-05-25T08:40:33.000Z</time>
      </trkpt>
      <trkpt lat="47.54596" lon="6.67975">
        <ele>400</ele>
        <time>2015-05-25T08:40:34.000Z</time>
      </trkpt>
      <trkpt lat="47.54596" lon="6.6797">
        <ele>400</ele>
        <time>2015-05-25T08:40:36.000Z</time>
      </trkpt>
      <trkpt lat="47.54596" lon="6.67968">
        <ele>400</ele>
        <time>2015-05-25T08:40:37.000Z</time>
      </trkpt>
      <trkpt lat="47.54595" lon="6.67963">
        <ele>400</ele>
        <time>2015-05-25T08:40:39.000Z</time>
      </trkpt>
      <trkpt lat="47.54595" lon="6.67959">
        <ele>400</ele>
        <time>2015-05-25T08:40:40.000Z</time>
      </trkpt>
      <trkpt lat="47.54594" lon="6.67955">
        <ele>400</ele>
        <time>2015-05-25T08:40:41.000Z</time>
      </trkpt>
      <trkpt lat="47.54594" lon="6.67951">
        <ele>401</ele>
        <time>2015-05-25T08:40:42.000Z</time>
      </trkpt>
      <trkpt lat="47.54595" lon="6.67947">
        <ele>401</ele>
        <time>2015-05-25T08:40:43.000Z</time>
      </trkpt>
      <trkpt lat="47.54596" lon="6.67944">
        <ele>401</ele>
        <time>2015-05-25T08:40:44.000Z</time>
      </trkpt>
      <trkpt lat="47.54597" lon="6.6794">
        <ele>401</ele>
        <time>2015-05-25T08:40:45.000Z</time>
      </trkpt>
      <trkpt lat="47.54598" lon="6.67936">
        <ele>401</ele>
        <time>2015-05-25T08:40:46.000Z</time>
      </trkpt>
      <trkpt lat="47.54599" lon="6.67933">
        <ele>401</ele>
        <time>2015-05-25T08:40:47.000Z</time>
      </trkpt>
      <trkpt lat="47.54599" lon="6.67929">
        <ele>401</ele>
        <time>2015-05-25T08:40:48.000Z</time>
      </trkpt>
      <trkpt lat="47.54599" lon="6.67925">
        <ele>401</ele>
        <time>2015-05-25T08:40:49.000Z</time>
      </trkpt>
      <trkpt lat="47.546" lon="6.67921">
        <ele>401</ele>
        <time>2015-05-25T08:40:50.000Z</time>
      </trkpt>
      <trkpt lat="47.54601" lon="6.67917">
        <ele>401</ele>
        <time>2015-05-25T08:40:51.000Z</time>
      </trkpt>
      <trkpt lat="47.54602" lon="6.67913">
        <ele>402</ele>
        <time>2015-05-25T08:40:52.000Z</time>
      </trkpt>
      <trkpt lat="47.54603" lon="6.67909">
        <ele>403</ele>
        <time>2015-05-25T08:40:53.000Z</time>
      </trkpt>
      <trkpt lat="47.54604" lon="6.67905">
        <ele>403</ele>
        <time>2015-05-25T08:40:54.000Z</time>
      </trkpt>
      <trkpt lat="47.54604" lon="6.679">
        <ele>403</ele>
        <time>2015-05-25T08:40:55.000Z</time>
      </trkpt>
      <trkpt lat="47.54605" lon="6.67896">
        <ele>403</ele>
        <time>2015-05-25T08:40:56.000Z</time>
      </trkpt>
      <trkpt lat="47.54605" lon="6.67892">
        <ele>403</ele>
        <time>2015-05-25T08:40:57.000Z</time>
      </trkpt>
      <trkpt lat="47.54605" lon="6.67887">
        <ele>404</ele>
        <time>2015-05-25T08:40:58.000Z</time>
      </trkpt>
      <trkpt lat="47.54606" lon="6.67883">
        <ele>404</ele>
        <time>2015-05-25T08:40:59.000Z</time>
      </trkpt>
      <trkpt lat="47.54606" lon="6.67878">
        <ele>404</ele>
        <time>2015-05-25T08:41:00.000Z</time>
      </trkpt>
      <trkpt lat="47.54607" lon="6.67873">
        <ele>404</ele>
        <time>2015-05-25T08:41:01.000Z</time>
      </trkpt>
      <trkpt lat="47.54607" lon="6.67869">
        <ele>404</ele>
        <time>2015-05-25T08:41:02.000Z</time>
      </trkpt>
      <trkpt lat="47.54608" lon="6.67864">
        <ele>404</ele>
        <time>2015-05-25T08:41:03.000Z</time>
      </trkpt>
      <trkpt lat="47.54609" lon="6.6786">
        <ele>404</ele>
        <time>2015-05-25T08:41:04.000Z</time>
      </trkpt>
      <trkpt lat="47.5461" lon="6.67855">
        <ele>404</ele>
        <time>2015-05-25T08:41:05.000Z</time>
      </trkpt>
      <trkpt lat="47.54611" lon="6.6785">
        <ele>404</ele>
        <time>2015-05-25T08:41:06.000Z</time>
      </trkpt>
      <trkpt lat="47.54612" lon="6.67846">
        <ele>404</ele>
        <time>2015-05-25T08:41:07.000Z</time>
      </trkpt>
      <trkpt lat="47.54612" lon="6.67841">
        <ele>404</ele>
        <time>2015-05-25T08:41:08.000Z</time>
      </trkpt>
      <trkpt lat="47.54613" lon="6.67837">
        <ele>404</ele>
        <time>2015-05-25T08:41:09.000Z</time>
      </trkpt>
      <trkpt lat="47.54612" lon="6.67832">
        <ele>406</ele>
        <time>2015-05-25T08:41:10.000Z</time>
      </trkpt>
      <trkpt lat="47.54612" lon="6.67828">
        <ele>406</ele>
        <time>2015-05-25T08:41:11.000Z</time>
      </trkpt>
      <trkpt lat="47.54611" lon="6.67825">
        <ele>406</ele>
        <time>2015-05-25T08:41:12.000Z</time>
      </trkpt>
      <trkpt lat="47.54611" lon="6.67821">
        <ele>406</ele>
        <time>2015-05-25T08:41:13.000Z</time>
      </trkpt>
      <trkpt lat="47.54611" lon="6.67817">
        <ele>407</ele>
        <time>2015-05-25T08:41:14.000Z</time>
      </trkpt>
      <trkpt lat="47.54612" lon="6.67813">
        <ele>407</ele>
        <time>2015-05-25T08:41:15.000Z</time>
      </trkpt>
      <trkpt lat="47.54612" lon="6.67809">
        <ele>407</ele>
        <time>2015-05-25T08:41:16.000Z</time>
      </trkpt>
      <trkpt lat="47.54614" lon="6.67805">
        <ele>407</ele>
        <time>2015-05-25T08:41:17.000Z</time>
      </trkpt>
      <trkpt lat="47.54615" lon="6.67801">
        <ele>407</ele>
        <time>2015-05-25T08:41:18.000Z</time>
      </trkpt>
      <trkpt lat="47.54616" lon="6.67797">
        <ele>407</ele>
        <time>2015-05-25T08:41:19.000Z</time>
      </trkpt>
      <trkpt lat="47.54617" lon="6.67793">
        <ele>407</ele>
        <time>2015-05-25T08:41:20.000Z</time>
      </trkpt>
      <trkpt lat="47.54618" lon="6.67789">
        <ele>408</ele>
        <time>2015-05-25T08:41:21.000Z</time>
      </trkpt>
      <trkpt lat="47.54619" lon="6.67785">
        <ele>408</ele>
        <time>2015-05-25T08:41:22.000Z</time>
      </trkpt>
      <trkpt lat="47.5462" lon="6.67781">
        <ele>408</ele>
        <time>2015-05-25T08:41:23.000Z</time>
      </trkpt>
      <trkpt lat="47.54621" lon="6.67776">
        <ele>408</ele>
        <time>2015-05-25T08:41:24.000Z</time>
      </trkpt>
      <trkpt lat="47.54621" lon="6.67772">
        <ele>408</ele>
        <time>2015-05-25T08:41:25.000Z</time>
      </trkpt>
      <trkpt lat="47.54621" lon="6.67767">
        <ele>408</ele>
        <time>2015-05-25T08:41:26.000Z</time>
      </trkpt>
      <trkpt lat="47.5462" lon="6.67763">
        <ele>408</ele>
        <time>2015-05-25T08:41:27.000Z</time>
      </trkpt>
      <trkpt lat="47.54618" lon="6.67758">
        <ele>408</ele>
        <time>2015-05-25T08:41:28.000Z</time>
      </trkpt>
      <trkpt lat="47.54617" lon="6.67754">
        <ele>408</ele>
        <time>2015-05-25T08:41:29.000Z</time>
      </trkpt>
      <trkpt lat="47.54617" lon="6.6775">
        <ele>409</ele>
        <time>2015-05-25T08:41:30.000Z</time>
      </trkpt>
      <trkpt lat="47.54617" lon="6.67745">
        <ele>409</ele>
        <time>2015-05-25T08:41:31.000Z</time>
      </trkpt>
      <trkpt lat="47.54618" lon="6.6774">
        <ele>410</ele>
        <time>2015-05-25T08:41:32.000Z</time>
      </trkpt>
      <trkpt lat="47.54618" lon="6.67735">
        <ele>410</ele>
        <time>2015-05-25T08:41:33.000Z</time>
      </trkpt>
      <trkpt lat="47.54619" lon="6.67731">
        <ele>410</ele>
        <time>2015-05-25T08:41:34.000Z</time>
      </trkpt>
      <trkpt lat="47.5462" lon="6.67727">
        <ele>410</ele>
        <time>2015-05-25T08:41:35.000Z</time>
      </trkpt>
      <trkpt lat="47.54621" lon="6.67723">
        <ele>410</ele>
        <time>2015-05-25T08:41:36.000Z</time>
      </trkpt>
      <trkpt lat="47.54622" lon="6.67719">
        <ele>410</ele>
        <time>2015-05-25T08:41:37.000Z</time>
      </trkpt>
      <trkpt lat="47.54623" lon="6.67714">
        <ele>410</ele>
        <time>2015-05-25T08:41:38.000Z</time>
      </trkpt>
      <trkpt lat="47.54625" lon="6.67708">
        <ele>410</ele>
        <time>2015-05-25T08:41:39.000Z</time>
      </trkpt>
      <trkpt lat="47.54626" lon="6.67702">
        <ele>410</ele>
        <time>2015-05-25T08:41:40.000Z</time>
      </trkpt>
      <trkpt lat="47.54627" lon="6.67696">
        <ele>410</ele>
        <time>2015-05-25T08:41:41.000Z</time>
      </trkpt>
      <trkpt lat="47.54628" lon="6.6769">
        <ele>410</ele>
        <time>2015-05-25T08:41:42.000Z</time>
      </trkpt>
      <trkpt lat="47.54628" lon="6.67685">
        <ele>410</ele>
        <time>2015-05-25T08:41:43.000Z</time>
      </trkpt>
      <trkpt lat="47.54628" lon="6.67681">
        <ele>410</ele>
        <time>2015-05-25T08:41:44.000Z</time>
      </trkpt>
      <trkpt lat="47.54628" lon="6.67676">
        <ele>410</ele>
        <time>2015-05-25T08:41:45.000Z</time>
      </trkpt>
      <trkpt lat="47.54629" lon="6.67673">
        <ele>410</ele>
        <time>2015-05-25T08:41:46.000Z</time>
      </trkpt>
      <trkpt lat="47.5463" lon="6.6767">
        <ele>410</ele>
        <time>2015-05-25T08:41:47.000Z</time>
      </trkpt>
      <trkpt lat="47.54632" lon="6.67668">
        <ele>410</ele>
        <time>2015-05-25T08:41:48.000Z</time>
      </trkpt>
      <trkpt lat="47.54634" lon="6.67665">
        <ele>410</ele>
        <time>2015-05-25T08:41:49.000Z</time>
      </trkpt>
      <trkpt lat="47.54636" lon="6.67663">
        <ele>410</ele>
        <time>2015-05-25T08:41:50.000Z</time>
      </trkpt>
      <trkpt lat="47.54639" lon="6.67661">
        <ele>411</ele>
        <time>2015-05-25T08:41:51.000Z</time>
      </trkpt>
      <trkpt lat="47.54642" lon="6.6766">
        <ele>411</ele>
        <time>2015-05-25T08:41:52.000Z</time>
      </trkpt>
      <trkpt lat="47.54644" lon="6.67659">
        <ele>411</ele>
        <time>2015-05-25T08:41:53.000Z</time>
      </trkpt>
      <trkpt lat="47.54647" lon="6.67659">
        <ele>411</ele>
        <time>2015-05-25T08:41:54.000Z</time>
      </trkpt>
      <trkpt lat="47.5465" lon="6.67659">
        <ele>411</ele>
        <time>2015-05-25T08:41:55.000Z</time>
      </trkpt>
      <trkpt lat="47.54652" lon="6.67661">
        <ele>411</ele>
        <time>2015-05-25T08:41:56.000Z</time>
      </trkpt>
      <trkpt lat="47.54655" lon="6.67663">
        <ele>411</ele>
        <time>2015-05-25T08:41:57.000Z</time>
      </trkpt>
      <trkpt lat="47.54657" lon="6.67664">
        <ele>411</ele>
        <time>2015-05-25T08:41:58.000Z</time>
      </trkpt>
      <trkpt lat="47.5466" lon="6.67665">
        <ele>411</ele>
        <time>2015-05-25T08:41:59.000Z</time>
      </trkpt>
      <trkpt lat="47.54662" lon="6.67666">
        <ele>412</ele>
        <time>2015-05-25T08:42:00.000Z</time>
      </trkpt>
      <trkpt lat="47.54664" lon="6.67666">
        <ele>412</ele>
        <time>2015-05-25T08:42:01.000Z</time>
      </trkpt>
      <trkpt lat="47.54667" lon="6.67667">
        <ele>412</ele>
        <time>2015-05-25T08:42:02.000Z</time>
      </trkpt>
      <trkpt lat="47.5467" lon="6.67668">
        <ele>413</ele>
        <time>2015-05-25T08:42:03.000Z</time>
      </trkpt>
      <trkpt lat="47.54673" lon="6.67668">
        <ele>413</ele>
        <time>2015-05-25T08:42:04.000Z</time>
      </trkpt>
      <trkpt lat="47.54676" lon="6.67668">
        <ele>414</ele>
        <time>2015-05-25T08:42:05.000Z</time>
      </trkpt>
      <trkpt lat="47.54679" lon="6.67668">
        <ele>414</ele>
        <time>2015-05-25T08:42:06.000Z</time>
      </trkpt>
      <trkpt lat="47.54682" lon="6.67667">
        <ele>414</ele>
        <time>2015-05-25T08:42:07.000Z</time>
      </trkpt>
      <trkpt lat="47.54686" lon="6.67664">
        <ele>414</ele>
        <time>2015-05-25T08:42:08.000Z</time>
      </trkpt>
      <trkpt lat="47.54688" lon="6.67661">
        <ele>414</ele>
        <time>2015-05-25T08:42:09.000Z</time>
      </trkpt>
      <trkpt lat="47.54691" lon="6.67659">
        <ele>414</ele>
        <time>2015-05-25T08:42:10.000Z</time>
      </trkpt>
      <trkpt lat="47.54695" lon="6.67658">
        <ele>415</ele>
        <time>2015-05-25T08:42:12.000Z</time>
      </trkpt>
      <trkpt lat="47.54697" lon="6.67658">
        <ele>415</ele>
        <time>2015-05-25T08:42:13.000Z</time>
      </trkpt>
      <trkpt lat="47.547" lon="6.67661">
        <ele>415</ele>
        <time>2015-05-25T08:42:15.000Z</time>
      </trkpt>
      <trkpt lat="47.54701" lon="6.67663">
        <ele>415</ele>
        <time>2015-05-25T08:42:16.000Z</time>
      </trkpt>
      <trkpt lat="47.54705" lon="6.67666">
        <ele>416</ele>
        <time>2015-05-25T08:42:18.000Z</time>
      </trkpt>
      <trkpt lat="47.54707" lon="6.67666">
        <ele>416</ele>
        <time>2015-05-25T08:42:19.000Z</time>
      </trkpt>
      <trkpt lat="47.54709" lon="6.67667">
        <ele>417</ele>
        <time>2015-05-25T08:42:20.000Z</time>
      </trkpt>
      <trkpt lat="47.54712" lon="6.67668">
        <ele>418</ele>
        <time>2015-05-25T08:42:21.000Z</time>
      </trkpt>
      <trkpt lat="47.54714" lon="6.67669">
        <ele>418</ele>
        <time>2015-05-25T08:42:22.000Z</time>
      </trkpt>
      <trkpt lat="47.54717" lon="6.67669">
        <ele>418</ele>
        <time>2015-05-25T08:42:23.000Z</time>
      </trkpt>
      <trkpt lat="47.54719" lon="6.67672">
        <ele>418</ele>
        <time>2015-05-25T08:42:25.000Z</time>
      </trkpt>
      <trkpt lat="47.5472" lon="6.67674">
        <ele>418</ele>
        <time>2015-05-25T08:42:26.000Z</time>
      </trkpt>
      <trkpt lat="47.5472" lon="6.67679">
        <ele>418</ele>
        <time>2015-05-25T08:42:29.000Z</time>
      </trkpt>
      <trkpt lat="47.54721" lon="6.67681">
        <ele>418</ele>
        <time>2015-05-25T08:42:30.000Z</time>
      </trkpt>
      <trkpt lat="47.54725" lon="6.67682">
        <ele>419</ele>
        <time>2015-05-25T08:42:34.000Z</time>
      </trkpt>
      <trkpt lat="47.54726" lon="6.67685">
        <ele>419</ele>
        <time>2015-05-25T08:42:35.000Z</time>
      </trkpt>
      <trkpt lat="47.54728" lon="6.67688">
        <ele>419</ele>
        <time>2015-05-25T08:42:36.000Z</time>
      </trkpt>
      <trkpt lat="47.54729" lon="6.67691">
        <ele>419</ele>
        <time>2015-05-25T08:42:37.000Z</time>
      </trkpt>
      <trkpt lat="47.54731" lon="6.67694">
        <ele>419</ele>
        <time>2015-05-25T08:42:38.000Z</time>
      </trkpt>
      <trkpt lat="47.54732" lon="6.67696">
        <ele>419</ele>
        <time>2015-05-25T08:42:39.000Z</time>
      </trkpt>
      <trkpt lat="47.54735" lon="6.67695">
        <ele>419</ele>
        <time>2015-05-25T08:42:40.000Z</time>
      </trkpt>
      <trkpt lat="47.54738" lon="6.67694">
        <ele>419</ele>
        <time>2015-05-25T08:42:41.000Z</time>
      </trkpt>
      <trkpt lat="47.5474" lon="6.67693">
        <ele>419</ele>
        <time>2015-05-25T08:42:42.000Z</time>
      </trkpt>
      <trkpt lat="47.54743" lon="6.67692">
        <ele>419</ele>
        <time>2015-05-25T08:42:43.000Z</time>
      </trkpt>
      <trkpt lat="47.54747" lon="6.67693">
        <ele>420</ele>
        <time>2015-05-25T08:42:45.000Z</time>
      </trkpt>
      <trkpt lat="47.54749" lon="6.67695">
        <ele>420</ele>
        <time>2015-05-25T08:42:46.000Z</time>
      </trkpt>
      <trkpt lat="47.54752" lon="6.67698">
        <ele>426</ele>
        <time>2015-05-25T08:42:48.000Z</time>
      </trkpt>
      <trkpt lat="47.54754" lon="6.67699">
        <ele>426</ele>
        <time>2015-05-25T08:42:49.000Z</time>
      </trkpt>
      <trkpt lat="47.54758" lon="6.677">
        <ele>426</ele>
        <time>2015-05-25T08:42:52.000Z</time>
      </trkpt>
      <trkpt lat="47.54759" lon="6.677">
        <ele>426</ele>
        <time>2015-05-25T08:42:53.000Z</time>
      </trkpt>
      <trkpt lat="47.54762" lon="6.67705">
        <ele>426</ele>
        <time>2015-05-25T08:42:58.000Z</time>
      </trkpt>
      <trkpt lat="47.54763" lon="6.67706">
        <ele>426</ele>
        <time>2015-05-25T08:42:59.000Z</time>
      </trkpt>
      <trkpt lat="47.54766" lon="6.67709">
        <ele>427</ele>
        <time>2015-05-25T08:43:01.000Z</time>
      </trkpt>
      <trkpt lat="47.54768" lon="6.6771">
        <ele>427</ele>
        <time>2015-05-25T08:43:02.000Z</time>
      </trkpt>
      <trkpt lat="47.54772" lon="6.67712">
        <ele>427</ele>
        <time>2015-05-25T08:43:04.000Z</time>
      </trkpt>
      <trkpt lat="47.54773" lon="6.67713">
        <ele>427</ele>
        <time>2015-05-25T08:43:05.000Z</time>
      </trkpt>
      <trkpt lat="47.54777" lon="6.67715">
        <ele>427</ele>
        <time>2015-05-25T08:43:07.000Z</time>
      </trkpt>
      <trkpt lat="47.54778" lon="6.67715">
        <ele>427</ele>
        <time>2015-05-25T08:43:08.000Z</time>
      </trkpt>
      <trkpt lat="47.54782" lon="6.67715">
        <ele>427</ele>
        <time>2015-05-25T08:43:10.000Z</time>
      </trkpt>
      <trkpt lat="47.54784" lon="6.67715">
        <ele>428</ele>
        <time>2015-05-25T08:43:11.000Z</time>
      </trkpt>
      <trkpt lat="47.54787" lon="6.67714">
        <ele>428</ele>
        <time>2015-05-25T08:43:13.000Z</time>
      </trkpt>
      <trkpt lat="47.5479" lon="6.67714">
        <ele>428</ele>
        <time>2015-05-25T08:43:14.000Z</time>
      </trkpt>
      <trkpt lat="47.54793" lon="6.67713">
        <ele>428</ele>
        <time>2015-05-25T08:43:16.000Z</time>
      </trkpt>
      <trkpt lat="47.54795" lon="6.67713">
        <ele>428</ele>
        <time>2015-05-25T08:43:17.000Z</time>
      </trkpt>
      <trkpt lat="47.54799" lon="6.67714">
        <ele>428</ele>
        <time>2015-05-25T08:43:19.000Z</time>
      </trkpt>
      <trkpt lat="47.54801" lon="6.67714">
        <ele>429</ele>
        <time>2015-05-25T08:43:20.000Z</time>
      </trkpt>
      <trkpt lat="47.54806" lon="6.67714">
        <ele>429</ele>
        <time>2015-05-25T08:43:22.000Z</time>
      </trkpt>
      <trkpt lat="47.54808" lon="6.67714">
        <ele>429</ele>
        <time>2015-05-25T08:43:23.000Z</time>
      </trkpt>
      <trkpt lat="47.5481" lon="6.67714">
        <ele>429</ele>
        <time>2015-05-25T08:43:24.000Z</time>
      </trkpt>
      <trkpt lat="47.54813" lon="6.67714">
        <ele>429</ele>
        <time>2015-05-25T08:43:25.000Z</time>
      </trkpt>
      <trkpt lat="47.54816" lon="6.67714">
        <ele>429</ele>
        <time>2015-05-25T08:43:26.000Z</time>
      </trkpt>
      <trkpt lat="47.54819" lon="6.67715">
        <ele>430</ele>
        <time>2015-05-25T08:43:27.000Z</time>
      </trkpt>
      <trkpt lat="47.54823" lon="6.67717">
        <ele>430</ele>
        <time>2015-05-25T08:43:29.000Z</time>
      </trkpt>
      <trkpt lat="47.54824" lon="6.67718">
        <ele>430</ele>
        <time>2015-05-25T08:43:30.000Z</time>
      </trkpt>
      <trkpt lat="47.54828" lon="6.67721">
        <ele>430</ele>
        <time>2015-05-25T08:43:33.000Z</time>
      </trkpt>
      <trkpt lat="47.54829" lon="6.67722">
        <ele>430</ele>
        <time>2015-05-25T08:43:34.000Z</time>
      </trkpt>
      <trkpt lat="47.54832" lon="6.67724">
        <ele>430</ele>
        <time>2015-05-25T08:43:36.000Z</time>
      </trkpt>
      <trkpt lat="47.54834" lon="6.67725">
        <ele>435</ele>
        <time>2015-05-25T08:43:37.000Z</time>
      </trkpt>
      <trkpt lat="47.54837" lon="6.67726">
        <ele>436</ele>
        <time>2015-05-25T08:43:39.000Z</time>
      </trkpt>
      <trkpt lat="47.54839" lon="6.67726">
        <ele>436</ele>
        <time>2015-05-25T08:43:40.000Z</time>
      </trkpt>
      <trkpt lat="47.54842" lon="6.67725">
        <ele>436</ele>
        <time>2015-05-25T08:43:42.000Z</time>
      </trkpt>
      <trkpt lat="47.54844" lon="6.67726">
        <ele>436</ele>
        <time>2015-05-25T08:43:43.000Z</time>
      </trkpt>
      <trkpt lat="47.54847" lon="6.67726">
        <ele>436</ele>
        <time>2015-05-25T08:43:46.000Z</time>
      </trkpt>
      <trkpt lat="47.54848" lon="6.67726">
        <ele>436</ele>
        <time>2015-05-25T08:43:47.000Z</time>
      </trkpt>
      <trkpt lat="47.54851" lon="6.67727">
        <ele>436</ele>
        <time>2015-05-25T08:43:49.000Z</time>
      </trkpt>
      <trkpt lat="47.54853" lon="6.67729">
        <ele>436</ele>
        <time>2015-05-25T08:43:50.000Z</time>
      </trkpt>
      <trkpt lat="47.54856" lon="6.67733">
        <ele>436</ele>
        <time>2015-05-25T08:43:53.000Z</time>
      </trkpt>
      <trkpt lat="47.54858" lon="6.67734">
        <ele>436</ele>
        <time>2015-05-25T08:43:54.000Z</time>
      </trkpt>
      <trkpt lat="47.5486" lon="6.67734">
        <ele>437</ele>
        <time>2015-05-25T08:43:55.000Z</time>
      </trkpt>
      <trkpt lat="47.54863" lon="6.67735">
        <ele>437</ele>
        <time>2015-05-25T08:43:56.000Z</time>
      </trkpt>
      <trkpt lat="47.54865" lon="6.67736">
        <ele>437</ele>
        <time>2015-05-25T08:43:57.000Z</time>
      </trkpt>
      <trkpt lat="47.54868" lon="6.67737">
        <ele>437</ele>
        <time>2015-05-25T08:43:58.000Z</time>
      </trkpt>
      <trkpt lat="47.5487" lon="6.67738">
        <ele>437</ele>
        <time>2015-05-25T08:43:59.000Z</time>
      </trkpt>
      <trkpt lat="47.54872" lon="6.67738">
        <ele>437</ele>
        <time>2015-05-25T08:44:00.000Z</time>
      </trkpt>
      <trkpt lat="47.54875" lon="6.67738">
        <ele>438</ele>
        <time>2015-05-25T08:44:01.000Z</time>
      </trkpt>
      <trkpt lat="47.54877" lon="6.67738">
        <ele>438</ele>
        <time>2015-05-25T08:44:02.000Z</time>
      </trkpt>
      <trkpt lat="47.5488" lon="6.6774">
        <ele>438</ele>
        <time>2015-05-25T08:44:04.000Z</time>
      </trkpt>
      <trkpt lat="47.54881" lon="6.67741">
        <ele>438</ele>
        <time>2015-05-25T08:44:05.000Z</time>
      </trkpt>
      <trkpt lat="47.54884" lon="6.67745">
        <ele>438</ele>
        <time>2015-05-25T08:44:07.000Z</time>
      </trkpt>
      <trkpt lat="47.54886" lon="6.67746">
        <ele>439</ele>
        <time>2015-05-25T08:44:08.000Z</time>
      </trkpt>
      <trkpt lat="47.5489" lon="6.67748">
        <ele>439</ele>
        <time>2015-05-25T08:44:10.000Z</time>
      </trkpt>
      <trkpt lat="47.54892" lon="6.67747">
        <ele>439</ele>
        <time>2015-05-25T08:44:11.000Z</time>
      </trkpt>
      <trkpt lat="47.54894" lon="6.67746">
        <ele>439</ele>
        <time>2015-05-25T08:44:12.000Z</time>
      </trkpt>
      <trkpt lat="47.54896" lon="6.67744">
        <ele>440</ele>
        <time>2015-05-25T08:44:13.000Z</time>
      </trkpt>
      <trkpt lat="47.54898" lon="6.67742">
        <ele>440</ele>
        <time>2015-05-25T08:44:14.000Z</time>
      </trkpt>
      <trkpt lat="47.549" lon="6.67739">
        <ele>440</ele>
        <time>2015-05-25T08:44:15.000Z</time>
      </trkpt>
      <trkpt lat="47.54901" lon="6.67737">
        <ele>440</ele>
        <time>2015-05-25T08:44:16.000Z</time>
      </trkpt>
      <trkpt lat="47.54903" lon="6.67735">
        <ele>440</ele>
        <time>2015-05-25T08:44:17.000Z</time>
      </trkpt>
      <trkpt lat="47.54907" lon="6.67732">
        <ele>440</ele>
        <time>2015-05-25T08:44:19.000Z</time>
      </trkpt>
      <trkpt lat="47.54909" lon="6.67731">
        <ele>440</ele>
        <time>2015-05-25T08:44:20.000Z</time>
      </trkpt>
      <trkpt lat="47.54911" lon="6.67731">
        <ele>440</ele>
        <time>2015-05-25T08:44:21.000Z</time>
      </trkpt>
      <trkpt lat="47.54913" lon="6.67731">
        <ele>440</ele>
        <time>2015-05-25T08:44:22.000Z</time>
      </trkpt>
      <trkpt lat="47.54918" lon="6.67732">
        <ele>444</ele>
        <time>2015-05-25T08:44:24.000Z</time>
      </trkpt>
      <trkpt lat="47.54919" lon="6.67733">
        <ele>444</ele>
        <time>2015-05-25T08:44:25.000Z</time>
      </trkpt>
      <trkpt lat="47.54924" lon="6.67733">
        <ele>444</ele>
        <time>2015-05-25T08:44:28.000Z</time>
      </trkpt>
      <trkpt lat="47.54925" lon="6.67733">
        <ele>444</ele>
        <time>2015-05-25T08:44:29.000Z</time>
      </trkpt>
      <trkpt lat="47.54929" lon="6.67733">
        <ele>444</ele>
        <time>2015-05-25T08:44:31.000Z</time>
      </trkpt>
      <trkpt lat="47.54931" lon="6.67732">
        <ele>444</ele>
        <time>2015-05-25T08:44:32.000Z</time>
      </trkpt>
      <trkpt lat="47.54935" lon="6.6773">
        <ele>444</ele>
        <time>2015-05-25T08:44:34.000Z</time>
      </trkpt>
      <trkpt lat="47.54937" lon="6.67731">
        <ele>444</ele>
        <time>2015-05-25T08:44:35.000Z</time>
      </trkpt>
      <trkpt lat="47.5494" lon="6.67731">
        <ele>444</ele>
        <time>2015-05-25T08:44:37.000Z</time>
      </trkpt>
      <trkpt lat="47.54941" lon="6.67732">
        <ele>445</ele>
        <time>2015-05-25T08:44:38.000Z</time>
      </trkpt>
      <trkpt lat="47.54944" lon="6.67733">
        <ele>445</ele>
        <time>2015-05-25T08:44:40.000Z</time>
      </trkpt>
      <trkpt lat="47.54946" lon="6.67733">
        <ele>445</ele>
        <time>2015-05-25T08:44:41.000Z</time>
      </trkpt>
      <trkpt lat="47.54949" lon="6.67733">
        <ele>445</ele>
        <time>2015-05-25T08:44:42.000Z</time>
      </trkpt>
      <trkpt lat="47.54951" lon="6.67732">
        <ele>445</ele>
        <time>2015-05-25T08:44:43.000Z</time>
      </trkpt>
      <trkpt lat="47.54955" lon="6.67733">
        <ele>445</ele>
        <time>2015-05-25T08:44:45.000Z</time>
      </trkpt>
      <trkpt lat="47.54957" lon="6.67733">
        <ele>445</ele>
        <time>2015-05-25T08:44:46.000Z</time>
      </trkpt>
      <trkpt lat="47.54961" lon="6.67733">
        <ele>445</ele>
        <time>2015-05-25T08:44:48.000Z</time>
      </trkpt>
      <trkpt lat="47.54963" lon="6.67732">
        <ele>445</ele>
        <time>2015-05-25T08:44:49.000Z</time>
      </trkpt>
      <trkpt lat="47.54967" lon="6.67732">
        <ele>446</ele>
        <time>2015-05-25T08:44:51.000Z</time>
      </trkpt>
      <trkpt lat="47.54969" lon="6.67733">
        <ele>446</ele>
        <time>2015-05-25T08:44:52.000Z</time>
      </trkpt>
      <trkpt lat="47.54973" lon="6.67734">
        <ele>446</ele>
        <time>2015-05-25T08:44:54.000Z</time>
      </trkpt>
      <trkpt lat="47.54975" lon="6.67735">
        <ele>446</ele>
        <time>2015-05-25T08:44:55.000Z</time>
      </trkpt>
      <trkpt lat="47.54977" lon="6.67736">
        <ele>446</ele>
        <time>2015-05-25T08:44:56.000Z</time>
      </trkpt>
      <trkpt lat="47.54979" lon="6.67736">
        <ele>446</ele>
        <time>2015-05-25T08:44:57.000Z</time>
      </trkpt>
      <trkpt lat="47.54981" lon="6.67736">
        <ele>447</ele>
        <time>2015-05-25T08:44:58.000Z</time>
      </trkpt>
      <trkpt lat="47.54984" lon="6.67736">
        <ele>447</ele>
        <time>2015-05-25T08:44:59.000Z</time>
      </trkpt>
      <trkpt lat="47.54986" lon="6.67736">
        <ele>447</ele>
        <time>2015-05-25T08:45:00.000Z</time>
      </trkpt>
      <trkpt lat="47.54988" lon="6.67736">
        <ele>447</ele>
        <time>2015-05-25T08:45:01.000Z</time>
      </trkpt>
      <trkpt lat="47.54992" lon="6.67736">
        <ele>447</ele>
        <time>2015-05-25T08:45:03.000Z</time>
      </trkpt>
      <trkpt lat="47.54995" lon="6.67735">
        <ele>447</ele>
        <time>2015-05-25T08:45:04.000Z</time>
      </trkpt>
      <trkpt lat="47.54998" lon="6.67735">
        <ele>447</ele>
        <time>2015-05-25T08:45:05.000Z</time>
      </trkpt>
      <trkpt lat="47.55" lon="6.67735">
        <ele>450</ele>
        <time>2015-05-25T08:45:06.000Z</time>
      </trkpt>
      <trkpt lat="47.55003" lon="6.67734">
        <ele>450</ele>
        <time>2015-05-25T08:45:07.000Z</time>
      </trkpt>
      <trkpt lat="47.55005" lon="6.67734">
        <ele>450</ele>
        <time>2015-05-25T08:45:08.000Z</time>
      </trkpt>
      <trkpt lat="47.55009" lon="6.67733">
        <ele>450</ele>
        <time>2015-05-25T08:45:10.000Z</time>
      </trkpt>
      <trkpt lat="47.5501" lon="6.67732">
        <ele>450</ele>
        <time>2015-05-25T08:45:11.000Z</time>
      </trkpt>
      <trkpt lat="47.55013" lon="6.6773">
        <ele>451</ele>
        <time>2015-05-25T08:45:13.000Z</time>
      </trkpt>
      <trkpt lat="47.55015" lon="6.67729">
        <ele>451</ele>
        <time>2015-05-25T08:45:14.000Z</time>
      </trkpt>
      <trkpt lat="47.55017" lon="6.67728">
        <ele>451</ele>
        <time>2015-05-25T08:45:15.000Z</time>
      </trkpt>
      <trkpt lat="47.5502" lon="6.67727">
        <ele>451</ele>
        <time>2015-05-25T08:45:16.000Z</time>
      </trkpt>
      <trkpt lat="47.55022" lon="6.67725">
        <ele>451</ele>
        <time>2015-05-25T08:45:17.000Z</time>
      </trkpt>
      <trkpt lat="47.55024" lon="6.67724">
        <ele>451</ele>
        <time>2015-05-25T08:45:18.000Z</time>
      </trkpt>
      <trkpt lat="47.55028" lon="6.67722">
        <ele>451</ele>
        <time>2015-05-25T08:45:20.000Z</time>
      </trkpt>
      <trkpt lat="47.5503" lon="6.67722">
        <ele>451</ele>
        <time>2015-05-25T08:45:21.000Z</time>
      </trkpt>
      <trkpt lat="47.55033" lon="6.67721">
        <ele>451</ele>
        <time>2015-05-25T08:45:22.000Z</time>
      </trkpt>
      <trkpt lat="47.55035" lon="6.67721">
        <ele>452</ele>
        <time>2015-05-25T08:45:23.000Z</time>
      </trkpt>
      <trkpt lat="47.55037" lon="6.67721">
        <ele>452</ele>
        <time>2015-05-25T08:45:24.000Z</time>
      </trkpt>
      <trkpt lat="47.5504" lon="6.67721">
        <ele>452</ele>
        <time>2015-05-25T08:45:25.000Z</time>
      </trkpt>
      <trkpt lat="47.55043" lon="6.67721">
        <ele>452</ele>
        <time>2015-05-25T08:45:27.000Z</time>
      </trkpt>
      <trkpt lat="47.55044" lon="6.67722">
        <ele>452</ele>
        <time>2015-05-25T08:45:28.000Z</time>
      </trkpt>
      <trkpt lat="47.55047" lon="6.67723">
        <ele>452</ele>
        <time>2015-05-25T08:45:30.000Z</time>
      </trkpt>
      <trkpt lat="47.55048" lon="6.67724">
        <ele>452</ele>
        <time>2015-05-25T08:45:31.000Z</time>
      </trkpt>
      <trkpt lat="47.5505" lon="6.67726">
        <ele>452</ele>
        <time>2015-05-25T08:45:32.000Z</time>
      </trkpt>
      <trkpt lat="47.55053" lon="6.67728">
        <ele>453</ele>
        <time>2015-05-25T08:45:33.000Z</time>
      </trkpt>
      <trkpt lat="47.55055" lon="6.67729">
        <ele>453</ele>
        <time>2015-05-25T08:45:34.000Z</time>
      </trkpt>
      <trkpt lat="47.55057" lon="6.67731">
        <ele>453</ele>
        <time>2015-05-25T08:45:35.000Z</time>
      </trkpt>
      <trkpt lat="47.55061" lon="6.67733">
        <ele>453</ele>
        <time>2015-05-25T08:45:37.000Z</time>
      </trkpt>
      <trkpt lat="47.55062" lon="6.67734">
        <ele>453</ele>
        <time>2015-05-25T08:45:38.000Z</time>
      </trkpt>
      <trkpt lat="47.55066" lon="6.67736">
        <ele>454</ele>
        <time>2015-05-25T08:45:41.000Z</time>
      </trkpt>
      <trkpt lat="47.55068" lon="6.67736">
        <ele>454</ele>
        <time>2015-05-25T08:45:42.000Z</time>
      </trkpt>
      <trkpt lat="47.55071" lon="6.67736">
        <ele>454</ele>
        <time>2015-05-25T08:45:44.000Z</time>
      </trkpt>
      <trkpt lat="47.55073" lon="6.67735">
        <ele>454</ele>
        <time>2015-05-25T08:45:45.000Z</time>
      </trkpt>
      <trkpt lat="47.55075" lon="6.67733">
        <ele>454</ele>
        <time>2015-05-25T08:45:46.000Z</time>
      </trkpt>
      <trkpt lat="47.55077" lon="6.67731">
        <ele>454</ele>
        <time>2015-05-25T08:45:47.000Z</time>
      </trkpt>
      <trkpt lat="47.55079" lon="6.67729">
        <ele>454</ele>
        <time>2015-05-25T08:45:48.000Z</time>
      </trkpt>
      <trkpt lat="47.55082" lon="6.67728">
        <ele>454</ele>
        <time>2015-05-25T08:45:49.000Z</time>
      </trkpt>
      <trkpt lat="47.55085" lon="6.67727">
        <ele>457</ele>
        <time>2015-05-25T08:45:50.000Z</time>
      </trkpt>
      <trkpt lat="47.55088" lon="6.67727">
        <ele>457</ele>
        <time>2015-05-25T08:45:51.000Z</time>
      </trkpt>
      <trkpt lat="47.55091" lon="6.67727">
        <ele>457</ele>
        <time>2015-05-25T08:45:52.000Z</time>
      </trkpt>
      <trkpt lat="47.55093" lon="6.67727">
        <ele>457</ele>
        <time>2015-05-25T08:45:53.000Z</time>
      </trkpt>
      <trkpt lat="47.55096" lon="6.67728">
        <ele>457</ele>
        <time>2015-05-25T08:45:54.000Z</time>
      </trkpt>
      <trkpt lat="47.55099" lon="6.67729">
        <ele>457</ele>
        <time>2015-05-25T08:45:55.000Z</time>
      </trkpt>
      <trkpt lat="47.55103" lon="6.67729">
        <ele>458</ele>
        <time>2015-05-25T08:45:57.000Z</time>
      </trkpt>
      <trkpt lat="47.55105" lon="6.67728">
        <ele>458</ele>
        <time>2015-05-25T08:45:58.000Z</time>
      </trkpt>
      <trkpt lat="47.55109" lon="6.67728">
        <ele>458</ele>
        <time>2015-05-25T08:46:00.000Z</time>
      </trkpt>
      <trkpt lat="47.5511" lon="6.67728">
        <ele>458</ele>
        <time>2015-05-25T08:46:01.000Z</time>
      </trkpt>
      <trkpt lat="47.55114" lon="6.67728">
        <ele>458</ele>
        <time>2015-05-25T08:46:04.000Z</time>
      </trkpt>
      <trkpt lat="47.55115" lon="6.67728">
        <ele>458</ele>
        <time>2015-05-25T08:46:05.000Z</time>
      </trkpt>
      <trkpt lat="47.55119" lon="6.67725">
        <ele>458</ele>
        <time>2015-05-25T08:47:28.000Z</time>
      </trkpt>
      <trkpt lat="47.55119" lon="6.67725">
        <ele>458</ele>
        <time>2015-05-25T08:47:29.000Z</time>
      </trkpt>
      <trkpt lat="47.55123" lon="6.67725">
        <ele>458</ele>
        <time>2015-05-25T08:50:04.000Z</time>
      </trkpt>
      <trkpt lat="47.55124" lon="6.67725">
        <ele>458</ele>
        <time>2015-05-25T08:50:05.000Z</time>
      </trkpt>
      <trkpt lat="47.55127" lon="6.67726">
        <ele>458</ele>
        <time>2015-05-25T08:50:07.000Z</time>
      </trkpt>
      <trkpt lat="47.55129" lon="6.67726">
        <ele>458</ele>
        <time>2015-05-25T08:50:08.000Z</time>
      </trkpt>
      <trkpt lat="47.55133" lon="6.67726">
        <ele>459</ele>
        <time>2015-05-25T08:50:10.000Z</time>
      </trkpt>
      <trkpt lat="47.55134" lon="6.67726">
        <ele>459</ele>
        <time>2015-05-25T08:50:10.998Z</time>
      </trkpt>
      <trkpt lat="47.55138" lon="6.67726">
        <ele>459</ele>
        <time>2015-05-25T08:50:12.000Z</time>
      </trkpt>
      <trkpt lat="47.55141" lon="6.67727">
        <ele>459</ele>
        <time>2015-05-25T08:50:13.000Z</time>
      </trkpt>
      <trkpt lat="47.55143" lon="6.67729">
        <ele>459</ele>
        <time>2015-05-25T08:50:14.000Z</time>
      </trkpt>
      <trkpt lat="47.55145" lon="6.67731">
        <ele>459</ele>
        <time>2015-05-25T08:50:15.000Z</time>
      </trkpt>
      <trkpt lat="47.55147" lon="6.67734">
        <ele>460</ele>
        <time>2015-05-25T08:50:16.000Z</time>
      </trkpt>
      <trkpt lat="47.5515" lon="6.67736">
        <ele>460</ele>
        <time>2015-05-25T08:50:17.000Z</time>
      </trkpt>
      <trkpt lat="47.55153" lon="6.67737">
        <ele>460</ele>
        <time>2015-05-25T08:50:18.000Z</time>
      </trkpt>
      <trkpt lat="47.55155" lon="6.67738">
        <ele>460</ele>
        <time>2015-05-25T08:50:19.000Z</time>
      </trkpt>
      <trkpt lat="47.55158" lon="6.6774">
        <ele>461</ele>
        <time>2015-05-25T08:50:21.000Z</time>
      </trkpt>
      <trkpt lat="47.55159" lon="6.67741">
        <ele>461</ele>
        <time>2015-05-25T08:50:22.000Z</time>
      </trkpt>
      <trkpt lat="47.55163" lon="6.67742">
        <ele>461</ele>
        <time>2015-05-25T08:50:24.000Z</time>
      </trkpt>
      <trkpt lat="47.55165" lon="6.67744">
        <ele>462</ele>
        <time>2015-05-25T08:50:25.000Z</time>
      </trkpt>
      <trkpt lat="47.55167" lon="6.67744">
        <ele>463</ele>
        <time>2015-05-25T08:50:26.000Z</time>
      </trkpt>
      <trkpt lat="47.5517" lon="6.67743">
        <ele>463</ele>
        <time>2015-05-25T08:50:27.000Z</time>
      </trkpt>
      <trkpt lat="47.55173" lon="6.67741">
        <ele>463</ele>
        <time>2015-05-25T08:50:28.000Z</time>
      </trkpt>
      <trkpt lat="47.55176" lon="6.67738">
        <ele>463</ele>
        <time>2015-05-25T08:50:29.000Z</time>
      </trkpt>
      <trkpt lat="47.5518" lon="6.67735">
        <ele>463</ele>
        <time>2015-05-25T08:50:30.000Z</time>
      </trkpt>
      <trkpt lat="47.55183" lon="6.67733">
        <ele>463</ele>
        <time>2015-05-25T08:50:31.000Z</time>
      </trkpt>
      <trkpt lat="47.55186" lon="6.67731">
        <ele>463</ele>
        <time>2015-05-25T08:50:32.000Z</time>
      </trkpt>
      <trkpt lat="47.55189" lon="6.67731">
        <ele>463</ele>
        <time>2015-05-25T08:50:33.000Z</time>
      </trkpt>
      <trkpt lat="47.55192" lon="6.67733">
        <ele>463</ele>
        <time>2015-05-25T08:50:36.000Z</time>
      </trkpt>
      <trkpt lat="47.55193" lon="6.67734">
        <ele>463</ele>
        <time>2015-05-25T08:50:37.000Z</time>
      </trkpt>
      <trkpt lat="47.55197" lon="6.67733">
        <ele>463</ele>
        <time>2015-05-25T08:50:39.000Z</time>
      </trkpt>
      <trkpt lat="47.552" lon="6.67733">
        <ele>463</ele>
        <time>2015-05-25T08:50:40.000Z</time>
      </trkpt>
      <trkpt lat="47.55202" lon="6.67732">
        <ele>463</ele>
        <time>2015-05-25T08:50:41.000Z</time>
      </trkpt>
      <trkpt lat="47.55205" lon="6.67731">
        <ele>463</ele>
        <time>2015-05-25T08:50:42.000Z</time>
      </trkpt>
      <trkpt lat="47.55208" lon="6.67734">
        <ele>463</ele>
        <time>2015-05-25T08:50:44.000Z</time>
      </trkpt>
      <trkpt lat="47.55209" lon="6.67736">
        <ele>463</ele>
        <time>2015-05-25T08:50:45.000Z</time>
      </trkpt>
      <trkpt lat="47.55212" lon="6.67738">
        <ele>463</ele>
        <time>2015-05-25T08:50:47.000Z</time>
      </trkpt>
      <trkpt lat="47.55216" lon="6.67737">
        <ele>464</ele>
        <time>2015-05-25T08:50:48.000Z</time>
      </trkpt>
      <trkpt lat="47.5522" lon="6.67737">
        <ele>464</ele>
        <time>2015-05-25T08:50:49.000Z</time>
      </trkpt>
      <trkpt lat="47.55224" lon="6.67738">
        <ele>464</ele>
        <time>2015-05-25T08:50:50.000Z</time>
      </trkpt>
      <trkpt lat="47.55229" lon="6.67738">
        <ele>464</ele>
        <time>2015-05-25T08:50:51.000Z</time>
      </trkpt>
      <trkpt lat="47.55232" lon="6.67739">
        <ele>465</ele>
        <time>2015-05-25T08:50:52.000Z</time>
      </trkpt>
      <trkpt lat="47.55236" lon="6.6774">
        <ele>465</ele>
        <time>2015-05-25T08:50:53.000Z</time>
      </trkpt>
      <trkpt lat="47.55239" lon="6.6774">
        <ele>465</ele>
        <time>2015-05-25T08:50:54.000Z</time>
      </trkpt>
      <trkpt lat="47.55242" lon="6.67741">
        <ele>466</ele>
        <time>2015-05-25T08:50:55.000Z</time>
      </trkpt>
      <trkpt lat="47.55244" lon="6.67742">
        <ele>466</ele>
        <time>2015-05-25T08:50:56.000Z</time>
      </trkpt>
      <trkpt lat="47.55248" lon="6.67743">
        <ele>467</ele>
        <time>2015-05-25T08:50:58.000Z</time>
      </trkpt>
      <trkpt lat="47.5525" lon="6.67744">
        <ele>467</ele>
        <time>2015-05-25T08:50:59.000Z</time>
      </trkpt>
      <trkpt lat="47.55253" lon="6.67744">
        <ele>467</ele>
        <time>2015-05-25T08:51:00.000Z</time>
      </trkpt>
      <trkpt lat="47.55256" lon="6.67742">
        <ele>466</ele>
        <time>2015-05-25T08:51:01.000Z</time>
      </trkpt>
      <trkpt lat="47.55259" lon="6.6774">
        <ele>466</ele>
        <time>2015-05-25T08:51:02.000Z</time>
      </trkpt>
      <trkpt lat="47.55262" lon="6.67737">
        <ele>466</ele>
        <time>2015-05-25T08:51:03.000Z</time>
      </trkpt>
      <trkpt lat="47.55265" lon="6.67734">
        <ele>465</ele>
        <time>2015-05-25T08:51:04.000Z</time>
      </trkpt>
      <trkpt lat="47.55269" lon="6.67731">
        <ele>465</ele>
        <time>2015-05-25T08:51:05.000Z</time>
      </trkpt>
      <trkpt lat="47.55271" lon="6.67729">
        <ele>465</ele>
        <time>2015-05-25T08:51:06.000Z</time>
      </trkpt>
      <trkpt lat="47.55274" lon="6.67727">
        <ele>464</ele>
        <time>2015-05-25T08:51:07.000Z</time>
      </trkpt>
      <trkpt lat="47.55277" lon="6.67725">
        <ele>464</ele>
        <time>2015-05-25T08:51:09.000Z</time>
      </trkpt>
      <trkpt lat="47.55279" lon="6.67724">
        <ele>464</ele>
        <time>2015-05-25T08:51:10.000Z</time>
      </trkpt>
      <trkpt lat="47.55281" lon="6.67722">
        <ele>464</ele>
        <time>2015-05-25T08:51:11.000Z</time>
      </trkpt>
      <trkpt lat="47.55284" lon="6.6772">
        <ele>464</ele>
        <time>2015-05-25T08:51:12.000Z</time>
      </trkpt>
      <trkpt lat="47.55288" lon="6.67719">
        <ele>464</ele>
        <time>2015-05-25T08:51:13.000Z</time>
      </trkpt>
      <trkpt lat="47.55291" lon="6.67717">
        <ele>464</ele>
        <time>2015-05-25T08:51:14.000Z</time>
      </trkpt>
      <trkpt lat="47.55293" lon="6.67717">
        <ele>464</ele>
        <time>2015-05-25T08:51:15.000Z</time>
      </trkpt>
      <trkpt lat="47.55296" lon="6.67717">
        <ele>464</ele>
        <time>2015-05-25T08:51:16.000Z</time>
      </trkpt>
      <trkpt lat="47.55298" lon="6.67718">
        <ele>464</ele>
        <time>2015-05-25T08:51:17.000Z</time>
      </trkpt>
      <trkpt lat="47.55301" lon="6.67719">
        <ele>464</ele>
        <time>2015-05-25T08:51:18.000Z</time>
      </trkpt>
      <trkpt lat="47.55304" lon="6.67719">
        <ele>463</ele>
        <time>2015-05-25T08:51:19.999Z</time>
      </trkpt>
      <trkpt lat="47.55305" lon="6.67719">
        <ele>463</ele>
        <time>2015-05-25T08:51:21.000Z</time>
      </trkpt>
      <trkpt lat="47.5531" lon="6.6772">
        <ele>463</ele>
        <time>2015-05-25T08:51:24.000Z</time>
      </trkpt>
      <trkpt lat="47.55311" lon="6.6772">
        <ele>463</ele>
        <time>2015-05-25T08:51:25.000Z</time>
      </trkpt>
      <trkpt lat="47.55315" lon="6.67722">
        <ele>464</ele>
        <time>2015-05-25T08:51:27.000Z</time>
      </trkpt>
      <trkpt lat="47.55317" lon="6.67722">
        <ele>464</ele>
        <time>2015-05-25T08:51:28.000Z</time>
      </trkpt>
      <trkpt lat="47.55321" lon="6.67723">
        <ele>464</ele>
        <time>2015-05-25T08:51:31.000Z</time>
      </trkpt>
      <trkpt lat="47.55322" lon="6.67723">
        <ele>464</ele>
        <time>2015-05-25T08:51:32.000Z</time>
      </trkpt>
      <trkpt lat="47.55326" lon="6.67722">
        <ele>463</ele>
        <time>2015-05-25T08:51:33.000Z</time>
      </trkpt>
      <trkpt lat="47.55328" lon="6.67721">
        <ele>463</ele>
        <time>2015-05-25T08:51:34.000Z</time>
      </trkpt>
      <trkpt lat="47.55332" lon="6.67722">
        <ele>463</ele>
        <time>2015-05-25T08:51:36.000Z</time>
      </trkpt>
      <trkpt lat="47.55334" lon="6.67722">
        <ele>463</ele>
        <time>2015-05-25T08:51:37.000Z</time>
      </trkpt>
      <trkpt lat="47.55339" lon="6.67721">
        <ele>463</ele>
        <time>2015-05-25T08:51:39.000Z</time>
      </trkpt>
      <trkpt lat="47.55341" lon="6.67721">
        <ele>463</ele>
        <time>2015-05-25T08:51:40.000Z</time>
      </trkpt>
      <trkpt lat="47.55344" lon="6.67721">
        <ele>463</ele>
        <time>2015-05-25T08:51:42.000Z</time>
      </trkpt>
      <trkpt lat="47.55346" lon="6.67721">
        <ele>463</ele>
        <time>2015-05-25T08:51:43.000Z</time>
      </trkpt>
      <trkpt lat="47.55349" lon="6.67722">
        <ele>463</ele>
        <time>2015-05-25T08:51:45.000Z</time>
      </trkpt>
      <trkpt lat="47.55351" lon="6.67723">
        <ele>464</ele>
        <time>2015-05-25T08:51:46.000Z</time>
      </trkpt>
      <trkpt lat="47.55354" lon="6.67724">
        <ele>464</ele>
        <time>2015-05-25T08:51:48.000Z</time>
      </trkpt>
      <trkpt lat="47.55356" lon="6.67724">
        <ele>464</ele>
        <time>2015-05-25T08:51:49.000Z</time>
      </trkpt>
      <trkpt lat="47.55359" lon="6.67727">
        <ele>464</ele>
        <time>2015-05-25T08:51:51.000Z</time>
      </trkpt>
      <trkpt lat="47.55361" lon="6.67727">
        <ele>464</ele>
        <time>2015-05-25T08:51:52.000Z</time>
      </trkpt>
      <trkpt lat="47.55365" lon="6.67726">
        <ele>464</ele>
        <time>2015-05-25T08:51:55.000Z</time>
      </trkpt>
      <trkpt lat="47.55366" lon="6.67726">
        <ele>464</ele>
        <time>2015-05-25T08:51:56.000Z</time>
      </trkpt>
      <trkpt lat="47.5537" lon="6.67728">
        <ele>464</ele>
        <time>2015-05-25T08:52:00.000Z</time>
      </trkpt>
      <trkpt lat="47.55371" lon="6.67728">
        <ele>464</ele>
        <time>2015-05-25T08:52:01.000Z</time>
      </trkpt>
      <trkpt lat="47.55375" lon="6.67728">
        <ele>464</ele>
        <time>2015-05-25T08:52:05.000Z</time>
      </trkpt>
      <trkpt lat="47.55376" lon="6.67728">
        <ele>464</ele>
        <time>2015-05-25T08:52:06.000Z</time>
      </trkpt>
      <trkpt lat="47.5538" lon="6.67728">
        <ele>464</ele>
        <time>2015-05-25T08:52:10.000Z</time>
      </trkpt>
      <trkpt lat="47.55381" lon="6.67728">
        <ele>464</ele>
        <time>2015-05-25T08:52:11.000Z</time>
      </trkpt>
      <trkpt lat="47.55384" lon="6.67729">
        <ele>464</ele>
        <time>2015-05-25T08:52:15.000Z</time>
      </trkpt>
      <trkpt lat="47.55385" lon="6.67729">
        <ele>464</ele>
        <time>2015-05-25T08:52:16.000Z</time>
      </trkpt>
      <trkpt lat="47.55389" lon="6.67728">
        <ele>464</ele>
        <time>2015-05-25T08:52:23.000Z</time>
      </trkpt>
      <trkpt lat="47.5539" lon="6.67728">
        <ele>464</ele>
        <time>2015-05-25T08:52:24.000Z</time>
      </trkpt>
      <trkpt lat="47.55394" lon="6.67729">
        <ele>464</ele>
        <time>2015-05-25T08:53:12.000Z</time>
      </trkpt>
      <trkpt lat="47.55395" lon="6.67729">
        <ele>464</ele>
        <time>2015-05-25T08:53:13.000Z</time>
      </trkpt>
      <trkpt lat="47.55398" lon="6.6773">
        <ele>464</ele>
        <time>2015-05-25T08:53:15.000Z</time>
      </trkpt>
      <trkpt lat="47.554" lon="6.6773">
        <ele>465</ele>
        <time>2015-05-25T08:53:16.000Z</time>
      </trkpt>
      <trkpt lat="47.55404" lon="6.67729">
        <ele>465</ele>
        <time>2015-05-25T08:53:18.000Z</time>
      </trkpt>
      <trkpt lat="47.55405" lon="6.67729">
        <ele>465</ele>
        <time>2015-05-25T08:53:19.000Z</time>
      </trkpt>
      <trkpt lat="47.55408" lon="6.6773">
        <ele>465</ele>
        <time>2015-05-25T08:53:21.000Z</time>
      </trkpt>
      <trkpt lat="47.5541" lon="6.67731">
        <ele>465</ele>
        <time>2015-05-25T08:53:22.000Z</time>
      </trkpt>
      <trkpt lat="47.55413" lon="6.67733">
        <ele>465</ele>
        <time>2015-05-25T08:53:24.000Z</time>
      </trkpt>
      <trkpt lat="47.55414" lon="6.67734">
        <ele>465</ele>
        <time>2015-05-25T08:53:25.000Z</time>
      </trkpt>
      <trkpt lat="47.55417" lon="6.67737">
        <ele>467</ele>
        <time>2015-05-25T08:53:27.000Z</time>
      </trkpt>
      <trkpt lat="47.55419" lon="6.67738">
        <ele>467</ele>
        <time>2015-05-25T08:53:28.000Z</time>
      </trkpt>
      <trkpt lat="47.55423" lon="6.67741">
        <ele>467</ele>
        <time>2015-05-25T08:53:30.000Z</time>
      </trkpt>
      <trkpt lat="47.55425" lon="6.67742">
        <ele>467</ele>
        <time>2015-05-25T08:53:31.000Z</time>
      </trkpt>
      <trkpt lat="47.55427" lon="6.67742">
        <ele>467</ele>
        <time>2015-05-25T08:53:32.000Z</time>
      </trkpt>
      <trkpt lat="47.55429" lon="6.67743">
        <ele>467</ele>
        <time>2015-05-25T08:53:33.000Z</time>
      </trkpt>
      <trkpt lat="47.55432" lon="6.67743">
        <ele>467</ele>
        <time>2015-05-25T08:53:34.000Z</time>
      </trkpt>
      <trkpt lat="47.55434" lon="6.67742">
        <ele>467</ele>
        <time>2015-05-25T08:53:35.000Z</time>
      </trkpt>
      <trkpt lat="47.55439" lon="6.67743">
        <ele>467</ele>
        <time>2015-05-25T08:53:37.000Z</time>
      </trkpt>
      <trkpt lat="47.55441" lon="6.67744">
        <ele>467</ele>
        <time>2015-05-25T08:53:38.000Z</time>
      </trkpt>
      <trkpt lat="47.55444" lon="6.67745">
        <ele>467</ele>
        <time>2015-05-25T08:53:39.000Z</time>
      </trkpt>
      <trkpt lat="47.55446" lon="6.67746">
        <ele>467</ele>
        <time>2015-05-25T08:53:40.000Z</time>
      </trkpt>
      <trkpt lat="47.55449" lon="6.67747">
        <ele>468</ele>
        <time>2015-05-25T08:53:41.000Z</time>
      </trkpt>
      <trkpt lat="47.55451" lon="6.67746">
        <ele>468</ele>
        <time>2015-05-25T08:53:42.000Z</time>
      </trkpt>
      <trkpt lat="47.55454" lon="6.67746">
        <ele>468</ele>
        <time>2015-05-25T08:53:43.000Z</time>
      </trkpt>
      <trkpt lat="47.55457" lon="6.67746">
        <ele>468</ele>
        <time>2015-05-25T08:53:44.000Z</time>
      </trkpt>
      <trkpt lat="47.55459" lon="6.67747">
        <ele>468</ele>
        <time>2015-05-25T08:53:45.000Z</time>
      </trkpt>
      <trkpt lat="47.55462" lon="6.67748">
        <ele>468</ele>
        <time>2015-05-25T08:53:46.000Z</time>
      </trkpt>
      <trkpt lat="47.55464" lon="6.67749">
        <ele>468</ele>
        <time>2015-05-25T08:53:47.000Z</time>
      </trkpt>
      <trkpt lat="47.55467" lon="6.67749">
        <ele>468</ele>
        <time>2015-05-25T08:53:48.000Z</time>
      </trkpt>
      <trkpt lat="47.5547" lon="6.6775">
        <ele>469</ele>
        <time>2015-05-25T08:53:49.000Z</time>
      </trkpt>
      <trkpt lat="47.55472" lon="6.6775">
        <ele>469</ele>
        <time>2015-05-25T08:53:50.000Z</time>
      </trkpt>
      <trkpt lat="47.55475" lon="6.67751">
        <ele>469</ele>
        <time>2015-05-25T08:53:51.000Z</time>
      </trkpt>
      <trkpt lat="47.55478" lon="6.67752">
        <ele>469</ele>
        <time>2015-05-25T08:53:52.000Z</time>
      </trkpt>
      <trkpt lat="47.55482" lon="6.67753">
        <ele>469</ele>
        <time>2015-05-25T08:53:54.000Z</time>
      </trkpt>
      <trkpt lat="47.55484" lon="6.67752">
        <ele>470</ele>
        <time>2015-05-25T08:53:55.000Z</time>
      </trkpt>
      <trkpt lat="47.55486" lon="6.67751">
        <ele>470</ele>
        <time>2015-05-25T08:53:56.000Z</time>
      </trkpt>
      <trkpt lat="47.55488" lon="6.67747">
        <ele>470</ele>
        <time>2015-05-25T08:53:57.000Z</time>
      </trkpt>
      <trkpt lat="47.55491" lon="6.67743">
        <ele>470</ele>
        <time>2015-05-25T08:54:00.000Z</time>
      </trkpt>
      <trkpt lat="47.55492" lon="6.67742">
        <ele>470</ele>
        <time>2015-05-25T08:54:01.000Z</time>
      </trkpt>
      <trkpt lat="47.55495" lon="6.67741">
        <ele>470</ele>
        <time>2015-05-25T08:54:50.000Z</time>
      </trkpt>
      <trkpt lat="47.55496" lon="6.67739">
        <ele>470</ele>
        <time>2015-05-25T08:54:51.000Z</time>
      </trkpt>
      <trkpt lat="47.55498" lon="6.67733">
        <ele>470</ele>
        <time>2015-05-25T08:54:53.000Z</time>
      </trkpt>
      <trkpt lat="47.55499" lon="6.6773">
        <ele>469</ele>
        <time>2015-05-25T08:54:54.000Z</time>
      </trkpt>
      <trkpt lat="47.55501" lon="6.67726">
        <ele>469</ele>
        <time>2015-05-25T08:54:55.000Z</time>
      </trkpt>
      <trkpt lat="47.55503" lon="6.67723">
        <ele>469</ele>
        <time>2015-05-25T08:54:56.000Z</time>
      </trkpt>
      <trkpt lat="47.55505" lon="6.67719">
        <ele>469</ele>
        <time>2015-05-25T08:54:57.000Z</time>
      </trkpt>
      <trkpt lat="47.55507" lon="6.67716">
        <ele>469</ele>
        <time>2015-05-25T08:54:58.000Z</time>
      </trkpt>
      <trkpt lat="47.55509" lon="6.67712">
        <ele>469</ele>
        <time>2015-05-25T08:54:59.000Z</time>
      </trkpt>
      <trkpt lat="47.55511" lon="6.67708">
        <ele>468</ele>
        <time>2015-05-25T08:55:00.000Z</time>
      </trkpt>
      <trkpt lat="47.55513" lon="6.67704">
        <ele>468</ele>
        <time>2015-05-25T08:55:01.000Z</time>
      </trkpt>
      <trkpt lat="47.55516" lon="6.677">
        <ele>468</ele>
        <time>2015-05-25T08:55:02.000Z</time>
      </trkpt>
      <trkpt lat="47.55519" lon="6.67696">
        <ele>468</ele>
        <time>2015-05-25T08:55:03.000Z</time>
      </trkpt>
      <trkpt lat="47.55522" lon="6.67692">
        <ele>468</ele>
        <time>2015-05-25T08:55:04.000Z</time>
      </trkpt>
      <trkpt lat="47.55525" lon="6.67687">
        <ele>467</ele>
        <time>2015-05-25T08:55:05.000Z</time>
      </trkpt>
      <trkpt lat="47.55528" lon="6.67681">
        <ele>467</ele>
        <time>2015-05-25T08:55:06.000Z</time>
      </trkpt>
      <trkpt lat="47.55531" lon="6.67674">
        <ele>467</ele>
        <time>2015-05-25T08:55:07.000Z</time>
      </trkpt>
      <trkpt lat="47.55533" lon="6.67666">
        <ele>463</ele>
        <time>2015-05-25T08:55:08.000Z</time>
      </trkpt>
      <trkpt lat="47.55535" lon="6.67658">
        <ele>463</ele>
        <time>2015-05-25T08:55:09.000Z</time>
      </trkpt>
      <trkpt lat="47.55537" lon="6.6765">
        <ele>462</ele>
        <time>2015-05-25T08:55:10.000Z</time>
      </trkpt>
      <trkpt lat="47.5553" lon="6.67637">
        <ele>462</ele>
        <time>2015-05-25T08:55:11.000Z</time>
      </trkpt>
      <trkpt lat="47.55525" lon="6.67631">
        <ele>462</ele>
        <time>2015-05-25T08:55:12.000Z</time>
      </trkpt>
      <trkpt lat="47.55519" lon="6.67625">
        <ele>462</ele>
        <time>2015-05-25T08:55:13.000Z</time>
      </trkpt>
      <trkpt lat="47.55514" lon="6.67619">
        <ele>461</ele>
        <time>2015-05-25T08:55:14.000Z</time>
      </trkpt>
      <trkpt lat="47.5551" lon="6.67611">
        <ele>461</ele>
        <time>2015-05-25T08:55:15.000Z</time>
      </trkpt>
      <trkpt lat="47.55507" lon="6.67602">
        <ele>460</ele>
        <time>2015-05-25T08:55:16.000Z</time>
      </trkpt>
      <trkpt lat="47.55505" lon="6.67595">
        <ele>459</ele>
        <time>2015-05-25T08:55:17.000Z</time>
      </trkpt>
      <trkpt lat="47.55508" lon="6.6759">
        <ele>459</ele>
        <time>2015-05-25T08:55:20.000Z</time>
      </trkpt>
      <trkpt lat="47.5551" lon="6.6759">
        <ele>459</ele>
        <time>2015-05-25T08:55:21.000Z</time>
      </trkpt>
      <trkpt lat="47.55512" lon="6.67585">
        <ele>459</ele>
        <time>2015-05-25T08:55:28.000Z</time>
      </trkpt>
      <trkpt lat="47.55513" lon="6.67583">
        <ele>458</ele>
        <time>2015-05-25T08:55:29.000Z</time>
      </trkpt>
      <trkpt lat="47.55515" lon="6.67579">
        <ele>458</ele>
        <time>2015-05-25T08:55:33.000Z</time>
      </trkpt>
      <trkpt lat="47.55516" lon="6.67578">
        <ele>458</ele>
        <time>2015-05-25T08:55:34.000Z</time>
      </trkpt>
      <trkpt lat="47.55517" lon="6.67573">
        <ele>458</ele>
        <time>2015-05-25T08:55:38.000Z</time>
      </trkpt>
      <trkpt lat="47.55518" lon="6.67571">
        <ele>458</ele>
        <time>2015-05-25T08:55:39.000Z</time>
      </trkpt>
      <trkpt lat="47.5552" lon="6.67567">
        <ele>458</ele>
        <time>2015-05-25T08:55:42.000Z</time>
      </trkpt>
      <trkpt lat="47.5552" lon="6.67565">
        <ele>458</ele>
        <time>2015-05-25T08:55:43.000Z</time>
      </trkpt>
      <trkpt lat="47.55522" lon="6.6756">
        <ele>458</ele>
        <time>2015-05-25T08:55:46.000Z</time>
      </trkpt>
      <trkpt lat="47.55522" lon="6.67559">
        <ele>458</ele>
        <time>2015-05-25T08:55:47.000Z</time>
      </trkpt>
      <trkpt lat="47.55525" lon="6.67554">
        <ele>458</ele>
        <time>2015-05-25T08:55:51.000Z</time>
      </trkpt>
      <trkpt lat="47.55526" lon="6.67553">
        <ele>458</ele>
        <time>2015-05-25T08:55:52.000Z</time>
      </trkpt>
      <trkpt lat="47.55527" lon="6.67548">
        <ele>458</ele>
        <time>2015-05-25T08:55:57.000Z</time>
      </trkpt>
      <trkpt lat="47.55527" lon="6.67546">
        <ele>458</ele>
        <time>2015-05-25T08:55:58.000Z</time>
      </trkpt>
      <trkpt lat="47.55528" lon="6.67539">
        <ele>458</ele>
        <time>2015-05-25T08:56:01.000Z</time>
      </trkpt>
      <trkpt lat="47.55528" lon="6.67538">
        <ele>458</ele>
        <time>2015-05-25T08:56:02.000Z</time>
      </trkpt>
      <trkpt lat="47.55531" lon="6.67533">
        <ele>458</ele>
        <time>2015-05-25T08:56:06.000Z</time>
      </trkpt>
      <trkpt lat="47.55532" lon="6.67531">
        <ele>459</ele>
        <time>2015-05-25T08:56:07.000Z</time>
      </trkpt>
      <trkpt lat="47.55534" lon="6.67528">
        <ele>459</ele>
        <time>2015-05-25T08:56:09.000Z</time>
      </trkpt>
      <trkpt lat="47.55535" lon="6.67526">
        <ele>459</ele>
        <time>2015-05-25T08:56:10.000Z</time>
      </trkpt>
      <trkpt lat="47.55537" lon="6.6752">
        <ele>459</ele>
        <time>2015-05-25T08:56:12.000Z</time>
      </trkpt>
      <trkpt lat="47.55538" lon="6.67516">
        <ele>459</ele>
        <time>2015-05-25T08:56:13.000Z</time>
      </trkpt>
      <trkpt lat="47.55539" lon="6.67512">
        <ele>459</ele>
        <time>2015-05-25T08:56:14.000Z</time>
      </trkpt>
      <trkpt lat="47.5554" lon="6.67508">
        <ele>459</ele>
        <time>2015-05-25T08:56:15.000Z</time>
      </trkpt>
      <trkpt lat="47.55541" lon="6.67504">
        <ele>459</ele>
        <time>2015-05-25T08:56:16.000Z</time>
      </trkpt>
      <trkpt lat="47.55542" lon="6.675">
        <ele>462</ele>
        <time>2015-05-25T08:56:17.000Z</time>
      </trkpt>
      <trkpt lat="47.55543" lon="6.67496">
        <ele>462</ele>
        <time>2015-05-25T08:56:18.000Z</time>
      </trkpt>
      <trkpt lat="47.55545" lon="6.67492">
        <ele>462</ele>
        <time>2015-05-25T08:56:19.000Z</time>
      </trkpt>
      <trkpt lat="47.55546" lon="6.67488">
        <ele>462</ele>
        <time>2015-05-25T08:56:20.000Z</time>
      </trkpt>
      <trkpt lat="47.55547" lon="6.67484">
        <ele>462</ele>
        <time>2015-05-25T08:56:21.000Z</time>
      </trkpt>
      <trkpt lat="47.55547" lon="6.6748">
        <ele>463</ele>
        <time>2015-05-25T08:56:22.000Z</time>
      </trkpt>
      <trkpt lat="47.55548" lon="6.67477">
        <ele>463</ele>
        <time>2015-05-25T08:56:23.000Z</time>
      </trkpt>
      <trkpt lat="47.55549" lon="6.67473">
        <ele>463</ele>
        <time>2015-05-25T08:56:24.000Z</time>
      </trkpt>
      <trkpt lat="47.5555" lon="6.6747">
        <ele>463</ele>
        <time>2015-05-25T08:56:25.000Z</time>
      </trkpt>
      <trkpt lat="47.55551" lon="6.67467">
        <ele>463</ele>
        <time>2015-05-25T08:56:26.000Z</time>
      </trkpt>
      <trkpt lat="47.55552" lon="6.67464">
        <ele>463</ele>
        <time>2015-05-25T08:56:27.000Z</time>
      </trkpt>
      <trkpt lat="47.55554" lon="6.67458">
        <ele>464</ele>
        <time>2015-05-25T08:56:29.000Z</time>
      </trkpt>
      <trkpt lat="47.55554" lon="6.67456">
        <ele>464</ele>
        <time>2015-05-25T08:56:30.000Z</time>
      </trkpt>
      <trkpt lat="47.55556" lon="6.67451">
        <ele>464</ele>
        <time>2015-05-25T08:56:32.000Z</time>
      </trkpt>
      <trkpt lat="47.55557" lon="6.67448">
        <ele>464</ele>
        <time>2015-05-25T08:56:33.000Z</time>
      </trkpt>
      <trkpt lat="47.55558" lon="6.67443">
        <ele>465</ele>
        <time>2015-05-25T08:56:35.000Z</time>
      </trkpt>
      <trkpt lat="47.55558" lon="6.6744">
        <ele>465</ele>
        <time>2015-05-25T08:56:36.000Z</time>
      </trkpt>
      <trkpt lat="47.5556" lon="6.67434">
        <ele>465</ele>
        <time>2015-05-25T08:56:41.000Z</time>
      </trkpt>
      <trkpt lat="47.55561" lon="6.67434">
        <ele>466</ele>
        <time>2015-05-25T08:56:42.000Z</time>
      </trkpt>
      <trkpt lat="47.55564" lon="6.6743">
        <ele>466</ele>
        <time>2015-05-25T08:56:47.000Z</time>
      </trkpt>
      <trkpt lat="47.55565" lon="6.67429">
        <ele>466</ele>
        <time>2015-05-25T08:56:48.000Z</time>
      </trkpt>
      <trkpt lat="47.55568" lon="6.67426">
        <ele>467</ele>
        <time>2015-05-25T08:56:51.000Z</time>
      </trkpt>
      <trkpt lat="47.55569" lon="6.67425">
        <ele>467</ele>
        <time>2015-05-25T08:56:52.000Z</time>
      </trkpt>
      <trkpt lat="47.55572" lon="6.6742">
        <ele>468</ele>
        <time>2015-05-25T08:56:55.000Z</time>
      </trkpt>
      <trkpt lat="47.55573" lon="6.67418">
        <ele>469</ele>
        <time>2015-05-25T08:56:56.000Z</time>
      </trkpt>
      <trkpt lat="47.55575" lon="6.67413">
        <ele>471</ele>
        <time>2015-05-25T08:56:59.000Z</time>
      </trkpt>
      <trkpt lat="47.55576" lon="6.67412">
        <ele>471</ele>
        <time>2015-05-25T08:57:00.000Z</time>
      </trkpt>
      <trkpt lat="47.55579" lon="6.67409">
        <ele>471</ele>
        <time>2015-05-25T08:57:02.000Z</time>
      </trkpt>
      <trkpt lat="47.5558" lon="6.67407">
        <ele>471</ele>
        <time>2015-05-25T08:57:03.000Z</time>
      </trkpt>
      <trkpt lat="47.55582" lon="6.67403">
        <ele>471</ele>
        <time>2015-05-25T08:57:05.000Z</time>
      </trkpt>
      <trkpt lat="47.55582" lon="6.67401">
        <ele>471</ele>
        <time>2015-05-25T08:57:06.000Z</time>
      </trkpt>
      <trkpt lat="47.55585" lon="6.67396">
        <ele>472</ele>
        <time>2015-05-25T08:57:09.000Z</time>
      </trkpt>
      <trkpt lat="47.55585" lon="6.67395">
        <ele>472</ele>
        <time>2015-05-25T08:57:10.000Z</time>
      </trkpt>
      <trkpt lat="47.55588" lon="6.67391">
        <ele>472</ele>
        <time>2015-05-25T08:57:13.000Z</time>
      </trkpt>
      <trkpt lat="47.55589" lon="6.67389">
        <ele>472</ele>
        <time>2015-05-25T08:57:14.000Z</time>
      </trkpt>
      <trkpt lat="47.55591" lon="6.67385">
        <ele>472</ele>
        <time>2015-05-25T08:57:16.000Z</time>
      </trkpt>
      <trkpt lat="47.55592" lon="6.67384">
        <ele>472</ele>
        <time>2015-05-25T08:57:17.000Z</time>
      </trkpt>
      <trkpt lat="47.55594" lon="6.6738">
        <ele>472</ele>
        <time>2015-05-25T08:57:19.000Z</time>
      </trkpt>
      <trkpt lat="47.55595" lon="6.67378">
        <ele>472</ele>
        <time>2015-05-25T08:57:20.000Z</time>
      </trkpt>
      <trkpt lat="47.55598" lon="6.67374">
        <ele>472</ele>
        <time>2015-05-25T08:57:22.000Z</time>
      </trkpt>
      <trkpt lat="47.55599" lon="6.67372">
        <ele>472</ele>
        <time>2015-05-25T08:57:23.000Z</time>
      </trkpt>
      <trkpt lat="47.55602" lon="6.67368">
        <ele>473</ele>
        <time>2015-05-25T08:57:26.000Z</time>
      </trkpt>
      <trkpt lat="47.55603" lon="6.67366">
        <ele>473</ele>
        <time>2015-05-25T08:57:27.000Z</time>
      </trkpt>
      <trkpt lat="47.55605" lon="6.67362">
        <ele>473</ele>
        <time>2015-05-25T08:57:30.000Z</time>
      </trkpt>
      <trkpt lat="47.55606" lon="6.6736">
        <ele>473</ele>
        <time>2015-05-25T08:57:31.000Z</time>
      </trkpt>
      <trkpt lat="47.55607" lon="6.67354">
        <ele>473</ele>
        <time>2015-05-25T08:57:38.000Z</time>
      </trkpt>
      <trkpt lat="47.55607" lon="6.67352">
        <ele>473</ele>
        <time>2015-05-25T08:57:39.000Z</time>
      </trkpt>
      <trkpt lat="47.55609" lon="6.67347">
        <ele>474</ele>
        <time>2015-05-25T08:57:42.000Z</time>
      </trkpt>
      <trkpt lat="47.5561" lon="6.67345">
        <ele>474</ele>
        <time>2015-05-25T08:57:43.000Z</time>
      </trkpt>
      <trkpt lat="47.55612" lon="6.6734">
        <ele>474</ele>
        <time>2015-05-25T08:57:45.000Z</time>
      </trkpt>
      <trkpt lat="47.55613" lon="6.67338">
        <ele>474</ele>
        <time>2015-05-25T08:57:46.000Z</time>
      </trkpt>
      <trkpt lat="47.55616" lon="6.67333">
        <ele>480</ele>
        <time>2015-05-25T08:57:49.000Z</time>
      </trkpt>
      <trkpt lat="47.55616" lon="6.67332">
        <ele>480</ele>
        <time>2015-05-25T08:57:50.000Z</time>
      </trkpt>
      <trkpt lat="47.55619" lon="6.67327">
        <ele>480</ele>
        <time>2015-05-25T08:57:53.000Z</time>
      </trkpt>
      <trkpt lat="47.5562" lon="6.67325">
        <ele>480</ele>
        <time>2015-05-25T08:57:54.000Z</time>
      </trkpt>
      <trkpt lat="47.55621" lon="6.67322">
        <ele>480</ele>
        <time>2015-05-25T08:57:56.000Z</time>
      </trkpt>
      <trkpt lat="47.55623" lon="6.6732">
        <ele>480</ele>
        <time>2015-05-25T08:57:57.000Z</time>
      </trkpt>
      <trkpt lat="47.55625" lon="6.67316">
        <ele>481</ele>
        <time>2015-05-25T08:57:59.000Z</time>
      </trkpt>
      <trkpt lat="47.55626" lon="6.67314">
        <ele>481</ele>
        <time>2015-05-25T08:58:00.000Z</time>
      </trkpt>
      <trkpt lat="47.55627" lon="6.6731">
        <ele>481</ele>
        <time>2015-05-25T08:58:02.000Z</time>
      </trkpt>
      <trkpt lat="47.55628" lon="6.67308">
        <ele>481</ele>
        <time>2015-05-25T08:58:03.000Z</time>
      </trkpt>
      <trkpt lat="47.55632" lon="6.67304">
        <ele>481</ele>
        <time>2015-05-25T08:58:08.000Z</time>
      </trkpt>
      <trkpt lat="47.55632" lon="6.67304">
        <ele>481</ele>
        <time>2015-05-25T08:58:09.000Z</time>
      </trkpt>
      <trkpt lat="47.55636" lon="6.67303">
        <ele>481</ele>
        <time>2015-05-25T08:58:12.001Z</time>
      </trkpt>
      <trkpt lat="47.55637" lon="6.67302">
        <ele>481</ele>
        <time>2015-05-25T08:58:13.000Z</time>
      </trkpt>
      <trkpt lat="47.5564" lon="6.67298">
        <ele>482</ele>
        <time>2015-05-25T08:58:16.000Z</time>
      </trkpt>
      <trkpt lat="47.55641" lon="6.67297">
        <ele>482</ele>
        <time>2015-05-25T08:58:17.000Z</time>
      </trkpt>
      <trkpt lat="47.55643" lon="6.67292">
        <ele>482</ele>
        <time>2015-05-25T08:58:19.000Z</time>
      </trkpt>
      <trkpt lat="47.55645" lon="6.6729">
        <ele>482</ele>
        <time>2015-05-25T08:58:20.000Z</time>
      </trkpt>
      <trkpt lat="47.55648" lon="6.67287">
        <ele>482</ele>
        <time>2015-05-25T08:58:22.000Z</time>
      </trkpt>
      <trkpt lat="47.55649" lon="6.67287">
        <ele>483</ele>
        <time>2015-05-25T08:58:23.000Z</time>
      </trkpt>
      <trkpt lat="47.55653" lon="6.67287">
        <ele>483</ele>
        <time>2015-05-25T08:58:27.000Z</time>
      </trkpt>
      <trkpt lat="47.55654" lon="6.67287">
        <ele>483</ele>
        <time>2015-05-25T08:58:28.000Z</time>
      </trkpt>
      <trkpt lat="47.55658" lon="6.67288">
        <ele>483</ele>
        <time>2015-05-25T08:58:31.000Z</time>
      </trkpt>
      <trkpt lat="47.55659" lon="6.6729">
        <ele>483</ele>
        <time>2015-05-25T08:58:32.000Z</time>
      </trkpt>
      <trkpt lat="47.55663" lon="6.67291">
        <ele>483</ele>
        <time>2015-05-25T08:58:35.000Z</time>
      </trkpt>
      <trkpt lat="47.55665" lon="6.67289">
        <ele>483</ele>
        <time>2015-05-25T08:58:36.000Z</time>
      </trkpt>
      <trkpt lat="47.55669" lon="6.67287">
        <ele>484</ele>
        <time>2015-05-25T08:58:38.000Z</time>
      </trkpt>
      <trkpt lat="47.55671" lon="6.67286">
        <ele>484</ele>
        <time>2015-05-25T08:58:39.000Z</time>
      </trkpt>
      <trkpt lat="47.55675" lon="6.67286">
        <ele>484</ele>
        <time>2015-05-25T08:58:42.000Z</time>
      </trkpt>
      <trkpt lat="47.55676" lon="6.67286">
        <ele>484</ele>
        <time>2015-05-25T08:58:43.000Z</time>
      </trkpt>
      <trkpt lat="47.5568" lon="6.67283">
        <ele>484</ele>
        <time>2015-05-25T08:58:46.000Z</time>
      </trkpt>
      <trkpt lat="47.55681" lon="6.67282">
        <ele>484</ele>
        <time>2015-05-25T08:58:47.000Z</time>
      </trkpt>
      <trkpt lat="47.55683" lon="6.67277">
        <ele>485</ele>
        <time>2015-05-25T08:58:49.000Z</time>
      </trkpt>
      <trkpt lat="47.55684" lon="6.67275">
        <ele>485</ele>
        <time>2015-05-25T08:58:50.000Z</time>
      </trkpt>
      <trkpt lat="47.55685" lon="6.67272">
        <ele>485</ele>
        <time>2015-05-25T08:58:51.000Z</time>
      </trkpt>
      <trkpt lat="47.55687" lon="6.6727">
        <ele>485</ele>
        <time>2015-05-25T08:58:52.000Z</time>
      </trkpt>
      <trkpt lat="47.5569" lon="6.67269">
        <ele>485</ele>
        <time>2015-05-25T08:58:54.000Z</time>
      </trkpt>
      <trkpt lat="47.55691" lon="6.67268">
        <ele>485</ele>
        <time>2015-05-25T08:58:55.000Z</time>
      </trkpt>
      <trkpt lat="47.55695" lon="6.67266">
        <ele>485</ele>
        <time>2015-05-25T08:59:00.000Z</time>
      </trkpt>
      <trkpt lat="47.55696" lon="6.67265">
        <ele>486</ele>
        <time>2015-05-25T08:59:01.000Z</time>
      </trkpt>
      <trkpt lat="47.55698" lon="6.67261">
        <ele>486</ele>
        <time>2015-05-25T08:59:02.000Z</time>
      </trkpt>
      <trkpt lat="47.557" lon="6.67259">
        <ele>486</ele>
        <time>2015-05-25T08:59:03.000Z</time>
      </trkpt>
      <trkpt lat="47.55703" lon="6.67255">
        <ele>486</ele>
        <time>2015-05-25T08:59:05.000Z</time>
      </trkpt>
      <trkpt lat="47.55703" lon="6.67254">
        <ele>486</ele>
        <time>2015-05-25T08:59:06.000Z</time>
      </trkpt>
      <trkpt lat="47.55706" lon="6.67249">
        <ele>495</ele>
        <time>2015-05-25T08:59:14.000Z</time>
      </trkpt>
      <trkpt lat="47.55706" lon="6.67248">
        <ele>495</ele>
        <time>2015-05-25T08:59:15.000Z</time>
      </trkpt>
      <trkpt lat="47.55709" lon="6.67245">
        <ele>495</ele>
        <time>2015-05-25T08:59:34.000Z</time>
      </trkpt>
      <trkpt lat="47.55711" lon="6.67244">
        <ele>495</ele>
        <time>2015-05-25T08:59:35.000Z</time>
      </trkpt>
      <trkpt lat="47.55713" lon="6.67241">
        <ele>496</ele>
        <time>2015-05-25T08:59:37.001Z</time>
      </trkpt>
      <trkpt lat="47.55715" lon="6.67239">
        <ele>496</ele>
        <time>2015-05-25T08:59:38.000Z</time>
      </trkpt>
      <trkpt lat="47.55718" lon="6.67236">
        <ele>496</ele>
        <time>2015-05-25T08:59:43.000Z</time>
      </trkpt>
      <trkpt lat="47.55719" lon="6.67235">
        <ele>496</ele>
        <time>2015-05-25T08:59:44.000Z</time>
      </trkpt>
      <trkpt lat="47.55721" lon="6.67232">
        <ele>496</ele>
        <time>2015-05-25T08:59:45.999Z</time>
      </trkpt>
      <trkpt lat="47.55722" lon="6.67229">
        <ele>496</ele>
        <time>2015-05-25T08:59:47.000Z</time>
      </trkpt>
      <trkpt lat="47.55722" lon="6.67224">
        <ele>497</ele>
        <time>2015-05-25T08:59:50.999Z</time>
      </trkpt>
      <trkpt lat="47.55722" lon="6.67222">
        <ele>497</ele>
        <time>2015-05-25T08:59:52.000Z</time>
      </trkpt>
      <trkpt lat="47.55725" lon="6.67217">
        <ele>497</ele>
        <time>2015-05-25T08:59:55.000Z</time>
      </trkpt>
      <trkpt lat="47.55725" lon="6.67216">
        <ele>497</ele>
        <time>2015-05-25T08:59:56.001Z</time>
      </trkpt>
      <trkpt lat="47.55728" lon="6.67211">
        <ele>498</ele>
        <time>2015-05-25T08:59:57.000Z</time>
      </trkpt>
      <trkpt lat="47.5573" lon="6.67208">
        <ele>498</ele>
        <time>2015-05-25T08:59:58.000Z</time>
      </trkpt>
      <trkpt lat="47.55731" lon="6.67206">
        <ele>498</ele>
        <time>2015-05-25T08:59:59.000Z</time>
      </trkpt>
      <trkpt lat="47.55731" lon="6.67201">
        <ele>499</ele>
        <time>2015-05-25T09:00:00.000Z</time>
      </trkpt>
      <trkpt lat="47.55731" lon="6.67197">
        <ele>499</ele>
        <time>2015-05-25T09:00:01.000Z</time>
      </trkpt>
      <trkpt lat="47.55731" lon="6.67194">
        <ele>499</ele>
        <time>2015-05-25T09:00:02.000Z</time>
      </trkpt>
      <trkpt lat="47.55731" lon="6.67187">
        <ele>500</ele>
        <time>2015-05-25T09:00:05.000Z</time>
      </trkpt>
      <trkpt lat="47.55731" lon="6.67186">
        <ele>500</ele>
        <time>2015-05-25T09:00:06.000Z</time>
      </trkpt>
      <trkpt lat="47.55733" lon="6.67182">
        <ele>501</ele>
        <time>2015-05-25T09:00:08.000Z</time>
      </trkpt>
      <trkpt lat="47.55733" lon="6.67179">
        <ele>501</ele>
        <time>2015-05-25T09:00:09.000Z</time>
      </trkpt>
      <trkpt lat="47.55734" lon="6.67177">
        <ele>501</ele>
        <time>2015-05-25T09:00:10.000Z</time>
      </trkpt>
      <trkpt lat="47.55735" lon="6.67172">
        <ele>502</ele>
        <time>2015-05-25T09:00:11.000Z</time>
      </trkpt>
      <trkpt lat="47.55736" lon="6.67166">
        <ele>506</ele>
        <time>2015-05-25T09:00:13.000Z</time>
      </trkpt>
      <trkpt lat="47.55738" lon="6.67165">
        <ele>506</ele>
        <time>2015-05-25T09:00:14.000Z</time>
      </trkpt>
      <trkpt lat="47.55739" lon="6.67163">
        <ele>506</ele>
        <time>2015-05-25T09:00:15.000Z</time>
      </trkpt>
      <trkpt lat="47.55742" lon="6.67161">
        <ele>506</ele>
        <time>2015-05-25T09:00:16.001Z</time>
      </trkpt>
      <trkpt lat="47.55744" lon="6.67158">
        <ele>506</ele>
        <time>2015-05-25T09:00:17.000Z</time>
      </trkpt>
      <trkpt lat="47.55746" lon="6.67156">
        <ele>506</ele>
        <time>2015-05-25T09:00:18.000Z</time>
      </trkpt>
      <trkpt lat="47.5575" lon="6.67152">
        <ele>506</ele>
        <time>2015-05-25T09:00:20.000Z</time>
      </trkpt>
      <trkpt lat="47.55752" lon="6.6715">
        <ele>506</ele>
        <time>2015-05-25T09:00:21.000Z</time>
      </trkpt>
      <trkpt lat="47.55754" lon="6.67148">
        <ele>506</ele>
        <time>2015-05-25T09:00:22.000Z</time>
      </trkpt>
      <trkpt lat="47.55757" lon="6.67145">
        <ele>506</ele>
        <time>2015-05-25T09:00:23.000Z</time>
      </trkpt>
      <trkpt lat="47.5576" lon="6.67142">
        <ele>506</ele>
        <time>2015-05-25T09:00:24.000Z</time>
      </trkpt>
      <trkpt lat="47.55763" lon="6.67138">
        <ele>506</ele>
        <time>2015-05-25T09:00:25.000Z</time>
      </trkpt>
      <trkpt lat="47.55765" lon="6.67135">
        <ele>506</ele>
        <time>2015-05-25T09:00:26.000Z</time>
      </trkpt>
      <trkpt lat="47.55768" lon="6.67132">
        <ele>506</ele>
        <time>2015-05-25T09:00:27.000Z</time>
      </trkpt>
      <trkpt lat="47.55771" lon="6.67128">
        <ele>506</ele>
        <time>2015-05-25T09:00:29.000Z</time>
      </trkpt>
      <trkpt lat="47.55773" lon="6.67126">
        <ele>506</ele>
        <time>2015-05-25T09:00:30.000Z</time>
      </trkpt>
      <trkpt lat="47.55775" lon="6.67124">
        <ele>506</ele>
        <time>2015-05-25T09:00:31.000Z</time>
      </trkpt>
      <trkpt lat="47.55777" lon="6.67121">
        <ele>506</ele>
        <time>2015-05-25T09:00:32.000Z</time>
      </trkpt>
      <trkpt lat="47.55779" lon="6.67118">
        <ele>506</ele>
        <time>2015-05-25T09:00:33.000Z</time>
      </trkpt>
      <trkpt lat="47.55781" lon="6.67116">
        <ele>506</ele>
        <time>2015-05-25T09:00:34.000Z</time>
      </trkpt>
      <trkpt lat="47.55783" lon="6.67113">
        <ele>506</ele>
        <time>2015-05-25T09:00:35.000Z</time>
      </trkpt>
      <trkpt lat="47.55785" lon="6.6711">
        <ele>506</ele>
        <time>2015-05-25T09:00:36.000Z</time>
      </trkpt>
      <trkpt lat="47.55788" lon="6.67107">
        <ele>506</ele>
        <time>2015-05-25T09:00:37.000Z</time>
      </trkpt>
      <trkpt lat="47.5579" lon="6.67104">
        <ele>506</ele>
        <time>2015-05-25T09:00:38.000Z</time>
      </trkpt>
      <trkpt lat="47.55792" lon="6.671">
        <ele>506</ele>
        <time>2015-05-25T09:00:39.000Z</time>
      </trkpt>
      <trkpt lat="47.55793" lon="6.67097">
        <ele>506</ele>
        <time>2015-05-25T09:00:40.000Z</time>
      </trkpt>
      <trkpt lat="47.55794" lon="6.67092">
        <ele>506</ele>
        <time>2015-05-25T09:00:41.000Z</time>
      </trkpt>
      <trkpt lat="47.55795" lon="6.67087">
        <ele>506</ele>
        <time>2015-05-25T09:00:42.000Z</time>
      </trkpt>
      <trkpt lat="47.55795" lon="6.67082">
        <ele>503</ele>
        <time>2015-05-25T09:00:43.000Z</time>
      </trkpt>
      <trkpt lat="47.55795" lon="6.67077">
        <ele>503</ele>
        <time>2015-05-25T09:00:44.000Z</time>
      </trkpt>
      <trkpt lat="47.55794" lon="6.67073">
        <ele>503</ele>
        <time>2015-05-25T09:00:45.000Z</time>
      </trkpt>
      <trkpt lat="47.55792" lon="6.67068">
        <ele>503</ele>
        <time>2015-05-25T09:00:46.000Z</time>
      </trkpt>
      <trkpt lat="47.5579" lon="6.67064">
        <ele>503</ele>
        <time>2015-05-25T09:00:47.000Z</time>
      </trkpt>
      <trkpt lat="47.55788" lon="6.6706">
        <ele>503</ele>
        <time>2015-05-25T09:00:48.000Z</time>
      </trkpt>
      <trkpt lat="47.55786" lon="6.67056">
        <ele>503</ele>
        <time>2015-05-25T09:00:49.000Z</time>
      </trkpt>
      <trkpt lat="47.55785" lon="6.67054">
        <ele>503</ele>
        <time>2015-05-25T09:00:50.000Z</time>
      </trkpt>
      <trkpt lat="47.55782" lon="6.6705">
        <ele>503</ele>
        <time>2015-05-25T09:00:52.000Z</time>
      </trkpt>
      <trkpt lat="47.55779" lon="6.67048">
        <ele>503</ele>
        <time>2015-05-25T09:00:53.000Z</time>
      </trkpt>
      <trkpt lat="47.55777" lon="6.67045">
        <ele>503</ele>
        <time>2015-05-25T09:00:54.000Z</time>
      </trkpt>
      <trkpt lat="47.55775" lon="6.67043">
        <ele>503</ele>
        <time>2015-05-25T09:00:55.000Z</time>
      </trkpt>
      <trkpt lat="47.55771" lon="6.67041">
        <ele>503</ele>
        <time>2015-05-25T09:00:57.000Z</time>
      </trkpt>
      <trkpt lat="47.55769" lon="6.6704">
        <ele>503</ele>
        <time>2015-05-25T09:00:58.000Z</time>
      </trkpt>
      <trkpt lat="47.55766" lon="6.67036">
        <ele>503</ele>
        <time>2015-05-25T09:01:00.000Z</time>
      </trkpt>
      <trkpt lat="47.55764" lon="6.67035">
        <ele>503</ele>
        <time>2015-05-25T09:01:01.000Z</time>
      </trkpt>
      <trkpt lat="47.55761" lon="6.67033">
        <ele>503</ele>
        <time>2015-05-25T09:01:02.000Z</time>
      </trkpt>
      <trkpt lat="47.55759" lon="6.67031">
        <ele>503</ele>
        <time>2015-05-25T09:01:03.000Z</time>
      </trkpt>
      <trkpt lat="47.55756" lon="6.6703">
        <ele>503</ele>
        <time>2015-05-25T09:01:04.000Z</time>
      </trkpt>
      <trkpt lat="47.55754" lon="6.67028">
        <ele>503</ele>
        <time>2015-05-25T09:01:05.000Z</time>
      </trkpt>
      <trkpt lat="47.55752" lon="6.67023">
        <ele>503</ele>
        <time>2015-05-25T09:01:07.000Z</time>
      </trkpt>
      <trkpt lat="47.55751" lon="6.6702">
        <ele>503</ele>
        <time>2015-05-25T09:01:08.000Z</time>
      </trkpt>
      <trkpt lat="47.55749" lon="6.67018">
        <ele>507</ele>
        <time>2015-05-25T09:01:09.000Z</time>
      </trkpt>
      <trkpt lat="47.55746" lon="6.67015">
        <ele>507</ele>
        <time>2015-05-25T09:01:10.000Z</time>
      </trkpt>
      <trkpt lat="47.55744" lon="6.67012">
        <ele>507</ele>
        <time>2015-05-25T09:01:11.000Z</time>
      </trkpt>
      <trkpt lat="47.55742" lon="6.6701">
        <ele>506</ele>
        <time>2015-05-25T09:01:12.000Z</time>
      </trkpt>
      <trkpt lat="47.55739" lon="6.67009">
        <ele>507</ele>
        <time>2015-05-25T09:01:13.000Z</time>
      </trkpt>
      <trkpt lat="47.55737" lon="6.67007">
        <ele>507</ele>
        <time>2015-05-25T09:01:14.000Z</time>
      </trkpt>
      <trkpt lat="47.55737" lon="6.67">
        <ele>506</ele>
        <time>2015-05-25T09:01:17.000Z</time>
      </trkpt>
      <trkpt lat="47.55738" lon="6.66998">
        <ele>503</ele>
        <time>2015-05-25T09:01:18.000Z</time>
      </trkpt>
      <trkpt lat="47.55738" lon="6.66991">
        <ele>503</ele>
        <time>2015-05-25T09:01:22.000Z</time>
      </trkpt>
      <trkpt lat="47.55738" lon="6.66991">
        <ele>503</ele>
        <time>2015-05-25T09:01:23.000Z</time>
      </trkpt>
      <trkpt lat="47.55734" lon="6.6699">
        <ele>503</ele>
        <time>2015-05-25T09:03:02.000Z</time>
      </trkpt>
      <trkpt lat="47.55733" lon="6.6699">
        <ele>503</ele>
        <time>2015-05-25T09:03:03.000Z</time>
      </trkpt>
      <trkpt lat="47.55729" lon="6.6699">
        <ele>503</ele>
        <time>2015-05-25T09:03:10.000Z</time>
      </trkpt>
      <trkpt lat="47.55728" lon="6.66992">
        <ele>503</ele>
        <time>2015-05-25T09:03:11.000Z</time>
      </trkpt>
      <trkpt lat="47.55725" lon="6.66995">
        <ele>503</ele>
        <time>2015-05-25T09:03:24.000Z</time>
      </trkpt>
      <trkpt lat="47.55725" lon="6.66995">
        <ele>503</ele>
        <time>2015-05-25T09:03:25.000Z</time>
      </trkpt>
      <trkpt lat="47.55722" lon="6.66991">
        <ele>503</ele>
        <time>2015-05-25T09:04:35.000Z</time>
      </trkpt>
      <trkpt lat="47.55721" lon="6.66991">
        <ele>503</ele>
        <time>2015-05-25T09:04:36.000Z</time>
      </trkpt>
      <trkpt lat="47.55718" lon="6.66992">
        <ele>503</ele>
        <time>2015-05-25T09:04:38.001Z</time>
      </trkpt>
      <trkpt lat="47.55715" lon="6.66992">
        <ele>503</ele>
        <time>2015-05-25T09:04:39.000Z</time>
      </trkpt>
      <trkpt lat="47.55711" lon="6.66991">
        <ele>503</ele>
        <time>2015-05-25T09:04:40.999Z</time>
      </trkpt>
      <trkpt lat="47.55708" lon="6.66988">
        <ele>503</ele>
        <time>2015-05-25T09:04:42.000Z</time>
      </trkpt>
      <trkpt lat="47.55706" lon="6.66985">
        <ele>503</ele>
        <time>2015-05-25T09:04:43.000Z</time>
      </trkpt>
      <trkpt lat="47.55704" lon="6.66981">
        <ele>503</ele>
        <time>2015-05-25T09:04:44.000Z</time>
      </trkpt>
      <trkpt lat="47.55703" lon="6.66979">
        <ele>503</ele>
        <time>2015-05-25T09:04:45.000Z</time>
      </trkpt>
      <trkpt lat="47.55701" lon="6.66974">
        <ele>503</ele>
        <time>2015-05-25T09:04:46.000Z</time>
      </trkpt>
      <trkpt lat="47.557" lon="6.66971">
        <ele>502</ele>
        <time>2015-05-25T09:04:47.000Z</time>
      </trkpt>
      <trkpt lat="47.55692" lon="6.66961">
        <ele>502</ele>
        <time>2015-05-25T09:04:48.000Z</time>
      </trkpt>
      <trkpt lat="47.55688" lon="6.66958">
        <ele>502</ele>
        <time>2015-05-25T09:04:49.000Z</time>
      </trkpt>
      <trkpt lat="47.55684" lon="6.66955">
        <ele>502</ele>
        <time>2015-05-25T09:04:50.000Z</time>
      </trkpt>
      <trkpt lat="47.5568" lon="6.66952">
        <ele>502</ele>
        <time>2015-05-25T09:04:51.000Z</time>
      </trkpt>
      <trkpt lat="47.55675" lon="6.66951">
        <ele>502</ele>
        <time>2015-05-25T09:04:52.000Z</time>
      </trkpt>
      <trkpt lat="47.5567" lon="6.66949">
        <ele>502</ele>
        <time>2015-05-25T09:04:53.000Z</time>
      </trkpt>
      <trkpt lat="47.55665" lon="6.66944">
        <ele>504</ele>
        <time>2015-05-25T09:04:54.000Z</time>
      </trkpt>
      <trkpt lat="47.55661" lon="6.66941">
        <ele>503</ele>
        <time>2015-05-25T09:04:55.000Z</time>
      </trkpt>
      <trkpt lat="47.55654" lon="6.66937">
        <ele>503</ele>
        <time>2015-05-25T09:04:56.000Z</time>
      </trkpt>
      <trkpt lat="47.55649" lon="6.66936">
        <ele>503</ele>
        <time>2015-05-25T09:04:56.998Z</time>
      </trkpt>
      <trkpt lat="47.55643" lon="6.66929">
        <ele>503</ele>
        <time>2015-05-25T09:04:58.000Z</time>
      </trkpt>
      <trkpt lat="47.55639" lon="6.66928">
        <ele>503</ele>
        <time>2015-05-25T09:04:59.000Z</time>
      </trkpt>
      <trkpt lat="47.55633" lon="6.66924">
        <ele>503</ele>
        <time>2015-05-25T09:05:00.000Z</time>
      </trkpt>
      <trkpt lat="47.55627" lon="6.66922">
        <ele>503</ele>
        <time>2015-05-25T09:05:01.000Z</time>
      </trkpt>
      <trkpt lat="47.55621" lon="6.66917">
        <ele>503</ele>
        <time>2015-05-25T09:05:02.000Z</time>
      </trkpt>
      <trkpt lat="47.55617" lon="6.66911">
        <ele>501</ele>
        <time>2015-05-25T09:05:03.000Z</time>
      </trkpt>
      <trkpt lat="47.55608" lon="6.66906">
        <ele>501</ele>
        <time>2015-05-25T09:05:04.000Z</time>
      </trkpt>
      <trkpt lat="47.55603" lon="6.66903">
        <ele>501</ele>
        <time>2015-05-25T09:05:05.002Z</time>
      </trkpt>
      <trkpt lat="47.55594" lon="6.66896">
        <ele>501</ele>
        <time>2015-05-25T09:05:06.000Z</time>
      </trkpt>
      <trkpt lat="47.55587" lon="6.66891">
        <ele>501</ele>
        <time>2015-05-25T09:05:07.000Z</time>
      </trkpt>
      <trkpt lat="47.55582" lon="6.66879">
        <ele>500</ele>
        <time>2015-05-25T09:05:08.000Z</time>
      </trkpt>
      <trkpt lat="47.55574" lon="6.6687">
        <ele>499</ele>
        <time>2015-05-25T09:05:09.000Z</time>
      </trkpt>
      <trkpt lat="47.55563" lon="6.66862">
        <ele>499</ele>
        <time>2015-05-25T09:05:10.000Z</time>
      </trkpt>
      <trkpt lat="47.55556" lon="6.66855">
        <ele>499</ele>
        <time>2015-05-25T09:05:11.000Z</time>
      </trkpt>
      <trkpt lat="47.5555" lon="6.66848">
        <ele>499</ele>
        <time>2015-05-25T09:05:12.000Z</time>
      </trkpt>
      <trkpt lat="47.55542" lon="6.6684">
        <ele>499</ele>
        <time>2015-05-25T09:05:13.000Z</time>
      </trkpt>
      <trkpt lat="47.55535" lon="6.66834">
        <ele>498</ele>
        <time>2015-05-25T09:05:14.000Z</time>
      </trkpt>
      <trkpt lat="47.5553" lon="6.66826">
        <ele>499</ele>
        <time>2015-05-25T09:05:15.000Z</time>
      </trkpt>
      <trkpt lat="47.55525" lon="6.66818">
        <ele>499</ele>
        <time>2015-05-25T09:05:16.000Z</time>
      </trkpt>
      <trkpt lat="47.5552" lon="6.66812">
        <ele>499</ele>
        <time>2015-05-25T09:05:17.000Z</time>
      </trkpt>
      <trkpt lat="47.55516" lon="6.66806">
        <ele>499</ele>
        <time>2015-05-25T09:05:18.000Z</time>
      </trkpt>
      <trkpt lat="47.55513" lon="6.668">
        <ele>499</ele>
        <time>2015-05-25T09:05:19.000Z</time>
      </trkpt>
      <trkpt lat="47.55511" lon="6.66793">
        <ele>499</ele>
        <time>2015-05-25T09:05:20.000Z</time>
      </trkpt>
      <trkpt lat="47.55508" lon="6.66787">
        <ele>499</ele>
        <time>2015-05-25T09:05:21.000Z</time>
      </trkpt>
      <trkpt lat="47.55504" lon="6.66782">
        <ele>499</ele>
        <time>2015-05-25T09:05:22.000Z</time>
      </trkpt>
      <trkpt lat="47.55501" lon="6.66777">
        <ele>500</ele>
        <time>2015-05-25T09:05:23.000Z</time>
      </trkpt>
      <trkpt lat="47.55499" lon="6.66772">
        <ele>500</ele>
        <time>2015-05-25T09:05:24.000Z</time>
      </trkpt>
      <trkpt lat="47.55496" lon="6.66766">
        <ele>501</ele>
        <time>2015-05-25T09:05:25.000Z</time>
      </trkpt>
      <trkpt lat="47.55493" lon="6.66761">
        <ele>501</ele>
        <time>2015-05-25T09:05:26.000Z</time>
      </trkpt>
      <trkpt lat="47.55489" lon="6.66758">
        <ele>501</ele>
        <time>2015-05-25T09:05:27.000Z</time>
      </trkpt>
      <trkpt lat="47.55486" lon="6.66753">
        <ele>501</ele>
        <time>2015-05-25T09:05:28.000Z</time>
      </trkpt>
      <trkpt lat="47.55483" lon="6.66749">
        <ele>501</ele>
        <time>2015-05-25T09:05:29.000Z</time>
      </trkpt>
      <trkpt lat="47.5548" lon="6.66745">
        <ele>501</ele>
        <time>2015-05-25T09:05:30.000Z</time>
      </trkpt>
      <trkpt lat="47.55477" lon="6.66742">
        <ele>501</ele>
        <time>2015-05-25T09:05:31.000Z</time>
      </trkpt>
      <trkpt lat="47.55477" lon="6.66737">
        <ele>501</ele>
        <time>2015-05-25T09:05:32.000Z</time>
      </trkpt>
      <trkpt lat="47.55473" lon="6.66735">
        <ele>501</ele>
        <time>2015-05-25T09:05:38.000Z</time>
      </trkpt>
      <trkpt lat="47.55472" lon="6.66736">
        <ele>501</ele>
        <time>2015-05-25T09:05:39.000Z</time>
      </trkpt>
      <trkpt lat="47.55469" lon="6.6674">
        <ele>501</ele>
        <time>2015-05-25T09:06:10.000Z</time>
      </trkpt>
      <trkpt lat="47.55469" lon="6.6674">
        <ele>501</ele>
        <time>2015-05-25T09:06:11.000Z</time>
      </trkpt>
      <trkpt lat="47.55473" lon="6.6674">
        <ele>501</ele>
        <time>2015-05-25T09:10:14.999Z</time>
      </trkpt>
      <trkpt lat="47.55473" lon="6.6674">
        <ele>501</ele>
        <time>2015-05-25T09:10:16.000Z</time>
      </trkpt>
      <trkpt lat="47.55469" lon="6.66739">
        <ele>501</ele>
        <time>2015-05-25T09:13:04.000Z</time>
      </trkpt>
      <trkpt lat="47.55467" lon="6.66738">
        <ele>501</ele>
        <time>2015-05-25T09:13:05.000Z</time>
      </trkpt>
      <trkpt lat="47.55466" lon="6.66735">
        <ele>501</ele>
        <time>2015-05-25T09:13:06.000Z</time>
      </trkpt>
      <trkpt lat="47.55464" lon="6.66732">
        <ele>501</ele>
        <time>2015-05-25T09:13:07.000Z</time>
      </trkpt>
      <trkpt lat="47.55462" lon="6.66729">
        <ele>500</ele>
        <time>2015-05-25T09:13:08.000Z</time>
      </trkpt>
      <trkpt lat="47.55461" lon="6.66725">
        <ele>500</ele>
        <time>2015-05-25T09:13:09.000Z</time>
      </trkpt>
      <trkpt lat="47.55459" lon="6.6672">
        <ele>500</ele>
        <time>2015-05-25T09:13:10.000Z</time>
      </trkpt>
      <trkpt lat="47.55458" lon="6.66716">
        <ele>500</ele>
        <time>2015-05-25T09:13:11.000Z</time>
      </trkpt>
      <trkpt lat="47.55456" lon="6.66712">
        <ele>500</ele>
        <time>2015-05-25T09:13:12.000Z</time>
      </trkpt>
      <trkpt lat="47.55454" lon="6.66708">
        <ele>500</ele>
        <time>2015-05-25T09:13:13.000Z</time>
      </trkpt>
      <trkpt lat="47.55452" lon="6.66704">
        <ele>500</ele>
        <time>2015-05-25T09:13:13.999Z</time>
      </trkpt>
      <trkpt lat="47.5545" lon="6.66697">
        <ele>500</ele>
        <time>2015-05-25T09:13:15.000Z</time>
      </trkpt>
      <trkpt lat="47.55448" lon="6.66691">
        <ele>500</ele>
        <time>2015-05-25T09:13:16.000Z</time>
      </trkpt>
      <trkpt lat="47.55444" lon="6.66682">
        <ele>500</ele>
        <time>2015-05-25T09:13:17.000Z</time>
      </trkpt>
      <trkpt lat="47.55441" lon="6.66675">
        <ele>501</ele>
        <time>2015-05-25T09:13:18.000Z</time>
      </trkpt>
      <trkpt lat="47.55439" lon="6.66671">
        <ele>501</ele>
        <time>2015-05-25T09:13:19.000Z</time>
      </trkpt>
      <trkpt lat="47.55436" lon="6.66667">
        <ele>501</ele>
        <time>2015-05-25T09:13:19.999Z</time>
      </trkpt>
      <trkpt lat="47.55428" lon="6.66661">
        <ele>500</ele>
        <time>2015-05-25T09:13:21.000Z</time>
      </trkpt>
      <trkpt lat="47.55422" lon="6.66656">
        <ele>500</ele>
        <time>2015-05-25T09:13:22.000Z</time>
      </trkpt>
      <trkpt lat="47.55422" lon="6.66652">
        <ele>500</ele>
        <time>2015-05-25T09:13:23.000Z</time>
      </trkpt>
      <trkpt lat="47.55422" lon="6.66648">
        <ele>499</ele>
        <time>2015-05-25T09:13:24.000Z</time>
      </trkpt>
      <trkpt lat="47.55421" lon="6.66644">
        <ele>499</ele>
        <time>2015-05-25T09:13:25.000Z</time>
      </trkpt>
      <trkpt lat="47.5542" lon="6.66639">
        <ele>499</ele>
        <time>2015-05-25T09:13:26.000Z</time>
      </trkpt>
      <trkpt lat="47.5542" lon="6.66635">
        <ele>499</ele>
        <time>2015-05-25T09:13:27.000Z</time>
      </trkpt>
      <trkpt lat="47.55419" lon="6.66631">
        <ele>499</ele>
        <time>2015-05-25T09:13:28.001Z</time>
      </trkpt>
      <trkpt lat="47.55419" lon="6.66627">
        <ele>499</ele>
        <time>2015-05-25T09:13:28.999Z</time>
      </trkpt>
      <trkpt lat="47.55417" lon="6.66622">
        <ele>501</ele>
        <time>2015-05-25T09:13:30.000Z</time>
      </trkpt>
      <trkpt lat="47.55415" lon="6.66615">
        <ele>501</ele>
        <time>2015-05-25T09:13:31.000Z</time>
      </trkpt>
      <trkpt lat="47.55415" lon="6.66611">
        <ele>501</ele>
        <time>2015-05-25T09:13:32.000Z</time>
      </trkpt>
      <trkpt lat="47.55414" lon="6.66607">
        <ele>502</ele>
        <time>2015-05-25T09:13:33.001Z</time>
      </trkpt>
      <trkpt lat="47.55413" lon="6.66602">
        <ele>502</ele>
        <time>2015-05-25T09:13:34.000Z</time>
      </trkpt>
      <trkpt lat="47.55412" lon="6.66596">
        <ele>502</ele>
        <time>2015-05-25T09:13:35.000Z</time>
      </trkpt>
      <trkpt lat="47.55398" lon="6.66588">
        <ele>502</ele>
        <time>2015-05-25T09:13:36.000Z</time>
      </trkpt>
      <trkpt lat="47.55395" lon="6.66584">
        <ele>501</ele>
        <time>2015-05-25T09:13:37.000Z</time>
      </trkpt>
      <trkpt lat="47.55388" lon="6.66575">
        <ele>501</ele>
        <time>2015-05-25T09:13:38.000Z</time>
      </trkpt>
      <trkpt lat="47.55382" lon="6.66568">
        <ele>501</ele>
        <time>2015-05-25T09:13:39.000Z</time>
      </trkpt>
      <trkpt lat="47.55379" lon="6.66563">
        <ele>501</ele>
        <time>2015-05-25T09:13:39.998Z</time>
      </trkpt>
      <trkpt lat="47.55377" lon="6.66553">
        <ele>501</ele>
        <time>2015-05-25T09:13:41.000Z</time>
      </trkpt>
      <trkpt lat="47.55378" lon="6.66548">
        <ele>501</ele>
        <time>2015-05-25T09:13:42.000Z</time>
      </trkpt>
      <trkpt lat="47.55377" lon="6.66545">
        <ele>501</ele>
        <time>2015-05-25T09:13:43.001Z</time>
      </trkpt>
      <trkpt lat="47.55373" lon="6.66539">
        <ele>501</ele>
        <time>2015-05-25T09:13:44.000Z</time>
      </trkpt>
      <trkpt lat="47.55369" lon="6.66535">
        <ele>501</ele>
        <time>2015-05-25T09:13:46.000Z</time>
      </trkpt>
      <trkpt lat="47.55369" lon="6.6653">
        <ele>501</ele>
        <time>2015-05-25T09:13:47.000Z</time>
      </trkpt>
      <trkpt lat="47.55367" lon="6.66528">
        <ele>501</ele>
        <time>2015-05-25T09:13:48.000Z</time>
      </trkpt>
      <trkpt lat="47.55365" lon="6.66525">
        <ele>502</ele>
        <time>2015-05-25T09:13:49.000Z</time>
      </trkpt>
      <trkpt lat="47.55363" lon="6.66523">
        <ele>502</ele>
        <time>2015-05-25T09:13:50.000Z</time>
      </trkpt>
      <trkpt lat="47.5536" lon="6.66518">
        <ele>502</ele>
        <time>2015-05-25T09:13:51.000Z</time>
      </trkpt>
      <trkpt lat="47.55358" lon="6.66514">
        <ele>502</ele>
        <time>2015-05-25T09:13:52.000Z</time>
      </trkpt>
      <trkpt lat="47.55356" lon="6.6651">
        <ele>503</ele>
        <time>2015-05-25T09:13:53.000Z</time>
      </trkpt>
      <trkpt lat="47.55354" lon="6.66506">
        <ele>503</ele>
        <time>2015-05-25T09:13:54.000Z</time>
      </trkpt>
      <trkpt lat="47.55351" lon="6.66502">
        <ele>504</ele>
        <time>2015-05-25T09:13:55.000Z</time>
      </trkpt>
      <trkpt lat="47.55348" lon="6.66498">
        <ele>503</ele>
        <time>2015-05-25T09:13:56.000Z</time>
      </trkpt>
      <trkpt lat="47.55346" lon="6.66494">
        <ele>503</ele>
        <time>2015-05-25T09:13:57.000Z</time>
      </trkpt>
      <trkpt lat="47.55344" lon="6.6649">
        <ele>503</ele>
        <time>2015-05-25T09:13:58.000Z</time>
      </trkpt>
      <trkpt lat="47.55342" lon="6.66487">
        <ele>503</ele>
        <time>2015-05-25T09:13:59.000Z</time>
      </trkpt>
      <trkpt lat="47.55341" lon="6.66481">
        <ele>502</ele>
        <time>2015-05-25T09:14:01.000Z</time>
      </trkpt>
      <trkpt lat="47.5534" lon="6.66478">
        <ele>502</ele>
        <time>2015-05-25T09:14:02.000Z</time>
      </trkpt>
      <trkpt lat="47.55339" lon="6.66475">
        <ele>502</ele>
        <time>2015-05-25T09:14:03.000Z</time>
      </trkpt>
      <trkpt lat="47.55337" lon="6.66472">
        <ele>501</ele>
        <time>2015-05-25T09:14:04.000Z</time>
      </trkpt>
      <trkpt lat="47.55337" lon="6.66469">
        <ele>501</ele>
        <time>2015-05-25T09:14:05.000Z</time>
      </trkpt>
      <trkpt lat="47.55334" lon="6.66465">
        <ele>501</ele>
        <time>2015-05-25T09:14:06.000Z</time>
      </trkpt>
      <trkpt lat="47.55332" lon="6.66462">
        <ele>508</ele>
        <time>2015-05-25T09:14:07.000Z</time>
      </trkpt>
      <trkpt lat="47.55331" lon="6.66459">
        <ele>508</ele>
        <time>2015-05-25T09:14:08.000Z</time>
      </trkpt>
      <trkpt lat="47.55329" lon="6.66456">
        <ele>508</ele>
        <time>2015-05-25T09:14:09.000Z</time>
      </trkpt>
      <trkpt lat="47.55328" lon="6.66454">
        <ele>508</ele>
        <time>2015-05-25T09:14:10.000Z</time>
      </trkpt>
      <trkpt lat="47.55325" lon="6.66451">
        <ele>508</ele>
        <time>2015-05-25T09:14:11.000Z</time>
      </trkpt>
      <trkpt lat="47.55323" lon="6.66449">
        <ele>508</ele>
        <time>2015-05-25T09:14:12.001Z</time>
      </trkpt>
      <trkpt lat="47.55318" lon="6.66447">
        <ele>508</ele>
        <time>2015-05-25T09:14:13.000Z</time>
      </trkpt>
      <trkpt lat="47.55315" lon="6.66444">
        <ele>508</ele>
        <time>2015-05-25T09:14:14.000Z</time>
      </trkpt>
      <trkpt lat="47.55311" lon="6.66442">
        <ele>508</ele>
        <time>2015-05-25T09:14:15.000Z</time>
      </trkpt>
      <trkpt lat="47.55308" lon="6.66439">
        <ele>508</ele>
        <time>2015-05-25T09:14:16.000Z</time>
      </trkpt>
      <trkpt lat="47.55306" lon="6.66438">
        <ele>508</ele>
        <time>2015-05-25T09:14:17.000Z</time>
      </trkpt>
      <trkpt lat="47.55304" lon="6.66436">
        <ele>508</ele>
        <time>2015-05-25T09:14:20.000Z</time>
      </trkpt>
      <trkpt lat="47.55302" lon="6.66434">
        <ele>508</ele>
        <time>2015-05-25T09:14:21.000Z</time>
      </trkpt>
      <trkpt lat="47.55299" lon="6.6643">
        <ele>509</ele>
        <time>2015-05-25T09:14:23.000Z</time>
      </trkpt>
      <trkpt lat="47.55298" lon="6.66428">
        <ele>509</ele>
        <time>2015-05-25T09:14:24.000Z</time>
      </trkpt>
      <trkpt lat="47.55297" lon="6.66424">
        <ele>509</ele>
        <time>2015-05-25T09:14:25.000Z</time>
      </trkpt>
      <trkpt lat="47.55296" lon="6.66421">
        <ele>509</ele>
        <time>2015-05-25T09:14:26.000Z</time>
      </trkpt>
      <trkpt lat="47.55295" lon="6.66417">
        <ele>509</ele>
        <time>2015-05-25T09:14:27.000Z</time>
      </trkpt>
      <trkpt lat="47.55294" lon="6.66413">
        <ele>508</ele>
        <time>2015-05-25T09:14:28.001Z</time>
      </trkpt>
      <trkpt lat="47.55294" lon="6.66407">
        <ele>508</ele>
        <time>2015-05-25T09:14:31.000Z</time>
      </trkpt>
      <trkpt lat="47.55294" lon="6.66405">
        <ele>508</ele>
        <time>2015-05-25T09:14:32.000Z</time>
      </trkpt>
      <trkpt lat="47.55296" lon="6.66404">
        <ele>508</ele>
        <time>2015-05-25T09:14:34.000Z</time>
      </trkpt>
      <trkpt lat="47.55299" lon="6.66401">
        <ele>508</ele>
        <time>2015-05-25T09:14:35.000Z</time>
      </trkpt>
      <trkpt lat="47.553" lon="6.66398">
        <ele>508</ele>
        <time>2015-05-25T09:14:36.000Z</time>
      </trkpt>
      <trkpt lat="47.55302" lon="6.66395">
        <ele>507</ele>
        <time>2015-05-25T09:14:37.000Z</time>
      </trkpt>
      <trkpt lat="47.55302" lon="6.6639">
        <ele>507</ele>
        <time>2015-05-25T09:14:39.000Z</time>
      </trkpt>
      <trkpt lat="47.55301" lon="6.66387">
        <ele>507</ele>
        <time>2015-05-25T09:14:40.000Z</time>
      </trkpt>
      <trkpt lat="47.55299" lon="6.66383">
        <ele>507</ele>
        <time>2015-05-25T09:14:41.000Z</time>
      </trkpt>
      <trkpt lat="47.55296" lon="6.6638">
        <ele>507</ele>
        <time>2015-05-25T09:14:42.000Z</time>
      </trkpt>
      <trkpt lat="47.55293" lon="6.66376">
        <ele>507</ele>
        <time>2015-05-25T09:14:43.000Z</time>
      </trkpt>
      <trkpt lat="47.55291" lon="6.66372">
        <ele>507</ele>
        <time>2015-05-25T09:14:44.000Z</time>
      </trkpt>
      <trkpt lat="47.5529" lon="6.66369">
        <ele>507</ele>
        <time>2015-05-25T09:14:45.000Z</time>
      </trkpt>
      <trkpt lat="47.55288" lon="6.66363">
        <ele>508</ele>
        <time>2015-05-25T09:14:46.001Z</time>
      </trkpt>
      <trkpt lat="47.55285" lon="6.66358">
        <ele>508</ele>
        <time>2015-05-25T09:14:47.000Z</time>
      </trkpt>
      <trkpt lat="47.55282" lon="6.66353">
        <ele>508</ele>
        <time>2015-05-25T09:14:48.000Z</time>
      </trkpt>
      <trkpt lat="47.55281" lon="6.66349">
        <ele>508</ele>
        <time>2015-05-25T09:14:49.000Z</time>
      </trkpt>
      <trkpt lat="47.55275" lon="6.66344">
        <ele>509</ele>
        <time>2015-05-25T09:14:50.000Z</time>
      </trkpt>
      <trkpt lat="47.55273" lon="6.6634">
        <ele>509</ele>
        <time>2015-05-25T09:14:51.000Z</time>
      </trkpt>
      <trkpt lat="47.55272" lon="6.66336">
        <ele>510</ele>
        <time>2015-05-25T09:14:52.000Z</time>
      </trkpt>
      <trkpt lat="47.55271" lon="6.66333">
        <ele>510</ele>
        <time>2015-05-25T09:14:53.000Z</time>
      </trkpt>
      <trkpt lat="47.5527" lon="6.6633">
        <ele>507</ele>
        <time>2015-05-25T09:14:54.000Z</time>
      </trkpt>
      <trkpt lat="47.55269" lon="6.66327">
        <ele>507</ele>
        <time>2015-05-25T09:14:55.000Z</time>
      </trkpt>
      <trkpt lat="47.55268" lon="6.66323">
        <ele>507</ele>
        <time>2015-05-25T09:14:56.000Z</time>
      </trkpt>
      <trkpt lat="47.55266" lon="6.6632">
        <ele>506</ele>
        <time>2015-05-25T09:14:57.000Z</time>
      </trkpt>
      <trkpt lat="47.55265" lon="6.66317">
        <ele>506</ele>
        <time>2015-05-25T09:14:58.000Z</time>
      </trkpt>
      <trkpt lat="47.55263" lon="6.66314">
        <ele>506</ele>
        <time>2015-05-25T09:14:59.000Z</time>
      </trkpt>
      <trkpt lat="47.5526" lon="6.66311">
        <ele>506</ele>
        <time>2015-05-25T09:15:00.000Z</time>
      </trkpt>
      <trkpt lat="47.55257" lon="6.66308">
        <ele>506</ele>
        <time>2015-05-25T09:15:01.000Z</time>
      </trkpt>
      <trkpt lat="47.55254" lon="6.66305">
        <ele>506</ele>
        <time>2015-05-25T09:15:02.000Z</time>
      </trkpt>
      <trkpt lat="47.55252" lon="6.66302">
        <ele>505</ele>
        <time>2015-05-25T09:15:03.000Z</time>
      </trkpt>
      <trkpt lat="47.55249" lon="6.66299">
        <ele>512</ele>
        <time>2015-05-25T09:15:04.000Z</time>
      </trkpt>
      <trkpt lat="47.55246" lon="6.66295">
        <ele>512</ele>
        <time>2015-05-25T09:15:05.000Z</time>
      </trkpt>
      <trkpt lat="47.55244" lon="6.6629">
        <ele>512</ele>
        <time>2015-05-25T09:15:06.000Z</time>
      </trkpt>
      <trkpt lat="47.55243" lon="6.66286">
        <ele>511</ele>
        <time>2015-05-25T09:15:07.000Z</time>
      </trkpt>
      <trkpt lat="47.55241" lon="6.66281">
        <ele>511</ele>
        <time>2015-05-25T09:15:08.000Z</time>
      </trkpt>
      <trkpt lat="47.5524" lon="6.66277">
        <ele>511</ele>
        <time>2015-05-25T09:15:09.000Z</time>
      </trkpt>
      <trkpt lat="47.55238" lon="6.66273">
        <ele>511</ele>
        <time>2015-05-25T09:15:10.000Z</time>
      </trkpt>
      <trkpt lat="47.55235" lon="6.66269">
        <ele>511</ele>
        <time>2015-05-25T09:15:11.000Z</time>
      </trkpt>
      <trkpt lat="47.55233" lon="6.66264">
        <ele>511</ele>
        <time>2015-05-25T09:15:12.000Z</time>
      </trkpt>
      <trkpt lat="47.55231" lon="6.6626">
        <ele>511</ele>
        <time>2015-05-25T09:15:13.000Z</time>
      </trkpt>
      <trkpt lat="47.55229" lon="6.66255">
        <ele>511</ele>
        <time>2015-05-25T09:15:14.000Z</time>
      </trkpt>
      <trkpt lat="47.55226" lon="6.6625">
        <ele>511</ele>
        <time>2015-05-25T09:15:15.000Z</time>
      </trkpt>
      <trkpt lat="47.55223" lon="6.66246">
        <ele>506</ele>
        <time>2015-05-25T09:15:16.000Z</time>
      </trkpt>
      <trkpt lat="47.5522" lon="6.66242">
        <ele>505</ele>
        <time>2015-05-25T09:15:17.000Z</time>
      </trkpt>
      <trkpt lat="47.55216" lon="6.66238">
        <ele>505</ele>
        <time>2015-05-25T09:15:18.000Z</time>
      </trkpt>
      <trkpt lat="47.55213" lon="6.66235">
        <ele>505</ele>
        <time>2015-05-25T09:15:19.000Z</time>
      </trkpt>
      <trkpt lat="47.55199" lon="6.66225">
        <ele>506</ele>
        <time>2015-05-25T09:15:20.000Z</time>
      </trkpt>
      <trkpt lat="47.55195" lon="6.66221">
        <ele>506</ele>
        <time>2015-05-25T09:15:21.000Z</time>
      </trkpt>
      <trkpt lat="47.55192" lon="6.66217">
        <ele>505</ele>
        <time>2015-05-25T09:15:22.000Z</time>
      </trkpt>
      <trkpt lat="47.55188" lon="6.66215">
        <ele>505</ele>
        <time>2015-05-25T09:15:23.000Z</time>
      </trkpt>
      <trkpt lat="47.55184" lon="6.66212">
        <ele>505</ele>
        <time>2015-05-25T09:15:24.000Z</time>
      </trkpt>
      <trkpt lat="47.55177" lon="6.66206">
        <ele>505</ele>
        <time>2015-05-25T09:15:25.000Z</time>
      </trkpt>
      <trkpt lat="47.5517" lon="6.66204">
        <ele>505</ele>
        <time>2015-05-25T09:15:26.000Z</time>
      </trkpt>
      <trkpt lat="47.55167" lon="6.66202">
        <ele>505</ele>
        <time>2015-05-25T09:15:27.000Z</time>
      </trkpt>
      <trkpt lat="47.55165" lon="6.66199">
        <ele>511</ele>
        <time>2015-05-25T09:15:28.000Z</time>
      </trkpt>
      <trkpt lat="47.55163" lon="6.66195">
        <ele>510</ele>
        <time>2015-05-25T09:15:29.000Z</time>
      </trkpt>
      <trkpt lat="47.55159" lon="6.66192">
        <ele>510</ele>
        <time>2015-05-25T09:15:30.000Z</time>
      </trkpt>
      <trkpt lat="47.55155" lon="6.6619">
        <ele>510</ele>
        <time>2015-05-25T09:15:31.000Z</time>
      </trkpt>
      <trkpt lat="47.55152" lon="6.66188">
        <ele>510</ele>
        <time>2015-05-25T09:15:32.000Z</time>
      </trkpt>
      <trkpt lat="47.55149" lon="6.66188">
        <ele>510</ele>
        <time>2015-05-25T09:15:33.000Z</time>
      </trkpt>
      <trkpt lat="47.55145" lon="6.66188">
        <ele>510</ele>
        <time>2015-05-25T09:15:34.000Z</time>
      </trkpt>
      <trkpt lat="47.55142" lon="6.66188">
        <ele>511</ele>
        <time>2015-05-25T09:15:35.000Z</time>
      </trkpt>
      <trkpt lat="47.55139" lon="6.66188">
        <ele>511</ele>
        <time>2015-05-25T09:15:36.000Z</time>
      </trkpt>
      <trkpt lat="47.55137" lon="6.66186">
        <ele>511</ele>
        <time>2015-05-25T09:15:37.000Z</time>
      </trkpt>
      <trkpt lat="47.55134" lon="6.66184">
        <ele>511</ele>
        <time>2015-05-25T09:15:38.000Z</time>
      </trkpt>
      <trkpt lat="47.55131" lon="6.66183">
        <ele>511</ele>
        <time>2015-05-25T09:15:39.000Z</time>
      </trkpt>
      <trkpt lat="47.55128" lon="6.66182">
        <ele>511</ele>
        <time>2015-05-25T09:15:40.000Z</time>
      </trkpt>
      <trkpt lat="47.55124" lon="6.66182">
        <ele>512</ele>
        <time>2015-05-25T09:15:41.000Z</time>
      </trkpt>
      <trkpt lat="47.55119" lon="6.66181">
        <ele>512</ele>
        <time>2015-05-25T09:15:42.000Z</time>
      </trkpt>
      <trkpt lat="47.55115" lon="6.6618">
        <ele>512</ele>
        <time>2015-05-25T09:15:43.000Z</time>
      </trkpt>
      <trkpt lat="47.5511" lon="6.66178">
        <ele>512</ele>
        <time>2015-05-25T09:15:44.000Z</time>
      </trkpt>
      <trkpt lat="47.55106" lon="6.66174">
        <ele>512</ele>
        <time>2015-05-25T09:15:45.000Z</time>
      </trkpt>
      <trkpt lat="47.55101" lon="6.6617">
        <ele>513</ele>
        <time>2015-05-25T09:15:46.000Z</time>
      </trkpt>
      <trkpt lat="47.55097" lon="6.66166">
        <ele>509</ele>
        <time>2015-05-25T09:15:47.000Z</time>
      </trkpt>
      <trkpt lat="47.55093" lon="6.66162">
        <ele>509</ele>
        <time>2015-05-25T09:15:48.000Z</time>
      </trkpt>
      <trkpt lat="47.55089" lon="6.66159">
        <ele>510</ele>
        <time>2015-05-25T09:15:49.000Z</time>
      </trkpt>
      <trkpt lat="47.55085" lon="6.66157">
        <ele>510</ele>
        <time>2015-05-25T09:15:50.000Z</time>
      </trkpt>
      <trkpt lat="47.55082" lon="6.66155">
        <ele>512</ele>
        <time>2015-05-25T09:15:51.000Z</time>
      </trkpt>
      <trkpt lat="47.55078" lon="6.66152">
        <ele>512</ele>
        <time>2015-05-25T09:15:52.000Z</time>
      </trkpt>
      <trkpt lat="47.55075" lon="6.6615">
        <ele>511</ele>
        <time>2015-05-25T09:15:53.000Z</time>
      </trkpt>
      <trkpt lat="47.55072" lon="6.66147">
        <ele>511</ele>
        <time>2015-05-25T09:15:54.000Z</time>
      </trkpt>
      <trkpt lat="47.55068" lon="6.66144">
        <ele>510</ele>
        <time>2015-05-25T09:15:55.000Z</time>
      </trkpt>
      <trkpt lat="47.55065" lon="6.6614">
        <ele>510</ele>
        <time>2015-05-25T09:15:56.000Z</time>
      </trkpt>
      <trkpt lat="47.55061" lon="6.66138">
        <ele>510</ele>
        <time>2015-05-25T09:15:57.000Z</time>
      </trkpt>
      <trkpt lat="47.55055" lon="6.66137">
        <ele>510</ele>
        <time>2015-05-25T09:15:58.000Z</time>
      </trkpt>
      <trkpt lat="47.5505" lon="6.66137">
        <ele>510</ele>
        <time>2015-05-25T09:15:59.000Z</time>
      </trkpt>
      <trkpt lat="47.55045" lon="6.66137">
        <ele>510</ele>
        <time>2015-05-25T09:16:00.000Z</time>
      </trkpt>
      <trkpt lat="47.5504" lon="6.66138">
        <ele>510</ele>
        <time>2015-05-25T09:16:01.000Z</time>
      </trkpt>
      <trkpt lat="47.55036" lon="6.66137">
        <ele>510</ele>
        <time>2015-05-25T09:16:02.000Z</time>
      </trkpt>
      <trkpt lat="47.55031" lon="6.66135">
        <ele>510</ele>
        <time>2015-05-25T09:16:03.000Z</time>
      </trkpt>
      <trkpt lat="47.55017" lon="6.66124">
        <ele>510</ele>
        <time>2015-05-25T09:16:04.000Z</time>
      </trkpt>
      <trkpt lat="47.55012" lon="6.66118">
        <ele>510</ele>
        <time>2015-05-25T09:16:05.000Z</time>
      </trkpt>
      <trkpt lat="47.55007" lon="6.66114">
        <ele>509</ele>
        <time>2015-05-25T09:16:06.000Z</time>
      </trkpt>
      <trkpt lat="47.55004" lon="6.6611">
        <ele>509</ele>
        <time>2015-05-25T09:16:07.000Z</time>
      </trkpt>
      <trkpt lat="47.55" lon="6.66107">
        <ele>511</ele>
        <time>2015-05-25T09:16:08.000Z</time>
      </trkpt>
      <trkpt lat="47.54997" lon="6.66102">
        <ele>511</ele>
        <time>2015-05-25T09:16:09.000Z</time>
      </trkpt>
      <trkpt lat="47.54994" lon="6.66099">
        <ele>511</ele>
        <time>2015-05-25T09:16:10.000Z</time>
      </trkpt>
      <trkpt lat="47.54992" lon="6.66096">
        <ele>510</ele>
        <time>2015-05-25T09:16:11.000Z</time>
      </trkpt>
      <trkpt lat="47.54989" lon="6.66092">
        <ele>510</ele>
        <time>2015-05-25T09:16:12.000Z</time>
      </trkpt>
      <trkpt lat="47.54986" lon="6.66089">
        <ele>510</ele>
        <time>2015-05-25T09:16:13.000Z</time>
      </trkpt>
      <trkpt lat="47.54981" lon="6.66088">
        <ele>511</ele>
        <time>2015-05-25T09:16:14.000Z</time>
      </trkpt>
      <trkpt lat="47.54978" lon="6.66085">
        <ele>511</ele>
        <time>2015-05-25T09:16:15.000Z</time>
      </trkpt>
      <trkpt lat="47.54974" lon="6.66082">
        <ele>508</ele>
        <time>2015-05-25T09:16:16.000Z</time>
      </trkpt>
      <trkpt lat="47.54971" lon="6.66079">
        <ele>508</ele>
        <time>2015-05-25T09:16:17.000Z</time>
      </trkpt>
      <trkpt lat="47.54969" lon="6.66075">
        <ele>507</ele>
        <time>2015-05-25T09:16:18.000Z</time>
      </trkpt>
      <trkpt lat="47.54965" lon="6.66071">
        <ele>507</ele>
        <time>2015-05-25T09:16:19.000Z</time>
      </trkpt>
      <trkpt lat="47.54962" lon="6.66067">
        <ele>507</ele>
        <time>2015-05-25T09:16:20.000Z</time>
      </trkpt>
      <trkpt lat="47.54958" lon="6.66062">
        <ele>507</ele>
        <time>2015-05-25T09:16:21.000Z</time>
      </trkpt>
      <trkpt lat="47.54954" lon="6.66058">
        <ele>507</ele>
        <time>2015-05-25T09:16:22.000Z</time>
      </trkpt>
      <trkpt lat="47.5495" lon="6.66053">
        <ele>507</ele>
        <time>2015-05-25T09:16:23.000Z</time>
      </trkpt>
      <trkpt lat="47.54945" lon="6.66049">
        <ele>507</ele>
        <time>2015-05-25T09:16:24.000Z</time>
      </trkpt>
      <trkpt lat="47.5494" lon="6.66045">
        <ele>507</ele>
        <time>2015-05-25T09:16:25.000Z</time>
      </trkpt>
      <trkpt lat="47.54935" lon="6.66042">
        <ele>507</ele>
        <time>2015-05-25T09:16:26.000Z</time>
      </trkpt>
      <trkpt lat="47.5493" lon="6.66039">
        <ele>507</ele>
        <time>2015-05-25T09:16:27.000Z</time>
      </trkpt>
      <trkpt lat="47.54925" lon="6.66035">
        <ele>507</ele>
        <time>2015-05-25T09:16:28.000Z</time>
      </trkpt>
      <trkpt lat="47.54921" lon="6.6603">
        <ele>507</ele>
        <time>2015-05-25T09:16:29.000Z</time>
      </trkpt>
      <trkpt lat="47.54916" lon="6.66025">
        <ele>510</ele>
        <time>2015-05-25T09:16:30.000Z</time>
      </trkpt>
      <trkpt lat="47.5491" lon="6.6602">
        <ele>510</ele>
        <time>2015-05-25T09:16:31.000Z</time>
      </trkpt>
      <trkpt lat="47.54904" lon="6.66016">
        <ele>510</ele>
        <time>2015-05-25T09:16:32.000Z</time>
      </trkpt>
      <trkpt lat="47.54898" lon="6.66011">
        <ele>510</ele>
        <time>2015-05-25T09:16:33.000Z</time>
      </trkpt>
      <trkpt lat="47.54891" lon="6.66007">
        <ele>510</ele>
        <time>2015-05-25T09:16:34.000Z</time>
      </trkpt>
      <trkpt lat="47.54885" lon="6.66004">
        <ele>511</ele>
        <time>2015-05-25T09:16:35.000Z</time>
      </trkpt>
      <trkpt lat="47.54878" lon="6.66001">
        <ele>511</ele>
        <time>2015-05-25T09:16:36.000Z</time>
      </trkpt>
      <trkpt lat="47.54873" lon="6.65999">
        <ele>507</ele>
        <time>2015-05-25T09:16:37.000Z</time>
      </trkpt>
      <trkpt lat="47.54867" lon="6.65997">
        <ele>508</ele>
        <time>2015-05-25T09:16:38.000Z</time>
      </trkpt>
      <trkpt lat="47.54862" lon="6.65995">
        <ele>508</ele>
        <time>2015-05-25T09:16:39.000Z</time>
      </trkpt>
      <trkpt lat="47.54858" lon="6.65993">
        <ele>509</ele>
        <time>2015-05-25T09:16:40.000Z</time>
      </trkpt>
      <trkpt lat="47.54854" lon="6.65992">
        <ele>509</ele>
        <time>2015-05-25T09:16:41.000Z</time>
      </trkpt>
      <trkpt lat="47.5485" lon="6.65991">
        <ele>509</ele>
        <time>2015-05-25T09:16:42.000Z</time>
      </trkpt>
      <trkpt lat="47.54846" lon="6.65989">
        <ele>510</ele>
        <time>2015-05-25T09:16:43.000Z</time>
      </trkpt>
      <trkpt lat="47.54841" lon="6.65986">
        <ele>510</ele>
        <time>2015-05-25T09:16:44.000Z</time>
      </trkpt>
      <trkpt lat="47.54836" lon="6.65983">
        <ele>510</ele>
        <time>2015-05-25T09:16:45.000Z</time>
      </trkpt>
      <trkpt lat="47.54831" lon="6.65979">
        <ele>511</ele>
        <time>2015-05-25T09:16:46.000Z</time>
      </trkpt>
      <trkpt lat="47.54826" lon="6.65976">
        <ele>511</ele>
        <time>2015-05-25T09:16:47.000Z</time>
      </trkpt>
      <trkpt lat="47.54821" lon="6.65973">
        <ele>511</ele>
        <time>2015-05-25T09:16:48.000Z</time>
      </trkpt>
      <trkpt lat="47.54817" lon="6.65969">
        <ele>511</ele>
        <time>2015-05-25T09:16:49.000Z</time>
      </trkpt>
      <trkpt lat="47.54803" lon="6.65964">
        <ele>510</ele>
        <time>2015-05-25T09:16:50.000Z</time>
      </trkpt>
      <trkpt lat="47.54797" lon="6.65961">
        <ele>510</ele>
        <time>2015-05-25T09:16:51.000Z</time>
      </trkpt>
      <trkpt lat="47.54791" lon="6.6596">
        <ele>510</ele>
        <time>2015-05-25T09:16:52.000Z</time>
      </trkpt>
      <trkpt lat="47.54784" lon="6.65958">
        <ele>510</ele>
        <time>2015-05-25T09:16:53.000Z</time>
      </trkpt>
      <trkpt lat="47.54779" lon="6.65956">
        <ele>510</ele>
        <time>2015-05-25T09:16:54.000Z</time>
      </trkpt>
      <trkpt lat="47.54773" lon="6.65952">
        <ele>510</ele>
        <time>2015-05-25T09:16:55.000Z</time>
      </trkpt>
      <trkpt lat="47.54766" lon="6.65952">
        <ele>510</ele>
        <time>2015-05-25T09:16:56.000Z</time>
      </trkpt>
      <trkpt lat="47.5476" lon="6.65948">
        <ele>510</ele>
        <time>2015-05-25T09:16:57.000Z</time>
      </trkpt>
      <trkpt lat="47.54753" lon="6.65944">
        <ele>510</ele>
        <time>2015-05-25T09:16:58.000Z</time>
      </trkpt>
      <trkpt lat="47.54748" lon="6.65943">
        <ele>512</ele>
        <time>2015-05-25T09:16:59.000Z</time>
      </trkpt>
      <trkpt lat="47.54742" lon="6.65941">
        <ele>512</ele>
        <time>2015-05-25T09:17:00.000Z</time>
      </trkpt>
      <trkpt lat="47.54736" lon="6.65941">
        <ele>512</ele>
        <time>2015-05-25T09:17:01.000Z</time>
      </trkpt>
      <trkpt lat="47.54731" lon="6.65942">
        <ele>512</ele>
        <time>2015-05-25T09:17:02.000Z</time>
      </trkpt>
      <trkpt lat="47.54725" lon="6.6594">
        <ele>512</ele>
        <time>2015-05-25T09:17:03.000Z</time>
      </trkpt>
      <trkpt lat="47.5472" lon="6.65938">
        <ele>512</ele>
        <time>2015-05-25T09:17:04.000Z</time>
      </trkpt>
      <trkpt lat="47.54718" lon="6.65931">
        <ele>512</ele>
        <time>2015-05-25T09:17:05.000Z</time>
      </trkpt>
      <trkpt lat="47.54714" lon="6.65926">
        <ele>512</ele>
        <time>2015-05-25T09:17:06.000Z</time>
      </trkpt>
      <trkpt lat="47.54708" lon="6.65924">
        <ele>512</ele>
        <time>2015-05-25T09:17:07.000Z</time>
      </trkpt>
      <trkpt lat="47.54703" lon="6.65921">
        <ele>513</ele>
        <time>2015-05-25T09:17:08.000Z</time>
      </trkpt>
      <trkpt lat="47.54697" lon="6.65916">
        <ele>510</ele>
        <time>2015-05-25T09:17:09.000Z</time>
      </trkpt>
      <trkpt lat="47.54694" lon="6.65913">
        <ele>510</ele>
        <time>2015-05-25T09:17:10.000Z</time>
      </trkpt>
      <trkpt lat="47.5469" lon="6.6591">
        <ele>510</ele>
        <time>2015-05-25T09:17:11.000Z</time>
      </trkpt>
      <trkpt lat="47.54686" lon="6.65908">
        <ele>511</ele>
        <time>2015-05-25T09:17:12.000Z</time>
      </trkpt>
      <trkpt lat="47.54684" lon="6.65907">
        <ele>511</ele>
        <time>2015-05-25T09:17:13.000Z</time>
      </trkpt>
      <trkpt lat="47.5468" lon="6.65904">
        <ele>511</ele>
        <time>2015-05-25T09:17:14.000Z</time>
      </trkpt>
      <trkpt lat="47.54676" lon="6.65903">
        <ele>511</ele>
        <time>2015-05-25T09:17:15.000Z</time>
      </trkpt>
      <trkpt lat="47.54673" lon="6.65901">
        <ele>511</ele>
        <time>2015-05-25T09:17:16.000Z</time>
      </trkpt>
      <trkpt lat="47.54669" lon="6.65901">
        <ele>511</ele>
        <time>2015-05-25T09:17:17.000Z</time>
      </trkpt>
      <trkpt lat="47.54664" lon="6.65898">
        <ele>512</ele>
        <time>2015-05-25T09:17:18.000Z</time>
      </trkpt>
      <trkpt lat="47.54661" lon="6.65896">
        <ele>512</ele>
        <time>2015-05-25T09:17:19.000Z</time>
      </trkpt>
      <trkpt lat="47.54658" lon="6.65894">
        <ele>512</ele>
        <time>2015-05-25T09:17:20.000Z</time>
      </trkpt>
      <trkpt lat="47.54654" lon="6.65892">
        <ele>512</ele>
        <time>2015-05-25T09:17:21.000Z</time>
      </trkpt>
      <trkpt lat="47.54651" lon="6.65889">
        <ele>512</ele>
        <time>2015-05-25T09:17:22.000Z</time>
      </trkpt>
      <trkpt lat="47.54647" lon="6.65887">
        <ele>511</ele>
        <time>2015-05-25T09:17:23.000Z</time>
      </trkpt>
      <trkpt lat="47.54643" lon="6.65885">
        <ele>511</ele>
        <time>2015-05-25T09:17:24.000Z</time>
      </trkpt>
      <trkpt lat="47.5464" lon="6.65882">
        <ele>511</ele>
        <time>2015-05-25T09:17:25.000Z</time>
      </trkpt>
      <trkpt lat="47.54636" lon="6.6588">
        <ele>511</ele>
        <time>2015-05-25T09:17:26.000Z</time>
      </trkpt>
      <trkpt lat="47.54631" lon="6.65877">
        <ele>511</ele>
        <time>2015-05-25T09:17:27.000Z</time>
      </trkpt>
      <trkpt lat="47.54627" lon="6.65875">
        <ele>511</ele>
        <time>2015-05-25T09:17:28.000Z</time>
      </trkpt>
      <trkpt lat="47.54622" lon="6.65871">
        <ele>511</ele>
        <time>2015-05-25T09:17:29.000Z</time>
      </trkpt>
      <trkpt lat="47.54618" lon="6.65868">
        <ele>511</ele>
        <time>2015-05-25T09:17:30.000Z</time>
      </trkpt>
      <trkpt lat="47.54613" lon="6.65865">
        <ele>511</ele>
        <time>2015-05-25T09:17:31.000Z</time>
      </trkpt>
      <trkpt lat="47.54608" lon="6.65862">
        <ele>511</ele>
        <time>2015-05-25T09:17:32.000Z</time>
      </trkpt>
      <trkpt lat="47.54603" lon="6.65859">
        <ele>511</ele>
        <time>2015-05-25T09:17:33.000Z</time>
      </trkpt>
      <trkpt lat="47.54599" lon="6.65857">
        <ele>511</ele>
        <time>2015-05-25T09:17:34.000Z</time>
      </trkpt>
      <trkpt lat="47.54594" lon="6.65854">
        <ele>511</ele>
        <time>2015-05-25T09:17:35.000Z</time>
      </trkpt>
      <trkpt lat="47.5459" lon="6.65851">
        <ele>511</ele>
        <time>2015-05-25T09:17:36.000Z</time>
      </trkpt>
      <trkpt lat="47.54581" lon="6.65847">
        <ele>511</ele>
        <time>2015-05-25T09:17:37.000Z</time>
      </trkpt>
      <trkpt lat="47.54576" lon="6.65844">
        <ele>511</ele>
        <time>2015-05-25T09:17:38.000Z</time>
      </trkpt>
      <trkpt lat="47.54573" lon="6.65839">
        <ele>511</ele>
        <time>2015-05-25T09:17:39.000Z</time>
      </trkpt>
      <trkpt lat="47.54569" lon="6.65834">
        <ele>511</ele>
        <time>2015-05-25T09:17:40.000Z</time>
      </trkpt>
      <trkpt lat="47.54563" lon="6.65829">
        <ele>510</ele>
        <time>2015-05-25T09:17:41.000Z</time>
      </trkpt>
      <trkpt lat="47.54559" lon="6.65822">
        <ele>510</ele>
        <time>2015-05-25T09:17:42.000Z</time>
      </trkpt>
      <trkpt lat="47.54559" lon="6.65819">
        <ele>510</ele>
        <time>2015-05-25T09:17:43.000Z</time>
      </trkpt>
      <trkpt lat="47.54555" lon="6.65813">
        <ele>510</ele>
        <time>2015-05-25T09:17:44.000Z</time>
      </trkpt>
      <trkpt lat="47.5455" lon="6.65807">
        <ele>510</ele>
        <time>2015-05-25T09:17:45.000Z</time>
      </trkpt>
      <trkpt lat="47.54547" lon="6.65801">
        <ele>510</ele>
        <time>2015-05-25T09:17:46.000Z</time>
      </trkpt>
      <trkpt lat="47.54543" lon="6.65795">
        <ele>510</ele>
        <time>2015-05-25T09:17:47.000Z</time>
      </trkpt>
      <trkpt lat="47.54536" lon="6.6579">
        <ele>510</ele>
        <time>2015-05-25T09:17:48.000Z</time>
      </trkpt>
      <trkpt lat="47.54531" lon="6.65784">
        <ele>510</ele>
        <time>2015-05-25T09:17:49.000Z</time>
      </trkpt>
      <trkpt lat="47.54527" lon="6.6578">
        <ele>510</ele>
        <time>2015-05-25T09:17:50.000Z</time>
      </trkpt>
      <trkpt lat="47.54522" lon="6.65775">
        <ele>510</ele>
        <time>2015-05-25T09:17:51.000Z</time>
      </trkpt>
      <trkpt lat="47.54516" lon="6.65769">
        <ele>510</ele>
        <time>2015-05-25T09:17:52.000Z</time>
      </trkpt>
      <trkpt lat="47.54511" lon="6.65764">
        <ele>510</ele>
        <time>2015-05-25T09:17:53.000Z</time>
      </trkpt>
      <trkpt lat="47.54508" lon="6.65759">
        <ele>510</ele>
        <time>2015-05-25T09:17:54.000Z</time>
      </trkpt>
      <trkpt lat="47.54505" lon="6.65755">
        <ele>511</ele>
        <time>2015-05-25T09:17:55.000Z</time>
      </trkpt>
      <trkpt lat="47.54497" lon="6.65753">
        <ele>511</ele>
        <time>2015-05-25T09:17:56.000Z</time>
      </trkpt>
      <trkpt lat="47.54494" lon="6.65748">
        <ele>511</ele>
        <time>2015-05-25T09:17:57.000Z</time>
      </trkpt>
      <trkpt lat="47.54489" lon="6.65743">
        <ele>511</ele>
        <time>2015-05-25T09:17:58.000Z</time>
      </trkpt>
      <trkpt lat="47.54486" lon="6.65739">
        <ele>511</ele>
        <time>2015-05-25T09:17:59.000Z</time>
      </trkpt>
      <trkpt lat="47.54483" lon="6.65735">
        <ele>511</ele>
        <time>2015-05-25T09:18:00.000Z</time>
      </trkpt>
      <trkpt lat="47.54481" lon="6.65731">
        <ele>510</ele>
        <time>2015-05-25T09:18:01.000Z</time>
      </trkpt>
      <trkpt lat="47.54478" lon="6.65727">
        <ele>510</ele>
        <time>2015-05-25T09:18:02.000Z</time>
      </trkpt>
      <trkpt lat="47.54475" lon="6.65724">
        <ele>510</ele>
        <time>2015-05-25T09:18:03.000Z</time>
      </trkpt>
      <trkpt lat="47.54472" lon="6.65719">
        <ele>510</ele>
        <time>2015-05-25T09:18:04.000Z</time>
      </trkpt>
      <trkpt lat="47.54463" lon="6.65708">
        <ele>510</ele>
        <time>2015-05-25T09:18:05.000Z</time>
      </trkpt>
      <trkpt lat="47.54457" lon="6.65704">
        <ele>510</ele>
        <time>2015-05-25T09:18:06.000Z</time>
      </trkpt>
      <trkpt lat="47.54451" lon="6.657">
        <ele>510</ele>
        <time>2015-05-25T09:18:07.000Z</time>
      </trkpt>
      <trkpt lat="47.54441" lon="6.65692">
        <ele>510</ele>
        <time>2015-05-25T09:18:08.000Z</time>
      </trkpt>
      <trkpt lat="47.54436" lon="6.65687">
        <ele>510</ele>
        <time>2015-05-25T09:18:09.000Z</time>
      </trkpt>
      <trkpt lat="47.54429" lon="6.65682">
        <ele>511</ele>
        <time>2015-05-25T09:18:10.000Z</time>
      </trkpt>
      <trkpt lat="47.54422" lon="6.65677">
        <ele>511</ele>
        <time>2015-05-25T09:18:11.000Z</time>
      </trkpt>
      <trkpt lat="47.54414" lon="6.6567">
        <ele>511</ele>
        <time>2015-05-25T09:18:12.000Z</time>
      </trkpt>
      <trkpt lat="47.5441" lon="6.65666">
        <ele>511</ele>
        <time>2015-05-25T09:18:13.000Z</time>
      </trkpt>
      <trkpt lat="47.54406" lon="6.65662">
        <ele>510</ele>
        <time>2015-05-25T09:18:14.000Z</time>
      </trkpt>
      <trkpt lat="47.54403" lon="6.65656">
        <ele>510</ele>
        <time>2015-05-25T09:18:15.000Z</time>
      </trkpt>
      <trkpt lat="47.54399" lon="6.65649">
        <ele>510</ele>
        <time>2015-05-25T09:18:16.000Z</time>
      </trkpt>
      <trkpt lat="47.54396" lon="6.65643">
        <ele>510</ele>
        <time>2015-05-25T09:18:17.000Z</time>
      </trkpt>
      <trkpt lat="47.54391" lon="6.65638">
        <ele>510</ele>
        <time>2015-05-25T09:18:18.000Z</time>
      </trkpt>
      <trkpt lat="47.54383" lon="6.65632">
        <ele>509</ele>
        <time>2015-05-25T09:18:19.000Z</time>
      </trkpt>
      <trkpt lat="47.54377" lon="6.65625">
        <ele>509</ele>
        <time>2015-05-25T09:18:20.000Z</time>
      </trkpt>
      <trkpt lat="47.54372" lon="6.65619">
        <ele>509</ele>
        <time>2015-05-25T09:18:21.000Z</time>
      </trkpt>
      <trkpt lat="47.54367" lon="6.65612">
        <ele>509</ele>
        <time>2015-05-25T09:18:22.000Z</time>
      </trkpt>
      <trkpt lat="47.54362" lon="6.65608">
        <ele>509</ele>
        <time>2015-05-25T09:18:23.000Z</time>
      </trkpt>
      <trkpt lat="47.54355" lon="6.65602">
        <ele>509</ele>
        <time>2015-05-25T09:18:24.000Z</time>
      </trkpt>
      <trkpt lat="47.54349" lon="6.65595">
        <ele>508</ele>
        <time>2015-05-25T09:18:25.000Z</time>
      </trkpt>
      <trkpt lat="47.5434" lon="6.65586">
        <ele>508</ele>
        <time>2015-05-25T09:18:26.000Z</time>
      </trkpt>
      <trkpt lat="47.54332" lon="6.65581">
        <ele>507</ele>
        <time>2015-05-25T09:18:27.000Z</time>
      </trkpt>
      <trkpt lat="47.54325" lon="6.65574">
        <ele>506</ele>
        <time>2015-05-25T09:18:28.000Z</time>
      </trkpt>
      <trkpt lat="47.54318" lon="6.65568">
        <ele>506</ele>
        <time>2015-05-25T09:18:29.000Z</time>
      </trkpt>
      <trkpt lat="47.54313" lon="6.65561">
        <ele>506</ele>
        <time>2015-05-25T09:18:30.000Z</time>
      </trkpt>
      <trkpt lat="47.54305" lon="6.65552">
        <ele>505</ele>
        <time>2015-05-25T09:18:31.000Z</time>
      </trkpt>
      <trkpt lat="47.54296" lon="6.65546">
        <ele>505</ele>
        <time>2015-05-25T09:18:32.000Z</time>
      </trkpt>
      <trkpt lat="47.5429" lon="6.6554">
        <ele>505</ele>
        <time>2015-05-25T09:18:33.000Z</time>
      </trkpt>
      <trkpt lat="47.54285" lon="6.65534">
        <ele>505</ele>
        <time>2015-05-25T09:18:34.000Z</time>
      </trkpt>
      <trkpt lat="47.54281" lon="6.65526">
        <ele>505</ele>
        <time>2015-05-25T09:18:35.000Z</time>
      </trkpt>
      <trkpt lat="47.54278" lon="6.65521">
        <ele>505</ele>
        <time>2015-05-25T09:18:36.000Z</time>
      </trkpt>
      <trkpt lat="47.54277" lon="6.65517">
        <ele>505</ele>
        <time>2015-05-25T09:18:37.000Z</time>
      </trkpt>
      <trkpt lat="47.54277" lon="6.65513">
        <ele>505</ele>
        <time>2015-05-25T09:18:38.000Z</time>
      </trkpt>
      <trkpt lat="47.54274" lon="6.65511">
        <ele>505</ele>
        <time>2015-05-25T09:18:39.000Z</time>
      </trkpt>
      <trkpt lat="47.5427" lon="6.65505">
        <ele>504</ele>
        <time>2015-05-25T09:18:40.000Z</time>
      </trkpt>
      <trkpt lat="47.54268" lon="6.65501">
        <ele>504</ele>
        <time>2015-05-25T09:18:41.000Z</time>
      </trkpt>
      <trkpt lat="47.54265" lon="6.65497">
        <ele>502</ele>
        <time>2015-05-25T09:18:42.000Z</time>
      </trkpt>
      <trkpt lat="47.54258" lon="6.6549">
        <ele>502</ele>
        <time>2015-05-25T09:18:43.000Z</time>
      </trkpt>
      <trkpt lat="47.54255" lon="6.65486">
        <ele>501</ele>
        <time>2015-05-25T09:18:44.000Z</time>
      </trkpt>
      <trkpt lat="47.54252" lon="6.65482">
        <ele>501</ele>
        <time>2015-05-25T09:18:45.000Z</time>
      </trkpt>
      <trkpt lat="47.54248" lon="6.65478">
        <ele>502</ele>
        <time>2015-05-25T09:18:46.000Z</time>
      </trkpt>
      <trkpt lat="47.54244" lon="6.65474">
        <ele>502</ele>
        <time>2015-05-25T09:18:47.000Z</time>
      </trkpt>
      <trkpt lat="47.5423" lon="6.65468">
        <ele>501</ele>
        <time>2015-05-25T09:18:48.000Z</time>
      </trkpt>
      <trkpt lat="47.54226" lon="6.65462">
        <ele>501</ele>
        <time>2015-05-25T09:18:49.000Z</time>
      </trkpt>
      <trkpt lat="47.5422" lon="6.65456">
        <ele>501</ele>
        <time>2015-05-25T09:18:50.000Z</time>
      </trkpt>
      <trkpt lat="47.54215" lon="6.65447">
        <ele>500</ele>
        <time>2015-05-25T09:18:51.000Z</time>
      </trkpt>
      <trkpt lat="47.54213" lon="6.65441">
        <ele>500</ele>
        <time>2015-05-25T09:18:52.000Z</time>
      </trkpt>
      <trkpt lat="47.54203" lon="6.65435">
        <ele>500</ele>
        <time>2015-05-25T09:18:53.000Z</time>
      </trkpt>
      <trkpt lat="47.54199" lon="6.65428">
        <ele>500</ele>
        <time>2015-05-25T09:18:54.000Z</time>
      </trkpt>
      <trkpt lat="47.54191" lon="6.6542">
        <ele>500</ele>
        <time>2015-05-25T09:18:55.000Z</time>
      </trkpt>
      <trkpt lat="47.54185" lon="6.65411">
        <ele>497</ele>
        <time>2015-05-25T09:18:56.000Z</time>
      </trkpt>
      <trkpt lat="47.54179" lon="6.65401">
        <ele>497</ele>
        <time>2015-05-25T09:18:57.000Z</time>
      </trkpt>
      <trkpt lat="47.54175" lon="6.65394">
        <ele>496</ele>
        <time>2015-05-25T09:18:58.000Z</time>
      </trkpt>
      <trkpt lat="47.54168" lon="6.65387">
        <ele>496</ele>
        <time>2015-05-25T09:18:59.000Z</time>
      </trkpt>
      <trkpt lat="47.54165" lon="6.65381">
        <ele>497</ele>
        <time>2015-05-25T09:19:00.000Z</time>
      </trkpt>
      <trkpt lat="47.54158" lon="6.65373">
        <ele>497</ele>
        <time>2015-05-25T09:19:01.000Z</time>
      </trkpt>
      <trkpt lat="47.54152" lon="6.65364">
        <ele>497</ele>
        <time>2015-05-25T09:19:02.000Z</time>
      </trkpt>
      <trkpt lat="47.54153" lon="6.65356">
        <ele>496</ele>
        <time>2015-05-25T09:19:03.000Z</time>
      </trkpt>
      <trkpt lat="47.5415" lon="6.65348">
        <ele>496</ele>
        <time>2015-05-25T09:19:04.000Z</time>
      </trkpt>
      <trkpt lat="47.54145" lon="6.65341">
        <ele>496</ele>
        <time>2015-05-25T09:19:05.000Z</time>
      </trkpt>
      <trkpt lat="47.5414" lon="6.65334">
        <ele>496</ele>
        <time>2015-05-25T09:19:06.000Z</time>
      </trkpt>
      <trkpt lat="47.54136" lon="6.65329">
        <ele>491</ele>
        <time>2015-05-25T09:19:07.000Z</time>
      </trkpt>
      <trkpt lat="47.54133" lon="6.65325">
        <ele>491</ele>
        <time>2015-05-25T09:19:08.000Z</time>
      </trkpt>
      <trkpt lat="47.5413" lon="6.65317">
        <ele>491</ele>
        <time>2015-05-25T09:19:09.000Z</time>
      </trkpt>
      <trkpt lat="47.54125" lon="6.65307">
        <ele>490</ele>
        <time>2015-05-25T09:19:10.000Z</time>
      </trkpt>
      <trkpt lat="47.54121" lon="6.653">
        <ele>490</ele>
        <time>2015-05-25T09:19:11.000Z</time>
      </trkpt>
      <trkpt lat="47.54114" lon="6.65286">
        <ele>490</ele>
        <time>2015-05-25T09:19:12.000Z</time>
      </trkpt>
      <trkpt lat="47.54108" lon="6.65275">
        <ele>489</ele>
        <time>2015-05-25T09:19:13.000Z</time>
      </trkpt>
      <trkpt lat="47.54096" lon="6.65273">
        <ele>489</ele>
        <time>2015-05-25T09:19:14.000Z</time>
      </trkpt>
      <trkpt lat="47.54089" lon="6.65268">
        <ele>489</ele>
        <time>2015-05-25T09:19:15.000Z</time>
      </trkpt>
      <trkpt lat="47.54083" lon="6.65263">
        <ele>489</ele>
        <time>2015-05-25T09:19:16.000Z</time>
      </trkpt>
      <trkpt lat="47.54079" lon="6.65258">
        <ele>490</ele>
        <time>2015-05-25T09:19:17.000Z</time>
      </trkpt>
      <trkpt lat="47.54075" lon="6.65253">
        <ele>490</ele>
        <time>2015-05-25T09:19:18.000Z</time>
      </trkpt>
      <trkpt lat="47.54069" lon="6.65247">
        <ele>487</ele>
        <time>2015-05-25T09:19:19.000Z</time>
      </trkpt>
      <trkpt lat="47.54062" lon="6.65241">
        <ele>486</ele>
        <time>2015-05-25T09:19:20.000Z</time>
      </trkpt>
      <trkpt lat="47.54057" lon="6.65234">
        <ele>486</ele>
        <time>2015-05-25T09:19:21.000Z</time>
      </trkpt>
      <trkpt lat="47.54053" lon="6.65227">
        <ele>486</ele>
        <time>2015-05-25T09:19:22.000Z</time>
      </trkpt>
      <trkpt lat="47.54047" lon="6.6522">
        <ele>486</ele>
        <time>2015-05-25T09:19:23.000Z</time>
      </trkpt>
      <trkpt lat="47.54042" lon="6.65214">
        <ele>485</ele>
        <time>2015-05-25T09:19:24.000Z</time>
      </trkpt>
      <trkpt lat="47.54038" lon="6.65206">
        <ele>485</ele>
        <time>2015-05-25T09:19:25.000Z</time>
      </trkpt>
      <trkpt lat="47.54033" lon="6.65199">
        <ele>485</ele>
        <time>2015-05-25T09:19:26.000Z</time>
      </trkpt>
      <trkpt lat="47.54028" lon="6.65191">
        <ele>484</ele>
        <time>2015-05-25T09:19:27.000Z</time>
      </trkpt>
      <trkpt lat="47.54023" lon="6.65184">
        <ele>484</ele>
        <time>2015-05-25T09:19:28.000Z</time>
      </trkpt>
      <trkpt lat="47.54018" lon="6.65177">
        <ele>484</ele>
        <time>2015-05-25T09:19:29.000Z</time>
      </trkpt>
      <trkpt lat="47.54014" lon="6.6517">
        <ele>484</ele>
        <time>2015-05-25T09:19:30.000Z</time>
      </trkpt>
      <trkpt lat="47.54008" lon="6.65162">
        <ele>481</ele>
        <time>2015-05-25T09:19:31.000Z</time>
      </trkpt>
      <trkpt lat="47.54003" lon="6.65155">
        <ele>480</ele>
        <time>2015-05-25T09:19:32.000Z</time>
      </trkpt>
      <trkpt lat="47.53999" lon="6.65149">
        <ele>483</ele>
        <time>2015-05-25T09:19:33.000Z</time>
      </trkpt>
      <trkpt lat="47.53994" lon="6.65142">
        <ele>483</ele>
        <time>2015-05-25T09:19:34.000Z</time>
      </trkpt>
      <trkpt lat="47.53991" lon="6.65138">
        <ele>483</ele>
        <time>2015-05-25T09:19:35.000Z</time>
      </trkpt>
      <trkpt lat="47.53988" lon="6.65134">
        <ele>483</ele>
        <time>2015-05-25T09:19:36.000Z</time>
      </trkpt>
      <trkpt lat="47.53987" lon="6.65131">
        <ele>483</ele>
        <time>2015-05-25T09:19:37.000Z</time>
      </trkpt>
      <trkpt lat="47.53984" lon="6.65127">
        <ele>483</ele>
        <time>2015-05-25T09:19:38.000Z</time>
      </trkpt>
      <trkpt lat="47.53982" lon="6.65123">
        <ele>482</ele>
        <time>2015-05-25T09:19:39.000Z</time>
      </trkpt>
      <trkpt lat="47.53978" lon="6.65117">
        <ele>482</ele>
        <time>2015-05-25T09:19:40.000Z</time>
      </trkpt>
      <trkpt lat="47.53976" lon="6.65111">
        <ele>482</ele>
        <time>2015-05-25T09:19:41.000Z</time>
      </trkpt>
      <trkpt lat="47.53972" lon="6.65109">
        <ele>482</ele>
        <time>2015-05-25T09:19:42.000Z</time>
      </trkpt>
      <trkpt lat="47.5397" lon="6.65107">
        <ele>482</ele>
        <time>2015-05-25T09:19:43.000Z</time>
      </trkpt>
      <trkpt lat="47.53967" lon="6.65106">
        <ele>482</ele>
        <time>2015-05-25T09:19:45.000Z</time>
      </trkpt>
      <trkpt lat="47.53965" lon="6.65104">
        <ele>483</ele>
        <time>2015-05-25T09:19:46.000Z</time>
      </trkpt>
      <trkpt lat="47.53963" lon="6.65101">
        <ele>483</ele>
        <time>2015-05-25T09:19:47.000Z</time>
      </trkpt>
      <trkpt lat="47.53961" lon="6.65098">
        <ele>483</ele>
        <time>2015-05-25T09:19:48.000Z</time>
      </trkpt>
      <trkpt lat="47.53958" lon="6.65094">
        <ele>483</ele>
        <time>2015-05-25T09:19:49.000Z</time>
      </trkpt>
      <trkpt lat="47.53954" lon="6.65091">
        <ele>483</ele>
        <time>2015-05-25T09:19:50.000Z</time>
      </trkpt>
      <trkpt lat="47.53951" lon="6.65087">
        <ele>483</ele>
        <time>2015-05-25T09:19:51.000Z</time>
      </trkpt>
      <trkpt lat="47.53947" lon="6.65083">
        <ele>478</ele>
        <time>2015-05-25T09:19:52.000Z</time>
      </trkpt>
      <trkpt lat="47.53944" lon="6.6508">
        <ele>478</ele>
        <time>2015-05-25T09:19:53.000Z</time>
      </trkpt>
      <trkpt lat="47.5394" lon="6.65076">
        <ele>479</ele>
        <time>2015-05-25T09:19:54.000Z</time>
      </trkpt>
      <trkpt lat="47.53936" lon="6.65074">
        <ele>479</ele>
        <time>2015-05-25T09:19:55.000Z</time>
      </trkpt>
      <trkpt lat="47.53933" lon="6.65072">
        <ele>479</ele>
        <time>2015-05-25T09:19:56.000Z</time>
      </trkpt>
      <trkpt lat="47.53929" lon="6.65071">
        <ele>480</ele>
        <time>2015-05-25T09:19:58.000Z</time>
      </trkpt>
      <trkpt lat="47.53928" lon="6.65069">
        <ele>480</ele>
        <time>2015-05-25T09:19:59.000Z</time>
      </trkpt>
      <trkpt lat="47.53926" lon="6.65064">
        <ele>479</ele>
        <time>2015-05-25T09:20:01.000Z</time>
      </trkpt>
      <trkpt lat="47.53924" lon="6.65061">
        <ele>479</ele>
        <time>2015-05-25T09:20:02.000Z</time>
      </trkpt>
      <trkpt lat="47.53921" lon="6.65057">
        <ele>478</ele>
        <time>2015-05-25T09:20:03.000Z</time>
      </trkpt>
      <trkpt lat="47.53917" lon="6.65053">
        <ele>482</ele>
        <time>2015-05-25T09:20:04.000Z</time>
      </trkpt>
      <trkpt lat="47.53912" lon="6.65049">
        <ele>482</ele>
        <time>2015-05-25T09:20:05.000Z</time>
      </trkpt>
      <trkpt lat="47.53907" lon="6.65045">
        <ele>481</ele>
        <time>2015-05-25T09:20:06.000Z</time>
      </trkpt>
      <trkpt lat="47.53902" lon="6.65041">
        <ele>481</ele>
        <time>2015-05-25T09:20:07.000Z</time>
      </trkpt>
      <trkpt lat="47.53898" lon="6.65036">
        <ele>481</ele>
        <time>2015-05-25T09:20:08.000Z</time>
      </trkpt>
      <trkpt lat="47.53894" lon="6.65032">
        <ele>480</ele>
        <time>2015-05-25T09:20:09.000Z</time>
      </trkpt>
      <trkpt lat="47.53891" lon="6.65026">
        <ele>480</ele>
        <time>2015-05-25T09:20:10.000Z</time>
      </trkpt>
      <trkpt lat="47.53888" lon="6.65021">
        <ele>480</ele>
        <time>2015-05-25T09:20:11.000Z</time>
      </trkpt>
      <trkpt lat="47.53885" lon="6.65016">
        <ele>480</ele>
        <time>2015-05-25T09:20:12.000Z</time>
      </trkpt>
      <trkpt lat="47.53881" lon="6.65013">
        <ele>480</ele>
        <time>2015-05-25T09:20:13.000Z</time>
      </trkpt>
      <trkpt lat="47.53876" lon="6.65012">
        <ele>480</ele>
        <time>2015-05-25T09:20:14.000Z</time>
      </trkpt>
      <trkpt lat="47.53871" lon="6.65012">
        <ele>480</ele>
        <time>2015-05-25T09:20:15.000Z</time>
      </trkpt>
      <trkpt lat="47.53866" lon="6.65012">
        <ele>481</ele>
        <time>2015-05-25T09:20:16.000Z</time>
      </trkpt>
      <trkpt lat="47.5386" lon="6.6501">
        <ele>481</ele>
        <time>2015-05-25T09:20:17.000Z</time>
      </trkpt>
      <trkpt lat="47.53855" lon="6.65008">
        <ele>481</ele>
        <time>2015-05-25T09:20:18.000Z</time>
      </trkpt>
      <trkpt lat="47.53843" lon="6.64997">
        <ele>477</ele>
        <time>2015-05-25T09:20:19.000Z</time>
      </trkpt>
      <trkpt lat="47.53836" lon="6.6499">
        <ele>477</ele>
        <time>2015-05-25T09:20:20.000Z</time>
      </trkpt>
      <trkpt lat="47.53829" lon="6.64986">
        <ele>477</ele>
        <time>2015-05-25T09:20:21.000Z</time>
      </trkpt>
      <trkpt lat="47.53823" lon="6.64985">
        <ele>477</ele>
        <time>2015-05-25T09:20:22.000Z</time>
      </trkpt>
      <trkpt lat="47.53816" lon="6.64986">
        <ele>477</ele>
        <time>2015-05-25T09:20:23.000Z</time>
      </trkpt>
      <trkpt lat="47.53816" lon="6.64996">
        <ele>477</ele>
        <time>2015-05-25T09:20:24.000Z</time>
      </trkpt>
      <trkpt lat="47.53811" lon="6.64996">
        <ele>477</ele>
        <time>2015-05-25T09:20:26.000Z</time>
      </trkpt>
      <trkpt lat="47.53808" lon="6.64997">
        <ele>477</ele>
        <time>2015-05-25T09:20:27.000Z</time>
      </trkpt>
      <trkpt lat="47.53805" lon="6.64997">
        <ele>477</ele>
        <time>2015-05-25T09:20:28.000Z</time>
      </trkpt>
      <trkpt lat="47.53803" lon="6.64995">
        <ele>476</ele>
        <time>2015-05-25T09:20:29.000Z</time>
      </trkpt>
      <trkpt lat="47.53802" lon="6.64993">
        <ele>476</ele>
        <time>2015-05-25T09:20:30.000Z</time>
      </trkpt>
      <trkpt lat="47.53799" lon="6.6499">
        <ele>476</ele>
        <time>2015-05-25T09:20:31.000Z</time>
      </trkpt>
      <trkpt lat="47.53797" lon="6.64987">
        <ele>476</ele>
        <time>2015-05-25T09:20:32.000Z</time>
      </trkpt>
      <trkpt lat="47.53794" lon="6.64982">
        <ele>476</ele>
        <time>2015-05-25T09:20:33.000Z</time>
      </trkpt>
      <trkpt lat="47.5379" lon="6.64978">
        <ele>475</ele>
        <time>2015-05-25T09:20:34.000Z</time>
      </trkpt>
      <trkpt lat="47.53786" lon="6.64974">
        <ele>475</ele>
        <time>2015-05-25T09:20:35.000Z</time>
      </trkpt>
      <trkpt lat="47.53781" lon="6.64971">
        <ele>475</ele>
        <time>2015-05-25T09:20:36.000Z</time>
      </trkpt>
      <trkpt lat="47.53769" lon="6.6496">
        <ele>475</ele>
        <time>2015-05-25T09:20:37.000Z</time>
      </trkpt>
      <trkpt lat="47.53761" lon="6.64952">
        <ele>474</ele>
        <time>2015-05-25T09:20:38.000Z</time>
      </trkpt>
      <trkpt lat="47.53752" lon="6.64947">
        <ele>474</ele>
        <time>2015-05-25T09:20:39.000Z</time>
      </trkpt>
      <trkpt lat="47.53744" lon="6.64945">
        <ele>473</ele>
        <time>2015-05-25T09:20:40.000Z</time>
      </trkpt>
      <trkpt lat="47.53741" lon="6.64943">
        <ele>473</ele>
        <time>2015-05-25T09:20:41.000Z</time>
      </trkpt>
      <trkpt lat="47.53735" lon="6.64941">
        <ele>473</ele>
        <time>2015-05-25T09:20:42.000Z</time>
      </trkpt>
      <trkpt lat="47.53722" lon="6.64942">
        <ele>473</ele>
        <time>2015-05-25T09:20:43.000Z</time>
      </trkpt>
      <trkpt lat="47.53711" lon="6.64946">
        <ele>473</ele>
        <time>2015-05-25T09:20:44.000Z</time>
      </trkpt>
      <trkpt lat="47.53707" lon="6.64948">
        <ele>473</ele>
        <time>2015-05-25T09:20:45.000Z</time>
      </trkpt>
      <trkpt lat="47.53704" lon="6.6495">
        <ele>473</ele>
        <time>2015-05-25T09:20:46.000Z</time>
      </trkpt>
      <trkpt lat="47.537" lon="6.64954">
        <ele>473</ele>
        <time>2015-05-25T09:20:48.000Z</time>
      </trkpt>
      <trkpt lat="47.537" lon="6.64956">
        <ele>473</ele>
        <time>2015-05-25T09:20:49.000Z</time>
      </trkpt>
      <trkpt lat="47.53696" lon="6.64958">
        <ele>473</ele>
        <time>2015-05-25T09:20:51.000Z</time>
      </trkpt>
      <trkpt lat="47.53694" lon="6.64961">
        <ele>473</ele>
        <time>2015-05-25T09:20:52.000Z</time>
      </trkpt>
      <trkpt lat="47.53691" lon="6.64964">
        <ele>474</ele>
        <time>2015-05-25T09:20:53.000Z</time>
      </trkpt>
      <trkpt lat="47.53689" lon="6.64966">
        <ele>474</ele>
        <time>2015-05-25T09:20:54.000Z</time>
      </trkpt>
      <trkpt lat="47.53687" lon="6.64968">
        <ele>474</ele>
        <time>2015-05-25T09:20:55.000Z</time>
      </trkpt>
      <trkpt lat="47.53685" lon="6.6497">
        <ele>474</ele>
        <time>2015-05-25T09:20:56.000Z</time>
      </trkpt>
      <trkpt lat="47.53683" lon="6.64972">
        <ele>474</ele>
        <time>2015-05-25T09:20:57.000Z</time>
      </trkpt>
      <trkpt lat="47.53681" lon="6.64974">
        <ele>474</ele>
        <time>2015-05-25T09:20:58.000Z</time>
      </trkpt>
      <trkpt lat="47.53679" lon="6.64977">
        <ele>474</ele>
        <time>2015-05-25T09:20:59.000Z</time>
      </trkpt>
      <trkpt lat="47.53677" lon="6.6498">
        <ele>474</ele>
        <time>2015-05-25T09:21:00.000Z</time>
      </trkpt>
      <trkpt lat="47.53674" lon="6.64982">
        <ele>474</ele>
        <time>2015-05-25T09:21:01.000Z</time>
      </trkpt>
      <trkpt lat="47.53671" lon="6.64984">
        <ele>474</ele>
        <time>2015-05-25T09:21:02.000Z</time>
      </trkpt>
      <trkpt lat="47.53668" lon="6.64985">
        <ele>474</ele>
        <time>2015-05-25T09:21:03.000Z</time>
      </trkpt>
      <trkpt lat="47.53665" lon="6.64988">
        <ele>473</ele>
        <time>2015-05-25T09:21:04.000Z</time>
      </trkpt>
      <trkpt lat="47.53661" lon="6.64992">
        <ele>473</ele>
        <time>2015-05-25T09:21:05.000Z</time>
      </trkpt>
      <trkpt lat="47.53657" lon="6.64996">
        <ele>473</ele>
        <time>2015-05-25T09:21:06.000Z</time>
      </trkpt>
      <trkpt lat="47.53654" lon="6.65">
        <ele>473</ele>
        <time>2015-05-25T09:21:07.000Z</time>
      </trkpt>
      <trkpt lat="47.5365" lon="6.65003">
        <ele>475</ele>
        <time>2015-05-25T09:21:08.000Z</time>
      </trkpt>
      <trkpt lat="47.53647" lon="6.65005">
        <ele>475</ele>
        <time>2015-05-25T09:21:09.000Z</time>
      </trkpt>
      <trkpt lat="47.53644" lon="6.65007">
        <ele>475</ele>
        <time>2015-05-25T09:21:10.000Z</time>
      </trkpt>
      <trkpt lat="47.5364" lon="6.65009">
        <ele>474</ele>
        <time>2015-05-25T09:21:11.000Z</time>
      </trkpt>
      <trkpt lat="47.53635" lon="6.65011">
        <ele>474</ele>
        <time>2015-05-25T09:21:12.000Z</time>
      </trkpt>
      <trkpt lat="47.53631" lon="6.65013">
        <ele>474</ele>
        <time>2015-05-25T09:21:13.000Z</time>
      </trkpt>
      <trkpt lat="47.53626" lon="6.65016">
        <ele>474</ele>
        <time>2015-05-25T09:21:14.000Z</time>
      </trkpt>
      <trkpt lat="47.53621" lon="6.65019">
        <ele>474</ele>
        <time>2015-05-25T09:21:15.000Z</time>
      </trkpt>
      <trkpt lat="47.53616" lon="6.65022">
        <ele>474</ele>
        <time>2015-05-25T09:21:16.000Z</time>
      </trkpt>
      <trkpt lat="47.53612" lon="6.65025">
        <ele>474</ele>
        <time>2015-05-25T09:21:17.000Z</time>
      </trkpt>
      <trkpt lat="47.53607" lon="6.65029">
        <ele>474</ele>
        <time>2015-05-25T09:21:18.000Z</time>
      </trkpt>
      <trkpt lat="47.53602" lon="6.65033">
        <ele>473</ele>
        <time>2015-05-25T09:21:19.000Z</time>
      </trkpt>
      <trkpt lat="47.53597" lon="6.65036">
        <ele>473</ele>
        <time>2015-05-25T09:21:20.000Z</time>
      </trkpt>
      <trkpt lat="47.53592" lon="6.65038">
        <ele>473</ele>
        <time>2015-05-25T09:21:21.000Z</time>
      </trkpt>
      <trkpt lat="47.5358" lon="6.65037">
        <ele>469</ele>
        <time>2015-05-25T09:21:22.000Z</time>
      </trkpt>
      <trkpt lat="47.53573" lon="6.65039">
        <ele>469</ele>
        <time>2015-05-25T09:21:23.000Z</time>
      </trkpt>
      <trkpt lat="47.53567" lon="6.6504">
        <ele>469</ele>
        <time>2015-05-25T09:21:24.000Z</time>
      </trkpt>
      <trkpt lat="47.53564" lon="6.65045">
        <ele>469</ele>
        <time>2015-05-25T09:21:25.000Z</time>
      </trkpt>
      <trkpt lat="47.53561" lon="6.65048">
        <ele>469</ele>
        <time>2015-05-25T09:21:26.000Z</time>
      </trkpt>
      <trkpt lat="47.53558" lon="6.65055">
        <ele>469</ele>
        <time>2015-05-25T09:21:27.000Z</time>
      </trkpt>
      <trkpt lat="47.53554" lon="6.65062">
        <ele>469</ele>
        <time>2015-05-25T09:21:28.000Z</time>
      </trkpt>
      <trkpt lat="47.5355" lon="6.65069">
        <ele>469</ele>
        <time>2015-05-25T09:21:29.000Z</time>
      </trkpt>
      <trkpt lat="47.53548" lon="6.65078">
        <ele>469</ele>
        <time>2015-05-25T09:21:30.000Z</time>
      </trkpt>
      <trkpt lat="47.53544" lon="6.65087">
        <ele>470</ele>
        <time>2015-05-25T09:21:31.000Z</time>
      </trkpt>
      <trkpt lat="47.5354" lon="6.65092">
        <ele>470</ele>
        <time>2015-05-25T09:21:32.000Z</time>
      </trkpt>
      <trkpt lat="47.53535" lon="6.65099">
        <ele>470</ele>
        <time>2015-05-25T09:21:33.000Z</time>
      </trkpt>
      <trkpt lat="47.5353" lon="6.65105">
        <ele>469</ele>
        <time>2015-05-25T09:21:34.000Z</time>
      </trkpt>
      <trkpt lat="47.53526" lon="6.65113">
        <ele>469</ele>
        <time>2015-05-25T09:21:35.000Z</time>
      </trkpt>
      <trkpt lat="47.53521" lon="6.6512">
        <ele>469</ele>
        <time>2015-05-25T09:21:36.000Z</time>
      </trkpt>
      <trkpt lat="47.53517" lon="6.65127">
        <ele>469</ele>
        <time>2015-05-25T09:21:37.000Z</time>
      </trkpt>
      <trkpt lat="47.53513" lon="6.65138">
        <ele>469</ele>
        <time>2015-05-25T09:21:38.000Z</time>
      </trkpt>
      <trkpt lat="47.53509" lon="6.65146">
        <ele>469</ele>
        <time>2015-05-25T09:21:39.000Z</time>
      </trkpt>
      <trkpt lat="47.53503" lon="6.65151">
        <ele>468</ele>
        <time>2015-05-25T09:21:40.000Z</time>
      </trkpt>
      <trkpt lat="47.53498" lon="6.65158">
        <ele>466</ele>
        <time>2015-05-25T09:21:41.000Z</time>
      </trkpt>
      <trkpt lat="47.53493" lon="6.65166">
        <ele>466</ele>
        <time>2015-05-25T09:21:42.000Z</time>
      </trkpt>
      <trkpt lat="47.53488" lon="6.65174">
        <ele>465</ele>
        <time>2015-05-25T09:21:43.000Z</time>
      </trkpt>
      <trkpt lat="47.53483" lon="6.65183">
        <ele>465</ele>
        <time>2015-05-25T09:21:44.000Z</time>
      </trkpt>
      <trkpt lat="47.53476" lon="6.65187">
        <ele>464</ele>
        <time>2015-05-25T09:21:45.000Z</time>
      </trkpt>
      <trkpt lat="47.53472" lon="6.65195">
        <ele>464</ele>
        <time>2015-05-25T09:21:46.000Z</time>
      </trkpt>
      <trkpt lat="47.53466" lon="6.65202">
        <ele>464</ele>
        <time>2015-05-25T09:21:47.000Z</time>
      </trkpt>
      <trkpt lat="47.53462" lon="6.65209">
        <ele>463</ele>
        <time>2015-05-25T09:21:48.000Z</time>
      </trkpt>
      <trkpt lat="47.53456" lon="6.65216">
        <ele>463</ele>
        <time>2015-05-25T09:21:49.000Z</time>
      </trkpt>
      <trkpt lat="47.5345" lon="6.65217">
        <ele>463</ele>
        <time>2015-05-25T09:21:50.000Z</time>
      </trkpt>
      <trkpt lat="47.53447" lon="6.65221">
        <ele>463</ele>
        <time>2015-05-25T09:21:51.000Z</time>
      </trkpt>
      <trkpt lat="47.53445" lon="6.65223">
        <ele>463</ele>
        <time>2015-05-25T09:21:52.000Z</time>
      </trkpt>
      <trkpt lat="47.5344" lon="6.65225">
        <ele>462</ele>
        <time>2015-05-25T09:21:53.000Z</time>
      </trkpt>
      <trkpt lat="47.53439" lon="6.6522">
        <ele>462</ele>
        <time>2015-05-25T09:24:59.000Z</time>
      </trkpt>
      <trkpt lat="47.53438" lon="6.65216">
        <ele>462</ele>
        <time>2015-05-25T09:25:00.000Z</time>
      </trkpt>
      <trkpt lat="47.53437" lon="6.65212">
        <ele>462</ele>
        <time>2015-05-25T09:25:01.000Z</time>
      </trkpt>
      <trkpt lat="47.53435" lon="6.65207">
        <ele>462</ele>
        <time>2015-05-25T09:25:02.000Z</time>
      </trkpt>
      <trkpt lat="47.53425" lon="6.65201">
        <ele>462</ele>
        <time>2015-05-25T09:25:03.000Z</time>
      </trkpt>
      <trkpt lat="47.53419" lon="6.65197">
        <ele>462</ele>
        <time>2015-05-25T09:25:04.000Z</time>
      </trkpt>
      <trkpt lat="47.53415" lon="6.65191">
        <ele>458</ele>
        <time>2015-05-25T09:25:05.000Z</time>
      </trkpt>
      <trkpt lat="47.5341" lon="6.65185">
        <ele>458</ele>
        <time>2015-05-25T09:25:06.000Z</time>
      </trkpt>
      <trkpt lat="47.53404" lon="6.65179">
        <ele>458</ele>
        <time>2015-05-25T09:25:07.000Z</time>
      </trkpt>
      <trkpt lat="47.534" lon="6.65173">
        <ele>457</ele>
        <time>2015-05-25T09:25:08.000Z</time>
      </trkpt>
      <trkpt lat="47.53394" lon="6.65166">
        <ele>456</ele>
        <time>2015-05-25T09:25:09.000Z</time>
      </trkpt>
      <trkpt lat="47.5339" lon="6.65158">
        <ele>456</ele>
        <time>2015-05-25T09:25:10.000Z</time>
      </trkpt>
      <trkpt lat="47.53384" lon="6.65151">
        <ele>455</ele>
        <time>2015-05-25T09:25:11.000Z</time>
      </trkpt>
      <trkpt lat="47.53379" lon="6.65144">
        <ele>455</ele>
        <time>2015-05-25T09:25:12.000Z</time>
      </trkpt>
      <trkpt lat="47.53373" lon="6.65135">
        <ele>455</ele>
        <time>2015-05-25T09:25:13.000Z</time>
      </trkpt>
      <trkpt lat="47.53365" lon="6.65128">
        <ele>454</ele>
        <time>2015-05-25T09:25:14.000Z</time>
      </trkpt>
      <trkpt lat="47.53358" lon="6.65122">
        <ele>454</ele>
        <time>2015-05-25T09:25:15.000Z</time>
      </trkpt>
      <trkpt lat="47.5335" lon="6.65114">
        <ele>454</ele>
        <time>2015-05-25T09:25:16.000Z</time>
      </trkpt>
      <trkpt lat="47.53344" lon="6.65104">
        <ele>453</ele>
        <time>2015-05-25T09:25:17.000Z</time>
      </trkpt>
      <trkpt lat="47.53337" lon="6.65097">
        <ele>453</ele>
        <time>2015-05-25T09:25:18.000Z</time>
      </trkpt>
      <trkpt lat="47.53331" lon="6.65088">
        <ele>451</ele>
        <time>2015-05-25T09:25:19.000Z</time>
      </trkpt>
      <trkpt lat="47.53323" lon="6.65079">
        <ele>449</ele>
        <time>2015-05-25T09:25:20.000Z</time>
      </trkpt>
      <trkpt lat="47.53316" lon="6.65072">
        <ele>448</ele>
        <time>2015-05-25T09:25:21.000Z</time>
      </trkpt>
      <trkpt lat="47.53307" lon="6.65065">
        <ele>447</ele>
        <time>2015-05-25T09:25:22.000Z</time>
      </trkpt>
      <trkpt lat="47.53301" lon="6.65057">
        <ele>447</ele>
        <time>2015-05-25T09:25:23.000Z</time>
      </trkpt>
      <trkpt lat="47.53294" lon="6.65049">
        <ele>446</ele>
        <time>2015-05-25T09:25:24.000Z</time>
      </trkpt>
      <trkpt lat="47.53288" lon="6.65041">
        <ele>446</ele>
        <time>2015-05-25T09:25:25.000Z</time>
      </trkpt>
      <trkpt lat="47.53281" lon="6.65034">
        <ele>445</ele>
        <time>2015-05-25T09:25:26.000Z</time>
      </trkpt>
      <trkpt lat="47.53276" lon="6.65027">
        <ele>445</ele>
        <time>2015-05-25T09:25:27.000Z</time>
      </trkpt>
      <trkpt lat="47.53273" lon="6.6502">
        <ele>444</ele>
        <time>2015-05-25T09:25:28.000Z</time>
      </trkpt>
      <trkpt lat="47.53269" lon="6.65014">
        <ele>444</ele>
        <time>2015-05-25T09:25:29.000Z</time>
      </trkpt>
      <trkpt lat="47.53262" lon="6.65011">
        <ele>443</ele>
        <time>2015-05-25T09:25:30.000Z</time>
      </trkpt>
      <trkpt lat="47.53255" lon="6.65008">
        <ele>442</ele>
        <time>2015-05-25T09:25:31.000Z</time>
      </trkpt>
      <trkpt lat="47.53249" lon="6.65008">
        <ele>440</ele>
        <time>2015-05-25T09:25:32.000Z</time>
      </trkpt>
      <trkpt lat="47.53243" lon="6.65007">
        <ele>440</ele>
        <time>2015-05-25T09:25:33.000Z</time>
      </trkpt>
      <trkpt lat="47.53237" lon="6.65007">
        <ele>440</ele>
        <time>2015-05-25T09:25:34.000Z</time>
      </trkpt>
      <trkpt lat="47.5323" lon="6.65005">
        <ele>440</ele>
        <time>2015-05-25T09:25:35.000Z</time>
      </trkpt>
      <trkpt lat="47.53223" lon="6.65005">
        <ele>439</ele>
        <time>2015-05-25T09:25:36.000Z</time>
      </trkpt>
      <trkpt lat="47.53214" lon="6.65004">
        <ele>439</ele>
        <time>2015-05-25T09:25:37.000Z</time>
      </trkpt>
      <trkpt lat="47.53207" lon="6.65003">
        <ele>439</ele>
        <time>2015-05-25T09:25:38.000Z</time>
      </trkpt>
      <trkpt lat="47.53197" lon="6.65003">
        <ele>438</ele>
        <time>2015-05-25T09:25:39.000Z</time>
      </trkpt>
      <trkpt lat="47.53193" lon="6.64997">
        <ele>433</ele>
        <time>2015-05-25T09:25:40.000Z</time>
      </trkpt>
      <trkpt lat="47.53187" lon="6.64994">
        <ele>433</ele>
        <time>2015-05-25T09:25:41.000Z</time>
      </trkpt>
      <trkpt lat="47.5318" lon="6.64995">
        <ele>433</ele>
        <time>2015-05-25T09:25:42.000Z</time>
      </trkpt>
      <trkpt lat="47.53173" lon="6.64997">
        <ele>434</ele>
        <time>2015-05-25T09:25:43.000Z</time>
      </trkpt>
      <trkpt lat="47.53169" lon="6.65">
        <ele>435</ele>
        <time>2015-05-25T09:25:44.000Z</time>
      </trkpt>
      <trkpt lat="47.53167" lon="6.65004">
        <ele>435</ele>
        <time>2015-05-25T09:25:45.000Z</time>
      </trkpt>
      <trkpt lat="47.53163" lon="6.65012">
        <ele>434</ele>
        <time>2015-05-25T09:25:46.000Z</time>
      </trkpt>
      <trkpt lat="47.53159" lon="6.65015">
        <ele>434</ele>
        <time>2015-05-25T09:25:47.000Z</time>
      </trkpt>
      <trkpt lat="47.53155" lon="6.65016">
        <ele>434</ele>
        <time>2015-05-25T09:25:48.000Z</time>
      </trkpt>
      <trkpt lat="47.53152" lon="6.65015">
        <ele>434</ele>
        <time>2015-05-25T09:25:49.000Z</time>
      </trkpt>
      <trkpt lat="47.53145" lon="6.65015">
        <ele>434</ele>
        <time>2015-05-25T09:25:50.000Z</time>
      </trkpt>
      <trkpt lat="47.5314" lon="6.65015">
        <ele>434</ele>
        <time>2015-05-25T09:25:51.000Z</time>
      </trkpt>
      <trkpt lat="47.53134" lon="6.65014">
        <ele>434</ele>
        <time>2015-05-25T09:25:52.000Z</time>
      </trkpt>
      <trkpt lat="47.53125" lon="6.65012">
        <ele>433</ele>
        <time>2015-05-25T09:25:53.000Z</time>
      </trkpt>
      <trkpt lat="47.53118" lon="6.65012">
        <ele>433</ele>
        <time>2015-05-25T09:25:54.000Z</time>
      </trkpt>
      <trkpt lat="47.53111" lon="6.65011">
        <ele>432</ele>
        <time>2015-05-25T09:25:55.000Z</time>
      </trkpt>
      <trkpt lat="47.53103" lon="6.65012">
        <ele>432</ele>
        <time>2015-05-25T09:25:56.000Z</time>
      </trkpt>
      <trkpt lat="47.53092" lon="6.65015">
        <ele>431</ele>
        <time>2015-05-25T09:25:57.000Z</time>
      </trkpt>
      <trkpt lat="47.53083" lon="6.65023">
        <ele>428</ele>
        <time>2015-05-25T09:25:58.000Z</time>
      </trkpt>
      <trkpt lat="47.53073" lon="6.65028">
        <ele>428</ele>
        <time>2015-05-25T09:25:59.000Z</time>
      </trkpt>
      <trkpt lat="47.53064" lon="6.65033">
        <ele>428</ele>
        <time>2015-05-25T09:26:00.000Z</time>
      </trkpt>
      <trkpt lat="47.53056" lon="6.65036">
        <ele>427</ele>
        <time>2015-05-25T09:26:01.000Z</time>
      </trkpt>
      <trkpt lat="47.53048" lon="6.65039">
        <ele>427</ele>
        <time>2015-05-25T09:26:02.000Z</time>
      </trkpt>
      <trkpt lat="47.53038" lon="6.65045">
        <ele>427</ele>
        <time>2015-05-25T09:26:03.000Z</time>
      </trkpt>
      <trkpt lat="47.5303" lon="6.65051">
        <ele>426</ele>
        <time>2015-05-25T09:26:04.000Z</time>
      </trkpt>
      <trkpt lat="47.53021" lon="6.6506">
        <ele>426</ele>
        <time>2015-05-25T09:26:05.000Z</time>
      </trkpt>
      <trkpt lat="47.53012" lon="6.65067">
        <ele>426</ele>
        <time>2015-05-25T09:26:06.000Z</time>
      </trkpt>
      <trkpt lat="47.53002" lon="6.65073">
        <ele>426</ele>
        <time>2015-05-25T09:26:07.000Z</time>
      </trkpt>
      <trkpt lat="47.52991" lon="6.6508">
        <ele>423</ele>
        <time>2015-05-25T09:26:08.000Z</time>
      </trkpt>
      <trkpt lat="47.52981" lon="6.65081">
        <ele>421</ele>
        <time>2015-05-25T09:26:09.000Z</time>
      </trkpt>
      <trkpt lat="47.5297" lon="6.65088">
        <ele>422</ele>
        <time>2015-05-25T09:26:10.000Z</time>
      </trkpt>
      <trkpt lat="47.5296" lon="6.65089">
        <ele>421</ele>
        <time>2015-05-25T09:26:11.000Z</time>
      </trkpt>
      <trkpt lat="47.52951" lon="6.65092">
        <ele>421</ele>
        <time>2015-05-25T09:26:12.000Z</time>
      </trkpt>
      <trkpt lat="47.52941" lon="6.65097">
        <ele>420</ele>
        <time>2015-05-25T09:26:13.000Z</time>
      </trkpt>
      <trkpt lat="47.5293" lon="6.65101">
        <ele>419</ele>
        <time>2015-05-25T09:26:14.000Z</time>
      </trkpt>
      <trkpt lat="47.5292" lon="6.65105">
        <ele>419</ele>
        <time>2015-05-25T09:26:15.000Z</time>
      </trkpt>
      <trkpt lat="47.5291" lon="6.65108">
        <ele>414</ele>
        <time>2015-05-25T09:26:16.000Z</time>
      </trkpt>
      <trkpt lat="47.529" lon="6.6511">
        <ele>413</ele>
        <time>2015-05-25T09:26:17.000Z</time>
      </trkpt>
      <trkpt lat="47.52889" lon="6.65114">
        <ele>412</ele>
        <time>2015-05-25T09:26:18.000Z</time>
      </trkpt>
      <trkpt lat="47.5288" lon="6.65117">
        <ele>412</ele>
        <time>2015-05-25T09:26:19.000Z</time>
      </trkpt>
      <trkpt lat="47.52869" lon="6.65128">
        <ele>411</ele>
        <time>2015-05-25T09:26:20.000Z</time>
      </trkpt>
      <trkpt lat="47.52861" lon="6.65136">
        <ele>411</ele>
        <time>2015-05-25T09:26:21.000Z</time>
      </trkpt>
      <trkpt lat="47.52853" lon="6.65146">
        <ele>411</ele>
        <time>2015-05-25T09:26:22.000Z</time>
      </trkpt>
      <trkpt lat="47.52845" lon="6.65153">
        <ele>410</ele>
        <time>2015-05-25T09:26:23.000Z</time>
      </trkpt>
      <trkpt lat="47.52837" lon="6.65162">
        <ele>410</ele>
        <time>2015-05-25T09:26:24.000Z</time>
      </trkpt>
      <trkpt lat="47.52829" lon="6.65168">
        <ele>408</ele>
        <time>2015-05-25T09:26:25.000Z</time>
      </trkpt>
      <trkpt lat="47.52823" lon="6.65174">
        <ele>406</ele>
        <time>2015-05-25T09:26:26.000Z</time>
      </trkpt>
      <trkpt lat="47.52817" lon="6.65177">
        <ele>405</ele>
        <time>2015-05-25T09:26:27.000Z</time>
      </trkpt>
      <trkpt lat="47.52807" lon="6.65187">
        <ele>404</ele>
        <time>2015-05-25T09:26:28.000Z</time>
      </trkpt>
      <trkpt lat="47.52801" lon="6.65194">
        <ele>403</ele>
        <time>2015-05-25T09:26:29.000Z</time>
      </trkpt>
      <trkpt lat="47.52795" lon="6.65202">
        <ele>403</ele>
        <time>2015-05-25T09:26:30.000Z</time>
      </trkpt>
      <trkpt lat="47.5279" lon="6.65204">
        <ele>402</ele>
        <time>2015-05-25T09:26:31.000Z</time>
      </trkpt>
      <trkpt lat="47.52786" lon="6.65206">
        <ele>402</ele>
        <time>2015-05-25T09:26:32.000Z</time>
      </trkpt>
      <trkpt lat="47.5278" lon="6.65201">
        <ele>402</ele>
        <time>2015-05-25T09:26:33.000Z</time>
      </trkpt>
      <trkpt lat="47.52774" lon="6.65202">
        <ele>401</ele>
        <time>2015-05-25T09:26:34.000Z</time>
      </trkpt>
      <trkpt lat="47.5277" lon="6.65202">
        <ele>401</ele>
        <time>2015-05-25T09:26:35.000Z</time>
      </trkpt>
      <trkpt lat="47.52767" lon="6.65199">
        <ele>401</ele>
        <time>2015-05-25T09:26:36.000Z</time>
      </trkpt>
      <trkpt lat="47.52766" lon="6.65195">
        <ele>401</ele>
        <time>2015-05-25T09:26:37.000Z</time>
      </trkpt>
      <trkpt lat="47.52763" lon="6.65192">
        <ele>401</ele>
        <time>2015-05-25T09:26:38.000Z</time>
      </trkpt>
      <trkpt lat="47.52759" lon="6.65188">
        <ele>400</ele>
        <time>2015-05-25T09:26:39.000Z</time>
      </trkpt>
      <trkpt lat="47.52758" lon="6.65184">
        <ele>400</ele>
        <time>2015-05-25T09:26:40.000Z</time>
      </trkpt>
      <trkpt lat="47.5275" lon="6.65185">
        <ele>394</ele>
        <time>2015-05-25T09:26:41.000Z</time>
      </trkpt>
      <trkpt lat="47.52744" lon="6.65188">
        <ele>393</ele>
        <time>2015-05-25T09:26:42.000Z</time>
      </trkpt>
      <trkpt lat="47.52741" lon="6.65191">
        <ele>393</ele>
        <time>2015-05-25T09:26:43.000Z</time>
      </trkpt>
      <trkpt lat="47.52739" lon="6.65191">
        <ele>393</ele>
        <time>2015-05-25T09:26:44.000Z</time>
      </trkpt>
      <trkpt lat="47.52736" lon="6.65195">
        <ele>392</ele>
        <time>2015-05-25T09:27:16.000Z</time>
      </trkpt>
      <trkpt lat="47.52735" lon="6.65196">
        <ele>392</ele>
        <time>2015-05-25T09:27:17.000Z</time>
      </trkpt>
      <trkpt lat="47.52733" lon="6.65199">
        <ele>392</ele>
        <time>2015-05-25T09:27:19.000Z</time>
      </trkpt>
      <trkpt lat="47.52731" lon="6.65201">
        <ele>392</ele>
        <time>2015-05-25T09:27:20.000Z</time>
      </trkpt>
      <trkpt lat="47.52728" lon="6.65203">
        <ele>392</ele>
        <time>2015-05-25T09:27:21.000Z</time>
      </trkpt>
      <trkpt lat="47.52725" lon="6.65207">
        <ele>392</ele>
        <time>2015-05-25T09:27:22.000Z</time>
      </trkpt>
      <trkpt lat="47.52712" lon="6.65222">
        <ele>391</ele>
        <time>2015-05-25T09:27:23.000Z</time>
      </trkpt>
      <trkpt lat="47.52704" lon="6.6523">
        <ele>390</ele>
        <time>2015-05-25T09:27:24.000Z</time>
      </trkpt>
      <trkpt lat="47.527" lon="6.65237">
        <ele>389</ele>
        <time>2015-05-25T09:27:25.000Z</time>
      </trkpt>
      <trkpt lat="47.52696" lon="6.65245">
        <ele>389</ele>
        <time>2015-05-25T09:27:26.000Z</time>
      </trkpt>
      <trkpt lat="47.52691" lon="6.65253">
        <ele>387</ele>
        <time>2015-05-25T09:27:27.000Z</time>
      </trkpt>
      <trkpt lat="47.52686" lon="6.65261">
        <ele>387</ele>
        <time>2015-05-25T09:27:28.000Z</time>
      </trkpt>
      <trkpt lat="47.52681" lon="6.6527">
        <ele>387</ele>
        <time>2015-05-25T09:27:29.000Z</time>
      </trkpt>
      <trkpt lat="47.52676" lon="6.65277">
        <ele>387</ele>
        <time>2015-05-25T09:27:30.000Z</time>
      </trkpt>
      <trkpt lat="47.52669" lon="6.65283">
        <ele>387</ele>
        <time>2015-05-25T09:27:31.000Z</time>
      </trkpt>
      <trkpt lat="47.52662" lon="6.65288">
        <ele>381</ele>
        <time>2015-05-25T09:27:32.000Z</time>
      </trkpt>
      <trkpt lat="47.52655" lon="6.65293">
        <ele>380</ele>
        <time>2015-05-25T09:27:33.000Z</time>
      </trkpt>
      <trkpt lat="47.52648" lon="6.65299">
        <ele>380</ele>
        <time>2015-05-25T09:27:34.000Z</time>
      </trkpt>
      <trkpt lat="47.52642" lon="6.65305">
        <ele>380</ele>
        <time>2015-05-25T09:27:35.000Z</time>
      </trkpt>
      <trkpt lat="47.52636" lon="6.65313">
        <ele>380</ele>
        <time>2015-05-25T09:27:36.000Z</time>
      </trkpt>
      <trkpt lat="47.5263" lon="6.65321">
        <ele>379</ele>
        <time>2015-05-25T09:27:37.000Z</time>
      </trkpt>
      <trkpt lat="47.52623" lon="6.65329">
        <ele>379</ele>
        <time>2015-05-25T09:27:38.000Z</time>
      </trkpt>
      <trkpt lat="47.52617" lon="6.65337">
        <ele>378</ele>
        <time>2015-05-25T09:27:39.000Z</time>
      </trkpt>
      <trkpt lat="47.52611" lon="6.65345">
        <ele>378</ele>
        <time>2015-05-25T09:27:40.000Z</time>
      </trkpt>
      <trkpt lat="47.52605" lon="6.65353">
        <ele>378</ele>
        <time>2015-05-25T09:27:41.000Z</time>
      </trkpt>
      <trkpt lat="47.526" lon="6.65361">
        <ele>377</ele>
        <time>2015-05-25T09:27:42.000Z</time>
      </trkpt>
      <trkpt lat="47.52595" lon="6.65371">
        <ele>377</ele>
        <time>2015-05-25T09:27:43.000Z</time>
      </trkpt>
      <trkpt lat="47.5259" lon="6.65381">
        <ele>377</ele>
        <time>2015-05-25T09:27:44.000Z</time>
      </trkpt>
      <trkpt lat="47.52585" lon="6.6539">
        <ele>377</ele>
        <time>2015-05-25T09:27:45.000Z</time>
      </trkpt>
      <trkpt lat="47.52581" lon="6.65403">
        <ele>374</ele>
        <time>2015-05-25T09:27:46.000Z</time>
      </trkpt>
      <trkpt lat="47.52576" lon="6.65414">
        <ele>374</ele>
        <time>2015-05-25T09:27:47.000Z</time>
      </trkpt>
      <trkpt lat="47.52572" lon="6.65426">
        <ele>373</ele>
        <time>2015-05-25T09:27:48.000Z</time>
      </trkpt>
      <trkpt lat="47.52567" lon="6.65439">
        <ele>372</ele>
        <time>2015-05-25T09:27:49.000Z</time>
      </trkpt>
      <trkpt lat="47.52563" lon="6.6545">
        <ele>372</ele>
        <time>2015-05-25T09:27:50.000Z</time>
      </trkpt>
      <trkpt lat="47.52559" lon="6.65463">
        <ele>371</ele>
        <time>2015-05-25T09:27:51.000Z</time>
      </trkpt>
      <trkpt lat="47.52556" lon="6.65477">
        <ele>371</ele>
        <time>2015-05-25T09:27:52.000Z</time>
      </trkpt>
      <trkpt lat="47.52552" lon="6.65489">
        <ele>371</ele>
        <time>2015-05-25T09:27:53.000Z</time>
      </trkpt>
      <trkpt lat="47.52549" lon="6.65503">
        <ele>369</ele>
        <time>2015-05-25T09:27:54.000Z</time>
      </trkpt>
      <trkpt lat="47.52544" lon="6.65515">
        <ele>369</ele>
        <time>2015-05-25T09:27:55.000Z</time>
      </trkpt>
      <trkpt lat="47.52539" lon="6.65524">
        <ele>369</ele>
        <time>2015-05-25T09:27:56.000Z</time>
      </trkpt>
      <trkpt lat="47.52535" lon="6.65536">
        <ele>369</ele>
        <time>2015-05-25T09:27:57.000Z</time>
      </trkpt>
      <trkpt lat="47.5253" lon="6.65547">
        <ele>369</ele>
        <time>2015-05-25T09:27:58.000Z</time>
      </trkpt>
      <trkpt lat="47.52524" lon="6.65559">
        <ele>369</ele>
        <time>2015-05-25T09:27:59.000Z</time>
      </trkpt>
      <trkpt lat="47.52518" lon="6.65569">
        <ele>369</ele>
        <time>2015-05-25T09:28:00.000Z</time>
      </trkpt>
      <trkpt lat="47.52513" lon="6.65579">
        <ele>368</ele>
        <time>2015-05-25T09:28:01.000Z</time>
      </trkpt>
      <trkpt lat="47.52509" lon="6.6559">
        <ele>368</ele>
        <time>2015-05-25T09:28:02.000Z</time>
      </trkpt>
      <trkpt lat="47.52502" lon="6.656">
        <ele>368</ele>
        <time>2015-05-25T09:28:03.000Z</time>
      </trkpt>
      <trkpt lat="47.52497" lon="6.65611">
        <ele>366</ele>
        <time>2015-05-25T09:28:04.000Z</time>
      </trkpt>
      <trkpt lat="47.52492" lon="6.65621">
        <ele>366</ele>
        <time>2015-05-25T09:28:05.000Z</time>
      </trkpt>
      <trkpt lat="47.52488" lon="6.65631">
        <ele>366</ele>
        <time>2015-05-25T09:28:06.000Z</time>
      </trkpt>
      <trkpt lat="47.52483" lon="6.65642">
        <ele>366</ele>
        <time>2015-05-25T09:28:07.000Z</time>
      </trkpt>
      <trkpt lat="47.52479" lon="6.65651">
        <ele>366</ele>
        <time>2015-05-25T09:28:08.000Z</time>
      </trkpt>
      <trkpt lat="47.52474" lon="6.65661">
        <ele>366</ele>
        <time>2015-05-25T09:28:09.000Z</time>
      </trkpt>
      <trkpt lat="47.52468" lon="6.6567">
        <ele>365</ele>
        <time>2015-05-25T09:28:10.000Z</time>
      </trkpt>
      <trkpt lat="47.52463" lon="6.65679">
        <ele>365</ele>
        <time>2015-05-25T09:28:11.000Z</time>
      </trkpt>
      <trkpt lat="47.52457" lon="6.65689">
        <ele>365</ele>
        <time>2015-05-25T09:28:12.000Z</time>
      </trkpt>
      <trkpt lat="47.52454" lon="6.657">
        <ele>365</ele>
        <time>2015-05-25T09:28:13.000Z</time>
      </trkpt>
      <trkpt lat="47.52449" lon="6.6571">
        <ele>365</ele>
        <time>2015-05-25T09:28:14.000Z</time>
      </trkpt>
      <trkpt lat="47.52445" lon="6.6572">
        <ele>365</ele>
        <time>2015-05-25T09:28:15.000Z</time>
      </trkpt>
      <trkpt lat="47.5244" lon="6.65729">
        <ele>365</ele>
        <time>2015-05-25T09:28:16.000Z</time>
      </trkpt>
      <trkpt lat="47.52437" lon="6.65738">
        <ele>365</ele>
        <time>2015-05-25T09:28:17.000Z</time>
      </trkpt>
      <trkpt lat="47.52433" lon="6.65746">
        <ele>365</ele>
        <time>2015-05-25T09:28:18.000Z</time>
      </trkpt>
      <trkpt lat="47.52428" lon="6.65756">
        <ele>365</ele>
        <time>2015-05-25T09:28:19.000Z</time>
      </trkpt>
      <trkpt lat="47.52424" lon="6.65764">
        <ele>365</ele>
        <time>2015-05-25T09:28:20.000Z</time>
      </trkpt>
      <trkpt lat="47.5242" lon="6.65771">
        <ele>365</ele>
        <time>2015-05-25T09:28:21.000Z</time>
      </trkpt>
      <trkpt lat="47.52416" lon="6.65779">
        <ele>366</ele>
        <time>2015-05-25T09:28:22.000Z</time>
      </trkpt>
      <trkpt lat="47.52413" lon="6.65786">
        <ele>366</ele>
        <time>2015-05-25T09:28:23.000Z</time>
      </trkpt>
      <trkpt lat="47.52408" lon="6.65796">
        <ele>366</ele>
        <time>2015-05-25T09:28:24.000Z</time>
      </trkpt>
      <trkpt lat="47.52404" lon="6.65801">
        <ele>366</ele>
        <time>2015-05-25T09:28:25.000Z</time>
      </trkpt>
      <trkpt lat="47.52401" lon="6.65808">
        <ele>366</ele>
        <time>2015-05-25T09:28:26.000Z</time>
      </trkpt>
      <trkpt lat="47.52397" lon="6.65817">
        <ele>366</ele>
        <time>2015-05-25T09:28:27.000Z</time>
      </trkpt>
      <trkpt lat="47.52392" lon="6.65825">
        <ele>366</ele>
        <time>2015-05-25T09:28:28.000Z</time>
      </trkpt>
      <trkpt lat="47.52388" lon="6.65835">
        <ele>367</ele>
        <time>2015-05-25T09:28:29.000Z</time>
      </trkpt>
      <trkpt lat="47.52385" lon="6.6584">
        <ele>367</ele>
        <time>2015-05-25T09:28:30.000Z</time>
      </trkpt>
      <trkpt lat="47.52381" lon="6.65847">
        <ele>367</ele>
        <time>2015-05-25T09:28:31.001Z</time>
      </trkpt>
      <trkpt lat="47.52379" lon="6.65855">
        <ele>367</ele>
        <time>2015-05-25T09:28:32.000Z</time>
      </trkpt>
      <trkpt lat="47.52374" lon="6.65863">
        <ele>367</ele>
        <time>2015-05-25T09:28:33.000Z</time>
      </trkpt>
      <trkpt lat="47.5237" lon="6.65869">
        <ele>367</ele>
        <time>2015-05-25T09:28:34.000Z</time>
      </trkpt>
      <trkpt lat="47.52366" lon="6.65876">
        <ele>367</ele>
        <time>2015-05-25T09:28:35.000Z</time>
      </trkpt>
      <trkpt lat="47.52363" lon="6.65881">
        <ele>367</ele>
        <time>2015-05-25T09:28:36.000Z</time>
      </trkpt>
      <trkpt lat="47.52359" lon="6.65887">
        <ele>367</ele>
        <time>2015-05-25T09:28:37.000Z</time>
      </trkpt>
      <trkpt lat="47.52355" lon="6.65894">
        <ele>367</ele>
        <time>2015-05-25T09:28:38.000Z</time>
      </trkpt>
      <trkpt lat="47.52352" lon="6.65901">
        <ele>367</ele>
        <time>2015-05-25T09:28:39.000Z</time>
      </trkpt>
      <trkpt lat="47.52348" lon="6.65907">
        <ele>367</ele>
        <time>2015-05-25T09:28:40.000Z</time>
      </trkpt>
      <trkpt lat="47.52344" lon="6.65913">
        <ele>367</ele>
        <time>2015-05-25T09:28:41.000Z</time>
      </trkpt>
      <trkpt lat="47.52341" lon="6.65919">
        <ele>367</ele>
        <time>2015-05-25T09:28:42.000Z</time>
      </trkpt>
      <trkpt lat="47.52337" lon="6.65925">
        <ele>367</ele>
        <time>2015-05-25T09:28:43.000Z</time>
      </trkpt>
      <trkpt lat="47.52334" lon="6.65931">
        <ele>368</ele>
        <time>2015-05-25T09:28:44.000Z</time>
      </trkpt>
      <trkpt lat="47.5233" lon="6.65937">
        <ele>368</ele>
        <time>2015-05-25T09:28:45.000Z</time>
      </trkpt>
      <trkpt lat="47.52327" lon="6.65943">
        <ele>368</ele>
        <time>2015-05-25T09:28:46.000Z</time>
      </trkpt>
      <trkpt lat="47.52325" lon="6.6595">
        <ele>368</ele>
        <time>2015-05-25T09:28:47.000Z</time>
      </trkpt>
      <trkpt lat="47.52321" lon="6.65955">
        <ele>368</ele>
        <time>2015-05-25T09:28:48.000Z</time>
      </trkpt>
      <trkpt lat="47.52318" lon="6.6596">
        <ele>368</ele>
        <time>2015-05-25T09:28:49.000Z</time>
      </trkpt>
      <trkpt lat="47.52316" lon="6.65966">
        <ele>368</ele>
        <time>2015-05-25T09:28:50.000Z</time>
      </trkpt>
      <trkpt lat="47.52312" lon="6.65972">
        <ele>368</ele>
        <time>2015-05-25T09:28:51.000Z</time>
      </trkpt>
      <trkpt lat="47.52309" lon="6.65979">
        <ele>368</ele>
        <time>2015-05-25T09:28:52.000Z</time>
      </trkpt>
      <trkpt lat="47.52306" lon="6.65987">
        <ele>368</ele>
        <time>2015-05-25T09:28:53.000Z</time>
      </trkpt>
      <trkpt lat="47.52304" lon="6.65993">
        <ele>369</ele>
        <time>2015-05-25T09:28:54.000Z</time>
      </trkpt>
      <trkpt lat="47.52302" lon="6.66">
        <ele>371</ele>
        <time>2015-05-25T09:28:55.000Z</time>
      </trkpt>
      <trkpt lat="47.52298" lon="6.66005">
        <ele>371</ele>
        <time>2015-05-25T09:28:56.000Z</time>
      </trkpt>
      <trkpt lat="47.52295" lon="6.6601">
        <ele>371</ele>
        <time>2015-05-25T09:28:57.000Z</time>
      </trkpt>
      <trkpt lat="47.52291" lon="6.66019">
        <ele>371</ele>
        <time>2015-05-25T09:28:58.000Z</time>
      </trkpt>
      <trkpt lat="47.52289" lon="6.66024">
        <ele>371</ele>
        <time>2015-05-25T09:28:59.000Z</time>
      </trkpt>
      <trkpt lat="47.52287" lon="6.66029">
        <ele>371</ele>
        <time>2015-05-25T09:29:00.000Z</time>
      </trkpt>
      <trkpt lat="47.52283" lon="6.66034">
        <ele>371</ele>
        <time>2015-05-25T09:29:01.000Z</time>
      </trkpt>
      <trkpt lat="47.52281" lon="6.66039">
        <ele>371</ele>
        <time>2015-05-25T09:29:02.000Z</time>
      </trkpt>
      <trkpt lat="47.52277" lon="6.66042">
        <ele>371</ele>
        <time>2015-05-25T09:29:03.000Z</time>
      </trkpt>
      <trkpt lat="47.52273" lon="6.66044">
        <ele>371</ele>
        <time>2015-05-25T09:29:04.000Z</time>
      </trkpt>
      <trkpt lat="47.52269" lon="6.66052">
        <ele>371</ele>
        <time>2015-05-25T09:29:05.000Z</time>
      </trkpt>
      <trkpt lat="47.52266" lon="6.66057">
        <ele>372</ele>
        <time>2015-05-25T09:29:06.000Z</time>
      </trkpt>
      <trkpt lat="47.52262" lon="6.66061">
        <ele>372</ele>
        <time>2015-05-25T09:29:07.000Z</time>
      </trkpt>
      <trkpt lat="47.5226" lon="6.66067">
        <ele>372</ele>
        <time>2015-05-25T09:29:08.000Z</time>
      </trkpt>
      <trkpt lat="47.52258" lon="6.6607">
        <ele>372</ele>
        <time>2015-05-25T09:29:08.999Z</time>
      </trkpt>
      <trkpt lat="47.52256" lon="6.66073">
        <ele>372</ele>
        <time>2015-05-25T09:29:10.000Z</time>
      </trkpt>
      <trkpt lat="47.52253" lon="6.66075">
        <ele>372</ele>
        <time>2015-05-25T09:29:11.000Z</time>
      </trkpt>
      <trkpt lat="47.52251" lon="6.66076">
        <ele>373</ele>
        <time>2015-05-25T09:29:11.999Z</time>
      </trkpt>
      <trkpt lat="47.52249" lon="6.66081">
        <ele>373</ele>
        <time>2015-05-25T09:29:14.000Z</time>
      </trkpt>
      <trkpt lat="47.52248" lon="6.66085">
        <ele>373</ele>
        <time>2015-05-25T09:29:15.000Z</time>
      </trkpt>
      <trkpt lat="47.52248" lon="6.66088">
        <ele>373</ele>
        <time>2015-05-25T09:29:16.000Z</time>
      </trkpt>
      <trkpt lat="47.52248" lon="6.66092">
        <ele>374</ele>
        <time>2015-05-25T09:29:17.000Z</time>
      </trkpt>
      <trkpt lat="47.52248" lon="6.66095">
        <ele>374</ele>
        <time>2015-05-25T09:29:18.000Z</time>
      </trkpt>
      <trkpt lat="47.52248" lon="6.66099">
        <ele>374</ele>
        <time>2015-05-25T09:29:19.000Z</time>
      </trkpt>
      <trkpt lat="47.52247" lon="6.66103">
        <ele>374</ele>
        <time>2015-05-25T09:29:20.000Z</time>
      </trkpt>
      <trkpt lat="47.52246" lon="6.66106">
        <ele>374</ele>
        <time>2015-05-25T09:29:20.999Z</time>
      </trkpt>
      <trkpt lat="47.52244" lon="6.66112">
        <ele>375</ele>
        <time>2015-05-25T09:29:22.000Z</time>
      </trkpt>
      <trkpt lat="47.52242" lon="6.66117">
        <ele>375</ele>
        <time>2015-05-25T09:29:23.000Z</time>
      </trkpt>
      <trkpt lat="47.5224" lon="6.66122">
        <ele>375</ele>
        <time>2015-05-25T09:29:24.000Z</time>
      </trkpt>
      <trkpt lat="47.52238" lon="6.66126">
        <ele>375</ele>
        <time>2015-05-25T09:29:25.000Z</time>
      </trkpt>
      <trkpt lat="47.52236" lon="6.66129">
        <ele>375</ele>
        <time>2015-05-25T09:29:26.000Z</time>
      </trkpt>
      <trkpt lat="47.52233" lon="6.66133">
        <ele>375</ele>
        <time>2015-05-25T09:29:27.000Z</time>
      </trkpt>
      <trkpt lat="47.5223" lon="6.66136">
        <ele>375</ele>
        <time>2015-05-25T09:29:28.000Z</time>
      </trkpt>
      <trkpt lat="47.52227" lon="6.6614">
        <ele>375</ele>
        <time>2015-05-25T09:29:29.000Z</time>
      </trkpt>
      <trkpt lat="47.52221" lon="6.66146">
        <ele>376</ele>
        <time>2015-05-25T09:29:30.000Z</time>
      </trkpt>
      <trkpt lat="47.52218" lon="6.6615">
        <ele>376</ele>
        <time>2015-05-25T09:29:30.999Z</time>
      </trkpt>
      <trkpt lat="47.52213" lon="6.66158">
        <ele>376</ele>
        <time>2015-05-25T09:29:32.000Z</time>
      </trkpt>
      <trkpt lat="47.52209" lon="6.66163">
        <ele>376</ele>
        <time>2015-05-25T09:29:33.000Z</time>
      </trkpt>
      <trkpt lat="47.52205" lon="6.66169">
        <ele>378</ele>
        <time>2015-05-25T09:29:34.000Z</time>
      </trkpt>
      <trkpt lat="47.52201" lon="6.66175">
        <ele>378</ele>
        <time>2015-05-25T09:29:35.000Z</time>
      </trkpt>
      <trkpt lat="47.52199" lon="6.66181">
        <ele>378</ele>
        <time>2015-05-25T09:29:36.000Z</time>
      </trkpt>
      <trkpt lat="47.52196" lon="6.66186">
        <ele>378</ele>
        <time>2015-05-25T09:29:37.000Z</time>
      </trkpt>
      <trkpt lat="47.52192" lon="6.6619">
        <ele>378</ele>
        <time>2015-05-25T09:29:38.000Z</time>
      </trkpt>
      <trkpt lat="47.52188" lon="6.66193">
        <ele>378</ele>
        <time>2015-05-25T09:29:39.000Z</time>
      </trkpt>
      <trkpt lat="47.52185" lon="6.66196">
        <ele>378</ele>
        <time>2015-05-25T09:29:40.000Z</time>
      </trkpt>
      <trkpt lat="47.52182" lon="6.66199">
        <ele>378</ele>
        <time>2015-05-25T09:29:41.000Z</time>
      </trkpt>
      <trkpt lat="47.52179" lon="6.66201">
        <ele>378</ele>
        <time>2015-05-25T09:29:42.000Z</time>
      </trkpt>
      <trkpt lat="47.52177" lon="6.66205">
        <ele>378</ele>
        <time>2015-05-25T09:29:43.000Z</time>
      </trkpt>
      <trkpt lat="47.52175" lon="6.6621">
        <ele>378</ele>
        <time>2015-05-25T09:29:44.000Z</time>
      </trkpt>
      <trkpt lat="47.52172" lon="6.66216">
        <ele>378</ele>
        <time>2015-05-25T09:29:45.000Z</time>
      </trkpt>
      <trkpt lat="47.52169" lon="6.66221">
        <ele>378</ele>
        <time>2015-05-25T09:29:46.000Z</time>
      </trkpt>
      <trkpt lat="47.52166" lon="6.66225">
        <ele>378</ele>
        <time>2015-05-25T09:29:47.000Z</time>
      </trkpt>
      <trkpt lat="47.52163" lon="6.66229">
        <ele>378</ele>
        <time>2015-05-25T09:29:48.000Z</time>
      </trkpt>
      <trkpt lat="47.52161" lon="6.66233">
        <ele>378</ele>
        <time>2015-05-25T09:29:49.000Z</time>
      </trkpt>
      <trkpt lat="47.52158" lon="6.66236">
        <ele>378</ele>
        <time>2015-05-25T09:29:50.001Z</time>
      </trkpt>
      <trkpt lat="47.52155" lon="6.66241">
        <ele>379</ele>
        <time>2015-05-25T09:29:51.000Z</time>
      </trkpt>
      <trkpt lat="47.52152" lon="6.66245">
        <ele>378</ele>
        <time>2015-05-25T09:29:52.000Z</time>
      </trkpt>
      <trkpt lat="47.52148" lon="6.66249">
        <ele>378</ele>
        <time>2015-05-25T09:29:53.000Z</time>
      </trkpt>
      <trkpt lat="47.52145" lon="6.66253">
        <ele>378</ele>
        <time>2015-05-25T09:29:54.000Z</time>
      </trkpt>
      <trkpt lat="47.52141" lon="6.66257">
        <ele>378</ele>
        <time>2015-05-25T09:29:55.000Z</time>
      </trkpt>
      <trkpt lat="47.52137" lon="6.66263">
        <ele>378</ele>
        <time>2015-05-25T09:29:56.000Z</time>
      </trkpt>
      <trkpt lat="47.52133" lon="6.6627">
        <ele>378</ele>
        <time>2015-05-25T09:29:57.000Z</time>
      </trkpt>
      <trkpt lat="47.52131" lon="6.66275">
        <ele>378</ele>
        <time>2015-05-25T09:29:58.000Z</time>
      </trkpt>
      <trkpt lat="47.52127" lon="6.6628">
        <ele>378</ele>
        <time>2015-05-25T09:29:59.000Z</time>
      </trkpt>
      <trkpt lat="47.52124" lon="6.66285">
        <ele>378</ele>
        <time>2015-05-25T09:30:00.000Z</time>
      </trkpt>
      <trkpt lat="47.52119" lon="6.6629">
        <ele>378</ele>
        <time>2015-05-25T09:30:01.000Z</time>
      </trkpt>
      <trkpt lat="47.52116" lon="6.66296">
        <ele>378</ele>
        <time>2015-05-25T09:30:02.000Z</time>
      </trkpt>
      <trkpt lat="47.52113" lon="6.66302">
        <ele>378</ele>
        <time>2015-05-25T09:30:03.000Z</time>
      </trkpt>
      <trkpt lat="47.52111" lon="6.66307">
        <ele>378</ele>
        <time>2015-05-25T09:30:04.000Z</time>
      </trkpt>
      <trkpt lat="47.5211" lon="6.66313">
        <ele>378</ele>
        <time>2015-05-25T09:30:05.000Z</time>
      </trkpt>
      <trkpt lat="47.52108" lon="6.66323">
        <ele>377</ele>
        <time>2015-05-25T09:30:06.000Z</time>
      </trkpt>
      <trkpt lat="47.52107" lon="6.6633">
        <ele>377</ele>
        <time>2015-05-25T09:30:07.000Z</time>
      </trkpt>
      <trkpt lat="47.52105" lon="6.66337">
        <ele>377</ele>
        <time>2015-05-25T09:30:08.000Z</time>
      </trkpt>
      <trkpt lat="47.52105" lon="6.66343">
        <ele>377</ele>
        <time>2015-05-25T09:30:09.000Z</time>
      </trkpt>
      <trkpt lat="47.52108" lon="6.66349">
        <ele>377</ele>
        <time>2015-05-25T09:30:10.000Z</time>
      </trkpt>
      <trkpt lat="47.52108" lon="6.66358">
        <ele>377</ele>
        <time>2015-05-25T09:30:11.000Z</time>
      </trkpt>
      <trkpt lat="47.52109" lon="6.66366">
        <ele>377</ele>
        <time>2015-05-25T09:30:12.000Z</time>
      </trkpt>
      <trkpt lat="47.5211" lon="6.66373">
        <ele>377</ele>
        <time>2015-05-25T09:30:13.000Z</time>
      </trkpt>
      <trkpt lat="47.52113" lon="6.66381">
        <ele>377</ele>
        <time>2015-05-25T09:30:14.000Z</time>
      </trkpt>
      <trkpt lat="47.52114" lon="6.66388">
        <ele>377</ele>
        <time>2015-05-25T09:30:15.000Z</time>
      </trkpt>
      <trkpt lat="47.52114" lon="6.66395">
        <ele>377</ele>
        <time>2015-05-25T09:30:16.000Z</time>
      </trkpt>
      <trkpt lat="47.52115" lon="6.66403">
        <ele>377</ele>
        <time>2015-05-25T09:30:17.000Z</time>
      </trkpt>
      <trkpt lat="47.52116" lon="6.66411">
        <ele>377</ele>
        <time>2015-05-25T09:30:18.000Z</time>
      </trkpt>
      <trkpt lat="47.52117" lon="6.66418">
        <ele>377</ele>
        <time>2015-05-25T09:30:19.000Z</time>
      </trkpt>
      <trkpt lat="47.52117" lon="6.66425">
        <ele>377</ele>
        <time>2015-05-25T09:30:20.000Z</time>
      </trkpt>
      <trkpt lat="47.52118" lon="6.66432">
        <ele>378</ele>
        <time>2015-05-25T09:30:21.000Z</time>
      </trkpt>
      <trkpt lat="47.52117" lon="6.66441">
        <ele>378</ele>
        <time>2015-05-25T09:30:22.000Z</time>
      </trkpt>
      <trkpt lat="47.52117" lon="6.66448">
        <ele>378</ele>
        <time>2015-05-25T09:30:23.000Z</time>
      </trkpt>
      <trkpt lat="47.52119" lon="6.66456">
        <ele>378</ele>
        <time>2015-05-25T09:30:24.000Z</time>
      </trkpt>
      <trkpt lat="47.52118" lon="6.66464">
        <ele>378</ele>
        <time>2015-05-25T09:30:25.000Z</time>
      </trkpt>
      <trkpt lat="47.52118" lon="6.66472">
        <ele>378</ele>
        <time>2015-05-25T09:30:26.000Z</time>
      </trkpt>
      <trkpt lat="47.52117" lon="6.6648">
        <ele>378</ele>
        <time>2015-05-25T09:30:27.000Z</time>
      </trkpt>
      <trkpt lat="47.52117" lon="6.66488">
        <ele>378</ele>
        <time>2015-05-25T09:30:28.000Z</time>
      </trkpt>
      <trkpt lat="47.52117" lon="6.66497">
        <ele>378</ele>
        <time>2015-05-25T09:30:29.000Z</time>
      </trkpt>
      <trkpt lat="47.52116" lon="6.66505">
        <ele>378</ele>
        <time>2015-05-25T09:30:30.000Z</time>
      </trkpt>
      <trkpt lat="47.52116" lon="6.66511">
        <ele>378</ele>
        <time>2015-05-25T09:30:31.000Z</time>
      </trkpt>
      <trkpt lat="47.52116" lon="6.6652">
        <ele>378</ele>
        <time>2015-05-25T09:30:32.000Z</time>
      </trkpt>
      <trkpt lat="47.52115" lon="6.66527">
        <ele>378</ele>
        <time>2015-05-25T09:30:33.000Z</time>
      </trkpt>
      <trkpt lat="47.52116" lon="6.66534">
        <ele>378</ele>
        <time>2015-05-25T09:30:34.000Z</time>
      </trkpt>
      <trkpt lat="47.52114" lon="6.66542">
        <ele>378</ele>
        <time>2015-05-25T09:30:35.000Z</time>
      </trkpt>
      <trkpt lat="47.52113" lon="6.66548">
        <ele>378</ele>
        <time>2015-05-25T09:30:36.000Z</time>
      </trkpt>
      <trkpt lat="47.52113" lon="6.66555">
        <ele>378</ele>
        <time>2015-05-25T09:30:37.000Z</time>
      </trkpt>
      <trkpt lat="47.52113" lon="6.66561">
        <ele>378</ele>
        <time>2015-05-25T09:30:38.000Z</time>
      </trkpt>
      <trkpt lat="47.52113" lon="6.66569">
        <ele>378</ele>
        <time>2015-05-25T09:30:39.000Z</time>
      </trkpt>
      <trkpt lat="47.52113" lon="6.66574">
        <ele>378</ele>
        <time>2015-05-25T09:30:40.000Z</time>
      </trkpt>
      <trkpt lat="47.52113" lon="6.66582">
        <ele>378</ele>
        <time>2015-05-25T09:30:41.000Z</time>
      </trkpt>
      <trkpt lat="47.52113" lon="6.66589">
        <ele>378</ele>
        <time>2015-05-25T09:30:42.000Z</time>
      </trkpt>
      <trkpt lat="47.52113" lon="6.66598">
        <ele>378</ele>
        <time>2015-05-25T09:30:43.000Z</time>
      </trkpt>
      <trkpt lat="47.52112" lon="6.66606">
        <ele>378</ele>
        <time>2015-05-25T09:30:44.000Z</time>
      </trkpt>
      <trkpt lat="47.52112" lon="6.66613">
        <ele>378</ele>
        <time>2015-05-25T09:30:45.000Z</time>
      </trkpt>
      <trkpt lat="47.52112" lon="6.66621">
        <ele>378</ele>
        <time>2015-05-25T09:30:46.000Z</time>
      </trkpt>
      <trkpt lat="47.52111" lon="6.6663">
        <ele>378</ele>
        <time>2015-05-25T09:30:47.000Z</time>
      </trkpt>
      <trkpt lat="47.52111" lon="6.66639">
        <ele>378</ele>
        <time>2015-05-25T09:30:48.000Z</time>
      </trkpt>
      <trkpt lat="47.52112" lon="6.66647">
        <ele>378</ele>
        <time>2015-05-25T09:30:49.000Z</time>
      </trkpt>
      <trkpt lat="47.52112" lon="6.66655">
        <ele>378</ele>
        <time>2015-05-25T09:30:50.000Z</time>
      </trkpt>
      <trkpt lat="47.52114" lon="6.66663">
        <ele>378</ele>
        <time>2015-05-25T09:30:51.000Z</time>
      </trkpt>
      <trkpt lat="47.52114" lon="6.66671">
        <ele>378</ele>
        <time>2015-05-25T09:30:52.000Z</time>
      </trkpt>
      <trkpt lat="47.52113" lon="6.66679">
        <ele>377</ele>
        <time>2015-05-25T09:30:53.000Z</time>
      </trkpt>
      <trkpt lat="47.52113" lon="6.66686">
        <ele>377</ele>
        <time>2015-05-25T09:30:54.000Z</time>
      </trkpt>
      <trkpt lat="47.52111" lon="6.66696">
        <ele>377</ele>
        <time>2015-05-25T09:30:55.000Z</time>
      </trkpt>
      <trkpt lat="47.52111" lon="6.66705">
        <ele>377</ele>
        <time>2015-05-25T09:30:56.000Z</time>
      </trkpt>
      <trkpt lat="47.52111" lon="6.66714">
        <ele>377</ele>
        <time>2015-05-25T09:30:57.001Z</time>
      </trkpt>
      <trkpt lat="47.52111" lon="6.66722">
        <ele>377</ele>
        <time>2015-05-25T09:30:58.000Z</time>
      </trkpt>
      <trkpt lat="47.5211" lon="6.66729">
        <ele>377</ele>
        <time>2015-05-25T09:30:59.000Z</time>
      </trkpt>
      <trkpt lat="47.52109" lon="6.66739">
        <ele>377</ele>
        <time>2015-05-25T09:31:00.000Z</time>
      </trkpt>
      <trkpt lat="47.52109" lon="6.66748">
        <ele>377</ele>
        <time>2015-05-25T09:31:01.000Z</time>
      </trkpt>
      <trkpt lat="47.52109" lon="6.66758">
        <ele>377</ele>
        <time>2015-05-25T09:31:02.000Z</time>
      </trkpt>
      <trkpt lat="47.52108" lon="6.66766">
        <ele>377</ele>
        <time>2015-05-25T09:31:03.000Z</time>
      </trkpt>
      <trkpt lat="47.52107" lon="6.66775">
        <ele>377</ele>
        <time>2015-05-25T09:31:04.000Z</time>
      </trkpt>
      <trkpt lat="47.52107" lon="6.66784">
        <ele>377</ele>
        <time>2015-05-25T09:31:05.001Z</time>
      </trkpt>
      <trkpt lat="47.52108" lon="6.66792">
        <ele>377</ele>
        <time>2015-05-25T09:31:06.000Z</time>
      </trkpt>
      <trkpt lat="47.52107" lon="6.66801">
        <ele>377</ele>
        <time>2015-05-25T09:31:07.000Z</time>
      </trkpt>
      <trkpt lat="47.52107" lon="6.66809">
        <ele>377</ele>
        <time>2015-05-25T09:31:08.000Z</time>
      </trkpt>
      <trkpt lat="47.52108" lon="6.66819">
        <ele>377</ele>
        <time>2015-05-25T09:31:09.000Z</time>
      </trkpt>
      <trkpt lat="47.52108" lon="6.6683">
        <ele>376</ele>
        <time>2015-05-25T09:31:10.000Z</time>
      </trkpt>
      <trkpt lat="47.5211" lon="6.6684">
        <ele>376</ele>
        <time>2015-05-25T09:31:11.000Z</time>
      </trkpt>
      <trkpt lat="47.52111" lon="6.66849">
        <ele>376</ele>
        <time>2015-05-25T09:31:12.000Z</time>
      </trkpt>
      <trkpt lat="47.52111" lon="6.66858">
        <ele>376</ele>
        <time>2015-05-25T09:31:13.000Z</time>
      </trkpt>
      <trkpt lat="47.52112" lon="6.66868">
        <ele>376</ele>
        <time>2015-05-25T09:31:14.000Z</time>
      </trkpt>
      <trkpt lat="47.52112" lon="6.66877">
        <ele>376</ele>
        <time>2015-05-25T09:31:15.000Z</time>
      </trkpt>
      <trkpt lat="47.52112" lon="6.66887">
        <ele>376</ele>
        <time>2015-05-25T09:31:16.000Z</time>
      </trkpt>
      <trkpt lat="47.52111" lon="6.66896">
        <ele>376</ele>
        <time>2015-05-25T09:31:17.000Z</time>
      </trkpt>
      <trkpt lat="47.52111" lon="6.66905">
        <ele>376</ele>
        <time>2015-05-25T09:31:18.000Z</time>
      </trkpt>
      <trkpt lat="47.52112" lon="6.66916">
        <ele>376</ele>
        <time>2015-05-25T09:31:19.000Z</time>
      </trkpt>
      <trkpt lat="47.52112" lon="6.66926">
        <ele>375</ele>
        <time>2015-05-25T09:31:20.000Z</time>
      </trkpt>
      <trkpt lat="47.52112" lon="6.66937">
        <ele>375</ele>
        <time>2015-05-25T09:31:21.000Z</time>
      </trkpt>
      <trkpt lat="47.52112" lon="6.66946">
        <ele>375</ele>
        <time>2015-05-25T09:31:22.000Z</time>
      </trkpt>
      <trkpt lat="47.52112" lon="6.66957">
        <ele>375</ele>
        <time>2015-05-25T09:31:23.000Z</time>
      </trkpt>
      <trkpt lat="47.52113" lon="6.66967">
        <ele>375</ele>
        <time>2015-05-25T09:31:24.000Z</time>
      </trkpt>
      <trkpt lat="47.52114" lon="6.66977">
        <ele>375</ele>
        <time>2015-05-25T09:31:25.000Z</time>
      </trkpt>
      <trkpt lat="47.52114" lon="6.66987">
        <ele>375</ele>
        <time>2015-05-25T09:31:26.000Z</time>
      </trkpt>
      <trkpt lat="47.52115" lon="6.66997">
        <ele>375</ele>
        <time>2015-05-25T09:31:26.999Z</time>
      </trkpt>
      <trkpt lat="47.52115" lon="6.67005">
        <ele>374</ele>
        <time>2015-05-25T09:31:28.000Z</time>
      </trkpt>
      <trkpt lat="47.52117" lon="6.67017">
        <ele>374</ele>
        <time>2015-05-25T09:31:29.000Z</time>
      </trkpt>
      <trkpt lat="47.52119" lon="6.67028">
        <ele>374</ele>
        <time>2015-05-25T09:31:30.000Z</time>
      </trkpt>
      <trkpt lat="47.52122" lon="6.67037">
        <ele>374</ele>
        <time>2015-05-25T09:31:31.000Z</time>
      </trkpt>
      <trkpt lat="47.52125" lon="6.67049">
        <ele>374</ele>
        <time>2015-05-25T09:31:32.000Z</time>
      </trkpt>
      <trkpt lat="47.52128" lon="6.67058">
        <ele>374</ele>
        <time>2015-05-25T09:31:33.000Z</time>
      </trkpt>
      <trkpt lat="47.52131" lon="6.67069">
        <ele>374</ele>
        <time>2015-05-25T09:31:34.000Z</time>
      </trkpt>
      <trkpt lat="47.52134" lon="6.67079">
        <ele>373</ele>
        <time>2015-05-25T09:31:35.000Z</time>
      </trkpt>
      <trkpt lat="47.52136" lon="6.6709">
        <ele>373</ele>
        <time>2015-05-25T09:31:36.000Z</time>
      </trkpt>
      <trkpt lat="47.52138" lon="6.671">
        <ele>372</ele>
        <time>2015-05-25T09:31:37.000Z</time>
      </trkpt>
      <trkpt lat="47.52141" lon="6.67111">
        <ele>372</ele>
        <time>2015-05-25T09:31:38.000Z</time>
      </trkpt>
      <trkpt lat="47.52142" lon="6.67123">
        <ele>372</ele>
        <time>2015-05-25T09:31:39.000Z</time>
      </trkpt>
      <trkpt lat="47.52146" lon="6.67134">
        <ele>372</ele>
        <time>2015-05-25T09:31:40.000Z</time>
      </trkpt>
      <trkpt lat="47.52147" lon="6.67146">
        <ele>372</ele>
        <time>2015-05-25T09:31:41.000Z</time>
      </trkpt>
      <trkpt lat="47.52149" lon="6.67158">
        <ele>372</ele>
        <time>2015-05-25T09:31:42.000Z</time>
      </trkpt>
      <trkpt lat="47.52151" lon="6.67168">
        <ele>372</ele>
        <time>2015-05-25T09:31:43.000Z</time>
      </trkpt>
      <trkpt lat="47.52154" lon="6.67179">
        <ele>372</ele>
        <time>2015-05-25T09:31:44.000Z</time>
      </trkpt>
      <trkpt lat="47.52156" lon="6.67189">
        <ele>372</ele>
        <time>2015-05-25T09:31:45.000Z</time>
      </trkpt>
      <trkpt lat="47.52158" lon="6.672">
        <ele>372</ele>
        <time>2015-05-25T09:31:46.000Z</time>
      </trkpt>
      <trkpt lat="47.52159" lon="6.6721">
        <ele>372</ele>
        <time>2015-05-25T09:31:47.000Z</time>
      </trkpt>
      <trkpt lat="47.52161" lon="6.67219">
        <ele>372</ele>
        <time>2015-05-25T09:31:48.000Z</time>
      </trkpt>
      <trkpt lat="47.52164" lon="6.67229">
        <ele>372</ele>
        <time>2015-05-25T09:31:49.000Z</time>
      </trkpt>
      <trkpt lat="47.52167" lon="6.67239">
        <ele>372</ele>
        <time>2015-05-25T09:31:50.000Z</time>
      </trkpt>
      <trkpt lat="47.5217" lon="6.67251">
        <ele>372</ele>
        <time>2015-05-25T09:31:51.000Z</time>
      </trkpt>
      <trkpt lat="47.52171" lon="6.6726">
        <ele>372</ele>
        <time>2015-05-25T09:31:52.000Z</time>
      </trkpt>
      <trkpt lat="47.52173" lon="6.67271">
        <ele>372</ele>
        <time>2015-05-25T09:31:53.000Z</time>
      </trkpt>
      <trkpt lat="47.52172" lon="6.67281">
        <ele>372</ele>
        <time>2015-05-25T09:31:54.000Z</time>
      </trkpt>
      <trkpt lat="47.52173" lon="6.67293">
        <ele>372</ele>
        <time>2015-05-25T09:31:55.000Z</time>
      </trkpt>
      <trkpt lat="47.52173" lon="6.67303">
        <ele>372</ele>
        <time>2015-05-25T09:31:56.000Z</time>
      </trkpt>
      <trkpt lat="47.52173" lon="6.67315">
        <ele>372</ele>
        <time>2015-05-25T09:31:57.000Z</time>
      </trkpt>
      <trkpt lat="47.52174" lon="6.67326">
        <ele>372</ele>
        <time>2015-05-25T09:31:58.000Z</time>
      </trkpt>
      <trkpt lat="47.52175" lon="6.67339">
        <ele>372</ele>
        <time>2015-05-25T09:31:59.000Z</time>
      </trkpt>
      <trkpt lat="47.52175" lon="6.67351">
        <ele>372</ele>
        <time>2015-05-25T09:32:00.000Z</time>
      </trkpt>
      <trkpt lat="47.52177" lon="6.67361">
        <ele>372</ele>
        <time>2015-05-25T09:32:01.000Z</time>
      </trkpt>
      <trkpt lat="47.52179" lon="6.67372">
        <ele>372</ele>
        <time>2015-05-25T09:32:02.000Z</time>
      </trkpt>
      <trkpt lat="47.52183" lon="6.67382">
        <ele>372</ele>
        <time>2015-05-25T09:32:03.000Z</time>
      </trkpt>
      <trkpt lat="47.52186" lon="6.67393">
        <ele>372</ele>
        <time>2015-05-25T09:32:04.000Z</time>
      </trkpt>
      <trkpt lat="47.52189" lon="6.67404">
        <ele>372</ele>
        <time>2015-05-25T09:32:05.000Z</time>
      </trkpt>
      <trkpt lat="47.52193" lon="6.67414">
        <ele>372</ele>
        <time>2015-05-25T09:32:06.000Z</time>
      </trkpt>
      <trkpt lat="47.52196" lon="6.67424">
        <ele>371</ele>
        <time>2015-05-25T09:32:07.000Z</time>
      </trkpt>
      <trkpt lat="47.52199" lon="6.67434">
        <ele>371</ele>
        <time>2015-05-25T09:32:08.000Z</time>
      </trkpt>
      <trkpt lat="47.52202" lon="6.67444">
        <ele>371</ele>
        <time>2015-05-25T09:32:09.000Z</time>
      </trkpt>
      <trkpt lat="47.52204" lon="6.67453">
        <ele>371</ele>
        <time>2015-05-25T09:32:10.000Z</time>
      </trkpt>
      <trkpt lat="47.52206" lon="6.67463">
        <ele>371</ele>
        <time>2015-05-25T09:32:11.000Z</time>
      </trkpt>
      <trkpt lat="47.52208" lon="6.67472">
        <ele>371</ele>
        <time>2015-05-25T09:32:12.001Z</time>
      </trkpt>
      <trkpt lat="47.52208" lon="6.6748">
        <ele>371</ele>
        <time>2015-05-25T09:32:13.000Z</time>
      </trkpt>
      <trkpt lat="47.52208" lon="6.67487">
        <ele>372</ele>
        <time>2015-05-25T09:32:14.000Z</time>
      </trkpt>
      <trkpt lat="47.52208" lon="6.67494">
        <ele>371</ele>
        <time>2015-05-25T09:32:15.000Z</time>
      </trkpt>
      <trkpt lat="47.52207" lon="6.67505">
        <ele>371</ele>
        <time>2015-05-25T09:32:16.000Z</time>
      </trkpt>
      <trkpt lat="47.52206" lon="6.67514">
        <ele>371</ele>
        <time>2015-05-25T09:32:17.001Z</time>
      </trkpt>
      <trkpt lat="47.52207" lon="6.67522">
        <ele>371</ele>
        <time>2015-05-25T09:32:18.000Z</time>
      </trkpt>
      <trkpt lat="47.52207" lon="6.67531">
        <ele>371</ele>
        <time>2015-05-25T09:32:19.000Z</time>
      </trkpt>
      <trkpt lat="47.52207" lon="6.6754">
        <ele>371</ele>
        <time>2015-05-25T09:32:20.000Z</time>
      </trkpt>
      <trkpt lat="47.52207" lon="6.67549">
        <ele>371</ele>
        <time>2015-05-25T09:32:21.000Z</time>
      </trkpt>
      <trkpt lat="47.52207" lon="6.67558">
        <ele>371</ele>
        <time>2015-05-25T09:32:22.000Z</time>
      </trkpt>
      <trkpt lat="47.52208" lon="6.67567">
        <ele>371</ele>
        <time>2015-05-25T09:32:23.000Z</time>
      </trkpt>
      <trkpt lat="47.52207" lon="6.67575">
        <ele>370</ele>
        <time>2015-05-25T09:32:24.000Z</time>
      </trkpt>
      <trkpt lat="47.52207" lon="6.67584">
        <ele>369</ele>
        <time>2015-05-25T09:32:25.000Z</time>
      </trkpt>
      <trkpt lat="47.52207" lon="6.67592">
        <ele>369</ele>
        <time>2015-05-25T09:32:26.000Z</time>
      </trkpt>
      <trkpt lat="47.52207" lon="6.676">
        <ele>369</ele>
        <time>2015-05-25T09:32:27.000Z</time>
      </trkpt>
      <trkpt lat="47.52206" lon="6.6761">
        <ele>369</ele>
        <time>2015-05-25T09:32:28.000Z</time>
      </trkpt>
      <trkpt lat="47.52206" lon="6.6762">
        <ele>369</ele>
        <time>2015-05-25T09:32:29.000Z</time>
      </trkpt>
      <trkpt lat="47.52205" lon="6.67631">
        <ele>369</ele>
        <time>2015-05-25T09:32:30.000Z</time>
      </trkpt>
      <trkpt lat="47.52205" lon="6.67641">
        <ele>369</ele>
        <time>2015-05-25T09:32:31.000Z</time>
      </trkpt>
      <trkpt lat="47.52205" lon="6.6765">
        <ele>368</ele>
        <time>2015-05-25T09:32:32.000Z</time>
      </trkpt>
      <trkpt lat="47.52205" lon="6.6766">
        <ele>368</ele>
        <time>2015-05-25T09:32:33.000Z</time>
      </trkpt>
      <trkpt lat="47.52204" lon="6.6767">
        <ele>367</ele>
        <time>2015-05-25T09:32:34.000Z</time>
      </trkpt>
      <trkpt lat="47.52204" lon="6.6768">
        <ele>367</ele>
        <time>2015-05-25T09:32:35.000Z</time>
      </trkpt>
      <trkpt lat="47.52203" lon="6.6769">
        <ele>367</ele>
        <time>2015-05-25T09:32:36.000Z</time>
      </trkpt>
      <trkpt lat="47.52203" lon="6.67701">
        <ele>367</ele>
        <time>2015-05-25T09:32:37.000Z</time>
      </trkpt>
      <trkpt lat="47.52202" lon="6.67711">
        <ele>367</ele>
        <time>2015-05-25T09:32:38.000Z</time>
      </trkpt>
      <trkpt lat="47.52201" lon="6.67721">
        <ele>367</ele>
        <time>2015-05-25T09:32:39.000Z</time>
      </trkpt>
      <trkpt lat="47.52201" lon="6.67731">
        <ele>367</ele>
        <time>2015-05-25T09:32:40.000Z</time>
      </trkpt>
      <trkpt lat="47.522" lon="6.67742">
        <ele>367</ele>
        <time>2015-05-25T09:32:41.000Z</time>
      </trkpt>
      <trkpt lat="47.52199" lon="6.67752">
        <ele>366</ele>
        <time>2015-05-25T09:32:42.000Z</time>
      </trkpt>
      <trkpt lat="47.52199" lon="6.67762">
        <ele>366</ele>
        <time>2015-05-25T09:32:43.000Z</time>
      </trkpt>
      <trkpt lat="47.52198" lon="6.67773">
        <ele>366</ele>
        <time>2015-05-25T09:32:44.000Z</time>
      </trkpt>
      <trkpt lat="47.52197" lon="6.67784">
        <ele>366</ele>
        <time>2015-05-25T09:32:45.000Z</time>
      </trkpt>
      <trkpt lat="47.52197" lon="6.67794">
        <ele>366</ele>
        <time>2015-05-25T09:32:46.000Z</time>
      </trkpt>
      <trkpt lat="47.52196" lon="6.67804">
        <ele>366</ele>
        <time>2015-05-25T09:32:47.000Z</time>
      </trkpt>
      <trkpt lat="47.52195" lon="6.67814">
        <ele>366</ele>
        <time>2015-05-25T09:32:48.000Z</time>
      </trkpt>
      <trkpt lat="47.52195" lon="6.67824">
        <ele>365</ele>
        <time>2015-05-25T09:32:49.000Z</time>
      </trkpt>
      <trkpt lat="47.52194" lon="6.67833">
        <ele>365</ele>
        <time>2015-05-25T09:32:50.000Z</time>
      </trkpt>
      <trkpt lat="47.52193" lon="6.67842">
        <ele>365</ele>
        <time>2015-05-25T09:32:51.000Z</time>
      </trkpt>
      <trkpt lat="47.52192" lon="6.67851">
        <ele>365</ele>
        <time>2015-05-25T09:32:52.000Z</time>
      </trkpt>
      <trkpt lat="47.52192" lon="6.67861">
        <ele>365</ele>
        <time>2015-05-25T09:32:53.000Z</time>
      </trkpt>
      <trkpt lat="47.52191" lon="6.67871">
        <ele>365</ele>
        <time>2015-05-25T09:32:54.000Z</time>
      </trkpt>
      <trkpt lat="47.52191" lon="6.67881">
        <ele>364</ele>
        <time>2015-05-25T09:32:55.000Z</time>
      </trkpt>
      <trkpt lat="47.5219" lon="6.67891">
        <ele>364</ele>
        <time>2015-05-25T09:32:56.000Z</time>
      </trkpt>
      <trkpt lat="47.52189" lon="6.67901">
        <ele>364</ele>
        <time>2015-05-25T09:32:57.000Z</time>
      </trkpt>
      <trkpt lat="47.52189" lon="6.67911">
        <ele>364</ele>
        <time>2015-05-25T09:32:58.000Z</time>
      </trkpt>
      <trkpt lat="47.52188" lon="6.6792">
        <ele>364</ele>
        <time>2015-05-25T09:32:59.000Z</time>
      </trkpt>
      <trkpt lat="47.52187" lon="6.6793">
        <ele>364</ele>
        <time>2015-05-25T09:33:00.000Z</time>
      </trkpt>
      <trkpt lat="47.52186" lon="6.6794">
        <ele>364</ele>
        <time>2015-05-25T09:33:01.000Z</time>
      </trkpt>
      <trkpt lat="47.52185" lon="6.67949">
        <ele>364</ele>
        <time>2015-05-25T09:33:02.000Z</time>
      </trkpt>
      <trkpt lat="47.52185" lon="6.67959">
        <ele>363</ele>
        <time>2015-05-25T09:33:03.000Z</time>
      </trkpt>
      <trkpt lat="47.52184" lon="6.67968">
        <ele>363</ele>
        <time>2015-05-25T09:33:04.000Z</time>
      </trkpt>
      <trkpt lat="47.52183" lon="6.67977">
        <ele>363</ele>
        <time>2015-05-25T09:33:05.000Z</time>
      </trkpt>
      <trkpt lat="47.52182" lon="6.67986">
        <ele>363</ele>
        <time>2015-05-25T09:33:06.000Z</time>
      </trkpt>
      <trkpt lat="47.52181" lon="6.67995">
        <ele>363</ele>
        <time>2015-05-25T09:33:07.000Z</time>
      </trkpt>
      <trkpt lat="47.52181" lon="6.68004">
        <ele>363</ele>
        <time>2015-05-25T09:33:08.000Z</time>
      </trkpt>
      <trkpt lat="47.5218" lon="6.68013">
        <ele>363</ele>
        <time>2015-05-25T09:33:09.000Z</time>
      </trkpt>
      <trkpt lat="47.52179" lon="6.68022">
        <ele>363</ele>
        <time>2015-05-25T09:33:10.000Z</time>
      </trkpt>
      <trkpt lat="47.52179" lon="6.68031">
        <ele>363</ele>
        <time>2015-05-25T09:33:11.000Z</time>
      </trkpt>
      <trkpt lat="47.52178" lon="6.68041">
        <ele>363</ele>
        <time>2015-05-25T09:33:12.000Z</time>
      </trkpt>
      <trkpt lat="47.52176" lon="6.6805">
        <ele>362</ele>
        <time>2015-05-25T09:33:13.000Z</time>
      </trkpt>
      <trkpt lat="47.52176" lon="6.68058">
        <ele>362</ele>
        <time>2015-05-25T09:33:14.000Z</time>
      </trkpt>
      <trkpt lat="47.52176" lon="6.68069">
        <ele>362</ele>
        <time>2015-05-25T09:33:15.000Z</time>
      </trkpt>
      <trkpt lat="47.52175" lon="6.68079">
        <ele>362</ele>
        <time>2015-05-25T09:33:16.000Z</time>
      </trkpt>
      <trkpt lat="47.52174" lon="6.6809">
        <ele>362</ele>
        <time>2015-05-25T09:33:17.000Z</time>
      </trkpt>
      <trkpt lat="47.52173" lon="6.68101">
        <ele>361</ele>
        <time>2015-05-25T09:33:18.001Z</time>
      </trkpt>
      <trkpt lat="47.5217" lon="6.68113">
        <ele>361</ele>
        <time>2015-05-25T09:33:19.000Z</time>
      </trkpt>
      <trkpt lat="47.52168" lon="6.68124">
        <ele>361</ele>
        <time>2015-05-25T09:33:20.000Z</time>
      </trkpt>
      <trkpt lat="47.52166" lon="6.68134">
        <ele>361</ele>
        <time>2015-05-25T09:33:21.000Z</time>
      </trkpt>
      <trkpt lat="47.52162" lon="6.68145">
        <ele>361</ele>
        <time>2015-05-25T09:33:22.000Z</time>
      </trkpt>
      <trkpt lat="47.52163" lon="6.68159">
        <ele>360</ele>
        <time>2015-05-25T09:33:23.000Z</time>
      </trkpt>
      <trkpt lat="47.52162" lon="6.68169">
        <ele>360</ele>
        <time>2015-05-25T09:33:24.000Z</time>
      </trkpt>
      <trkpt lat="47.52162" lon="6.6818">
        <ele>360</ele>
        <time>2015-05-25T09:33:25.000Z</time>
      </trkpt>
      <trkpt lat="47.52162" lon="6.68191">
        <ele>360</ele>
        <time>2015-05-25T09:33:26.000Z</time>
      </trkpt>
      <trkpt lat="47.52162" lon="6.68201">
        <ele>360</ele>
        <time>2015-05-25T09:33:27.000Z</time>
      </trkpt>
      <trkpt lat="47.52164" lon="6.68211">
        <ele>360</ele>
        <time>2015-05-25T09:33:28.000Z</time>
      </trkpt>
      <trkpt lat="47.52165" lon="6.68221">
        <ele>360</ele>
        <time>2015-05-25T09:33:29.000Z</time>
      </trkpt>
      <trkpt lat="47.52167" lon="6.68231">
        <ele>359</ele>
        <time>2015-05-25T09:33:30.000Z</time>
      </trkpt>
      <trkpt lat="47.52169" lon="6.6824">
        <ele>359</ele>
        <time>2015-05-25T09:33:31.000Z</time>
      </trkpt>
      <trkpt lat="47.52171" lon="6.68251">
        <ele>359</ele>
        <time>2015-05-25T09:33:32.000Z</time>
      </trkpt>
      <trkpt lat="47.52173" lon="6.68261">
        <ele>359</ele>
        <time>2015-05-25T09:33:33.000Z</time>
      </trkpt>
      <trkpt lat="47.52175" lon="6.68271">
        <ele>359</ele>
        <time>2015-05-25T09:33:34.000Z</time>
      </trkpt>
      <trkpt lat="47.52178" lon="6.6828">
        <ele>359</ele>
        <time>2015-05-25T09:33:35.000Z</time>
      </trkpt>
      <trkpt lat="47.5218" lon="6.68288">
        <ele>359</ele>
        <time>2015-05-25T09:33:36.000Z</time>
      </trkpt>
      <trkpt lat="47.52181" lon="6.68295">
        <ele>359</ele>
        <time>2015-05-25T09:33:37.000Z</time>
      </trkpt>
      <trkpt lat="47.52182" lon="6.68303">
        <ele>359</ele>
        <time>2015-05-25T09:33:38.000Z</time>
      </trkpt>
      <trkpt lat="47.52184" lon="6.68309">
        <ele>359</ele>
        <time>2015-05-25T09:33:39.000Z</time>
      </trkpt>
      <trkpt lat="47.52186" lon="6.68317">
        <ele>359</ele>
        <time>2015-05-25T09:33:40.000Z</time>
      </trkpt>
      <trkpt lat="47.52187" lon="6.68324">
        <ele>359</ele>
        <time>2015-05-25T09:33:41.000Z</time>
      </trkpt>
      <trkpt lat="47.52189" lon="6.68331">
        <ele>359</ele>
        <time>2015-05-25T09:33:42.000Z</time>
      </trkpt>
      <trkpt lat="47.5219" lon="6.68338">
        <ele>359</ele>
        <time>2015-05-25T09:33:43.000Z</time>
      </trkpt>
      <trkpt lat="47.52192" lon="6.68344">
        <ele>359</ele>
        <time>2015-05-25T09:33:44.000Z</time>
      </trkpt>
      <trkpt lat="47.52193" lon="6.68351">
        <ele>359</ele>
        <time>2015-05-25T09:33:45.000Z</time>
      </trkpt>
      <trkpt lat="47.52194" lon="6.68358">
        <ele>359</ele>
        <time>2015-05-25T09:33:46.000Z</time>
      </trkpt>
      <trkpt lat="47.52196" lon="6.68362">
        <ele>359</ele>
        <time>2015-05-25T09:33:47.000Z</time>
      </trkpt>
      <trkpt lat="47.52196" lon="6.68368">
        <ele>359</ele>
        <time>2015-05-25T09:33:48.000Z</time>
      </trkpt>
      <trkpt lat="47.52198" lon="6.68376">
        <ele>359</ele>
        <time>2015-05-25T09:33:49.000Z</time>
      </trkpt>
      <trkpt lat="47.52199" lon="6.68383">
        <ele>359</ele>
        <time>2015-05-25T09:33:50.000Z</time>
      </trkpt>
      <trkpt lat="47.52199" lon="6.6839">
        <ele>359</ele>
        <time>2015-05-25T09:33:51.000Z</time>
      </trkpt>
      <trkpt lat="47.52201" lon="6.68398">
        <ele>359</ele>
        <time>2015-05-25T09:33:52.000Z</time>
      </trkpt>
      <trkpt lat="47.52202" lon="6.68406">
        <ele>359</ele>
        <time>2015-05-25T09:33:53.000Z</time>
      </trkpt>
      <trkpt lat="47.52204" lon="6.68413">
        <ele>359</ele>
        <time>2015-05-25T09:33:54.000Z</time>
      </trkpt>
      <trkpt lat="47.52205" lon="6.68419">
        <ele>358</ele>
        <time>2015-05-25T09:33:55.000Z</time>
      </trkpt>
      <trkpt lat="47.52207" lon="6.68428">
        <ele>358</ele>
        <time>2015-05-25T09:33:56.000Z</time>
      </trkpt>
      <trkpt lat="47.52209" lon="6.68438">
        <ele>359</ele>
        <time>2015-05-25T09:33:57.000Z</time>
      </trkpt>
      <trkpt lat="47.5221" lon="6.68447">
        <ele>359</ele>
        <time>2015-05-25T09:33:58.000Z</time>
      </trkpt>
      <trkpt lat="47.52211" lon="6.68456">
        <ele>359</ele>
        <time>2015-05-25T09:33:59.000Z</time>
      </trkpt>
      <trkpt lat="47.52215" lon="6.68465">
        <ele>359</ele>
        <time>2015-05-25T09:34:00.000Z</time>
      </trkpt>
      <trkpt lat="47.52216" lon="6.68475">
        <ele>359</ele>
        <time>2015-05-25T09:34:01.000Z</time>
      </trkpt>
      <trkpt lat="47.52219" lon="6.68483">
        <ele>359</ele>
        <time>2015-05-25T09:34:02.000Z</time>
      </trkpt>
      <trkpt lat="47.5222" lon="6.6849">
        <ele>359</ele>
        <time>2015-05-25T09:34:03.000Z</time>
      </trkpt>
      <trkpt lat="47.52221" lon="6.68497">
        <ele>359</ele>
        <time>2015-05-25T09:34:04.000Z</time>
      </trkpt>
      <trkpt lat="47.52222" lon="6.68504">
        <ele>360</ele>
        <time>2015-05-25T09:34:05.000Z</time>
      </trkpt>
      <trkpt lat="47.52224" lon="6.68511">
        <ele>360</ele>
        <time>2015-05-25T09:34:06.000Z</time>
      </trkpt>
      <trkpt lat="47.52227" lon="6.68516">
        <ele>360</ele>
        <time>2015-05-25T09:34:07.000Z</time>
      </trkpt>
      <trkpt lat="47.5223" lon="6.68523">
        <ele>360</ele>
        <time>2015-05-25T09:34:08.000Z</time>
      </trkpt>
      <trkpt lat="47.52233" lon="6.68531">
        <ele>360</ele>
        <time>2015-05-25T09:34:09.000Z</time>
      </trkpt>
      <trkpt lat="47.52236" lon="6.68539">
        <ele>360</ele>
        <time>2015-05-25T09:34:10.000Z</time>
      </trkpt>
      <trkpt lat="47.52239" lon="6.68545">
        <ele>360</ele>
        <time>2015-05-25T09:34:11.000Z</time>
      </trkpt>
      <trkpt lat="47.52244" lon="6.68556">
        <ele>361</ele>
        <time>2015-05-25T09:34:13.000Z</time>
      </trkpt>
      <trkpt lat="47.52247" lon="6.68559">
        <ele>361</ele>
        <time>2015-05-25T09:34:14.000Z</time>
      </trkpt>
      <trkpt lat="47.52249" lon="6.68563">
        <ele>361</ele>
        <time>2015-05-25T09:34:15.000Z</time>
      </trkpt>
      <trkpt lat="47.52253" lon="6.68565">
        <ele>364</ele>
        <time>2015-05-25T09:34:16.000Z</time>
      </trkpt>
      <trkpt lat="47.52256" lon="6.68568">
        <ele>364</ele>
        <time>2015-05-25T09:34:17.000Z</time>
      </trkpt>
      <trkpt lat="47.52259" lon="6.68571">
        <ele>364</ele>
        <time>2015-05-25T09:34:18.000Z</time>
      </trkpt>
      <trkpt lat="47.52262" lon="6.68573">
        <ele>364</ele>
        <time>2015-05-25T09:34:19.000Z</time>
      </trkpt>
      <trkpt lat="47.52265" lon="6.68574">
        <ele>364</ele>
        <time>2015-05-25T09:34:20.000Z</time>
      </trkpt>
      <trkpt lat="47.52268" lon="6.68575">
        <ele>365</ele>
        <time>2015-05-25T09:34:21.000Z</time>
      </trkpt>
      <trkpt lat="47.52271" lon="6.68575">
        <ele>365</ele>
        <time>2015-05-25T09:34:22.000Z</time>
      </trkpt>
      <trkpt lat="47.52274" lon="6.68575">
        <ele>365</ele>
        <time>2015-05-25T09:34:23.000Z</time>
      </trkpt>
      <trkpt lat="47.52277" lon="6.68575">
        <ele>365</ele>
        <time>2015-05-25T09:34:24.000Z</time>
      </trkpt>
      <trkpt lat="47.5228" lon="6.68575">
        <ele>365</ele>
        <time>2015-05-25T09:34:25.000Z</time>
      </trkpt>
      <trkpt lat="47.52283" lon="6.68574">
        <ele>366</ele>
        <time>2015-05-25T09:34:26.000Z</time>
      </trkpt>
      <trkpt lat="47.52286" lon="6.68574">
        <ele>366</ele>
        <time>2015-05-25T09:34:27.000Z</time>
      </trkpt>
      <trkpt lat="47.52289" lon="6.68573">
        <ele>366</ele>
        <time>2015-05-25T09:34:28.000Z</time>
      </trkpt>
      <trkpt lat="47.52291" lon="6.68573">
        <ele>366</ele>
        <time>2015-05-25T09:34:29.000Z</time>
      </trkpt>
      <trkpt lat="47.52295" lon="6.68573">
        <ele>366</ele>
        <time>2015-05-25T09:34:31.000Z</time>
      </trkpt>
      <trkpt lat="47.52297" lon="6.68574">
        <ele>367</ele>
        <time>2015-05-25T09:34:32.000Z</time>
      </trkpt>
      <trkpt lat="47.523" lon="6.68574">
        <ele>367</ele>
        <time>2015-05-25T09:34:34.000Z</time>
      </trkpt>
      <trkpt lat="47.52301" lon="6.68574">
        <ele>367</ele>
        <time>2015-05-25T09:34:35.001Z</time>
      </trkpt>
      <trkpt lat="47.52305" lon="6.68573">
        <ele>367</ele>
        <time>2015-05-25T09:34:36.999Z</time>
      </trkpt>
      <trkpt lat="47.52307" lon="6.68573">
        <ele>367</ele>
        <time>2015-05-25T09:34:38.000Z</time>
      </trkpt>
      <trkpt lat="47.52311" lon="6.68574">
        <ele>368</ele>
        <time>2015-05-25T09:34:40.000Z</time>
      </trkpt>
      <trkpt lat="47.52314" lon="6.68576">
        <ele>368</ele>
        <time>2015-05-25T09:34:41.000Z</time>
      </trkpt>
      <trkpt lat="47.52317" lon="6.68577">
        <ele>369</ele>
        <time>2015-05-25T09:34:42.000Z</time>
      </trkpt>
      <trkpt lat="47.52321" lon="6.68577">
        <ele>369</ele>
        <time>2015-05-25T09:34:43.000Z</time>
      </trkpt>
      <trkpt lat="47.52323" lon="6.68578">
        <ele>370</ele>
        <time>2015-05-25T09:34:44.000Z</time>
      </trkpt>
      <trkpt lat="47.52327" lon="6.68578">
        <ele>370</ele>
        <time>2015-05-25T09:34:45.000Z</time>
      </trkpt>
      <trkpt lat="47.5233" lon="6.68578">
        <ele>371</ele>
        <time>2015-05-25T09:34:46.000Z</time>
      </trkpt>
      <trkpt lat="47.52332" lon="6.68579">
        <ele>371</ele>
        <time>2015-05-25T09:34:47.000Z</time>
      </trkpt>
      <trkpt lat="47.52334" lon="6.68579">
        <ele>372</ele>
        <time>2015-05-25T09:34:48.000Z</time>
      </trkpt>
      <trkpt lat="47.52338" lon="6.68576">
        <ele>372</ele>
        <time>2015-05-25T09:34:49.000Z</time>
      </trkpt>
      <trkpt lat="47.5234" lon="6.68575">
        <ele>372</ele>
        <time>2015-05-25T09:34:50.000Z</time>
      </trkpt>
      <trkpt lat="47.52343" lon="6.68573">
        <ele>372</ele>
        <time>2015-05-25T09:34:51.000Z</time>
      </trkpt>
      <trkpt lat="47.52347" lon="6.68571">
        <ele>372</ele>
        <time>2015-05-25T09:34:53.000Z</time>
      </trkpt>
      <trkpt lat="47.52348" lon="6.68571">
        <ele>372</ele>
        <time>2015-05-25T09:34:53.999Z</time>
      </trkpt>
      <trkpt lat="47.5235" lon="6.68574">
        <ele>372</ele>
        <time>2015-05-25T09:34:55.000Z</time>
      </trkpt>
      <trkpt lat="47.52352" lon="6.68576">
        <ele>372</ele>
        <time>2015-05-25T09:34:55.998Z</time>
      </trkpt>
      <trkpt lat="47.52354" lon="6.68579">
        <ele>372</ele>
        <time>2015-05-25T09:34:57.000Z</time>
      </trkpt>
      <trkpt lat="47.52356" lon="6.68583">
        <ele>372</ele>
        <time>2015-05-25T09:34:58.000Z</time>
      </trkpt>
      <trkpt lat="47.52357" lon="6.68586">
        <ele>372</ele>
        <time>2015-05-25T09:34:59.000Z</time>
      </trkpt>
      <trkpt lat="47.52359" lon="6.6859">
        <ele>372</ele>
        <time>2015-05-25T09:35:00.000Z</time>
      </trkpt>
      <trkpt lat="47.5236" lon="6.68593">
        <ele>372</ele>
        <time>2015-05-25T09:35:01.000Z</time>
      </trkpt>
      <trkpt lat="47.52361" lon="6.68596">
        <ele>372</ele>
        <time>2015-05-25T09:35:02.000Z</time>
      </trkpt>
      <trkpt lat="47.52361" lon="6.68602">
        <ele>372</ele>
        <time>2015-05-25T09:35:04.000Z</time>
      </trkpt>
      <trkpt lat="47.5236" lon="6.68604">
        <ele>372</ele>
        <time>2015-05-25T09:35:05.000Z</time>
      </trkpt>
      <trkpt lat="47.52359" lon="6.68608">
        <ele>372</ele>
        <time>2015-05-25T09:35:06.000Z</time>
      </trkpt>
      <trkpt lat="47.52358" lon="6.68611">
        <ele>372</ele>
        <time>2015-05-25T09:35:07.000Z</time>
      </trkpt>
      <trkpt lat="47.52355" lon="6.68616">
        <ele>372</ele>
        <time>2015-05-25T09:35:09.000Z</time>
      </trkpt>
      <trkpt lat="47.52354" lon="6.68619">
        <ele>372</ele>
        <time>2015-05-25T09:35:10.000Z</time>
      </trkpt>
      <trkpt lat="47.52351" lon="6.68624">
        <ele>372</ele>
        <time>2015-05-25T09:35:12.000Z</time>
      </trkpt>
      <trkpt lat="47.5235" lon="6.68628">
        <ele>372</ele>
        <time>2015-05-25T09:35:13.000Z</time>
      </trkpt>
      <trkpt lat="47.52349" lon="6.68632">
        <ele>372</ele>
        <time>2015-05-25T09:35:14.000Z</time>
      </trkpt>
      <trkpt lat="47.52347" lon="6.68637">
        <ele>372</ele>
        <time>2015-05-25T09:35:15.000Z</time>
      </trkpt>
      <trkpt lat="47.52346" lon="6.68642">
        <ele>372</ele>
        <time>2015-05-25T09:35:16.000Z</time>
      </trkpt>
      <trkpt lat="47.52345" lon="6.68646">
        <ele>372</ele>
        <time>2015-05-25T09:35:17.000Z</time>
      </trkpt>
      <trkpt lat="47.52344" lon="6.68651">
        <ele>372</ele>
        <time>2015-05-25T09:35:18.000Z</time>
      </trkpt>
      <trkpt lat="47.52343" lon="6.68657">
        <ele>372</ele>
        <time>2015-05-25T09:35:19.000Z</time>
      </trkpt>
      <trkpt lat="47.52342" lon="6.68662">
        <ele>372</ele>
        <time>2015-05-25T09:35:20.000Z</time>
      </trkpt>
      <trkpt lat="47.52342" lon="6.68667">
        <ele>371</ele>
        <time>2015-05-25T09:35:21.000Z</time>
      </trkpt>
      <trkpt lat="47.52341" lon="6.68672">
        <ele>371</ele>
        <time>2015-05-25T09:35:22.000Z</time>
      </trkpt>
      <trkpt lat="47.52341" lon="6.68677">
        <ele>371</ele>
        <time>2015-05-25T09:35:23.000Z</time>
      </trkpt>
      <trkpt lat="47.52342" lon="6.68682">
        <ele>371</ele>
        <time>2015-05-25T09:35:24.000Z</time>
      </trkpt>
      <trkpt lat="47.52343" lon="6.68687">
        <ele>371</ele>
        <time>2015-05-25T09:35:25.000Z</time>
      </trkpt>
      <trkpt lat="47.52345" lon="6.68692">
        <ele>371</ele>
        <time>2015-05-25T09:35:26.000Z</time>
      </trkpt>
      <trkpt lat="47.52348" lon="6.68697">
        <ele>371</ele>
        <time>2015-05-25T09:35:27.000Z</time>
      </trkpt>
      <trkpt lat="47.5235" lon="6.68703">
        <ele>371</ele>
        <time>2015-05-25T09:35:28.000Z</time>
      </trkpt>
      <trkpt lat="47.52353" lon="6.68709">
        <ele>371</ele>
        <time>2015-05-25T09:35:29.000Z</time>
      </trkpt>
      <trkpt lat="47.52358" lon="6.68716">
        <ele>371</ele>
        <time>2015-05-25T09:35:30.000Z</time>
      </trkpt>
      <trkpt lat="47.52361" lon="6.68721">
        <ele>371</ele>
        <time>2015-05-25T09:35:31.000Z</time>
      </trkpt>
      <trkpt lat="47.52363" lon="6.68726">
        <ele>371</ele>
        <time>2015-05-25T09:35:32.000Z</time>
      </trkpt>
      <trkpt lat="47.52366" lon="6.68729">
        <ele>371</ele>
        <time>2015-05-25T09:35:33.000Z</time>
      </trkpt>
      <trkpt lat="47.52368" lon="6.68732">
        <ele>371</ele>
        <time>2015-05-25T09:35:34.000Z</time>
      </trkpt>
      <trkpt lat="47.5237" lon="6.68736">
        <ele>371</ele>
        <time>2015-05-25T09:35:35.000Z</time>
      </trkpt>
      <trkpt lat="47.52371" lon="6.68742">
        <ele>371</ele>
        <time>2015-05-25T09:35:36.000Z</time>
      </trkpt>
      <trkpt lat="47.52372" lon="6.68747">
        <ele>371</ele>
        <time>2015-05-25T09:35:37.000Z</time>
      </trkpt>
      <trkpt lat="47.52374" lon="6.68752">
        <ele>371</ele>
        <time>2015-05-25T09:35:38.000Z</time>
      </trkpt>
      <trkpt lat="47.52375" lon="6.68757">
        <ele>371</ele>
        <time>2015-05-25T09:35:39.000Z</time>
      </trkpt>
      <trkpt lat="47.52377" lon="6.68764">
        <ele>371</ele>
        <time>2015-05-25T09:35:40.000Z</time>
      </trkpt>
      <trkpt lat="47.52378" lon="6.6877">
        <ele>371</ele>
        <time>2015-05-25T09:35:41.000Z</time>
      </trkpt>
      <trkpt lat="47.5238" lon="6.68776">
        <ele>371</ele>
        <time>2015-05-25T09:35:42.000Z</time>
      </trkpt>
      <trkpt lat="47.52381" lon="6.6878">
        <ele>371</ele>
        <time>2015-05-25T09:35:43.000Z</time>
      </trkpt>
      <trkpt lat="47.52381" lon="6.68784">
        <ele>371</ele>
        <time>2015-05-25T09:35:44.000Z</time>
      </trkpt>
      <trkpt lat="47.52383" lon="6.68789">
        <ele>371</ele>
        <time>2015-05-25T09:35:46.000Z</time>
      </trkpt>
      <trkpt lat="47.52383" lon="6.68791">
        <ele>371</ele>
        <time>2015-05-25T09:35:47.000Z</time>
      </trkpt>
      <trkpt lat="47.52383" lon="6.68798">
        <ele>371</ele>
        <time>2015-05-25T09:35:50.000Z</time>
      </trkpt>
      <trkpt lat="47.52384" lon="6.68799">
        <ele>371</ele>
        <time>2015-05-25T09:35:51.000Z</time>
      </trkpt>
      <trkpt lat="47.52384" lon="6.68805">
        <ele>371</ele>
        <time>2015-05-25T09:36:38.000Z</time>
      </trkpt>
      <trkpt lat="47.52384" lon="6.68806">
        <ele>371</ele>
        <time>2015-05-25T09:36:39.000Z</time>
      </trkpt>
      <trkpt lat="47.52386" lon="6.68809">
        <ele>371</ele>
        <time>2015-05-25T09:36:40.000Z</time>
      </trkpt>
      <trkpt lat="47.52387" lon="6.68812">
        <ele>371</ele>
        <time>2015-05-25T09:36:41.000Z</time>
      </trkpt>
      <trkpt lat="47.52389" lon="6.68816">
        <ele>371</ele>
        <time>2015-05-25T09:36:42.000Z</time>
      </trkpt>
      <trkpt lat="47.52391" lon="6.6882">
        <ele>371</ele>
        <time>2015-05-25T09:36:43.000Z</time>
      </trkpt>
      <trkpt lat="47.52393" lon="6.68825">
        <ele>370</ele>
        <time>2015-05-25T09:36:44.000Z</time>
      </trkpt>
      <trkpt lat="47.52395" lon="6.68829">
        <ele>370</ele>
        <time>2015-05-25T09:36:45.000Z</time>
      </trkpt>
      <trkpt lat="47.52397" lon="6.68833">
        <ele>370</ele>
        <time>2015-05-25T09:36:46.000Z</time>
      </trkpt>
      <trkpt lat="47.52399" lon="6.68836">
        <ele>370</ele>
        <time>2015-05-25T09:36:47.000Z</time>
      </trkpt>
      <trkpt lat="47.524" lon="6.6884">
        <ele>370</ele>
        <time>2015-05-25T09:36:48.000Z</time>
      </trkpt>
      <trkpt lat="47.52401" lon="6.68844">
        <ele>370</ele>
        <time>2015-05-25T09:36:49.000Z</time>
      </trkpt>
      <trkpt lat="47.52402" lon="6.68848">
        <ele>370</ele>
        <time>2015-05-25T09:36:50.000Z</time>
      </trkpt>
      <trkpt lat="47.52404" lon="6.68852">
        <ele>370</ele>
        <time>2015-05-25T09:36:51.000Z</time>
      </trkpt>
      <trkpt lat="47.52407" lon="6.68858">
        <ele>369</ele>
        <time>2015-05-25T09:36:51.999Z</time>
      </trkpt>
      <trkpt lat="47.52409" lon="6.68863">
        <ele>369</ele>
        <time>2015-05-25T09:36:53.000Z</time>
      </trkpt>
      <trkpt lat="47.52414" lon="6.68875">
        <ele>369</ele>
        <time>2015-05-25T09:36:54.000Z</time>
      </trkpt>
      <trkpt lat="47.5242" lon="6.68882">
        <ele>368</ele>
        <time>2015-05-25T09:36:55.000Z</time>
      </trkpt>
      <trkpt lat="47.52423" lon="6.68889">
        <ele>368</ele>
        <time>2015-05-25T09:36:56.000Z</time>
      </trkpt>
      <trkpt lat="47.52427" lon="6.68896">
        <ele>368</ele>
        <time>2015-05-25T09:36:57.000Z</time>
      </trkpt>
      <trkpt lat="47.52432" lon="6.68904">
        <ele>368</ele>
        <time>2015-05-25T09:36:58.000Z</time>
      </trkpt>
      <trkpt lat="47.52435" lon="6.68911">
        <ele>368</ele>
        <time>2015-05-25T09:36:59.000Z</time>
      </trkpt>
      <trkpt lat="47.52442" lon="6.68919">
        <ele>366</ele>
        <time>2015-05-25T09:37:00.000Z</time>
      </trkpt>
      <trkpt lat="47.52448" lon="6.68927">
        <ele>366</ele>
        <time>2015-05-25T09:37:01.000Z</time>
      </trkpt>
      <trkpt lat="47.52453" lon="6.68935">
        <ele>366</ele>
        <time>2015-05-25T09:37:02.000Z</time>
      </trkpt>
      <trkpt lat="47.52458" lon="6.68945">
        <ele>366</ele>
        <time>2015-05-25T09:37:03.000Z</time>
      </trkpt>
      <trkpt lat="47.52465" lon="6.68955">
        <ele>365</ele>
        <time>2015-05-25T09:37:04.000Z</time>
      </trkpt>
      <trkpt lat="47.52472" lon="6.68965">
        <ele>365</ele>
        <time>2015-05-25T09:37:05.000Z</time>
      </trkpt>
      <trkpt lat="47.52479" lon="6.68973">
        <ele>365</ele>
        <time>2015-05-25T09:37:06.000Z</time>
      </trkpt>
      <trkpt lat="47.52486" lon="6.68982">
        <ele>364</ele>
        <time>2015-05-25T09:37:07.000Z</time>
      </trkpt>
      <trkpt lat="47.52493" lon="6.68989">
        <ele>364</ele>
        <time>2015-05-25T09:37:08.000Z</time>
      </trkpt>
      <trkpt lat="47.52499" lon="6.68997">
        <ele>363</ele>
        <time>2015-05-25T09:37:09.000Z</time>
      </trkpt>
      <trkpt lat="47.52506" lon="6.69004">
        <ele>362</ele>
        <time>2015-05-25T09:37:10.000Z</time>
      </trkpt>
      <trkpt lat="47.52513" lon="6.69012">
        <ele>362</ele>
        <time>2015-05-25T09:37:11.000Z</time>
      </trkpt>
      <trkpt lat="47.52519" lon="6.6902">
        <ele>362</ele>
        <time>2015-05-25T09:37:12.001Z</time>
      </trkpt>
      <trkpt lat="47.52525" lon="6.69028">
        <ele>361</ele>
        <time>2015-05-25T09:37:13.000Z</time>
      </trkpt>
      <trkpt lat="47.52532" lon="6.69037">
        <ele>361</ele>
        <time>2015-05-25T09:37:14.000Z</time>
      </trkpt>
      <trkpt lat="47.52539" lon="6.69046">
        <ele>361</ele>
        <time>2015-05-25T09:37:15.000Z</time>
      </trkpt>
      <trkpt lat="47.52545" lon="6.69054">
        <ele>361</ele>
        <time>2015-05-25T09:37:16.000Z</time>
      </trkpt>
      <trkpt lat="47.52551" lon="6.69062">
        <ele>361</ele>
        <time>2015-05-25T09:37:17.000Z</time>
      </trkpt>
      <trkpt lat="47.52556" lon="6.69072">
        <ele>360</ele>
        <time>2015-05-25T09:37:18.000Z</time>
      </trkpt>
      <trkpt lat="47.52562" lon="6.69083">
        <ele>360</ele>
        <time>2015-05-25T09:37:19.000Z</time>
      </trkpt>
      <trkpt lat="47.52566" lon="6.69095">
        <ele>359</ele>
        <time>2015-05-25T09:37:20.000Z</time>
      </trkpt>
      <trkpt lat="47.52571" lon="6.69106">
        <ele>358</ele>
        <time>2015-05-25T09:37:21.000Z</time>
      </trkpt>
      <trkpt lat="47.52575" lon="6.69117">
        <ele>358</ele>
        <time>2015-05-25T09:37:22.000Z</time>
      </trkpt>
      <trkpt lat="47.52578" lon="6.69129">
        <ele>358</ele>
        <time>2015-05-25T09:37:23.000Z</time>
      </trkpt>
      <trkpt lat="47.52581" lon="6.69141">
        <ele>357</ele>
        <time>2015-05-25T09:37:24.000Z</time>
      </trkpt>
      <trkpt lat="47.52583" lon="6.69153">
        <ele>357</ele>
        <time>2015-05-25T09:37:25.000Z</time>
      </trkpt>
      <trkpt lat="47.52585" lon="6.69166">
        <ele>356</ele>
        <time>2015-05-25T09:37:26.000Z</time>
      </trkpt>
      <trkpt lat="47.52587" lon="6.69178">
        <ele>356</ele>
        <time>2015-05-25T09:37:27.000Z</time>
      </trkpt>
      <trkpt lat="47.52588" lon="6.69191">
        <ele>356</ele>
        <time>2015-05-25T09:37:28.000Z</time>
      </trkpt>
      <trkpt lat="47.5259" lon="6.69203">
        <ele>355</ele>
        <time>2015-05-25T09:37:29.000Z</time>
      </trkpt>
      <trkpt lat="47.52591" lon="6.69216">
        <ele>355</ele>
        <time>2015-05-25T09:37:30.000Z</time>
      </trkpt>
      <trkpt lat="47.52591" lon="6.69227">
        <ele>355</ele>
        <time>2015-05-25T09:37:31.000Z</time>
      </trkpt>
      <trkpt lat="47.52591" lon="6.69239">
        <ele>354</ele>
        <time>2015-05-25T09:37:32.001Z</time>
      </trkpt>
      <trkpt lat="47.52593" lon="6.6925">
        <ele>354</ele>
        <time>2015-05-25T09:37:33.000Z</time>
      </trkpt>
      <trkpt lat="47.52593" lon="6.69261">
        <ele>353</ele>
        <time>2015-05-25T09:37:34.000Z</time>
      </trkpt>
      <trkpt lat="47.52593" lon="6.69274">
        <ele>353</ele>
        <time>2015-05-25T09:37:35.000Z</time>
      </trkpt>
      <trkpt lat="47.52594" lon="6.69285">
        <ele>352</ele>
        <time>2015-05-25T09:37:36.000Z</time>
      </trkpt>
      <trkpt lat="47.52594" lon="6.69296">
        <ele>352</ele>
        <time>2015-05-25T09:37:37.000Z</time>
      </trkpt>
      <trkpt lat="47.52595" lon="6.69306">
        <ele>352</ele>
        <time>2015-05-25T09:37:38.000Z</time>
      </trkpt>
      <trkpt lat="47.52595" lon="6.69319">
        <ele>352</ele>
        <time>2015-05-25T09:37:39.000Z</time>
      </trkpt>
      <trkpt lat="47.52594" lon="6.69332">
        <ele>351</ele>
        <time>2015-05-25T09:37:40.000Z</time>
      </trkpt>
      <trkpt lat="47.52594" lon="6.69345">
        <ele>350</ele>
        <time>2015-05-25T09:37:41.000Z</time>
      </trkpt>
      <trkpt lat="47.52592" lon="6.69358">
        <ele>350</ele>
        <time>2015-05-25T09:37:42.000Z</time>
      </trkpt>
      <trkpt lat="47.52592" lon="6.69369">
        <ele>350</ele>
        <time>2015-05-25T09:37:43.000Z</time>
      </trkpt>
      <trkpt lat="47.52592" lon="6.69383">
        <ele>349</ele>
        <time>2015-05-25T09:37:44.000Z</time>
      </trkpt>
      <trkpt lat="47.52592" lon="6.69393">
        <ele>349</ele>
        <time>2015-05-25T09:37:45.000Z</time>
      </trkpt>
      <trkpt lat="47.52594" lon="6.69406">
        <ele>349</ele>
        <time>2015-05-25T09:37:46.000Z</time>
      </trkpt>
      <trkpt lat="47.52594" lon="6.69417">
        <ele>348</ele>
        <time>2015-05-25T09:37:47.000Z</time>
      </trkpt>
      <trkpt lat="47.52594" lon="6.69427">
        <ele>348</ele>
        <time>2015-05-25T09:37:48.000Z</time>
      </trkpt>
      <trkpt lat="47.52595" lon="6.69437">
        <ele>347</ele>
        <time>2015-05-25T09:37:48.999Z</time>
      </trkpt>
      <trkpt lat="47.52596" lon="6.69445">
        <ele>347</ele>
        <time>2015-05-25T09:37:49.999Z</time>
      </trkpt>
      <trkpt lat="47.52597" lon="6.69451">
        <ele>347</ele>
        <time>2015-05-25T09:37:51.000Z</time>
      </trkpt>
      <trkpt lat="47.52596" lon="6.69458">
        <ele>347</ele>
        <time>2015-05-25T09:37:52.000Z</time>
      </trkpt>
      <trkpt lat="47.52598" lon="6.69464">
        <ele>347</ele>
        <time>2015-05-25T09:37:53.000Z</time>
      </trkpt>
      <trkpt lat="47.52599" lon="6.6947">
        <ele>347</ele>
        <time>2015-05-25T09:37:54.000Z</time>
      </trkpt>
      <trkpt lat="47.52602" lon="6.69474">
        <ele>347</ele>
        <time>2015-05-25T09:37:55.000Z</time>
      </trkpt>
      <trkpt lat="47.52606" lon="6.69476">
        <ele>347</ele>
        <time>2015-05-25T09:37:56.000Z</time>
      </trkpt>
      <trkpt lat="47.52608" lon="6.69477">
        <ele>347</ele>
        <time>2015-05-25T09:37:57.000Z</time>
      </trkpt>
      <trkpt lat="47.52612" lon="6.69479">
        <ele>347</ele>
        <time>2015-05-25T09:37:58.000Z</time>
      </trkpt>
      <trkpt lat="47.52615" lon="6.6948">
        <ele>347</ele>
        <time>2015-05-25T09:37:59.000Z</time>
      </trkpt>
      <trkpt lat="47.52619" lon="6.69482">
        <ele>347</ele>
        <time>2015-05-25T09:38:00.000Z</time>
      </trkpt>
      <trkpt lat="47.52623" lon="6.69484">
        <ele>347</ele>
        <time>2015-05-25T09:38:01.000Z</time>
      </trkpt>
      <trkpt lat="47.52626" lon="6.69485">
        <ele>347</ele>
        <time>2015-05-25T09:38:02.000Z</time>
      </trkpt>
      <trkpt lat="47.52625" lon="6.69497">
        <ele>347</ele>
        <time>2015-05-25T09:38:03.000Z</time>
      </trkpt>
      <trkpt lat="47.52623" lon="6.69505">
        <ele>346</ele>
        <time>2015-05-25T09:38:04.000Z</time>
      </trkpt>
      <trkpt lat="47.52622" lon="6.69511">
        <ele>346</ele>
        <time>2015-05-25T09:38:05.000Z</time>
      </trkpt>
      <trkpt lat="47.5262" lon="6.69516">
        <ele>346</ele>
        <time>2015-05-25T09:38:06.000Z</time>
      </trkpt>
      <trkpt lat="47.52617" lon="6.69525">
        <ele>345</ele>
        <time>2015-05-25T09:38:07.000Z</time>
      </trkpt>
      <trkpt lat="47.52616" lon="6.69534">
        <ele>345</ele>
        <time>2015-05-25T09:38:08.000Z</time>
      </trkpt>
      <trkpt lat="47.52616" lon="6.69543">
        <ele>345</ele>
        <time>2015-05-25T09:38:09.000Z</time>
      </trkpt>
      <trkpt lat="47.52617" lon="6.69552">
        <ele>345</ele>
        <time>2015-05-25T09:38:10.000Z</time>
      </trkpt>
      <trkpt lat="47.52617" lon="6.6956">
        <ele>345</ele>
        <time>2015-05-25T09:38:11.000Z</time>
      </trkpt>
      <trkpt lat="47.52618" lon="6.69567">
        <ele>345</ele>
        <time>2015-05-25T09:38:12.000Z</time>
      </trkpt>
      <trkpt lat="47.52618" lon="6.69576">
        <ele>345</ele>
        <time>2015-05-25T09:38:13.000Z</time>
      </trkpt>
      <trkpt lat="47.52618" lon="6.69585">
        <ele>345</ele>
        <time>2015-05-25T09:38:14.000Z</time>
      </trkpt>
      <trkpt lat="47.52619" lon="6.69592">
        <ele>345</ele>
        <time>2015-05-25T09:38:15.000Z</time>
      </trkpt>
      <trkpt lat="47.52619" lon="6.696">
        <ele>345</ele>
        <time>2015-05-25T09:38:16.000Z</time>
      </trkpt>
      <trkpt lat="47.52618" lon="6.69608">
        <ele>346</ele>
        <time>2015-05-25T09:38:17.000Z</time>
      </trkpt>
      <trkpt lat="47.52617" lon="6.69615">
        <ele>346</ele>
        <time>2015-05-25T09:38:18.000Z</time>
      </trkpt>
      <trkpt lat="47.52617" lon="6.69623">
        <ele>346</ele>
        <time>2015-05-25T09:38:19.000Z</time>
      </trkpt>
      <trkpt lat="47.52617" lon="6.6963">
        <ele>346</ele>
        <time>2015-05-25T09:38:20.000Z</time>
      </trkpt>
      <trkpt lat="47.52618" lon="6.69637">
        <ele>346</ele>
        <time>2015-05-25T09:38:21.000Z</time>
      </trkpt>
      <trkpt lat="47.52619" lon="6.69644">
        <ele>346</ele>
        <time>2015-05-25T09:38:22.000Z</time>
      </trkpt>
      <trkpt lat="47.52619" lon="6.69651">
        <ele>346</ele>
        <time>2015-05-25T09:38:23.000Z</time>
      </trkpt>
      <trkpt lat="47.52622" lon="6.69658">
        <ele>346</ele>
        <time>2015-05-25T09:38:24.000Z</time>
      </trkpt>
      <trkpt lat="47.52622" lon="6.69665">
        <ele>346</ele>
        <time>2015-05-25T09:38:25.000Z</time>
      </trkpt>
      <trkpt lat="47.52621" lon="6.69671">
        <ele>349</ele>
        <time>2015-05-25T09:38:26.000Z</time>
      </trkpt>
      <trkpt lat="47.5262" lon="6.69679">
        <ele>349</ele>
        <time>2015-05-25T09:38:27.000Z</time>
      </trkpt>
      <trkpt lat="47.52619" lon="6.69686">
        <ele>349</ele>
        <time>2015-05-25T09:38:28.000Z</time>
      </trkpt>
      <trkpt lat="47.52617" lon="6.69692">
        <ele>349</ele>
        <time>2015-05-25T09:38:29.000Z</time>
      </trkpt>
      <trkpt lat="47.52618" lon="6.69701">
        <ele>349</ele>
        <time>2015-05-25T09:38:30.000Z</time>
      </trkpt>
      <trkpt lat="47.52617" lon="6.69707">
        <ele>350</ele>
        <time>2015-05-25T09:38:31.000Z</time>
      </trkpt>
      <trkpt lat="47.52619" lon="6.69714">
        <ele>350</ele>
        <time>2015-05-25T09:38:32.000Z</time>
      </trkpt>
      <trkpt lat="47.5262" lon="6.6972">
        <ele>350</ele>
        <time>2015-05-25T09:38:33.000Z</time>
      </trkpt>
      <trkpt lat="47.52622" lon="6.69725">
        <ele>350</ele>
        <time>2015-05-25T09:38:34.000Z</time>
      </trkpt>
      <trkpt lat="47.52624" lon="6.69731">
        <ele>350</ele>
        <time>2015-05-25T09:38:35.000Z</time>
      </trkpt>
      <trkpt lat="47.5263" lon="6.69733">
        <ele>350</ele>
        <time>2015-05-25T09:38:36.000Z</time>
      </trkpt>
      <trkpt lat="47.52634" lon="6.69737">
        <ele>351</ele>
        <time>2015-05-25T09:38:37.000Z</time>
      </trkpt>
      <trkpt lat="47.52638" lon="6.69741">
        <ele>351</ele>
        <time>2015-05-25T09:38:38.000Z</time>
      </trkpt>
      <trkpt lat="47.52644" lon="6.69742">
        <ele>351</ele>
        <time>2015-05-25T09:38:39.000Z</time>
      </trkpt>
      <trkpt lat="47.52648" lon="6.69744">
        <ele>351</ele>
        <time>2015-05-25T09:38:40.000Z</time>
      </trkpt>
      <trkpt lat="47.52653" lon="6.69746">
        <ele>351</ele>
        <time>2015-05-25T09:38:41.000Z</time>
      </trkpt>
      <trkpt lat="47.52657" lon="6.69748">
        <ele>351</ele>
        <time>2015-05-25T09:38:42.000Z</time>
      </trkpt>
      <trkpt lat="47.52663" lon="6.69748">
        <ele>352</ele>
        <time>2015-05-25T09:38:43.000Z</time>
      </trkpt>
      <trkpt lat="47.52669" lon="6.69753">
        <ele>352</ele>
        <time>2015-05-25T09:38:44.000Z</time>
      </trkpt>
      <trkpt lat="47.52675" lon="6.69756">
        <ele>351</ele>
        <time>2015-05-25T09:38:45.000Z</time>
      </trkpt>
      <trkpt lat="47.52679" lon="6.69758">
        <ele>350</ele>
        <time>2015-05-25T09:38:46.000Z</time>
      </trkpt>
      <trkpt lat="47.52684" lon="6.69762">
        <ele>350</ele>
        <time>2015-05-25T09:38:47.000Z</time>
      </trkpt>
      <trkpt lat="47.5269" lon="6.69767">
        <ele>350</ele>
        <time>2015-05-25T09:38:48.000Z</time>
      </trkpt>
      <trkpt lat="47.52694" lon="6.69772">
        <ele>349</ele>
        <time>2015-05-25T09:38:49.000Z</time>
      </trkpt>
      <trkpt lat="47.52698" lon="6.69778">
        <ele>349</ele>
        <time>2015-05-25T09:38:50.000Z</time>
      </trkpt>
      <trkpt lat="47.527" lon="6.69785">
        <ele>349</ele>
        <time>2015-05-25T09:38:51.000Z</time>
      </trkpt>
      <trkpt lat="47.52702" lon="6.69794">
        <ele>349</ele>
        <time>2015-05-25T09:38:52.000Z</time>
      </trkpt>
      <trkpt lat="47.52704" lon="6.69803">
        <ele>348</ele>
        <time>2015-05-25T09:38:53.000Z</time>
      </trkpt>
      <trkpt lat="47.52707" lon="6.69812">
        <ele>348</ele>
        <time>2015-05-25T09:38:54.000Z</time>
      </trkpt>
      <trkpt lat="47.5271" lon="6.69821">
        <ele>348</ele>
        <time>2015-05-25T09:38:55.000Z</time>
      </trkpt>
      <trkpt lat="47.52712" lon="6.69832">
        <ele>348</ele>
        <time>2015-05-25T09:38:56.000Z</time>
      </trkpt>
      <trkpt lat="47.52715" lon="6.69841">
        <ele>346</ele>
        <time>2015-05-25T09:38:57.000Z</time>
      </trkpt>
      <trkpt lat="47.52717" lon="6.69849">
        <ele>346</ele>
        <time>2015-05-25T09:38:58.000Z</time>
      </trkpt>
      <trkpt lat="47.5272" lon="6.69858">
        <ele>346</ele>
        <time>2015-05-25T09:38:59.000Z</time>
      </trkpt>
      <trkpt lat="47.52721" lon="6.69865">
        <ele>346</ele>
        <time>2015-05-25T09:39:00.000Z</time>
      </trkpt>
      <trkpt lat="47.52723" lon="6.69872">
        <ele>345</ele>
        <time>2015-05-25T09:39:01.000Z</time>
      </trkpt>
      <trkpt lat="47.52724" lon="6.69881">
        <ele>345</ele>
        <time>2015-05-25T09:39:02.000Z</time>
      </trkpt>
      <trkpt lat="47.52726" lon="6.69892">
        <ele>345</ele>
        <time>2015-05-25T09:39:03.000Z</time>
      </trkpt>
      <trkpt lat="47.52727" lon="6.69904">
        <ele>345</ele>
        <time>2015-05-25T09:39:04.000Z</time>
      </trkpt>
      <trkpt lat="47.52728" lon="6.69914">
        <ele>344</ele>
        <time>2015-05-25T09:39:05.000Z</time>
      </trkpt>
      <trkpt lat="47.5273" lon="6.69927">
        <ele>344</ele>
        <time>2015-05-25T09:39:06.000Z</time>
      </trkpt>
      <trkpt lat="47.52731" lon="6.69935">
        <ele>344</ele>
        <time>2015-05-25T09:39:07.000Z</time>
      </trkpt>
      <trkpt lat="47.52733" lon="6.69944">
        <ele>344</ele>
        <time>2015-05-25T09:39:08.000Z</time>
      </trkpt>
      <trkpt lat="47.52735" lon="6.69951">
        <ele>344</ele>
        <time>2015-05-25T09:39:09.000Z</time>
      </trkpt>
      <trkpt lat="47.52735" lon="6.69961">
        <ele>344</ele>
        <time>2015-05-25T09:39:10.000Z</time>
      </trkpt>
      <trkpt lat="47.52737" lon="6.69969">
        <ele>344</ele>
        <time>2015-05-25T09:39:11.000Z</time>
      </trkpt>
      <trkpt lat="47.52739" lon="6.69981">
        <ele>344</ele>
        <time>2015-05-25T09:39:12.000Z</time>
      </trkpt>
      <trkpt lat="47.5274" lon="6.69991">
        <ele>343</ele>
        <time>2015-05-25T09:39:13.000Z</time>
      </trkpt>
      <trkpt lat="47.52742" lon="6.70001">
        <ele>343</ele>
        <time>2015-05-25T09:39:14.000Z</time>
      </trkpt>
      <trkpt lat="47.52744" lon="6.70012">
        <ele>343</ele>
        <time>2015-05-25T09:39:15.000Z</time>
      </trkpt>
      <trkpt lat="47.52746" lon="6.70021">
        <ele>343</ele>
        <time>2015-05-25T09:39:16.000Z</time>
      </trkpt>
      <trkpt lat="47.52748" lon="6.70031">
        <ele>344</ele>
        <time>2015-05-25T09:39:17.000Z</time>
      </trkpt>
      <trkpt lat="47.5275" lon="6.7004">
        <ele>346</ele>
        <time>2015-05-25T09:39:18.000Z</time>
      </trkpt>
      <trkpt lat="47.52752" lon="6.70049">
        <ele>347</ele>
        <time>2015-05-25T09:39:19.000Z</time>
      </trkpt>
      <trkpt lat="47.52755" lon="6.70057">
        <ele>347</ele>
        <time>2015-05-25T09:39:20.000Z</time>
      </trkpt>
      <trkpt lat="47.52757" lon="6.70066">
        <ele>346</ele>
        <time>2015-05-25T09:39:21.000Z</time>
      </trkpt>
      <trkpt lat="47.52758" lon="6.70074">
        <ele>346</ele>
        <time>2015-05-25T09:39:22.000Z</time>
      </trkpt>
      <trkpt lat="47.5276" lon="6.70082">
        <ele>346</ele>
        <time>2015-05-25T09:39:23.000Z</time>
      </trkpt>
      <trkpt lat="47.52762" lon="6.70092">
        <ele>348</ele>
        <time>2015-05-25T09:39:24.000Z</time>
      </trkpt>
      <trkpt lat="47.52763" lon="6.70102">
        <ele>348</ele>
        <time>2015-05-25T09:39:25.000Z</time>
      </trkpt>
      <trkpt lat="47.52765" lon="6.7011">
        <ele>349</ele>
        <time>2015-05-25T09:39:26.000Z</time>
      </trkpt>
      <trkpt lat="47.52766" lon="6.7012">
        <ele>349</ele>
        <time>2015-05-25T09:39:27.000Z</time>
      </trkpt>
      <trkpt lat="47.52767" lon="6.7013">
        <ele>349</ele>
        <time>2015-05-25T09:39:28.000Z</time>
      </trkpt>
      <trkpt lat="47.52767" lon="6.70137">
        <ele>349</ele>
        <time>2015-05-25T09:39:29.000Z</time>
      </trkpt>
      <trkpt lat="47.52768" lon="6.70146">
        <ele>349</ele>
        <time>2015-05-25T09:39:30.000Z</time>
      </trkpt>
      <trkpt lat="47.52769" lon="6.70155">
        <ele>349</ele>
        <time>2015-05-25T09:39:30.999Z</time>
      </trkpt>
      <trkpt lat="47.52773" lon="6.70162">
        <ele>349</ele>
        <time>2015-05-25T09:39:32.000Z</time>
      </trkpt>
      <trkpt lat="47.52775" lon="6.70172">
        <ele>350</ele>
        <time>2015-05-25T09:39:33.000Z</time>
      </trkpt>
      <trkpt lat="47.52778" lon="6.70181">
        <ele>350</ele>
        <time>2015-05-25T09:39:34.000Z</time>
      </trkpt>
      <trkpt lat="47.5278" lon="6.70189">
        <ele>350</ele>
        <time>2015-05-25T09:39:34.999Z</time>
      </trkpt>
      <trkpt lat="47.52787" lon="6.70196">
        <ele>351</ele>
        <time>2015-05-25T09:39:36.000Z</time>
      </trkpt>
      <trkpt lat="47.52792" lon="6.70203">
        <ele>351</ele>
        <time>2015-05-25T09:39:37.000Z</time>
      </trkpt>
      <trkpt lat="47.52792" lon="6.70214">
        <ele>351</ele>
        <time>2015-05-25T09:39:38.000Z</time>
      </trkpt>
      <trkpt lat="47.52793" lon="6.70223">
        <ele>351</ele>
        <time>2015-05-25T09:39:39.000Z</time>
      </trkpt>
      <trkpt lat="47.52794" lon="6.70233">
        <ele>351</ele>
        <time>2015-05-25T09:39:40.000Z</time>
      </trkpt>
      <trkpt lat="47.52795" lon="6.70241">
        <ele>352</ele>
        <time>2015-05-25T09:39:41.001Z</time>
      </trkpt>
      <trkpt lat="47.52797" lon="6.70253">
        <ele>350</ele>
        <time>2015-05-25T09:39:42.000Z</time>
      </trkpt>
      <trkpt lat="47.52798" lon="6.70264">
        <ele>350</ele>
        <time>2015-05-25T09:39:43.000Z</time>
      </trkpt>
      <trkpt lat="47.52799" lon="6.7027">
        <ele>350</ele>
        <time>2015-05-25T09:39:44.000Z</time>
      </trkpt>
      <trkpt lat="47.52801" lon="6.7028">
        <ele>350</ele>
        <time>2015-05-25T09:39:45.000Z</time>
      </trkpt>
      <trkpt lat="47.52803" lon="6.70287">
        <ele>350</ele>
        <time>2015-05-25T09:39:46.000Z</time>
      </trkpt>
      <trkpt lat="47.52803" lon="6.70295">
        <ele>350</ele>
        <time>2015-05-25T09:39:47.000Z</time>
      </trkpt>
      <trkpt lat="47.52805" lon="6.70304">
        <ele>349</ele>
        <time>2015-05-25T09:39:47.999Z</time>
      </trkpt>
      <trkpt lat="47.52808" lon="6.70312">
        <ele>349</ele>
        <time>2015-05-25T09:39:49.000Z</time>
      </trkpt>
      <trkpt lat="47.52808" lon="6.70323">
        <ele>349</ele>
        <time>2015-05-25T09:39:50.000Z</time>
      </trkpt>
      <trkpt lat="47.52806" lon="6.70331">
        <ele>349</ele>
        <time>2015-05-25T09:39:51.000Z</time>
      </trkpt>
      <trkpt lat="47.52807" lon="6.7034">
        <ele>347</ele>
        <time>2015-05-25T09:39:52.000Z</time>
      </trkpt>
      <trkpt lat="47.52807" lon="6.70349">
        <ele>347</ele>
        <time>2015-05-25T09:39:53.000Z</time>
      </trkpt>
      <trkpt lat="47.52807" lon="6.70357">
        <ele>347</ele>
        <time>2015-05-25T09:39:54.000Z</time>
      </trkpt>
      <trkpt lat="47.52807" lon="6.70363">
        <ele>347</ele>
        <time>2015-05-25T09:39:55.000Z</time>
      </trkpt>
      <trkpt lat="47.52807" lon="6.70371">
        <ele>346</ele>
        <time>2015-05-25T09:39:56.000Z</time>
      </trkpt>
      <trkpt lat="47.5281" lon="6.70378">
        <ele>346</ele>
        <time>2015-05-25T09:39:57.000Z</time>
      </trkpt>
      <trkpt lat="47.52812" lon="6.70387">
        <ele>346</ele>
        <time>2015-05-25T09:39:58.000Z</time>
      </trkpt>
      <trkpt lat="47.52814" lon="6.70397">
        <ele>346</ele>
        <time>2015-05-25T09:39:59.000Z</time>
      </trkpt>
      <trkpt lat="47.52818" lon="6.70406">
        <ele>346</ele>
        <time>2015-05-25T09:40:00.000Z</time>
      </trkpt>
      <trkpt lat="47.5282" lon="6.70412">
        <ele>346</ele>
        <time>2015-05-25T09:40:01.000Z</time>
      </trkpt>
      <trkpt lat="47.52822" lon="6.70421">
        <ele>346</ele>
        <time>2015-05-25T09:40:02.000Z</time>
      </trkpt>
      <trkpt lat="47.52823" lon="6.70429">
        <ele>346</ele>
        <time>2015-05-25T09:40:03.000Z</time>
      </trkpt>
      <trkpt lat="47.52827" lon="6.70438">
        <ele>346</ele>
        <time>2015-05-25T09:40:04.000Z</time>
      </trkpt>
      <trkpt lat="47.52831" lon="6.70448">
        <ele>346</ele>
        <time>2015-05-25T09:40:05.000Z</time>
      </trkpt>
      <trkpt lat="47.52833" lon="6.70456">
        <ele>346</ele>
        <time>2015-05-25T09:40:06.000Z</time>
      </trkpt>
      <trkpt lat="47.52836" lon="6.70462">
        <ele>351</ele>
        <time>2015-05-25T09:40:07.001Z</time>
      </trkpt>
      <trkpt lat="47.52837" lon="6.70472">
        <ele>351</ele>
        <time>2015-05-25T09:40:08.000Z</time>
      </trkpt>
      <trkpt lat="47.52838" lon="6.70479">
        <ele>351</ele>
        <time>2015-05-25T09:40:09.000Z</time>
      </trkpt>
      <trkpt lat="47.5284" lon="6.70484">
        <ele>351</ele>
        <time>2015-05-25T09:40:10.000Z</time>
      </trkpt>
      <trkpt lat="47.52842" lon="6.70492">
        <ele>350</ele>
        <time>2015-05-25T09:40:11.000Z</time>
      </trkpt>
      <trkpt lat="47.52843" lon="6.70499">
        <ele>350</ele>
        <time>2015-05-25T09:40:12.000Z</time>
      </trkpt>
      <trkpt lat="47.52844" lon="6.70504">
        <ele>352</ele>
        <time>2015-05-25T09:40:13.000Z</time>
      </trkpt>
      <trkpt lat="47.52844" lon="6.70511">
        <ele>353</ele>
        <time>2015-05-25T09:40:14.000Z</time>
      </trkpt>
      <trkpt lat="47.52844" lon="6.70518">
        <ele>353</ele>
        <time>2015-05-25T09:40:15.000Z</time>
      </trkpt>
      <trkpt lat="47.52847" lon="6.70524">
        <ele>354</ele>
        <time>2015-05-25T09:40:16.000Z</time>
      </trkpt>
      <trkpt lat="47.52846" lon="6.70529">
        <ele>354</ele>
        <time>2015-05-25T09:40:17.000Z</time>
      </trkpt>
      <trkpt lat="47.52846" lon="6.70534">
        <ele>354</ele>
        <time>2015-05-25T09:40:18.000Z</time>
      </trkpt>
      <trkpt lat="47.52846" lon="6.70538">
        <ele>355</ele>
        <time>2015-05-25T09:40:19.000Z</time>
      </trkpt>
      <trkpt lat="47.52846" lon="6.70544">
        <ele>355</ele>
        <time>2015-05-25T09:40:20.000Z</time>
      </trkpt>
      <trkpt lat="47.52846" lon="6.70551">
        <ele>355</ele>
        <time>2015-05-25T09:40:21.000Z</time>
      </trkpt>
      <trkpt lat="47.52844" lon="6.70556">
        <ele>354</ele>
        <time>2015-05-25T09:40:22.000Z</time>
      </trkpt>
      <trkpt lat="47.52842" lon="6.7056">
        <ele>354</ele>
        <time>2015-05-25T09:40:23.000Z</time>
      </trkpt>
      <trkpt lat="47.52838" lon="6.70563">
        <ele>354</ele>
        <time>2015-05-25T09:40:24.000Z</time>
      </trkpt>
      <trkpt lat="47.52826" lon="6.70557">
        <ele>349</ele>
        <time>2015-05-25T09:40:25.000Z</time>
      </trkpt>
      <trkpt lat="47.5282" lon="6.70556">
        <ele>349</ele>
        <time>2015-05-25T09:40:26.000Z</time>
      </trkpt>
      <trkpt lat="47.52815" lon="6.70554">
        <ele>349</ele>
        <time>2015-05-25T09:40:27.000Z</time>
      </trkpt>
      <trkpt lat="47.5281" lon="6.70555">
        <ele>348</ele>
        <time>2015-05-25T09:40:28.000Z</time>
      </trkpt>
      <trkpt lat="47.52806" lon="6.70554">
        <ele>348</ele>
        <time>2015-05-25T09:40:30.000Z</time>
      </trkpt>
      <trkpt lat="47.52804" lon="6.70555">
        <ele>348</ele>
        <time>2015-05-25T09:40:31.000Z</time>
      </trkpt>
      <trkpt lat="47.52804" lon="6.70556">
        <ele>348</ele>
        <time>2015-05-25T09:40:32.000Z</time>
      </trkpt>
      <trkpt lat="47.52807" lon="6.70562">
        <ele>349</ele>
        <time>2015-05-25T09:40:32.999Z</time>
      </trkpt>
      <trkpt lat="47.52806" lon="6.7056">
        <ele>348</ele>
        <time>2015-05-25T09:40:36.000Z</time>
      </trkpt>
      <trkpt lat="47.52805" lon="6.70556">
        <ele>348</ele>
        <time>2015-05-25T09:40:37.000Z</time>
      </trkpt>
      <trkpt lat="47.52803" lon="6.70551">
        <ele>348</ele>
        <time>2015-05-25T09:40:39.000Z</time>
      </trkpt>
      <trkpt lat="47.52801" lon="6.70549">
        <ele>348</ele>
        <time>2015-05-25T09:40:40.001Z</time>
      </trkpt>
      <trkpt lat="47.52798" lon="6.70548">
        <ele>348</ele>
        <time>2015-05-25T09:40:41.000Z</time>
      </trkpt>
      <trkpt lat="47.52795" lon="6.70548">
        <ele>348</ele>
        <time>2015-05-25T09:40:42.000Z</time>
      </trkpt>
      <trkpt lat="47.52791" lon="6.70548">
        <ele>348</ele>
        <time>2015-05-25T09:40:44.000Z</time>
      </trkpt>
      <trkpt lat="47.52789" lon="6.7055">
        <ele>348</ele>
        <time>2015-05-25T09:40:45.000Z</time>
      </trkpt>
      <trkpt lat="47.52787" lon="6.70553">
        <ele>348</ele>
        <time>2015-05-25T09:40:46.000Z</time>
      </trkpt>
      <trkpt lat="47.52786" lon="6.70557">
        <ele>348</ele>
        <time>2015-05-25T09:40:47.000Z</time>
      </trkpt>
      <trkpt lat="47.52784" lon="6.70561">
        <ele>348</ele>
        <time>2015-05-25T09:40:48.000Z</time>
      </trkpt>
      <trkpt lat="47.52782" lon="6.70564">
        <ele>348</ele>
        <time>2015-05-25T09:40:49.000Z</time>
      </trkpt>
      <trkpt lat="47.52781" lon="6.70571">
        <ele>348</ele>
        <time>2015-05-25T09:40:50.000Z</time>
      </trkpt>
      <trkpt lat="47.5278" lon="6.70576">
        <ele>348</ele>
        <time>2015-05-25T09:40:51.000Z</time>
      </trkpt>
      <trkpt lat="47.52779" lon="6.70581">
        <ele>348</ele>
        <time>2015-05-25T09:40:52.000Z</time>
      </trkpt>
      <trkpt lat="47.52777" lon="6.70584">
        <ele>350</ele>
        <time>2015-05-25T09:40:52.999Z</time>
      </trkpt>
      <trkpt lat="47.52776" lon="6.70588">
        <ele>350</ele>
        <time>2015-05-25T09:40:54.000Z</time>
      </trkpt>
      <trkpt lat="47.52772" lon="6.70591">
        <ele>350</ele>
        <time>2015-05-25T09:40:56.000Z</time>
      </trkpt>
      <trkpt lat="47.5277" lon="6.70589">
        <ele>350</ele>
        <time>2015-05-25T09:40:57.000Z</time>
      </trkpt>
      <trkpt lat="47.52767" lon="6.70588">
        <ele>350</ele>
        <time>2015-05-25T09:40:58.000Z</time>
      </trkpt>
      <trkpt lat="47.52764" lon="6.70588">
        <ele>349</ele>
        <time>2015-05-25T09:40:59.000Z</time>
      </trkpt>
      <trkpt lat="47.5276" lon="6.70588">
        <ele>349</ele>
        <time>2015-05-25T09:41:01.000Z</time>
      </trkpt>
      <trkpt lat="47.52759" lon="6.70588">
        <ele>349</ele>
        <time>2015-05-25T09:41:02.000Z</time>
      </trkpt>
      <trkpt lat="47.52757" lon="6.7059">
        <ele>349</ele>
        <time>2015-05-25T09:41:03.000Z</time>
      </trkpt>
      <trkpt lat="47.52755" lon="6.70593">
        <ele>349</ele>
        <time>2015-05-25T09:41:04.000Z</time>
      </trkpt>
      <trkpt lat="47.52753" lon="6.70597">
        <ele>349</ele>
        <time>2015-05-25T09:41:05.000Z</time>
      </trkpt>
      <trkpt lat="47.52752" lon="6.70603">
        <ele>350</ele>
        <time>2015-05-25T09:41:06.000Z</time>
      </trkpt>
      <trkpt lat="47.52752" lon="6.70609">
        <ele>350</ele>
        <time>2015-05-25T09:41:07.000Z</time>
      </trkpt>
      <trkpt lat="47.52752" lon="6.70615">
        <ele>350</ele>
        <time>2015-05-25T09:41:08.000Z</time>
      </trkpt>
      <trkpt lat="47.52751" lon="6.70621">
        <ele>351</ele>
        <time>2015-05-25T09:41:09.000Z</time>
      </trkpt>
      <trkpt lat="47.52751" lon="6.70627">
        <ele>351</ele>
        <time>2015-05-25T09:41:10.000Z</time>
      </trkpt>
      <trkpt lat="47.5275" lon="6.70633">
        <ele>351</ele>
        <time>2015-05-25T09:41:11.000Z</time>
      </trkpt>
      <trkpt lat="47.52749" lon="6.70639">
        <ele>357</ele>
        <time>2015-05-25T09:41:12.000Z</time>
      </trkpt>
      <trkpt lat="47.52749" lon="6.70645">
        <ele>357</ele>
        <time>2015-05-25T09:41:13.000Z</time>
      </trkpt>
      <trkpt lat="47.52749" lon="6.70652">
        <ele>357</ele>
        <time>2015-05-25T09:41:14.000Z</time>
      </trkpt>
      <trkpt lat="47.52748" lon="6.70659">
        <ele>356</ele>
        <time>2015-05-25T09:41:15.000Z</time>
      </trkpt>
      <trkpt lat="47.52748" lon="6.70666">
        <ele>355</ele>
        <time>2015-05-25T09:41:16.000Z</time>
      </trkpt>
      <trkpt lat="47.52747" lon="6.70673">
        <ele>357</ele>
        <time>2015-05-25T09:41:17.000Z</time>
      </trkpt>
      <trkpt lat="47.52746" lon="6.70681">
        <ele>359</ele>
        <time>2015-05-25T09:41:18.000Z</time>
      </trkpt>
      <trkpt lat="47.52746" lon="6.70689">
        <ele>360</ele>
        <time>2015-05-25T09:41:19.000Z</time>
      </trkpt>
      <trkpt lat="47.52745" lon="6.70696">
        <ele>361</ele>
        <time>2015-05-25T09:41:20.000Z</time>
      </trkpt>
      <trkpt lat="47.52745" lon="6.70702">
        <ele>362</ele>
        <time>2015-05-25T09:41:21.000Z</time>
      </trkpt>
      <trkpt lat="47.52744" lon="6.70708">
        <ele>362</ele>
        <time>2015-05-25T09:41:22.000Z</time>
      </trkpt>
      <trkpt lat="47.52742" lon="6.70715">
        <ele>362</ele>
        <time>2015-05-25T09:41:23.000Z</time>
      </trkpt>
      <trkpt lat="47.52741" lon="6.70722">
        <ele>362</ele>
        <time>2015-05-25T09:41:24.000Z</time>
      </trkpt>
      <trkpt lat="47.5274" lon="6.70729">
        <ele>362</ele>
        <time>2015-05-25T09:41:25.000Z</time>
      </trkpt>
      <trkpt lat="47.52738" lon="6.70738">
        <ele>361</ele>
        <time>2015-05-25T09:41:26.000Z</time>
      </trkpt>
      <trkpt lat="47.52737" lon="6.70746">
        <ele>360</ele>
        <time>2015-05-25T09:41:27.000Z</time>
      </trkpt>
      <trkpt lat="47.52736" lon="6.70753">
        <ele>361</ele>
        <time>2015-05-25T09:41:28.000Z</time>
      </trkpt>
      <trkpt lat="47.52736" lon="6.70759">
        <ele>361</ele>
        <time>2015-05-25T09:41:29.000Z</time>
      </trkpt>
      <trkpt lat="47.52735" lon="6.70765">
        <ele>362</ele>
        <time>2015-05-25T09:41:30.000Z</time>
      </trkpt>
      <trkpt lat="47.52735" lon="6.70772">
        <ele>362</ele>
        <time>2015-05-25T09:41:31.000Z</time>
      </trkpt>
      <trkpt lat="47.52734" lon="6.70778">
        <ele>363</ele>
        <time>2015-05-25T09:41:32.000Z</time>
      </trkpt>
      <trkpt lat="47.52733" lon="6.70785">
        <ele>363</ele>
        <time>2015-05-25T09:41:33.000Z</time>
      </trkpt>
      <trkpt lat="47.52732" lon="6.70793">
        <ele>363</ele>
        <time>2015-05-25T09:41:34.000Z</time>
      </trkpt>
      <trkpt lat="47.5273" lon="6.70801">
        <ele>363</ele>
        <time>2015-05-25T09:41:35.000Z</time>
      </trkpt>
      <trkpt lat="47.52729" lon="6.70811">
        <ele>362</ele>
        <time>2015-05-25T09:41:36.000Z</time>
      </trkpt>
      <trkpt lat="47.52727" lon="6.7082">
        <ele>362</ele>
        <time>2015-05-25T09:41:37.000Z</time>
      </trkpt>
      <trkpt lat="47.52726" lon="6.70829">
        <ele>362</ele>
        <time>2015-05-25T09:41:38.000Z</time>
      </trkpt>
      <trkpt lat="47.52723" lon="6.70848">
        <ele>361</ele>
        <time>2015-05-25T09:41:39.000Z</time>
      </trkpt>
      <trkpt lat="47.52724" lon="6.70857">
        <ele>361</ele>
        <time>2015-05-25T09:41:40.000Z</time>
      </trkpt>
      <trkpt lat="47.52727" lon="6.70868">
        <ele>361</ele>
        <time>2015-05-25T09:41:41.000Z</time>
      </trkpt>
      <trkpt lat="47.52727" lon="6.70874">
        <ele>361</ele>
        <time>2015-05-25T09:41:42.000Z</time>
      </trkpt>
      <trkpt lat="47.52727" lon="6.70879">
        <ele>361</ele>
        <time>2015-05-25T09:41:43.000Z</time>
      </trkpt>
      <trkpt lat="47.52725" lon="6.70888">
        <ele>361</ele>
        <time>2015-05-25T09:41:44.000Z</time>
      </trkpt>
      <trkpt lat="47.52723" lon="6.70894">
        <ele>361</ele>
        <time>2015-05-25T09:41:45.000Z</time>
      </trkpt>
      <trkpt lat="47.52723" lon="6.70901">
        <ele>361</ele>
        <time>2015-05-25T09:41:46.000Z</time>
      </trkpt>
      <trkpt lat="47.52723" lon="6.70905">
        <ele>360</ele>
        <time>2015-05-25T09:41:47.000Z</time>
      </trkpt>
      <trkpt lat="47.52724" lon="6.7091">
        <ele>360</ele>
        <time>2015-05-25T09:41:48.000Z</time>
      </trkpt>
      <trkpt lat="47.52723" lon="6.70915">
        <ele>360</ele>
        <time>2015-05-25T09:41:49.000Z</time>
      </trkpt>
      <trkpt lat="47.52722" lon="6.70921">
        <ele>360</ele>
        <time>2015-05-25T09:41:50.000Z</time>
      </trkpt>
      <trkpt lat="47.52721" lon="6.70928">
        <ele>360</ele>
        <time>2015-05-25T09:41:51.000Z</time>
      </trkpt>
      <trkpt lat="47.52721" lon="6.70934">
        <ele>361</ele>
        <time>2015-05-25T09:41:52.000Z</time>
      </trkpt>
      <trkpt lat="47.52721" lon="6.7094">
        <ele>361</ele>
        <time>2015-05-25T09:41:53.000Z</time>
      </trkpt>
      <trkpt lat="47.52724" lon="6.70949">
        <ele>361</ele>
        <time>2015-05-25T09:41:54.000Z</time>
      </trkpt>
      <trkpt lat="47.52725" lon="6.70957">
        <ele>361</ele>
        <time>2015-05-25T09:41:55.000Z</time>
      </trkpt>
      <trkpt lat="47.52726" lon="6.70962">
        <ele>361</ele>
        <time>2015-05-25T09:41:56.000Z</time>
      </trkpt>
      <trkpt lat="47.52727" lon="6.70969">
        <ele>360</ele>
        <time>2015-05-25T09:41:57.000Z</time>
      </trkpt>
      <trkpt lat="47.52729" lon="6.70976">
        <ele>360</ele>
        <time>2015-05-25T09:41:58.000Z</time>
      </trkpt>
      <trkpt lat="47.52731" lon="6.70983">
        <ele>359</ele>
        <time>2015-05-25T09:41:59.000Z</time>
      </trkpt>
      <trkpt lat="47.52735" lon="6.7099">
        <ele>358</ele>
        <time>2015-05-25T09:42:00.000Z</time>
      </trkpt>
      <trkpt lat="47.52738" lon="6.70997">
        <ele>356</ele>
        <time>2015-05-25T09:42:01.000Z</time>
      </trkpt>
      <trkpt lat="47.52742" lon="6.71005">
        <ele>355</ele>
        <time>2015-05-25T09:42:02.000Z</time>
      </trkpt>
      <trkpt lat="47.52748" lon="6.71023">
        <ele>358</ele>
        <time>2015-05-25T09:42:03.000Z</time>
      </trkpt>
      <trkpt lat="47.52748" lon="6.71031">
        <ele>358</ele>
        <time>2015-05-25T09:42:04.000Z</time>
      </trkpt>
      <trkpt lat="47.52747" lon="6.71042">
        <ele>359</ele>
        <time>2015-05-25T09:42:05.000Z</time>
      </trkpt>
      <trkpt lat="47.52746" lon="6.7105">
        <ele>359</ele>
        <time>2015-05-25T09:42:06.000Z</time>
      </trkpt>
      <trkpt lat="47.52746" lon="6.71057">
        <ele>358</ele>
        <time>2015-05-25T09:42:07.000Z</time>
      </trkpt>
      <trkpt lat="47.52745" lon="6.71064">
        <ele>358</ele>
        <time>2015-05-25T09:42:08.000Z</time>
      </trkpt>
      <trkpt lat="47.52743" lon="6.71069">
        <ele>358</ele>
        <time>2015-05-25T09:42:09.000Z</time>
      </trkpt>
      <trkpt lat="47.52741" lon="6.71073">
        <ele>357</ele>
        <time>2015-05-25T09:42:10.000Z</time>
      </trkpt>
      <trkpt lat="47.52741" lon="6.71079">
        <ele>357</ele>
        <time>2015-05-25T09:42:11.000Z</time>
      </trkpt>
      <trkpt lat="47.52743" lon="6.71085">
        <ele>356</ele>
        <time>2015-05-25T09:42:13.000Z</time>
      </trkpt>
      <trkpt lat="47.52741" lon="6.71089">
        <ele>357</ele>
        <time>2015-05-25T09:42:14.000Z</time>
      </trkpt>
      <trkpt lat="47.52742" lon="6.71093">
        <ele>357</ele>
        <time>2015-05-25T09:42:15.000Z</time>
      </trkpt>
      <trkpt lat="47.52742" lon="6.71097">
        <ele>358</ele>
        <time>2015-05-25T09:42:16.000Z</time>
      </trkpt>
      <trkpt lat="47.52742" lon="6.711">
        <ele>358</ele>
        <time>2015-05-25T09:42:17.000Z</time>
      </trkpt>
      <trkpt lat="47.52742" lon="6.71103">
        <ele>358</ele>
        <time>2015-05-25T09:42:18.000Z</time>
      </trkpt>
      <trkpt lat="47.52742" lon="6.71107">
        <ele>359</ele>
        <time>2015-05-25T09:42:19.000Z</time>
      </trkpt>
      <trkpt lat="47.52742" lon="6.7111">
        <ele>359</ele>
        <time>2015-05-25T09:42:20.000Z</time>
      </trkpt>
      <trkpt lat="47.52742" lon="6.71114">
        <ele>359</ele>
        <time>2015-05-25T09:42:21.000Z</time>
      </trkpt>
      <trkpt lat="47.52741" lon="6.71118">
        <ele>359</ele>
        <time>2015-05-25T09:42:22.000Z</time>
      </trkpt>
      <trkpt lat="47.52741" lon="6.71121">
        <ele>360</ele>
        <time>2015-05-25T09:42:23.000Z</time>
      </trkpt>
      <trkpt lat="47.5274" lon="6.71125">
        <ele>360</ele>
        <time>2015-05-25T09:42:24.000Z</time>
      </trkpt>
      <trkpt lat="47.5274" lon="6.71128">
        <ele>360</ele>
        <time>2015-05-25T09:42:25.000Z</time>
      </trkpt>
      <trkpt lat="47.5274" lon="6.71131">
        <ele>360</ele>
        <time>2015-05-25T09:42:26.000Z</time>
      </trkpt>
      <trkpt lat="47.5274" lon="6.71137">
        <ele>360</ele>
        <time>2015-05-25T09:42:28.000Z</time>
      </trkpt>
      <trkpt lat="47.5274" lon="6.7114">
        <ele>360</ele>
        <time>2015-05-25T09:42:29.000Z</time>
      </trkpt>
      <trkpt lat="47.52739" lon="6.71145">
        <ele>360</ele>
        <time>2015-05-25T09:42:31.000Z</time>
      </trkpt>
      <trkpt lat="47.5274" lon="6.71148">
        <ele>360</ele>
        <time>2015-05-25T09:42:32.000Z</time>
      </trkpt>
      <trkpt lat="47.52741" lon="6.71153">
        <ele>360</ele>
        <time>2015-05-25T09:42:34.000Z</time>
      </trkpt>
      <trkpt lat="47.52742" lon="6.71156">
        <ele>360</ele>
        <time>2015-05-25T09:42:35.000Z</time>
      </trkpt>
      <trkpt lat="47.52741" lon="6.71162">
        <ele>360</ele>
        <time>2015-05-25T09:42:38.000Z</time>
      </trkpt>
      <trkpt lat="47.52739" lon="6.71163">
        <ele>360</ele>
        <time>2015-05-25T09:42:39.000Z</time>
      </trkpt>
      <trkpt lat="47.52737" lon="6.71164">
        <ele>360</ele>
        <time>2015-05-25T09:42:40.000Z</time>
      </trkpt>
      <trkpt lat="47.52734" lon="6.71164">
        <ele>360</ele>
        <time>2015-05-25T09:42:41.000Z</time>
      </trkpt>
      <trkpt lat="47.5273" lon="6.71166">
        <ele>360</ele>
        <time>2015-05-25T09:42:43.000Z</time>
      </trkpt>
      <trkpt lat="47.52729" lon="6.71168">
        <ele>361</ele>
        <time>2015-05-25T09:42:44.000Z</time>
      </trkpt>
      <trkpt lat="47.52726" lon="6.71169">
        <ele>361</ele>
        <time>2015-05-25T09:42:46.000Z</time>
      </trkpt>
      <trkpt lat="47.52724" lon="6.71169">
        <ele>361</ele>
        <time>2015-05-25T09:42:47.000Z</time>
      </trkpt>
      <trkpt lat="47.52721" lon="6.71171">
        <ele>361</ele>
        <time>2015-05-25T09:42:49.000Z</time>
      </trkpt>
      <trkpt lat="47.52719" lon="6.71172">
        <ele>361</ele>
        <time>2015-05-25T09:42:50.000Z</time>
      </trkpt>
      <trkpt lat="47.52717" lon="6.71177">
        <ele>361</ele>
        <time>2015-05-25T09:42:53.000Z</time>
      </trkpt>
      <trkpt lat="47.52716" lon="6.71179">
        <ele>361</ele>
        <time>2015-05-25T09:42:54.000Z</time>
      </trkpt>
      <trkpt lat="47.52713" lon="6.71183">
        <ele>361</ele>
        <time>2015-05-25T09:42:57.000Z</time>
      </trkpt>
      <trkpt lat="47.52712" lon="6.71184">
        <ele>361</ele>
        <time>2015-05-25T09:42:58.000Z</time>
      </trkpt>
      <trkpt lat="47.52708" lon="6.71188">
        <ele>361</ele>
        <time>2015-05-25T09:43:00.000Z</time>
      </trkpt>
      <trkpt lat="47.52706" lon="6.7119">
        <ele>361</ele>
        <time>2015-05-25T09:43:01.000Z</time>
      </trkpt>
      <trkpt lat="47.52704" lon="6.71194">
        <ele>361</ele>
        <time>2015-05-25T09:43:02.000Z</time>
      </trkpt>
      <trkpt lat="47.52703" lon="6.712">
        <ele>361</ele>
        <time>2015-05-25T09:43:03.000Z</time>
      </trkpt>
      <trkpt lat="47.52703" lon="6.71207">
        <ele>361</ele>
        <time>2015-05-25T09:43:04.000Z</time>
      </trkpt>
      <trkpt lat="47.52709" lon="6.71228">
        <ele>361</ele>
        <time>2015-05-25T09:43:05.000Z</time>
      </trkpt>
      <trkpt lat="47.5271" lon="6.71237">
        <ele>361</ele>
        <time>2015-05-25T09:43:06.000Z</time>
      </trkpt>
      <trkpt lat="47.52711" lon="6.71247">
        <ele>361</ele>
        <time>2015-05-25T09:43:07.000Z</time>
      </trkpt>
      <trkpt lat="47.52712" lon="6.71257">
        <ele>364</ele>
        <time>2015-05-25T09:43:08.000Z</time>
      </trkpt>
      <trkpt lat="47.52712" lon="6.71263">
        <ele>364</ele>
        <time>2015-05-25T09:43:09.000Z</time>
      </trkpt>
      <trkpt lat="47.52711" lon="6.71269">
        <ele>364</ele>
        <time>2015-05-25T09:43:10.000Z</time>
      </trkpt>
      <trkpt lat="47.52709" lon="6.71274">
        <ele>364</ele>
        <time>2015-05-25T09:43:11.000Z</time>
      </trkpt>
      <trkpt lat="47.52706" lon="6.71277">
        <ele>365</ele>
        <time>2015-05-25T09:43:12.000Z</time>
      </trkpt>
      <trkpt lat="47.52702" lon="6.71277">
        <ele>365</ele>
        <time>2015-05-25T09:43:16.000Z</time>
      </trkpt>
      <trkpt lat="47.52701" lon="6.71276">
        <ele>365</ele>
        <time>2015-05-25T09:43:17.000Z</time>
      </trkpt>
      <trkpt lat="47.52698" lon="6.71277">
        <ele>364</ele>
        <time>2015-05-25T09:43:18.000Z</time>
      </trkpt>
      <trkpt lat="47.52696" lon="6.71276">
        <ele>364</ele>
        <time>2015-05-25T09:43:19.000Z</time>
      </trkpt>
      <trkpt lat="47.52692" lon="6.71276">
        <ele>364</ele>
        <time>2015-05-25T09:43:20.000Z</time>
      </trkpt>
      <trkpt lat="47.5269" lon="6.71276">
        <ele>364</ele>
        <time>2015-05-25T09:43:21.000Z</time>
      </trkpt>
      <trkpt lat="47.52687" lon="6.71276">
        <ele>364</ele>
        <time>2015-05-25T09:43:23.000Z</time>
      </trkpt>
      <trkpt lat="47.52685" lon="6.71275">
        <ele>364</ele>
        <time>2015-05-25T09:43:24.000Z</time>
      </trkpt>
      <trkpt lat="47.52683" lon="6.71275">
        <ele>364</ele>
        <time>2015-05-25T09:43:25.000Z</time>
      </trkpt>
      <trkpt lat="47.5268" lon="6.71274">
        <ele>364</ele>
        <time>2015-05-25T09:43:26.000Z</time>
      </trkpt>
      <trkpt lat="47.52677" lon="6.71273">
        <ele>364</ele>
        <time>2015-05-25T09:43:27.000Z</time>
      </trkpt>
      <trkpt lat="47.52675" lon="6.71273">
        <ele>364</ele>
        <time>2015-05-25T09:43:28.000Z</time>
      </trkpt>
      <trkpt lat="47.52672" lon="6.71272">
        <ele>363</ele>
        <time>2015-05-25T09:43:29.000Z</time>
      </trkpt>
      <trkpt lat="47.5267" lon="6.7127">
        <ele>363</ele>
        <time>2015-05-25T09:43:30.000Z</time>
      </trkpt>
      <trkpt lat="47.52667" lon="6.71269">
        <ele>363</ele>
        <time>2015-05-25T09:43:31.000Z</time>
      </trkpt>
      <trkpt lat="47.52664" lon="6.71268">
        <ele>363</ele>
        <time>2015-05-25T09:43:32.000Z</time>
      </trkpt>
      <trkpt lat="47.52661" lon="6.71267">
        <ele>363</ele>
        <time>2015-05-25T09:43:33.000Z</time>
      </trkpt>
      <trkpt lat="47.52657" lon="6.71266">
        <ele>363</ele>
        <time>2015-05-25T09:43:34.000Z</time>
      </trkpt>
      <trkpt lat="47.52654" lon="6.71265">
        <ele>363</ele>
        <time>2015-05-25T09:43:35.000Z</time>
      </trkpt>
      <trkpt lat="47.5265" lon="6.71264">
        <ele>363</ele>
        <time>2015-05-25T09:43:36.000Z</time>
      </trkpt>
      <trkpt lat="47.52647" lon="6.71262">
        <ele>363</ele>
        <time>2015-05-25T09:43:37.000Z</time>
      </trkpt>
      <trkpt lat="47.52644" lon="6.7126">
        <ele>363</ele>
        <time>2015-05-25T09:43:38.000Z</time>
      </trkpt>
      <trkpt lat="47.52641" lon="6.71258">
        <ele>363</ele>
        <time>2015-05-25T09:43:39.000Z</time>
      </trkpt>
      <trkpt lat="47.52638" lon="6.71258">
        <ele>363</ele>
        <time>2015-05-25T09:43:40.000Z</time>
      </trkpt>
      <trkpt lat="47.52635" lon="6.71257">
        <ele>364</ele>
        <time>2015-05-25T09:43:41.000Z</time>
      </trkpt>
      <trkpt lat="47.52632" lon="6.71257">
        <ele>364</ele>
        <time>2015-05-25T09:43:42.000Z</time>
      </trkpt>
      <trkpt lat="47.52628" lon="6.71257">
        <ele>364</ele>
        <time>2015-05-25T09:43:43.000Z</time>
      </trkpt>
      <trkpt lat="47.52625" lon="6.71258">
        <ele>364</ele>
        <time>2015-05-25T09:43:44.000Z</time>
      </trkpt>
      <trkpt lat="47.52621" lon="6.71257">
        <ele>364</ele>
        <time>2015-05-25T09:43:45.000Z</time>
      </trkpt>
      <trkpt lat="47.52617" lon="6.71256">
        <ele>364</ele>
        <time>2015-05-25T09:43:46.000Z</time>
      </trkpt>
      <trkpt lat="47.52612" lon="6.71254">
        <ele>364</ele>
        <time>2015-05-25T09:43:47.000Z</time>
      </trkpt>
      <trkpt lat="47.52608" lon="6.71253">
        <ele>364</ele>
        <time>2015-05-25T09:43:48.000Z</time>
      </trkpt>
      <trkpt lat="47.52602" lon="6.71251">
        <ele>363</ele>
        <time>2015-05-25T09:43:49.000Z</time>
      </trkpt>
      <trkpt lat="47.52598" lon="6.71249">
        <ele>362</ele>
        <time>2015-05-25T09:43:50.000Z</time>
      </trkpt>
      <trkpt lat="47.52593" lon="6.71248">
        <ele>362</ele>
        <time>2015-05-25T09:43:51.000Z</time>
      </trkpt>
      <trkpt lat="47.52588" lon="6.71246">
        <ele>362</ele>
        <time>2015-05-25T09:43:52.000Z</time>
      </trkpt>
      <trkpt lat="47.52584" lon="6.71245">
        <ele>362</ele>
        <time>2015-05-25T09:43:53.000Z</time>
      </trkpt>
      <trkpt lat="47.52579" lon="6.71243">
        <ele>362</ele>
        <time>2015-05-25T09:43:54.000Z</time>
      </trkpt>
      <trkpt lat="47.52574" lon="6.71242">
        <ele>362</ele>
        <time>2015-05-25T09:43:55.000Z</time>
      </trkpt>
      <trkpt lat="47.52569" lon="6.7124">
        <ele>361</ele>
        <time>2015-05-25T09:43:56.000Z</time>
      </trkpt>
      <trkpt lat="47.52565" lon="6.71238">
        <ele>361</ele>
        <time>2015-05-25T09:43:57.000Z</time>
      </trkpt>
      <trkpt lat="47.5256" lon="6.71236">
        <ele>361</ele>
        <time>2015-05-25T09:43:58.000Z</time>
      </trkpt>
      <trkpt lat="47.52555" lon="6.71234">
        <ele>361</ele>
        <time>2015-05-25T09:43:59.000Z</time>
      </trkpt>
      <trkpt lat="47.52551" lon="6.71232">
        <ele>361</ele>
        <time>2015-05-25T09:44:00.000Z</time>
      </trkpt>
      <trkpt lat="47.52546" lon="6.71229">
        <ele>361</ele>
        <time>2015-05-25T09:44:01.000Z</time>
      </trkpt>
      <trkpt lat="47.52541" lon="6.71227">
        <ele>361</ele>
        <time>2015-05-25T09:44:02.000Z</time>
      </trkpt>
      <trkpt lat="47.52533" lon="6.71223">
        <ele>360</ele>
        <time>2015-05-25T09:44:03.000Z</time>
      </trkpt>
      <trkpt lat="47.52528" lon="6.71222">
        <ele>360</ele>
        <time>2015-05-25T09:44:04.000Z</time>
      </trkpt>
      <trkpt lat="47.52524" lon="6.71221">
        <ele>360</ele>
        <time>2015-05-25T09:44:05.000Z</time>
      </trkpt>
      <trkpt lat="47.5252" lon="6.71217">
        <ele>360</ele>
        <time>2015-05-25T09:44:06.000Z</time>
      </trkpt>
      <trkpt lat="47.52516" lon="6.71215">
        <ele>360</ele>
        <time>2015-05-25T09:44:07.000Z</time>
      </trkpt>
      <trkpt lat="47.52512" lon="6.71212">
        <ele>360</ele>
        <time>2015-05-25T09:44:08.000Z</time>
      </trkpt>
      <trkpt lat="47.52509" lon="6.71208">
        <ele>360</ele>
        <time>2015-05-25T09:44:09.000Z</time>
      </trkpt>
      <trkpt lat="47.52506" lon="6.71204">
        <ele>360</ele>
        <time>2015-05-25T09:44:10.000Z</time>
      </trkpt>
      <trkpt lat="47.52503" lon="6.71201">
        <ele>361</ele>
        <time>2015-05-25T09:44:11.000Z</time>
      </trkpt>
      <trkpt lat="47.52501" lon="6.71197">
        <ele>361</ele>
        <time>2015-05-25T09:44:12.000Z</time>
      </trkpt>
      <trkpt lat="47.52497" lon="6.71194">
        <ele>360</ele>
        <time>2015-05-25T09:44:13.000Z</time>
      </trkpt>
      <trkpt lat="47.52494" lon="6.7119">
        <ele>360</ele>
        <time>2015-05-25T09:44:14.000Z</time>
      </trkpt>
      <trkpt lat="47.52491" lon="6.71186">
        <ele>360</ele>
        <time>2015-05-25T09:44:15.000Z</time>
      </trkpt>
      <trkpt lat="47.52488" lon="6.71183">
        <ele>361</ele>
        <time>2015-05-25T09:44:16.000Z</time>
      </trkpt>
      <trkpt lat="47.52485" lon="6.7118">
        <ele>361</ele>
        <time>2015-05-25T09:44:17.000Z</time>
      </trkpt>
      <trkpt lat="47.52482" lon="6.71177">
        <ele>361</ele>
        <time>2015-05-25T09:44:18.000Z</time>
      </trkpt>
      <trkpt lat="47.5248" lon="6.71175">
        <ele>361</ele>
        <time>2015-05-25T09:44:19.000Z</time>
      </trkpt>
      <trkpt lat="47.52477" lon="6.71173">
        <ele>361</ele>
        <time>2015-05-25T09:44:20.000Z</time>
      </trkpt>
      <trkpt lat="47.52472" lon="6.71171">
        <ele>361</ele>
        <time>2015-05-25T09:44:22.000Z</time>
      </trkpt>
      <trkpt lat="47.5247" lon="6.71171">
        <ele>361</ele>
        <time>2015-05-25T09:44:23.000Z</time>
      </trkpt>
      <trkpt lat="47.52468" lon="6.71171">
        <ele>361</ele>
        <time>2015-05-25T09:44:24.000Z</time>
      </trkpt>
      <trkpt lat="47.52465" lon="6.71171">
        <ele>361</ele>
        <time>2015-05-25T09:44:25.000Z</time>
      </trkpt>
      <trkpt lat="47.52461" lon="6.71172">
        <ele>361</ele>
        <time>2015-05-25T09:44:26.000Z</time>
      </trkpt>
      <trkpt lat="47.52457" lon="6.71172">
        <ele>361</ele>
        <time>2015-05-25T09:44:27.000Z</time>
      </trkpt>
      <trkpt lat="47.52453" lon="6.71173">
        <ele>361</ele>
        <time>2015-05-25T09:44:28.000Z</time>
      </trkpt>
      <trkpt lat="47.52449" lon="6.71175">
        <ele>361</ele>
        <time>2015-05-25T09:44:29.000Z</time>
      </trkpt>
      <trkpt lat="47.52445" lon="6.71175">
        <ele>361</ele>
        <time>2015-05-25T09:44:30.000Z</time>
      </trkpt>
      <trkpt lat="47.52441" lon="6.71176">
        <ele>361</ele>
        <time>2015-05-25T09:44:31.000Z</time>
      </trkpt>
      <trkpt lat="47.52437" lon="6.71177">
        <ele>361</ele>
        <time>2015-05-25T09:44:32.000Z</time>
      </trkpt>
      <trkpt lat="47.52433" lon="6.71178">
        <ele>362</ele>
        <time>2015-05-25T09:44:33.000Z</time>
      </trkpt>
      <trkpt lat="47.52429" lon="6.71179">
        <ele>362</ele>
        <time>2015-05-25T09:44:34.000Z</time>
      </trkpt>
      <trkpt lat="47.52426" lon="6.71179">
        <ele>362</ele>
        <time>2015-05-25T09:44:35.000Z</time>
      </trkpt>
      <trkpt lat="47.52423" lon="6.71179">
        <ele>362</ele>
        <time>2015-05-25T09:44:36.000Z</time>
      </trkpt>
      <trkpt lat="47.52419" lon="6.71178">
        <ele>362</ele>
        <time>2015-05-25T09:44:37.000Z</time>
      </trkpt>
      <trkpt lat="47.52416" lon="6.71177">
        <ele>363</ele>
        <time>2015-05-25T09:44:38.000Z</time>
      </trkpt>
      <trkpt lat="47.52412" lon="6.71176">
        <ele>363</ele>
        <time>2015-05-25T09:44:39.000Z</time>
      </trkpt>
      <trkpt lat="47.52409" lon="6.71175">
        <ele>363</ele>
        <time>2015-05-25T09:44:40.000Z</time>
      </trkpt>
      <trkpt lat="47.52406" lon="6.71175">
        <ele>363</ele>
        <time>2015-05-25T09:44:41.000Z</time>
      </trkpt>
      <trkpt lat="47.52402" lon="6.71176">
        <ele>363</ele>
        <time>2015-05-25T09:44:42.000Z</time>
      </trkpt>
      <trkpt lat="47.52399" lon="6.71176">
        <ele>364</ele>
        <time>2015-05-25T09:44:43.000Z</time>
      </trkpt>
      <trkpt lat="47.52396" lon="6.71177">
        <ele>364</ele>
        <time>2015-05-25T09:44:44.000Z</time>
      </trkpt>
      <trkpt lat="47.52393" lon="6.71178">
        <ele>364</ele>
        <time>2015-05-25T09:44:45.000Z</time>
      </trkpt>
      <trkpt lat="47.5239" lon="6.71179">
        <ele>364</ele>
        <time>2015-05-25T09:44:46.000Z</time>
      </trkpt>
      <trkpt lat="47.52386" lon="6.71179">
        <ele>364</ele>
        <time>2015-05-25T09:44:47.000Z</time>
      </trkpt>
      <trkpt lat="47.52383" lon="6.71179">
        <ele>364</ele>
        <time>2015-05-25T09:44:48.000Z</time>
      </trkpt>
      <trkpt lat="47.5238" lon="6.71179">
        <ele>364</ele>
        <time>2015-05-25T09:44:49.000Z</time>
      </trkpt>
      <trkpt lat="47.52377" lon="6.71178">
        <ele>364</ele>
        <time>2015-05-25T09:44:50.000Z</time>
      </trkpt>
      <trkpt lat="47.52374" lon="6.71178">
        <ele>364</ele>
        <time>2015-05-25T09:44:51.000Z</time>
      </trkpt>
      <trkpt lat="47.52372" lon="6.71178">
        <ele>364</ele>
        <time>2015-05-25T09:44:52.000Z</time>
      </trkpt>
      <trkpt lat="47.5237" lon="6.71178">
        <ele>365</ele>
        <time>2015-05-25T09:44:53.000Z</time>
      </trkpt>
      <trkpt lat="47.52366" lon="6.71176">
        <ele>365</ele>
        <time>2015-05-25T09:44:55.000Z</time>
      </trkpt>
      <trkpt lat="47.52364" lon="6.71174">
        <ele>365</ele>
        <time>2015-05-25T09:44:56.000Z</time>
      </trkpt>
      <trkpt lat="47.52362" lon="6.71171">
        <ele>365</ele>
        <time>2015-05-25T09:44:57.000Z</time>
      </trkpt>
      <trkpt lat="47.5236" lon="6.71169">
        <ele>365</ele>
        <time>2015-05-25T09:44:58.000Z</time>
      </trkpt>
      <trkpt lat="47.52358" lon="6.71166">
        <ele>366</ele>
        <time>2015-05-25T09:44:59.000Z</time>
      </trkpt>
      <trkpt lat="47.52355" lon="6.71163">
        <ele>366</ele>
        <time>2015-05-25T09:45:00.000Z</time>
      </trkpt>
      <trkpt lat="47.52353" lon="6.71159">
        <ele>366</ele>
        <time>2015-05-25T09:45:01.000Z</time>
      </trkpt>
      <trkpt lat="47.5235" lon="6.71157">
        <ele>366</ele>
        <time>2015-05-25T09:45:02.000Z</time>
      </trkpt>
      <trkpt lat="47.52347" lon="6.71154">
        <ele>366</ele>
        <time>2015-05-25T09:45:03.000Z</time>
      </trkpt>
      <trkpt lat="47.52344" lon="6.71153">
        <ele>366</ele>
        <time>2015-05-25T09:45:04.000Z</time>
      </trkpt>
      <trkpt lat="47.5234" lon="6.71151">
        <ele>366</ele>
        <time>2015-05-25T09:45:05.000Z</time>
      </trkpt>
      <trkpt lat="47.52336" lon="6.71151">
        <ele>366</ele>
        <time>2015-05-25T09:45:06.000Z</time>
      </trkpt>
      <trkpt lat="47.52333" lon="6.71151">
        <ele>366</ele>
        <time>2015-05-25T09:45:07.000Z</time>
      </trkpt>
      <trkpt lat="47.52329" lon="6.71152">
        <ele>366</ele>
        <time>2015-05-25T09:45:08.000Z</time>
      </trkpt>
      <trkpt lat="47.52325" lon="6.71154">
        <ele>366</ele>
        <time>2015-05-25T09:45:09.000Z</time>
      </trkpt>
      <trkpt lat="47.52322" lon="6.71157">
        <ele>366</ele>
        <time>2015-05-25T09:45:10.000Z</time>
      </trkpt>
      <trkpt lat="47.52318" lon="6.71161">
        <ele>366</ele>
        <time>2015-05-25T09:45:11.000Z</time>
      </trkpt>
      <trkpt lat="47.52315" lon="6.71166">
        <ele>366</ele>
        <time>2015-05-25T09:45:12.000Z</time>
      </trkpt>
      <trkpt lat="47.52313" lon="6.7117">
        <ele>367</ele>
        <time>2015-05-25T09:45:13.000Z</time>
      </trkpt>
      <trkpt lat="47.5231" lon="6.71175">
        <ele>367</ele>
        <time>2015-05-25T09:45:14.000Z</time>
      </trkpt>
      <trkpt lat="47.52307" lon="6.71179">
        <ele>367</ele>
        <time>2015-05-25T09:45:15.000Z</time>
      </trkpt>
      <trkpt lat="47.52305" lon="6.71184">
        <ele>367</ele>
        <time>2015-05-25T09:45:16.000Z</time>
      </trkpt>
      <trkpt lat="47.52303" lon="6.71188">
        <ele>367</ele>
        <time>2015-05-25T09:45:17.000Z</time>
      </trkpt>
      <trkpt lat="47.523" lon="6.71192">
        <ele>367</ele>
        <time>2015-05-25T09:45:18.000Z</time>
      </trkpt>
      <trkpt lat="47.52297" lon="6.71195">
        <ele>367</ele>
        <time>2015-05-25T09:45:19.000Z</time>
      </trkpt>
      <trkpt lat="47.52295" lon="6.71199">
        <ele>367</ele>
        <time>2015-05-25T09:45:20.000Z</time>
      </trkpt>
      <trkpt lat="47.52292" lon="6.71203">
        <ele>367</ele>
        <time>2015-05-25T09:45:21.000Z</time>
      </trkpt>
      <trkpt lat="47.52289" lon="6.71206">
        <ele>368</ele>
        <time>2015-05-25T09:45:22.000Z</time>
      </trkpt>
      <trkpt lat="47.52287" lon="6.7121">
        <ele>368</ele>
        <time>2015-05-25T09:45:23.000Z</time>
      </trkpt>
      <trkpt lat="47.52284" lon="6.71213">
        <ele>368</ele>
        <time>2015-05-25T09:45:24.000Z</time>
      </trkpt>
      <trkpt lat="47.52281" lon="6.71215">
        <ele>368</ele>
        <time>2015-05-25T09:45:25.000Z</time>
      </trkpt>
      <trkpt lat="47.52277" lon="6.71218">
        <ele>368</ele>
        <time>2015-05-25T09:45:26.000Z</time>
      </trkpt>
      <trkpt lat="47.52274" lon="6.7122">
        <ele>368</ele>
        <time>2015-05-25T09:45:27.000Z</time>
      </trkpt>
      <trkpt lat="47.52272" lon="6.71222">
        <ele>368</ele>
        <time>2015-05-25T09:45:28.000Z</time>
      </trkpt>
      <trkpt lat="47.52269" lon="6.71224">
        <ele>368</ele>
        <time>2015-05-25T09:45:29.000Z</time>
      </trkpt>
      <trkpt lat="47.52266" lon="6.71225">
        <ele>368</ele>
        <time>2015-05-25T09:45:30.000Z</time>
      </trkpt>
      <trkpt lat="47.52264" lon="6.71226">
        <ele>369</ele>
        <time>2015-05-25T09:45:31.000Z</time>
      </trkpt>
      <trkpt lat="47.52261" lon="6.71228">
        <ele>369</ele>
        <time>2015-05-25T09:45:32.000Z</time>
      </trkpt>
      <trkpt lat="47.52259" lon="6.71229">
        <ele>369</ele>
        <time>2015-05-25T09:45:33.000Z</time>
      </trkpt>
      <trkpt lat="47.52257" lon="6.71231">
        <ele>369</ele>
        <time>2015-05-25T09:45:34.000Z</time>
      </trkpt>
      <trkpt lat="47.52254" lon="6.71234">
        <ele>369</ele>
        <time>2015-05-25T09:45:35.000Z</time>
      </trkpt>
      <trkpt lat="47.52252" lon="6.71236">
        <ele>369</ele>
        <time>2015-05-25T09:45:36.000Z</time>
      </trkpt>
      <trkpt lat="47.5225" lon="6.71238">
        <ele>371</ele>
        <time>2015-05-25T09:45:37.000Z</time>
      </trkpt>
      <trkpt lat="47.52247" lon="6.7124">
        <ele>371</ele>
        <time>2015-05-25T09:45:38.000Z</time>
      </trkpt>
      <trkpt lat="47.52243" lon="6.71241">
        <ele>371</ele>
        <time>2015-05-25T09:45:40.000Z</time>
      </trkpt>
      <trkpt lat="47.52241" lon="6.71242">
        <ele>371</ele>
        <time>2015-05-25T09:45:41.000Z</time>
      </trkpt>
      <trkpt lat="47.52237" lon="6.71245">
        <ele>371</ele>
        <time>2015-05-25T09:45:46.000Z</time>
      </trkpt>
      <trkpt lat="47.52237" lon="6.71245">
        <ele>371</ele>
        <time>2015-05-25T09:45:47.000Z</time>
      </trkpt>
      <trkpt lat="47.52234" lon="6.7125">
        <ele>373</ele>
        <time>2015-05-25T09:45:52.000Z</time>
      </trkpt>
      <trkpt lat="47.52233" lon="6.71251">
        <ele>374</ele>
        <time>2015-05-25T09:45:53.000Z</time>
      </trkpt>
      <trkpt lat="47.52229" lon="6.71253">
        <ele>374</ele>
        <time>2015-05-25T09:45:57.000Z</time>
      </trkpt>
      <trkpt lat="47.52228" lon="6.71254">
        <ele>374</ele>
        <time>2015-05-25T09:45:58.000Z</time>
      </trkpt>
      <trkpt lat="47.52225" lon="6.71257">
        <ele>374</ele>
        <time>2015-05-25T09:46:02.000Z</time>
      </trkpt>
      <trkpt lat="47.52224" lon="6.71258">
        <ele>374</ele>
        <time>2015-05-25T09:46:03.000Z</time>
      </trkpt>
      <trkpt lat="47.52221" lon="6.71261">
        <ele>375</ele>
        <time>2015-05-25T09:46:07.000Z</time>
      </trkpt>
      <trkpt lat="47.5222" lon="6.71262">
        <ele>375</ele>
        <time>2015-05-25T09:46:08.000Z</time>
      </trkpt>
      <trkpt lat="47.52217" lon="6.71264">
        <ele>375</ele>
        <time>2015-05-25T09:46:12.000Z</time>
      </trkpt>
      <trkpt lat="47.52216" lon="6.71265">
        <ele>375</ele>
        <time>2015-05-25T09:46:13.000Z</time>
      </trkpt>
      <trkpt lat="47.52212" lon="6.71269">
        <ele>375</ele>
        <time>2015-05-25T09:46:16.000Z</time>
      </trkpt>
      <trkpt lat="47.52211" lon="6.7127">
        <ele>376</ele>
        <time>2015-05-25T09:46:17.000Z</time>
      </trkpt>
      <trkpt lat="47.52208" lon="6.71274">
        <ele>376</ele>
        <time>2015-05-25T09:46:20.000Z</time>
      </trkpt>
      <trkpt lat="47.52207" lon="6.71275">
        <ele>376</ele>
        <time>2015-05-25T09:46:21.000Z</time>
      </trkpt>
      <trkpt lat="47.52205" lon="6.7128">
        <ele>376</ele>
        <time>2015-05-25T09:46:25.000Z</time>
      </trkpt>
      <trkpt lat="47.52204" lon="6.7128">
        <ele>376</ele>
        <time>2015-05-25T09:46:26.000Z</time>
      </trkpt>
      <trkpt lat="47.52201" lon="6.71283">
        <ele>376</ele>
        <time>2015-05-25T09:46:29.000Z</time>
      </trkpt>
      <trkpt lat="47.522" lon="6.71284">
        <ele>376</ele>
        <time>2015-05-25T09:46:30.000Z</time>
      </trkpt>
      <trkpt lat="47.52196" lon="6.71289">
        <ele>377</ele>
        <time>2015-05-25T09:46:33.000Z</time>
      </trkpt>
      <trkpt lat="47.52195" lon="6.7129">
        <ele>377</ele>
        <time>2015-05-25T09:46:34.000Z</time>
      </trkpt>
      <trkpt lat="47.52192" lon="6.71293">
        <ele>377</ele>
        <time>2015-05-25T09:46:36.000Z</time>
      </trkpt>
      <trkpt lat="47.5219" lon="6.71294">
        <ele>377</ele>
        <time>2015-05-25T09:46:37.000Z</time>
      </trkpt>
      <trkpt lat="47.52187" lon="6.71296">
        <ele>377</ele>
        <time>2015-05-25T09:46:39.000Z</time>
      </trkpt>
      <trkpt lat="47.52185" lon="6.71298">
        <ele>377</ele>
        <time>2015-05-25T09:46:40.000Z</time>
      </trkpt>
      <trkpt lat="47.52182" lon="6.713">
        <ele>378</ele>
        <time>2015-05-25T09:46:42.000Z</time>
      </trkpt>
      <trkpt lat="47.52181" lon="6.713">
        <ele>378</ele>
        <time>2015-05-25T09:46:43.000Z</time>
      </trkpt>
      <trkpt lat="47.52178" lon="6.71302">
        <ele>378</ele>
        <time>2015-05-25T09:46:45.000Z</time>
      </trkpt>
      <trkpt lat="47.52177" lon="6.71303">
        <ele>378</ele>
        <time>2015-05-25T09:46:46.000Z</time>
      </trkpt>
      <trkpt lat="47.52173" lon="6.71307">
        <ele>378</ele>
        <time>2015-05-25T09:46:49.000Z</time>
      </trkpt>
      <trkpt lat="47.52172" lon="6.71308">
        <ele>378</ele>
        <time>2015-05-25T09:46:50.000Z</time>
      </trkpt>
      <trkpt lat="47.52169" lon="6.71312">
        <ele>379</ele>
        <time>2015-05-25T09:46:53.000Z</time>
      </trkpt>
      <trkpt lat="47.52168" lon="6.71313">
        <ele>379</ele>
        <time>2015-05-25T09:46:54.000Z</time>
      </trkpt>
      <trkpt lat="47.52164" lon="6.71315">
        <ele>383</ele>
        <time>2015-05-25T09:46:57.000Z</time>
      </trkpt>
      <trkpt lat="47.52164" lon="6.71316">
        <ele>383</ele>
        <time>2015-05-25T09:46:58.000Z</time>
      </trkpt>
      <trkpt lat="47.52161" lon="6.71321">
        <ele>383</ele>
        <time>2015-05-25T09:47:01.000Z</time>
      </trkpt>
      <trkpt lat="47.5216" lon="6.71323">
        <ele>383</ele>
        <time>2015-05-25T09:47:02.000Z</time>
      </trkpt>
      <trkpt lat="47.52158" lon="6.71326">
        <ele>383</ele>
        <time>2015-05-25T09:47:04.000Z</time>
      </trkpt>
      <trkpt lat="47.52156" lon="6.71328">
        <ele>383</ele>
        <time>2015-05-25T09:47:05.000Z</time>
      </trkpt>
      <trkpt lat="47.52154" lon="6.7133">
        <ele>383</ele>
        <time>2015-05-25T09:47:06.000Z</time>
      </trkpt>
      <trkpt lat="47.52152" lon="6.71332">
        <ele>384</ele>
        <time>2015-05-25T09:47:07.000Z</time>
      </trkpt>
      <trkpt lat="47.52149" lon="6.71336">
        <ele>386</ele>
        <time>2015-05-25T09:47:09.000Z</time>
      </trkpt>
      <trkpt lat="47.52148" lon="6.71338">
        <ele>386</ele>
        <time>2015-05-25T09:47:10.000Z</time>
      </trkpt>
      <trkpt lat="47.52146" lon="6.71343">
        <ele>387</ele>
        <time>2015-05-25T09:47:12.000Z</time>
      </trkpt>
      <trkpt lat="47.52145" lon="6.71345">
        <ele>387</ele>
        <time>2015-05-25T09:47:13.000Z</time>
      </trkpt>
      <trkpt lat="47.52145" lon="6.71351">
        <ele>387</ele>
        <time>2015-05-25T09:47:15.000Z</time>
      </trkpt>
      <trkpt lat="47.52144" lon="6.71354">
        <ele>387</ele>
        <time>2015-05-25T09:47:16.000Z</time>
      </trkpt>
      <trkpt lat="47.52144" lon="6.71357">
        <ele>388</ele>
        <time>2015-05-25T09:47:17.000Z</time>
      </trkpt>
      <trkpt lat="47.52144" lon="6.71361">
        <ele>388</ele>
        <time>2015-05-25T09:47:18.000Z</time>
      </trkpt>
      <trkpt lat="47.52143" lon="6.71365">
        <ele>388</ele>
        <time>2015-05-25T09:47:19.000Z</time>
      </trkpt>
      <trkpt lat="47.52143" lon="6.71368">
        <ele>388</ele>
        <time>2015-05-25T09:47:20.000Z</time>
      </trkpt>
      <trkpt lat="47.52143" lon="6.71372">
        <ele>388</ele>
        <time>2015-05-25T09:47:21.000Z</time>
      </trkpt>
      <trkpt lat="47.52143" lon="6.71375">
        <ele>388</ele>
        <time>2015-05-25T09:47:22.000Z</time>
      </trkpt>
      <trkpt lat="47.52144" lon="6.71381">
        <ele>389</ele>
        <time>2015-05-25T09:47:24.000Z</time>
      </trkpt>
      <trkpt lat="47.52145" lon="6.71384">
        <ele>389</ele>
        <time>2015-05-25T09:47:25.000Z</time>
      </trkpt>
      <trkpt lat="47.52146" lon="6.71387">
        <ele>389</ele>
        <time>2015-05-25T09:47:26.000Z</time>
      </trkpt>
      <trkpt lat="47.52147" lon="6.7139">
        <ele>389</ele>
        <time>2015-05-25T09:47:27.000Z</time>
      </trkpt>
      <trkpt lat="47.52148" lon="6.71393">
        <ele>389</ele>
        <time>2015-05-25T09:47:28.000Z</time>
      </trkpt>
      <trkpt lat="47.52149" lon="6.71396">
        <ele>389</ele>
        <time>2015-05-25T09:47:29.000Z</time>
      </trkpt>
      <trkpt lat="47.52151" lon="6.714">
        <ele>388</ele>
        <time>2015-05-25T09:47:31.000Z</time>
      </trkpt>
      <trkpt lat="47.52152" lon="6.71402">
        <ele>388</ele>
        <time>2015-05-25T09:47:32.000Z</time>
      </trkpt>
      <trkpt lat="47.52154" lon="6.71407">
        <ele>388</ele>
        <time>2015-05-25T09:47:34.000Z</time>
      </trkpt>
      <trkpt lat="47.52154" lon="6.71409">
        <ele>388</ele>
        <time>2015-05-25T09:47:35.000Z</time>
      </trkpt>
      <trkpt lat="47.52156" lon="6.71414">
        <ele>388</ele>
        <time>2015-05-25T09:47:37.000Z</time>
      </trkpt>
      <trkpt lat="47.52157" lon="6.71417">
        <ele>390</ele>
        <time>2015-05-25T09:47:38.000Z</time>
      </trkpt>
      <trkpt lat="47.52157" lon="6.71421">
        <ele>390</ele>
        <time>2015-05-25T09:47:39.000Z</time>
      </trkpt>
      <trkpt lat="47.52158" lon="6.71424">
        <ele>390</ele>
        <time>2015-05-25T09:47:40.000Z</time>
      </trkpt>
      <trkpt lat="47.52158" lon="6.71427">
        <ele>391</ele>
        <time>2015-05-25T09:47:41.000Z</time>
      </trkpt>
      <trkpt lat="47.52159" lon="6.71431">
        <ele>391</ele>
        <time>2015-05-25T09:47:42.000Z</time>
      </trkpt>
      <trkpt lat="47.5216" lon="6.71435">
        <ele>391</ele>
        <time>2015-05-25T09:47:43.000Z</time>
      </trkpt>
      <trkpt lat="47.52161" lon="6.71438">
        <ele>392</ele>
        <time>2015-05-25T09:47:44.000Z</time>
      </trkpt>
      <trkpt lat="47.52162" lon="6.71441">
        <ele>392</ele>
        <time>2015-05-25T09:47:45.000Z</time>
      </trkpt>
      <trkpt lat="47.52163" lon="6.71445">
        <ele>393</ele>
        <time>2015-05-25T09:47:46.000Z</time>
      </trkpt>
      <trkpt lat="47.52163" lon="6.71448">
        <ele>393</ele>
        <time>2015-05-25T09:47:47.000Z</time>
      </trkpt>
      <trkpt lat="47.52163" lon="6.71451">
        <ele>393</ele>
        <time>2015-05-25T09:47:48.000Z</time>
      </trkpt>
      <trkpt lat="47.52163" lon="6.71455">
        <ele>393</ele>
        <time>2015-05-25T09:47:49.000Z</time>
      </trkpt>
      <trkpt lat="47.52164" lon="6.71458">
        <ele>394</ele>
        <time>2015-05-25T09:47:50.000Z</time>
      </trkpt>
      <trkpt lat="47.52164" lon="6.71462">
        <ele>394</ele>
        <time>2015-05-25T09:47:51.000Z</time>
      </trkpt>
      <trkpt lat="47.52164" lon="6.71466">
        <ele>394</ele>
        <time>2015-05-25T09:47:52.000Z</time>
      </trkpt>
      <trkpt lat="47.52164" lon="6.71469">
        <ele>394</ele>
        <time>2015-05-25T09:47:53.000Z</time>
      </trkpt>
      <trkpt lat="47.52164" lon="6.71473">
        <ele>394</ele>
        <time>2015-05-25T09:47:54.000Z</time>
      </trkpt>
      <trkpt lat="47.52164" lon="6.71476">
        <ele>394</ele>
        <time>2015-05-25T09:47:55.000Z</time>
      </trkpt>
      <trkpt lat="47.52164" lon="6.7148">
        <ele>394</ele>
        <time>2015-05-25T09:47:56.000Z</time>
      </trkpt>
      <trkpt lat="47.52165" lon="6.71484">
        <ele>394</ele>
        <time>2015-05-25T09:47:57.000Z</time>
      </trkpt>
      <trkpt lat="47.52164" lon="6.71487">
        <ele>394</ele>
        <time>2015-05-25T09:47:58.000Z</time>
      </trkpt>
      <trkpt lat="47.52164" lon="6.71491">
        <ele>394</ele>
        <time>2015-05-25T09:47:59.000Z</time>
      </trkpt>
      <trkpt lat="47.52163" lon="6.71494">
        <ele>394</ele>
        <time>2015-05-25T09:48:00.000Z</time>
      </trkpt>
      <trkpt lat="47.52163" lon="6.71497">
        <ele>394</ele>
        <time>2015-05-25T09:48:01.000Z</time>
      </trkpt>
      <trkpt lat="47.52163" lon="6.71501">
        <ele>395</ele>
        <time>2015-05-25T09:48:02.000Z</time>
      </trkpt>
      <trkpt lat="47.52163" lon="6.71505">
        <ele>396</ele>
        <time>2015-05-25T09:48:03.000Z</time>
      </trkpt>
      <trkpt lat="47.52163" lon="6.71509">
        <ele>396</ele>
        <time>2015-05-25T09:48:04.000Z</time>
      </trkpt>
      <trkpt lat="47.52163" lon="6.71513">
        <ele>397</ele>
        <time>2015-05-25T09:48:05.000Z</time>
      </trkpt>
      <trkpt lat="47.52162" lon="6.71518">
        <ele>397</ele>
        <time>2015-05-25T09:48:06.000Z</time>
      </trkpt>
      <trkpt lat="47.52162" lon="6.71522">
        <ele>398</ele>
        <time>2015-05-25T09:48:07.000Z</time>
      </trkpt>
      <trkpt lat="47.52163" lon="6.71526">
        <ele>398</ele>
        <time>2015-05-25T09:48:08.000Z</time>
      </trkpt>
      <trkpt lat="47.52162" lon="6.7153">
        <ele>398</ele>
        <time>2015-05-25T09:48:09.000Z</time>
      </trkpt>
      <trkpt lat="47.52162" lon="6.71534">
        <ele>399</ele>
        <time>2015-05-25T09:48:10.000Z</time>
      </trkpt>
      <trkpt lat="47.52162" lon="6.71538">
        <ele>399</ele>
        <time>2015-05-25T09:48:11.000Z</time>
      </trkpt>
      <trkpt lat="47.52162" lon="6.71541">
        <ele>399</ele>
        <time>2015-05-25T09:48:12.000Z</time>
      </trkpt>
      <trkpt lat="47.52162" lon="6.71545">
        <ele>399</ele>
        <time>2015-05-25T09:48:13.000Z</time>
      </trkpt>
      <trkpt lat="47.52162" lon="6.71548">
        <ele>399</ele>
        <time>2015-05-25T09:48:14.000Z</time>
      </trkpt>
      <trkpt lat="47.52162" lon="6.71552">
        <ele>399</ele>
        <time>2015-05-25T09:48:15.000Z</time>
      </trkpt>
      <trkpt lat="47.52162" lon="6.71556">
        <ele>399</ele>
        <time>2015-05-25T09:48:16.000Z</time>
      </trkpt>
      <trkpt lat="47.52162" lon="6.7156">
        <ele>398</ele>
        <time>2015-05-25T09:48:17.000Z</time>
      </trkpt>
      <trkpt lat="47.52163" lon="6.71564">
        <ele>398</ele>
        <time>2015-05-25T09:48:18.000Z</time>
      </trkpt>
      <trkpt lat="47.52162" lon="6.7157">
        <ele>398</ele>
        <time>2015-05-25T09:48:20.000Z</time>
      </trkpt>
      <trkpt lat="47.52161" lon="6.71572">
        <ele>397</ele>
        <time>2015-05-25T09:48:21.000Z</time>
      </trkpt>
      <trkpt lat="47.52159" lon="6.71575">
        <ele>397</ele>
        <time>2015-05-25T09:48:22.000Z</time>
      </trkpt>
      <trkpt lat="47.52158" lon="6.71578">
        <ele>397</ele>
        <time>2015-05-25T09:48:23.000Z</time>
      </trkpt>
      <trkpt lat="47.52157" lon="6.71581">
        <ele>397</ele>
        <time>2015-05-25T09:48:24.000Z</time>
      </trkpt>
      <trkpt lat="47.52157" lon="6.71584">
        <ele>397</ele>
        <time>2015-05-25T09:48:25.000Z</time>
      </trkpt>
      <trkpt lat="47.52154" lon="6.71589">
        <ele>398</ele>
        <time>2015-05-25T09:48:27.000Z</time>
      </trkpt>
      <trkpt lat="47.52152" lon="6.71591">
        <ele>399</ele>
        <time>2015-05-25T09:48:28.000Z</time>
      </trkpt>
      <trkpt lat="47.52148" lon="6.71593">
        <ele>399</ele>
        <time>2015-05-25T09:48:30.000Z</time>
      </trkpt>
      <trkpt lat="47.52146" lon="6.71592">
        <ele>400</ele>
        <time>2015-05-25T09:48:31.000Z</time>
      </trkpt>
      <trkpt lat="47.52143" lon="6.71591">
        <ele>400</ele>
        <time>2015-05-25T09:48:32.000Z</time>
      </trkpt>
      <trkpt lat="47.5214" lon="6.71591">
        <ele>400</ele>
        <time>2015-05-25T09:48:33.000Z</time>
      </trkpt>
      <trkpt lat="47.52137" lon="6.71591">
        <ele>401</ele>
        <time>2015-05-25T09:48:34.000Z</time>
      </trkpt>
      <trkpt lat="47.52135" lon="6.7159">
        <ele>401</ele>
        <time>2015-05-25T09:48:35.000Z</time>
      </trkpt>
      <trkpt lat="47.52132" lon="6.71591">
        <ele>402</ele>
        <time>2015-05-25T09:48:37.000Z</time>
      </trkpt>
      <trkpt lat="47.5213" lon="6.71591">
        <ele>402</ele>
        <time>2015-05-25T09:48:38.000Z</time>
      </trkpt>
      <trkpt lat="47.52128" lon="6.71593">
        <ele>402</ele>
        <time>2015-05-25T09:48:39.000Z</time>
      </trkpt>
      <trkpt lat="47.52126" lon="6.71594">
        <ele>402</ele>
        <time>2015-05-25T09:48:40.000Z</time>
      </trkpt>
      <trkpt lat="47.52124" lon="6.71596">
        <ele>403</ele>
        <time>2015-05-25T09:48:41.000Z</time>
      </trkpt>
      <trkpt lat="47.52121" lon="6.71598">
        <ele>403</ele>
        <time>2015-05-25T09:48:42.000Z</time>
      </trkpt>
      <trkpt lat="47.52118" lon="6.71601">
        <ele>404</ele>
        <time>2015-05-25T09:48:43.000Z</time>
      </trkpt>
      <trkpt lat="47.52115" lon="6.71604">
        <ele>404</ele>
        <time>2015-05-25T09:48:44.000Z</time>
      </trkpt>
      <trkpt lat="47.52113" lon="6.71607">
        <ele>404</ele>
        <time>2015-05-25T09:48:45.000Z</time>
      </trkpt>
      <trkpt lat="47.52111" lon="6.71611">
        <ele>404</ele>
        <time>2015-05-25T09:48:46.000Z</time>
      </trkpt>
      <trkpt lat="47.52108" lon="6.71615">
        <ele>404</ele>
        <time>2015-05-25T09:48:47.000Z</time>
      </trkpt>
      <trkpt lat="47.52106" lon="6.71618">
        <ele>404</ele>
        <time>2015-05-25T09:48:48.000Z</time>
      </trkpt>
      <trkpt lat="47.52103" lon="6.71621">
        <ele>405</ele>
        <time>2015-05-25T09:48:49.000Z</time>
      </trkpt>
      <trkpt lat="47.521" lon="6.71624">
        <ele>405</ele>
        <time>2015-05-25T09:48:50.000Z</time>
      </trkpt>
      <trkpt lat="47.52097" lon="6.71627">
        <ele>405</ele>
        <time>2015-05-25T09:48:51.000Z</time>
      </trkpt>
      <trkpt lat="47.52095" lon="6.7163">
        <ele>405</ele>
        <time>2015-05-25T09:48:52.000Z</time>
      </trkpt>
      <trkpt lat="47.52092" lon="6.71633">
        <ele>405</ele>
        <time>2015-05-25T09:48:53.000Z</time>
      </trkpt>
      <trkpt lat="47.5209" lon="6.71636">
        <ele>406</ele>
        <time>2015-05-25T09:48:54.000Z</time>
      </trkpt>
      <trkpt lat="47.52087" lon="6.71639">
        <ele>406</ele>
        <time>2015-05-25T09:48:55.000Z</time>
      </trkpt>
      <trkpt lat="47.52084" lon="6.71642">
        <ele>406</ele>
        <time>2015-05-25T09:48:56.000Z</time>
      </trkpt>
      <trkpt lat="47.52082" lon="6.71645">
        <ele>413</ele>
        <time>2015-05-25T09:48:57.000Z</time>
      </trkpt>
      <trkpt lat="47.52079" lon="6.71648">
        <ele>413</ele>
        <time>2015-05-25T09:48:58.000Z</time>
      </trkpt>
      <trkpt lat="47.52077" lon="6.71651">
        <ele>412</ele>
        <time>2015-05-25T09:48:59.000Z</time>
      </trkpt>
      <trkpt lat="47.52074" lon="6.71654">
        <ele>412</ele>
        <time>2015-05-25T09:49:00.000Z</time>
      </trkpt>
      <trkpt lat="47.52072" lon="6.71657">
        <ele>412</ele>
        <time>2015-05-25T09:49:01.000Z</time>
      </trkpt>
      <trkpt lat="47.5207" lon="6.7166">
        <ele>412</ele>
        <time>2015-05-25T09:49:02.000Z</time>
      </trkpt>
      <trkpt lat="47.52068" lon="6.71663">
        <ele>412</ele>
        <time>2015-05-25T09:49:03.000Z</time>
      </trkpt>
      <trkpt lat="47.52065" lon="6.71665">
        <ele>413</ele>
        <time>2015-05-25T09:49:04.000Z</time>
      </trkpt>
      <trkpt lat="47.52063" lon="6.71668">
        <ele>411</ele>
        <time>2015-05-25T09:49:05.000Z</time>
      </trkpt>
      <trkpt lat="47.52062" lon="6.71672">
        <ele>411</ele>
        <time>2015-05-25T09:49:06.000Z</time>
      </trkpt>
      <trkpt lat="47.5206" lon="6.71675">
        <ele>411</ele>
        <time>2015-05-25T09:49:07.000Z</time>
      </trkpt>
      <trkpt lat="47.52058" lon="6.71679">
        <ele>411</ele>
        <time>2015-05-25T09:49:08.000Z</time>
      </trkpt>
      <trkpt lat="47.52056" lon="6.71682">
        <ele>410</ele>
        <time>2015-05-25T09:49:09.000Z</time>
      </trkpt>
      <trkpt lat="47.52054" lon="6.71687">
        <ele>410</ele>
        <time>2015-05-25T09:49:10.000Z</time>
      </trkpt>
      <trkpt lat="47.52052" lon="6.71691">
        <ele>410</ele>
        <time>2015-05-25T09:49:11.000Z</time>
      </trkpt>
      <trkpt lat="47.5205" lon="6.71696">
        <ele>410</ele>
        <time>2015-05-25T09:49:12.000Z</time>
      </trkpt>
      <trkpt lat="47.52048" lon="6.717">
        <ele>410</ele>
        <time>2015-05-25T09:49:13.000Z</time>
      </trkpt>
      <trkpt lat="47.52046" lon="6.71705">
        <ele>410</ele>
        <time>2015-05-25T09:49:14.000Z</time>
      </trkpt>
      <trkpt lat="47.52044" lon="6.7171">
        <ele>410</ele>
        <time>2015-05-25T09:49:15.000Z</time>
      </trkpt>
      <trkpt lat="47.52042" lon="6.71715">
        <ele>410</ele>
        <time>2015-05-25T09:49:16.000Z</time>
      </trkpt>
      <trkpt lat="47.52039" lon="6.71721">
        <ele>410</ele>
        <time>2015-05-25T09:49:17.000Z</time>
      </trkpt>
      <trkpt lat="47.52037" lon="6.71726">
        <ele>410</ele>
        <time>2015-05-25T09:49:18.000Z</time>
      </trkpt>
      <trkpt lat="47.52035" lon="6.71732">
        <ele>409</ele>
        <time>2015-05-25T09:49:19.000Z</time>
      </trkpt>
      <trkpt lat="47.52034" lon="6.71739">
        <ele>409</ele>
        <time>2015-05-25T09:49:20.000Z</time>
      </trkpt>
      <trkpt lat="47.52033" lon="6.71745">
        <ele>409</ele>
        <time>2015-05-25T09:49:21.000Z</time>
      </trkpt>
      <trkpt lat="47.52032" lon="6.71751">
        <ele>406</ele>
        <time>2015-05-25T09:49:22.000Z</time>
      </trkpt>
      <trkpt lat="47.52029" lon="6.71765">
        <ele>405</ele>
        <time>2015-05-25T09:49:23.000Z</time>
      </trkpt>
      <trkpt lat="47.52027" lon="6.71773">
        <ele>405</ele>
        <time>2015-05-25T09:49:24.000Z</time>
      </trkpt>
      <trkpt lat="47.52026" lon="6.71782">
        <ele>405</ele>
        <time>2015-05-25T09:49:25.000Z</time>
      </trkpt>
      <trkpt lat="47.52026" lon="6.7179">
        <ele>404</ele>
        <time>2015-05-25T09:49:26.000Z</time>
      </trkpt>
      <trkpt lat="47.52025" lon="6.71796">
        <ele>404</ele>
        <time>2015-05-25T09:49:27.000Z</time>
      </trkpt>
      <trkpt lat="47.52024" lon="6.71806">
        <ele>404</ele>
        <time>2015-05-25T09:49:28.000Z</time>
      </trkpt>
      <trkpt lat="47.52023" lon="6.71814">
        <ele>403</ele>
        <time>2015-05-25T09:49:29.000Z</time>
      </trkpt>
      <trkpt lat="47.52021" lon="6.71826">
        <ele>403</ele>
        <time>2015-05-25T09:49:30.000Z</time>
      </trkpt>
      <trkpt lat="47.52018" lon="6.71834">
        <ele>401</ele>
        <time>2015-05-25T09:49:31.000Z</time>
      </trkpt>
      <trkpt lat="47.52017" lon="6.71845">
        <ele>401</ele>
        <time>2015-05-25T09:49:32.000Z</time>
      </trkpt>
      <trkpt lat="47.52018" lon="6.71859">
        <ele>400</ele>
        <time>2015-05-25T09:49:33.000Z</time>
      </trkpt>
      <trkpt lat="47.52017" lon="6.71873">
        <ele>400</ele>
        <time>2015-05-25T09:49:34.000Z</time>
      </trkpt>
      <trkpt lat="47.52016" lon="6.71885">
        <ele>400</ele>
        <time>2015-05-25T09:49:35.000Z</time>
      </trkpt>
      <trkpt lat="47.52017" lon="6.719">
        <ele>399</ele>
        <time>2015-05-25T09:49:36.000Z</time>
      </trkpt>
      <trkpt lat="47.52015" lon="6.71911">
        <ele>399</ele>
        <time>2015-05-25T09:49:37.000Z</time>
      </trkpt>
      <trkpt lat="47.52016" lon="6.71926">
        <ele>398</ele>
        <time>2015-05-25T09:49:38.000Z</time>
      </trkpt>
      <trkpt lat="47.52018" lon="6.71948">
        <ele>398</ele>
        <time>2015-05-25T09:49:39.000Z</time>
      </trkpt>
      <trkpt lat="47.52019" lon="6.71961">
        <ele>397</ele>
        <time>2015-05-25T09:49:40.000Z</time>
      </trkpt>
      <trkpt lat="47.5202" lon="6.71974">
        <ele>397</ele>
        <time>2015-05-25T09:49:41.000Z</time>
      </trkpt>
      <trkpt lat="47.52021" lon="6.71985">
        <ele>397</ele>
        <time>2015-05-25T09:49:42.000Z</time>
      </trkpt>
      <trkpt lat="47.52016" lon="6.71999">
        <ele>396</ele>
        <time>2015-05-25T09:49:43.000Z</time>
      </trkpt>
      <trkpt lat="47.52015" lon="6.7201">
        <ele>395</ele>
        <time>2015-05-25T09:49:44.000Z</time>
      </trkpt>
      <trkpt lat="47.52014" lon="6.72022">
        <ele>395</ele>
        <time>2015-05-25T09:49:45.000Z</time>
      </trkpt>
      <trkpt lat="47.52013" lon="6.72035">
        <ele>395</ele>
        <time>2015-05-25T09:49:46.000Z</time>
      </trkpt>
      <trkpt lat="47.52013" lon="6.72048">
        <ele>394</ele>
        <time>2015-05-25T09:49:47.000Z</time>
      </trkpt>
      <trkpt lat="47.52012" lon="6.72065">
        <ele>394</ele>
        <time>2015-05-25T09:49:48.000Z</time>
      </trkpt>
      <trkpt lat="47.52011" lon="6.72082">
        <ele>393</ele>
        <time>2015-05-25T09:49:49.000Z</time>
      </trkpt>
      <trkpt lat="47.52008" lon="6.72097">
        <ele>391</ele>
        <time>2015-05-25T09:49:50.000Z</time>
      </trkpt>
      <trkpt lat="47.52006" lon="6.72113">
        <ele>390</ele>
        <time>2015-05-25T09:49:51.000Z</time>
      </trkpt>
      <trkpt lat="47.52" lon="6.72126">
        <ele>390</ele>
        <time>2015-05-25T09:49:52.000Z</time>
      </trkpt>
      <trkpt lat="47.51996" lon="6.7214">
        <ele>387</ele>
        <time>2015-05-25T09:49:53.000Z</time>
      </trkpt>
      <trkpt lat="47.51992" lon="6.72153">
        <ele>387</ele>
        <time>2015-05-25T09:49:54.000Z</time>
      </trkpt>
      <trkpt lat="47.51988" lon="6.72166">
        <ele>386</ele>
        <time>2015-05-25T09:49:55.000Z</time>
      </trkpt>
      <trkpt lat="47.51984" lon="6.72178">
        <ele>384</ele>
        <time>2015-05-25T09:49:56.000Z</time>
      </trkpt>
      <trkpt lat="47.5198" lon="6.72189">
        <ele>384</ele>
        <time>2015-05-25T09:49:57.000Z</time>
      </trkpt>
      <trkpt lat="47.51972" lon="6.72196">
        <ele>383</ele>
        <time>2015-05-25T09:49:58.000Z</time>
      </trkpt>
      <trkpt lat="47.51965" lon="6.72199">
        <ele>383</ele>
        <time>2015-05-25T09:49:59.000Z</time>
      </trkpt>
      <trkpt lat="47.51958" lon="6.72203">
        <ele>383</ele>
        <time>2015-05-25T09:50:00.000Z</time>
      </trkpt>
      <trkpt lat="47.5195" lon="6.72204">
        <ele>382</ele>
        <time>2015-05-25T09:50:01.000Z</time>
      </trkpt>
      <trkpt lat="47.51942" lon="6.72199">
        <ele>382</ele>
        <time>2015-05-25T09:50:02.000Z</time>
      </trkpt>
      <trkpt lat="47.51938" lon="6.72198">
        <ele>382</ele>
        <time>2015-05-25T09:50:03.000Z</time>
      </trkpt>
      <trkpt lat="47.51932" lon="6.722">
        <ele>382</ele>
        <time>2015-05-25T09:50:04.000Z</time>
      </trkpt>
      <trkpt lat="47.51926" lon="6.72201">
        <ele>382</ele>
        <time>2015-05-25T09:50:05.000Z</time>
      </trkpt>
      <trkpt lat="47.51919" lon="6.72199">
        <ele>382</ele>
        <time>2015-05-25T09:50:06.000Z</time>
      </trkpt>
      <trkpt lat="47.51916" lon="6.72201">
        <ele>382</ele>
        <time>2015-05-25T09:50:10.000Z</time>
      </trkpt>
      <trkpt lat="47.51915" lon="6.72203">
        <ele>382</ele>
        <time>2015-05-25T09:50:11.000Z</time>
      </trkpt>
      <trkpt lat="47.51912" lon="6.72204">
        <ele>382</ele>
        <time>2015-05-25T09:50:12.000Z</time>
      </trkpt>
      <trkpt lat="47.5191" lon="6.72203">
        <ele>382</ele>
        <time>2015-05-25T09:50:13.000Z</time>
      </trkpt>
      <trkpt lat="47.51906" lon="6.72204">
        <ele>382</ele>
        <time>2015-05-25T09:50:14.000Z</time>
      </trkpt>
      <trkpt lat="47.51904" lon="6.72206">
        <ele>383</ele>
        <time>2015-05-25T09:50:15.000Z</time>
      </trkpt>
      <trkpt lat="47.51901" lon="6.72207">
        <ele>383</ele>
        <time>2015-05-25T09:50:16.000Z</time>
      </trkpt>
      <trkpt lat="47.51899" lon="6.72208">
        <ele>383</ele>
        <time>2015-05-25T09:50:17.000Z</time>
      </trkpt>
      <trkpt lat="47.51896" lon="6.72209">
        <ele>383</ele>
        <time>2015-05-25T09:50:18.000Z</time>
      </trkpt>
      <trkpt lat="47.51894" lon="6.72209">
        <ele>383</ele>
        <time>2015-05-25T09:50:19.000Z</time>
      </trkpt>
      <trkpt lat="47.5189" lon="6.7221">
        <ele>383</ele>
        <time>2015-05-25T09:50:21.000Z</time>
      </trkpt>
      <trkpt lat="47.51889" lon="6.7221">
        <ele>383</ele>
        <time>2015-05-25T09:50:22.000Z</time>
      </trkpt>
      <trkpt lat="47.51886" lon="6.72205">
        <ele>383</ele>
        <time>2015-05-25T09:50:27.000Z</time>
      </trkpt>
      <trkpt lat="47.51885" lon="6.72205">
        <ele>383</ele>
        <time>2015-05-25T09:50:28.000Z</time>
      </trkpt>
      <trkpt lat="47.51882" lon="6.72206">
        <ele>383</ele>
        <time>2015-05-25T09:50:32.000Z</time>
      </trkpt>
      <trkpt lat="47.5188" lon="6.72205">
        <ele>383</ele>
        <time>2015-05-25T09:50:33.000Z</time>
      </trkpt>
      <trkpt lat="47.51878" lon="6.72205">
        <ele>383</ele>
        <time>2015-05-25T09:50:34.000Z</time>
      </trkpt>
      <trkpt lat="47.51875" lon="6.72204">
        <ele>383</ele>
        <time>2015-05-25T09:50:35.000Z</time>
      </trkpt>
      <trkpt lat="47.51872" lon="6.72204">
        <ele>383</ele>
        <time>2015-05-25T09:50:36.000Z</time>
      </trkpt>
      <trkpt lat="47.51869" lon="6.72203">
        <ele>383</ele>
        <time>2015-05-25T09:50:37.000Z</time>
      </trkpt>
      <trkpt lat="47.51867" lon="6.72202">
        <ele>383</ele>
        <time>2015-05-25T09:50:38.000Z</time>
      </trkpt>
      <trkpt lat="47.51864" lon="6.72203">
        <ele>384</ele>
        <time>2015-05-25T09:50:39.000Z</time>
      </trkpt>
      <trkpt lat="47.51862" lon="6.72204">
        <ele>384</ele>
        <time>2015-05-25T09:50:40.000Z</time>
      </trkpt>
      <trkpt lat="47.5186" lon="6.72205">
        <ele>384</ele>
        <time>2015-05-25T09:50:41.000Z</time>
      </trkpt>
      <trkpt lat="47.51857" lon="6.72207">
        <ele>384</ele>
        <time>2015-05-25T09:50:42.000Z</time>
      </trkpt>
      <trkpt lat="47.51855" lon="6.72207">
        <ele>384</ele>
        <time>2015-05-25T09:50:43.000Z</time>
      </trkpt>
      <trkpt lat="47.51851" lon="6.72206">
        <ele>384</ele>
        <time>2015-05-25T09:50:45.000Z</time>
      </trkpt>
      <trkpt lat="47.51849" lon="6.72205">
        <ele>384</ele>
        <time>2015-05-25T09:50:46.000Z</time>
      </trkpt>
      <trkpt lat="47.51845" lon="6.72203">
        <ele>384</ele>
        <time>2015-05-25T09:50:48.000Z</time>
      </trkpt>
      <trkpt lat="47.51843" lon="6.72202">
        <ele>384</ele>
        <time>2015-05-25T09:50:49.000Z</time>
      </trkpt>
      <trkpt lat="47.51841" lon="6.72201">
        <ele>384</ele>
        <time>2015-05-25T09:50:50.000Z</time>
      </trkpt>
      <trkpt lat="47.51838" lon="6.722">
        <ele>384</ele>
        <time>2015-05-25T09:50:51.000Z</time>
      </trkpt>
      <trkpt lat="47.51834" lon="6.72198">
        <ele>384</ele>
        <time>2015-05-25T09:50:53.000Z</time>
      </trkpt>
      <trkpt lat="47.51833" lon="6.72197">
        <ele>387</ele>
        <time>2015-05-25T09:50:54.000Z</time>
      </trkpt>
      <trkpt lat="47.51829" lon="6.72194">
        <ele>387</ele>
        <time>2015-05-25T09:50:57.000Z</time>
      </trkpt>
      <trkpt lat="47.51828" lon="6.72193">
        <ele>387</ele>
        <time>2015-05-25T09:50:58.000Z</time>
      </trkpt>
      <trkpt lat="47.51825" lon="6.72192">
        <ele>387</ele>
        <time>2015-05-25T09:51:00.000Z</time>
      </trkpt>
      <trkpt lat="47.51823" lon="6.72191">
        <ele>387</ele>
        <time>2015-05-25T09:51:01.000Z</time>
      </trkpt>
      <trkpt lat="47.51818" lon="6.72189">
        <ele>388</ele>
        <time>2015-05-25T09:51:03.000Z</time>
      </trkpt>
      <trkpt lat="47.51816" lon="6.72188">
        <ele>388</ele>
        <time>2015-05-25T09:51:04.000Z</time>
      </trkpt>
      <trkpt lat="47.51814" lon="6.72185">
        <ele>388</ele>
        <time>2015-05-25T09:51:06.000Z</time>
      </trkpt>
      <trkpt lat="47.51812" lon="6.72184">
        <ele>388</ele>
        <time>2015-05-25T09:51:07.000Z</time>
      </trkpt>
      <trkpt lat="47.51809" lon="6.72182">
        <ele>388</ele>
        <time>2015-05-25T09:51:09.000Z</time>
      </trkpt>
      <trkpt lat="47.51806" lon="6.72181">
        <ele>388</ele>
        <time>2015-05-25T09:51:10.000Z</time>
      </trkpt>
      <trkpt lat="47.51803" lon="6.7218">
        <ele>388</ele>
        <time>2015-05-25T09:51:11.000Z</time>
      </trkpt>
      <trkpt lat="47.51801" lon="6.72179">
        <ele>388</ele>
        <time>2015-05-25T09:51:12.000Z</time>
      </trkpt>
      <trkpt lat="47.51798" lon="6.72178">
        <ele>388</ele>
        <time>2015-05-25T09:51:13.000Z</time>
      </trkpt>
      <trkpt lat="47.51795" lon="6.72177">
        <ele>388</ele>
        <time>2015-05-25T09:51:14.000Z</time>
      </trkpt>
      <trkpt lat="47.51793" lon="6.72176">
        <ele>389</ele>
        <time>2015-05-25T09:51:15.000Z</time>
      </trkpt>
      <trkpt lat="47.51791" lon="6.72175">
        <ele>389</ele>
        <time>2015-05-25T09:51:16.000Z</time>
      </trkpt>
      <trkpt lat="47.51788" lon="6.72175">
        <ele>389</ele>
        <time>2015-05-25T09:51:17.000Z</time>
      </trkpt>
      <trkpt lat="47.51784" lon="6.72174">
        <ele>389</ele>
        <time>2015-05-25T09:51:18.000Z</time>
      </trkpt>
      <trkpt lat="47.51781" lon="6.72173">
        <ele>389</ele>
        <time>2015-05-25T09:51:19.000Z</time>
      </trkpt>
      <trkpt lat="47.51777" lon="6.72173">
        <ele>389</ele>
        <time>2015-05-25T09:51:20.000Z</time>
      </trkpt>
      <trkpt lat="47.51774" lon="6.72173">
        <ele>390</ele>
        <time>2015-05-25T09:51:21.000Z</time>
      </trkpt>
      <trkpt lat="47.5177" lon="6.72173">
        <ele>390</ele>
        <time>2015-05-25T09:51:22.000Z</time>
      </trkpt>
      <trkpt lat="47.51767" lon="6.72172">
        <ele>390</ele>
        <time>2015-05-25T09:51:23.000Z</time>
      </trkpt>
      <trkpt lat="47.51763" lon="6.72172">
        <ele>390</ele>
        <time>2015-05-25T09:51:24.000Z</time>
      </trkpt>
      <trkpt lat="47.51761" lon="6.72172">
        <ele>391</ele>
        <time>2015-05-25T09:51:25.000Z</time>
      </trkpt>
      <trkpt lat="47.51759" lon="6.72173">
        <ele>391</ele>
        <time>2015-05-25T09:51:26.000Z</time>
      </trkpt>
      <trkpt lat="47.51756" lon="6.72173">
        <ele>391</ele>
        <time>2015-05-25T09:51:27.000Z</time>
      </trkpt>
      <trkpt lat="47.51754" lon="6.72173">
        <ele>391</ele>
        <time>2015-05-25T09:51:28.000Z</time>
      </trkpt>
      <trkpt lat="47.5175" lon="6.72173">
        <ele>391</ele>
        <time>2015-05-25T09:51:29.000Z</time>
      </trkpt>
      <trkpt lat="47.51747" lon="6.72173">
        <ele>392</ele>
        <time>2015-05-25T09:51:30.000Z</time>
      </trkpt>
      <trkpt lat="47.51744" lon="6.72173">
        <ele>392</ele>
        <time>2015-05-25T09:51:31.000Z</time>
      </trkpt>
      <trkpt lat="47.51741" lon="6.72174">
        <ele>392</ele>
        <time>2015-05-25T09:51:32.000Z</time>
      </trkpt>
      <trkpt lat="47.51738" lon="6.72175">
        <ele>391</ele>
        <time>2015-05-25T09:51:33.000Z</time>
      </trkpt>
      <trkpt lat="47.51736" lon="6.72176">
        <ele>391</ele>
        <time>2015-05-25T09:51:34.000Z</time>
      </trkpt>
      <trkpt lat="47.51732" lon="6.72179">
        <ele>391</ele>
        <time>2015-05-25T09:51:36.000Z</time>
      </trkpt>
      <trkpt lat="47.51731" lon="6.7218">
        <ele>391</ele>
        <time>2015-05-25T09:51:37.000Z</time>
      </trkpt>
      <trkpt lat="47.51728" lon="6.72182">
        <ele>391</ele>
        <time>2015-05-25T09:51:38.000Z</time>
      </trkpt>
      <trkpt lat="47.51725" lon="6.72185">
        <ele>391</ele>
        <time>2015-05-25T09:51:39.000Z</time>
      </trkpt>
      <trkpt lat="47.51722" lon="6.72187">
        <ele>391</ele>
        <time>2015-05-25T09:51:40.000Z</time>
      </trkpt>
      <trkpt lat="47.51718" lon="6.72189">
        <ele>391</ele>
        <time>2015-05-25T09:51:41.000Z</time>
      </trkpt>
      <trkpt lat="47.51716" lon="6.72191">
        <ele>391</ele>
        <time>2015-05-25T09:51:42.000Z</time>
      </trkpt>
      <trkpt lat="47.51714" lon="6.72191">
        <ele>391</ele>
        <time>2015-05-25T09:51:43.000Z</time>
      </trkpt>
      <trkpt lat="47.51709" lon="6.72192">
        <ele>391</ele>
        <time>2015-05-25T09:51:48.000Z</time>
      </trkpt>
      <trkpt lat="47.51709" lon="6.72192">
        <ele>391</ele>
        <time>2015-05-25T09:51:49.000Z</time>
      </trkpt>
      <trkpt lat="47.51705" lon="6.72195">
        <ele>391</ele>
        <time>2015-05-25T09:51:52.000Z</time>
      </trkpt>
      <trkpt lat="47.51704" lon="6.72196">
        <ele>391</ele>
        <time>2015-05-25T09:51:53.000Z</time>
      </trkpt>
      <trkpt lat="47.517" lon="6.72197">
        <ele>391</ele>
        <time>2015-05-25T09:51:55.000Z</time>
      </trkpt>
      <trkpt lat="47.51699" lon="6.72197">
        <ele>391</ele>
        <time>2015-05-25T09:51:56.000Z</time>
      </trkpt>
      <trkpt lat="47.51694" lon="6.72198">
        <ele>391</ele>
        <time>2015-05-25T09:52:00.000Z</time>
      </trkpt>
      <trkpt lat="47.51693" lon="6.72198">
        <ele>391</ele>
        <time>2015-05-25T09:52:01.000Z</time>
      </trkpt>
      <trkpt lat="47.5169" lon="6.72198">
        <ele>391</ele>
        <time>2015-05-25T09:52:04.000Z</time>
      </trkpt>
      <trkpt lat="47.51688" lon="6.72199">
        <ele>391</ele>
        <time>2015-05-25T09:52:05.000Z</time>
      </trkpt>
      <trkpt lat="47.51686" lon="6.72201">
        <ele>391</ele>
        <time>2015-05-25T09:52:06.000Z</time>
      </trkpt>
      <trkpt lat="47.51683" lon="6.72202">
        <ele>391</ele>
        <time>2015-05-25T09:52:07.000Z</time>
      </trkpt>
      <trkpt lat="47.5168" lon="6.72203">
        <ele>391</ele>
        <time>2015-05-25T09:52:08.000Z</time>
      </trkpt>
      <trkpt lat="47.51676" lon="6.72203">
        <ele>391</ele>
        <time>2015-05-25T09:52:09.000Z</time>
      </trkpt>
      <trkpt lat="47.51674" lon="6.72205">
        <ele>391</ele>
        <time>2015-05-25T09:52:10.000Z</time>
      </trkpt>
      <trkpt lat="47.51671" lon="6.72206">
        <ele>391</ele>
        <time>2015-05-25T09:52:11.000Z</time>
      </trkpt>
      <trkpt lat="47.51668" lon="6.72207">
        <ele>391</ele>
        <time>2015-05-25T09:52:12.000Z</time>
      </trkpt>
      <trkpt lat="47.51666" lon="6.72209">
        <ele>391</ele>
        <time>2015-05-25T09:52:13.000Z</time>
      </trkpt>
      <trkpt lat="47.51663" lon="6.7221">
        <ele>391</ele>
        <time>2015-05-25T09:52:14.000Z</time>
      </trkpt>
      <trkpt lat="47.51661" lon="6.72211">
        <ele>391</ele>
        <time>2015-05-25T09:52:15.000Z</time>
      </trkpt>
      <trkpt lat="47.51658" lon="6.72213">
        <ele>391</ele>
        <time>2015-05-25T09:52:17.000Z</time>
      </trkpt>
      <trkpt lat="47.51657" lon="6.72214">
        <ele>391</ele>
        <time>2015-05-25T09:52:18.000Z</time>
      </trkpt>
      <trkpt lat="47.51652" lon="6.72215">
        <ele>391</ele>
        <time>2015-05-25T09:52:22.000Z</time>
      </trkpt>
      <trkpt lat="47.51652" lon="6.72215">
        <ele>391</ele>
        <time>2015-05-25T09:52:23.000Z</time>
      </trkpt>
      <trkpt lat="47.51648" lon="6.72218">
        <ele>391</ele>
        <time>2015-05-25T09:52:27.000Z</time>
      </trkpt>
      <trkpt lat="47.51646" lon="6.72218">
        <ele>391</ele>
        <time>2015-05-25T09:52:28.000Z</time>
      </trkpt>
      <trkpt lat="47.51643" lon="6.72219">
        <ele>391</ele>
        <time>2015-05-25T09:52:30.000Z</time>
      </trkpt>
      <trkpt lat="47.51642" lon="6.7222">
        <ele>391</ele>
        <time>2015-05-25T09:52:31.000Z</time>
      </trkpt>
      <trkpt lat="47.51638" lon="6.72222">
        <ele>392</ele>
        <time>2015-05-25T09:52:34.000Z</time>
      </trkpt>
      <trkpt lat="47.51636" lon="6.72223">
        <ele>392</ele>
        <time>2015-05-25T09:52:35.000Z</time>
      </trkpt>
      <trkpt lat="47.51632" lon="6.72223">
        <ele>392</ele>
        <time>2015-05-25T09:52:38.000Z</time>
      </trkpt>
      <trkpt lat="47.51631" lon="6.72224">
        <ele>392</ele>
        <time>2015-05-25T09:52:39.000Z</time>
      </trkpt>
      <trkpt lat="47.51627" lon="6.72226">
        <ele>392</ele>
        <time>2015-05-25T09:52:42.000Z</time>
      </trkpt>
      <trkpt lat="47.51626" lon="6.72226">
        <ele>392</ele>
        <time>2015-05-25T09:52:43.000Z</time>
      </trkpt>
      <trkpt lat="47.51622" lon="6.72227">
        <ele>392</ele>
        <time>2015-05-25T09:52:46.000Z</time>
      </trkpt>
      <trkpt lat="47.51621" lon="6.72227">
        <ele>392</ele>
        <time>2015-05-25T09:52:47.000Z</time>
      </trkpt>
      <trkpt lat="47.51616" lon="6.72228">
        <ele>392</ele>
        <time>2015-05-25T09:52:51.000Z</time>
      </trkpt>
      <trkpt lat="47.51615" lon="6.72229">
        <ele>392</ele>
        <time>2015-05-25T09:52:52.000Z</time>
      </trkpt>
      <trkpt lat="47.51612" lon="6.7223">
        <ele>392</ele>
        <time>2015-05-25T09:52:54.000Z</time>
      </trkpt>
      <trkpt lat="47.5161" lon="6.72231">
        <ele>392</ele>
        <time>2015-05-25T09:52:55.000Z</time>
      </trkpt>
      <trkpt lat="47.51606" lon="6.72232">
        <ele>392</ele>
        <time>2015-05-25T09:52:58.000Z</time>
      </trkpt>
      <trkpt lat="47.51605" lon="6.72232">
        <ele>392</ele>
        <time>2015-05-25T09:52:59.000Z</time>
      </trkpt>
      <trkpt lat="47.51601" lon="6.72234">
        <ele>392</ele>
        <time>2015-05-25T09:53:03.000Z</time>
      </trkpt>
      <trkpt lat="47.516" lon="6.72235">
        <ele>392</ele>
        <time>2015-05-25T09:53:04.000Z</time>
      </trkpt>
      <trkpt lat="47.51597" lon="6.72237">
        <ele>392</ele>
        <time>2015-05-25T09:53:06.000Z</time>
      </trkpt>
      <trkpt lat="47.51596" lon="6.72238">
        <ele>392</ele>
        <time>2015-05-25T09:53:07.000Z</time>
      </trkpt>
      <trkpt lat="47.51592" lon="6.72239">
        <ele>392</ele>
        <time>2015-05-25T09:53:10.000Z</time>
      </trkpt>
      <trkpt lat="47.51589" lon="6.7224">
        <ele>392</ele>
        <time>2015-05-25T09:53:11.000Z</time>
      </trkpt>
      <trkpt lat="47.51587" lon="6.7224">
        <ele>393</ele>
        <time>2015-05-25T09:53:12.000Z</time>
      </trkpt>
      <trkpt lat="47.51584" lon="6.72241">
        <ele>393</ele>
        <time>2015-05-25T09:53:13.000Z</time>
      </trkpt>
      <trkpt lat="47.5158" lon="6.72242">
        <ele>394</ele>
        <time>2015-05-25T09:53:15.000Z</time>
      </trkpt>
      <trkpt lat="47.51578" lon="6.72243">
        <ele>394</ele>
        <time>2015-05-25T09:53:16.000Z</time>
      </trkpt>
      <trkpt lat="47.51575" lon="6.72244">
        <ele>394</ele>
        <time>2015-05-25T09:53:19.000Z</time>
      </trkpt>
      <trkpt lat="47.51574" lon="6.72245">
        <ele>394</ele>
        <time>2015-05-25T09:53:20.000Z</time>
      </trkpt>
      <trkpt lat="47.51571" lon="6.72246">
        <ele>395</ele>
        <time>2015-05-25T09:53:22.000Z</time>
      </trkpt>
      <trkpt lat="47.51568" lon="6.72246">
        <ele>395</ele>
        <time>2015-05-25T09:53:23.000Z</time>
      </trkpt>
      <trkpt lat="47.51565" lon="6.72246">
        <ele>395</ele>
        <time>2015-05-25T09:53:24.000Z</time>
      </trkpt>
      <trkpt lat="47.51563" lon="6.72246">
        <ele>395</ele>
        <time>2015-05-25T09:53:25.000Z</time>
      </trkpt>
      <trkpt lat="47.5156" lon="6.72249">
        <ele>395</ele>
        <time>2015-05-25T09:53:28.000Z</time>
      </trkpt>
      <trkpt lat="47.51558" lon="6.72249">
        <ele>395</ele>
        <time>2015-05-25T09:53:29.000Z</time>
      </trkpt>
      <trkpt lat="47.51555" lon="6.72248">
        <ele>396</ele>
        <time>2015-05-25T09:53:31.000Z</time>
      </trkpt>
      <trkpt lat="47.51554" lon="6.72248">
        <ele>396</ele>
        <time>2015-05-25T09:53:32.000Z</time>
      </trkpt>
      <trkpt lat="47.5155" lon="6.72249">
        <ele>396</ele>
        <time>2015-05-25T09:53:34.000Z</time>
      </trkpt>
      <trkpt lat="47.51549" lon="6.7225">
        <ele>396</ele>
        <time>2015-05-25T09:53:35.000Z</time>
      </trkpt>
      <trkpt lat="47.51545" lon="6.7225">
        <ele>398</ele>
        <time>2015-05-25T09:53:39.000Z</time>
      </trkpt>
      <trkpt lat="47.51544" lon="6.7225">
        <ele>398</ele>
        <time>2015-05-25T09:53:40.000Z</time>
      </trkpt>
      <trkpt lat="47.5154" lon="6.72251">
        <ele>399</ele>
        <time>2015-05-25T09:53:44.000Z</time>
      </trkpt>
      <trkpt lat="47.51538" lon="6.72251">
        <ele>399</ele>
        <time>2015-05-25T09:53:45.000Z</time>
      </trkpt>
      <trkpt lat="47.51535" lon="6.72252">
        <ele>399</ele>
        <time>2015-05-25T09:53:47.000Z</time>
      </trkpt>
      <trkpt lat="47.51533" lon="6.72252">
        <ele>399</ele>
        <time>2015-05-25T09:53:48.000Z</time>
      </trkpt>
      <trkpt lat="47.51529" lon="6.72252">
        <ele>399</ele>
        <time>2015-05-25T09:53:50.000Z</time>
      </trkpt>
      <trkpt lat="47.51527" lon="6.72253">
        <ele>399</ele>
        <time>2015-05-25T09:53:51.000Z</time>
      </trkpt>
      <trkpt lat="47.51523" lon="6.72254">
        <ele>400</ele>
        <time>2015-05-25T09:53:54.000Z</time>
      </trkpt>
      <trkpt lat="47.51522" lon="6.72255">
        <ele>400</ele>
        <time>2015-05-25T09:53:55.000Z</time>
      </trkpt>
      <trkpt lat="47.51519" lon="6.72258">
        <ele>400</ele>
        <time>2015-05-25T09:53:58.000Z</time>
      </trkpt>
      <trkpt lat="47.51517" lon="6.72259">
        <ele>400</ele>
        <time>2015-05-25T09:53:59.000Z</time>
      </trkpt>
      <trkpt lat="47.51513" lon="6.7226">
        <ele>400</ele>
        <time>2015-05-25T09:54:01.000Z</time>
      </trkpt>
      <trkpt lat="47.5151" lon="6.72261">
        <ele>400</ele>
        <time>2015-05-25T09:54:02.000Z</time>
      </trkpt>
      <trkpt lat="47.51508" lon="6.72262">
        <ele>400</ele>
        <time>2015-05-25T09:54:03.000Z</time>
      </trkpt>
      <trkpt lat="47.51506" lon="6.72263">
        <ele>400</ele>
        <time>2015-05-25T09:54:04.000Z</time>
      </trkpt>
      <trkpt lat="47.51503" lon="6.72266">
        <ele>400</ele>
        <time>2015-05-25T09:54:06.000Z</time>
      </trkpt>
      <trkpt lat="47.51501" lon="6.72268">
        <ele>400</ele>
        <time>2015-05-25T09:54:07.000Z</time>
      </trkpt>
      <trkpt lat="47.51498" lon="6.72272">
        <ele>404</ele>
        <time>2015-05-25T09:54:09.000Z</time>
      </trkpt>
      <trkpt lat="47.51497" lon="6.72274">
        <ele>405</ele>
        <time>2015-05-25T09:54:10.000Z</time>
      </trkpt>
      <trkpt lat="47.51494" lon="6.72276">
        <ele>405</ele>
        <time>2015-05-25T09:54:11.000Z</time>
      </trkpt>
      <trkpt lat="47.51493" lon="6.72277">
        <ele>405</ele>
        <time>2015-05-25T09:54:12.000Z</time>
      </trkpt>
      <trkpt lat="47.51489" lon="6.72281">
        <ele>405</ele>
        <time>2015-05-25T09:54:16.000Z</time>
      </trkpt>
      <trkpt lat="47.51489" lon="6.72283">
        <ele>406</ele>
        <time>2015-05-25T09:54:17.000Z</time>
      </trkpt>
      <trkpt lat="47.51487" lon="6.72288">
        <ele>406</ele>
        <time>2015-05-25T09:54:20.000Z</time>
      </trkpt>
      <trkpt lat="47.51486" lon="6.72291">
        <ele>406</ele>
        <time>2015-05-25T09:54:21.000Z</time>
      </trkpt>
      <trkpt lat="47.51485" lon="6.72296">
        <ele>406</ele>
        <time>2015-05-25T09:54:23.000Z</time>
      </trkpt>
      <trkpt lat="47.51485" lon="6.72299">
        <ele>406</ele>
        <time>2015-05-25T09:54:24.000Z</time>
      </trkpt>
      <trkpt lat="47.51484" lon="6.72303">
        <ele>407</ele>
        <time>2015-05-25T09:54:26.000Z</time>
      </trkpt>
      <trkpt lat="47.51483" lon="6.72306">
        <ele>407</ele>
        <time>2015-05-25T09:54:27.000Z</time>
      </trkpt>
      <trkpt lat="47.51482" lon="6.72311">
        <ele>407</ele>
        <time>2015-05-25T09:54:29.000Z</time>
      </trkpt>
      <trkpt lat="47.51481" lon="6.72313">
        <ele>407</ele>
        <time>2015-05-25T09:54:30.000Z</time>
      </trkpt>
      <trkpt lat="47.5148" lon="6.72318">
        <ele>407</ele>
        <time>2015-05-25T09:54:32.000Z</time>
      </trkpt>
      <trkpt lat="47.51479" lon="6.7232">
        <ele>407</ele>
        <time>2015-05-25T09:54:33.000Z</time>
      </trkpt>
      <trkpt lat="47.51477" lon="6.72325">
        <ele>407</ele>
        <time>2015-05-25T09:54:35.000Z</time>
      </trkpt>
      <trkpt lat="47.51476" lon="6.72327">
        <ele>407</ele>
        <time>2015-05-25T09:54:36.000Z</time>
      </trkpt>
      <trkpt lat="47.51474" lon="6.72332">
        <ele>408</ele>
        <time>2015-05-25T09:54:38.000Z</time>
      </trkpt>
      <trkpt lat="47.51474" lon="6.72334">
        <ele>412</ele>
        <time>2015-05-25T09:54:39.000Z</time>
      </trkpt>
      <trkpt lat="47.51474" lon="6.72339">
        <ele>412</ele>
        <time>2015-05-25T09:54:41.000Z</time>
      </trkpt>
      <trkpt lat="47.51475" lon="6.72343">
        <ele>412</ele>
        <time>2015-05-25T09:54:42.000Z</time>
      </trkpt>
      <trkpt lat="47.51476" lon="6.72347">
        <ele>412</ele>
        <time>2015-05-25T09:54:43.000Z</time>
      </trkpt>
      <trkpt lat="47.51477" lon="6.72349">
        <ele>412</ele>
        <time>2015-05-25T09:54:44.000Z</time>
      </trkpt>
      <trkpt lat="47.51478" lon="6.72354">
        <ele>412</ele>
        <time>2015-05-25T09:54:48.000Z</time>
      </trkpt>
      <trkpt lat="47.51479" lon="6.72357">
        <ele>412</ele>
        <time>2015-05-25T09:54:49.000Z</time>
      </trkpt>
      <trkpt lat="47.5148" lon="6.7236">
        <ele>413</ele>
        <time>2015-05-25T09:54:51.000Z</time>
      </trkpt>
      <trkpt lat="47.51481" lon="6.72362">
        <ele>413</ele>
        <time>2015-05-25T09:54:52.000Z</time>
      </trkpt>
      <trkpt lat="47.51483" lon="6.72367">
        <ele>413</ele>
        <time>2015-05-25T09:54:54.000Z</time>
      </trkpt>
      <trkpt lat="47.51484" lon="6.72369">
        <ele>413</ele>
        <time>2015-05-25T09:54:55.000Z</time>
      </trkpt>
      <trkpt lat="47.51486" lon="6.72373">
        <ele>413</ele>
        <time>2015-05-25T09:54:57.000Z</time>
      </trkpt>
      <trkpt lat="47.51487" lon="6.72374">
        <ele>413</ele>
        <time>2015-05-25T09:54:58.000Z</time>
      </trkpt>
      <trkpt lat="47.51488" lon="6.72381">
        <ele>414</ele>
        <time>2015-05-25T09:55:03.000Z</time>
      </trkpt>
      <trkpt lat="47.51488" lon="6.72381">
        <ele>414</ele>
        <time>2015-05-25T09:55:04.000Z</time>
      </trkpt>
      <trkpt lat="47.51485" lon="6.72386">
        <ele>414</ele>
        <time>2015-05-25T09:55:09.000Z</time>
      </trkpt>
      <trkpt lat="47.51484" lon="6.72386">
        <ele>414</ele>
        <time>2015-05-25T09:55:10.000Z</time>
      </trkpt>
      <trkpt lat="47.51482" lon="6.7239">
        <ele>414</ele>
        <time>2015-05-25T09:55:16.000Z</time>
      </trkpt>
      <trkpt lat="47.51481" lon="6.72391">
        <ele>414</ele>
        <time>2015-05-25T09:55:17.000Z</time>
      </trkpt>
      <trkpt lat="47.51478" lon="6.72393">
        <ele>414</ele>
        <time>2015-05-25T09:55:20.000Z</time>
      </trkpt>
      <trkpt lat="47.51477" lon="6.72393">
        <ele>414</ele>
        <time>2015-05-25T09:55:21.000Z</time>
      </trkpt>
      <trkpt lat="47.51474" lon="6.72396">
        <ele>415</ele>
        <time>2015-05-25T09:55:24.000Z</time>
      </trkpt>
      <trkpt lat="47.51473" lon="6.72397">
        <ele>415</ele>
        <time>2015-05-25T09:55:25.000Z</time>
      </trkpt>
      <trkpt lat="47.51469" lon="6.72399">
        <ele>415</ele>
        <time>2015-05-25T09:55:28.000Z</time>
      </trkpt>
      <trkpt lat="47.51468" lon="6.724">
        <ele>415</ele>
        <time>2015-05-25T09:55:29.000Z</time>
      </trkpt>
      <trkpt lat="47.51464" lon="6.72403">
        <ele>415</ele>
        <time>2015-05-25T09:55:34.000Z</time>
      </trkpt>
      <trkpt lat="47.51464" lon="6.72404">
        <ele>415</ele>
        <time>2015-05-25T09:55:35.000Z</time>
      </trkpt>
      <trkpt lat="47.5146" lon="6.72407">
        <ele>415</ele>
        <time>2015-05-25T09:55:38.000Z</time>
      </trkpt>
      <trkpt lat="47.51458" lon="6.72407">
        <ele>416</ele>
        <time>2015-05-25T09:55:39.000Z</time>
      </trkpt>
      <trkpt lat="47.51454" lon="6.7241">
        <ele>416</ele>
        <time>2015-05-25T09:55:42.000Z</time>
      </trkpt>
      <trkpt lat="47.51453" lon="6.72411">
        <ele>416</ele>
        <time>2015-05-25T09:55:43.000Z</time>
      </trkpt>
      <trkpt lat="47.51449" lon="6.72412">
        <ele>416</ele>
        <time>2015-05-25T09:55:46.000Z</time>
      </trkpt>
      <trkpt lat="47.51447" lon="6.72412">
        <ele>416</ele>
        <time>2015-05-25T09:55:47.000Z</time>
      </trkpt>
      <trkpt lat="47.51444" lon="6.72413">
        <ele>417</ele>
        <time>2015-05-25T09:55:49.000Z</time>
      </trkpt>
      <trkpt lat="47.51442" lon="6.72414">
        <ele>417</ele>
        <time>2015-05-25T09:55:50.000Z</time>
      </trkpt>
      <trkpt lat="47.51438" lon="6.72415">
        <ele>417</ele>
        <time>2015-05-25T09:55:52.000Z</time>
      </trkpt>
      <trkpt lat="47.51436" lon="6.72416">
        <ele>418</ele>
        <time>2015-05-25T09:55:53.000Z</time>
      </trkpt>
      <trkpt lat="47.51433" lon="6.72417">
        <ele>421</ele>
        <time>2015-05-25T09:55:54.000Z</time>
      </trkpt>
      <trkpt lat="47.51431" lon="6.72418">
        <ele>421</ele>
        <time>2015-05-25T09:55:55.000Z</time>
      </trkpt>
      <trkpt lat="47.51427" lon="6.72419">
        <ele>421</ele>
        <time>2015-05-25T09:55:57.000Z</time>
      </trkpt>
      <trkpt lat="47.51426" lon="6.72419">
        <ele>421</ele>
        <time>2015-05-25T09:55:58.000Z</time>
      </trkpt>
      <trkpt lat="47.51422" lon="6.72419">
        <ele>421</ele>
        <time>2015-05-25T09:56:01.000Z</time>
      </trkpt>
      <trkpt lat="47.51421" lon="6.72419">
        <ele>421</ele>
        <time>2015-05-25T09:56:02.000Z</time>
      </trkpt>
      <trkpt lat="47.51416" lon="6.72421">
        <ele>422</ele>
        <time>2015-05-25T09:56:05.000Z</time>
      </trkpt>
      <trkpt lat="47.51414" lon="6.72422">
        <ele>422</ele>
        <time>2015-05-25T09:56:06.000Z</time>
      </trkpt>
      <trkpt lat="47.51411" lon="6.72424">
        <ele>423</ele>
        <time>2015-05-25T09:56:09.000Z</time>
      </trkpt>
      <trkpt lat="47.51409" lon="6.72426">
        <ele>423</ele>
        <time>2015-05-25T09:56:10.000Z</time>
      </trkpt>
      <trkpt lat="47.51405" lon="6.72428">
        <ele>424</ele>
        <time>2015-05-25T09:56:16.000Z</time>
      </trkpt>
      <trkpt lat="47.51404" lon="6.72428">
        <ele>424</ele>
        <time>2015-05-25T09:56:17.000Z</time>
      </trkpt>
      <trkpt lat="47.51401" lon="6.72429">
        <ele>425</ele>
        <time>2015-05-25T09:56:19.000Z</time>
      </trkpt>
      <trkpt lat="47.514" lon="6.72429">
        <ele>425</ele>
        <time>2015-05-25T09:56:20.000Z</time>
      </trkpt>
      <trkpt lat="47.51396" lon="6.7243">
        <ele>425</ele>
        <time>2015-05-25T09:56:23.000Z</time>
      </trkpt>
      <trkpt lat="47.51394" lon="6.72431">
        <ele>425</ele>
        <time>2015-05-25T09:56:24.000Z</time>
      </trkpt>
      <trkpt lat="47.51391" lon="6.72432">
        <ele>426</ele>
        <time>2015-05-25T09:56:26.000Z</time>
      </trkpt>
      <trkpt lat="47.51389" lon="6.72434">
        <ele>426</ele>
        <time>2015-05-25T09:56:27.000Z</time>
      </trkpt>
      <trkpt lat="47.51386" lon="6.72438">
        <ele>426</ele>
        <time>2015-05-25T09:56:29.000Z</time>
      </trkpt>
      <trkpt lat="47.51385" lon="6.7244">
        <ele>426</ele>
        <time>2015-05-25T09:56:30.000Z</time>
      </trkpt>
      <trkpt lat="47.51383" lon="6.72446">
        <ele>427</ele>
        <time>2015-05-25T09:56:32.000Z</time>
      </trkpt>
      <trkpt lat="47.51382" lon="6.72449">
        <ele>427</ele>
        <time>2015-05-25T09:56:33.000Z</time>
      </trkpt>
      <trkpt lat="47.51382" lon="6.72454">
        <ele>427</ele>
        <time>2015-05-25T09:56:35.000Z</time>
      </trkpt>
      <trkpt lat="47.51382" lon="6.72457">
        <ele>427</ele>
        <time>2015-05-25T09:56:36.000Z</time>
      </trkpt>
      <trkpt lat="47.51382" lon="6.72463">
        <ele>427</ele>
        <time>2015-05-25T09:56:38.000Z</time>
      </trkpt>
      <trkpt lat="47.51381" lon="6.72466">
        <ele>427</ele>
        <time>2015-05-25T09:56:39.000Z</time>
      </trkpt>
      <trkpt lat="47.51381" lon="6.7247">
        <ele>427</ele>
        <time>2015-05-25T09:56:40.000Z</time>
      </trkpt>
      <trkpt lat="47.51381" lon="6.72473">
        <ele>427</ele>
        <time>2015-05-25T09:56:41.000Z</time>
      </trkpt>
      <trkpt lat="47.51381" lon="6.7248">
        <ele>427</ele>
        <time>2015-05-25T09:56:43.000Z</time>
      </trkpt>
      <trkpt lat="47.51381" lon="6.72483">
        <ele>427</ele>
        <time>2015-05-25T09:56:44.000Z</time>
      </trkpt>
      <trkpt lat="47.51382" lon="6.72489">
        <ele>427</ele>
        <time>2015-05-25T09:56:46.000Z</time>
      </trkpt>
      <trkpt lat="47.51382" lon="6.72492">
        <ele>427</ele>
        <time>2015-05-25T09:56:47.000Z</time>
      </trkpt>
      <trkpt lat="47.51382" lon="6.72496">
        <ele>427</ele>
        <time>2015-05-25T09:56:48.000Z</time>
      </trkpt>
      <trkpt lat="47.51382" lon="6.725">
        <ele>427</ele>
        <time>2015-05-25T09:56:49.000Z</time>
      </trkpt>
      <trkpt lat="47.51381" lon="6.72503">
        <ele>427</ele>
        <time>2015-05-25T09:56:50.000Z</time>
      </trkpt>
      <trkpt lat="47.51381" lon="6.72507">
        <ele>427</ele>
        <time>2015-05-25T09:56:51.000Z</time>
      </trkpt>
      <trkpt lat="47.5138" lon="6.72512">
        <ele>427</ele>
        <time>2015-05-25T09:56:52.000Z</time>
      </trkpt>
      <trkpt lat="47.51379" lon="6.72516">
        <ele>427</ele>
        <time>2015-05-25T09:56:53.000Z</time>
      </trkpt>
      <trkpt lat="47.51378" lon="6.72519">
        <ele>427</ele>
        <time>2015-05-25T09:56:54.000Z</time>
      </trkpt>
      <trkpt lat="47.51377" lon="6.72523">
        <ele>427</ele>
        <time>2015-05-25T09:56:55.000Z</time>
      </trkpt>
      <trkpt lat="47.51376" lon="6.72526">
        <ele>427</ele>
        <time>2015-05-25T09:56:56.000Z</time>
      </trkpt>
      <trkpt lat="47.51375" lon="6.72529">
        <ele>426</ele>
        <time>2015-05-25T09:56:57.000Z</time>
      </trkpt>
      <trkpt lat="47.51373" lon="6.72535">
        <ele>426</ele>
        <time>2015-05-25T09:56:59.000Z</time>
      </trkpt>
      <trkpt lat="47.51373" lon="6.72538">
        <ele>426</ele>
        <time>2015-05-25T09:57:00.000Z</time>
      </trkpt>
      <trkpt lat="47.51373" lon="6.72544">
        <ele>426</ele>
        <time>2015-05-25T09:57:02.000Z</time>
      </trkpt>
      <trkpt lat="47.51373" lon="6.72547">
        <ele>426</ele>
        <time>2015-05-25T09:57:03.000Z</time>
      </trkpt>
      <trkpt lat="47.51373" lon="6.72551">
        <ele>426</ele>
        <time>2015-05-25T09:57:04.000Z</time>
      </trkpt>
      <trkpt lat="47.51373" lon="6.72554">
        <ele>426</ele>
        <time>2015-05-25T09:57:05.000Z</time>
      </trkpt>
      <trkpt lat="47.51373" lon="6.72558">
        <ele>426</ele>
        <time>2015-05-25T09:57:06.000Z</time>
      </trkpt>
      <trkpt lat="47.51374" lon="6.72561">
        <ele>426</ele>
        <time>2015-05-25T09:57:07.000Z</time>
      </trkpt>
      <trkpt lat="47.51375" lon="6.72567">
        <ele>427</ele>
        <time>2015-05-25T09:57:09.000Z</time>
      </trkpt>
      <trkpt lat="47.51376" lon="6.7257">
        <ele>427</ele>
        <time>2015-05-25T09:57:10.000Z</time>
      </trkpt>
      <trkpt lat="47.51376" lon="6.72574">
        <ele>427</ele>
        <time>2015-05-25T09:57:11.000Z</time>
      </trkpt>
      <trkpt lat="47.51377" lon="6.72577">
        <ele>427</ele>
        <time>2015-05-25T09:57:12.000Z</time>
      </trkpt>
      <trkpt lat="47.51377" lon="6.72581">
        <ele>427</ele>
        <time>2015-05-25T09:57:13.000Z</time>
      </trkpt>
      <trkpt lat="47.51377" lon="6.72584">
        <ele>427</ele>
        <time>2015-05-25T09:57:14.000Z</time>
      </trkpt>
      <trkpt lat="47.51375" lon="6.7259">
        <ele>427</ele>
        <time>2015-05-25T09:57:16.000Z</time>
      </trkpt>
      <trkpt lat="47.51374" lon="6.72591">
        <ele>427</ele>
        <time>2015-05-25T09:57:17.000Z</time>
      </trkpt>
      <trkpt lat="47.5137" lon="6.72593">
        <ele>426</ele>
        <time>2015-05-25T09:57:20.000Z</time>
      </trkpt>
      <trkpt lat="47.51369" lon="6.72594">
        <ele>426</ele>
        <time>2015-05-25T09:57:21.000Z</time>
      </trkpt>
      <trkpt lat="47.51367" lon="6.72598">
        <ele>426</ele>
        <time>2015-05-25T09:57:27.000Z</time>
      </trkpt>
      <trkpt lat="47.51366" lon="6.72599">
        <ele>426</ele>
        <time>2015-05-25T09:57:28.000Z</time>
      </trkpt>
      <trkpt lat="47.51363" lon="6.72601">
        <ele>426</ele>
        <time>2015-05-25T09:57:30.000Z</time>
      </trkpt>
      <trkpt lat="47.51361" lon="6.72602">
        <ele>426</ele>
        <time>2015-05-25T09:57:31.000Z</time>
      </trkpt>
      <trkpt lat="47.51358" lon="6.72603">
        <ele>426</ele>
        <time>2015-05-25T09:57:33.000Z</time>
      </trkpt>
      <trkpt lat="47.51356" lon="6.72605">
        <ele>426</ele>
        <time>2015-05-25T09:57:34.000Z</time>
      </trkpt>
      <trkpt lat="47.51353" lon="6.72604">
        <ele>426</ele>
        <time>2015-05-25T09:57:37.000Z</time>
      </trkpt>
      <trkpt lat="47.51352" lon="6.72602">
        <ele>426</ele>
        <time>2015-05-25T09:57:38.000Z</time>
      </trkpt>
      <trkpt lat="47.51349" lon="6.72599">
        <ele>426</ele>
        <time>2015-05-25T09:57:40.000Z</time>
      </trkpt>
      <trkpt lat="47.51348" lon="6.72597">
        <ele>425</ele>
        <time>2015-05-25T09:57:40.998Z</time>
      </trkpt>
      <trkpt lat="47.51345" lon="6.72596">
        <ele>425</ele>
        <time>2015-05-25T09:57:42.000Z</time>
      </trkpt>
      <trkpt lat="47.51343" lon="6.72595">
        <ele>425</ele>
        <time>2015-05-25T09:57:43.000Z</time>
      </trkpt>
      <trkpt lat="47.51341" lon="6.7259">
        <ele>425</ele>
        <time>2015-05-25T09:57:46.000Z</time>
      </trkpt>
      <trkpt lat="47.5134" lon="6.72588">
        <ele>425</ele>
        <time>2015-05-25T09:57:47.000Z</time>
      </trkpt>
      <trkpt lat="47.51337" lon="6.72587">
        <ele>424</ele>
        <time>2015-05-25T09:57:48.000Z</time>
      </trkpt>
      <trkpt lat="47.51334" lon="6.72585">
        <ele>424</ele>
        <time>2015-05-25T09:57:49.000Z</time>
      </trkpt>
      <trkpt lat="47.51331" lon="6.72582">
        <ele>424</ele>
        <time>2015-05-25T09:57:50.000Z</time>
      </trkpt>
      <trkpt lat="47.51328" lon="6.7258">
        <ele>425</ele>
        <time>2015-05-25T09:57:51.000Z</time>
      </trkpt>
      <trkpt lat="47.51325" lon="6.72577">
        <ele>425</ele>
        <time>2015-05-25T09:57:52.000Z</time>
      </trkpt>
      <trkpt lat="47.51321" lon="6.72576">
        <ele>425</ele>
        <time>2015-05-25T09:57:53.000Z</time>
      </trkpt>
      <trkpt lat="47.51318" lon="6.72575">
        <ele>426</ele>
        <time>2015-05-25T09:57:54.000Z</time>
      </trkpt>
      <trkpt lat="47.51314" lon="6.72574">
        <ele>426</ele>
        <time>2015-05-25T09:57:55.000Z</time>
      </trkpt>
      <trkpt lat="47.51311" lon="6.72573">
        <ele>426</ele>
        <time>2015-05-25T09:57:56.000Z</time>
      </trkpt>
      <trkpt lat="47.51309" lon="6.72573">
        <ele>426</ele>
        <time>2015-05-25T09:57:57.000Z</time>
      </trkpt>
      <trkpt lat="47.51306" lon="6.72572">
        <ele>426</ele>
        <time>2015-05-25T09:57:58.000Z</time>
      </trkpt>
      <trkpt lat="47.51303" lon="6.72572">
        <ele>426</ele>
        <time>2015-05-25T09:57:59.000Z</time>
      </trkpt>
      <trkpt lat="47.51301" lon="6.72572">
        <ele>426</ele>
        <time>2015-05-25T09:58:00.000Z</time>
      </trkpt>
      <trkpt lat="47.51298" lon="6.72572">
        <ele>427</ele>
        <time>2015-05-25T09:58:01.000Z</time>
      </trkpt>
      <trkpt lat="47.51295" lon="6.72572">
        <ele>427</ele>
        <time>2015-05-25T09:58:02.000Z</time>
      </trkpt>
      <trkpt lat="47.51291" lon="6.72571">
        <ele>427</ele>
        <time>2015-05-25T09:58:03.000Z</time>
      </trkpt>
      <trkpt lat="47.51288" lon="6.7257">
        <ele>427</ele>
        <time>2015-05-25T09:58:04.000Z</time>
      </trkpt>
      <trkpt lat="47.51284" lon="6.72569">
        <ele>427</ele>
        <time>2015-05-25T09:58:05.000Z</time>
      </trkpt>
      <trkpt lat="47.5128" lon="6.72568">
        <ele>427</ele>
        <time>2015-05-25T09:58:06.000Z</time>
      </trkpt>
      <trkpt lat="47.51275" lon="6.72568">
        <ele>427</ele>
        <time>2015-05-25T09:58:07.000Z</time>
      </trkpt>
      <trkpt lat="47.51271" lon="6.72567">
        <ele>427</ele>
        <time>2015-05-25T09:58:08.000Z</time>
      </trkpt>
      <trkpt lat="47.51268" lon="6.72567">
        <ele>427</ele>
        <time>2015-05-25T09:58:09.000Z</time>
      </trkpt>
      <trkpt lat="47.51265" lon="6.72566">
        <ele>427</ele>
        <time>2015-05-25T09:58:10.000Z</time>
      </trkpt>
      <trkpt lat="47.51261" lon="6.72565">
        <ele>427</ele>
        <time>2015-05-25T09:58:11.000Z</time>
      </trkpt>
      <trkpt lat="47.51259" lon="6.72564">
        <ele>427</ele>
        <time>2015-05-25T09:58:12.000Z</time>
      </trkpt>
      <trkpt lat="47.51256" lon="6.72563">
        <ele>427</ele>
        <time>2015-05-25T09:58:13.000Z</time>
      </trkpt>
      <trkpt lat="47.51254" lon="6.72561">
        <ele>427</ele>
        <time>2015-05-25T09:58:14.000Z</time>
      </trkpt>
      <trkpt lat="47.51252" lon="6.72559">
        <ele>427</ele>
        <time>2015-05-25T09:58:15.000Z</time>
      </trkpt>
      <trkpt lat="47.51248" lon="6.72556">
        <ele>429</ele>
        <time>2015-05-25T09:58:16.998Z</time>
      </trkpt>
      <trkpt lat="47.51244" lon="6.72556">
        <ele>429</ele>
        <time>2015-05-25T09:58:18.000Z</time>
      </trkpt>
      <trkpt lat="47.51242" lon="6.72556">
        <ele>429</ele>
        <time>2015-05-25T09:58:19.000Z</time>
      </trkpt>
      <trkpt lat="47.51239" lon="6.72555">
        <ele>429</ele>
        <time>2015-05-25T09:58:20.000Z</time>
      </trkpt>
      <trkpt lat="47.51237" lon="6.72555">
        <ele>429</ele>
        <time>2015-05-25T09:58:21.000Z</time>
      </trkpt>
      <trkpt lat="47.51234" lon="6.72554">
        <ele>430</ele>
        <time>2015-05-25T09:58:22.000Z</time>
      </trkpt>
      <trkpt lat="47.51232" lon="6.72553">
        <ele>430</ele>
        <time>2015-05-25T09:58:23.000Z</time>
      </trkpt>
      <trkpt lat="47.51229" lon="6.72551">
        <ele>430</ele>
        <time>2015-05-25T09:58:24.000Z</time>
      </trkpt>
      <trkpt lat="47.51227" lon="6.7255">
        <ele>430</ele>
        <time>2015-05-25T09:58:25.000Z</time>
      </trkpt>
      <trkpt lat="47.51225" lon="6.72548">
        <ele>430</ele>
        <time>2015-05-25T09:58:26.000Z</time>
      </trkpt>
      <trkpt lat="47.51222" lon="6.72547">
        <ele>430</ele>
        <time>2015-05-25T09:58:27.000Z</time>
      </trkpt>
      <trkpt lat="47.5122" lon="6.72545">
        <ele>430</ele>
        <time>2015-05-25T09:58:28.000Z</time>
      </trkpt>
      <trkpt lat="47.51218" lon="6.72544">
        <ele>430</ele>
        <time>2015-05-25T09:58:29.000Z</time>
      </trkpt>
      <trkpt lat="47.51215" lon="6.72543">
        <ele>430</ele>
        <time>2015-05-25T09:58:30.000Z</time>
      </trkpt>
      <trkpt lat="47.51211" lon="6.72542">
        <ele>430</ele>
        <time>2015-05-25T09:58:32.000Z</time>
      </trkpt>
      <trkpt lat="47.51209" lon="6.72541">
        <ele>431</ele>
        <time>2015-05-25T09:58:33.000Z</time>
      </trkpt>
      <trkpt lat="47.51205" lon="6.72541">
        <ele>431</ele>
        <time>2015-05-25T09:58:36.000Z</time>
      </trkpt>
      <trkpt lat="47.51203" lon="6.72541">
        <ele>431</ele>
        <time>2015-05-25T09:58:37.000Z</time>
      </trkpt>
      <trkpt lat="47.512" lon="6.7254">
        <ele>431</ele>
        <time>2015-05-25T09:58:39.000Z</time>
      </trkpt>
      <trkpt lat="47.51198" lon="6.72541">
        <ele>431</ele>
        <time>2015-05-25T09:58:40.000Z</time>
      </trkpt>
      <trkpt lat="47.51194" lon="6.72542">
        <ele>431</ele>
        <time>2015-05-25T09:58:42.000Z</time>
      </trkpt>
      <trkpt lat="47.51191" lon="6.72543">
        <ele>431</ele>
        <time>2015-05-25T09:58:43.000Z</time>
      </trkpt>
      <trkpt lat="47.51189" lon="6.72545">
        <ele>430</ele>
        <time>2015-05-25T09:58:44.000Z</time>
      </trkpt>
      <trkpt lat="47.51186" lon="6.72547">
        <ele>430</ele>
        <time>2015-05-25T09:58:45.000Z</time>
      </trkpt>
      <trkpt lat="47.51183" lon="6.7255">
        <ele>430</ele>
        <time>2015-05-25T09:58:46.000Z</time>
      </trkpt>
      <trkpt lat="47.5118" lon="6.72552">
        <ele>430</ele>
        <time>2015-05-25T09:58:47.000Z</time>
      </trkpt>
      <trkpt lat="47.51177" lon="6.72555">
        <ele>430</ele>
        <time>2015-05-25T09:58:48.000Z</time>
      </trkpt>
      <trkpt lat="47.51174" lon="6.72558">
        <ele>430</ele>
        <time>2015-05-25T09:58:49.000Z</time>
      </trkpt>
      <trkpt lat="47.51169" lon="6.7256">
        <ele>430</ele>
        <time>2015-05-25T09:58:50.000Z</time>
      </trkpt>
      <trkpt lat="47.51164" lon="6.72563">
        <ele>430</ele>
        <time>2015-05-25T09:58:51.000Z</time>
      </trkpt>
      <trkpt lat="47.51158" lon="6.72566">
        <ele>430</ele>
        <time>2015-05-25T09:58:52.000Z</time>
      </trkpt>
      <trkpt lat="47.51153" lon="6.72568">
        <ele>430</ele>
        <time>2015-05-25T09:58:53.000Z</time>
      </trkpt>
      <trkpt lat="47.51148" lon="6.7257">
        <ele>430</ele>
        <time>2015-05-25T09:58:54.000Z</time>
      </trkpt>
      <trkpt lat="47.51144" lon="6.72573">
        <ele>430</ele>
        <time>2015-05-25T09:58:55.000Z</time>
      </trkpt>
      <trkpt lat="47.5114" lon="6.72575">
        <ele>430</ele>
        <time>2015-05-25T09:58:56.000Z</time>
      </trkpt>
      <trkpt lat="47.51136" lon="6.72578">
        <ele>430</ele>
        <time>2015-05-25T09:58:57.000Z</time>
      </trkpt>
      <trkpt lat="47.51131" lon="6.72581">
        <ele>430</ele>
        <time>2015-05-25T09:58:58.000Z</time>
      </trkpt>
      <trkpt lat="47.51127" lon="6.72583">
        <ele>426</ele>
        <time>2015-05-25T09:58:59.000Z</time>
      </trkpt>
      <trkpt lat="47.51123" lon="6.72586">
        <ele>426</ele>
        <time>2015-05-25T09:59:00.000Z</time>
      </trkpt>
      <trkpt lat="47.51119" lon="6.72589">
        <ele>426</ele>
        <time>2015-05-25T09:59:01.000Z</time>
      </trkpt>
      <trkpt lat="47.51115" lon="6.72592">
        <ele>426</ele>
        <time>2015-05-25T09:59:02.000Z</time>
      </trkpt>
      <trkpt lat="47.51111" lon="6.72594">
        <ele>426</ele>
        <time>2015-05-25T09:59:03.000Z</time>
      </trkpt>
      <trkpt lat="47.51108" lon="6.72597">
        <ele>426</ele>
        <time>2015-05-25T09:59:04.000Z</time>
      </trkpt>
      <trkpt lat="47.51104" lon="6.726">
        <ele>426</ele>
        <time>2015-05-25T09:59:05.000Z</time>
      </trkpt>
      <trkpt lat="47.511" lon="6.72603">
        <ele>426</ele>
        <time>2015-05-25T09:59:06.000Z</time>
      </trkpt>
      <trkpt lat="47.51094" lon="6.72606">
        <ele>426</ele>
        <time>2015-05-25T09:59:07.000Z</time>
      </trkpt>
      <trkpt lat="47.51089" lon="6.72609">
        <ele>426</ele>
        <time>2015-05-25T09:59:08.000Z</time>
      </trkpt>
      <trkpt lat="47.51083" lon="6.72613">
        <ele>426</ele>
        <time>2015-05-25T09:59:09.000Z</time>
      </trkpt>
      <trkpt lat="47.51077" lon="6.72617">
        <ele>426</ele>
        <time>2015-05-25T09:59:10.000Z</time>
      </trkpt>
      <trkpt lat="47.51071" lon="6.72621">
        <ele>426</ele>
        <time>2015-05-25T09:59:11.000Z</time>
      </trkpt>
      <trkpt lat="47.51066" lon="6.72625">
        <ele>426</ele>
        <time>2015-05-25T09:59:12.000Z</time>
      </trkpt>
      <trkpt lat="47.51061" lon="6.72629">
        <ele>425</ele>
        <time>2015-05-25T09:59:13.000Z</time>
      </trkpt>
      <trkpt lat="47.51056" lon="6.72632">
        <ele>425</ele>
        <time>2015-05-25T09:59:14.000Z</time>
      </trkpt>
      <trkpt lat="47.51051" lon="6.72636">
        <ele>425</ele>
        <time>2015-05-25T09:59:15.000Z</time>
      </trkpt>
      <trkpt lat="47.51046" lon="6.72641">
        <ele>425</ele>
        <time>2015-05-25T09:59:16.000Z</time>
      </trkpt>
      <trkpt lat="47.5104" lon="6.72646">
        <ele>426</ele>
        <time>2015-05-25T09:59:17.000Z</time>
      </trkpt>
      <trkpt lat="47.51035" lon="6.7265">
        <ele>426</ele>
        <time>2015-05-25T09:59:18.000Z</time>
      </trkpt>
      <trkpt lat="47.5103" lon="6.72655">
        <ele>426</ele>
        <time>2015-05-25T09:59:19.000Z</time>
      </trkpt>
      <trkpt lat="47.51025" lon="6.7266">
        <ele>426</ele>
        <time>2015-05-25T09:59:20.000Z</time>
      </trkpt>
      <trkpt lat="47.51019" lon="6.72665">
        <ele>426</ele>
        <time>2015-05-25T09:59:21.000Z</time>
      </trkpt>
      <trkpt lat="47.51014" lon="6.72671">
        <ele>426</ele>
        <time>2015-05-25T09:59:22.000Z</time>
      </trkpt>
      <trkpt lat="47.51008" lon="6.72676">
        <ele>426</ele>
        <time>2015-05-25T09:59:23.000Z</time>
      </trkpt>
      <trkpt lat="47.51004" lon="6.7268">
        <ele>426</ele>
        <time>2015-05-25T09:59:24.000Z</time>
      </trkpt>
      <trkpt lat="47.50999" lon="6.72683">
        <ele>428</ele>
        <time>2015-05-25T09:59:25.000Z</time>
      </trkpt>
      <trkpt lat="47.50994" lon="6.72686">
        <ele>428</ele>
        <time>2015-05-25T09:59:26.000Z</time>
      </trkpt>
      <trkpt lat="47.50991" lon="6.72689">
        <ele>428</ele>
        <time>2015-05-25T09:59:27.000Z</time>
      </trkpt>
      <trkpt lat="47.50987" lon="6.72691">
        <ele>428</ele>
        <time>2015-05-25T09:59:28.000Z</time>
      </trkpt>
      <trkpt lat="47.50984" lon="6.72693">
        <ele>428</ele>
        <time>2015-05-25T09:59:29.000Z</time>
      </trkpt>
      <trkpt lat="47.50981" lon="6.72696">
        <ele>428</ele>
        <time>2015-05-25T09:59:30.000Z</time>
      </trkpt>
      <trkpt lat="47.50978" lon="6.727">
        <ele>428</ele>
        <time>2015-05-25T09:59:31.000Z</time>
      </trkpt>
      <trkpt lat="47.50974" lon="6.72706">
        <ele>428</ele>
        <time>2015-05-25T09:59:32.000Z</time>
      </trkpt>
      <trkpt lat="47.5097" lon="6.7271">
        <ele>428</ele>
        <time>2015-05-25T09:59:33.000Z</time>
      </trkpt>
      <trkpt lat="47.50967" lon="6.72715">
        <ele>428</ele>
        <time>2015-05-25T09:59:34.000Z</time>
      </trkpt>
      <trkpt lat="47.50964" lon="6.72721">
        <ele>428</ele>
        <time>2015-05-25T09:59:35.000Z</time>
      </trkpt>
      <trkpt lat="47.50961" lon="6.72727">
        <ele>428</ele>
        <time>2015-05-25T09:59:36.000Z</time>
      </trkpt>
      <trkpt lat="47.50958" lon="6.72732">
        <ele>428</ele>
        <time>2015-05-25T09:59:37.000Z</time>
      </trkpt>
      <trkpt lat="47.50956" lon="6.72736">
        <ele>428</ele>
        <time>2015-05-25T09:59:38.000Z</time>
      </trkpt>
      <trkpt lat="47.50954" lon="6.72741">
        <ele>429</ele>
        <time>2015-05-25T09:59:39.000Z</time>
      </trkpt>
      <trkpt lat="47.50951" lon="6.72746">
        <ele>429</ele>
        <time>2015-05-25T09:59:40.000Z</time>
      </trkpt>
      <trkpt lat="47.50949" lon="6.72751">
        <ele>428</ele>
        <time>2015-05-25T09:59:41.000Z</time>
      </trkpt>
      <trkpt lat="47.50947" lon="6.72756">
        <ele>428</ele>
        <time>2015-05-25T09:59:42.000Z</time>
      </trkpt>
      <trkpt lat="47.50945" lon="6.72762">
        <ele>428</ele>
        <time>2015-05-25T09:59:43.000Z</time>
      </trkpt>
      <trkpt lat="47.50944" lon="6.72768">
        <ele>428</ele>
        <time>2015-05-25T09:59:44.000Z</time>
      </trkpt>
      <trkpt lat="47.50943" lon="6.72773">
        <ele>428</ele>
        <time>2015-05-25T09:59:45.000Z</time>
      </trkpt>
      <trkpt lat="47.50941" lon="6.72778">
        <ele>428</ele>
        <time>2015-05-25T09:59:46.000Z</time>
      </trkpt>
      <trkpt lat="47.5094" lon="6.72781">
        <ele>428</ele>
        <time>2015-05-25T09:59:47.000Z</time>
      </trkpt>
      <trkpt lat="47.50938" lon="6.72784">
        <ele>428</ele>
        <time>2015-05-25T09:59:48.000Z</time>
      </trkpt>
      <trkpt lat="47.50936" lon="6.72787">
        <ele>428</ele>
        <time>2015-05-25T09:59:49.000Z</time>
      </trkpt>
      <trkpt lat="47.50934" lon="6.7279">
        <ele>428</ele>
        <time>2015-05-25T09:59:50.000Z</time>
      </trkpt>
      <trkpt lat="47.50932" lon="6.72793">
        <ele>428</ele>
        <time>2015-05-25T09:59:51.000Z</time>
      </trkpt>
      <trkpt lat="47.5093" lon="6.72797">
        <ele>428</ele>
        <time>2015-05-25T09:59:52.000Z</time>
      </trkpt>
      <trkpt lat="47.50928" lon="6.72802">
        <ele>428</ele>
        <time>2015-05-25T09:59:53.000Z</time>
      </trkpt>
      <trkpt lat="47.50926" lon="6.72807">
        <ele>429</ele>
        <time>2015-05-25T09:59:54.000Z</time>
      </trkpt>
      <trkpt lat="47.50923" lon="6.72811">
        <ele>429</ele>
        <time>2015-05-25T09:59:55.000Z</time>
      </trkpt>
      <trkpt lat="47.50921" lon="6.72815">
        <ele>429</ele>
        <time>2015-05-25T09:59:56.000Z</time>
      </trkpt>
      <trkpt lat="47.50919" lon="6.72819">
        <ele>429</ele>
        <time>2015-05-25T09:59:57.000Z</time>
      </trkpt>
      <trkpt lat="47.50916" lon="6.72825">
        <ele>431</ele>
        <time>2015-05-25T09:59:58.000Z</time>
      </trkpt>
      <trkpt lat="47.50914" lon="6.7283">
        <ele>431</ele>
        <time>2015-05-25T09:59:59.000Z</time>
      </trkpt>
      <trkpt lat="47.50911" lon="6.72837">
        <ele>431</ele>
        <time>2015-05-25T10:00:00.000Z</time>
      </trkpt>
      <trkpt lat="47.50909" lon="6.72842">
        <ele>431</ele>
        <time>2015-05-25T10:00:01.000Z</time>
      </trkpt>
      <trkpt lat="47.50907" lon="6.72848">
        <ele>431</ele>
        <time>2015-05-25T10:00:02.000Z</time>
      </trkpt>
      <trkpt lat="47.50905" lon="6.72853">
        <ele>431</ele>
        <time>2015-05-25T10:00:03.000Z</time>
      </trkpt>
      <trkpt lat="47.50903" lon="6.72858">
        <ele>431</ele>
        <time>2015-05-25T10:00:04.000Z</time>
      </trkpt>
      <trkpt lat="47.509" lon="6.72863">
        <ele>431</ele>
        <time>2015-05-25T10:00:05.000Z</time>
      </trkpt>
      <trkpt lat="47.50897" lon="6.72869">
        <ele>431</ele>
        <time>2015-05-25T10:00:06.000Z</time>
      </trkpt>
      <trkpt lat="47.50895" lon="6.72874">
        <ele>431</ele>
        <time>2015-05-25T10:00:07.000Z</time>
      </trkpt>
      <trkpt lat="47.50892" lon="6.72879">
        <ele>431</ele>
        <time>2015-05-25T10:00:08.000Z</time>
      </trkpt>
      <trkpt lat="47.5089" lon="6.72884">
        <ele>431</ele>
        <time>2015-05-25T10:00:09.000Z</time>
      </trkpt>
      <trkpt lat="47.50888" lon="6.72889">
        <ele>431</ele>
        <time>2015-05-25T10:00:10.000Z</time>
      </trkpt>
      <trkpt lat="47.50886" lon="6.72895">
        <ele>431</ele>
        <time>2015-05-25T10:00:11.000Z</time>
      </trkpt>
      <trkpt lat="47.50884" lon="6.72901">
        <ele>431</ele>
        <time>2015-05-25T10:00:12.000Z</time>
      </trkpt>
      <trkpt lat="47.50882" lon="6.72908">
        <ele>431</ele>
        <time>2015-05-25T10:00:13.000Z</time>
      </trkpt>
      <trkpt lat="47.5088" lon="6.72915">
        <ele>431</ele>
        <time>2015-05-25T10:00:14.000Z</time>
      </trkpt>
      <trkpt lat="47.50878" lon="6.72923">
        <ele>431</ele>
        <time>2015-05-25T10:00:15.000Z</time>
      </trkpt>
      <trkpt lat="47.50875" lon="6.7293">
        <ele>431</ele>
        <time>2015-05-25T10:00:16.000Z</time>
      </trkpt>
      <trkpt lat="47.50873" lon="6.72938">
        <ele>431</ele>
        <time>2015-05-25T10:00:17.000Z</time>
      </trkpt>
      <trkpt lat="47.50871" lon="6.72945">
        <ele>431</ele>
        <time>2015-05-25T10:00:18.000Z</time>
      </trkpt>
      <trkpt lat="47.50868" lon="6.72951">
        <ele>432</ele>
        <time>2015-05-25T10:00:19.000Z</time>
      </trkpt>
      <trkpt lat="47.50866" lon="6.72957">
        <ele>432</ele>
        <time>2015-05-25T10:00:20.000Z</time>
      </trkpt>
      <trkpt lat="47.50865" lon="6.72979">
        <ele>432</ele>
        <time>2015-05-25T10:00:21.000Z</time>
      </trkpt>
      <trkpt lat="47.50864" lon="6.7299">
        <ele>432</ele>
        <time>2015-05-25T10:00:22.000Z</time>
      </trkpt>
      <trkpt lat="47.50863" lon="6.72999">
        <ele>432</ele>
        <time>2015-05-25T10:00:23.000Z</time>
      </trkpt>
      <trkpt lat="47.50861" lon="6.73007">
        <ele>432</ele>
        <time>2015-05-25T10:00:24.000Z</time>
      </trkpt>
      <trkpt lat="47.50862" lon="6.73017">
        <ele>431</ele>
        <time>2015-05-25T10:00:25.000Z</time>
      </trkpt>
      <trkpt lat="47.50861" lon="6.73027">
        <ele>431</ele>
        <time>2015-05-25T10:00:26.000Z</time>
      </trkpt>
      <trkpt lat="47.50859" lon="6.73035">
        <ele>431</ele>
        <time>2015-05-25T10:00:27.000Z</time>
      </trkpt>
      <trkpt lat="47.50856" lon="6.73042">
        <ele>431</ele>
        <time>2015-05-25T10:00:28.000Z</time>
      </trkpt>
      <trkpt lat="47.50853" lon="6.73051">
        <ele>432</ele>
        <time>2015-05-25T10:00:29.000Z</time>
      </trkpt>
      <trkpt lat="47.5085" lon="6.7306">
        <ele>432</ele>
        <time>2015-05-25T10:00:30.000Z</time>
      </trkpt>
      <trkpt lat="47.50847" lon="6.73066">
        <ele>432</ele>
        <time>2015-05-25T10:00:31.000Z</time>
      </trkpt>
      <trkpt lat="47.50844" lon="6.73078">
        <ele>433</ele>
        <time>2015-05-25T10:00:32.000Z</time>
      </trkpt>
      <trkpt lat="47.50841" lon="6.73088">
        <ele>432</ele>
        <time>2015-05-25T10:00:33.000Z</time>
      </trkpt>
      <trkpt lat="47.50838" lon="6.73096">
        <ele>431</ele>
        <time>2015-05-25T10:00:34.000Z</time>
      </trkpt>
      <trkpt lat="47.50837" lon="6.73107">
        <ele>430</ele>
        <time>2015-05-25T10:00:35.000Z</time>
      </trkpt>
      <trkpt lat="47.50835" lon="6.73118">
        <ele>429</ele>
        <time>2015-05-25T10:00:36.000Z</time>
      </trkpt>
      <trkpt lat="47.5083" lon="6.73129">
        <ele>428</ele>
        <time>2015-05-25T10:00:37.000Z</time>
      </trkpt>
      <trkpt lat="47.50827" lon="6.73137">
        <ele>427</ele>
        <time>2015-05-25T10:00:38.000Z</time>
      </trkpt>
      <trkpt lat="47.50821" lon="6.73146">
        <ele>427</ele>
        <time>2015-05-25T10:00:39.000Z</time>
      </trkpt>
      <trkpt lat="47.50816" lon="6.73154">
        <ele>426</ele>
        <time>2015-05-25T10:00:40.000Z</time>
      </trkpt>
      <trkpt lat="47.5081" lon="6.73161">
        <ele>426</ele>
        <time>2015-05-25T10:00:41.000Z</time>
      </trkpt>
      <trkpt lat="47.50805" lon="6.73166">
        <ele>426</ele>
        <time>2015-05-25T10:00:42.000Z</time>
      </trkpt>
      <trkpt lat="47.50801" lon="6.73173">
        <ele>422</ele>
        <time>2015-05-25T10:00:43.000Z</time>
      </trkpt>
      <trkpt lat="47.50797" lon="6.73185">
        <ele>421</ele>
        <time>2015-05-25T10:00:44.000Z</time>
      </trkpt>
      <trkpt lat="47.50792" lon="6.73194">
        <ele>420</ele>
        <time>2015-05-25T10:00:45.000Z</time>
      </trkpt>
      <trkpt lat="47.50788" lon="6.73205">
        <ele>420</ele>
        <time>2015-05-25T10:00:46.000Z</time>
      </trkpt>
      <trkpt lat="47.50784" lon="6.73217">
        <ele>419</ele>
        <time>2015-05-25T10:00:47.000Z</time>
      </trkpt>
      <trkpt lat="47.50781" lon="6.73229">
        <ele>419</ele>
        <time>2015-05-25T10:00:48.000Z</time>
      </trkpt>
      <trkpt lat="47.50777" lon="6.73241">
        <ele>418</ele>
        <time>2015-05-25T10:00:49.000Z</time>
      </trkpt>
      <trkpt lat="47.50769" lon="6.73249">
        <ele>418</ele>
        <time>2015-05-25T10:00:50.000Z</time>
      </trkpt>
      <trkpt lat="47.50762" lon="6.73257">
        <ele>413</ele>
        <time>2015-05-25T10:00:51.000Z</time>
      </trkpt>
      <trkpt lat="47.50756" lon="6.73269">
        <ele>412</ele>
        <time>2015-05-25T10:00:52.000Z</time>
      </trkpt>
      <trkpt lat="47.50751" lon="6.73281">
        <ele>410</ele>
        <time>2015-05-25T10:00:53.000Z</time>
      </trkpt>
      <trkpt lat="47.50745" lon="6.73291">
        <ele>408</ele>
        <time>2015-05-25T10:00:54.000Z</time>
      </trkpt>
      <trkpt lat="47.50739" lon="6.73298">
        <ele>407</ele>
        <time>2015-05-25T10:00:55.000Z</time>
      </trkpt>
      <trkpt lat="47.50735" lon="6.73309">
        <ele>406</ele>
        <time>2015-05-25T10:00:56.000Z</time>
      </trkpt>
      <trkpt lat="47.50731" lon="6.73319">
        <ele>406</ele>
        <time>2015-05-25T10:00:57.000Z</time>
      </trkpt>
      <trkpt lat="47.50726" lon="6.7333">
        <ele>406</ele>
        <time>2015-05-25T10:00:58.000Z</time>
      </trkpt>
      <trkpt lat="47.5072" lon="6.73338">
        <ele>400</ele>
        <time>2015-05-25T10:00:59.000Z</time>
      </trkpt>
      <trkpt lat="47.50713" lon="6.73342">
        <ele>399</ele>
        <time>2015-05-25T10:01:00.000Z</time>
      </trkpt>
      <trkpt lat="47.50711" lon="6.73347">
        <ele>399</ele>
        <time>2015-05-25T10:01:01.000Z</time>
      </trkpt>
      <trkpt lat="47.50706" lon="6.73356">
        <ele>398</ele>
        <time>2015-05-25T10:01:02.000Z</time>
      </trkpt>
      <trkpt lat="47.50701" lon="6.73364">
        <ele>398</ele>
        <time>2015-05-25T10:01:03.000Z</time>
      </trkpt>
      <trkpt lat="47.50697" lon="6.73373">
        <ele>397</ele>
        <time>2015-05-25T10:01:04.000Z</time>
      </trkpt>
      <trkpt lat="47.50693" lon="6.73384">
        <ele>397</ele>
        <time>2015-05-25T10:01:05.000Z</time>
      </trkpt>
      <trkpt lat="47.5069" lon="6.73399">
        <ele>397</ele>
        <time>2015-05-25T10:01:06.000Z</time>
      </trkpt>
      <trkpt lat="47.50684" lon="6.7341">
        <ele>397</ele>
        <time>2015-05-25T10:01:07.000Z</time>
      </trkpt>
      <trkpt lat="47.50679" lon="6.7342">
        <ele>392</ele>
        <time>2015-05-25T10:01:08.000Z</time>
      </trkpt>
      <trkpt lat="47.50673" lon="6.7343">
        <ele>392</ele>
        <time>2015-05-25T10:01:09.000Z</time>
      </trkpt>
      <trkpt lat="47.50668" lon="6.73438">
        <ele>390</ele>
        <time>2015-05-25T10:01:10.000Z</time>
      </trkpt>
      <trkpt lat="47.50663" lon="6.73446">
        <ele>388</ele>
        <time>2015-05-25T10:01:11.000Z</time>
      </trkpt>
      <trkpt lat="47.50662" lon="6.73457">
        <ele>387</ele>
        <time>2015-05-25T10:01:12.000Z</time>
      </trkpt>
      <trkpt lat="47.50657" lon="6.73464">
        <ele>386</ele>
        <time>2015-05-25T10:01:13.000Z</time>
      </trkpt>
      <trkpt lat="47.50654" lon="6.73468">
        <ele>386</ele>
        <time>2015-05-25T10:01:14.000Z</time>
      </trkpt>
      <trkpt lat="47.5065" lon="6.7347">
        <ele>386</ele>
        <time>2015-05-25T10:01:15.000Z</time>
      </trkpt>
      <trkpt lat="47.50647" lon="6.73476">
        <ele>385</ele>
        <time>2015-05-25T10:01:16.000Z</time>
      </trkpt>
      <trkpt lat="47.50644" lon="6.73488">
        <ele>385</ele>
        <time>2015-05-25T10:01:17.000Z</time>
      </trkpt>
      <trkpt lat="47.50643" lon="6.73497">
        <ele>385</ele>
        <time>2015-05-25T10:01:18.000Z</time>
      </trkpt>
      <trkpt lat="47.5064" lon="6.73503">
        <ele>381</ele>
        <time>2015-05-25T10:01:19.000Z</time>
      </trkpt>
      <trkpt lat="47.5064" lon="6.73507">
        <ele>381</ele>
        <time>2015-05-25T10:01:20.000Z</time>
      </trkpt>
      <trkpt lat="47.50639" lon="6.73512">
        <ele>380</ele>
        <time>2015-05-25T10:01:21.000Z</time>
      </trkpt>
      <trkpt lat="47.50631" lon="6.73512">
        <ele>380</ele>
        <time>2015-05-25T10:01:22.000Z</time>
      </trkpt>
      <trkpt lat="47.50631" lon="6.73518">
        <ele>380</ele>
        <time>2015-05-25T10:01:23.000Z</time>
      </trkpt>
      <trkpt lat="47.50629" lon="6.73521">
        <ele>379</ele>
        <time>2015-05-25T10:01:24.000Z</time>
      </trkpt>
      <trkpt lat="47.50627" lon="6.73523">
        <ele>379</ele>
        <time>2015-05-25T10:01:25.000Z</time>
      </trkpt>
      <trkpt lat="47.50625" lon="6.73525">
        <ele>379</ele>
        <time>2015-05-25T10:01:26.000Z</time>
      </trkpt>
      <trkpt lat="47.50623" lon="6.7353">
        <ele>379</ele>
        <time>2015-05-25T10:01:30.000Z</time>
      </trkpt>
      <trkpt lat="47.50623" lon="6.73531">
        <ele>379</ele>
        <time>2015-05-25T10:01:31.000Z</time>
      </trkpt>
      <trkpt lat="47.50625" lon="6.73536">
        <ele>379</ele>
        <time>2015-05-25T10:02:48.000Z</time>
      </trkpt>
      <trkpt lat="47.50626" lon="6.73537">
        <ele>379</ele>
        <time>2015-05-25T10:02:49.000Z</time>
      </trkpt>
      <trkpt lat="47.50629" lon="6.73541">
        <ele>379</ele>
        <time>2015-05-25T10:02:52.000Z</time>
      </trkpt>
      <trkpt lat="47.5063" lon="6.73544">
        <ele>379</ele>
        <time>2015-05-25T10:02:53.000Z</time>
      </trkpt>
      <trkpt lat="47.50631" lon="6.73547">
        <ele>379</ele>
        <time>2015-05-25T10:02:54.000Z</time>
      </trkpt>
      <trkpt lat="47.50632" lon="6.7355">
        <ele>378</ele>
        <time>2015-05-25T10:02:55.000Z</time>
      </trkpt>
      <trkpt lat="47.50633" lon="6.73555">
        <ele>378</ele>
        <time>2015-05-25T10:02:56.000Z</time>
      </trkpt>
      <trkpt lat="47.50635" lon="6.73559">
        <ele>378</ele>
        <time>2015-05-25T10:02:57.000Z</time>
      </trkpt>
      <trkpt lat="47.50636" lon="6.73565">
        <ele>377</ele>
        <time>2015-05-25T10:02:58.000Z</time>
      </trkpt>
      <trkpt lat="47.50638" lon="6.7357">
        <ele>377</ele>
        <time>2015-05-25T10:02:59.000Z</time>
      </trkpt>
      <trkpt lat="47.5064" lon="6.73576">
        <ele>377</ele>
        <time>2015-05-25T10:03:00.000Z</time>
      </trkpt>
      <trkpt lat="47.50642" lon="6.73581">
        <ele>376</ele>
        <time>2015-05-25T10:03:01.000Z</time>
      </trkpt>
      <trkpt lat="47.50647" lon="6.73596">
        <ele>373</ele>
        <time>2015-05-25T10:03:02.000Z</time>
      </trkpt>
      <trkpt lat="47.50652" lon="6.73606">
        <ele>373</ele>
        <time>2015-05-25T10:03:03.000Z</time>
      </trkpt>
      <trkpt lat="47.50656" lon="6.73618">
        <ele>372</ele>
        <time>2015-05-25T10:03:04.000Z</time>
      </trkpt>
      <trkpt lat="47.50658" lon="6.73628">
        <ele>371</ele>
        <time>2015-05-25T10:03:05.000Z</time>
      </trkpt>
      <trkpt lat="47.50658" lon="6.73636">
        <ele>371</ele>
        <time>2015-05-25T10:03:06.000Z</time>
      </trkpt>
      <trkpt lat="47.50657" lon="6.73644">
        <ele>370</ele>
        <time>2015-05-25T10:03:07.000Z</time>
      </trkpt>
      <trkpt lat="47.50657" lon="6.73651">
        <ele>368</ele>
        <time>2015-05-25T10:03:08.000Z</time>
      </trkpt>
      <trkpt lat="47.50657" lon="6.73659">
        <ele>367</ele>
        <time>2015-05-25T10:03:09.000Z</time>
      </trkpt>
      <trkpt lat="47.50655" lon="6.73667">
        <ele>367</ele>
        <time>2015-05-25T10:03:10.000Z</time>
      </trkpt>
      <trkpt lat="47.50655" lon="6.73674">
        <ele>366</ele>
        <time>2015-05-25T10:03:11.000Z</time>
      </trkpt>
      <trkpt lat="47.50654" lon="6.7368">
        <ele>367</ele>
        <time>2015-05-25T10:03:12.000Z</time>
      </trkpt>
      <trkpt lat="47.50654" lon="6.73687">
        <ele>368</ele>
        <time>2015-05-25T10:03:13.000Z</time>
      </trkpt>
      <trkpt lat="47.50654" lon="6.73694">
        <ele>368</ele>
        <time>2015-05-25T10:03:14.000Z</time>
      </trkpt>
      <trkpt lat="47.50653" lon="6.737">
        <ele>369</ele>
        <time>2015-05-25T10:03:15.000Z</time>
      </trkpt>
      <trkpt lat="47.50651" lon="6.73705">
        <ele>369</ele>
        <time>2015-05-25T10:03:16.000Z</time>
      </trkpt>
      <trkpt lat="47.50651" lon="6.73712">
        <ele>369</ele>
        <time>2015-05-25T10:03:17.000Z</time>
      </trkpt>
      <trkpt lat="47.50651" lon="6.73719">
        <ele>369</ele>
        <time>2015-05-25T10:03:18.000Z</time>
      </trkpt>
      <trkpt lat="47.50652" lon="6.73726">
        <ele>368</ele>
        <time>2015-05-25T10:03:19.000Z</time>
      </trkpt>
      <trkpt lat="47.50651" lon="6.73732">
        <ele>368</ele>
        <time>2015-05-25T10:03:20.000Z</time>
      </trkpt>
      <trkpt lat="47.50651" lon="6.7374">
        <ele>367</ele>
        <time>2015-05-25T10:03:21.000Z</time>
      </trkpt>
      <trkpt lat="47.50651" lon="6.73747">
        <ele>367</ele>
        <time>2015-05-25T10:03:22.000Z</time>
      </trkpt>
      <trkpt lat="47.50651" lon="6.73756">
        <ele>367</ele>
        <time>2015-05-25T10:03:23.000Z</time>
      </trkpt>
      <trkpt lat="47.50652" lon="6.73765">
        <ele>367</ele>
        <time>2015-05-25T10:03:24.000Z</time>
      </trkpt>
      <trkpt lat="47.50652" lon="6.73774">
        <ele>368</ele>
        <time>2015-05-25T10:03:25.000Z</time>
      </trkpt>
      <trkpt lat="47.50652" lon="6.73784">
        <ele>368</ele>
        <time>2015-05-25T10:03:26.000Z</time>
      </trkpt>
      <trkpt lat="47.50652" lon="6.73794">
        <ele>368</ele>
        <time>2015-05-25T10:03:27.000Z</time>
      </trkpt>
      <trkpt lat="47.50652" lon="6.73805">
        <ele>368</ele>
        <time>2015-05-25T10:03:28.000Z</time>
      </trkpt>
      <trkpt lat="47.5065" lon="6.73815">
        <ele>367</ele>
        <time>2015-05-25T10:03:29.000Z</time>
      </trkpt>
      <trkpt lat="47.50648" lon="6.73826">
        <ele>366</ele>
        <time>2015-05-25T10:03:30.000Z</time>
      </trkpt>
      <trkpt lat="47.50647" lon="6.73838">
        <ele>365</ele>
        <time>2015-05-25T10:03:31.000Z</time>
      </trkpt>
      <trkpt lat="47.50645" lon="6.7385">
        <ele>365</ele>
        <time>2015-05-25T10:03:32.000Z</time>
      </trkpt>
      <trkpt lat="47.50643" lon="6.7386">
        <ele>366</ele>
        <time>2015-05-25T10:03:33.000Z</time>
      </trkpt>
      <trkpt lat="47.50642" lon="6.7387">
        <ele>366</ele>
        <time>2015-05-25T10:03:34.000Z</time>
      </trkpt>
      <trkpt lat="47.50638" lon="6.7388">
        <ele>366</ele>
        <time>2015-05-25T10:03:35.000Z</time>
      </trkpt>
      <trkpt lat="47.50633" lon="6.73889">
        <ele>366</ele>
        <time>2015-05-25T10:03:36.000Z</time>
      </trkpt>
      <trkpt lat="47.50627" lon="6.73896">
        <ele>366</ele>
        <time>2015-05-25T10:03:37.000Z</time>
      </trkpt>
      <trkpt lat="47.50622" lon="6.73904">
        <ele>367</ele>
        <time>2015-05-25T10:03:38.000Z</time>
      </trkpt>
      <trkpt lat="47.50617" lon="6.73913">
        <ele>368</ele>
        <time>2015-05-25T10:03:39.000Z</time>
      </trkpt>
      <trkpt lat="47.50612" lon="6.73923">
        <ele>364</ele>
        <time>2015-05-25T10:03:40.000Z</time>
      </trkpt>
      <trkpt lat="47.50608" lon="6.73933">
        <ele>364</ele>
        <time>2015-05-25T10:03:41.000Z</time>
      </trkpt>
      <trkpt lat="47.50603" lon="6.73942">
        <ele>363</ele>
        <time>2015-05-25T10:03:42.000Z</time>
      </trkpt>
      <trkpt lat="47.50599" lon="6.73951">
        <ele>363</ele>
        <time>2015-05-25T10:03:43.000Z</time>
      </trkpt>
      <trkpt lat="47.50595" lon="6.73961">
        <ele>362</ele>
        <time>2015-05-25T10:03:44.000Z</time>
      </trkpt>
      <trkpt lat="47.5059" lon="6.7397">
        <ele>362</ele>
        <time>2015-05-25T10:03:45.000Z</time>
      </trkpt>
      <trkpt lat="47.50585" lon="6.73979">
        <ele>362</ele>
        <time>2015-05-25T10:03:46.000Z</time>
      </trkpt>
      <trkpt lat="47.50581" lon="6.73989">
        <ele>369</ele>
        <time>2015-05-25T10:03:47.000Z</time>
      </trkpt>
      <trkpt lat="47.50577" lon="6.73998">
        <ele>367</ele>
        <time>2015-05-25T10:03:48.000Z</time>
      </trkpt>
      <trkpt lat="47.50572" lon="6.74007">
        <ele>365</ele>
        <time>2015-05-25T10:03:49.000Z</time>
      </trkpt>
      <trkpt lat="47.50568" lon="6.74015">
        <ele>366</ele>
        <time>2015-05-25T10:03:50.000Z</time>
      </trkpt>
      <trkpt lat="47.50563" lon="6.74024">
        <ele>367</ele>
        <time>2015-05-25T10:03:51.000Z</time>
      </trkpt>
      <trkpt lat="47.50558" lon="6.74033">
        <ele>367</ele>
        <time>2015-05-25T10:03:52.000Z</time>
      </trkpt>
      <trkpt lat="47.50554" lon="6.7404">
        <ele>367</ele>
        <time>2015-05-25T10:03:53.000Z</time>
      </trkpt>
      <trkpt lat="47.5055" lon="6.74049">
        <ele>367</ele>
        <time>2015-05-25T10:03:54.000Z</time>
      </trkpt>
      <trkpt lat="47.50546" lon="6.74056">
        <ele>368</ele>
        <time>2015-05-25T10:03:55.000Z</time>
      </trkpt>
      <trkpt lat="47.50542" lon="6.74064">
        <ele>368</ele>
        <time>2015-05-25T10:03:56.000Z</time>
      </trkpt>
      <trkpt lat="47.50538" lon="6.74072">
        <ele>368</ele>
        <time>2015-05-25T10:03:57.000Z</time>
      </trkpt>
      <trkpt lat="47.50533" lon="6.7408">
        <ele>369</ele>
        <time>2015-05-25T10:03:58.000Z</time>
      </trkpt>
      <trkpt lat="47.50529" lon="6.74088">
        <ele>365</ele>
        <time>2015-05-25T10:03:59.000Z</time>
      </trkpt>
      <trkpt lat="47.50526" lon="6.74097">
        <ele>365</ele>
        <time>2015-05-25T10:04:00.000Z</time>
      </trkpt>
      <trkpt lat="47.50523" lon="6.74105">
        <ele>366</ele>
        <time>2015-05-25T10:04:01.000Z</time>
      </trkpt>
      <trkpt lat="47.5052" lon="6.74111">
        <ele>365</ele>
        <time>2015-05-25T10:04:02.000Z</time>
      </trkpt>
      <trkpt lat="47.50517" lon="6.74119">
        <ele>365</ele>
        <time>2015-05-25T10:04:03.000Z</time>
      </trkpt>
      <trkpt lat="47.50515" lon="6.74125">
        <ele>365</ele>
        <time>2015-05-25T10:04:04.000Z</time>
      </trkpt>
      <trkpt lat="47.5051" lon="6.74131">
        <ele>366</ele>
        <time>2015-05-25T10:04:05.000Z</time>
      </trkpt>
      <trkpt lat="47.50507" lon="6.7414">
        <ele>366</ele>
        <time>2015-05-25T10:04:06.000Z</time>
      </trkpt>
      <trkpt lat="47.50504" lon="6.74147">
        <ele>367</ele>
        <time>2015-05-25T10:04:07.000Z</time>
      </trkpt>
      <trkpt lat="47.505" lon="6.74154">
        <ele>374</ele>
        <time>2015-05-25T10:04:08.000Z</time>
      </trkpt>
      <trkpt lat="47.50498" lon="6.74162">
        <ele>373</ele>
        <time>2015-05-25T10:04:09.000Z</time>
      </trkpt>
      <trkpt lat="47.50494" lon="6.74169">
        <ele>372</ele>
        <time>2015-05-25T10:04:10.000Z</time>
      </trkpt>
      <trkpt lat="47.50492" lon="6.74174">
        <ele>372</ele>
        <time>2015-05-25T10:04:11.000Z</time>
      </trkpt>
      <trkpt lat="47.50489" lon="6.74177">
        <ele>373</ele>
        <time>2015-05-25T10:04:12.000Z</time>
      </trkpt>
      <trkpt lat="47.50488" lon="6.74185">
        <ele>373</ele>
        <time>2015-05-25T10:04:13.000Z</time>
      </trkpt>
      <trkpt lat="47.50486" lon="6.74191">
        <ele>373</ele>
        <time>2015-05-25T10:04:14.000Z</time>
      </trkpt>
      <trkpt lat="47.50484" lon="6.74196">
        <ele>374</ele>
        <time>2015-05-25T10:04:15.000Z</time>
      </trkpt>
      <trkpt lat="47.50481" lon="6.742">
        <ele>374</ele>
        <time>2015-05-25T10:04:16.000Z</time>
      </trkpt>
      <trkpt lat="47.50478" lon="6.74207">
        <ele>374</ele>
        <time>2015-05-25T10:04:17.000Z</time>
      </trkpt>
      <trkpt lat="47.50474" lon="6.74214">
        <ele>374</ele>
        <time>2015-05-25T10:04:18.000Z</time>
      </trkpt>
      <trkpt lat="47.5047" lon="6.7422">
        <ele>374</ele>
        <time>2015-05-25T10:04:19.000Z</time>
      </trkpt>
      <trkpt lat="47.50466" lon="6.74227">
        <ele>374</ele>
        <time>2015-05-25T10:04:20.000Z</time>
      </trkpt>
      <trkpt lat="47.50463" lon="6.74233">
        <ele>374</ele>
        <time>2015-05-25T10:04:21.000Z</time>
      </trkpt>
      <trkpt lat="47.50461" lon="6.74242">
        <ele>374</ele>
        <time>2015-05-25T10:04:22.000Z</time>
      </trkpt>
      <trkpt lat="47.50459" lon="6.7425">
        <ele>374</ele>
        <time>2015-05-25T10:04:23.000Z</time>
      </trkpt>
      <trkpt lat="47.50456" lon="6.74255">
        <ele>371</ele>
        <time>2015-05-25T10:04:24.000Z</time>
      </trkpt>
      <trkpt lat="47.50456" lon="6.74266">
        <ele>371</ele>
        <time>2015-05-25T10:04:25.000Z</time>
      </trkpt>
      <trkpt lat="47.50453" lon="6.74275">
        <ele>371</ele>
        <time>2015-05-25T10:04:26.000Z</time>
      </trkpt>
      <trkpt lat="47.5045" lon="6.74284">
        <ele>371</ele>
        <time>2015-05-25T10:04:27.000Z</time>
      </trkpt>
      <trkpt lat="47.50448" lon="6.74293">
        <ele>370</ele>
        <time>2015-05-25T10:04:28.000Z</time>
      </trkpt>
      <trkpt lat="47.50446" lon="6.74302">
        <ele>370</ele>
        <time>2015-05-25T10:04:29.000Z</time>
      </trkpt>
      <trkpt lat="47.50443" lon="6.74309">
        <ele>370</ele>
        <time>2015-05-25T10:04:30.000Z</time>
      </trkpt>
      <trkpt lat="47.5044" lon="6.74317">
        <ele>370</ele>
        <time>2015-05-25T10:04:31.000Z</time>
      </trkpt>
      <trkpt lat="47.50437" lon="6.74324">
        <ele>370</ele>
        <time>2015-05-25T10:04:32.000Z</time>
      </trkpt>
      <trkpt lat="47.50434" lon="6.7433">
        <ele>370</ele>
        <time>2015-05-25T10:04:33.000Z</time>
      </trkpt>
      <trkpt lat="47.50432" lon="6.74336">
        <ele>366</ele>
        <time>2015-05-25T10:04:34.000Z</time>
      </trkpt>
      <trkpt lat="47.50429" lon="6.74343">
        <ele>366</ele>
        <time>2015-05-25T10:04:35.000Z</time>
      </trkpt>
      <trkpt lat="47.50426" lon="6.74347">
        <ele>366</ele>
        <time>2015-05-25T10:04:36.000Z</time>
      </trkpt>
      <trkpt lat="47.50425" lon="6.74353">
        <ele>365</ele>
        <time>2015-05-25T10:04:37.000Z</time>
      </trkpt>
      <trkpt lat="47.50423" lon="6.74358">
        <ele>365</ele>
        <time>2015-05-25T10:04:38.000Z</time>
      </trkpt>
      <trkpt lat="47.50421" lon="6.74365">
        <ele>364</ele>
        <time>2015-05-25T10:04:39.000Z</time>
      </trkpt>
      <trkpt lat="47.50418" lon="6.7437">
        <ele>363</ele>
        <time>2015-05-25T10:04:40.000Z</time>
      </trkpt>
      <trkpt lat="47.50415" lon="6.74374">
        <ele>364</ele>
        <time>2015-05-25T10:04:41.000Z</time>
      </trkpt>
      <trkpt lat="47.50412" lon="6.74379">
        <ele>363</ele>
        <time>2015-05-25T10:04:42.000Z</time>
      </trkpt>
      <trkpt lat="47.5041" lon="6.74387">
        <ele>363</ele>
        <time>2015-05-25T10:04:43.000Z</time>
      </trkpt>
      <trkpt lat="47.50406" lon="6.74393">
        <ele>362</ele>
        <time>2015-05-25T10:04:44.000Z</time>
      </trkpt>
      <trkpt lat="47.50403" lon="6.74401">
        <ele>362</ele>
        <time>2015-05-25T10:04:45.000Z</time>
      </trkpt>
      <trkpt lat="47.50401" lon="6.74408">
        <ele>361</ele>
        <time>2015-05-25T10:04:46.000Z</time>
      </trkpt>
      <trkpt lat="47.50398" lon="6.74417">
        <ele>361</ele>
        <time>2015-05-25T10:04:47.000Z</time>
      </trkpt>
      <trkpt lat="47.50394" lon="6.74423">
        <ele>357</ele>
        <time>2015-05-25T10:04:48.000Z</time>
      </trkpt>
      <trkpt lat="47.50391" lon="6.74431">
        <ele>357</ele>
        <time>2015-05-25T10:04:49.000Z</time>
      </trkpt>
      <trkpt lat="47.50387" lon="6.74439">
        <ele>356</ele>
        <time>2015-05-25T10:04:50.000Z</time>
      </trkpt>
      <trkpt lat="47.50383" lon="6.74447">
        <ele>356</ele>
        <time>2015-05-25T10:04:51.000Z</time>
      </trkpt>
      <trkpt lat="47.5038" lon="6.74456">
        <ele>355</ele>
        <time>2015-05-25T10:04:52.000Z</time>
      </trkpt>
      <trkpt lat="47.50377" lon="6.74466">
        <ele>355</ele>
        <time>2015-05-25T10:04:53.000Z</time>
      </trkpt>
      <trkpt lat="47.50374" lon="6.74474">
        <ele>355</ele>
        <time>2015-05-25T10:04:54.000Z</time>
      </trkpt>
      <trkpt lat="47.50372" lon="6.74483">
        <ele>355</ele>
        <time>2015-05-25T10:04:55.000Z</time>
      </trkpt>
      <trkpt lat="47.50373" lon="6.74492">
        <ele>355</ele>
        <time>2015-05-25T10:04:56.000Z</time>
      </trkpt>
      <trkpt lat="47.50374" lon="6.74501">
        <ele>353</ele>
        <time>2015-05-25T10:04:57.000Z</time>
      </trkpt>
      <trkpt lat="47.50377" lon="6.74511">
        <ele>353</ele>
        <time>2015-05-25T10:04:58.000Z</time>
      </trkpt>
      <trkpt lat="47.5038" lon="6.7452">
        <ele>353</ele>
        <time>2015-05-25T10:04:59.000Z</time>
      </trkpt>
      <trkpt lat="47.50381" lon="6.74528">
        <ele>353</ele>
        <time>2015-05-25T10:05:00.000Z</time>
      </trkpt>
      <trkpt lat="47.50383" lon="6.74537">
        <ele>353</ele>
        <time>2015-05-25T10:05:01.000Z</time>
      </trkpt>
      <trkpt lat="47.50384" lon="6.74546">
        <ele>353</ele>
        <time>2015-05-25T10:05:02.000Z</time>
      </trkpt>
      <trkpt lat="47.50386" lon="6.74554">
        <ele>353</ele>
        <time>2015-05-25T10:05:03.000Z</time>
      </trkpt>
      <trkpt lat="47.50388" lon="6.74562">
        <ele>353</ele>
        <time>2015-05-25T10:05:04.000Z</time>
      </trkpt>
      <trkpt lat="47.50389" lon="6.7457">
        <ele>353</ele>
        <time>2015-05-25T10:05:05.000Z</time>
      </trkpt>
      <trkpt lat="47.5039" lon="6.74578">
        <ele>353</ele>
        <time>2015-05-25T10:05:06.000Z</time>
      </trkpt>
      <trkpt lat="47.50391" lon="6.74586">
        <ele>352</ele>
        <time>2015-05-25T10:05:07.000Z</time>
      </trkpt>
      <trkpt lat="47.50392" lon="6.74594">
        <ele>352</ele>
        <time>2015-05-25T10:05:08.000Z</time>
      </trkpt>
      <trkpt lat="47.50393" lon="6.74603">
        <ele>352</ele>
        <time>2015-05-25T10:05:09.000Z</time>
      </trkpt>
      <trkpt lat="47.50394" lon="6.74611">
        <ele>352</ele>
        <time>2015-05-25T10:05:10.000Z</time>
      </trkpt>
      <trkpt lat="47.50395" lon="6.74619">
        <ele>352</ele>
        <time>2015-05-25T10:05:11.000Z</time>
      </trkpt>
      <trkpt lat="47.50397" lon="6.74628">
        <ele>352</ele>
        <time>2015-05-25T10:05:12.000Z</time>
      </trkpt>
      <trkpt lat="47.50398" lon="6.74637">
        <ele>352</ele>
        <time>2015-05-25T10:05:13.000Z</time>
      </trkpt>
      <trkpt lat="47.50399" lon="6.74646">
        <ele>352</ele>
        <time>2015-05-25T10:05:14.000Z</time>
      </trkpt>
      <trkpt lat="47.504" lon="6.74655">
        <ele>352</ele>
        <time>2015-05-25T10:05:15.000Z</time>
      </trkpt>
      <trkpt lat="47.50401" lon="6.74665">
        <ele>353</ele>
        <time>2015-05-25T10:05:16.000Z</time>
      </trkpt>
      <trkpt lat="47.50401" lon="6.74674">
        <ele>352</ele>
        <time>2015-05-25T10:05:17.000Z</time>
      </trkpt>
      <trkpt lat="47.504" lon="6.74683">
        <ele>352</ele>
        <time>2015-05-25T10:05:18.000Z</time>
      </trkpt>
      <trkpt lat="47.50399" lon="6.74693">
        <ele>352</ele>
        <time>2015-05-25T10:05:19.000Z</time>
      </trkpt>
      <trkpt lat="47.50394" lon="6.747">
        <ele>352</ele>
        <time>2015-05-25T10:05:20.000Z</time>
      </trkpt>
      <trkpt lat="47.50391" lon="6.74708">
        <ele>351</ele>
        <time>2015-05-25T10:05:21.000Z</time>
      </trkpt>
      <trkpt lat="47.50388" lon="6.74717">
        <ele>351</ele>
        <time>2015-05-25T10:05:22.000Z</time>
      </trkpt>
      <trkpt lat="47.50385" lon="6.74725">
        <ele>351</ele>
        <time>2015-05-25T10:05:23.000Z</time>
      </trkpt>
      <trkpt lat="47.50382" lon="6.74734">
        <ele>351</ele>
        <time>2015-05-25T10:05:24.000Z</time>
      </trkpt>
      <trkpt lat="47.50379" lon="6.74743">
        <ele>351</ele>
        <time>2015-05-25T10:05:25.000Z</time>
      </trkpt>
      <trkpt lat="47.50375" lon="6.74752">
        <ele>350</ele>
        <time>2015-05-25T10:05:26.000Z</time>
      </trkpt>
      <trkpt lat="47.50372" lon="6.74761">
        <ele>350</ele>
        <time>2015-05-25T10:05:27.000Z</time>
      </trkpt>
      <trkpt lat="47.5037" lon="6.7477">
        <ele>350</ele>
        <time>2015-05-25T10:05:28.000Z</time>
      </trkpt>
      <trkpt lat="47.50366" lon="6.74779">
        <ele>350</ele>
        <time>2015-05-25T10:05:29.000Z</time>
      </trkpt>
      <trkpt lat="47.50364" lon="6.74789">
        <ele>350</ele>
        <time>2015-05-25T10:05:30.000Z</time>
      </trkpt>
      <trkpt lat="47.50361" lon="6.74799">
        <ele>349</ele>
        <time>2015-05-25T10:05:31.000Z</time>
      </trkpt>
      <trkpt lat="47.50359" lon="6.74809">
        <ele>349</ele>
        <time>2015-05-25T10:05:32.000Z</time>
      </trkpt>
      <trkpt lat="47.50357" lon="6.74819">
        <ele>349</ele>
        <time>2015-05-25T10:05:33.000Z</time>
      </trkpt>
      <trkpt lat="47.50354" lon="6.74829">
        <ele>349</ele>
        <time>2015-05-25T10:05:34.000Z</time>
      </trkpt>
      <trkpt lat="47.50351" lon="6.74839">
        <ele>348</ele>
        <time>2015-05-25T10:05:35.000Z</time>
      </trkpt>
      <trkpt lat="47.50348" lon="6.74848">
        <ele>348</ele>
        <time>2015-05-25T10:05:36.000Z</time>
      </trkpt>
      <trkpt lat="47.50345" lon="6.7486">
        <ele>348</ele>
        <time>2015-05-25T10:05:37.000Z</time>
      </trkpt>
      <trkpt lat="47.50343" lon="6.74873">
        <ele>348</ele>
        <time>2015-05-25T10:05:38.000Z</time>
      </trkpt>
      <trkpt lat="47.5034" lon="6.74885">
        <ele>348</ele>
        <time>2015-05-25T10:05:39.000Z</time>
      </trkpt>
      <trkpt lat="47.50337" lon="6.74895">
        <ele>347</ele>
        <time>2015-05-25T10:05:40.000Z</time>
      </trkpt>
      <trkpt lat="47.50335" lon="6.74907">
        <ele>347</ele>
        <time>2015-05-25T10:05:41.000Z</time>
      </trkpt>
      <trkpt lat="47.5033" lon="6.74916">
        <ele>345</ele>
        <time>2015-05-25T10:05:42.000Z</time>
      </trkpt>
      <trkpt lat="47.50326" lon="6.74927">
        <ele>345</ele>
        <time>2015-05-25T10:05:43.000Z</time>
      </trkpt>
      <trkpt lat="47.50325" lon="6.74938">
        <ele>344</ele>
        <time>2015-05-25T10:05:44.000Z</time>
      </trkpt>
      <trkpt lat="47.50321" lon="6.74949">
        <ele>344</ele>
        <time>2015-05-25T10:05:45.000Z</time>
      </trkpt>
      <trkpt lat="47.50318" lon="6.74959">
        <ele>344</ele>
        <time>2015-05-25T10:05:46.000Z</time>
      </trkpt>
      <trkpt lat="47.50314" lon="6.7497">
        <ele>344</ele>
        <time>2015-05-25T10:05:47.000Z</time>
      </trkpt>
      <trkpt lat="47.50311" lon="6.74981">
        <ele>344</ele>
        <time>2015-05-25T10:05:48.000Z</time>
      </trkpt>
      <trkpt lat="47.50305" lon="6.74989">
        <ele>344</ele>
        <time>2015-05-25T10:05:49.000Z</time>
      </trkpt>
      <trkpt lat="47.50298" lon="6.74996">
        <ele>343</ele>
        <time>2015-05-25T10:05:50.000Z</time>
      </trkpt>
      <trkpt lat="47.50292" lon="6.75002">
        <ele>344</ele>
        <time>2015-05-25T10:05:51.000Z</time>
      </trkpt>
      <trkpt lat="47.50286" lon="6.75006">
        <ele>343</ele>
        <time>2015-05-25T10:05:52.000Z</time>
      </trkpt>
      <trkpt lat="47.50277" lon="6.75008">
        <ele>342</ele>
        <time>2015-05-25T10:05:53.000Z</time>
      </trkpt>
      <trkpt lat="47.50269" lon="6.75014">
        <ele>341</ele>
        <time>2015-05-25T10:05:54.000Z</time>
      </trkpt>
      <trkpt lat="47.50263" lon="6.75014">
        <ele>341</ele>
        <time>2015-05-25T10:05:55.000Z</time>
      </trkpt>
      <trkpt lat="47.50256" lon="6.75011">
        <ele>340</ele>
        <time>2015-05-25T10:05:56.000Z</time>
      </trkpt>
      <trkpt lat="47.50253" lon="6.75">
        <ele>338</ele>
        <time>2015-05-25T10:05:57.000Z</time>
      </trkpt>
      <trkpt lat="47.50251" lon="6.74991">
        <ele>339</ele>
        <time>2015-05-25T10:05:58.000Z</time>
      </trkpt>
      <trkpt lat="47.50248" lon="6.74982">
        <ele>336</ele>
        <time>2015-05-25T10:05:59.000Z</time>
      </trkpt>
      <trkpt lat="47.50246" lon="6.74973">
        <ele>336</ele>
        <time>2015-05-25T10:06:00.000Z</time>
      </trkpt>
      <trkpt lat="47.50242" lon="6.74968">
        <ele>336</ele>
        <time>2015-05-25T10:06:01.000Z</time>
      </trkpt>
      <trkpt lat="47.50238" lon="6.74963">
        <ele>336</ele>
        <time>2015-05-25T10:06:02.000Z</time>
      </trkpt>
      <trkpt lat="47.50235" lon="6.7496">
        <ele>336</ele>
        <time>2015-05-25T10:06:03.000Z</time>
      </trkpt>
      <trkpt lat="47.50232" lon="6.74959">
        <ele>336</ele>
        <time>2015-05-25T10:06:04.000Z</time>
      </trkpt>
      <trkpt lat="47.5023" lon="6.74956">
        <ele>336</ele>
        <time>2015-05-25T10:06:05.000Z</time>
      </trkpt>
      <trkpt lat="47.50224" lon="6.74958">
        <ele>336</ele>
        <time>2015-05-25T10:06:06.000Z</time>
      </trkpt>
      <trkpt lat="47.5022" lon="6.74961">
        <ele>336</ele>
        <time>2015-05-25T10:06:07.000Z</time>
      </trkpt>
      <trkpt lat="47.50213" lon="6.74967">
        <ele>336</ele>
        <time>2015-05-25T10:06:08.000Z</time>
      </trkpt>
      <trkpt lat="47.50209" lon="6.74972">
        <ele>336</ele>
        <time>2015-05-25T10:06:09.000Z</time>
      </trkpt>
      <trkpt lat="47.50204" lon="6.74979">
        <ele>335</ele>
        <time>2015-05-25T10:06:10.000Z</time>
      </trkpt>
      <trkpt lat="47.502" lon="6.74985">
        <ele>335</ele>
        <time>2015-05-25T10:06:11.000Z</time>
      </trkpt>
      <trkpt lat="47.50198" lon="6.74994">
        <ele>335</ele>
        <time>2015-05-25T10:06:12.000Z</time>
      </trkpt>
      <trkpt lat="47.50197" lon="6.75003">
        <ele>334</ele>
        <time>2015-05-25T10:06:13.000Z</time>
      </trkpt>
      <trkpt lat="47.50195" lon="6.75011">
        <ele>334</ele>
        <time>2015-05-25T10:06:14.000Z</time>
      </trkpt>
      <trkpt lat="47.50193" lon="6.75021">
        <ele>334</ele>
        <time>2015-05-25T10:06:15.000Z</time>
      </trkpt>
      <trkpt lat="47.50192" lon="6.75031">
        <ele>333</ele>
        <time>2015-05-25T10:06:16.000Z</time>
      </trkpt>
      <trkpt lat="47.50191" lon="6.75041">
        <ele>333</ele>
        <time>2015-05-25T10:06:17.000Z</time>
      </trkpt>
      <trkpt lat="47.50191" lon="6.75052">
        <ele>333</ele>
        <time>2015-05-25T10:06:18.000Z</time>
      </trkpt>
      <trkpt lat="47.5019" lon="6.75062">
        <ele>332</ele>
        <time>2015-05-25T10:06:19.000Z</time>
      </trkpt>
      <trkpt lat="47.50188" lon="6.75072">
        <ele>332</ele>
        <time>2015-05-25T10:06:20.000Z</time>
      </trkpt>
      <trkpt lat="47.50187" lon="6.75083">
        <ele>331</ele>
        <time>2015-05-25T10:06:21.000Z</time>
      </trkpt>
      <trkpt lat="47.50187" lon="6.75093">
        <ele>329</ele>
        <time>2015-05-25T10:06:22.000Z</time>
      </trkpt>
      <trkpt lat="47.50186" lon="6.75104">
        <ele>329</ele>
        <time>2015-05-25T10:06:23.000Z</time>
      </trkpt>
      <trkpt lat="47.50184" lon="6.75113">
        <ele>329</ele>
        <time>2015-05-25T10:06:24.000Z</time>
      </trkpt>
      <trkpt lat="47.50177" lon="6.75121">
        <ele>328</ele>
        <time>2015-05-25T10:06:25.000Z</time>
      </trkpt>
      <trkpt lat="47.50172" lon="6.75128">
        <ele>328</ele>
        <time>2015-05-25T10:06:26.000Z</time>
      </trkpt>
      <trkpt lat="47.50167" lon="6.75136">
        <ele>327</ele>
        <time>2015-05-25T10:06:27.000Z</time>
      </trkpt>
      <trkpt lat="47.50161" lon="6.75141">
        <ele>326</ele>
        <time>2015-05-25T10:06:28.000Z</time>
      </trkpt>
      <trkpt lat="47.50154" lon="6.75146">
        <ele>325</ele>
        <time>2015-05-25T10:06:29.000Z</time>
      </trkpt>
      <trkpt lat="47.50147" lon="6.7515">
        <ele>325</ele>
        <time>2015-05-25T10:06:30.000Z</time>
      </trkpt>
      <trkpt lat="47.5014" lon="6.75156">
        <ele>325</ele>
        <time>2015-05-25T10:06:31.000Z</time>
      </trkpt>
      <trkpt lat="47.50133" lon="6.75162">
        <ele>326</ele>
        <time>2015-05-25T10:06:32.000Z</time>
      </trkpt>
      <trkpt lat="47.50127" lon="6.75168">
        <ele>323</ele>
        <time>2015-05-25T10:06:33.000Z</time>
      </trkpt>
      <trkpt lat="47.50121" lon="6.75172">
        <ele>323</ele>
        <time>2015-05-25T10:06:34.000Z</time>
      </trkpt>
      <trkpt lat="47.50115" lon="6.75177">
        <ele>323</ele>
        <time>2015-05-25T10:06:35.000Z</time>
      </trkpt>
      <trkpt lat="47.50109" lon="6.75181">
        <ele>323</ele>
        <time>2015-05-25T10:06:36.000Z</time>
      </trkpt>
      <trkpt lat="47.50103" lon="6.75184">
        <ele>323</ele>
        <time>2015-05-25T10:06:37.000Z</time>
      </trkpt>
      <trkpt lat="47.50096" lon="6.75186">
        <ele>323</ele>
        <time>2015-05-25T10:06:38.000Z</time>
      </trkpt>
      <trkpt lat="47.50089" lon="6.7519">
        <ele>323</ele>
        <time>2015-05-25T10:06:39.000Z</time>
      </trkpt>
      <trkpt lat="47.50082" lon="6.75192">
        <ele>323</ele>
        <time>2015-05-25T10:06:40.000Z</time>
      </trkpt>
      <trkpt lat="47.50074" lon="6.75194">
        <ele>323</ele>
        <time>2015-05-25T10:06:41.000Z</time>
      </trkpt>
      <trkpt lat="47.50067" lon="6.75195">
        <ele>323</ele>
        <time>2015-05-25T10:06:42.000Z</time>
      </trkpt>
      <trkpt lat="47.5006" lon="6.75196">
        <ele>323</ele>
        <time>2015-05-25T10:06:43.000Z</time>
      </trkpt>
      <trkpt lat="47.50054" lon="6.75197">
        <ele>322</ele>
        <time>2015-05-25T10:06:44.000Z</time>
      </trkpt>
      <trkpt lat="47.50047" lon="6.75198">
        <ele>322</ele>
        <time>2015-05-25T10:06:45.000Z</time>
      </trkpt>
      <trkpt lat="47.5004" lon="6.752">
        <ele>322</ele>
        <time>2015-05-25T10:06:46.000Z</time>
      </trkpt>
      <trkpt lat="47.50034" lon="6.75202">
        <ele>322</ele>
        <time>2015-05-25T10:06:47.000Z</time>
      </trkpt>
      <trkpt lat="47.50027" lon="6.75208">
        <ele>322</ele>
        <time>2015-05-25T10:06:48.000Z</time>
      </trkpt>
      <trkpt lat="47.50021" lon="6.75215">
        <ele>322</ele>
        <time>2015-05-25T10:06:49.000Z</time>
      </trkpt>
      <trkpt lat="47.50016" lon="6.75222">
        <ele>322</ele>
        <time>2015-05-25T10:06:50.000Z</time>
      </trkpt>
      <trkpt lat="47.50012" lon="6.7523">
        <ele>322</ele>
        <time>2015-05-25T10:06:51.000Z</time>
      </trkpt>
      <trkpt lat="47.50009" lon="6.75237">
        <ele>322</ele>
        <time>2015-05-25T10:06:52.000Z</time>
      </trkpt>
      <trkpt lat="47.50007" lon="6.75247">
        <ele>321</ele>
        <time>2015-05-25T10:06:53.000Z</time>
      </trkpt>
      <trkpt lat="47.50005" lon="6.75256">
        <ele>321</ele>
        <time>2015-05-25T10:06:54.000Z</time>
      </trkpt>
      <trkpt lat="47.50005" lon="6.75265">
        <ele>322</ele>
        <time>2015-05-25T10:06:55.000Z</time>
      </trkpt>
      <trkpt lat="47.50005" lon="6.75274">
        <ele>322</ele>
        <time>2015-05-25T10:06:56.000Z</time>
      </trkpt>
      <trkpt lat="47.50006" lon="6.75284">
        <ele>322</ele>
        <time>2015-05-25T10:06:57.000Z</time>
      </trkpt>
      <trkpt lat="47.50007" lon="6.75293">
        <ele>322</ele>
        <time>2015-05-25T10:06:58.000Z</time>
      </trkpt>
      <trkpt lat="47.50007" lon="6.75303">
        <ele>322</ele>
        <time>2015-05-25T10:06:59.000Z</time>
      </trkpt>
      <trkpt lat="47.50008" lon="6.75311">
        <ele>323</ele>
        <time>2015-05-25T10:07:00.000Z</time>
      </trkpt>
      <trkpt lat="47.50008" lon="6.75319">
        <ele>323</ele>
        <time>2015-05-25T10:07:01.000Z</time>
      </trkpt>
      <trkpt lat="47.50008" lon="6.75328">
        <ele>323</ele>
        <time>2015-05-25T10:07:02.000Z</time>
      </trkpt>
      <trkpt lat="47.50009" lon="6.75337">
        <ele>325</ele>
        <time>2015-05-25T10:07:03.000Z</time>
      </trkpt>
      <trkpt lat="47.50008" lon="6.75346">
        <ele>326</ele>
        <time>2015-05-25T10:07:04.000Z</time>
      </trkpt>
      <trkpt lat="47.50008" lon="6.75354">
        <ele>326</ele>
        <time>2015-05-25T10:07:05.000Z</time>
      </trkpt>
      <trkpt lat="47.50008" lon="6.75362">
        <ele>327</ele>
        <time>2015-05-25T10:07:06.000Z</time>
      </trkpt>
      <trkpt lat="47.50007" lon="6.7537">
        <ele>328</ele>
        <time>2015-05-25T10:07:07.000Z</time>
      </trkpt>
      <trkpt lat="47.50004" lon="6.75376">
        <ele>328</ele>
        <time>2015-05-25T10:07:08.000Z</time>
      </trkpt>
      <trkpt lat="47.50001" lon="6.75382">
        <ele>329</ele>
        <time>2015-05-25T10:07:09.000Z</time>
      </trkpt>
      <trkpt lat="47.49999" lon="6.75387">
        <ele>327</ele>
        <time>2015-05-25T10:07:10.000Z</time>
      </trkpt>
      <trkpt lat="47.49996" lon="6.75391">
        <ele>327</ele>
        <time>2015-05-25T10:07:11.000Z</time>
      </trkpt>
      <trkpt lat="47.49994" lon="6.75394">
        <ele>328</ele>
        <time>2015-05-25T10:07:12.000Z</time>
      </trkpt>
      <trkpt lat="47.49991" lon="6.75396">
        <ele>328</ele>
        <time>2015-05-25T10:07:13.000Z</time>
      </trkpt>
      <trkpt lat="47.4999" lon="6.75399">
        <ele>328</ele>
        <time>2015-05-25T10:07:14.000Z</time>
      </trkpt>
      <trkpt lat="47.49988" lon="6.75401">
        <ele>328</ele>
        <time>2015-05-25T10:07:15.000Z</time>
      </trkpt>
      <trkpt lat="47.49987" lon="6.75407">
        <ele>328</ele>
        <time>2015-05-25T10:07:17.000Z</time>
      </trkpt>
      <trkpt lat="47.49987" lon="6.75408">
        <ele>329</ele>
        <time>2015-05-25T10:07:18.000Z</time>
      </trkpt>
      <trkpt lat="47.49986" lon="6.75414">
        <ele>329</ele>
        <time>2015-05-25T10:07:27.000Z</time>
      </trkpt>
      <trkpt lat="47.49987" lon="6.75416">
        <ele>329</ele>
        <time>2015-05-25T10:07:28.000Z</time>
      </trkpt>
      <trkpt lat="47.4999" lon="6.75419">
        <ele>333</ele>
        <time>2015-05-25T10:07:30.000Z</time>
      </trkpt>
      <trkpt lat="47.49992" lon="6.7542">
        <ele>333</ele>
        <time>2015-05-25T10:07:31.000Z</time>
      </trkpt>
      <trkpt lat="47.49994" lon="6.75423">
        <ele>333</ele>
        <time>2015-05-25T10:07:32.000Z</time>
      </trkpt>
      <trkpt lat="47.49995" lon="6.75426">
        <ele>333</ele>
        <time>2015-05-25T10:07:33.000Z</time>
      </trkpt>
      <trkpt lat="47.49995" lon="6.75429">
        <ele>334</ele>
        <time>2015-05-25T10:07:34.000Z</time>
      </trkpt>
      <trkpt lat="47.49996" lon="6.75433">
        <ele>334</ele>
        <time>2015-05-25T10:07:35.000Z</time>
      </trkpt>
      <trkpt lat="47.49996" lon="6.75437">
        <ele>335</ele>
        <time>2015-05-25T10:07:36.000Z</time>
      </trkpt>
      <trkpt lat="47.49997" lon="6.7544">
        <ele>335</ele>
        <time>2015-05-25T10:07:37.000Z</time>
      </trkpt>
      <trkpt lat="47.49998" lon="6.75446">
        <ele>336</ele>
        <time>2015-05-25T10:07:39.000Z</time>
      </trkpt>
      <trkpt lat="47.49999" lon="6.75448">
        <ele>336</ele>
        <time>2015-05-25T10:07:40.000Z</time>
      </trkpt>
      <trkpt lat="47.50002" lon="6.75454">
        <ele>337</ele>
        <time>2015-05-25T10:07:42.000Z</time>
      </trkpt>
      <trkpt lat="47.50003" lon="6.75456">
        <ele>338</ele>
        <time>2015-05-25T10:07:43.000Z</time>
      </trkpt>
      <trkpt lat="47.50005" lon="6.75459">
        <ele>338</ele>
        <time>2015-05-25T10:07:44.000Z</time>
      </trkpt>
      <trkpt lat="47.50006" lon="6.75462">
        <ele>338</ele>
        <time>2015-05-25T10:07:45.000Z</time>
      </trkpt>
      <trkpt lat="47.50008" lon="6.75465">
        <ele>339</ele>
        <time>2015-05-25T10:07:46.000Z</time>
      </trkpt>
      <trkpt lat="47.5001" lon="6.75469">
        <ele>339</ele>
        <time>2015-05-25T10:07:47.000Z</time>
      </trkpt>
      <trkpt lat="47.50011" lon="6.75473">
        <ele>339</ele>
        <time>2015-05-25T10:07:48.000Z</time>
      </trkpt>
      <trkpt lat="47.50012" lon="6.75477">
        <ele>340</ele>
        <time>2015-05-25T10:07:49.000Z</time>
      </trkpt>
      <trkpt lat="47.50013" lon="6.7548">
        <ele>340</ele>
        <time>2015-05-25T10:07:50.000Z</time>
      </trkpt>
      <trkpt lat="47.50014" lon="6.75484">
        <ele>340</ele>
        <time>2015-05-25T10:07:51.000Z</time>
      </trkpt>
      <trkpt lat="47.50014" lon="6.75487">
        <ele>341</ele>
        <time>2015-05-25T10:07:52.000Z</time>
      </trkpt>
      <trkpt lat="47.50014" lon="6.75491">
        <ele>341</ele>
        <time>2015-05-25T10:07:53.000Z</time>
      </trkpt>
      <trkpt lat="47.50015" lon="6.75494">
        <ele>341</ele>
        <time>2015-05-25T10:07:54.000Z</time>
      </trkpt>
      <trkpt lat="47.50016" lon="6.75498">
        <ele>341</ele>
        <time>2015-05-25T10:07:55.000Z</time>
      </trkpt>
      <trkpt lat="47.50016" lon="6.75502">
        <ele>345</ele>
        <time>2015-05-25T10:07:56.000Z</time>
      </trkpt>
      <trkpt lat="47.50017" lon="6.75505">
        <ele>345</ele>
        <time>2015-05-25T10:07:57.000Z</time>
      </trkpt>
      <trkpt lat="47.50018" lon="6.75509">
        <ele>345</ele>
        <time>2015-05-25T10:07:58.000Z</time>
      </trkpt>
      <trkpt lat="47.50018" lon="6.75513">
        <ele>345</ele>
        <time>2015-05-25T10:07:59.000Z</time>
      </trkpt>
      <trkpt lat="47.50019" lon="6.75518">
        <ele>345</ele>
        <time>2015-05-25T10:08:00.000Z</time>
      </trkpt>
      <trkpt lat="47.50019" lon="6.75522">
        <ele>345</ele>
        <time>2015-05-25T10:08:01.000Z</time>
      </trkpt>
      <trkpt lat="47.5002" lon="6.75526">
        <ele>345</ele>
        <time>2015-05-25T10:08:02.000Z</time>
      </trkpt>
      <trkpt lat="47.50021" lon="6.7553">
        <ele>345</ele>
        <time>2015-05-25T10:08:03.000Z</time>
      </trkpt>
      <trkpt lat="47.50021" lon="6.75534">
        <ele>346</ele>
        <time>2015-05-25T10:08:04.000Z</time>
      </trkpt>
      <trkpt lat="47.50022" lon="6.75538">
        <ele>346</ele>
        <time>2015-05-25T10:08:05.000Z</time>
      </trkpt>
      <trkpt lat="47.50024" lon="6.75541">
        <ele>346</ele>
        <time>2015-05-25T10:08:06.000Z</time>
      </trkpt>
      <trkpt lat="47.50025" lon="6.75545">
        <ele>346</ele>
        <time>2015-05-25T10:08:07.000Z</time>
      </trkpt>
      <trkpt lat="47.50026" lon="6.75549">
        <ele>346</ele>
        <time>2015-05-25T10:08:08.000Z</time>
      </trkpt>
      <trkpt lat="47.50028" lon="6.75552">
        <ele>346</ele>
        <time>2015-05-25T10:08:09.000Z</time>
      </trkpt>
      <trkpt lat="47.50029" lon="6.75555">
        <ele>346</ele>
        <time>2015-05-25T10:08:10.000Z</time>
      </trkpt>
      <trkpt lat="47.5003" lon="6.75558">
        <ele>346</ele>
        <time>2015-05-25T10:08:11.000Z</time>
      </trkpt>
      <trkpt lat="47.50032" lon="6.75564">
        <ele>347</ele>
        <time>2015-05-25T10:08:13.000Z</time>
      </trkpt>
      <trkpt lat="47.50034" lon="6.7557">
        <ele>347</ele>
        <time>2015-05-25T10:08:15.000Z</time>
      </trkpt>
      <trkpt lat="47.50034" lon="6.75573">
        <ele>347</ele>
        <time>2015-05-25T10:08:16.000Z</time>
      </trkpt>
      <trkpt lat="47.50036" lon="6.75579">
        <ele>347</ele>
        <time>2015-05-25T10:08:18.000Z</time>
      </trkpt>
      <trkpt lat="47.50036" lon="6.75582">
        <ele>347</ele>
        <time>2015-05-25T10:08:19.000Z</time>
      </trkpt>
      <trkpt lat="47.50038" lon="6.75588">
        <ele>352</ele>
        <time>2015-05-25T10:08:21.000Z</time>
      </trkpt>
      <trkpt lat="47.50039" lon="6.7559">
        <ele>352</ele>
        <time>2015-05-25T10:08:22.000Z</time>
      </trkpt>
      <trkpt lat="47.5004" lon="6.75593">
        <ele>352</ele>
        <time>2015-05-25T10:08:23.000Z</time>
      </trkpt>
      <trkpt lat="47.50041" lon="6.75596">
        <ele>352</ele>
        <time>2015-05-25T10:08:24.000Z</time>
      </trkpt>
      <trkpt lat="47.50043" lon="6.75602">
        <ele>352</ele>
        <time>2015-05-25T10:08:26.000Z</time>
      </trkpt>
      <trkpt lat="47.50043" lon="6.75605">
        <ele>353</ele>
        <time>2015-05-25T10:08:27.000Z</time>
      </trkpt>
      <trkpt lat="47.50044" lon="6.7561">
        <ele>353</ele>
        <time>2015-05-25T10:08:29.000Z</time>
      </trkpt>
      <trkpt lat="47.50044" lon="6.75613">
        <ele>353</ele>
        <time>2015-05-25T10:08:30.000Z</time>
      </trkpt>
      <trkpt lat="47.50046" lon="6.75616">
        <ele>353</ele>
        <time>2015-05-25T10:08:31.000Z</time>
      </trkpt>
      <trkpt lat="47.50047" lon="6.75619">
        <ele>353</ele>
        <time>2015-05-25T10:08:32.000Z</time>
      </trkpt>
      <trkpt lat="47.50048" lon="6.75623">
        <ele>353</ele>
        <time>2015-05-25T10:08:33.000Z</time>
      </trkpt>
      <trkpt lat="47.5005" lon="6.75626">
        <ele>353</ele>
        <time>2015-05-25T10:08:34.000Z</time>
      </trkpt>
      <trkpt lat="47.50051" lon="6.75628">
        <ele>354</ele>
        <time>2015-05-25T10:08:35.000Z</time>
      </trkpt>
      <trkpt lat="47.50053" lon="6.75631">
        <ele>354</ele>
        <time>2015-05-25T10:08:36.000Z</time>
      </trkpt>
      <trkpt lat="47.50054" lon="6.75637">
        <ele>354</ele>
        <time>2015-05-25T10:08:38.000Z</time>
      </trkpt>
      <trkpt lat="47.50055" lon="6.7564">
        <ele>354</ele>
        <time>2015-05-25T10:08:39.000Z</time>
      </trkpt>
      <trkpt lat="47.50056" lon="6.75643">
        <ele>354</ele>
        <time>2015-05-25T10:08:40.000Z</time>
      </trkpt>
      <trkpt lat="47.50057" lon="6.75646">
        <ele>354</ele>
        <time>2015-05-25T10:08:41.000Z</time>
      </trkpt>
      <trkpt lat="47.50059" lon="6.75649">
        <ele>354</ele>
        <time>2015-05-25T10:08:42.000Z</time>
      </trkpt>
      <trkpt lat="47.50061" lon="6.75652">
        <ele>354</ele>
        <time>2015-05-25T10:08:43.000Z</time>
      </trkpt>
      <trkpt lat="47.50062" lon="6.75655">
        <ele>354</ele>
        <time>2015-05-25T10:08:44.000Z</time>
      </trkpt>
      <trkpt lat="47.50063" lon="6.75658">
        <ele>354</ele>
        <time>2015-05-25T10:08:45.000Z</time>
      </trkpt>
      <trkpt lat="47.50064" lon="6.75661">
        <ele>354</ele>
        <time>2015-05-25T10:08:46.000Z</time>
      </trkpt>
      <trkpt lat="47.50065" lon="6.75664">
        <ele>354</ele>
        <time>2015-05-25T10:08:47.000Z</time>
      </trkpt>
      <trkpt lat="47.50068" lon="6.75669">
        <ele>359</ele>
        <time>2015-05-25T10:08:49.000Z</time>
      </trkpt>
      <trkpt lat="47.50069" lon="6.75672">
        <ele>359</ele>
        <time>2015-05-25T10:08:50.000Z</time>
      </trkpt>
      <trkpt lat="47.5007" lon="6.75676">
        <ele>359</ele>
        <time>2015-05-25T10:08:52.000Z</time>
      </trkpt>
      <trkpt lat="47.5007" lon="6.75679">
        <ele>360</ele>
        <time>2015-05-25T10:08:53.000Z</time>
      </trkpt>
      <trkpt lat="47.50072" lon="6.75683">
        <ele>360</ele>
        <time>2015-05-25T10:08:55.000Z</time>
      </trkpt>
      <trkpt lat="47.50073" lon="6.75686">
        <ele>361</ele>
        <time>2015-05-25T10:08:56.000Z</time>
      </trkpt>
      <trkpt lat="47.50076" lon="6.7569">
        <ele>361</ele>
        <time>2015-05-25T10:08:58.000Z</time>
      </trkpt>
      <trkpt lat="47.50078" lon="6.75693">
        <ele>362</ele>
        <time>2015-05-25T10:08:59.000Z</time>
      </trkpt>
      <trkpt lat="47.5008" lon="6.75695">
        <ele>362</ele>
        <time>2015-05-25T10:09:00.000Z</time>
      </trkpt>
      <trkpt lat="47.50082" lon="6.75698">
        <ele>362</ele>
        <time>2015-05-25T10:09:01.000Z</time>
      </trkpt>
      <trkpt lat="47.50084" lon="6.757">
        <ele>359</ele>
        <time>2015-05-25T10:09:02.000Z</time>
      </trkpt>
      <trkpt lat="47.50087" lon="6.75702">
        <ele>359</ele>
        <time>2015-05-25T10:09:03.000Z</time>
      </trkpt>
      <trkpt lat="47.50088" lon="6.75704">
        <ele>359</ele>
        <time>2015-05-25T10:09:04.000Z</time>
      </trkpt>
      <trkpt lat="47.50091" lon="6.75706">
        <ele>359</ele>
        <time>2015-05-25T10:09:05.000Z</time>
      </trkpt>
      <trkpt lat="47.50093" lon="6.75708">
        <ele>359</ele>
        <time>2015-05-25T10:09:06.000Z</time>
      </trkpt>
      <trkpt lat="47.50095" lon="6.75709">
        <ele>360</ele>
        <time>2015-05-25T10:09:07.000Z</time>
      </trkpt>
      <trkpt lat="47.50097" lon="6.75711">
        <ele>360</ele>
        <time>2015-05-25T10:09:08.000Z</time>
      </trkpt>
      <trkpt lat="47.50099" lon="6.75713">
        <ele>360</ele>
        <time>2015-05-25T10:09:09.000Z</time>
      </trkpt>
      <trkpt lat="47.50101" lon="6.75716">
        <ele>360</ele>
        <time>2015-05-25T10:09:10.000Z</time>
      </trkpt>
      <trkpt lat="47.50103" lon="6.75719">
        <ele>360</ele>
        <time>2015-05-25T10:09:11.000Z</time>
      </trkpt>
      <trkpt lat="47.50106" lon="6.75722">
        <ele>360</ele>
        <time>2015-05-25T10:09:12.000Z</time>
      </trkpt>
      <trkpt lat="47.50108" lon="6.75724">
        <ele>361</ele>
        <time>2015-05-25T10:09:13.000Z</time>
      </trkpt>
      <trkpt lat="47.5011" lon="6.75726">
        <ele>361</ele>
        <time>2015-05-25T10:09:14.000Z</time>
      </trkpt>
      <trkpt lat="47.50112" lon="6.75728">
        <ele>361</ele>
        <time>2015-05-25T10:09:15.000Z</time>
      </trkpt>
      <trkpt lat="47.50114" lon="6.75731">
        <ele>361</ele>
        <time>2015-05-25T10:09:16.000Z</time>
      </trkpt>
      <trkpt lat="47.50116" lon="6.75734">
        <ele>361</ele>
        <time>2015-05-25T10:09:17.000Z</time>
      </trkpt>
      <trkpt lat="47.50118" lon="6.75737">
        <ele>361</ele>
        <time>2015-05-25T10:09:18.000Z</time>
      </trkpt>
      <trkpt lat="47.50121" lon="6.7574">
        <ele>361</ele>
        <time>2015-05-25T10:09:19.000Z</time>
      </trkpt>
      <trkpt lat="47.50123" lon="6.75742">
        <ele>361</ele>
        <time>2015-05-25T10:09:20.000Z</time>
      </trkpt>
      <trkpt lat="47.50124" lon="6.75745">
        <ele>360</ele>
        <time>2015-05-25T10:09:21.000Z</time>
      </trkpt>
      <trkpt lat="47.50126" lon="6.75748">
        <ele>360</ele>
        <time>2015-05-25T10:09:22.000Z</time>
      </trkpt>
      <trkpt lat="47.50128" lon="6.7575">
        <ele>363</ele>
        <time>2015-05-25T10:09:23.000Z</time>
      </trkpt>
      <trkpt lat="47.50129" lon="6.75753">
        <ele>363</ele>
        <time>2015-05-25T10:09:24.000Z</time>
      </trkpt>
      <trkpt lat="47.50131" lon="6.75755">
        <ele>363</ele>
        <time>2015-05-25T10:09:25.000Z</time>
      </trkpt>
      <trkpt lat="47.50133" lon="6.75757">
        <ele>363</ele>
        <time>2015-05-25T10:09:26.000Z</time>
      </trkpt>
      <trkpt lat="47.50135" lon="6.75759">
        <ele>363</ele>
        <time>2015-05-25T10:09:27.000Z</time>
      </trkpt>
      <trkpt lat="47.50138" lon="6.75761">
        <ele>363</ele>
        <time>2015-05-25T10:09:28.000Z</time>
      </trkpt>
      <trkpt lat="47.5014" lon="6.75763">
        <ele>362</ele>
        <time>2015-05-25T10:09:29.000Z</time>
      </trkpt>
      <trkpt lat="47.50142" lon="6.75766">
        <ele>362</ele>
        <time>2015-05-25T10:09:30.000Z</time>
      </trkpt>
      <trkpt lat="47.50143" lon="6.75768">
        <ele>362</ele>
        <time>2015-05-25T10:09:31.000Z</time>
      </trkpt>
      <trkpt lat="47.50145" lon="6.75771">
        <ele>362</ele>
        <time>2015-05-25T10:09:32.000Z</time>
      </trkpt>
      <trkpt lat="47.50147" lon="6.75773">
        <ele>362</ele>
        <time>2015-05-25T10:09:33.000Z</time>
      </trkpt>
      <trkpt lat="47.50151" lon="6.75777">
        <ele>362</ele>
        <time>2015-05-25T10:09:35.000Z</time>
      </trkpt>
      <trkpt lat="47.50152" lon="6.75779">
        <ele>362</ele>
        <time>2015-05-25T10:09:36.000Z</time>
      </trkpt>
      <trkpt lat="47.50154" lon="6.75783">
        <ele>362</ele>
        <time>2015-05-25T10:09:38.000Z</time>
      </trkpt>
      <trkpt lat="47.50155" lon="6.75785">
        <ele>362</ele>
        <time>2015-05-25T10:09:39.000Z</time>
      </trkpt>
      <trkpt lat="47.50157" lon="6.7579">
        <ele>362</ele>
        <time>2015-05-25T10:09:41.000Z</time>
      </trkpt>
      <trkpt lat="47.50159" lon="6.75792">
        <ele>362</ele>
        <time>2015-05-25T10:09:42.000Z</time>
      </trkpt>
      <trkpt lat="47.5016" lon="6.75795">
        <ele>362</ele>
        <time>2015-05-25T10:09:43.000Z</time>
      </trkpt>
      <trkpt lat="47.50162" lon="6.75797">
        <ele>362</ele>
        <time>2015-05-25T10:09:44.000Z</time>
      </trkpt>
      <trkpt lat="47.50165" lon="6.75802">
        <ele>362</ele>
        <time>2015-05-25T10:09:45.998Z</time>
      </trkpt>
      <trkpt lat="47.50167" lon="6.75804">
        <ele>362</ele>
        <time>2015-05-25T10:09:47.000Z</time>
      </trkpt>
      <trkpt lat="47.50168" lon="6.75807">
        <ele>362</ele>
        <time>2015-05-25T10:09:48.000Z</time>
      </trkpt>
      <trkpt lat="47.5017" lon="6.75809">
        <ele>362</ele>
        <time>2015-05-25T10:09:49.000Z</time>
      </trkpt>
      <trkpt lat="47.50173" lon="6.75814">
        <ele>362</ele>
        <time>2015-05-25T10:09:51.000Z</time>
      </trkpt>
      <trkpt lat="47.50174" lon="6.75816">
        <ele>362</ele>
        <time>2015-05-25T10:09:52.000Z</time>
      </trkpt>
      <trkpt lat="47.50176" lon="6.75821">
        <ele>361</ele>
        <time>2015-05-25T10:09:54.000Z</time>
      </trkpt>
      <trkpt lat="47.50178" lon="6.75824">
        <ele>361</ele>
        <time>2015-05-25T10:09:55.000Z</time>
      </trkpt>
      <trkpt lat="47.50179" lon="6.75826">
        <ele>361</ele>
        <time>2015-05-25T10:09:56.000Z</time>
      </trkpt>
      <trkpt lat="47.50181" lon="6.75829">
        <ele>361</ele>
        <time>2015-05-25T10:09:57.000Z</time>
      </trkpt>
      <trkpt lat="47.50183" lon="6.75834">
        <ele>362</ele>
        <time>2015-05-25T10:09:59.000Z</time>
      </trkpt>
      <trkpt lat="47.50184" lon="6.75836">
        <ele>362</ele>
        <time>2015-05-25T10:10:00.000Z</time>
      </trkpt>
      <trkpt lat="47.50187" lon="6.75841">
        <ele>363</ele>
        <time>2015-05-25T10:10:02.000Z</time>
      </trkpt>
      <trkpt lat="47.50188" lon="6.75843">
        <ele>363</ele>
        <time>2015-05-25T10:10:03.000Z</time>
      </trkpt>
      <trkpt lat="47.5019" lon="6.75848">
        <ele>364</ele>
        <time>2015-05-25T10:10:05.000Z</time>
      </trkpt>
      <trkpt lat="47.50192" lon="6.75851">
        <ele>364</ele>
        <time>2015-05-25T10:10:06.000Z</time>
      </trkpt>
      <trkpt lat="47.50194" lon="6.75856">
        <ele>364</ele>
        <time>2015-05-25T10:10:08.000Z</time>
      </trkpt>
      <trkpt lat="47.50195" lon="6.75859">
        <ele>364</ele>
        <time>2015-05-25T10:10:09.000Z</time>
      </trkpt>
      <trkpt lat="47.50195" lon="6.75863">
        <ele>364</ele>
        <time>2015-05-25T10:10:11.000Z</time>
      </trkpt>
      <trkpt lat="47.50196" lon="6.75865">
        <ele>364</ele>
        <time>2015-05-25T10:10:12.000Z</time>
      </trkpt>
      <trkpt lat="47.50197" lon="6.7587">
        <ele>365</ele>
        <time>2015-05-25T10:10:14.000Z</time>
      </trkpt>
      <trkpt lat="47.50198" lon="6.75872">
        <ele>365</ele>
        <time>2015-05-25T10:10:15.000Z</time>
      </trkpt>
      <trkpt lat="47.502" lon="6.75877">
        <ele>365</ele>
        <time>2015-05-25T10:10:17.000Z</time>
      </trkpt>
      <trkpt lat="47.502" lon="6.7588">
        <ele>365</ele>
        <time>2015-05-25T10:10:18.000Z</time>
      </trkpt>
      <trkpt lat="47.50202" lon="6.75884">
        <ele>365</ele>
        <time>2015-05-25T10:10:20.000Z</time>
      </trkpt>
      <trkpt lat="47.50203" lon="6.75886">
        <ele>365</ele>
        <time>2015-05-25T10:10:21.000Z</time>
      </trkpt>
      <trkpt lat="47.50204" lon="6.75891">
        <ele>365</ele>
        <time>2015-05-25T10:10:23.000Z</time>
      </trkpt>
      <trkpt lat="47.50205" lon="6.75893">
        <ele>365</ele>
        <time>2015-05-25T10:10:24.000Z</time>
      </trkpt>
      <trkpt lat="47.50206" lon="6.75899">
        <ele>365</ele>
        <time>2015-05-25T10:10:26.000Z</time>
      </trkpt>
      <trkpt lat="47.50207" lon="6.75902">
        <ele>365</ele>
        <time>2015-05-25T10:10:27.000Z</time>
      </trkpt>
      <trkpt lat="47.50209" lon="6.75908">
        <ele>365</ele>
        <time>2015-05-25T10:10:29.000Z</time>
      </trkpt>
      <trkpt lat="47.50209" lon="6.75911">
        <ele>365</ele>
        <time>2015-05-25T10:10:30.000Z</time>
      </trkpt>
      <trkpt lat="47.50211" lon="6.75917">
        <ele>367</ele>
        <time>2015-05-25T10:10:32.000Z</time>
      </trkpt>
      <trkpt lat="47.50211" lon="6.7592">
        <ele>367</ele>
        <time>2015-05-25T10:10:33.000Z</time>
      </trkpt>
      <trkpt lat="47.50212" lon="6.75925">
        <ele>367</ele>
        <time>2015-05-25T10:10:35.000Z</time>
      </trkpt>
      <trkpt lat="47.50213" lon="6.75928">
        <ele>367</ele>
        <time>2015-05-25T10:10:36.000Z</time>
      </trkpt>
      <trkpt lat="47.50214" lon="6.75933">
        <ele>367</ele>
        <time>2015-05-25T10:10:38.000Z</time>
      </trkpt>
      <trkpt lat="47.50214" lon="6.75935">
        <ele>367</ele>
        <time>2015-05-25T10:10:39.000Z</time>
      </trkpt>
      <trkpt lat="47.50215" lon="6.75941">
        <ele>367</ele>
        <time>2015-05-25T10:10:41.000Z</time>
      </trkpt>
      <trkpt lat="47.50216" lon="6.75943">
        <ele>368</ele>
        <time>2015-05-25T10:10:42.000Z</time>
      </trkpt>
      <trkpt lat="47.50217" lon="6.75949">
        <ele>368</ele>
        <time>2015-05-25T10:10:44.000Z</time>
      </trkpt>
      <trkpt lat="47.50218" lon="6.75952">
        <ele>368</ele>
        <time>2015-05-25T10:10:45.000Z</time>
      </trkpt>
      <trkpt lat="47.5022" lon="6.75955">
        <ele>368</ele>
        <time>2015-05-25T10:10:46.000Z</time>
      </trkpt>
      <trkpt lat="47.50221" lon="6.75958">
        <ele>368</ele>
        <time>2015-05-25T10:10:47.000Z</time>
      </trkpt>
      <trkpt lat="47.50222" lon="6.75964">
        <ele>368</ele>
        <time>2015-05-25T10:10:49.000Z</time>
      </trkpt>
      <trkpt lat="47.50223" lon="6.75966">
        <ele>368</ele>
        <time>2015-05-25T10:10:50.000Z</time>
      </trkpt>
      <trkpt lat="47.50224" lon="6.7597">
        <ele>368</ele>
        <time>2015-05-25T10:10:52.000Z</time>
      </trkpt>
      <trkpt lat="47.50224" lon="6.75973">
        <ele>368</ele>
        <time>2015-05-25T10:10:53.000Z</time>
      </trkpt>
      <trkpt lat="47.50226" lon="6.75978">
        <ele>368</ele>
        <time>2015-05-25T10:10:55.000Z</time>
      </trkpt>
      <trkpt lat="47.50226" lon="6.7598">
        <ele>368</ele>
        <time>2015-05-25T10:10:56.000Z</time>
      </trkpt>
      <trkpt lat="47.50223" lon="6.75983">
        <ele>368</ele>
        <time>2015-05-25T10:11:02.000Z</time>
      </trkpt>
      <trkpt lat="47.50222" lon="6.75982">
        <ele>368</ele>
        <time>2015-05-25T10:11:03.000Z</time>
      </trkpt>
      <trkpt lat="47.50217" lon="6.75984">
        <ele>368</ele>
        <time>2015-05-25T10:11:10.000Z</time>
      </trkpt>
      <trkpt lat="47.50217" lon="6.75984">
        <ele>368</ele>
        <time>2015-05-25T10:11:11.000Z</time>
      </trkpt>
      <trkpt lat="47.50213" lon="6.75987">
        <ele>368</ele>
        <time>2015-05-25T10:11:18.000Z</time>
      </trkpt>
      <trkpt lat="47.50212" lon="6.75986">
        <ele>368</ele>
        <time>2015-05-25T10:11:19.000Z</time>
      </trkpt>
      <trkpt lat="47.50208" lon="6.75988">
        <ele>368</ele>
        <time>2015-05-25T10:11:30.000Z</time>
      </trkpt>
      <trkpt lat="47.50207" lon="6.75989">
        <ele>368</ele>
        <time>2015-05-25T10:11:31.000Z</time>
      </trkpt>
      <trkpt lat="47.50204" lon="6.7599">
        <ele>369</ele>
        <time>2015-05-25T10:11:35.000Z</time>
      </trkpt>
      <trkpt lat="47.50203" lon="6.7599">
        <ele>369</ele>
        <time>2015-05-25T10:11:36.000Z</time>
      </trkpt>
      <trkpt lat="47.50199" lon="6.7599">
        <ele>369</ele>
        <time>2015-05-25T10:11:40.000Z</time>
      </trkpt>
      <trkpt lat="47.50198" lon="6.7599">
        <ele>369</ele>
        <time>2015-05-25T10:11:41.000Z</time>
      </trkpt>
      <trkpt lat="47.50194" lon="6.75992">
        <ele>369</ele>
        <time>2015-05-25T10:11:44.000Z</time>
      </trkpt>
      <trkpt lat="47.50193" lon="6.75993">
        <ele>369</ele>
        <time>2015-05-25T10:11:45.000Z</time>
      </trkpt>
      <trkpt lat="47.5019" lon="6.75995">
        <ele>369</ele>
        <time>2015-05-25T10:11:48.000Z</time>
      </trkpt>
      <trkpt lat="47.50189" lon="6.75995">
        <ele>369</ele>
        <time>2015-05-25T10:11:49.000Z</time>
      </trkpt>
      <trkpt lat="47.50184" lon="6.75996">
        <ele>369</ele>
        <time>2015-05-25T10:11:53.000Z</time>
      </trkpt>
      <trkpt lat="47.50183" lon="6.75996">
        <ele>369</ele>
        <time>2015-05-25T10:11:54.000Z</time>
      </trkpt>
      <trkpt lat="47.50179" lon="6.75997">
        <ele>370</ele>
        <time>2015-05-25T10:11:56.000Z</time>
      </trkpt>
      <trkpt lat="47.50177" lon="6.75997">
        <ele>370</ele>
        <time>2015-05-25T10:11:57.000Z</time>
      </trkpt>
      <trkpt lat="47.50173" lon="6.75997">
        <ele>370</ele>
        <time>2015-05-25T10:12:02.000Z</time>
      </trkpt>
      <trkpt lat="47.50172" lon="6.75997">
        <ele>370</ele>
        <time>2015-05-25T10:12:03.000Z</time>
      </trkpt>
      <trkpt lat="47.50168" lon="6.75997">
        <ele>371</ele>
        <time>2015-05-25T10:12:07.000Z</time>
      </trkpt>
      <trkpt lat="47.50168" lon="6.75997">
        <ele>371</ele>
        <time>2015-05-25T10:12:08.000Z</time>
      </trkpt>
      <trkpt lat="47.50163" lon="6.75998">
        <ele>371</ele>
        <time>2015-05-25T10:12:12.000Z</time>
      </trkpt>
      <trkpt lat="47.50162" lon="6.75998">
        <ele>371</ele>
        <time>2015-05-25T10:12:13.000Z</time>
      </trkpt>
      <trkpt lat="47.50158" lon="6.76001">
        <ele>373</ele>
        <time>2015-05-25T10:12:16.000Z</time>
      </trkpt>
      <trkpt lat="47.50156" lon="6.76002">
        <ele>373</ele>
        <time>2015-05-25T10:12:17.000Z</time>
      </trkpt>
      <trkpt lat="47.50153" lon="6.76003">
        <ele>374</ele>
        <time>2015-05-25T10:12:19.000Z</time>
      </trkpt>
      <trkpt lat="47.50151" lon="6.76004">
        <ele>374</ele>
        <time>2015-05-25T10:12:20.000Z</time>
      </trkpt>
      <trkpt lat="47.50148" lon="6.76005">
        <ele>375</ele>
        <time>2015-05-25T10:12:22.000Z</time>
      </trkpt>
      <trkpt lat="47.50146" lon="6.76005">
        <ele>375</ele>
        <time>2015-05-25T10:12:23.000Z</time>
      </trkpt>
      <trkpt lat="47.50142" lon="6.76007">
        <ele>376</ele>
        <time>2015-05-25T10:12:26.000Z</time>
      </trkpt>
      <trkpt lat="47.5014" lon="6.76007">
        <ele>376</ele>
        <time>2015-05-25T10:12:27.000Z</time>
      </trkpt>
      <trkpt lat="47.50136" lon="6.76007">
        <ele>376</ele>
        <time>2015-05-25T10:12:29.998Z</time>
      </trkpt>
      <trkpt lat="47.50135" lon="6.76008">
        <ele>377</ele>
        <time>2015-05-25T10:12:31.000Z</time>
      </trkpt>
      <trkpt lat="47.5013" lon="6.76008">
        <ele>377</ele>
        <time>2015-05-25T10:12:36.000Z</time>
      </trkpt>
      <trkpt lat="47.50129" lon="6.76009">
        <ele>377</ele>
        <time>2015-05-25T10:12:37.000Z</time>
      </trkpt>
      <trkpt lat="47.50126" lon="6.7601">
        <ele>377</ele>
        <time>2015-05-25T10:12:40.000Z</time>
      </trkpt>
      <trkpt lat="47.50125" lon="6.76011">
        <ele>378</ele>
        <time>2015-05-25T10:12:41.000Z</time>
      </trkpt>
      <trkpt lat="47.50121" lon="6.76012">
        <ele>378</ele>
        <time>2015-05-25T10:12:44.000Z</time>
      </trkpt>
      <trkpt lat="47.5012" lon="6.76013">
        <ele>378</ele>
        <time>2015-05-25T10:12:45.000Z</time>
      </trkpt>
      <trkpt lat="47.50116" lon="6.76013">
        <ele>378</ele>
        <time>2015-05-25T10:12:49.000Z</time>
      </trkpt>
      <trkpt lat="47.50115" lon="6.76014">
        <ele>378</ele>
        <time>2015-05-25T10:12:50.000Z</time>
      </trkpt>
      <trkpt lat="47.50113" lon="6.76019">
        <ele>379</ele>
        <time>2015-05-25T10:12:53.000Z</time>
      </trkpt>
      <trkpt lat="47.50113" lon="6.76022">
        <ele>379</ele>
        <time>2015-05-25T10:12:54.000Z</time>
      </trkpt>
      <trkpt lat="47.50114" lon="6.76028">
        <ele>379</ele>
        <time>2015-05-25T10:12:56.000Z</time>
      </trkpt>
      <trkpt lat="47.50114" lon="6.76031">
        <ele>379</ele>
        <time>2015-05-25T10:12:57.000Z</time>
      </trkpt>
      <trkpt lat="47.50115" lon="6.76036">
        <ele>379</ele>
        <time>2015-05-25T10:13:00.000Z</time>
      </trkpt>
      <trkpt lat="47.50115" lon="6.76038">
        <ele>379</ele>
        <time>2015-05-25T10:13:01.000Z</time>
      </trkpt>
      <trkpt lat="47.50115" lon="6.76044">
        <ele>379</ele>
        <time>2015-05-25T10:13:05.000Z</time>
      </trkpt>
      <trkpt lat="47.50114" lon="6.76046">
        <ele>379</ele>
        <time>2015-05-25T10:13:06.000Z</time>
      </trkpt>
      <trkpt lat="47.50113" lon="6.7605">
        <ele>380</ele>
        <time>2015-05-25T10:13:08.000Z</time>
      </trkpt>
      <trkpt lat="47.50111" lon="6.76052">
        <ele>380</ele>
        <time>2015-05-25T10:13:09.000Z</time>
      </trkpt>
      <trkpt lat="47.5011" lon="6.76058">
        <ele>380</ele>
        <time>2015-05-25T10:13:11.000Z</time>
      </trkpt>
      <trkpt lat="47.5011" lon="6.7606">
        <ele>381</ele>
        <time>2015-05-25T10:13:12.000Z</time>
      </trkpt>
      <trkpt lat="47.50109" lon="6.76066">
        <ele>381</ele>
        <time>2015-05-25T10:13:15.000Z</time>
      </trkpt>
      <trkpt lat="47.50108" lon="6.76068">
        <ele>381</ele>
        <time>2015-05-25T10:13:16.000Z</time>
      </trkpt>
      <trkpt lat="47.50107" lon="6.76074">
        <ele>382</ele>
        <time>2015-05-25T10:13:19.000Z</time>
      </trkpt>
      <trkpt lat="47.50107" lon="6.76075">
        <ele>382</ele>
        <time>2015-05-25T10:13:20.000Z</time>
      </trkpt>
      <trkpt lat="47.50107" lon="6.76081">
        <ele>382</ele>
        <time>2015-05-25T10:13:23.000Z</time>
      </trkpt>
      <trkpt lat="47.50107" lon="6.76085">
        <ele>385</ele>
        <time>2015-05-25T10:13:24.000Z</time>
      </trkpt>
      <trkpt lat="47.50108" lon="6.76089">
        <ele>385</ele>
        <time>2015-05-25T10:13:25.000Z</time>
      </trkpt>
      <trkpt lat="47.50109" lon="6.76093">
        <ele>385</ele>
        <time>2015-05-25T10:13:26.000Z</time>
      </trkpt>
      <trkpt lat="47.50109" lon="6.76097">
        <ele>385</ele>
        <time>2015-05-25T10:13:27.000Z</time>
      </trkpt>
      <trkpt lat="47.5011" lon="6.76101">
        <ele>385</ele>
        <time>2015-05-25T10:13:28.000Z</time>
      </trkpt>
      <trkpt lat="47.5011" lon="6.76105">
        <ele>385</ele>
        <time>2015-05-25T10:13:29.000Z</time>
      </trkpt>
      <trkpt lat="47.50111" lon="6.76108">
        <ele>385</ele>
        <time>2015-05-25T10:13:30.000Z</time>
      </trkpt>
      <trkpt lat="47.50112" lon="6.76112">
        <ele>385</ele>
        <time>2015-05-25T10:13:31.000Z</time>
      </trkpt>
      <trkpt lat="47.50112" lon="6.76115">
        <ele>385</ele>
        <time>2015-05-25T10:13:32.000Z</time>
      </trkpt>
      <trkpt lat="47.50111" lon="6.76121">
        <ele>385</ele>
        <time>2015-05-25T10:13:34.000Z</time>
      </trkpt>
      <trkpt lat="47.50111" lon="6.76124">
        <ele>385</ele>
        <time>2015-05-25T10:13:35.000Z</time>
      </trkpt>
      <trkpt lat="47.50111" lon="6.76131">
        <ele>386</ele>
        <time>2015-05-25T10:13:37.000Z</time>
      </trkpt>
      <trkpt lat="47.50111" lon="6.76133">
        <ele>386</ele>
        <time>2015-05-25T10:13:38.000Z</time>
      </trkpt>
      <trkpt lat="47.5011" lon="6.76139">
        <ele>386</ele>
        <time>2015-05-25T10:13:40.000Z</time>
      </trkpt>
      <trkpt lat="47.50111" lon="6.76142">
        <ele>386</ele>
        <time>2015-05-25T10:13:41.000Z</time>
      </trkpt>
      <trkpt lat="47.50111" lon="6.76146">
        <ele>387</ele>
        <time>2015-05-25T10:13:42.000Z</time>
      </trkpt>
      <trkpt lat="47.50111" lon="6.7615">
        <ele>387</ele>
        <time>2015-05-25T10:13:43.000Z</time>
      </trkpt>
      <trkpt lat="47.50111" lon="6.76153">
        <ele>387</ele>
        <time>2015-05-25T10:13:44.000Z</time>
      </trkpt>
      <trkpt lat="47.50111" lon="6.76157">
        <ele>387</ele>
        <time>2015-05-25T10:13:45.000Z</time>
      </trkpt>
      <trkpt lat="47.50109" lon="6.76163">
        <ele>388</ele>
        <time>2015-05-25T10:13:47.000Z</time>
      </trkpt>
      <trkpt lat="47.50108" lon="6.76166">
        <ele>388</ele>
        <time>2015-05-25T10:13:48.000Z</time>
      </trkpt>
      <trkpt lat="47.50108" lon="6.76169">
        <ele>392</ele>
        <time>2015-05-25T10:13:49.000Z</time>
      </trkpt>
      <trkpt lat="47.50108" lon="6.76173">
        <ele>392</ele>
        <time>2015-05-25T10:13:50.000Z</time>
      </trkpt>
      <trkpt lat="47.50109" lon="6.76176">
        <ele>392</ele>
        <time>2015-05-25T10:13:51.000Z</time>
      </trkpt>
      <trkpt lat="47.5011" lon="6.7618">
        <ele>391</ele>
        <time>2015-05-25T10:13:52.000Z</time>
      </trkpt>
      <trkpt lat="47.50111" lon="6.76184">
        <ele>391</ele>
        <time>2015-05-25T10:13:53.000Z</time>
      </trkpt>
      <trkpt lat="47.50113" lon="6.76189">
        <ele>391</ele>
        <time>2015-05-25T10:13:54.000Z</time>
      </trkpt>
      <trkpt lat="47.50115" lon="6.76193">
        <ele>391</ele>
        <time>2015-05-25T10:13:55.000Z</time>
      </trkpt>
      <trkpt lat="47.50117" lon="6.76198">
        <ele>391</ele>
        <time>2015-05-25T10:13:56.000Z</time>
      </trkpt>
      <trkpt lat="47.50119" lon="6.76203">
        <ele>391</ele>
        <time>2015-05-25T10:13:57.000Z</time>
      </trkpt>
      <trkpt lat="47.5012" lon="6.76208">
        <ele>391</ele>
        <time>2015-05-25T10:13:58.000Z</time>
      </trkpt>
      <trkpt lat="47.50122" lon="6.76213">
        <ele>391</ele>
        <time>2015-05-25T10:13:59.000Z</time>
      </trkpt>
      <trkpt lat="47.50123" lon="6.76217">
        <ele>391</ele>
        <time>2015-05-25T10:14:00.000Z</time>
      </trkpt>
      <trkpt lat="47.50123" lon="6.7622">
        <ele>391</ele>
        <time>2015-05-25T10:14:01.000Z</time>
      </trkpt>
      <trkpt lat="47.50123" lon="6.76223">
        <ele>391</ele>
        <time>2015-05-25T10:14:02.000Z</time>
      </trkpt>
      <trkpt lat="47.50123" lon="6.76229">
        <ele>392</ele>
        <time>2015-05-25T10:14:04.000Z</time>
      </trkpt>
      <trkpt lat="47.50123" lon="6.76233">
        <ele>392</ele>
        <time>2015-05-25T10:14:05.000Z</time>
      </trkpt>
      <trkpt lat="47.50124" lon="6.76237">
        <ele>392</ele>
        <time>2015-05-25T10:14:06.000Z</time>
      </trkpt>
      <trkpt lat="47.50124" lon="6.76241">
        <ele>392</ele>
        <time>2015-05-25T10:14:07.000Z</time>
      </trkpt>
      <trkpt lat="47.50125" lon="6.76245">
        <ele>392</ele>
        <time>2015-05-25T10:14:08.000Z</time>
      </trkpt>
      <trkpt lat="47.50125" lon="6.76249">
        <ele>392</ele>
        <time>2015-05-25T10:14:09.000Z</time>
      </trkpt>
      <trkpt lat="47.50127" lon="6.76253">
        <ele>396</ele>
        <time>2015-05-25T10:14:10.000Z</time>
      </trkpt>
      <trkpt lat="47.50128" lon="6.76258">
        <ele>396</ele>
        <time>2015-05-25T10:14:11.000Z</time>
      </trkpt>
      <trkpt lat="47.50129" lon="6.76263">
        <ele>396</ele>
        <time>2015-05-25T10:14:12.000Z</time>
      </trkpt>
      <trkpt lat="47.50131" lon="6.76269">
        <ele>396</ele>
        <time>2015-05-25T10:14:13.000Z</time>
      </trkpt>
      <trkpt lat="47.50132" lon="6.76274">
        <ele>396</ele>
        <time>2015-05-25T10:14:14.000Z</time>
      </trkpt>
      <trkpt lat="47.50134" lon="6.76278">
        <ele>396</ele>
        <time>2015-05-25T10:14:15.000Z</time>
      </trkpt>
      <trkpt lat="47.50136" lon="6.76284">
        <ele>396</ele>
        <time>2015-05-25T10:14:17.000Z</time>
      </trkpt>
      <trkpt lat="47.50136" lon="6.76287">
        <ele>396</ele>
        <time>2015-05-25T10:14:18.000Z</time>
      </trkpt>
      <trkpt lat="47.50137" lon="6.7629">
        <ele>396</ele>
        <time>2015-05-25T10:14:19.000Z</time>
      </trkpt>
      <trkpt lat="47.50138" lon="6.76294">
        <ele>396</ele>
        <time>2015-05-25T10:14:20.000Z</time>
      </trkpt>
      <trkpt lat="47.50139" lon="6.76298">
        <ele>396</ele>
        <time>2015-05-25T10:14:21.000Z</time>
      </trkpt>
      <trkpt lat="47.5014" lon="6.76301">
        <ele>396</ele>
        <time>2015-05-25T10:14:22.000Z</time>
      </trkpt>
      <trkpt lat="47.5014" lon="6.76305">
        <ele>396</ele>
        <time>2015-05-25T10:14:23.000Z</time>
      </trkpt>
      <trkpt lat="47.50141" lon="6.76308">
        <ele>396</ele>
        <time>2015-05-25T10:14:24.000Z</time>
      </trkpt>
      <trkpt lat="47.50141" lon="6.76311">
        <ele>396</ele>
        <time>2015-05-25T10:14:25.000Z</time>
      </trkpt>
      <trkpt lat="47.50141" lon="6.76315">
        <ele>396</ele>
        <time>2015-05-25T10:14:26.000Z</time>
      </trkpt>
      <trkpt lat="47.50142" lon="6.7632">
        <ele>396</ele>
        <time>2015-05-25T10:14:27.000Z</time>
      </trkpt>
      <trkpt lat="47.50143" lon="6.76325">
        <ele>396</ele>
        <time>2015-05-25T10:14:28.000Z</time>
      </trkpt>
      <trkpt lat="47.50145" lon="6.7633">
        <ele>395</ele>
        <time>2015-05-25T10:14:29.000Z</time>
      </trkpt>
      <trkpt lat="47.50147" lon="6.76335">
        <ele>398</ele>
        <time>2015-05-25T10:14:30.000Z</time>
      </trkpt>
      <trkpt lat="47.50149" lon="6.76339">
        <ele>397</ele>
        <time>2015-05-25T10:14:31.000Z</time>
      </trkpt>
      <trkpt lat="47.50151" lon="6.76343">
        <ele>397</ele>
        <time>2015-05-25T10:14:32.000Z</time>
      </trkpt>
      <trkpt lat="47.50152" lon="6.76347">
        <ele>397</ele>
        <time>2015-05-25T10:14:33.000Z</time>
      </trkpt>
      <trkpt lat="47.50153" lon="6.7635">
        <ele>398</ele>
        <time>2015-05-25T10:14:34.000Z</time>
      </trkpt>
      <trkpt lat="47.50154" lon="6.76354">
        <ele>398</ele>
        <time>2015-05-25T10:14:35.000Z</time>
      </trkpt>
      <trkpt lat="47.50155" lon="6.76358">
        <ele>399</ele>
        <time>2015-05-25T10:14:36.000Z</time>
      </trkpt>
      <trkpt lat="47.50156" lon="6.76362">
        <ele>399</ele>
        <time>2015-05-25T10:14:37.000Z</time>
      </trkpt>
      <trkpt lat="47.50156" lon="6.76367">
        <ele>400</ele>
        <time>2015-05-25T10:14:38.000Z</time>
      </trkpt>
      <trkpt lat="47.50157" lon="6.76371">
        <ele>400</ele>
        <time>2015-05-25T10:14:39.000Z</time>
      </trkpt>
      <trkpt lat="47.50158" lon="6.76376">
        <ele>400</ele>
        <time>2015-05-25T10:14:40.000Z</time>
      </trkpt>
      <trkpt lat="47.50158" lon="6.7638">
        <ele>400</ele>
        <time>2015-05-25T10:14:41.000Z</time>
      </trkpt>
      <trkpt lat="47.50158" lon="6.76383">
        <ele>401</ele>
        <time>2015-05-25T10:14:42.000Z</time>
      </trkpt>
      <trkpt lat="47.50156" lon="6.76389">
        <ele>401</ele>
        <time>2015-05-25T10:14:44.000Z</time>
      </trkpt>
      <trkpt lat="47.50157" lon="6.76391">
        <ele>401</ele>
        <time>2015-05-25T10:14:45.000Z</time>
      </trkpt>
      <trkpt lat="47.50158" lon="6.76394">
        <ele>401</ele>
        <time>2015-05-25T10:14:46.000Z</time>
      </trkpt>
      <trkpt lat="47.5016" lon="6.76397">
        <ele>401</ele>
        <time>2015-05-25T10:14:47.000Z</time>
      </trkpt>
      <trkpt lat="47.50161" lon="6.76399">
        <ele>401</ele>
        <time>2015-05-25T10:14:48.000Z</time>
      </trkpt>
      <trkpt lat="47.50163" lon="6.76402">
        <ele>400</ele>
        <time>2015-05-25T10:14:49.000Z</time>
      </trkpt>
      <trkpt lat="47.50165" lon="6.76404">
        <ele>400</ele>
        <time>2015-05-25T10:14:50.000Z</time>
      </trkpt>
      <trkpt lat="47.50167" lon="6.76406">
        <ele>400</ele>
        <time>2015-05-25T10:14:51.000Z</time>
      </trkpt>
      <trkpt lat="47.50169" lon="6.76409">
        <ele>396</ele>
        <time>2015-05-25T10:14:52.000Z</time>
      </trkpt>
      <trkpt lat="47.50172" lon="6.76413">
        <ele>397</ele>
        <time>2015-05-25T10:14:53.000Z</time>
      </trkpt>
      <trkpt lat="47.50176" lon="6.76418">
        <ele>398</ele>
        <time>2015-05-25T10:14:54.000Z</time>
      </trkpt>
      <trkpt lat="47.50179" lon="6.76422">
        <ele>397</ele>
        <time>2015-05-25T10:14:55.000Z</time>
      </trkpt>
      <trkpt lat="47.50182" lon="6.76426">
        <ele>397</ele>
        <time>2015-05-25T10:14:56.000Z</time>
      </trkpt>
      <trkpt lat="47.50184" lon="6.76431">
        <ele>397</ele>
        <time>2015-05-25T10:14:57.000Z</time>
      </trkpt>
      <trkpt lat="47.50186" lon="6.76435">
        <ele>396</ele>
        <time>2015-05-25T10:14:58.000Z</time>
      </trkpt>
      <trkpt lat="47.50187" lon="6.76439">
        <ele>396</ele>
        <time>2015-05-25T10:14:59.000Z</time>
      </trkpt>
      <trkpt lat="47.50188" lon="6.76443">
        <ele>396</ele>
        <time>2015-05-25T10:15:00.000Z</time>
      </trkpt>
      <trkpt lat="47.50188" lon="6.76449">
        <ele>396</ele>
        <time>2015-05-25T10:15:02.000Z</time>
      </trkpt>
      <trkpt lat="47.50189" lon="6.76451">
        <ele>397</ele>
        <time>2015-05-25T10:15:03.000Z</time>
      </trkpt>
      <trkpt lat="47.5019" lon="6.76456">
        <ele>397</ele>
        <time>2015-05-25T10:15:05.000Z</time>
      </trkpt>
      <trkpt lat="47.50191" lon="6.76459">
        <ele>397</ele>
        <time>2015-05-25T10:15:06.000Z</time>
      </trkpt>
      <trkpt lat="47.50192" lon="6.76461">
        <ele>397</ele>
        <time>2015-05-25T10:15:07.000Z</time>
      </trkpt>
      <trkpt lat="47.50194" lon="6.76464">
        <ele>397</ele>
        <time>2015-05-25T10:15:08.000Z</time>
      </trkpt>
      <trkpt lat="47.50195" lon="6.76467">
        <ele>397</ele>
        <time>2015-05-25T10:15:09.000Z</time>
      </trkpt>
      <trkpt lat="47.50196" lon="6.7647">
        <ele>397</ele>
        <time>2015-05-25T10:15:10.000Z</time>
      </trkpt>
      <trkpt lat="47.50198" lon="6.76476">
        <ele>397</ele>
        <time>2015-05-25T10:15:12.000Z</time>
      </trkpt>
      <trkpt lat="47.50199" lon="6.76478">
        <ele>397</ele>
        <time>2015-05-25T10:15:13.000Z</time>
      </trkpt>
      <trkpt lat="47.502" lon="6.76481">
        <ele>397</ele>
        <time>2015-05-25T10:15:15.000Z</time>
      </trkpt>
      <trkpt lat="47.50201" lon="6.76483">
        <ele>397</ele>
        <time>2015-05-25T10:15:16.000Z</time>
      </trkpt>
      <trkpt lat="47.50204" lon="6.76487">
        <ele>397</ele>
        <time>2015-05-25T10:15:18.000Z</time>
      </trkpt>
      <trkpt lat="47.50206" lon="6.76489">
        <ele>397</ele>
        <time>2015-05-25T10:15:19.000Z</time>
      </trkpt>
      <trkpt lat="47.50208" lon="6.76492">
        <ele>397</ele>
        <time>2015-05-25T10:15:21.000Z</time>
      </trkpt>
      <trkpt lat="47.50209" lon="6.76494">
        <ele>396</ele>
        <time>2015-05-25T10:15:22.000Z</time>
      </trkpt>
      <trkpt lat="47.50211" lon="6.76497">
        <ele>396</ele>
        <time>2015-05-25T10:15:24.000Z</time>
      </trkpt>
      <trkpt lat="47.50212" lon="6.765">
        <ele>396</ele>
        <time>2015-05-25T10:15:25.000Z</time>
      </trkpt>
      <trkpt lat="47.50214" lon="6.76504">
        <ele>399</ele>
        <time>2015-05-25T10:15:27.000Z</time>
      </trkpt>
      <trkpt lat="47.50215" lon="6.76507">
        <ele>399</ele>
        <time>2015-05-25T10:15:28.000Z</time>
      </trkpt>
      <trkpt lat="47.50216" lon="6.76511">
        <ele>399</ele>
        <time>2015-05-25T10:15:30.000Z</time>
      </trkpt>
      <trkpt lat="47.50217" lon="6.76513">
        <ele>399</ele>
        <time>2015-05-25T10:15:31.000Z</time>
      </trkpt>
      <trkpt lat="47.50218" lon="6.76517">
        <ele>399</ele>
        <time>2015-05-25T10:15:33.000Z</time>
      </trkpt>
      <trkpt lat="47.50218" lon="6.76519">
        <ele>399</ele>
        <time>2015-05-25T10:15:34.000Z</time>
      </trkpt>
      <trkpt lat="47.50219" lon="6.76525">
        <ele>399</ele>
        <time>2015-05-25T10:15:37.000Z</time>
      </trkpt>
      <trkpt lat="47.50219" lon="6.76526">
        <ele>399</ele>
        <time>2015-05-25T10:15:38.000Z</time>
      </trkpt>
      <trkpt lat="47.50219" lon="6.76533">
        <ele>400</ele>
        <time>2015-05-25T10:15:42.000Z</time>
      </trkpt>
      <trkpt lat="47.50219" lon="6.76534">
        <ele>400</ele>
        <time>2015-05-25T10:15:43.000Z</time>
      </trkpt>
      <trkpt lat="47.50218" lon="6.7654">
        <ele>400</ele>
        <time>2015-05-25T10:15:46.000Z</time>
      </trkpt>
      <trkpt lat="47.50216" lon="6.76542">
        <ele>400</ele>
        <time>2015-05-25T10:15:47.000Z</time>
      </trkpt>
      <trkpt lat="47.50213" lon="6.76546">
        <ele>401</ele>
        <time>2015-05-25T10:15:49.000Z</time>
      </trkpt>
      <trkpt lat="47.50211" lon="6.76547">
        <ele>401</ele>
        <time>2015-05-25T10:15:50.000Z</time>
      </trkpt>
      <trkpt lat="47.50208" lon="6.7655">
        <ele>401</ele>
        <time>2015-05-25T10:15:53.000Z</time>
      </trkpt>
      <trkpt lat="47.50207" lon="6.76551">
        <ele>401</ele>
        <time>2015-05-25T10:15:54.000Z</time>
      </trkpt>
      <trkpt lat="47.50204" lon="6.76553">
        <ele>401</ele>
        <time>2015-05-25T10:15:56.000Z</time>
      </trkpt>
      <trkpt lat="47.50203" lon="6.76553">
        <ele>401</ele>
        <time>2015-05-25T10:15:57.000Z</time>
      </trkpt>
      <trkpt lat="47.50199" lon="6.76556">
        <ele>402</ele>
        <time>2015-05-25T10:15:59.000Z</time>
      </trkpt>
      <trkpt lat="47.50198" lon="6.76557">
        <ele>402</ele>
        <time>2015-05-25T10:16:00.000Z</time>
      </trkpt>
      <trkpt lat="47.50194" lon="6.76559">
        <ele>402</ele>
        <time>2015-05-25T10:16:03.000Z</time>
      </trkpt>
      <trkpt lat="47.50193" lon="6.7656">
        <ele>402</ele>
        <time>2015-05-25T10:16:04.000Z</time>
      </trkpt>
      <trkpt lat="47.50191" lon="6.76565">
        <ele>403</ele>
        <time>2015-05-25T10:16:07.000Z</time>
      </trkpt>
      <trkpt lat="47.5019" lon="6.76568">
        <ele>403</ele>
        <time>2015-05-25T10:16:08.000Z</time>
      </trkpt>
      <trkpt lat="47.50189" lon="6.76572">
        <ele>403</ele>
        <time>2015-05-25T10:16:10.000Z</time>
      </trkpt>
      <trkpt lat="47.50189" lon="6.76575">
        <ele>403</ele>
        <time>2015-05-25T10:16:11.000Z</time>
      </trkpt>
      <trkpt lat="47.5019" lon="6.7658">
        <ele>403</ele>
        <time>2015-05-25T10:16:13.000Z</time>
      </trkpt>
      <trkpt lat="47.5019" lon="6.76582">
        <ele>403</ele>
        <time>2015-05-25T10:16:14.000Z</time>
      </trkpt>
      <trkpt lat="47.5019" lon="6.76588">
        <ele>404</ele>
        <time>2015-05-25T10:16:17.000Z</time>
      </trkpt>
      <trkpt lat="47.50189" lon="6.7659">
        <ele>404</ele>
        <time>2015-05-25T10:16:18.000Z</time>
      </trkpt>
      <trkpt lat="47.50189" lon="6.76596">
        <ele>404</ele>
        <time>2015-05-25T10:16:20.000Z</time>
      </trkpt>
      <trkpt lat="47.50189" lon="6.76598">
        <ele>404</ele>
        <time>2015-05-25T10:16:21.000Z</time>
      </trkpt>
      <trkpt lat="47.50189" lon="6.76604">
        <ele>403</ele>
        <time>2015-05-25T10:16:23.000Z</time>
      </trkpt>
      <trkpt lat="47.50189" lon="6.76607">
        <ele>403</ele>
        <time>2015-05-25T10:16:24.000Z</time>
      </trkpt>
      <trkpt lat="47.5019" lon="6.76612">
        <ele>403</ele>
        <time>2015-05-25T10:16:26.000Z</time>
      </trkpt>
      <trkpt lat="47.50191" lon="6.76614">
        <ele>403</ele>
        <time>2015-05-25T10:16:27.000Z</time>
      </trkpt>
      <trkpt lat="47.50193" lon="6.76619">
        <ele>403</ele>
        <time>2015-05-25T10:16:29.000Z</time>
      </trkpt>
      <trkpt lat="47.50195" lon="6.76622">
        <ele>403</ele>
        <time>2015-05-25T10:16:30.000Z</time>
      </trkpt>
      <trkpt lat="47.50196" lon="6.76625">
        <ele>403</ele>
        <time>2015-05-25T10:16:31.000Z</time>
      </trkpt>
      <trkpt lat="47.50197" lon="6.76627">
        <ele>402</ele>
        <time>2015-05-25T10:16:32.000Z</time>
      </trkpt>
      <trkpt lat="47.502" lon="6.76633">
        <ele>402</ele>
        <time>2015-05-25T10:16:34.000Z</time>
      </trkpt>
      <trkpt lat="47.50201" lon="6.76635">
        <ele>402</ele>
        <time>2015-05-25T10:16:35.000Z</time>
      </trkpt>
      <trkpt lat="47.50203" lon="6.76641">
        <ele>402</ele>
        <time>2015-05-25T10:16:37.000Z</time>
      </trkpt>
      <trkpt lat="47.50204" lon="6.76644">
        <ele>402</ele>
        <time>2015-05-25T10:16:38.000Z</time>
      </trkpt>
      <trkpt lat="47.50206" lon="6.76649">
        <ele>402</ele>
        <time>2015-05-25T10:16:40.000Z</time>
      </trkpt>
      <trkpt lat="47.50207" lon="6.76652">
        <ele>402</ele>
        <time>2015-05-25T10:16:41.000Z</time>
      </trkpt>
      <trkpt lat="47.50209" lon="6.76657">
        <ele>402</ele>
        <time>2015-05-25T10:16:43.000Z</time>
      </trkpt>
      <trkpt lat="47.5021" lon="6.7666">
        <ele>402</ele>
        <time>2015-05-25T10:16:44.000Z</time>
      </trkpt>
      <trkpt lat="47.5021" lon="6.76663">
        <ele>402</ele>
        <time>2015-05-25T10:16:45.000Z</time>
      </trkpt>
      <trkpt lat="47.50211" lon="6.76667">
        <ele>402</ele>
        <time>2015-05-25T10:16:46.000Z</time>
      </trkpt>
      <trkpt lat="47.50212" lon="6.7667">
        <ele>402</ele>
        <time>2015-05-25T10:16:47.000Z</time>
      </trkpt>
      <trkpt lat="47.50213" lon="6.76673">
        <ele>402</ele>
        <time>2015-05-25T10:16:48.000Z</time>
      </trkpt>
      <trkpt lat="47.50214" lon="6.76679">
        <ele>402</ele>
        <time>2015-05-25T10:16:50.000Z</time>
      </trkpt>
      <trkpt lat="47.50215" lon="6.76682">
        <ele>402</ele>
        <time>2015-05-25T10:16:51.000Z</time>
      </trkpt>
      <trkpt lat="47.50216" lon="6.76688">
        <ele>402</ele>
        <time>2015-05-25T10:16:53.000Z</time>
      </trkpt>
      <trkpt lat="47.50217" lon="6.76691">
        <ele>402</ele>
        <time>2015-05-25T10:16:54.000Z</time>
      </trkpt>
      <trkpt lat="47.50218" lon="6.76695">
        <ele>402</ele>
        <time>2015-05-25T10:16:55.000Z</time>
      </trkpt>
      <trkpt lat="47.50219" lon="6.76698">
        <ele>402</ele>
        <time>2015-05-25T10:16:56.000Z</time>
      </trkpt>
      <trkpt lat="47.5022" lon="6.76701">
        <ele>402</ele>
        <time>2015-05-25T10:16:57.000Z</time>
      </trkpt>
      <trkpt lat="47.50221" lon="6.76704">
        <ele>402</ele>
        <time>2015-05-25T10:16:58.000Z</time>
      </trkpt>
      <trkpt lat="47.50222" lon="6.76707">
        <ele>402</ele>
        <time>2015-05-25T10:16:59.000Z</time>
      </trkpt>
      <trkpt lat="47.50223" lon="6.76711">
        <ele>402</ele>
        <time>2015-05-25T10:17:00.000Z</time>
      </trkpt>
      <trkpt lat="47.50225" lon="6.76714">
        <ele>402</ele>
        <time>2015-05-25T10:17:01.000Z</time>
      </trkpt>
      <trkpt lat="47.50226" lon="6.76718">
        <ele>402</ele>
        <time>2015-05-25T10:17:02.000Z</time>
      </trkpt>
      <trkpt lat="47.50227" lon="6.76721">
        <ele>402</ele>
        <time>2015-05-25T10:17:03.000Z</time>
      </trkpt>
      <trkpt lat="47.50229" lon="6.76724">
        <ele>402</ele>
        <time>2015-05-25T10:17:04.000Z</time>
      </trkpt>
      <trkpt lat="47.5023" lon="6.76727">
        <ele>402</ele>
        <time>2015-05-25T10:17:05.000Z</time>
      </trkpt>
      <trkpt lat="47.50232" lon="6.76729">
        <ele>402</ele>
        <time>2015-05-25T10:17:06.000Z</time>
      </trkpt>
      <trkpt lat="47.50233" lon="6.76731">
        <ele>401</ele>
        <time>2015-05-25T10:17:07.000Z</time>
      </trkpt>
      <trkpt lat="47.50235" lon="6.76734">
        <ele>401</ele>
        <time>2015-05-25T10:17:08.000Z</time>
      </trkpt>
      <trkpt lat="47.50237" lon="6.76736">
        <ele>401</ele>
        <time>2015-05-25T10:17:09.000Z</time>
      </trkpt>
      <trkpt lat="47.50239" lon="6.76739">
        <ele>401</ele>
        <time>2015-05-25T10:17:10.000Z</time>
      </trkpt>
      <trkpt lat="47.50242" lon="6.76742">
        <ele>401</ele>
        <time>2015-05-25T10:17:22.000Z</time>
      </trkpt>
      <trkpt lat="47.50243" lon="6.76743">
        <ele>401</ele>
        <time>2015-05-25T10:17:23.000Z</time>
      </trkpt>
      <trkpt lat="47.50246" lon="6.76746">
        <ele>400</ele>
        <time>2015-05-25T10:17:25.000Z</time>
      </trkpt>
      <trkpt lat="47.50248" lon="6.76748">
        <ele>400</ele>
        <time>2015-05-25T10:17:26.000Z</time>
      </trkpt>
      <trkpt lat="47.50251" lon="6.76749">
        <ele>400</ele>
        <time>2015-05-25T10:17:27.000Z</time>
      </trkpt>
      <trkpt lat="47.50255" lon="6.76749">
        <ele>400</ele>
        <time>2015-05-25T10:17:28.000Z</time>
      </trkpt>
      <trkpt lat="47.50258" lon="6.76748">
        <ele>400</ele>
        <time>2015-05-25T10:17:29.000Z</time>
      </trkpt>
      <trkpt lat="47.50262" lon="6.76747">
        <ele>399</ele>
        <time>2015-05-25T10:17:30.000Z</time>
      </trkpt>
      <trkpt lat="47.50265" lon="6.76746">
        <ele>399</ele>
        <time>2015-05-25T10:17:31.000Z</time>
      </trkpt>
      <trkpt lat="47.50269" lon="6.76745">
        <ele>399</ele>
        <time>2015-05-25T10:17:32.000Z</time>
      </trkpt>
      <trkpt lat="47.50272" lon="6.76743">
        <ele>399</ele>
        <time>2015-05-25T10:17:33.000Z</time>
      </trkpt>
      <trkpt lat="47.50275" lon="6.76742">
        <ele>399</ele>
        <time>2015-05-25T10:17:34.000Z</time>
      </trkpt>
      <trkpt lat="47.50279" lon="6.76741">
        <ele>399</ele>
        <time>2015-05-25T10:17:35.000Z</time>
      </trkpt>
      <trkpt lat="47.50282" lon="6.7674">
        <ele>399</ele>
        <time>2015-05-25T10:17:36.000Z</time>
      </trkpt>
      <trkpt lat="47.50285" lon="6.76738">
        <ele>399</ele>
        <time>2015-05-25T10:17:37.000Z</time>
      </trkpt>
      <trkpt lat="47.50288" lon="6.76737">
        <ele>399</ele>
        <time>2015-05-25T10:17:38.000Z</time>
      </trkpt>
      <trkpt lat="47.5029" lon="6.76736">
        <ele>399</ele>
        <time>2015-05-25T10:17:39.000Z</time>
      </trkpt>
      <trkpt lat="47.50293" lon="6.76736">
        <ele>399</ele>
        <time>2015-05-25T10:17:40.000Z</time>
      </trkpt>
      <trkpt lat="47.50296" lon="6.76735">
        <ele>399</ele>
        <time>2015-05-25T10:17:41.000Z</time>
      </trkpt>
      <trkpt lat="47.50299" lon="6.76734">
        <ele>399</ele>
        <time>2015-05-25T10:17:42.000Z</time>
      </trkpt>
      <trkpt lat="47.50303" lon="6.76733">
        <ele>398</ele>
        <time>2015-05-25T10:17:43.000Z</time>
      </trkpt>
      <trkpt lat="47.50306" lon="6.76732">
        <ele>398</ele>
        <time>2015-05-25T10:17:44.000Z</time>
      </trkpt>
      <trkpt lat="47.5031" lon="6.76732">
        <ele>398</ele>
        <time>2015-05-25T10:17:45.000Z</time>
      </trkpt>
      <trkpt lat="47.50313" lon="6.76732">
        <ele>398</ele>
        <time>2015-05-25T10:17:46.000Z</time>
      </trkpt>
      <trkpt lat="47.50317" lon="6.76731">
        <ele>398</ele>
        <time>2015-05-25T10:17:47.000Z</time>
      </trkpt>
      <trkpt lat="47.5032" lon="6.7673">
        <ele>398</ele>
        <time>2015-05-25T10:17:48.000Z</time>
      </trkpt>
      <trkpt lat="47.50324" lon="6.76728">
        <ele>398</ele>
        <time>2015-05-25T10:17:49.000Z</time>
      </trkpt>
      <trkpt lat="47.50328" lon="6.76727">
        <ele>398</ele>
        <time>2015-05-25T10:17:50.000Z</time>
      </trkpt>
      <trkpt lat="47.50331" lon="6.76726">
        <ele>398</ele>
        <time>2015-05-25T10:17:51.000Z</time>
      </trkpt>
      <trkpt lat="47.50335" lon="6.76724">
        <ele>398</ele>
        <time>2015-05-25T10:17:52.000Z</time>
      </trkpt>
      <trkpt lat="47.50339" lon="6.76723">
        <ele>398</ele>
        <time>2015-05-25T10:17:53.000Z</time>
      </trkpt>
      <trkpt lat="47.50342" lon="6.7672">
        <ele>398</ele>
        <time>2015-05-25T10:17:54.000Z</time>
      </trkpt>
      <trkpt lat="47.50346" lon="6.76719">
        <ele>398</ele>
        <time>2015-05-25T10:17:55.000Z</time>
      </trkpt>
      <trkpt lat="47.50349" lon="6.76717">
        <ele>398</ele>
        <time>2015-05-25T10:17:56.000Z</time>
      </trkpt>
      <trkpt lat="47.50353" lon="6.76716">
        <ele>398</ele>
        <time>2015-05-25T10:17:57.000Z</time>
      </trkpt>
      <trkpt lat="47.50357" lon="6.76714">
        <ele>398</ele>
        <time>2015-05-25T10:17:58.000Z</time>
      </trkpt>
      <trkpt lat="47.5036" lon="6.76713">
        <ele>398</ele>
        <time>2015-05-25T10:17:59.000Z</time>
      </trkpt>
      <trkpt lat="47.50364" lon="6.76711">
        <ele>398</ele>
        <time>2015-05-25T10:18:00.000Z</time>
      </trkpt>
      <trkpt lat="47.50368" lon="6.7671">
        <ele>398</ele>
        <time>2015-05-25T10:18:01.000Z</time>
      </trkpt>
      <trkpt lat="47.50372" lon="6.76708">
        <ele>397</ele>
        <time>2015-05-25T10:18:02.000Z</time>
      </trkpt>
      <trkpt lat="47.50375" lon="6.76706">
        <ele>397</ele>
        <time>2015-05-25T10:18:03.000Z</time>
      </trkpt>
      <trkpt lat="47.50379" lon="6.76704">
        <ele>397</ele>
        <time>2015-05-25T10:18:04.000Z</time>
      </trkpt>
      <trkpt lat="47.50383" lon="6.76703">
        <ele>397</ele>
        <time>2015-05-25T10:18:05.000Z</time>
      </trkpt>
      <trkpt lat="47.50387" lon="6.76702">
        <ele>397</ele>
        <time>2015-05-25T10:18:06.000Z</time>
      </trkpt>
      <trkpt lat="47.5039" lon="6.76701">
        <ele>397</ele>
        <time>2015-05-25T10:18:07.000Z</time>
      </trkpt>
      <trkpt lat="47.50394" lon="6.767">
        <ele>397</ele>
        <time>2015-05-25T10:18:08.000Z</time>
      </trkpt>
      <trkpt lat="47.50397" lon="6.76699">
        <ele>397</ele>
        <time>2015-05-25T10:18:09.000Z</time>
      </trkpt>
      <trkpt lat="47.504" lon="6.76697">
        <ele>397</ele>
        <time>2015-05-25T10:18:10.000Z</time>
      </trkpt>
      <trkpt lat="47.50403" lon="6.76696">
        <ele>397</ele>
        <time>2015-05-25T10:18:11.000Z</time>
      </trkpt>
      <trkpt lat="47.50409" lon="6.76692">
        <ele>397</ele>
        <time>2015-05-25T10:18:13.000Z</time>
      </trkpt>
      <trkpt lat="47.50413" lon="6.7669">
        <ele>397</ele>
        <time>2015-05-25T10:18:14.000Z</time>
      </trkpt>
      <trkpt lat="47.50416" lon="6.76688">
        <ele>397</ele>
        <time>2015-05-25T10:18:15.000Z</time>
      </trkpt>
      <trkpt lat="47.50419" lon="6.76687">
        <ele>397</ele>
        <time>2015-05-25T10:18:16.000Z</time>
      </trkpt>
      <trkpt lat="47.50423" lon="6.76684">
        <ele>397</ele>
        <time>2015-05-25T10:18:17.000Z</time>
      </trkpt>
      <trkpt lat="47.50426" lon="6.76682">
        <ele>397</ele>
        <time>2015-05-25T10:18:18.000Z</time>
      </trkpt>
      <trkpt lat="47.5043" lon="6.7668">
        <ele>397</ele>
        <time>2015-05-25T10:18:19.000Z</time>
      </trkpt>
      <trkpt lat="47.50434" lon="6.76678">
        <ele>397</ele>
        <time>2015-05-25T10:18:20.000Z</time>
      </trkpt>
      <trkpt lat="47.50437" lon="6.76677">
        <ele>397</ele>
        <time>2015-05-25T10:18:21.000Z</time>
      </trkpt>
      <trkpt lat="47.50441" lon="6.76676">
        <ele>397</ele>
        <time>2015-05-25T10:18:22.000Z</time>
      </trkpt>
      <trkpt lat="47.50445" lon="6.76674">
        <ele>397</ele>
        <time>2015-05-25T10:18:23.000Z</time>
      </trkpt>
      <trkpt lat="47.50448" lon="6.76673">
        <ele>397</ele>
        <time>2015-05-25T10:18:24.000Z</time>
      </trkpt>
      <trkpt lat="47.50452" lon="6.76672">
        <ele>397</ele>
        <time>2015-05-25T10:18:25.000Z</time>
      </trkpt>
      <trkpt lat="47.50455" lon="6.7667">
        <ele>397</ele>
        <time>2015-05-25T10:18:26.000Z</time>
      </trkpt>
      <trkpt lat="47.50459" lon="6.76668">
        <ele>397</ele>
        <time>2015-05-25T10:18:27.000Z</time>
      </trkpt>
      <trkpt lat="47.50462" lon="6.76666">
        <ele>398</ele>
        <time>2015-05-25T10:18:28.000Z</time>
      </trkpt>
      <trkpt lat="47.50466" lon="6.76665">
        <ele>398</ele>
        <time>2015-05-25T10:18:29.000Z</time>
      </trkpt>
      <trkpt lat="47.50469" lon="6.76663">
        <ele>398</ele>
        <time>2015-05-25T10:18:30.000Z</time>
      </trkpt>
      <trkpt lat="47.50473" lon="6.76661">
        <ele>398</ele>
        <time>2015-05-25T10:18:31.000Z</time>
      </trkpt>
      <trkpt lat="47.50476" lon="6.7666">
        <ele>398</ele>
        <time>2015-05-25T10:18:32.000Z</time>
      </trkpt>
      <trkpt lat="47.5048" lon="6.76658">
        <ele>399</ele>
        <time>2015-05-25T10:18:33.000Z</time>
      </trkpt>
      <trkpt lat="47.50483" lon="6.76657">
        <ele>399</ele>
        <time>2015-05-25T10:18:34.000Z</time>
      </trkpt>
      <trkpt lat="47.50486" lon="6.76656">
        <ele>399</ele>
        <time>2015-05-25T10:18:35.000Z</time>
      </trkpt>
      <trkpt lat="47.5049" lon="6.76656">
        <ele>399</ele>
        <time>2015-05-25T10:18:36.000Z</time>
      </trkpt>
      <trkpt lat="47.50493" lon="6.76655">
        <ele>399</ele>
        <time>2015-05-25T10:18:37.000Z</time>
      </trkpt>
      <trkpt lat="47.50496" lon="6.76655">
        <ele>399</ele>
        <time>2015-05-25T10:18:38.000Z</time>
      </trkpt>
      <trkpt lat="47.50499" lon="6.76655">
        <ele>399</ele>
        <time>2015-05-25T10:18:39.000Z</time>
      </trkpt>
      <trkpt lat="47.50502" lon="6.76654">
        <ele>399</ele>
        <time>2015-05-25T10:18:40.000Z</time>
      </trkpt>
      <trkpt lat="47.50505" lon="6.76654">
        <ele>399</ele>
        <time>2015-05-25T10:18:41.000Z</time>
      </trkpt>
      <trkpt lat="47.50508" lon="6.76654">
        <ele>399</ele>
        <time>2015-05-25T10:18:42.000Z</time>
      </trkpt>
      <trkpt lat="47.50511" lon="6.76654">
        <ele>399</ele>
        <time>2015-05-25T10:18:43.000Z</time>
      </trkpt>
      <trkpt lat="47.50514" lon="6.76653">
        <ele>399</ele>
        <time>2015-05-25T10:18:44.000Z</time>
      </trkpt>
      <trkpt lat="47.50517" lon="6.76653">
        <ele>399</ele>
        <time>2015-05-25T10:18:45.000Z</time>
      </trkpt>
      <trkpt lat="47.5052" lon="6.76653">
        <ele>399</ele>
        <time>2015-05-25T10:18:46.000Z</time>
      </trkpt>
      <trkpt lat="47.50522" lon="6.76653">
        <ele>399</ele>
        <time>2015-05-25T10:18:47.000Z</time>
      </trkpt>
      <trkpt lat="47.50525" lon="6.76653">
        <ele>399</ele>
        <time>2015-05-25T10:18:48.000Z</time>
      </trkpt>
      <trkpt lat="47.50528" lon="6.76652">
        <ele>399</ele>
        <time>2015-05-25T10:18:49.000Z</time>
      </trkpt>
      <trkpt lat="47.5053" lon="6.76651">
        <ele>399</ele>
        <time>2015-05-25T10:18:50.000Z</time>
      </trkpt>
      <trkpt lat="47.50533" lon="6.76651">
        <ele>399</ele>
        <time>2015-05-25T10:18:51.000Z</time>
      </trkpt>
      <trkpt lat="47.50536" lon="6.7665">
        <ele>399</ele>
        <time>2015-05-25T10:18:52.000Z</time>
      </trkpt>
      <trkpt lat="47.50539" lon="6.7665">
        <ele>399</ele>
        <time>2015-05-25T10:18:53.000Z</time>
      </trkpt>
      <trkpt lat="47.50542" lon="6.76648">
        <ele>399</ele>
        <time>2015-05-25T10:18:54.000Z</time>
      </trkpt>
      <trkpt lat="47.50546" lon="6.76647">
        <ele>399</ele>
        <time>2015-05-25T10:18:55.000Z</time>
      </trkpt>
      <trkpt lat="47.50549" lon="6.76645">
        <ele>399</ele>
        <time>2015-05-25T10:18:56.000Z</time>
      </trkpt>
      <trkpt lat="47.50552" lon="6.76644">
        <ele>399</ele>
        <time>2015-05-25T10:18:57.000Z</time>
      </trkpt>
      <trkpt lat="47.50556" lon="6.76643">
        <ele>399</ele>
        <time>2015-05-25T10:18:58.000Z</time>
      </trkpt>
      <trkpt lat="47.50559" lon="6.76642">
        <ele>399</ele>
        <time>2015-05-25T10:18:59.000Z</time>
      </trkpt>
      <trkpt lat="47.50563" lon="6.76641">
        <ele>399</ele>
        <time>2015-05-25T10:19:00.000Z</time>
      </trkpt>
      <trkpt lat="47.50566" lon="6.7664">
        <ele>399</ele>
        <time>2015-05-25T10:19:01.000Z</time>
      </trkpt>
      <trkpt lat="47.5057" lon="6.76639">
        <ele>399</ele>
        <time>2015-05-25T10:19:02.000Z</time>
      </trkpt>
      <trkpt lat="47.50573" lon="6.76639">
        <ele>399</ele>
        <time>2015-05-25T10:19:03.000Z</time>
      </trkpt>
      <trkpt lat="47.50577" lon="6.76638">
        <ele>399</ele>
        <time>2015-05-25T10:19:04.000Z</time>
      </trkpt>
      <trkpt lat="47.50581" lon="6.76637">
        <ele>399</ele>
        <time>2015-05-25T10:19:05.000Z</time>
      </trkpt>
      <trkpt lat="47.50585" lon="6.76636">
        <ele>398</ele>
        <time>2015-05-25T10:19:06.000Z</time>
      </trkpt>
      <trkpt lat="47.5059" lon="6.76635">
        <ele>398</ele>
        <time>2015-05-25T10:19:07.000Z</time>
      </trkpt>
      <trkpt lat="47.50597" lon="6.76631">
        <ele>398</ele>
        <time>2015-05-25T10:19:08.000Z</time>
      </trkpt>
      <trkpt lat="47.50602" lon="6.76629">
        <ele>398</ele>
        <time>2015-05-25T10:19:09.000Z</time>
      </trkpt>
      <trkpt lat="47.50606" lon="6.76628">
        <ele>397</ele>
        <time>2015-05-25T10:19:10.000Z</time>
      </trkpt>
      <trkpt lat="47.50611" lon="6.76626">
        <ele>397</ele>
        <time>2015-05-25T10:19:11.000Z</time>
      </trkpt>
      <trkpt lat="47.50615" lon="6.76625">
        <ele>397</ele>
        <time>2015-05-25T10:19:12.000Z</time>
      </trkpt>
      <trkpt lat="47.50619" lon="6.76624">
        <ele>397</ele>
        <time>2015-05-25T10:19:13.000Z</time>
      </trkpt>
      <trkpt lat="47.50623" lon="6.76623">
        <ele>397</ele>
        <time>2015-05-25T10:19:14.000Z</time>
      </trkpt>
      <trkpt lat="47.50627" lon="6.7662">
        <ele>397</ele>
        <time>2015-05-25T10:19:15.000Z</time>
      </trkpt>
      <trkpt lat="47.50631" lon="6.76619">
        <ele>397</ele>
        <time>2015-05-25T10:19:16.000Z</time>
      </trkpt>
      <trkpt lat="47.50636" lon="6.76618">
        <ele>397</ele>
        <time>2015-05-25T10:19:17.000Z</time>
      </trkpt>
      <trkpt lat="47.50641" lon="6.76615">
        <ele>397</ele>
        <time>2015-05-25T10:19:18.000Z</time>
      </trkpt>
      <trkpt lat="47.50645" lon="6.76616">
        <ele>397</ele>
        <time>2015-05-25T10:19:19.000Z</time>
      </trkpt>
      <trkpt lat="47.50652" lon="6.76613">
        <ele>397</ele>
        <time>2015-05-25T10:19:20.000Z</time>
      </trkpt>
      <trkpt lat="47.50657" lon="6.76611">
        <ele>397</ele>
        <time>2015-05-25T10:19:21.000Z</time>
      </trkpt>
      <trkpt lat="47.50661" lon="6.76609">
        <ele>397</ele>
        <time>2015-05-25T10:19:22.000Z</time>
      </trkpt>
      <trkpt lat="47.50665" lon="6.76608">
        <ele>397</ele>
        <time>2015-05-25T10:19:23.000Z</time>
      </trkpt>
      <trkpt lat="47.5067" lon="6.76606">
        <ele>395</ele>
        <time>2015-05-25T10:19:24.000Z</time>
      </trkpt>
      <trkpt lat="47.50675" lon="6.76605">
        <ele>395</ele>
        <time>2015-05-25T10:19:25.000Z</time>
      </trkpt>
      <trkpt lat="47.50679" lon="6.76604">
        <ele>395</ele>
        <time>2015-05-25T10:19:26.000Z</time>
      </trkpt>
      <trkpt lat="47.50684" lon="6.76604">
        <ele>395</ele>
        <time>2015-05-25T10:19:27.000Z</time>
      </trkpt>
      <trkpt lat="47.50688" lon="6.76605">
        <ele>395</ele>
        <time>2015-05-25T10:19:28.000Z</time>
      </trkpt>
      <trkpt lat="47.50693" lon="6.76604">
        <ele>395</ele>
        <time>2015-05-25T10:19:29.000Z</time>
      </trkpt>
      <trkpt lat="47.50699" lon="6.76604">
        <ele>395</ele>
        <time>2015-05-25T10:19:30.000Z</time>
      </trkpt>
      <trkpt lat="47.50705" lon="6.76603">
        <ele>395</ele>
        <time>2015-05-25T10:19:31.000Z</time>
      </trkpt>
      <trkpt lat="47.50711" lon="6.76603">
        <ele>395</ele>
        <time>2015-05-25T10:19:32.000Z</time>
      </trkpt>
      <trkpt lat="47.50715" lon="6.76603">
        <ele>394</ele>
        <time>2015-05-25T10:19:33.000Z</time>
      </trkpt>
      <trkpt lat="47.5072" lon="6.76604">
        <ele>394</ele>
        <time>2015-05-25T10:19:34.000Z</time>
      </trkpt>
      <trkpt lat="47.50725" lon="6.76605">
        <ele>394</ele>
        <time>2015-05-25T10:19:35.000Z</time>
      </trkpt>
      <trkpt lat="47.5073" lon="6.76605">
        <ele>394</ele>
        <time>2015-05-25T10:19:36.000Z</time>
      </trkpt>
      <trkpt lat="47.50735" lon="6.76604">
        <ele>394</ele>
        <time>2015-05-25T10:19:37.000Z</time>
      </trkpt>
      <trkpt lat="47.50739" lon="6.76604">
        <ele>394</ele>
        <time>2015-05-25T10:19:38.000Z</time>
      </trkpt>
      <trkpt lat="47.50742" lon="6.76606">
        <ele>394</ele>
        <time>2015-05-25T10:19:39.000Z</time>
      </trkpt>
      <trkpt lat="47.50745" lon="6.76607">
        <ele>394</ele>
        <time>2015-05-25T10:19:40.000Z</time>
      </trkpt>
      <trkpt lat="47.50749" lon="6.76606">
        <ele>394</ele>
        <time>2015-05-25T10:19:41.000Z</time>
      </trkpt>
      <trkpt lat="47.50753" lon="6.76605">
        <ele>392</ele>
        <time>2015-05-25T10:19:42.000Z</time>
      </trkpt>
      <trkpt lat="47.50757" lon="6.76605">
        <ele>392</ele>
        <time>2015-05-25T10:19:43.000Z</time>
      </trkpt>
      <trkpt lat="47.50761" lon="6.76605">
        <ele>392</ele>
        <time>2015-05-25T10:19:44.000Z</time>
      </trkpt>
      <trkpt lat="47.50766" lon="6.76603">
        <ele>392</ele>
        <time>2015-05-25T10:19:45.000Z</time>
      </trkpt>
      <trkpt lat="47.50771" lon="6.766">
        <ele>392</ele>
        <time>2015-05-25T10:19:46.000Z</time>
      </trkpt>
      <trkpt lat="47.50776" lon="6.76599">
        <ele>392</ele>
        <time>2015-05-25T10:19:47.000Z</time>
      </trkpt>
      <trkpt lat="47.50782" lon="6.76597">
        <ele>391</ele>
        <time>2015-05-25T10:19:48.000Z</time>
      </trkpt>
      <trkpt lat="47.50787" lon="6.76595">
        <ele>391</ele>
        <time>2015-05-25T10:19:49.000Z</time>
      </trkpt>
      <trkpt lat="47.50793" lon="6.76594">
        <ele>391</ele>
        <time>2015-05-25T10:19:50.000Z</time>
      </trkpt>
      <trkpt lat="47.50798" lon="6.76594">
        <ele>391</ele>
        <time>2015-05-25T10:19:51.000Z</time>
      </trkpt>
      <trkpt lat="47.50802" lon="6.76594">
        <ele>391</ele>
        <time>2015-05-25T10:19:54.000Z</time>
      </trkpt>
      <trkpt lat="47.50804" lon="6.76599">
        <ele>391</ele>
        <time>2015-05-25T10:19:55.000Z</time>
      </trkpt>
      <trkpt lat="47.50806" lon="6.76602">
        <ele>390</ele>
        <time>2015-05-25T10:19:56.000Z</time>
      </trkpt>
      <trkpt lat="47.50808" lon="6.76605">
        <ele>390</ele>
        <time>2015-05-25T10:19:57.000Z</time>
      </trkpt>
      <trkpt lat="47.50812" lon="6.76601">
        <ele>390</ele>
        <time>2015-05-25T10:19:58.000Z</time>
      </trkpt>
      <trkpt lat="47.50815" lon="6.766">
        <ele>390</ele>
        <time>2015-05-25T10:19:59.000Z</time>
      </trkpt>
      <trkpt lat="47.50817" lon="6.76599">
        <ele>390</ele>
        <time>2015-05-25T10:20:00.000Z</time>
      </trkpt>
      <trkpt lat="47.5082" lon="6.766">
        <ele>390</ele>
        <time>2015-05-25T10:20:01.000Z</time>
      </trkpt>
      <trkpt lat="47.50822" lon="6.76602">
        <ele>390</ele>
        <time>2015-05-25T10:20:02.000Z</time>
      </trkpt>
      <trkpt lat="47.50824" lon="6.76607">
        <ele>390</ele>
        <time>2015-05-25T10:20:03.000Z</time>
      </trkpt>
      <trkpt lat="47.50825" lon="6.76613">
        <ele>390</ele>
        <time>2015-05-25T10:20:04.000Z</time>
      </trkpt>
      <trkpt lat="47.50826" lon="6.76619">
        <ele>390</ele>
        <time>2015-05-25T10:20:05.000Z</time>
      </trkpt>
      <trkpt lat="47.50829" lon="6.7663">
        <ele>390</ele>
        <time>2015-05-25T10:20:06.000Z</time>
      </trkpt>
      <trkpt lat="47.50832" lon="6.76637">
        <ele>390</ele>
        <time>2015-05-25T10:20:07.000Z</time>
      </trkpt>
      <trkpt lat="47.50836" lon="6.76644">
        <ele>387</ele>
        <time>2015-05-25T10:20:08.000Z</time>
      </trkpt>
      <trkpt lat="47.50839" lon="6.76651">
        <ele>388</ele>
        <time>2015-05-25T10:20:09.000Z</time>
      </trkpt>
      <trkpt lat="47.50843" lon="6.7666">
        <ele>388</ele>
        <time>2015-05-25T10:20:10.000Z</time>
      </trkpt>
      <trkpt lat="47.50846" lon="6.76668">
        <ele>387</ele>
        <time>2015-05-25T10:20:11.000Z</time>
      </trkpt>
      <trkpt lat="47.50849" lon="6.76677">
        <ele>386</ele>
        <time>2015-05-25T10:20:12.000Z</time>
      </trkpt>
      <trkpt lat="47.50853" lon="6.76686">
        <ele>385</ele>
        <time>2015-05-25T10:20:13.000Z</time>
      </trkpt>
      <trkpt lat="47.50857" lon="6.76695">
        <ele>384</ele>
        <time>2015-05-25T10:20:14.000Z</time>
      </trkpt>
      <trkpt lat="47.50862" lon="6.76705">
        <ele>384</ele>
        <time>2015-05-25T10:20:15.000Z</time>
      </trkpt>
      <trkpt lat="47.50865" lon="6.76715">
        <ele>384</ele>
        <time>2015-05-25T10:20:16.000Z</time>
      </trkpt>
      <trkpt lat="47.50869" lon="6.76724">
        <ele>383</ele>
        <time>2015-05-25T10:20:17.000Z</time>
      </trkpt>
      <trkpt lat="47.50873" lon="6.76734">
        <ele>383</ele>
        <time>2015-05-25T10:20:18.000Z</time>
      </trkpt>
      <trkpt lat="47.50876" lon="6.76744">
        <ele>383</ele>
        <time>2015-05-25T10:20:19.000Z</time>
      </trkpt>
      <trkpt lat="47.50879" lon="6.76754">
        <ele>382</ele>
        <time>2015-05-25T10:20:20.000Z</time>
      </trkpt>
      <trkpt lat="47.50883" lon="6.76764">
        <ele>381</ele>
        <time>2015-05-25T10:20:21.000Z</time>
      </trkpt>
      <trkpt lat="47.50886" lon="6.76774">
        <ele>381</ele>
        <time>2015-05-25T10:20:22.000Z</time>
      </trkpt>
      <trkpt lat="47.5089" lon="6.76784">
        <ele>381</ele>
        <time>2015-05-25T10:20:23.000Z</time>
      </trkpt>
      <trkpt lat="47.50894" lon="6.76795">
        <ele>381</ele>
        <time>2015-05-25T10:20:24.000Z</time>
      </trkpt>
      <trkpt lat="47.50898" lon="6.76805">
        <ele>381</ele>
        <time>2015-05-25T10:20:25.000Z</time>
      </trkpt>
      <trkpt lat="47.50902" lon="6.76815">
        <ele>381</ele>
        <time>2015-05-25T10:20:26.000Z</time>
      </trkpt>
      <trkpt lat="47.50906" lon="6.76824">
        <ele>381</ele>
        <time>2015-05-25T10:20:27.000Z</time>
      </trkpt>
      <trkpt lat="47.5091" lon="6.76835">
        <ele>380</ele>
        <time>2015-05-25T10:20:28.000Z</time>
      </trkpt>
      <trkpt lat="47.50915" lon="6.76845">
        <ele>380</ele>
        <time>2015-05-25T10:20:29.000Z</time>
      </trkpt>
      <trkpt lat="47.5092" lon="6.76855">
        <ele>379</ele>
        <time>2015-05-25T10:20:30.000Z</time>
      </trkpt>
      <trkpt lat="47.50926" lon="6.76864">
        <ele>378</ele>
        <time>2015-05-25T10:20:31.000Z</time>
      </trkpt>
      <trkpt lat="47.50931" lon="6.76874">
        <ele>378</ele>
        <time>2015-05-25T10:20:32.000Z</time>
      </trkpt>
      <trkpt lat="47.50936" lon="6.76884">
        <ele>378</ele>
        <time>2015-05-25T10:20:33.000Z</time>
      </trkpt>
      <trkpt lat="47.50943" lon="6.76892">
        <ele>378</ele>
        <time>2015-05-25T10:20:34.000Z</time>
      </trkpt>
      <trkpt lat="47.50951" lon="6.76897">
        <ele>378</ele>
        <time>2015-05-25T10:20:35.000Z</time>
      </trkpt>
      <trkpt lat="47.50959" lon="6.76902">
        <ele>377</ele>
        <time>2015-05-25T10:20:36.000Z</time>
      </trkpt>
      <trkpt lat="47.50968" lon="6.76903">
        <ele>377</ele>
        <time>2015-05-25T10:20:37.000Z</time>
      </trkpt>
      <trkpt lat="47.50976" lon="6.76904">
        <ele>377</ele>
        <time>2015-05-25T10:20:38.000Z</time>
      </trkpt>
      <trkpt lat="47.50985" lon="6.76906">
        <ele>377</ele>
        <time>2015-05-25T10:20:39.000Z</time>
      </trkpt>
      <trkpt lat="47.50991" lon="6.76911">
        <ele>377</ele>
        <time>2015-05-25T10:20:40.000Z</time>
      </trkpt>
      <trkpt lat="47.50995" lon="6.76919">
        <ele>375</ele>
        <time>2015-05-25T10:20:41.000Z</time>
      </trkpt>
      <trkpt lat="47.51" lon="6.76926">
        <ele>375</ele>
        <time>2015-05-25T10:20:42.000Z</time>
      </trkpt>
      <trkpt lat="47.51005" lon="6.76931">
        <ele>375</ele>
        <time>2015-05-25T10:20:43.000Z</time>
      </trkpt>
      <trkpt lat="47.51012" lon="6.76933">
        <ele>375</ele>
        <time>2015-05-25T10:20:44.000Z</time>
      </trkpt>
      <trkpt lat="47.51017" lon="6.76938">
        <ele>375</ele>
        <time>2015-05-25T10:20:45.000Z</time>
      </trkpt>
      <trkpt lat="47.5102" lon="6.76945">
        <ele>375</ele>
        <time>2015-05-25T10:20:46.000Z</time>
      </trkpt>
      <trkpt lat="47.51024" lon="6.76951">
        <ele>375</ele>
        <time>2015-05-25T10:20:47.000Z</time>
      </trkpt>
      <trkpt lat="47.51029" lon="6.76956">
        <ele>375</ele>
        <time>2015-05-25T10:20:48.000Z</time>
      </trkpt>
      <trkpt lat="47.51034" lon="6.76961">
        <ele>375</ele>
        <time>2015-05-25T10:20:49.000Z</time>
      </trkpt>
      <trkpt lat="47.51039" lon="6.76966">
        <ele>375</ele>
        <time>2015-05-25T10:20:50.000Z</time>
      </trkpt>
      <trkpt lat="47.51044" lon="6.76971">
        <ele>375</ele>
        <time>2015-05-25T10:20:51.000Z</time>
      </trkpt>
      <trkpt lat="47.5105" lon="6.76977">
        <ele>375</ele>
        <time>2015-05-25T10:20:52.000Z</time>
      </trkpt>
      <trkpt lat="47.51056" lon="6.76982">
        <ele>375</ele>
        <time>2015-05-25T10:20:53.000Z</time>
      </trkpt>
      <trkpt lat="47.51061" lon="6.76987">
        <ele>375</ele>
        <time>2015-05-25T10:20:54.000Z</time>
      </trkpt>
      <trkpt lat="47.51067" lon="6.76994">
        <ele>375</ele>
        <time>2015-05-25T10:20:55.000Z</time>
      </trkpt>
      <trkpt lat="47.51073" lon="6.76999">
        <ele>375</ele>
        <time>2015-05-25T10:20:56.000Z</time>
      </trkpt>
      <trkpt lat="47.51078" lon="6.77003">
        <ele>374</ele>
        <time>2015-05-25T10:20:57.000Z</time>
      </trkpt>
      <trkpt lat="47.51083" lon="6.77009">
        <ele>374</ele>
        <time>2015-05-25T10:20:58.000Z</time>
      </trkpt>
      <trkpt lat="47.51088" lon="6.77014">
        <ele>375</ele>
        <time>2015-05-25T10:20:59.000Z</time>
      </trkpt>
      <trkpt lat="47.51093" lon="6.77019">
        <ele>375</ele>
        <time>2015-05-25T10:21:00.000Z</time>
      </trkpt>
      <trkpt lat="47.51098" lon="6.77024">
        <ele>375</ele>
        <time>2015-05-25T10:21:01.000Z</time>
      </trkpt>
      <trkpt lat="47.51102" lon="6.77029">
        <ele>375</ele>
        <time>2015-05-25T10:21:02.000Z</time>
      </trkpt>
      <trkpt lat="47.51108" lon="6.77033">
        <ele>375</ele>
        <time>2015-05-25T10:21:03.000Z</time>
      </trkpt>
      <trkpt lat="47.51113" lon="6.77038">
        <ele>375</ele>
        <time>2015-05-25T10:21:04.000Z</time>
      </trkpt>
      <trkpt lat="47.51118" lon="6.77042">
        <ele>375</ele>
        <time>2015-05-25T10:21:05.000Z</time>
      </trkpt>
      <trkpt lat="47.51123" lon="6.77046">
        <ele>375</ele>
        <time>2015-05-25T10:21:06.000Z</time>
      </trkpt>
      <trkpt lat="47.51128" lon="6.7705">
        <ele>375</ele>
        <time>2015-05-25T10:21:07.000Z</time>
      </trkpt>
      <trkpt lat="47.51133" lon="6.77054">
        <ele>375</ele>
        <time>2015-05-25T10:21:08.000Z</time>
      </trkpt>
      <trkpt lat="47.51138" lon="6.77058">
        <ele>376</ele>
        <time>2015-05-25T10:21:09.000Z</time>
      </trkpt>
      <trkpt lat="47.51143" lon="6.77062">
        <ele>376</ele>
        <time>2015-05-25T10:21:10.000Z</time>
      </trkpt>
      <trkpt lat="47.51148" lon="6.77067">
        <ele>376</ele>
        <time>2015-05-25T10:21:11.000Z</time>
      </trkpt>
      <trkpt lat="47.51152" lon="6.77071">
        <ele>376</ele>
        <time>2015-05-25T10:21:12.000Z</time>
      </trkpt>
      <trkpt lat="47.51156" lon="6.77076">
        <ele>377</ele>
        <time>2015-05-25T10:21:13.000Z</time>
      </trkpt>
      <trkpt lat="47.5116" lon="6.77081">
        <ele>377</ele>
        <time>2015-05-25T10:21:14.000Z</time>
      </trkpt>
      <trkpt lat="47.51163" lon="6.77086">
        <ele>377</ele>
        <time>2015-05-25T10:21:15.000Z</time>
      </trkpt>
      <trkpt lat="47.51166" lon="6.77091">
        <ele>377</ele>
        <time>2015-05-25T10:21:16.000Z</time>
      </trkpt>
      <trkpt lat="47.5117" lon="6.77097">
        <ele>378</ele>
        <time>2015-05-25T10:21:17.000Z</time>
      </trkpt>
      <trkpt lat="47.51173" lon="6.77102">
        <ele>378</ele>
        <time>2015-05-25T10:21:18.000Z</time>
      </trkpt>
      <trkpt lat="47.51176" lon="6.77108">
        <ele>378</ele>
        <time>2015-05-25T10:21:19.000Z</time>
      </trkpt>
      <trkpt lat="47.51179" lon="6.77114">
        <ele>378</ele>
        <time>2015-05-25T10:21:20.000Z</time>
      </trkpt>
      <trkpt lat="47.51182" lon="6.77119">
        <ele>378</ele>
        <time>2015-05-25T10:21:21.000Z</time>
      </trkpt>
      <trkpt lat="47.51184" lon="6.77124">
        <ele>378</ele>
        <time>2015-05-25T10:21:22.000Z</time>
      </trkpt>
      <trkpt lat="47.51187" lon="6.77131">
        <ele>378</ele>
        <time>2015-05-25T10:21:23.000Z</time>
      </trkpt>
      <trkpt lat="47.51191" lon="6.77137">
        <ele>378</ele>
        <time>2015-05-25T10:21:24.000Z</time>
      </trkpt>
      <trkpt lat="47.51193" lon="6.77143">
        <ele>378</ele>
        <time>2015-05-25T10:21:25.000Z</time>
      </trkpt>
      <trkpt lat="47.51196" lon="6.77148">
        <ele>378</ele>
        <time>2015-05-25T10:21:26.000Z</time>
      </trkpt>
      <trkpt lat="47.51199" lon="6.77152">
        <ele>378</ele>
        <time>2015-05-25T10:21:27.000Z</time>
      </trkpt>
      <trkpt lat="47.51202" lon="6.77157">
        <ele>378</ele>
        <time>2015-05-25T10:21:28.000Z</time>
      </trkpt>
      <trkpt lat="47.51205" lon="6.77162">
        <ele>378</ele>
        <time>2015-05-25T10:21:29.000Z</time>
      </trkpt>
      <trkpt lat="47.51207" lon="6.77168">
        <ele>376</ele>
        <time>2015-05-25T10:21:30.000Z</time>
      </trkpt>
      <trkpt lat="47.51209" lon="6.77173">
        <ele>376</ele>
        <time>2015-05-25T10:21:31.000Z</time>
      </trkpt>
      <trkpt lat="47.51212" lon="6.77178">
        <ele>376</ele>
        <time>2015-05-25T10:21:32.000Z</time>
      </trkpt>
      <trkpt lat="47.51215" lon="6.77184">
        <ele>376</ele>
        <time>2015-05-25T10:21:33.000Z</time>
      </trkpt>
      <trkpt lat="47.51217" lon="6.7719">
        <ele>376</ele>
        <time>2015-05-25T10:21:34.000Z</time>
      </trkpt>
      <trkpt lat="47.5122" lon="6.77195">
        <ele>376</ele>
        <time>2015-05-25T10:21:35.000Z</time>
      </trkpt>
      <trkpt lat="47.51222" lon="6.77199">
        <ele>376</ele>
        <time>2015-05-25T10:21:36.000Z</time>
      </trkpt>
      <trkpt lat="47.51225" lon="6.77204">
        <ele>376</ele>
        <time>2015-05-25T10:21:37.000Z</time>
      </trkpt>
      <trkpt lat="47.51228" lon="6.77209">
        <ele>376</ele>
        <time>2015-05-25T10:21:38.000Z</time>
      </trkpt>
      <trkpt lat="47.51231" lon="6.77215">
        <ele>376</ele>
        <time>2015-05-25T10:21:39.000Z</time>
      </trkpt>
      <trkpt lat="47.51234" lon="6.7722">
        <ele>376</ele>
        <time>2015-05-25T10:21:40.000Z</time>
      </trkpt>
      <trkpt lat="47.51237" lon="6.77225">
        <ele>376</ele>
        <time>2015-05-25T10:21:41.000Z</time>
      </trkpt>
      <trkpt lat="47.51239" lon="6.77229">
        <ele>376</ele>
        <time>2015-05-25T10:21:42.000Z</time>
      </trkpt>
      <trkpt lat="47.51242" lon="6.77234">
        <ele>377</ele>
        <time>2015-05-25T10:21:43.000Z</time>
      </trkpt>
      <trkpt lat="47.51244" lon="6.77239">
        <ele>377</ele>
        <time>2015-05-25T10:21:44.000Z</time>
      </trkpt>
      <trkpt lat="47.51245" lon="6.77243">
        <ele>378</ele>
        <time>2015-05-25T10:21:45.000Z</time>
      </trkpt>
      <trkpt lat="47.51248" lon="6.77248">
        <ele>378</ele>
        <time>2015-05-25T10:21:46.000Z</time>
      </trkpt>
      <trkpt lat="47.51253" lon="6.77252">
        <ele>379</ele>
        <time>2015-05-25T10:21:47.000Z</time>
      </trkpt>
      <trkpt lat="47.51257" lon="6.77257">
        <ele>378</ele>
        <time>2015-05-25T10:21:48.000Z</time>
      </trkpt>
      <trkpt lat="47.5126" lon="6.77261">
        <ele>378</ele>
        <time>2015-05-25T10:21:49.000Z</time>
      </trkpt>
      <trkpt lat="47.51264" lon="6.77264">
        <ele>377</ele>
        <time>2015-05-25T10:21:50.000Z</time>
      </trkpt>
      <trkpt lat="47.51268" lon="6.77266">
        <ele>377</ele>
        <time>2015-05-25T10:21:51.000Z</time>
      </trkpt>
      <trkpt lat="47.51273" lon="6.77269">
        <ele>377</ele>
        <time>2015-05-25T10:21:52.000Z</time>
      </trkpt>
      <trkpt lat="47.51277" lon="6.77274">
        <ele>377</ele>
        <time>2015-05-25T10:21:53.000Z</time>
      </trkpt>
      <trkpt lat="47.5128" lon="6.77276">
        <ele>377</ele>
        <time>2015-05-25T10:21:54.000Z</time>
      </trkpt>
      <trkpt lat="47.51285" lon="6.77278">
        <ele>377</ele>
        <time>2015-05-25T10:21:55.000Z</time>
      </trkpt>
      <trkpt lat="47.5129" lon="6.77281">
        <ele>377</ele>
        <time>2015-05-25T10:21:56.000Z</time>
      </trkpt>
      <trkpt lat="47.51296" lon="6.77284">
        <ele>377</ele>
        <time>2015-05-25T10:21:57.000Z</time>
      </trkpt>
      <trkpt lat="47.513" lon="6.77287">
        <ele>377</ele>
        <time>2015-05-25T10:21:58.000Z</time>
      </trkpt>
      <trkpt lat="47.51306" lon="6.7729">
        <ele>377</ele>
        <time>2015-05-25T10:21:59.000Z</time>
      </trkpt>
      <trkpt lat="47.51312" lon="6.77291">
        <ele>377</ele>
        <time>2015-05-25T10:22:00.000Z</time>
      </trkpt>
      <trkpt lat="47.51319" lon="6.77293">
        <ele>378</ele>
        <time>2015-05-25T10:22:01.000Z</time>
      </trkpt>
      <trkpt lat="47.51326" lon="6.77293">
        <ele>378</ele>
        <time>2015-05-25T10:22:02.000Z</time>
      </trkpt>
      <trkpt lat="47.51332" lon="6.77291">
        <ele>378</ele>
        <time>2015-05-25T10:22:03.000Z</time>
      </trkpt>
      <trkpt lat="47.51338" lon="6.77288">
        <ele>378</ele>
        <time>2015-05-25T10:22:04.000Z</time>
      </trkpt>
      <trkpt lat="47.51345" lon="6.77283">
        <ele>378</ele>
        <time>2015-05-25T10:22:05.000Z</time>
      </trkpt>
      <trkpt lat="47.51351" lon="6.77277">
        <ele>378</ele>
        <time>2015-05-25T10:22:06.000Z</time>
      </trkpt>
      <trkpt lat="47.51358" lon="6.77271">
        <ele>378</ele>
        <time>2015-05-25T10:22:07.000Z</time>
      </trkpt>
      <trkpt lat="47.51365" lon="6.77265">
        <ele>378</ele>
        <time>2015-05-25T10:22:08.000Z</time>
      </trkpt>
      <trkpt lat="47.51373" lon="6.7726">
        <ele>378</ele>
        <time>2015-05-25T10:22:09.000Z</time>
      </trkpt>
      <trkpt lat="47.51381" lon="6.77254">
        <ele>377</ele>
        <time>2015-05-25T10:22:10.000Z</time>
      </trkpt>
      <trkpt lat="47.51389" lon="6.7725">
        <ele>376</ele>
        <time>2015-05-25T10:22:11.000Z</time>
      </trkpt>
      <trkpt lat="47.51397" lon="6.77245">
        <ele>376</ele>
        <time>2015-05-25T10:22:12.000Z</time>
      </trkpt>
      <trkpt lat="47.51405" lon="6.7724">
        <ele>376</ele>
        <time>2015-05-25T10:22:13.000Z</time>
      </trkpt>
      <trkpt lat="47.51414" lon="6.77236">
        <ele>376</ele>
        <time>2015-05-25T10:22:14.000Z</time>
      </trkpt>
      <trkpt lat="47.51422" lon="6.77232">
        <ele>375</ele>
        <time>2015-05-25T10:22:15.000Z</time>
      </trkpt>
      <trkpt lat="47.5143" lon="6.77228">
        <ele>375</ele>
        <time>2015-05-25T10:22:16.000Z</time>
      </trkpt>
      <trkpt lat="47.51438" lon="6.77224">
        <ele>375</ele>
        <time>2015-05-25T10:22:17.000Z</time>
      </trkpt>
      <trkpt lat="47.51445" lon="6.7722">
        <ele>375</ele>
        <time>2015-05-25T10:22:18.000Z</time>
      </trkpt>
      <trkpt lat="47.51453" lon="6.77217">
        <ele>375</ele>
        <time>2015-05-25T10:22:19.000Z</time>
      </trkpt>
      <trkpt lat="47.51459" lon="6.77214">
        <ele>375</ele>
        <time>2015-05-25T10:22:20.000Z</time>
      </trkpt>
      <trkpt lat="47.51466" lon="6.77212">
        <ele>375</ele>
        <time>2015-05-25T10:22:21.000Z</time>
      </trkpt>
      <trkpt lat="47.51471" lon="6.77209">
        <ele>375</ele>
        <time>2015-05-25T10:22:22.000Z</time>
      </trkpt>
      <trkpt lat="47.51475" lon="6.77211">
        <ele>375</ele>
        <time>2015-05-25T10:22:23.000Z</time>
      </trkpt>
      <trkpt lat="47.51478" lon="6.77212">
        <ele>375</ele>
        <time>2015-05-25T10:22:24.000Z</time>
      </trkpt>
      <trkpt lat="47.5148" lon="6.77214">
        <ele>375</ele>
        <time>2015-05-25T10:22:25.000Z</time>
      </trkpt>
      <trkpt lat="47.51481" lon="6.77218">
        <ele>375</ele>
        <time>2015-05-25T10:22:26.000Z</time>
      </trkpt>
      <trkpt lat="47.51482" lon="6.77227">
        <ele>375</ele>
        <time>2015-05-25T10:22:27.000Z</time>
      </trkpt>
      <trkpt lat="47.51482" lon="6.77234">
        <ele>375</ele>
        <time>2015-05-25T10:22:28.000Z</time>
      </trkpt>
      <trkpt lat="47.51482" lon="6.77241">
        <ele>375</ele>
        <time>2015-05-25T10:22:29.000Z</time>
      </trkpt>
      <trkpt lat="47.51482" lon="6.77247">
        <ele>376</ele>
        <time>2015-05-25T10:22:30.000Z</time>
      </trkpt>
      <trkpt lat="47.51482" lon="6.77254">
        <ele>376</ele>
        <time>2015-05-25T10:22:31.000Z</time>
      </trkpt>
      <trkpt lat="47.51482" lon="6.7726">
        <ele>376</ele>
        <time>2015-05-25T10:22:32.000Z</time>
      </trkpt>
      <trkpt lat="47.51482" lon="6.77266">
        <ele>376</ele>
        <time>2015-05-25T10:22:33.000Z</time>
      </trkpt>
      <trkpt lat="47.51482" lon="6.77272">
        <ele>377</ele>
        <time>2015-05-25T10:22:34.000Z</time>
      </trkpt>
      <trkpt lat="47.51482" lon="6.77279">
        <ele>377</ele>
        <time>2015-05-25T10:22:35.000Z</time>
      </trkpt>
      <trkpt lat="47.51482" lon="6.77286">
        <ele>377</ele>
        <time>2015-05-25T10:22:36.000Z</time>
      </trkpt>
      <trkpt lat="47.51482" lon="6.77293">
        <ele>377</ele>
        <time>2015-05-25T10:22:37.000Z</time>
      </trkpt>
      <trkpt lat="47.51483" lon="6.773">
        <ele>377</ele>
        <time>2015-05-25T10:22:38.000Z</time>
      </trkpt>
      <trkpt lat="47.51485" lon="6.77308">
        <ele>377</ele>
        <time>2015-05-25T10:22:39.000Z</time>
      </trkpt>
      <trkpt lat="47.51487" lon="6.77313">
        <ele>377</ele>
        <time>2015-05-25T10:22:40.000Z</time>
      </trkpt>
      <trkpt lat="47.51491" lon="6.77318">
        <ele>377</ele>
        <time>2015-05-25T10:22:41.000Z</time>
      </trkpt>
      <trkpt lat="47.51494" lon="6.77323">
        <ele>378</ele>
        <time>2015-05-25T10:22:42.000Z</time>
      </trkpt>
      <trkpt lat="47.51498" lon="6.77327">
        <ele>378</ele>
        <time>2015-05-25T10:22:43.000Z</time>
      </trkpt>
      <trkpt lat="47.51501" lon="6.7733">
        <ele>378</ele>
        <time>2015-05-25T10:22:44.000Z</time>
      </trkpt>
      <trkpt lat="47.51505" lon="6.77333">
        <ele>378</ele>
        <time>2015-05-25T10:22:45.000Z</time>
      </trkpt>
      <trkpt lat="47.51509" lon="6.77336">
        <ele>379</ele>
        <time>2015-05-25T10:22:46.000Z</time>
      </trkpt>
      <trkpt lat="47.51512" lon="6.77338">
        <ele>379</ele>
        <time>2015-05-25T10:22:47.000Z</time>
      </trkpt>
      <trkpt lat="47.51515" lon="6.77342">
        <ele>379</ele>
        <time>2015-05-25T10:22:48.000Z</time>
      </trkpt>
      <trkpt lat="47.51518" lon="6.77346">
        <ele>379</ele>
        <time>2015-05-25T10:22:49.000Z</time>
      </trkpt>
      <trkpt lat="47.51521" lon="6.7735">
        <ele>380</ele>
        <time>2015-05-25T10:22:50.000Z</time>
      </trkpt>
      <trkpt lat="47.51524" lon="6.77354">
        <ele>380</ele>
        <time>2015-05-25T10:22:51.000Z</time>
      </trkpt>
      <trkpt lat="47.51526" lon="6.77358">
        <ele>380</ele>
        <time>2015-05-25T10:22:52.000Z</time>
      </trkpt>
      <trkpt lat="47.51529" lon="6.77362">
        <ele>380</ele>
        <time>2015-05-25T10:22:53.000Z</time>
      </trkpt>
      <trkpt lat="47.51532" lon="6.77366">
        <ele>380</ele>
        <time>2015-05-25T10:22:54.000Z</time>
      </trkpt>
      <trkpt lat="47.51536" lon="6.7737">
        <ele>380</ele>
        <time>2015-05-25T10:22:55.000Z</time>
      </trkpt>
      <trkpt lat="47.51539" lon="6.77374">
        <ele>380</ele>
        <time>2015-05-25T10:22:56.000Z</time>
      </trkpt>
      <trkpt lat="47.51545" lon="6.77377">
        <ele>381</ele>
        <time>2015-05-25T10:22:57.000Z</time>
      </trkpt>
      <trkpt lat="47.51549" lon="6.77382">
        <ele>381</ele>
        <time>2015-05-25T10:22:58.000Z</time>
      </trkpt>
      <trkpt lat="47.51553" lon="6.77387">
        <ele>381</ele>
        <time>2015-05-25T10:22:59.000Z</time>
      </trkpt>
      <trkpt lat="47.51555" lon="6.77385">
        <ele>381</ele>
        <time>2015-05-25T10:23:00.000Z</time>
      </trkpt>
      <trkpt lat="47.51559" lon="6.77387">
        <ele>381</ele>
        <time>2015-05-25T10:23:01.000Z</time>
      </trkpt>
      <trkpt lat="47.5156" lon="6.7739">
        <ele>381</ele>
        <time>2015-05-25T10:23:02.000Z</time>
      </trkpt>
      <trkpt lat="47.51562" lon="6.77394">
        <ele>381</ele>
        <time>2015-05-25T10:23:03.000Z</time>
      </trkpt>
      <trkpt lat="47.51566" lon="6.774">
        <ele>381</ele>
        <time>2015-05-25T10:23:04.000Z</time>
      </trkpt>
      <trkpt lat="47.51568" lon="6.77404">
        <ele>382</ele>
        <time>2015-05-25T10:23:05.000Z</time>
      </trkpt>
      <trkpt lat="47.51571" lon="6.77407">
        <ele>382</ele>
        <time>2015-05-25T10:23:06.000Z</time>
      </trkpt>
      <trkpt lat="47.51574" lon="6.77411">
        <ele>382</ele>
        <time>2015-05-25T10:23:07.000Z</time>
      </trkpt>
      <trkpt lat="47.51577" lon="6.77415">
        <ele>382</ele>
        <time>2015-05-25T10:23:08.000Z</time>
      </trkpt>
      <trkpt lat="47.51579" lon="6.77418">
        <ele>383</ele>
        <time>2015-05-25T10:23:08.999Z</time>
      </trkpt>
      <trkpt lat="47.51583" lon="6.77421">
        <ele>383</ele>
        <time>2015-05-25T10:23:10.000Z</time>
      </trkpt>
      <trkpt lat="47.51586" lon="6.77425">
        <ele>384</ele>
        <time>2015-05-25T10:23:11.000Z</time>
      </trkpt>
      <trkpt lat="47.51591" lon="6.77431">
        <ele>384</ele>
        <time>2015-05-25T10:23:13.000Z</time>
      </trkpt>
      <trkpt lat="47.51594" lon="6.77434">
        <ele>385</ele>
        <time>2015-05-25T10:23:14.000Z</time>
      </trkpt>
      <trkpt lat="47.51597" lon="6.77437">
        <ele>385</ele>
        <time>2015-05-25T10:23:15.000Z</time>
      </trkpt>
      <trkpt lat="47.51599" lon="6.77441">
        <ele>385</ele>
        <time>2015-05-25T10:23:16.000Z</time>
      </trkpt>
      <trkpt lat="47.51602" lon="6.77444">
        <ele>385</ele>
        <time>2015-05-25T10:23:17.000Z</time>
      </trkpt>
      <trkpt lat="47.51604" lon="6.77448">
        <ele>385</ele>
        <time>2015-05-25T10:23:18.000Z</time>
      </trkpt>
      <trkpt lat="47.51606" lon="6.77452">
        <ele>385</ele>
        <time>2015-05-25T10:23:19.000Z</time>
      </trkpt>
      <trkpt lat="47.51608" lon="6.77456">
        <ele>385</ele>
        <time>2015-05-25T10:23:20.000Z</time>
      </trkpt>
      <trkpt lat="47.5161" lon="6.77459">
        <ele>385</ele>
        <time>2015-05-25T10:23:21.000Z</time>
      </trkpt>
      <trkpt lat="47.51613" lon="6.77463">
        <ele>386</ele>
        <time>2015-05-25T10:23:22.000Z</time>
      </trkpt>
      <trkpt lat="47.51615" lon="6.77466">
        <ele>386</ele>
        <time>2015-05-25T10:23:23.000Z</time>
      </trkpt>
      <trkpt lat="47.51617" lon="6.77468">
        <ele>386</ele>
        <time>2015-05-25T10:23:24.000Z</time>
      </trkpt>
      <trkpt lat="47.51619" lon="6.7747">
        <ele>386</ele>
        <time>2015-05-25T10:23:25.000Z</time>
      </trkpt>
      <trkpt lat="47.51622" lon="6.77474">
        <ele>386</ele>
        <time>2015-05-25T10:23:27.000Z</time>
      </trkpt>
      <trkpt lat="47.51624" lon="6.77476">
        <ele>386</ele>
        <time>2015-05-25T10:23:28.000Z</time>
      </trkpt>
      <trkpt lat="47.51626" lon="6.77478">
        <ele>386</ele>
        <time>2015-05-25T10:23:29.000Z</time>
      </trkpt>
      <trkpt lat="47.51628" lon="6.77481">
        <ele>386</ele>
        <time>2015-05-25T10:23:30.000Z</time>
      </trkpt>
      <trkpt lat="47.5163" lon="6.77484">
        <ele>386</ele>
        <time>2015-05-25T10:23:31.000Z</time>
      </trkpt>
      <trkpt lat="47.51632" lon="6.77487">
        <ele>386</ele>
        <time>2015-05-25T10:23:32.000Z</time>
      </trkpt>
      <trkpt lat="47.51634" lon="6.77491">
        <ele>386</ele>
        <time>2015-05-25T10:23:33.000Z</time>
      </trkpt>
      <trkpt lat="47.51636" lon="6.77494">
        <ele>387</ele>
        <time>2015-05-25T10:23:34.000Z</time>
      </trkpt>
      <trkpt lat="47.51639" lon="6.77497">
        <ele>387</ele>
        <time>2015-05-25T10:23:35.000Z</time>
      </trkpt>
      <trkpt lat="47.51641" lon="6.775">
        <ele>388</ele>
        <time>2015-05-25T10:23:36.000Z</time>
      </trkpt>
      <trkpt lat="47.51643" lon="6.77503">
        <ele>388</ele>
        <time>2015-05-25T10:23:37.000Z</time>
      </trkpt>
      <trkpt lat="47.51645" lon="6.77506">
        <ele>388</ele>
        <time>2015-05-25T10:23:38.000Z</time>
      </trkpt>
      <trkpt lat="47.51647" lon="6.77509">
        <ele>388</ele>
        <time>2015-05-25T10:23:39.000Z</time>
      </trkpt>
      <trkpt lat="47.51649" lon="6.77512">
        <ele>388</ele>
        <time>2015-05-25T10:23:40.000Z</time>
      </trkpt>
      <trkpt lat="47.51652" lon="6.77514">
        <ele>388</ele>
        <time>2015-05-25T10:23:41.000Z</time>
      </trkpt>
      <trkpt lat="47.51654" lon="6.77516">
        <ele>388</ele>
        <time>2015-05-25T10:23:42.000Z</time>
      </trkpt>
      <trkpt lat="47.51656" lon="6.77519">
        <ele>388</ele>
        <time>2015-05-25T10:23:43.000Z</time>
      </trkpt>
      <trkpt lat="47.51659" lon="6.77521">
        <ele>388</ele>
        <time>2015-05-25T10:23:44.000Z</time>
      </trkpt>
      <trkpt lat="47.51661" lon="6.77524">
        <ele>388</ele>
        <time>2015-05-25T10:23:45.000Z</time>
      </trkpt>
      <trkpt lat="47.51663" lon="6.77526">
        <ele>388</ele>
        <time>2015-05-25T10:23:46.000Z</time>
      </trkpt>
      <trkpt lat="47.51665" lon="6.77529">
        <ele>388</ele>
        <time>2015-05-25T10:23:47.000Z</time>
      </trkpt>
      <trkpt lat="47.51667" lon="6.77533">
        <ele>390</ele>
        <time>2015-05-25T10:23:48.000Z</time>
      </trkpt>
      <trkpt lat="47.51669" lon="6.77536">
        <ele>390</ele>
        <time>2015-05-25T10:23:49.000Z</time>
      </trkpt>
      <trkpt lat="47.51671" lon="6.77538">
        <ele>390</ele>
        <time>2015-05-25T10:23:50.000Z</time>
      </trkpt>
      <trkpt lat="47.51673" lon="6.77542">
        <ele>390</ele>
        <time>2015-05-25T10:23:52.000Z</time>
      </trkpt>
      <trkpt lat="47.51675" lon="6.77544">
        <ele>390</ele>
        <time>2015-05-25T10:23:53.000Z</time>
      </trkpt>
      <trkpt lat="47.51676" lon="6.77548">
        <ele>390</ele>
        <time>2015-05-25T10:23:54.000Z</time>
      </trkpt>
      <trkpt lat="47.51679" lon="6.77551">
        <ele>390</ele>
        <time>2015-05-25T10:23:55.000Z</time>
      </trkpt>
      <trkpt lat="47.51681" lon="6.77554">
        <ele>390</ele>
        <time>2015-05-25T10:23:56.000Z</time>
      </trkpt>
      <trkpt lat="47.51684" lon="6.77557">
        <ele>390</ele>
        <time>2015-05-25T10:23:57.000Z</time>
      </trkpt>
      <trkpt lat="47.51688" lon="6.77559">
        <ele>390</ele>
        <time>2015-05-25T10:23:58.000Z</time>
      </trkpt>
      <trkpt lat="47.51691" lon="6.77559">
        <ele>390</ele>
        <time>2015-05-25T10:23:59.000Z</time>
      </trkpt>
      <trkpt lat="47.51694" lon="6.77556">
        <ele>390</ele>
        <time>2015-05-25T10:24:00.000Z</time>
      </trkpt>
      <trkpt lat="47.51697" lon="6.77553">
        <ele>390</ele>
        <time>2015-05-25T10:24:01.000Z</time>
      </trkpt>
      <trkpt lat="47.517" lon="6.7755">
        <ele>390</ele>
        <time>2015-05-25T10:24:02.000Z</time>
      </trkpt>
      <trkpt lat="47.51704" lon="6.77549">
        <ele>390</ele>
        <time>2015-05-25T10:24:03.000Z</time>
      </trkpt>
      <trkpt lat="47.51707" lon="6.77547">
        <ele>390</ele>
        <time>2015-05-25T10:24:04.000Z</time>
      </trkpt>
      <trkpt lat="47.51711" lon="6.77545">
        <ele>390</ele>
        <time>2015-05-25T10:24:05.000Z</time>
      </trkpt>
      <trkpt lat="47.51714" lon="6.77542">
        <ele>390</ele>
        <time>2015-05-25T10:24:06.000Z</time>
      </trkpt>
      <trkpt lat="47.51716" lon="6.77538">
        <ele>390</ele>
        <time>2015-05-25T10:24:07.000Z</time>
      </trkpt>
      <trkpt lat="47.51717" lon="6.77533">
        <ele>390</ele>
        <time>2015-05-25T10:24:08.000Z</time>
      </trkpt>
      <trkpt lat="47.51718" lon="6.77527">
        <ele>390</ele>
        <time>2015-05-25T10:24:09.000Z</time>
      </trkpt>
      <trkpt lat="47.51719" lon="6.77522">
        <ele>390</ele>
        <time>2015-05-25T10:24:10.000Z</time>
      </trkpt>
      <trkpt lat="47.5172" lon="6.77517">
        <ele>390</ele>
        <time>2015-05-25T10:24:11.000Z</time>
      </trkpt>
      <trkpt lat="47.51721" lon="6.77512">
        <ele>390</ele>
        <time>2015-05-25T10:24:11.998Z</time>
      </trkpt>
      <trkpt lat="47.51722" lon="6.77509">
        <ele>390</ele>
        <time>2015-05-25T10:24:13.000Z</time>
      </trkpt>
      <trkpt lat="47.51724" lon="6.77505">
        <ele>390</ele>
        <time>2015-05-25T10:24:14.000Z</time>
      </trkpt>
      <trkpt lat="47.51725" lon="6.77501">
        <ele>390</ele>
        <time>2015-05-25T10:24:15.000Z</time>
      </trkpt>
      <trkpt lat="47.51727" lon="6.77496">
        <ele>389</ele>
        <time>2015-05-25T10:24:16.000Z</time>
      </trkpt>
      <trkpt lat="47.51729" lon="6.77491">
        <ele>389</ele>
        <time>2015-05-25T10:24:17.000Z</time>
      </trkpt>
      <trkpt lat="47.51734" lon="6.77484">
        <ele>389</ele>
        <time>2015-05-25T10:24:18.000Z</time>
      </trkpt>
      <trkpt lat="47.51738" lon="6.77485">
        <ele>389</ele>
        <time>2015-05-25T10:24:19.000Z</time>
      </trkpt>
      <trkpt lat="47.51742" lon="6.77485">
        <ele>389</ele>
        <time>2015-05-25T10:24:20.000Z</time>
      </trkpt>
      <trkpt lat="47.51746" lon="6.77485">
        <ele>389</ele>
        <time>2015-05-25T10:24:21.000Z</time>
      </trkpt>
      <trkpt lat="47.5175" lon="6.77485">
        <ele>389</ele>
        <time>2015-05-25T10:24:22.000Z</time>
      </trkpt>
      <trkpt lat="47.51753" lon="6.77485">
        <ele>389</ele>
        <time>2015-05-25T10:24:23.000Z</time>
      </trkpt>
      <trkpt lat="47.51758" lon="6.77484">
        <ele>389</ele>
        <time>2015-05-25T10:24:24.000Z</time>
      </trkpt>
      <trkpt lat="47.51761" lon="6.77485">
        <ele>389</ele>
        <time>2015-05-25T10:24:25.000Z</time>
      </trkpt>
      <trkpt lat="47.51766" lon="6.77486">
        <ele>389</ele>
        <time>2015-05-25T10:24:26.000Z</time>
      </trkpt>
      <trkpt lat="47.51769" lon="6.77487">
        <ele>389</ele>
        <time>2015-05-25T10:24:27.000Z</time>
      </trkpt>
      <trkpt lat="47.51773" lon="6.77488">
        <ele>388</ele>
        <time>2015-05-25T10:24:28.000Z</time>
      </trkpt>
      <trkpt lat="47.51778" lon="6.7749">
        <ele>388</ele>
        <time>2015-05-25T10:24:29.000Z</time>
      </trkpt>
      <trkpt lat="47.51782" lon="6.77492">
        <ele>388</ele>
        <time>2015-05-25T10:24:30.000Z</time>
      </trkpt>
      <trkpt lat="47.51787" lon="6.77494">
        <ele>388</ele>
        <time>2015-05-25T10:24:31.000Z</time>
      </trkpt>
      <trkpt lat="47.51791" lon="6.77496">
        <ele>388</ele>
        <time>2015-05-25T10:24:32.000Z</time>
      </trkpt>
      <trkpt lat="47.51796" lon="6.77498">
        <ele>388</ele>
        <time>2015-05-25T10:24:33.000Z</time>
      </trkpt>
      <trkpt lat="47.518" lon="6.77499">
        <ele>388</ele>
        <time>2015-05-25T10:24:34.000Z</time>
      </trkpt>
      <trkpt lat="47.51804" lon="6.77499">
        <ele>388</ele>
        <time>2015-05-25T10:24:35.000Z</time>
      </trkpt>
      <trkpt lat="47.51807" lon="6.775">
        <ele>388</ele>
        <time>2015-05-25T10:24:37.000Z</time>
      </trkpt>
      <trkpt lat="47.51807" lon="6.77493">
        <ele>388</ele>
        <time>2015-05-25T10:24:38.000Z</time>
      </trkpt>
      <trkpt lat="47.51807" lon="6.77487">
        <ele>388</ele>
        <time>2015-05-25T10:24:40.000Z</time>
      </trkpt>
      <trkpt lat="47.51804" lon="6.77484">
        <ele>388</ele>
        <time>2015-05-25T10:24:41.000Z</time>
      </trkpt>
      <trkpt lat="47.51802" lon="6.77481">
        <ele>388</ele>
        <time>2015-05-25T10:24:42.000Z</time>
      </trkpt>
      <trkpt lat="47.51801" lon="6.77479">
        <ele>388</ele>
        <time>2015-05-25T10:24:43.000Z</time>
      </trkpt>
      <trkpt lat="47.51799" lon="6.77474">
        <ele>388</ele>
        <time>2015-05-25T10:24:50.000Z</time>
      </trkpt>
      <trkpt lat="47.51798" lon="6.77473">
        <ele>388</ele>
        <time>2015-05-25T10:24:51.000Z</time>
      </trkpt>
      <trkpt lat="47.51798" lon="6.77467">
        <ele>388</ele>
        <time>2015-05-25T10:24:56.000Z</time>
      </trkpt>
      <trkpt lat="47.51798" lon="6.77466">
        <ele>388</ele>
        <time>2015-05-25T10:24:57.000Z</time>
      </trkpt>
      <trkpt lat="47.51794" lon="6.77466">
        <ele>388</ele>
        <time>2015-05-25T10:25:24.000Z</time>
      </trkpt>
      <trkpt lat="47.51794" lon="6.77466">
        <ele>388</ele>
        <time>2015-05-25T10:25:25.000Z</time>
      </trkpt>
      <trkpt lat="47.51795" lon="6.77467">
        <ele>388</ele>
        <time>2015-05-25T10:29:26.000Z</time>
      </trkpt>
    </trkseg>
  </trk>
</gpx>